<?xml version='1.0' encoding='UTF-8'?>
<gpx version="1.1" creator="https://www.komoot.de" xmlns="http://www.topografix.com/GPX/1/1" xmlns:xsi="http://www.w3.org/2001/XMLSchema-instance" xsi:schemaLocation="http://www.topografix.com/GPX/1/1 http://www.topografix.com/GPX/1/1/gpx.xsd">
  <metadata>
    <name>GVA-MAR - Whole Route</name>
    <author>
      <link href="https://www.komoot.de">
        <text>komoot</text>
        <type>text/html</type>
      </link>
    </author>
  </metadata>
  <trk>
    <name>GVA-MAR - Whole Route</name>
    <trkseg>
      <trkpt lat="46.230304" lon="6.108250">
        <ele>424.563094</ele>
        <time>2021-07-03T18:23:29.349Z</time>
      </trkpt>
      <trkpt lat="46.230005" lon="6.107814">
        <ele>424.563094</ele>
        <time>2021-07-03T18:23:38.440Z</time>
      </trkpt>
      <trkpt lat="46.229790" lon="6.107501">
        <ele>424.563094</ele>
        <time>2021-07-03T18:23:47.869Z</time>
      </trkpt>
      <trkpt lat="46.229518" lon="6.107106">
        <ele>424.677909</ele>
        <time>2021-07-03T18:24:00.010Z</time>
      </trkpt>
      <trkpt lat="46.229473" lon="6.107031">
        <ele>424.714404</ele>
        <time>2021-07-03T18:24:02.188Z</time>
      </trkpt>
      <trkpt lat="46.229434" lon="6.106952">
        <ele>424.750082</ele>
        <time>2021-07-03T18:24:04.357Z</time>
      </trkpt>
      <trkpt lat="46.229420" lon="6.106924">
        <ele>424.762782</ele>
        <time>2021-07-03T18:24:05.104Z</time>
      </trkpt>
      <trkpt lat="46.229388" lon="6.106840">
        <ele>424.798033</ele>
        <time>2021-07-03T18:24:06.967Z</time>
      </trkpt>
      <trkpt lat="46.229344" lon="6.106380">
        <ele>424.968740</ele>
        <time>2021-07-03T18:24:17.512Z</time>
      </trkpt>
      <trkpt lat="46.229361" lon="6.106203">
        <ele>425.034430</ele>
        <time>2021-07-03T18:24:21.688Z</time>
      </trkpt>
      <trkpt lat="46.229382" lon="6.106062">
        <ele>425.087450</ele>
        <time>2021-07-03T18:24:25.352Z</time>
      </trkpt>
      <trkpt lat="46.229396" lon="6.105934">
        <ele>425.135088</ele>
        <time>2021-07-03T18:24:28.292Z</time>
      </trkpt>
      <trkpt lat="46.229395" lon="6.105849">
        <ele>425.166339</ele>
        <time>2021-07-03T18:24:29.679Z</time>
      </trkpt>
      <trkpt lat="46.229437" lon="6.105798">
        <ele>425.195487</ele>
        <time>2021-07-03T18:24:30.887Z</time>
      </trkpt>
      <trkpt lat="46.229450" lon="6.105783">
        <ele>425.204326</ele>
        <time>2021-07-03T18:24:31.739Z</time>
      </trkpt>
      <trkpt lat="46.229375" lon="6.105512">
        <ele>425.311623</ele>
        <time>2021-07-03T18:24:37.225Z</time>
      </trkpt>
      <trkpt lat="46.228937" lon="6.104818">
        <ele>425.234345</ele>
        <time>2021-07-03T18:24:51.402Z</time>
      </trkpt>
      <trkpt lat="46.228826" lon="6.104523">
        <ele>424.979952</ele>
        <time>2021-07-03T18:24:55.868Z</time>
      </trkpt>
      <trkpt lat="46.228783" lon="6.104347">
        <ele>424.838554</ele>
        <time>2021-07-03T18:24:58.937Z</time>
      </trkpt>
      <trkpt lat="46.228708" lon="6.104094">
        <ele>424.630039</ele>
        <time>2021-07-03T18:25:02.345Z</time>
      </trkpt>
      <trkpt lat="46.228644" lon="6.103900">
        <ele>424.467220</ele>
        <time>2021-07-03T18:25:05.974Z</time>
      </trkpt>
      <trkpt lat="46.228618" lon="6.103842">
        <ele>424.414864</ele>
        <time>2021-07-03T18:25:06.884Z</time>
      </trkpt>
      <trkpt lat="46.228595" lon="6.103795">
        <ele>424.371252</ele>
        <time>2021-07-03T18:25:07.611Z</time>
      </trkpt>
      <trkpt lat="46.228562" lon="6.103744">
        <ele>424.318351</ele>
        <time>2021-07-03T18:25:08.495Z</time>
      </trkpt>
      <trkpt lat="46.228510" lon="6.103666">
        <ele>424.236290</ele>
        <time>2021-07-03T18:25:09.682Z</time>
      </trkpt>
      <trkpt lat="46.228070" lon="6.103018">
        <ele>423.548213</ele>
        <time>2021-07-03T18:25:21.143Z</time>
      </trkpt>
      <trkpt lat="46.227987" lon="6.102896">
        <ele>423.381968</ele>
        <time>2021-07-03T18:25:23.046Z</time>
      </trkpt>
      <trkpt lat="46.227771" lon="6.102578">
        <ele>422.948979</ele>
        <time>2021-07-03T18:25:28.496Z</time>
      </trkpt>
      <trkpt lat="46.227251" lon="6.101816">
        <ele>421.909056</ele>
        <time>2021-07-03T18:25:41.433Z</time>
      </trkpt>
      <trkpt lat="46.226922" lon="6.101330">
        <ele>421.248408</ele>
        <time>2021-07-03T18:25:51.303Z</time>
      </trkpt>
      <trkpt lat="46.226771" lon="6.101211">
        <ele>421.024247</ele>
        <time>2021-07-03T18:25:54.744Z</time>
      </trkpt>
      <trkpt lat="46.226007" lon="6.101205">
        <ele>421.092718</ele>
        <time>2021-07-03T18:26:12.182Z</time>
      </trkpt>
      <trkpt lat="46.225973" lon="6.101202">
        <ele>421.095771</ele>
        <time>2021-07-03T18:26:13.071Z</time>
      </trkpt>
      <trkpt lat="46.225935" lon="6.101195">
        <ele>421.099204</ele>
        <time>2021-07-03T18:26:14.510Z</time>
      </trkpt>
      <trkpt lat="46.225779" lon="6.101095">
        <ele>421.114498</ele>
        <time>2021-07-03T18:26:18.345Z</time>
      </trkpt>
      <trkpt lat="46.224330" lon="6.099415">
        <ele>420.838320</ele>
        <time>2021-07-03T18:27:00.407Z</time>
      </trkpt>
      <trkpt lat="46.224301" lon="6.099383">
        <ele>420.826603</ele>
        <time>2021-07-03T18:27:01.013Z</time>
      </trkpt>
      <trkpt lat="46.224251" lon="6.099329">
        <ele>420.806557</ele>
        <time>2021-07-03T18:27:02.301Z</time>
      </trkpt>
      <trkpt lat="46.224180" lon="6.099250">
        <ele>420.777780</ele>
        <time>2021-07-03T18:27:04.117Z</time>
      </trkpt>
      <trkpt lat="46.224134" lon="6.099199">
        <ele>420.759161</ele>
        <time>2021-07-03T18:27:05.240Z</time>
      </trkpt>
      <trkpt lat="46.224106" lon="6.099209">
        <ele>420.749898</ele>
        <time>2021-07-03T18:27:05.830Z</time>
      </trkpt>
      <trkpt lat="46.224067" lon="6.099167">
        <ele>420.734278</ele>
        <time>2021-07-03T18:27:06.773Z</time>
      </trkpt>
      <trkpt lat="46.224057" lon="6.099187">
        <ele>420.728795</ele>
        <time>2021-07-03T18:27:07.130Z</time>
      </trkpt>
      <trkpt lat="46.224009" lon="6.099277">
        <ele>420.703545</ele>
        <time>2021-07-03T18:27:08.544Z</time>
      </trkpt>
      <trkpt lat="46.223962" lon="6.099365">
        <ele>420.678843</ele>
        <time>2021-07-03T18:27:10.041Z</time>
      </trkpt>
      <trkpt lat="46.223946" lon="6.099394">
        <ele>420.670601</ele>
        <time>2021-07-03T18:27:10.581Z</time>
      </trkpt>
      <trkpt lat="46.224054" lon="6.099533">
        <ele>420.624157</ele>
        <time>2021-07-03T18:27:13.436Z</time>
      </trkpt>
      <trkpt lat="46.224077" lon="6.099684">
        <ele>420.563127</ele>
        <time>2021-07-03T18:27:15.402Z</time>
      </trkpt>
      <trkpt lat="46.224066" lon="6.099717">
        <ele>420.542165</ele>
        <time>2021-07-03T18:27:15.965Z</time>
      </trkpt>
      <trkpt lat="46.223959" lon="6.099921">
        <ele>420.395668</ele>
        <time>2021-07-03T18:27:19.442Z</time>
      </trkpt>
      <trkpt lat="46.223879" lon="6.100068">
        <ele>420.288639</ele>
        <time>2021-07-03T18:27:21.905Z</time>
      </trkpt>
      <trkpt lat="46.223528" lon="6.100714">
        <ele>419.818581</ele>
        <time>2021-07-03T18:27:33.241Z</time>
      </trkpt>
      <trkpt lat="46.223493" lon="6.100779">
        <ele>419.771446</ele>
        <time>2021-07-03T18:27:34.385Z</time>
      </trkpt>
      <trkpt lat="46.223392" lon="6.100965">
        <ele>419.636135</ele>
        <time>2021-07-03T18:27:37.561Z</time>
      </trkpt>
      <trkpt lat="46.223359" lon="6.101065">
        <ele>419.572732</ele>
        <time>2021-07-03T18:27:39.149Z</time>
      </trkpt>
      <trkpt lat="46.223246" lon="6.102087">
        <ele>419.035454</ele>
        <time>2021-07-03T18:27:53.889Z</time>
      </trkpt>
      <trkpt lat="46.223208" lon="6.102355">
        <ele>418.941052</ele>
        <time>2021-07-03T18:27:57.855Z</time>
      </trkpt>
      <trkpt lat="46.223201" lon="6.102746">
        <ele>418.806084</ele>
        <time>2021-07-03T18:28:03.376Z</time>
      </trkpt>
      <trkpt lat="46.223052" lon="6.102747">
        <ele>418.731767</ele>
        <time>2021-07-03T18:28:06.338Z</time>
      </trkpt>
      <trkpt lat="46.222401" lon="6.102725">
        <ele>418.406980</ele>
        <time>2021-07-03T18:28:20.555Z</time>
      </trkpt>
      <trkpt lat="46.222026" lon="6.102788">
        <ele>418.230921</ele>
        <time>2021-07-03T18:28:28.905Z</time>
      </trkpt>
      <trkpt lat="46.221754" lon="6.102846">
        <ele>418.618500</ele>
        <time>2021-07-03T18:28:34.981Z</time>
      </trkpt>
      <trkpt lat="46.221705" lon="6.102869">
        <ele>418.691125</ele>
        <time>2021-07-03T18:28:36.836Z</time>
      </trkpt>
      <trkpt lat="46.221660" lon="6.102900">
        <ele>418.761397</ele>
        <time>2021-07-03T18:28:38.278Z</time>
      </trkpt>
      <trkpt lat="46.221612" lon="6.102982">
        <ele>418.866156</ele>
        <time>2021-07-03T18:28:39.868Z</time>
      </trkpt>
      <trkpt lat="46.221376" lon="6.103286">
        <ele>419.311785</ele>
        <time>2021-07-03T18:28:48.761Z</time>
      </trkpt>
      <trkpt lat="46.221335" lon="6.103339">
        <ele>419.389325</ele>
        <time>2021-07-03T18:28:50.088Z</time>
      </trkpt>
      <trkpt lat="46.221170" lon="6.103576">
        <ele>419.717243</ele>
        <time>2021-07-03T18:28:57.075Z</time>
      </trkpt>
      <trkpt lat="46.221105" lon="6.103675">
        <ele>419.850356</ele>
        <time>2021-07-03T18:28:59.805Z</time>
      </trkpt>
      <trkpt lat="46.221077" lon="6.103710">
        <ele>419.902540</ele>
        <time>2021-07-03T18:29:00.778Z</time>
      </trkpt>
      <trkpt lat="46.221043" lon="6.103731">
        <ele>419.954661</ele>
        <time>2021-07-03T18:29:01.700Z</time>
      </trkpt>
      <trkpt lat="46.221001" lon="6.103838">
        <ele>420.074645</ele>
        <time>2021-07-03T18:29:03.889Z</time>
      </trkpt>
      <trkpt lat="46.220915" lon="6.103925">
        <ele>420.222622</ele>
        <time>2021-07-03T18:29:07.831Z</time>
      </trkpt>
      <trkpt lat="46.220831" lon="6.104096">
        <ele>420.427162</ele>
        <time>2021-07-03T18:29:11.966Z</time>
      </trkpt>
      <trkpt lat="46.220717" lon="6.104199">
        <ele>420.616680</ele>
        <time>2021-07-03T18:29:16.661Z</time>
      </trkpt>
      <trkpt lat="46.220682" lon="6.104216">
        <ele>420.668730</ele>
        <time>2021-07-03T18:29:17.913Z</time>
      </trkpt>
      <trkpt lat="46.220687" lon="6.104300">
        <ele>420.750960</ele>
        <time>2021-07-03T18:29:20.771Z</time>
      </trkpt>
      <trkpt lat="46.220865" lon="6.104643">
        <ele>421.489438</ele>
        <time>2021-07-03T18:29:30.528Z</time>
      </trkpt>
      <trkpt lat="46.220881" lon="6.104834">
        <ele>421.823046</ele>
        <time>2021-07-03T18:29:35.536Z</time>
      </trkpt>
      <trkpt lat="46.220306" lon="6.105745">
        <ele>423.961259</ele>
        <time>2021-07-03T18:30:02.357Z</time>
      </trkpt>
      <trkpt lat="46.220270" lon="6.105803">
        <ele>424.096369</ele>
        <time>2021-07-03T18:30:04.921Z</time>
      </trkpt>
      <trkpt lat="46.220214" lon="6.105890">
        <ele>424.302416</ele>
        <time>2021-07-03T18:30:07.998Z</time>
      </trkpt>
      <trkpt lat="46.219918" lon="6.106125">
        <ele>425.148795</ele>
        <time>2021-07-03T18:30:18.340Z</time>
      </trkpt>
      <trkpt lat="46.219853" lon="6.106086">
        <ele>425.307482</ele>
        <time>2021-07-03T18:30:20.193Z</time>
      </trkpt>
      <trkpt lat="46.219831" lon="6.106145">
        <ele>425.389476</ele>
        <time>2021-07-03T18:30:21.321Z</time>
      </trkpt>
      <trkpt lat="46.219801" lon="6.106256">
        <ele>425.535264</ele>
        <time>2021-07-03T18:30:23.567Z</time>
      </trkpt>
      <trkpt lat="46.219789" lon="6.106298">
        <ele>425.590854</ele>
        <time>2021-07-03T18:30:24.399Z</time>
      </trkpt>
      <trkpt lat="46.219757" lon="6.106378">
        <ele>425.703903</ele>
        <time>2021-07-03T18:30:27.230Z</time>
      </trkpt>
      <trkpt lat="46.219736" lon="6.106370">
        <ele>425.742303</ele>
        <time>2021-07-03T18:30:27.906Z</time>
      </trkpt>
      <trkpt lat="46.219722" lon="6.106362">
        <ele>425.768921</ele>
        <time>2021-07-03T18:30:28.278Z</time>
      </trkpt>
      <trkpt lat="46.219669" lon="6.106330">
        <ele>425.870482</ele>
        <time>2021-07-03T18:30:29.798Z</time>
      </trkpt>
      <trkpt lat="46.219573" lon="6.106275">
        <ele>426.053076</ele>
        <time>2021-07-03T18:30:32.309Z</time>
      </trkpt>
      <trkpt lat="46.219501" lon="6.106234">
        <ele>426.189908</ele>
        <time>2021-07-03T18:30:34.483Z</time>
      </trkpt>
      <trkpt lat="46.219435" lon="6.106196">
        <ele>426.315526</ele>
        <time>2021-07-03T18:30:37.152Z</time>
      </trkpt>
      <trkpt lat="46.219375" lon="6.106161">
        <ele>426.429931</ele>
        <time>2021-07-03T18:30:39.227Z</time>
      </trkpt>
      <trkpt lat="46.219360" lon="6.106246">
        <ele>426.537248</ele>
        <time>2021-07-03T18:30:40.839Z</time>
      </trkpt>
      <trkpt lat="46.219351" lon="6.106380">
        <ele>426.701953</ele>
        <time>2021-07-03T18:30:43.113Z</time>
      </trkpt>
      <trkpt lat="46.219348" lon="6.106501">
        <ele>426.850078</ele>
        <time>2021-07-03T18:30:45.415Z</time>
      </trkpt>
      <trkpt lat="46.219307" lon="6.106609">
        <ele>427.000785</ele>
        <time>2021-07-03T18:30:48.934Z</time>
      </trkpt>
      <trkpt lat="46.218402" lon="6.109951">
        <ele>430.309127</ele>
        <time>2021-07-03T18:31:58.153Z</time>
      </trkpt>
      <trkpt lat="46.218367" lon="6.110066">
        <ele>430.406364</ele>
        <time>2021-07-03T18:32:00.255Z</time>
      </trkpt>
      <trkpt lat="46.218311" lon="6.110184">
        <ele>430.399365</ele>
        <time>2021-07-03T18:32:02.700Z</time>
      </trkpt>
      <trkpt lat="46.218285" lon="6.110127">
        <ele>430.348093</ele>
        <time>2021-07-03T18:32:03.708Z</time>
      </trkpt>
      <trkpt lat="46.218253" lon="6.110162">
        <ele>430.304536</ele>
        <time>2021-07-03T18:32:04.547Z</time>
      </trkpt>
      <trkpt lat="46.218147" lon="6.110281">
        <ele>430.158852</ele>
        <time>2021-07-03T18:32:07.158Z</time>
      </trkpt>
      <trkpt lat="46.217707" lon="6.110277">
        <ele>429.681270</ele>
        <time>2021-07-03T18:32:16.035Z</time>
      </trkpt>
      <trkpt lat="46.217255" lon="6.110254">
        <ele>429.190369</ele>
        <time>2021-07-03T18:32:24.585Z</time>
      </trkpt>
      <trkpt lat="46.217254" lon="6.110209">
        <ele>429.156556</ele>
        <time>2021-07-03T18:32:25.321Z</time>
      </trkpt>
      <trkpt lat="46.217225" lon="6.110208">
        <ele>429.125071</ele>
        <time>2021-07-03T18:32:27.289Z</time>
      </trkpt>
      <trkpt lat="46.217204" lon="6.110206">
        <ele>429.102228</ele>
        <time>2021-07-03T18:32:28.779Z</time>
      </trkpt>
      <trkpt lat="46.217146" lon="6.110203">
        <ele>429.039235</ele>
        <time>2021-07-03T18:32:32.782Z</time>
      </trkpt>
      <trkpt lat="46.216933" lon="6.110195">
        <ele>428.807968</ele>
        <time>2021-07-03T18:32:47.606Z</time>
      </trkpt>
      <trkpt lat="46.216884" lon="6.110214">
        <ele>428.752903</ele>
        <time>2021-07-03T18:32:51.151Z</time>
      </trkpt>
      <trkpt lat="46.216711" lon="6.110210">
        <ele>428.565106</ele>
        <time>2021-07-03T18:32:54.053Z</time>
      </trkpt>
      <trkpt lat="46.216572" lon="6.110139">
        <ele>428.379583</ele>
        <time>2021-07-03T18:32:56.696Z</time>
      </trkpt>
      <trkpt lat="46.216421" lon="6.110237">
        <ele>428.154105</ele>
        <time>2021-07-03T18:32:59.530Z</time>
      </trkpt>
      <trkpt lat="46.215903" lon="6.110301">
        <ele>427.445922</ele>
        <time>2021-07-03T18:33:08.640Z</time>
      </trkpt>
      <trkpt lat="46.215486" lon="6.110384">
        <ele>426.872531</ele>
        <time>2021-07-03T18:33:16.301Z</time>
      </trkpt>
      <trkpt lat="46.214774" lon="6.110551">
        <ele>426.038585</ele>
        <time>2021-07-03T18:33:31.235Z</time>
      </trkpt>
      <trkpt lat="46.214689" lon="6.110565">
        <ele>426.026968</ele>
        <time>2021-07-03T18:33:33.066Z</time>
      </trkpt>
      <trkpt lat="46.214557" lon="6.110661">
        <ele>426.006903</ele>
        <time>2021-07-03T18:33:36.463Z</time>
      </trkpt>
      <trkpt lat="46.214415" lon="6.110682">
        <ele>425.987520</ele>
        <time>2021-07-03T18:33:39.761Z</time>
      </trkpt>
      <trkpt lat="46.214307" lon="6.110696">
        <ele>425.972796</ele>
        <time>2021-07-03T18:33:42.243Z</time>
      </trkpt>
      <trkpt lat="46.213643" lon="6.110674">
        <ele>425.882608</ele>
        <time>2021-07-03T18:33:57.261Z</time>
      </trkpt>
      <trkpt lat="46.213223" lon="6.110585">
        <ele>425.824966</ele>
        <time>2021-07-03T18:34:05.806Z</time>
      </trkpt>
      <trkpt lat="46.212703" lon="6.110366">
        <ele>425.692990</ele>
        <time>2021-07-03T18:34:17.583Z</time>
      </trkpt>
      <trkpt lat="46.212492" lon="6.110242">
        <ele>425.631629</ele>
        <time>2021-07-03T18:34:23.126Z</time>
      </trkpt>
      <trkpt lat="46.212093" lon="6.109989">
        <ele>425.514250</ele>
        <time>2021-07-03T18:34:33.018Z</time>
      </trkpt>
      <trkpt lat="46.211986" lon="6.109924">
        <ele>425.482982</ele>
        <time>2021-07-03T18:34:35.652Z</time>
      </trkpt>
      <trkpt lat="46.211787" lon="6.109719">
        <ele>425.417147</ele>
        <time>2021-07-03T18:34:40.477Z</time>
      </trkpt>
      <trkpt lat="46.211604" lon="6.109504">
        <ele>425.353612</ele>
        <time>2021-07-03T18:34:45.213Z</time>
      </trkpt>
      <trkpt lat="46.211450" lon="6.109117">
        <ele>425.290747</ele>
        <time>2021-07-03T18:34:51.206Z</time>
      </trkpt>
      <trkpt lat="46.211414" lon="6.108947">
        <ele>425.269680</ele>
        <time>2021-07-03T18:34:53.534Z</time>
      </trkpt>
      <trkpt lat="46.211399" lon="6.108833">
        <ele>425.255929</ele>
        <time>2021-07-03T18:34:55.041Z</time>
      </trkpt>
      <trkpt lat="46.211352" lon="6.108808">
        <ele>425.247352</ele>
        <time>2021-07-03T18:34:56.074Z</time>
      </trkpt>
      <trkpt lat="46.211296" lon="6.108792">
        <ele>425.237577</ele>
        <time>2021-07-03T18:34:57.247Z</time>
      </trkpt>
      <trkpt lat="46.211245" lon="6.108780">
        <ele>425.228728</ele>
        <time>2021-07-03T18:34:58.238Z</time>
      </trkpt>
      <trkpt lat="46.211174" lon="6.108774">
        <ele>425.216549</ele>
        <time>2021-07-03T18:34:59.628Z</time>
      </trkpt>
      <trkpt lat="46.210963" lon="6.108801">
        <ele>425.180274</ele>
        <time>2021-07-03T18:35:04.359Z</time>
      </trkpt>
      <trkpt lat="46.210909" lon="6.108814">
        <ele>425.170900</ele>
        <time>2021-07-03T18:35:05.610Z</time>
      </trkpt>
      <trkpt lat="46.210456" lon="6.108960">
        <ele>425.091419</ele>
        <time>2021-07-03T18:35:16.699Z</time>
      </trkpt>
      <trkpt lat="46.209439" lon="6.109246">
        <ele>425.159089</ele>
        <time>2021-07-03T18:35:40.198Z</time>
      </trkpt>
      <trkpt lat="46.209126" lon="6.109308">
        <ele>425.232167</ele>
        <time>2021-07-03T18:35:47.383Z</time>
      </trkpt>
      <trkpt lat="46.208883" lon="6.109357">
        <ele>425.288921</ele>
        <time>2021-07-03T18:35:53.298Z</time>
      </trkpt>
      <trkpt lat="46.208303" lon="6.109460">
        <ele>425.424092</ele>
        <time>2021-07-03T18:36:07.188Z</time>
      </trkpt>
      <trkpt lat="46.207936" lon="6.109527">
        <ele>425.090277</ele>
        <time>2021-07-03T18:36:15.993Z</time>
      </trkpt>
      <trkpt lat="46.207813" lon="6.109557">
        <ele>424.958543</ele>
        <time>2021-07-03T18:36:19.006Z</time>
      </trkpt>
      <trkpt lat="46.207566" lon="6.109606">
        <ele>424.695246</ele>
        <time>2021-07-03T18:36:24.307Z</time>
      </trkpt>
      <trkpt lat="46.206340" lon="6.109825">
        <ele>422.558337</ele>
        <time>2021-07-03T18:36:46.986Z</time>
      </trkpt>
      <trkpt lat="46.206283" lon="6.109826">
        <ele>422.150574</ele>
        <time>2021-07-03T18:36:47.946Z</time>
      </trkpt>
      <trkpt lat="46.206218" lon="6.109822">
        <ele>421.685194</ele>
        <time>2021-07-03T18:36:49.150Z</time>
      </trkpt>
      <trkpt lat="46.206198" lon="6.109817">
        <ele>421.540004</ele>
        <time>2021-07-03T18:36:49.503Z</time>
      </trkpt>
      <trkpt lat="46.206166" lon="6.109811">
        <ele>421.309182</ele>
        <time>2021-07-03T18:36:50.049Z</time>
      </trkpt>
      <trkpt lat="46.206122" lon="6.109811">
        <ele>420.994441</ele>
        <time>2021-07-03T18:36:50.758Z</time>
      </trkpt>
      <trkpt lat="46.205797" lon="6.109870">
        <ele>418.651372</ele>
        <time>2021-07-03T18:36:55.674Z</time>
      </trkpt>
      <trkpt lat="46.205757" lon="6.109880">
        <ele>418.360993</ele>
        <time>2021-07-03T18:36:56.243Z</time>
      </trkpt>
      <trkpt lat="46.205674" lon="6.109908">
        <ele>417.751310</ele>
        <time>2021-07-03T18:36:57.379Z</time>
      </trkpt>
      <trkpt lat="46.205480" lon="6.109928">
        <ele>416.360060</ele>
        <time>2021-07-03T18:37:00.111Z</time>
      </trkpt>
      <trkpt lat="46.205419" lon="6.109947">
        <ele>415.913692</ele>
        <time>2021-07-03T18:37:00.966Z</time>
      </trkpt>
      <trkpt lat="46.205374" lon="6.109958">
        <ele>415.587223</ele>
        <time>2021-07-03T18:37:01.548Z</time>
      </trkpt>
      <trkpt lat="46.205066" lon="6.109996">
        <ele>413.376018</ele>
        <time>2021-07-03T18:37:05.790Z</time>
      </trkpt>
      <trkpt lat="46.205033" lon="6.109976">
        <ele>413.120039</ele>
        <time>2021-07-03T18:37:06.248Z</time>
      </trkpt>
      <trkpt lat="46.205004" lon="6.109966">
        <ele>412.906770</ele>
        <time>2021-07-03T18:37:06.630Z</time>
      </trkpt>
      <trkpt lat="46.204792" lon="6.110085">
        <ele>411.279878</ele>
        <time>2021-07-03T18:37:09.829Z</time>
      </trkpt>
      <trkpt lat="46.204495" lon="6.110143">
        <ele>410.391434</ele>
        <time>2021-07-03T18:37:13.945Z</time>
      </trkpt>
      <trkpt lat="46.204419" lon="6.110162">
        <ele>410.291613</ele>
        <time>2021-07-03T18:37:15.001Z</time>
      </trkpt>
      <trkpt lat="46.204235" lon="6.110185">
        <ele>410.052588</ele>
        <time>2021-07-03T18:37:17.492Z</time>
      </trkpt>
      <trkpt lat="46.203857" lon="6.110249">
        <ele>409.560027</ele>
        <time>2021-07-03T18:37:22.828Z</time>
      </trkpt>
      <trkpt lat="46.199708" lon="6.110977">
        <ele>408.246836</ele>
        <time>2021-07-03T18:39:15.194Z</time>
      </trkpt>
      <trkpt lat="46.199002" lon="6.111125">
        <ele>409.500086</ele>
        <time>2021-07-03T18:39:39.489Z</time>
      </trkpt>
      <trkpt lat="46.197488" lon="6.111378">
        <ele>412.476023</ele>
        <time>2021-07-03T18:40:24.258Z</time>
      </trkpt>
      <trkpt lat="46.197037" lon="6.111540">
        <ele>413.281429</ele>
        <time>2021-07-03T18:40:37.573Z</time>
      </trkpt>
      <trkpt lat="46.196913" lon="6.111606">
        <ele>413.510448</ele>
        <time>2021-07-03T18:40:41.085Z</time>
      </trkpt>
      <trkpt lat="46.196855" lon="6.111655">
        <ele>413.626890</ele>
        <time>2021-07-03T18:40:43.274Z</time>
      </trkpt>
      <trkpt lat="46.196697" lon="6.111758">
        <ele>413.927300</ele>
        <time>2021-07-03T18:40:48.562Z</time>
      </trkpt>
      <trkpt lat="46.196646" lon="6.111790">
        <ele>414.023662</ele>
        <time>2021-07-03T18:40:49.900Z</time>
      </trkpt>
      <trkpt lat="46.196599" lon="6.111821">
        <ele>414.113203</ele>
        <time>2021-07-03T18:40:51.323Z</time>
      </trkpt>
      <trkpt lat="46.196592" lon="6.111828">
        <ele>414.127957</ele>
        <time>2021-07-03T18:40:51.607Z</time>
      </trkpt>
      <trkpt lat="46.196507" lon="6.111879">
        <ele>414.287466</ele>
        <time>2021-07-03T18:40:54.428Z</time>
      </trkpt>
      <trkpt lat="46.196418" lon="6.111925">
        <ele>414.451282</ele>
        <time>2021-07-03T18:40:56.973Z</time>
      </trkpt>
      <trkpt lat="46.196376" lon="6.111953">
        <ele>414.531446</ele>
        <time>2021-07-03T18:40:58.790Z</time>
      </trkpt>
      <trkpt lat="46.195976" lon="6.112114">
        <ele>415.251071</ele>
        <time>2021-07-03T18:41:10.807Z</time>
      </trkpt>
      <trkpt lat="46.195577" lon="6.112185">
        <ele>415.943561</ele>
        <time>2021-07-03T18:41:22.365Z</time>
      </trkpt>
      <trkpt lat="46.195488" lon="6.112192">
        <ele>416.096704</ele>
        <time>2021-07-03T18:41:25.318Z</time>
      </trkpt>
      <trkpt lat="46.195364" lon="6.112237">
        <ele>416.316375</ele>
        <time>2021-07-03T18:41:28.713Z</time>
      </trkpt>
      <trkpt lat="46.195308" lon="6.112233">
        <ele>416.412709</ele>
        <time>2021-07-03T18:41:30.708Z</time>
      </trkpt>
      <trkpt lat="46.195195" lon="6.112235">
        <ele>416.606876</ele>
        <time>2021-07-03T18:41:33.962Z</time>
      </trkpt>
      <trkpt lat="46.194949" lon="6.112220">
        <ele>417.029920</ele>
        <time>2021-07-03T18:41:41.655Z</time>
      </trkpt>
      <trkpt lat="46.194745" lon="6.112204">
        <ele>417.380941</ele>
        <time>2021-07-03T18:41:47.981Z</time>
      </trkpt>
      <trkpt lat="46.193686" lon="6.112147">
        <ele>418.885923</ele>
        <time>2021-07-03T18:42:17.484Z</time>
      </trkpt>
      <trkpt lat="46.192756" lon="6.112089">
        <ele>419.714416</ele>
        <time>2021-07-03T18:42:41.140Z</time>
      </trkpt>
      <trkpt lat="46.192582" lon="6.112061">
        <ele>419.870238</ele>
        <time>2021-07-03T18:42:45.446Z</time>
      </trkpt>
      <trkpt lat="46.192371" lon="6.112033">
        <ele>420.058824</ele>
        <time>2021-07-03T18:42:50.674Z</time>
      </trkpt>
      <trkpt lat="46.191740" lon="6.112004">
        <ele>420.258752</ele>
        <time>2021-07-03T18:43:06.065Z</time>
      </trkpt>
      <trkpt lat="46.191585" lon="6.112000">
        <ele>420.291224</ele>
        <time>2021-07-03T18:43:09.860Z</time>
      </trkpt>
      <trkpt lat="46.190609" lon="6.112098">
        <ele>420.496157</ele>
        <time>2021-07-03T18:43:32.092Z</time>
      </trkpt>
      <trkpt lat="46.190478" lon="6.112121">
        <ele>420.523799</ele>
        <time>2021-07-03T18:43:34.951Z</time>
      </trkpt>
      <trkpt lat="46.190426" lon="6.112135">
        <ele>420.507329</ele>
        <time>2021-07-03T18:43:36.153Z</time>
      </trkpt>
      <trkpt lat="46.190235" lon="6.112212">
        <ele>420.442697</ele>
        <time>2021-07-03T18:43:40.113Z</time>
      </trkpt>
      <trkpt lat="46.190211" lon="6.112228">
        <ele>420.434081</ele>
        <time>2021-07-03T18:43:40.597Z</time>
      </trkpt>
      <trkpt lat="46.190173" lon="6.112271">
        <ele>420.418348</ele>
        <time>2021-07-03T18:43:41.608Z</time>
      </trkpt>
      <trkpt lat="46.190110" lon="6.112320">
        <ele>420.395027</ele>
        <time>2021-07-03T18:43:43.178Z</time>
      </trkpt>
      <trkpt lat="46.190061" lon="6.112342">
        <ele>420.378302</ele>
        <time>2021-07-03T18:43:44.303Z</time>
      </trkpt>
      <trkpt lat="46.189893" lon="6.112422">
        <ele>420.320646</ele>
        <time>2021-07-03T18:43:47.761Z</time>
      </trkpt>
      <trkpt lat="46.189746" lon="6.112494">
        <ele>420.270054</ele>
        <time>2021-07-03T18:43:51.191Z</time>
      </trkpt>
      <trkpt lat="46.189660" lon="6.112524">
        <ele>420.241218</ele>
        <time>2021-07-03T18:43:53.191Z</time>
      </trkpt>
      <trkpt lat="46.189536" lon="6.112594">
        <ele>420.197825</ele>
        <time>2021-07-03T18:43:55.719Z</time>
      </trkpt>
      <trkpt lat="46.188997" lon="6.113036">
        <ele>419.995810</ele>
        <time>2021-07-03T18:44:08.990Z</time>
      </trkpt>
      <trkpt lat="46.188906" lon="6.113138">
        <ele>419.958268</ele>
        <time>2021-07-03T18:44:11.177Z</time>
      </trkpt>
      <trkpt lat="46.188807" lon="6.113351">
        <ele>419.968508</ele>
        <time>2021-07-03T18:44:15.252Z</time>
      </trkpt>
      <trkpt lat="46.188671" lon="6.113465">
        <ele>420.010423</ele>
        <time>2021-07-03T18:44:18.436Z</time>
      </trkpt>
      <trkpt lat="46.188601" lon="6.113512">
        <ele>420.031000</ele>
        <time>2021-07-03T18:44:20.142Z</time>
      </trkpt>
      <trkpt lat="46.188557" lon="6.113535">
        <ele>420.043473</ele>
        <time>2021-07-03T18:44:21.267Z</time>
      </trkpt>
      <trkpt lat="46.188504" lon="6.113558">
        <ele>420.058225</ele>
        <time>2021-07-03T18:44:22.593Z</time>
      </trkpt>
      <trkpt lat="46.188464" lon="6.113566">
        <ele>420.068990</ele>
        <time>2021-07-03T18:44:23.576Z</time>
      </trkpt>
      <trkpt lat="46.188380" lon="6.113541">
        <ele>420.091852</ele>
        <time>2021-07-03T18:44:25.336Z</time>
      </trkpt>
      <trkpt lat="46.188344" lon="6.113506">
        <ele>420.103419</ele>
        <time>2021-07-03T18:44:26.197Z</time>
      </trkpt>
      <trkpt lat="46.188325" lon="6.113454">
        <ele>420.114270</ele>
        <time>2021-07-03T18:44:27.036Z</time>
      </trkpt>
      <trkpt lat="46.188271" lon="6.113309">
        <ele>420.144654</ele>
        <time>2021-07-03T18:44:29.888Z</time>
      </trkpt>
      <trkpt lat="46.188153" lon="6.112948">
        <ele>420.218327</ele>
        <time>2021-07-03T18:44:36.593Z</time>
      </trkpt>
      <trkpt lat="46.188026" lon="6.112563">
        <ele>420.297029</ele>
        <time>2021-07-03T18:44:43.948Z</time>
      </trkpt>
      <trkpt lat="46.188008" lon="6.112509">
        <ele>420.308089</ele>
        <time>2021-07-03T18:44:44.903Z</time>
      </trkpt>
      <trkpt lat="46.187922" lon="6.112278">
        <ele>420.356491</ele>
        <time>2021-07-03T18:44:49.607Z</time>
      </trkpt>
      <trkpt lat="46.187771" lon="6.111831">
        <ele>420.461843</ele>
        <time>2021-07-03T18:44:58.162Z</time>
      </trkpt>
      <trkpt lat="46.187773" lon="6.111696">
        <ele>420.497678</ele>
        <time>2021-07-03T18:45:00.326Z</time>
      </trkpt>
      <trkpt lat="46.187760" lon="6.111658">
        <ele>420.508926</ele>
        <time>2021-07-03T18:45:01.052Z</time>
      </trkpt>
      <trkpt lat="46.187717" lon="6.111528">
        <ele>420.547162</ele>
        <time>2021-07-03T18:45:03.411Z</time>
      </trkpt>
      <trkpt lat="46.187669" lon="6.111381">
        <ele>420.590295</ele>
        <time>2021-07-03T18:45:06.053Z</time>
      </trkpt>
      <trkpt lat="46.187536" lon="6.110969">
        <ele>420.710936</ele>
        <time>2021-07-03T18:45:13.337Z</time>
      </trkpt>
      <trkpt lat="46.187499" lon="6.110859">
        <ele>420.743392</ele>
        <time>2021-07-03T18:45:15.149Z</time>
      </trkpt>
      <trkpt lat="46.187228" lon="6.110038">
        <ele>420.984773</ele>
        <time>2021-07-03T18:45:30.468Z</time>
      </trkpt>
      <trkpt lat="46.187186" lon="6.109907">
        <ele>421.023086</ele>
        <time>2021-07-03T18:45:32.813Z</time>
      </trkpt>
      <trkpt lat="46.186945" lon="6.109182">
        <ele>421.165541</ele>
        <time>2021-07-03T18:45:46.239Z</time>
      </trkpt>
      <trkpt lat="46.186927" lon="6.109078">
        <ele>421.178423</ele>
        <time>2021-07-03T18:45:48.051Z</time>
      </trkpt>
      <trkpt lat="46.186921" lon="6.109043">
        <ele>421.182756</ele>
        <time>2021-07-03T18:45:48.534Z</time>
      </trkpt>
      <trkpt lat="46.186906" lon="6.108984">
        <ele>421.190309</ele>
        <time>2021-07-03T18:45:49.535Z</time>
      </trkpt>
      <trkpt lat="46.186875" lon="6.108931">
        <ele>421.198647</ele>
        <time>2021-07-03T18:45:50.575Z</time>
      </trkpt>
      <trkpt lat="46.186834" lon="6.108876">
        <ele>421.208359</ele>
        <time>2021-07-03T18:45:51.763Z</time>
      </trkpt>
      <trkpt lat="46.186809" lon="6.108839">
        <ele>421.214572</ele>
        <time>2021-07-03T18:45:52.527Z</time>
      </trkpt>
      <trkpt lat="46.186682" lon="6.108572">
        <ele>421.253501</ele>
        <time>2021-07-03T18:45:57.186Z</time>
      </trkpt>
      <trkpt lat="46.186538" lon="6.108135">
        <ele>421.311660</ele>
        <time>2021-07-03T18:46:04.385Z</time>
      </trkpt>
      <trkpt lat="46.186413" lon="6.107753">
        <ele>421.362434</ele>
        <time>2021-07-03T18:46:10.953Z</time>
      </trkpt>
      <trkpt lat="46.186368" lon="6.107599">
        <ele>421.382521</ele>
        <time>2021-07-03T18:46:13.651Z</time>
      </trkpt>
      <trkpt lat="46.186334" lon="6.107460">
        <ele>421.400237</ele>
        <time>2021-07-03T18:46:16.032Z</time>
      </trkpt>
      <trkpt lat="46.186156" lon="6.106899">
        <ele>421.786331</ele>
        <time>2021-07-03T18:46:26.899Z</time>
      </trkpt>
      <trkpt lat="46.186125" lon="6.106806">
        <ele>421.868593</ele>
        <time>2021-07-03T18:46:28.763Z</time>
      </trkpt>
      <trkpt lat="46.186086" lon="6.106687">
        <ele>421.973522</ele>
        <time>2021-07-03T18:46:31.321Z</time>
      </trkpt>
      <trkpt lat="46.185840" lon="6.105938">
        <ele>422.634219</ele>
        <time>2021-07-03T18:46:46.814Z</time>
      </trkpt>
      <trkpt lat="46.185804" lon="6.105831">
        <ele>422.729031</ele>
        <time>2021-07-03T18:46:48.993Z</time>
      </trkpt>
      <trkpt lat="46.185714" lon="6.105581">
        <ele>422.953601</ele>
        <time>2021-07-03T18:46:54.305Z</time>
      </trkpt>
      <trkpt lat="46.185687" lon="6.105506">
        <ele>423.020972</ele>
        <time>2021-07-03T18:46:55.980Z</time>
      </trkpt>
      <trkpt lat="46.185310" lon="6.104361">
        <ele>424.218704</ele>
        <time>2021-07-03T18:47:22.059Z</time>
      </trkpt>
      <trkpt lat="46.185251" lon="6.104100">
        <ele>424.513133</ele>
        <time>2021-07-03T18:47:27.585Z</time>
      </trkpt>
      <trkpt lat="46.185150" lon="6.103832">
        <ele>424.840347</ele>
        <time>2021-07-03T18:47:33.781Z</time>
      </trkpt>
      <trkpt lat="46.185038" lon="6.103503">
        <ele>425.233499</ele>
        <time>2021-07-03T18:47:41.209Z</time>
      </trkpt>
      <trkpt lat="46.185011" lon="6.103422">
        <ele>425.329904</ele>
        <time>2021-07-03T18:47:43.057Z</time>
      </trkpt>
      <trkpt lat="46.184955" lon="6.103257">
        <ele>425.526962</ele>
        <time>2021-07-03T18:47:46.818Z</time>
      </trkpt>
      <trkpt lat="46.184911" lon="6.103126">
        <ele>425.683102</ele>
        <time>2021-07-03T18:47:49.739Z</time>
      </trkpt>
      <trkpt lat="46.184740" lon="6.102676">
        <ele>426.233579</ele>
        <time>2021-07-03T18:47:59.494Z</time>
      </trkpt>
      <trkpt lat="46.184661" lon="6.102473">
        <ele>426.378250</ele>
        <time>2021-07-03T18:48:03.671Z</time>
      </trkpt>
      <trkpt lat="46.184537" lon="6.102178">
        <ele>426.561251</ele>
        <time>2021-07-03T18:48:10.015Z</time>
      </trkpt>
      <trkpt lat="46.184529" lon="6.102160">
        <ele>426.572593</ele>
        <time>2021-07-03T18:48:10.306Z</time>
      </trkpt>
      <trkpt lat="46.184405" lon="6.101880">
        <ele>426.748844</ele>
        <time>2021-07-03T18:48:16.407Z</time>
      </trkpt>
      <trkpt lat="46.184156" lon="6.101364">
        <ele>427.082367</ele>
        <time>2021-07-03T18:48:26.897Z</time>
      </trkpt>
      <trkpt lat="46.184000" lon="6.101064">
        <ele>427.281321</ele>
        <time>2021-07-03T18:48:33.054Z</time>
      </trkpt>
      <trkpt lat="46.183914" lon="6.100961">
        <ele>427.366887</ele>
        <time>2021-07-03T18:48:35.590Z</time>
      </trkpt>
      <trkpt lat="46.183847" lon="6.100790">
        <ele>427.471077</ele>
        <time>2021-07-03T18:48:38.956Z</time>
      </trkpt>
      <trkpt lat="46.183843" lon="6.100757">
        <ele>427.488842</ele>
        <time>2021-07-03T18:48:39.607Z</time>
      </trkpt>
      <trkpt lat="46.183801" lon="6.100678">
        <ele>427.541660</ele>
        <time>2021-07-03T18:48:41.474Z</time>
      </trkpt>
      <trkpt lat="46.183780" lon="6.100664">
        <ele>427.559375</ele>
        <time>2021-07-03T18:48:42.096Z</time>
      </trkpt>
      <trkpt lat="46.183713" lon="6.100549">
        <ele>427.639074</ele>
        <time>2021-07-03T18:48:44.650Z</time>
      </trkpt>
      <trkpt lat="46.183665" lon="6.100465">
        <ele>427.684353</ele>
        <time>2021-07-03T18:48:46.620Z</time>
      </trkpt>
      <trkpt lat="46.183552" lon="6.100270">
        <ele>427.780742</ele>
        <time>2021-07-03T18:48:51.557Z</time>
      </trkpt>
      <trkpt lat="46.183301" lon="6.099834">
        <ele>427.995676</ele>
        <time>2021-07-03T18:49:01.731Z</time>
      </trkpt>
      <trkpt lat="46.183242" lon="6.099732">
        <ele>428.046057</ele>
        <time>2021-07-03T18:49:03.975Z</time>
      </trkpt>
      <trkpt lat="46.183193" lon="6.099585">
        <ele>428.107899</ele>
        <time>2021-07-03T18:49:06.594Z</time>
      </trkpt>
      <trkpt lat="46.182927" lon="6.099137">
        <ele>428.331608</ele>
        <time>2021-07-03T18:49:16.356Z</time>
      </trkpt>
      <trkpt lat="46.182775" lon="6.098868">
        <ele>428.463222</ele>
        <time>2021-07-03T18:49:22.416Z</time>
      </trkpt>
      <trkpt lat="46.182617" lon="6.098579">
        <ele>428.602805</ele>
        <time>2021-07-03T18:49:28.509Z</time>
      </trkpt>
      <trkpt lat="46.182539" lon="6.098495">
        <ele>428.653202</ele>
        <time>2021-07-03T18:49:30.816Z</time>
      </trkpt>
      <trkpt lat="46.182520" lon="6.098442">
        <ele>428.672270</ele>
        <time>2021-07-03T18:49:31.711Z</time>
      </trkpt>
      <trkpt lat="46.182496" lon="6.098365">
        <ele>428.699247</ele>
        <time>2021-07-03T18:49:33.041Z</time>
      </trkpt>
      <trkpt lat="46.182491" lon="6.098325">
        <ele>428.712233</ele>
        <time>2021-07-03T18:49:33.693Z</time>
      </trkpt>
      <trkpt lat="46.182479" lon="6.098289">
        <ele>428.724998</ele>
        <time>2021-07-03T18:49:34.398Z</time>
      </trkpt>
      <trkpt lat="46.182461" lon="6.098259">
        <ele>428.737680</ele>
        <time>2021-07-03T18:49:35.093Z</time>
      </trkpt>
      <trkpt lat="46.182443" lon="6.098241">
        <ele>428.747783</ele>
        <time>2021-07-03T18:49:35.672Z</time>
      </trkpt>
      <trkpt lat="46.182422" lon="6.098229">
        <ele>428.758204</ele>
        <time>2021-07-03T18:49:36.271Z</time>
      </trkpt>
      <trkpt lat="46.182400" lon="6.098224">
        <ele>428.768480</ele>
        <time>2021-07-03T18:49:36.833Z</time>
      </trkpt>
      <trkpt lat="46.182368" lon="6.098186">
        <ele>428.787596</ele>
        <time>2021-07-03T18:49:37.854Z</time>
      </trkpt>
      <trkpt lat="46.182298" lon="6.097994">
        <ele>428.856921</ele>
        <time>2021-07-03T18:49:41.360Z</time>
      </trkpt>
      <trkpt lat="46.182260" lon="6.097914">
        <ele>428.887916</ele>
        <time>2021-07-03T18:49:43.040Z</time>
      </trkpt>
      <trkpt lat="46.182151" lon="6.097677">
        <ele>428.978816</ele>
        <time>2021-07-03T18:49:48.248Z</time>
      </trkpt>
      <trkpt lat="46.181743" lon="6.096720">
        <ele>429.337876</ele>
        <time>2021-07-03T18:50:06.746Z</time>
      </trkpt>
      <trkpt lat="46.180999" lon="6.094962">
        <ele>429.599549</ele>
        <time>2021-07-03T18:50:40.422Z</time>
      </trkpt>
      <trkpt lat="46.180902" lon="6.094815">
        <ele>429.615730</ele>
        <time>2021-07-03T18:50:43.373Z</time>
      </trkpt>
      <trkpt lat="46.180850" lon="6.094672">
        <ele>429.628601</ele>
        <time>2021-07-03T18:50:45.843Z</time>
      </trkpt>
      <trkpt lat="46.180814" lon="6.094560">
        <ele>429.638440</ele>
        <time>2021-07-03T18:50:47.857Z</time>
      </trkpt>
      <trkpt lat="46.180794" lon="6.094499">
        <ele>429.643819</ele>
        <time>2021-07-03T18:50:48.835Z</time>
      </trkpt>
      <trkpt lat="46.180756" lon="6.094409">
        <ele>429.652218</ele>
        <time>2021-07-03T18:50:50.431Z</time>
      </trkpt>
      <trkpt lat="46.180721" lon="6.094325">
        <ele>429.660030</ele>
        <time>2021-07-03T18:50:51.719Z</time>
      </trkpt>
      <trkpt lat="46.180407" lon="6.093587">
        <ele>429.589571</ele>
        <time>2021-07-03T18:51:04.695Z</time>
      </trkpt>
      <trkpt lat="46.180342" lon="6.093447">
        <ele>429.568492</ele>
        <time>2021-07-03T18:51:06.998Z</time>
      </trkpt>
      <trkpt lat="46.180234" lon="6.093161">
        <ele>429.527755</ele>
        <time>2021-07-03T18:51:11.917Z</time>
      </trkpt>
      <trkpt lat="46.179649" lon="6.091778">
        <ele>429.336865</ele>
        <time>2021-07-03T18:51:36.061Z</time>
      </trkpt>
      <trkpt lat="46.179510" lon="6.091454">
        <ele>429.311798</ele>
        <time>2021-07-03T18:51:42.405Z</time>
      </trkpt>
      <trkpt lat="46.179241" lon="6.090772">
        <ele>429.260179</ele>
        <time>2021-07-03T18:51:54.823Z</time>
      </trkpt>
      <trkpt lat="46.179131" lon="6.090458">
        <ele>429.237035</ele>
        <time>2021-07-03T18:52:00.136Z</time>
      </trkpt>
      <trkpt lat="46.178980" lon="6.089851">
        <ele>429.194616</ele>
        <time>2021-07-03T18:52:09.613Z</time>
      </trkpt>
      <trkpt lat="46.178953" lon="6.089752">
        <ele>429.187619</ele>
        <time>2021-07-03T18:52:11.328Z</time>
      </trkpt>
      <trkpt lat="46.178820" lon="6.089298">
        <ele>429.052892</ele>
        <time>2021-07-03T18:52:18.345Z</time>
      </trkpt>
      <trkpt lat="46.178741" lon="6.089005">
        <ele>428.943641</ele>
        <time>2021-07-03T18:52:22.782Z</time>
      </trkpt>
      <trkpt lat="46.178700" lon="6.088887">
        <ele>428.897768</ele>
        <time>2021-07-03T18:52:24.642Z</time>
      </trkpt>
      <trkpt lat="46.178647" lon="6.088715">
        <ele>428.832354</ele>
        <time>2021-07-03T18:52:27.419Z</time>
      </trkpt>
      <trkpt lat="46.178574" lon="6.088713">
        <ele>428.795716</ele>
        <time>2021-07-03T18:52:28.901Z</time>
      </trkpt>
      <trkpt lat="46.178557" lon="6.088710">
        <ele>428.787121</ele>
        <time>2021-07-03T18:52:29.232Z</time>
      </trkpt>
      <trkpt lat="46.178541" lon="6.088708">
        <ele>428.779062</ele>
        <time>2021-07-03T18:52:29.566Z</time>
      </trkpt>
      <trkpt lat="46.178482" lon="6.088702">
        <ele>428.749382</ele>
        <time>2021-07-03T18:52:30.772Z</time>
      </trkpt>
      <trkpt lat="46.178413" lon="6.088690">
        <ele>428.714507</ele>
        <time>2021-07-03T18:52:32.212Z</time>
      </trkpt>
      <trkpt lat="46.178321" lon="6.088662">
        <ele>428.667327</ele>
        <time>2021-07-03T18:52:34.221Z</time>
      </trkpt>
      <trkpt lat="46.178214" lon="6.088623">
        <ele>428.611950</ele>
        <time>2021-07-03T18:52:36.396Z</time>
      </trkpt>
      <trkpt lat="46.178119" lon="6.088581">
        <ele>428.562094</ele>
        <time>2021-07-03T18:52:38.378Z</time>
      </trkpt>
      <trkpt lat="46.178065" lon="6.088557">
        <ele>428.533742</ele>
        <time>2021-07-03T18:52:39.549Z</time>
      </trkpt>
      <trkpt lat="46.177995" lon="6.088528">
        <ele>428.497199</ele>
        <time>2021-07-03T18:52:41.135Z</time>
      </trkpt>
      <trkpt lat="46.177887" lon="6.088459">
        <ele>428.437937</ele>
        <time>2021-07-03T18:52:43.467Z</time>
      </trkpt>
      <trkpt lat="46.177778" lon="6.088386">
        <ele>428.377645</ele>
        <time>2021-07-03T18:52:45.826Z</time>
      </trkpt>
      <trkpt lat="46.177719" lon="6.088344">
        <ele>428.344637</ele>
        <time>2021-07-03T18:52:47.171Z</time>
      </trkpt>
      <trkpt lat="46.177669" lon="6.088309">
        <ele>428.316754</ele>
        <time>2021-07-03T18:52:48.262Z</time>
      </trkpt>
      <trkpt lat="46.177430" lon="6.088131">
        <ele>428.169672</ele>
        <time>2021-07-03T18:52:53.665Z</time>
      </trkpt>
      <trkpt lat="46.177180" lon="6.087952">
        <ele>428.011694</ele>
        <time>2021-07-03T18:52:59.388Z</time>
      </trkpt>
      <trkpt lat="46.176980" lon="6.087808">
        <ele>427.885172</ele>
        <time>2021-07-03T18:53:04.074Z</time>
      </trkpt>
      <trkpt lat="46.176772" lon="6.087651">
        <ele>427.752299</ele>
        <time>2021-07-03T18:53:08.859Z</time>
      </trkpt>
      <trkpt lat="46.176587" lon="6.087521">
        <ele>427.635821</ele>
        <time>2021-07-03T18:53:12.977Z</time>
      </trkpt>
      <trkpt lat="46.176423" lon="6.087403">
        <ele>427.532087</ele>
        <time>2021-07-03T18:53:16.699Z</time>
      </trkpt>
      <trkpt lat="46.176253" lon="6.087279">
        <ele>427.424261</ele>
        <time>2021-07-03T18:53:20.430Z</time>
      </trkpt>
      <trkpt lat="46.176100" lon="6.087163">
        <ele>427.326429</ele>
        <time>2021-07-03T18:53:24.075Z</time>
      </trkpt>
      <trkpt lat="46.175712" lon="6.086857">
        <ele>427.256157</ele>
        <time>2021-07-03T18:53:33.158Z</time>
      </trkpt>
      <trkpt lat="46.175483" lon="6.086657">
        <ele>427.254454</ele>
        <time>2021-07-03T18:53:38.872Z</time>
      </trkpt>
      <trkpt lat="46.175296" lon="6.086488">
        <ele>427.253050</ele>
        <time>2021-07-03T18:53:43.517Z</time>
      </trkpt>
      <trkpt lat="46.175008" lon="6.086219">
        <ele>427.250867</ele>
        <time>2021-07-03T18:53:51.438Z</time>
      </trkpt>
      <trkpt lat="46.174852" lon="6.086073">
        <ele>427.249684</ele>
        <time>2021-07-03T18:53:55.986Z</time>
      </trkpt>
      <trkpt lat="46.174500" lon="6.085741">
        <ele>427.247008</ele>
        <time>2021-07-03T18:54:05.919Z</time>
      </trkpt>
      <trkpt lat="46.174404" lon="6.085650">
        <ele>427.283471</ele>
        <time>2021-07-03T18:54:08.500Z</time>
      </trkpt>
      <trkpt lat="46.174022" lon="6.085280">
        <ele>427.507751</ele>
        <time>2021-07-03T18:54:19.561Z</time>
      </trkpt>
      <trkpt lat="46.173935" lon="6.085189">
        <ele>427.560130</ele>
        <time>2021-07-03T18:54:22.495Z</time>
      </trkpt>
      <trkpt lat="46.173857" lon="6.085103">
        <ele>427.607981</ele>
        <time>2021-07-03T18:54:24.914Z</time>
      </trkpt>
      <trkpt lat="46.173778" lon="6.085003">
        <ele>427.659205</ele>
        <time>2021-07-03T18:54:27.429Z</time>
      </trkpt>
      <trkpt lat="46.173712" lon="6.084916">
        <ele>427.702778</ele>
        <time>2021-07-03T18:54:29.999Z</time>
      </trkpt>
      <trkpt lat="46.173674" lon="6.084866">
        <ele>427.727844</ele>
        <time>2021-07-03T18:54:31.400Z</time>
      </trkpt>
      <trkpt lat="46.173645" lon="6.084827">
        <ele>427.747167</ele>
        <time>2021-07-03T18:54:32.494Z</time>
      </trkpt>
      <trkpt lat="46.173531" lon="6.084701">
        <ele>427.817166</ele>
        <time>2021-07-03T18:54:36.093Z</time>
      </trkpt>
      <trkpt lat="46.173178" lon="6.084313">
        <ele>428.033475</ele>
        <time>2021-07-03T18:54:47.317Z</time>
      </trkpt>
      <trkpt lat="46.172835" lon="6.083795">
        <ele>427.803347</ele>
        <time>2021-07-03T18:54:57.923Z</time>
      </trkpt>
      <trkpt lat="46.172793" lon="6.083715">
        <ele>427.731746</ele>
        <time>2021-07-03T18:54:59.305Z</time>
      </trkpt>
      <trkpt lat="46.172597" lon="6.083340">
        <ele>427.396658</ele>
        <time>2021-07-03T18:55:05.537Z</time>
      </trkpt>
      <trkpt lat="46.172304" lon="6.082794">
        <ele>426.904000</ele>
        <time>2021-07-03T18:55:14.422Z</time>
      </trkpt>
      <trkpt lat="46.172282" lon="6.082766">
        <ele>426.873797</ele>
        <time>2021-07-03T18:55:14.994Z</time>
      </trkpt>
      <trkpt lat="46.172276" lon="6.082758">
        <ele>426.865386</ele>
        <time>2021-07-03T18:55:15.148Z</time>
      </trkpt>
      <trkpt lat="46.172194" lon="6.082672">
        <ele>426.761007</ele>
        <time>2021-07-03T18:55:16.915Z</time>
      </trkpt>
      <trkpt lat="46.172154" lon="6.082634">
        <ele>426.711694</ele>
        <time>2021-07-03T18:55:17.847Z</time>
      </trkpt>
      <trkpt lat="46.172023" lon="6.082508">
        <ele>426.549584</ele>
        <time>2021-07-03T18:55:20.774Z</time>
      </trkpt>
      <trkpt lat="46.171874" lon="6.082371">
        <ele>426.367656</ele>
        <time>2021-07-03T18:55:23.942Z</time>
      </trkpt>
      <trkpt lat="46.171602" lon="6.082123">
        <ele>425.948170</ele>
        <time>2021-07-03T18:55:29.793Z</time>
      </trkpt>
      <trkpt lat="46.168674" lon="6.079451">
        <ele>421.108227</ele>
        <time>2021-07-03T18:56:34.183Z</time>
      </trkpt>
      <trkpt lat="46.168634" lon="6.079414">
        <ele>421.013688</ele>
        <time>2021-07-03T18:56:35.110Z</time>
      </trkpt>
      <trkpt lat="46.168562" lon="6.079348">
        <ele>420.843962</ele>
        <time>2021-07-03T18:56:36.726Z</time>
      </trkpt>
      <trkpt lat="46.168468" lon="6.079262">
        <ele>420.622498</ele>
        <time>2021-07-03T18:56:38.861Z</time>
      </trkpt>
      <trkpt lat="46.168425" lon="6.079224">
        <ele>420.522167</ele>
        <time>2021-07-03T18:56:39.810Z</time>
      </trkpt>
      <trkpt lat="46.168318" lon="6.079125">
        <ele>420.269255</ele>
        <time>2021-07-03T18:56:42.276Z</time>
      </trkpt>
      <trkpt lat="46.168275" lon="6.079087">
        <ele>420.168924</ele>
        <time>2021-07-03T18:56:43.233Z</time>
      </trkpt>
      <trkpt lat="46.167983" lon="6.078820">
        <ele>419.481081</ele>
        <time>2021-07-03T18:56:49.716Z</time>
      </trkpt>
      <trkpt lat="46.167936" lon="6.078777">
        <ele>419.370349</ele>
        <time>2021-07-03T18:56:50.753Z</time>
      </trkpt>
      <trkpt lat="46.167816" lon="6.078665">
        <ele>419.085985</ele>
        <time>2021-07-03T18:56:53.354Z</time>
      </trkpt>
      <trkpt lat="46.167795" lon="6.078648">
        <ele>419.038072</ele>
        <time>2021-07-03T18:56:53.797Z</time>
      </trkpt>
      <trkpt lat="46.167522" lon="6.078398">
        <ele>418.394709</ele>
        <time>2021-07-03T18:56:59.272Z</time>
      </trkpt>
      <trkpt lat="46.167294" lon="6.078178">
        <ele>417.848964</ele>
        <time>2021-07-03T18:57:04.085Z</time>
      </trkpt>
      <trkpt lat="46.167267" lon="6.078152">
        <ele>417.784377</ele>
        <time>2021-07-03T18:57:04.640Z</time>
      </trkpt>
      <trkpt lat="46.167198" lon="6.078088">
        <ele>417.550449</ele>
        <time>2021-07-03T18:57:05.931Z</time>
      </trkpt>
      <trkpt lat="46.166988" lon="6.077910">
        <ele>416.707383</ele>
        <time>2021-07-03T18:57:10.106Z</time>
      </trkpt>
      <trkpt lat="46.166864" lon="6.077798">
        <ele>416.201001</ele>
        <time>2021-07-03T18:57:12.430Z</time>
      </trkpt>
      <trkpt lat="46.166577" lon="6.077531">
        <ele>415.018979</ele>
        <time>2021-07-03T18:57:17.763Z</time>
      </trkpt>
      <trkpt lat="46.166553" lon="6.077575">
        <ele>414.884686</ele>
        <time>2021-07-03T18:57:18.406Z</time>
      </trkpt>
      <trkpt lat="46.166534" lon="6.077601">
        <ele>414.794057</ele>
        <time>2021-07-03T18:57:18.825Z</time>
      </trkpt>
      <trkpt lat="46.166375" lon="6.077765">
        <ele>414.117548</ele>
        <time>2021-07-03T18:57:21.974Z</time>
      </trkpt>
      <trkpt lat="46.166336" lon="6.077791">
        <ele>413.968827</ele>
        <time>2021-07-03T18:57:22.609Z</time>
      </trkpt>
      <trkpt lat="46.166291" lon="6.077801">
        <ele>413.811195</ele>
        <time>2021-07-03T18:57:23.291Z</time>
      </trkpt>
      <trkpt lat="46.166198" lon="6.077847">
        <ele>413.470847</ele>
        <time>2021-07-03T18:57:24.903Z</time>
      </trkpt>
      <trkpt lat="46.166077" lon="6.077969">
        <ele>412.959899</ele>
        <time>2021-07-03T18:57:27.317Z</time>
      </trkpt>
      <trkpt lat="46.165561" lon="6.078519">
        <ele>411.292657</ele>
        <time>2021-07-03T18:57:37.696Z</time>
      </trkpt>
      <trkpt lat="46.165179" lon="6.077608">
        <ele>410.622319</ele>
        <time>2021-07-03T18:57:50.662Z</time>
      </trkpt>
      <trkpt lat="46.165030" lon="6.077251">
        <ele>410.359956</ele>
        <time>2021-07-03T18:57:57.159Z</time>
      </trkpt>
      <trkpt lat="46.164690" lon="6.076605">
        <ele>409.863920</ele>
        <time>2021-07-03T18:58:11.932Z</time>
      </trkpt>
      <trkpt lat="46.164360" lon="6.076230">
        <ele>410.471574</ele>
        <time>2021-07-03T18:58:24.253Z</time>
      </trkpt>
      <trkpt lat="46.164259" lon="6.076114">
        <ele>410.658317</ele>
        <time>2021-07-03T18:58:28.359Z</time>
      </trkpt>
      <trkpt lat="46.164184" lon="6.076118">
        <ele>410.766915</ele>
        <time>2021-07-03T18:58:30.539Z</time>
      </trkpt>
      <trkpt lat="46.164155" lon="6.076102">
        <ele>410.811836</ele>
        <time>2021-07-03T18:58:31.474Z</time>
      </trkpt>
      <trkpt lat="46.164117" lon="6.076072">
        <ele>410.874504</ele>
        <time>2021-07-03T18:58:33.351Z</time>
      </trkpt>
      <trkpt lat="46.164065" lon="6.076026">
        <ele>410.962747</ele>
        <time>2021-07-03T18:58:36.009Z</time>
      </trkpt>
      <trkpt lat="46.164010" lon="6.075993">
        <ele>411.048929</ele>
        <time>2021-07-03T18:58:38.784Z</time>
      </trkpt>
      <trkpt lat="46.163917" lon="6.075935">
        <ele>411.195515</ele>
        <time>2021-07-03T18:58:43.365Z</time>
      </trkpt>
      <trkpt lat="46.163857" lon="6.075924">
        <ele>411.283031</ele>
        <time>2021-07-03T18:58:45.902Z</time>
      </trkpt>
      <trkpt lat="46.163546" lon="6.075844">
        <ele>411.740128</ele>
        <time>2021-07-03T18:58:55.039Z</time>
      </trkpt>
      <trkpt lat="46.163487" lon="6.075877">
        <ele>411.831682</ele>
        <time>2021-07-03T18:58:56.868Z</time>
      </trkpt>
      <trkpt lat="46.163261" lon="6.075969">
        <ele>412.171449</ele>
        <time>2021-07-03T18:59:03.864Z</time>
      </trkpt>
      <trkpt lat="46.162775" lon="6.076090">
        <ele>412.677628</ele>
        <time>2021-07-03T18:59:17.284Z</time>
      </trkpt>
      <trkpt lat="46.162751" lon="6.076103">
        <ele>412.696724</ele>
        <time>2021-07-03T18:59:18.021Z</time>
      </trkpt>
      <trkpt lat="46.162652" lon="6.076155">
        <ele>412.775204</ele>
        <time>2021-07-03T18:59:20.979Z</time>
      </trkpt>
      <trkpt lat="46.162131" lon="6.076324">
        <ele>413.173006</ele>
        <time>2021-07-03T18:59:35.577Z</time>
      </trkpt>
      <trkpt lat="46.161991" lon="6.076379">
        <ele>413.281094</ele>
        <time>2021-07-03T18:59:39.650Z</time>
      </trkpt>
      <trkpt lat="46.161858" lon="6.076430">
        <ele>413.383609</ele>
        <time>2021-07-03T18:59:43.508Z</time>
      </trkpt>
      <trkpt lat="46.161853" lon="6.076409">
        <ele>413.395067</ele>
        <time>2021-07-03T18:59:43.938Z</time>
      </trkpt>
      <trkpt lat="46.161837" lon="6.076330">
        <ele>413.437536</ele>
        <time>2021-07-03T18:59:45.611Z</time>
      </trkpt>
      <trkpt lat="46.161515" lon="6.076458">
        <ele>413.686341</ele>
        <time>2021-07-03T18:59:54.752Z</time>
      </trkpt>
      <trkpt lat="46.160838" lon="6.076617">
        <ele>413.838695</ele>
        <time>2021-07-03T19:00:11.723Z</time>
      </trkpt>
      <trkpt lat="46.160339" lon="6.076684">
        <ele>413.877220</ele>
        <time>2021-07-03T19:00:24.776Z</time>
      </trkpt>
      <trkpt lat="46.159911" lon="6.076730">
        <ele>413.910213</ele>
        <time>2021-07-03T19:00:35.572Z</time>
      </trkpt>
      <trkpt lat="46.159875" lon="6.076733">
        <ele>413.912985</ele>
        <time>2021-07-03T19:00:36.264Z</time>
      </trkpt>
      <trkpt lat="46.159498" lon="6.076790">
        <ele>413.914297</ele>
        <time>2021-07-03T19:00:45.304Z</time>
      </trkpt>
      <trkpt lat="46.159279" lon="6.076813">
        <ele>413.858080</ele>
        <time>2021-07-03T19:00:50.796Z</time>
      </trkpt>
      <trkpt lat="46.159257" lon="6.076814">
        <ele>413.852445</ele>
        <time>2021-07-03T19:00:51.397Z</time>
      </trkpt>
      <trkpt lat="46.159189" lon="6.076818">
        <ele>413.835021</ele>
        <time>2021-07-03T19:00:52.892Z</time>
      </trkpt>
      <trkpt lat="46.159079" lon="6.076798">
        <ele>413.806636</ele>
        <time>2021-07-03T19:00:55.325Z</time>
      </trkpt>
      <trkpt lat="46.158973" lon="6.076798">
        <ele>413.779498</ele>
        <time>2021-07-03T19:00:57.863Z</time>
      </trkpt>
      <trkpt lat="46.158688" lon="6.076773">
        <ele>413.706397</ele>
        <time>2021-07-03T19:01:04.210Z</time>
      </trkpt>
      <trkpt lat="46.158686" lon="6.076833">
        <ele>413.695745</ele>
        <time>2021-07-03T19:01:05.034Z</time>
      </trkpt>
      <trkpt lat="46.158666" lon="6.077265">
        <ele>413.618965</ele>
        <time>2021-07-03T19:01:15.578Z</time>
      </trkpt>
      <trkpt lat="46.158669" lon="6.077305">
        <ele>413.611830</ele>
        <time>2021-07-03T19:01:16.268Z</time>
      </trkpt>
      <trkpt lat="46.158671" lon="6.077326">
        <ele>413.608071</ele>
        <time>2021-07-03T19:01:16.571Z</time>
      </trkpt>
      <trkpt lat="46.158330" lon="6.077609">
        <ele>413.507371</ele>
        <time>2021-07-03T19:01:26.531Z</time>
      </trkpt>
      <trkpt lat="46.158028" lon="6.077822">
        <ele>413.586306</ele>
        <time>2021-07-03T19:01:34.724Z</time>
      </trkpt>
      <trkpt lat="46.157575" lon="6.078192">
        <ele>413.861018</ele>
        <time>2021-07-03T19:01:47.152Z</time>
      </trkpt>
      <trkpt lat="46.157009" lon="6.078630">
        <ele>414.199971</ele>
        <time>2021-07-03T19:02:03.147Z</time>
      </trkpt>
      <trkpt lat="46.156550" lon="6.078981">
        <ele>414.629544</ele>
        <time>2021-07-03T19:02:17.056Z</time>
      </trkpt>
      <trkpt lat="46.155955" lon="6.079455">
        <ele>416.112765</ele>
        <time>2021-07-03T19:02:37.405Z</time>
      </trkpt>
      <trkpt lat="46.155832" lon="6.079557">
        <ele>416.422358</ele>
        <time>2021-07-03T19:02:41.497Z</time>
      </trkpt>
      <trkpt lat="46.155740" lon="6.079662">
        <ele>416.678324</ele>
        <time>2021-07-03T19:02:45.775Z</time>
      </trkpt>
      <trkpt lat="46.155623" lon="6.079803">
        <ele>417.010965</ele>
        <time>2021-07-03T19:02:51.587Z</time>
      </trkpt>
      <trkpt lat="46.155516" lon="6.079962">
        <ele>417.346112</ele>
        <time>2021-07-03T19:02:57.061Z</time>
      </trkpt>
      <trkpt lat="46.155413" lon="6.080132">
        <ele>417.687570</ele>
        <time>2021-07-03T19:03:03.053Z</time>
      </trkpt>
      <trkpt lat="46.155286" lon="6.080357">
        <ele>418.126372</ele>
        <time>2021-07-03T19:03:09.688Z</time>
      </trkpt>
      <trkpt lat="46.155244" lon="6.080440">
        <ele>418.281772</ele>
        <time>2021-07-03T19:03:12.248Z</time>
      </trkpt>
      <trkpt lat="46.155224" lon="6.080519">
        <ele>418.422430</ele>
        <time>2021-07-03T19:03:14.195Z</time>
      </trkpt>
      <trkpt lat="46.155189" lon="6.080518">
        <ele>418.516383</ele>
        <time>2021-07-03T19:03:15.917Z</time>
      </trkpt>
      <trkpt lat="46.154904" lon="6.080641">
        <ele>419.314723</ele>
        <time>2021-07-03T19:03:24.897Z</time>
      </trkpt>
      <trkpt lat="46.154728" lon="6.080796">
        <ele>419.868037</ele>
        <time>2021-07-03T19:03:30.803Z</time>
      </trkpt>
      <trkpt lat="46.154671" lon="6.080873">
        <ele>420.077548</ele>
        <time>2021-07-03T19:03:33.774Z</time>
      </trkpt>
      <trkpt lat="46.154552" lon="6.081055">
        <ele>420.542831</ele>
        <time>2021-07-03T19:03:39.093Z</time>
      </trkpt>
      <trkpt lat="46.154461" lon="6.081189">
        <ele>420.891700</ele>
        <time>2021-07-03T19:03:41.997Z</time>
      </trkpt>
      <trkpt lat="46.154409" lon="6.081261">
        <ele>421.085077</ele>
        <time>2021-07-03T19:03:44.420Z</time>
      </trkpt>
      <trkpt lat="46.154401" lon="6.081219">
        <ele>421.166059</ele>
        <time>2021-07-03T19:03:45.215Z</time>
      </trkpt>
      <trkpt lat="46.154378" lon="6.081159">
        <ele>421.293547</ele>
        <time>2021-07-03T19:03:47.446Z</time>
      </trkpt>
      <trkpt lat="46.154352" lon="6.081118">
        <ele>421.396888</ele>
        <time>2021-07-03T19:03:49.667Z</time>
      </trkpt>
      <trkpt lat="46.154248" lon="6.080976">
        <ele>421.781077</ele>
        <time>2021-07-03T19:03:52.995Z</time>
      </trkpt>
      <trkpt lat="46.154108" lon="6.080582">
        <ele>422.604324</ele>
        <time>2021-07-03T19:04:04.377Z</time>
      </trkpt>
      <trkpt lat="46.154045" lon="6.080337">
        <ele>423.090184</ele>
        <time>2021-07-03T19:04:10.227Z</time>
      </trkpt>
      <trkpt lat="46.153941" lon="6.080000">
        <ele>424.190704</ele>
        <time>2021-07-03T19:04:19.229Z</time>
      </trkpt>
      <trkpt lat="46.153825" lon="6.079770">
        <ele>425.085976</ele>
        <time>2021-07-03T19:04:27.834Z</time>
      </trkpt>
      <trkpt lat="46.153725" lon="6.079599">
        <ele>425.790189</ele>
        <time>2021-07-03T19:04:32.523Z</time>
      </trkpt>
      <trkpt lat="46.153694" lon="6.079531">
        <ele>426.046353</ele>
        <time>2021-07-03T19:04:34.487Z</time>
      </trkpt>
      <trkpt lat="46.153681" lon="6.079466">
        <ele>426.259250</ele>
        <time>2021-07-03T19:04:35.919Z</time>
      </trkpt>
      <trkpt lat="46.153594" lon="6.079427">
        <ele>426.673078</ele>
        <time>2021-07-03T19:04:40.449Z</time>
      </trkpt>
      <trkpt lat="46.153457" lon="6.079378">
        <ele>427.314240</ele>
        <time>2021-07-03T19:04:44.677Z</time>
      </trkpt>
      <trkpt lat="46.153282" lon="6.079458">
        <ele>428.148115</ele>
        <time>2021-07-03T19:04:52.010Z</time>
      </trkpt>
      <trkpt lat="46.152378" lon="6.080275">
        <ele>433.512762</ele>
        <time>2021-07-03T19:05:42.423Z</time>
      </trkpt>
      <trkpt lat="46.151900" lon="6.080519">
        <ele>436.543474</ele>
        <time>2021-07-03T19:06:08.943Z</time>
      </trkpt>
      <trkpt lat="46.151142" lon="6.081120">
        <ele>441.713055</ele>
        <time>2021-07-03T19:06:48.861Z</time>
      </trkpt>
      <trkpt lat="46.151117" lon="6.081174">
        <ele>441.982012</ele>
        <time>2021-07-03T19:06:52.230Z</time>
      </trkpt>
      <trkpt lat="46.150819" lon="6.081287">
        <ele>443.067179</ele>
        <time>2021-07-03T19:07:03.262Z</time>
      </trkpt>
      <trkpt lat="46.150804" lon="6.081298">
        <ele>443.123615</ele>
        <time>2021-07-03T19:07:04.259Z</time>
      </trkpt>
      <trkpt lat="46.150104" lon="6.081669">
        <ele>445.624908</ele>
        <time>2021-07-03T19:07:32.352Z</time>
      </trkpt>
      <trkpt lat="46.150075" lon="6.081680">
        <ele>445.725485</ele>
        <time>2021-07-03T19:07:33.568Z</time>
      </trkpt>
      <trkpt lat="46.150058" lon="6.081687">
        <ele>445.784783</ele>
        <time>2021-07-03T19:07:34.068Z</time>
      </trkpt>
      <trkpt lat="46.149835" lon="6.081771">
        <ele>446.557847</ele>
        <time>2021-07-03T19:07:41.095Z</time>
      </trkpt>
      <trkpt lat="46.149623" lon="6.081832">
        <ele>447.282953</ele>
        <time>2021-07-03T19:07:49.267Z</time>
      </trkpt>
      <trkpt lat="46.149372" lon="6.081869">
        <ele>448.129267</ele>
        <time>2021-07-03T19:07:56.886Z</time>
      </trkpt>
      <trkpt lat="46.149346" lon="6.081994">
        <ele>448.294243</ele>
        <time>2021-07-03T19:07:59.426Z</time>
      </trkpt>
      <trkpt lat="46.149292" lon="6.082254">
        <ele>448.633798</ele>
        <time>2021-07-03T19:08:04.638Z</time>
      </trkpt>
      <trkpt lat="46.149279" lon="6.082295">
        <ele>448.690205</ele>
        <time>2021-07-03T19:08:05.490Z</time>
      </trkpt>
      <trkpt lat="46.149266" lon="6.082312">
        <ele>448.721880</ele>
        <time>2021-07-03T19:08:06.118Z</time>
      </trkpt>
      <trkpt lat="46.149246" lon="6.082332">
        <ele>448.765814</ele>
        <time>2021-07-03T19:08:06.827Z</time>
      </trkpt>
      <trkpt lat="46.149234" lon="6.082340">
        <ele>448.789682</ele>
        <time>2021-07-03T19:08:07.201Z</time>
      </trkpt>
      <trkpt lat="46.149216" lon="6.082337">
        <ele>448.822401</ele>
        <time>2021-07-03T19:08:07.716Z</time>
      </trkpt>
      <trkpt lat="46.149195" lon="6.082325">
        <ele>448.863185</ele>
        <time>2021-07-03T19:08:08.424Z</time>
      </trkpt>
      <trkpt lat="46.149166" lon="6.082300">
        <ele>448.924179</ele>
        <time>2021-07-03T19:08:09.393Z</time>
      </trkpt>
      <trkpt lat="46.149038" lon="6.082194">
        <ele>449.190649</ele>
        <time>2021-07-03T19:08:13.559Z</time>
      </trkpt>
      <trkpt lat="46.148969" lon="6.082131">
        <ele>449.338078</ele>
        <time>2021-07-03T19:08:15.893Z</time>
      </trkpt>
      <trkpt lat="46.148903" lon="6.082075">
        <ele>449.476321</ele>
        <time>2021-07-03T19:08:18.298Z</time>
      </trkpt>
      <trkpt lat="46.148794" lon="6.082003">
        <ele>449.692775</ele>
        <time>2021-07-03T19:08:21.805Z</time>
      </trkpt>
      <trkpt lat="46.148704" lon="6.081963">
        <ele>449.862820</ele>
        <time>2021-07-03T19:08:24.620Z</time>
      </trkpt>
      <trkpt lat="46.148580" lon="6.081912">
        <ele>450.095642</ele>
        <time>2021-07-03T19:08:28.590Z</time>
      </trkpt>
      <trkpt lat="46.148233" lon="6.081751">
        <ele>450.753805</ele>
        <time>2021-07-03T19:08:39.540Z</time>
      </trkpt>
      <trkpt lat="46.148187" lon="6.081723">
        <ele>450.843952</ele>
        <time>2021-07-03T19:08:41.154Z</time>
      </trkpt>
      <trkpt lat="46.148145" lon="6.081687">
        <ele>450.932156</ele>
        <time>2021-07-03T19:08:42.554Z</time>
      </trkpt>
      <trkpt lat="46.148093" lon="6.081650">
        <ele>451.036843</ele>
        <time>2021-07-03T19:08:44.172Z</time>
      </trkpt>
      <trkpt lat="46.148067" lon="6.081632">
        <ele>451.088913</ele>
        <time>2021-07-03T19:08:45.042Z</time>
      </trkpt>
      <trkpt lat="46.147934" lon="6.081548">
        <ele>451.351058</ele>
        <time>2021-07-03T19:08:49.301Z</time>
      </trkpt>
      <trkpt lat="46.147904" lon="6.081526">
        <ele>451.402892</ele>
        <time>2021-07-03T19:08:50.261Z</time>
      </trkpt>
      <trkpt lat="46.147685" lon="6.081382">
        <ele>451.712261</ele>
        <time>2021-07-03T19:08:56.982Z</time>
      </trkpt>
      <trkpt lat="46.147603" lon="6.081329">
        <ele>451.827762</ele>
        <time>2021-07-03T19:08:59.453Z</time>
      </trkpt>
      <trkpt lat="46.147373" lon="6.081191">
        <ele>452.147965</ele>
        <time>2021-07-03T19:09:06.954Z</time>
      </trkpt>
      <trkpt lat="46.147138" lon="6.081050">
        <ele>452.475129</ele>
        <time>2021-07-03T19:09:14.433Z</time>
      </trkpt>
      <trkpt lat="46.147070" lon="6.081017">
        <ele>452.567355</ele>
        <time>2021-07-03T19:09:16.385Z</time>
      </trkpt>
      <trkpt lat="46.147010" lon="6.080999">
        <ele>452.646136</ele>
        <time>2021-07-03T19:09:17.742Z</time>
      </trkpt>
      <trkpt lat="46.146798" lon="6.080955">
        <ele>452.921474</ele>
        <time>2021-07-03T19:09:23.509Z</time>
      </trkpt>
      <trkpt lat="46.146722" lon="6.080943">
        <ele>453.019758</ele>
        <time>2021-07-03T19:09:25.453Z</time>
      </trkpt>
      <trkpt lat="46.146414" lon="6.080888">
        <ele>453.418725</ele>
        <time>2021-07-03T19:09:33.376Z</time>
      </trkpt>
      <trkpt lat="46.146333" lon="6.080870">
        <ele>453.524081</ele>
        <time>2021-07-03T19:09:35.215Z</time>
      </trkpt>
      <trkpt lat="46.146298" lon="6.080876">
        <ele>453.569391</ele>
        <time>2021-07-03T19:09:36.039Z</time>
      </trkpt>
      <trkpt lat="46.146250" lon="6.080913">
        <ele>453.639345</ele>
        <time>2021-07-03T19:09:37.553Z</time>
      </trkpt>
      <trkpt lat="46.146236" lon="6.080877">
        <ele>453.676115</ele>
        <time>2021-07-03T19:09:38.363Z</time>
      </trkpt>
      <trkpt lat="46.146223" lon="6.080860">
        <ele>453.698362</ele>
        <time>2021-07-03T19:09:38.853Z</time>
      </trkpt>
      <trkpt lat="46.146199" lon="6.080842">
        <ele>453.731245</ele>
        <time>2021-07-03T19:09:39.504Z</time>
      </trkpt>
      <trkpt lat="46.146190" lon="6.080839">
        <ele>453.742475</ele>
        <time>2021-07-03T19:09:39.771Z</time>
      </trkpt>
      <trkpt lat="46.146157" lon="6.080827">
        <ele>453.783851</ele>
        <time>2021-07-03T19:09:40.710Z</time>
      </trkpt>
      <trkpt lat="46.146122" lon="6.080814">
        <ele>453.827790</ele>
        <time>2021-07-03T19:09:41.619Z</time>
      </trkpt>
      <trkpt lat="46.146091" lon="6.080796">
        <ele>453.868416</ele>
        <time>2021-07-03T19:09:42.471Z</time>
      </trkpt>
      <trkpt lat="46.145970" lon="6.080695">
        <ele>454.038357</ele>
        <time>2021-07-03T19:09:45.783Z</time>
      </trkpt>
      <trkpt lat="46.145976" lon="6.080677">
        <ele>454.055183</ele>
        <time>2021-07-03T19:09:46.220Z</time>
      </trkpt>
      <trkpt lat="46.145975" lon="6.080577">
        <ele>454.139425</ele>
        <time>2021-07-03T19:09:48.215Z</time>
      </trkpt>
      <trkpt lat="46.145924" lon="6.080511">
        <ele>454.222705</ele>
        <time>2021-07-03T19:09:50.029Z</time>
      </trkpt>
      <trkpt lat="46.145910" lon="6.080506">
        <ele>454.240240</ele>
        <time>2021-07-03T19:09:50.400Z</time>
      </trkpt>
      <trkpt lat="46.145940" lon="6.080338">
        <ele>454.386378</ele>
        <time>2021-07-03T19:09:53.260Z</time>
      </trkpt>
      <trkpt lat="46.145946" lon="6.080309">
        <ele>454.411872</ele>
        <time>2021-07-03T19:09:53.706Z</time>
      </trkpt>
      <trkpt lat="46.145963" lon="6.080248">
        <ele>454.467255</ele>
        <time>2021-07-03T19:09:54.821Z</time>
      </trkpt>
      <trkpt lat="46.146002" lon="6.080155">
        <ele>454.558826</ele>
        <time>2021-07-03T19:09:57.071Z</time>
      </trkpt>
      <trkpt lat="46.146126" lon="6.079861">
        <ele>454.848753</ele>
        <time>2021-07-03T19:10:03.062Z</time>
      </trkpt>
      <trkpt lat="46.146043" lon="6.079777">
        <ele>454.971999</ele>
        <time>2021-07-03T19:10:06.053Z</time>
      </trkpt>
      <trkpt lat="46.145795" lon="6.079560">
        <ele>455.324598</ele>
        <time>2021-07-03T19:10:13.974Z</time>
      </trkpt>
      <trkpt lat="46.145469" lon="6.079258">
        <ele>455.795563</ele>
        <time>2021-07-03T19:10:25.836Z</time>
      </trkpt>
      <trkpt lat="46.145415" lon="6.079208">
        <ele>455.873565</ele>
        <time>2021-07-03T19:10:27.961Z</time>
      </trkpt>
      <trkpt lat="46.145239" lon="6.079047">
        <ele>456.492315</ele>
        <time>2021-07-03T19:10:34.032Z</time>
      </trkpt>
      <trkpt lat="46.145034" lon="6.078861">
        <ele>457.222167</ele>
        <time>2021-07-03T19:10:41.627Z</time>
      </trkpt>
      <trkpt lat="46.144902" lon="6.078742">
        <ele>457.691271</ele>
        <time>2021-07-03T19:10:46.863Z</time>
      </trkpt>
      <trkpt lat="46.144505" lon="6.078382">
        <ele>459.104465</ele>
        <time>2021-07-03T19:11:04.414Z</time>
      </trkpt>
      <trkpt lat="46.144378" lon="6.078272">
        <ele>459.550902</ele>
        <time>2021-07-03T19:11:10.039Z</time>
      </trkpt>
      <trkpt lat="46.144272" lon="6.078188">
        <ele>459.915394</ele>
        <time>2021-07-03T19:11:14.868Z</time>
      </trkpt>
      <trkpt lat="46.143891" lon="6.077922">
        <ele>461.191092</ele>
        <time>2021-07-03T19:11:30.728Z</time>
      </trkpt>
      <trkpt lat="46.143798" lon="6.077857">
        <ele>461.441823</ele>
        <time>2021-07-03T19:11:34.465Z</time>
      </trkpt>
      <trkpt lat="46.143649" lon="6.077753">
        <ele>461.790177</ele>
        <time>2021-07-03T19:11:40.557Z</time>
      </trkpt>
      <trkpt lat="46.143559" lon="6.077689">
        <ele>462.001348</ele>
        <time>2021-07-03T19:11:44.024Z</time>
      </trkpt>
      <trkpt lat="46.143460" lon="6.077610">
        <ele>462.239444</ele>
        <time>2021-07-03T19:11:48.011Z</time>
      </trkpt>
      <trkpt lat="46.143375" lon="6.077531">
        <ele>462.452232</ele>
        <time>2021-07-03T19:11:51.729Z</time>
      </trkpt>
      <trkpt lat="46.143257" lon="6.077418">
        <ele>462.750288</ele>
        <time>2021-07-03T19:11:56.752Z</time>
      </trkpt>
      <trkpt lat="46.143171" lon="6.077337">
        <ele>462.966429</ele>
        <time>2021-07-03T19:12:00.467Z</time>
      </trkpt>
      <trkpt lat="46.142988" lon="6.077160">
        <ele>463.430088</ele>
        <time>2021-07-03T19:12:08.299Z</time>
      </trkpt>
      <trkpt lat="46.142911" lon="6.077086">
        <ele>463.624795</ele>
        <time>2021-07-03T19:12:11.472Z</time>
      </trkpt>
      <trkpt lat="46.142854" lon="6.077034">
        <ele>463.766722</ele>
        <time>2021-07-03T19:12:13.785Z</time>
      </trkpt>
      <trkpt lat="46.142806" lon="6.076990">
        <ele>463.886404</ele>
        <time>2021-07-03T19:12:15.748Z</time>
      </trkpt>
      <trkpt lat="46.142615" lon="6.076796">
        <ele>464.377981</ele>
        <time>2021-07-03T19:12:21.885Z</time>
      </trkpt>
      <trkpt lat="46.142495" lon="6.076675">
        <ele>464.686085</ele>
        <time>2021-07-03T19:12:26.153Z</time>
      </trkpt>
      <trkpt lat="46.142477" lon="6.076655">
        <ele>464.733897</ele>
        <time>2021-07-03T19:12:26.800Z</time>
      </trkpt>
      <trkpt lat="46.142456" lon="6.076595">
        <ele>464.831926</ele>
        <time>2021-07-03T19:12:27.756Z</time>
      </trkpt>
      <trkpt lat="46.142446" lon="6.076519">
        <ele>464.944738</ele>
        <time>2021-07-03T19:12:28.870Z</time>
      </trkpt>
      <trkpt lat="46.142424" lon="6.076468">
        <ele>465.032349</ele>
        <time>2021-07-03T19:12:29.815Z</time>
      </trkpt>
      <trkpt lat="46.142354" lon="6.076414">
        <ele>464.922816</ele>
        <time>2021-07-03T19:12:31.490Z</time>
      </trkpt>
      <trkpt lat="46.142314" lon="6.076392">
        <ele>464.791276</ele>
        <time>2021-07-03T19:12:32.460Z</time>
      </trkpt>
      <trkpt lat="46.142284" lon="6.076347">
        <ele>464.658315</ele>
        <time>2021-07-03T19:12:33.590Z</time>
      </trkpt>
      <trkpt lat="46.142266" lon="6.076335">
        <ele>464.597386</ele>
        <time>2021-07-03T19:12:34.073Z</time>
      </trkpt>
      <trkpt lat="46.142220" lon="6.076324">
        <ele>464.454104</ele>
        <time>2021-07-03T19:12:35.054Z</time>
      </trkpt>
      <trkpt lat="46.142124" lon="6.076311">
        <ele>464.157805</ele>
        <time>2021-07-03T19:12:36.783Z</time>
      </trkpt>
      <trkpt lat="46.142089" lon="6.076312">
        <ele>464.050231</ele>
        <time>2021-07-03T19:12:37.444Z</time>
      </trkpt>
      <trkpt lat="46.142052" lon="6.076319">
        <ele>463.935560</ele>
        <time>2021-07-03T19:12:38.113Z</time>
      </trkpt>
      <trkpt lat="46.142054" lon="6.076346">
        <ele>463.877745</ele>
        <time>2021-07-03T19:12:38.469Z</time>
      </trkpt>
      <trkpt lat="46.142066" lon="6.076489">
        <ele>463.571051</ele>
        <time>2021-07-03T19:12:40.425Z</time>
      </trkpt>
      <trkpt lat="46.141983" lon="6.076505">
        <ele>463.313731</ele>
        <time>2021-07-03T19:12:41.973Z</time>
      </trkpt>
      <trkpt lat="46.141864" lon="6.076534">
        <ele>462.942875</ele>
        <time>2021-07-03T19:12:43.697Z</time>
      </trkpt>
      <trkpt lat="46.141819" lon="6.076545">
        <ele>462.802623</ele>
        <time>2021-07-03T19:12:44.448Z</time>
      </trkpt>
      <trkpt lat="46.141656" lon="6.076590">
        <ele>462.292652</ele>
        <time>2021-07-03T19:12:47.430Z</time>
      </trkpt>
      <trkpt lat="46.141408" lon="6.076641">
        <ele>461.522865</ele>
        <time>2021-07-03T19:12:51.358Z</time>
      </trkpt>
      <trkpt lat="46.140738" lon="6.076803">
        <ele>459.449516</ele>
        <time>2021-07-03T19:13:02.208Z</time>
      </trkpt>
      <trkpt lat="46.140514" lon="6.076800">
        <ele>458.839722</ele>
        <time>2021-07-03T19:13:06.138Z</time>
      </trkpt>
      <trkpt lat="46.140479" lon="6.076786">
        <ele>458.740855</ele>
        <time>2021-07-03T19:13:06.616Z</time>
      </trkpt>
      <trkpt lat="46.140441" lon="6.076766">
        <ele>458.630748</ele>
        <time>2021-07-03T19:13:07.270Z</time>
      </trkpt>
      <trkpt lat="46.140404" lon="6.076742">
        <ele>458.520322</ele>
        <time>2021-07-03T19:13:07.938Z</time>
      </trkpt>
      <trkpt lat="46.140316" lon="6.076660">
        <ele>458.235179</ele>
        <time>2021-07-03T19:13:09.869Z</time>
      </trkpt>
      <trkpt lat="46.140282" lon="6.076612">
        <ele>458.105706</ele>
        <time>2021-07-03T19:13:10.733Z</time>
      </trkpt>
      <trkpt lat="46.140240" lon="6.076544">
        <ele>457.933885</ele>
        <time>2021-07-03T19:13:11.744Z</time>
      </trkpt>
      <trkpt lat="46.140201" lon="6.076462">
        <ele>457.746288</ele>
        <time>2021-07-03T19:13:12.680Z</time>
      </trkpt>
      <trkpt lat="46.140153" lon="6.076323">
        <ele>457.453352</ele>
        <time>2021-07-03T19:13:14.420Z</time>
      </trkpt>
      <trkpt lat="46.140118" lon="6.076210">
        <ele>457.219887</ele>
        <time>2021-07-03T19:13:16.053Z</time>
      </trkpt>
      <trkpt lat="46.140103" lon="6.076162">
        <ele>457.120568</ele>
        <time>2021-07-03T19:13:16.725Z</time>
      </trkpt>
      <trkpt lat="46.140058" lon="6.076193">
        <ele>456.984830</ele>
        <time>2021-07-03T19:13:17.694Z</time>
      </trkpt>
      <trkpt lat="46.139959" lon="6.076253">
        <ele>456.692536</ele>
        <time>2021-07-03T19:13:19.344Z</time>
      </trkpt>
      <trkpt lat="46.139957" lon="6.076253">
        <ele>456.687092</ele>
        <time>2021-07-03T19:13:19.388Z</time>
      </trkpt>
      <trkpt lat="46.139884" lon="6.076269">
        <ele>456.486094</ele>
        <time>2021-07-03T19:13:20.954Z</time>
      </trkpt>
      <trkpt lat="46.139827" lon="6.076267">
        <ele>456.330884</ele>
        <time>2021-07-03T19:13:22.362Z</time>
      </trkpt>
      <trkpt lat="46.139770" lon="6.076264">
        <ele>456.175617</ele>
        <time>2021-07-03T19:13:23.547Z</time>
      </trkpt>
      <trkpt lat="46.139722" lon="6.076259">
        <ele>456.044613</ele>
        <time>2021-07-03T19:13:24.562Z</time>
      </trkpt>
      <trkpt lat="46.139607" lon="6.076250">
        <ele>455.731102</ele>
        <time>2021-07-03T19:13:26.377Z</time>
      </trkpt>
      <trkpt lat="46.139465" lon="6.076231">
        <ele>455.342896</ele>
        <time>2021-07-03T19:13:29.926Z</time>
      </trkpt>
      <trkpt lat="46.139379" lon="6.076216">
        <ele>455.107085</ele>
        <time>2021-07-03T19:13:31.847Z</time>
      </trkpt>
      <trkpt lat="46.139264" lon="6.076182">
        <ele>454.787533</ele>
        <time>2021-07-03T19:13:33.763Z</time>
      </trkpt>
      <trkpt lat="46.139132" lon="6.076165">
        <ele>454.858556</ele>
        <time>2021-07-03T19:13:37.197Z</time>
      </trkpt>
      <trkpt lat="46.139089" lon="6.076168">
        <ele>454.955011</ele>
        <time>2021-07-03T19:13:38.334Z</time>
      </trkpt>
      <trkpt lat="46.139053" lon="6.076164">
        <ele>455.035909</ele>
        <time>2021-07-03T19:13:39.181Z</time>
      </trkpt>
      <trkpt lat="46.138906" lon="6.076138">
        <ele>455.367731</ele>
        <time>2021-07-03T19:13:42.868Z</time>
      </trkpt>
      <trkpt lat="46.138811" lon="6.076115">
        <ele>455.583556</ele>
        <time>2021-07-03T19:13:45.819Z</time>
      </trkpt>
      <trkpt lat="46.138715" lon="6.076089">
        <ele>455.802401</ele>
        <time>2021-07-03T19:13:48.579Z</time>
      </trkpt>
      <trkpt lat="46.138571" lon="6.076050">
        <ele>456.130670</ele>
        <time>2021-07-03T19:13:52.493Z</time>
      </trkpt>
      <trkpt lat="46.138447" lon="6.076012">
        <ele>456.414690</ele>
        <time>2021-07-03T19:13:57.629Z</time>
      </trkpt>
      <trkpt lat="46.138123" lon="6.075891">
        <ele>457.164534</ele>
        <time>2021-07-03T19:14:09.254Z</time>
      </trkpt>
      <trkpt lat="46.137492" lon="6.075659">
        <ele>458.623469</ele>
        <time>2021-07-03T19:14:32.151Z</time>
      </trkpt>
      <trkpt lat="46.137421" lon="6.075663">
        <ele>458.862336</ele>
        <time>2021-07-03T19:14:37.290Z</time>
      </trkpt>
      <trkpt lat="46.137261" lon="6.075686">
        <ele>459.544594</ele>
        <time>2021-07-03T19:14:42.624Z</time>
      </trkpt>
      <trkpt lat="46.137204" lon="6.075703">
        <ele>459.791563</ele>
        <time>2021-07-03T19:14:44.576Z</time>
      </trkpt>
      <trkpt lat="46.137175" lon="6.075718">
        <ele>459.922278</ele>
        <time>2021-07-03T19:14:45.596Z</time>
      </trkpt>
      <trkpt lat="46.137153" lon="6.075745">
        <ele>460.044818</ele>
        <time>2021-07-03T19:14:46.558Z</time>
      </trkpt>
      <trkpt lat="46.137140" lon="6.075792">
        <ele>460.193610</ele>
        <time>2021-07-03T19:14:48.154Z</time>
      </trkpt>
      <trkpt lat="46.137143" lon="6.075844">
        <ele>460.347029</ele>
        <time>2021-07-03T19:14:51.693Z</time>
      </trkpt>
      <trkpt lat="46.137420" lon="6.077272">
        <ele>464.707035</ele>
        <time>2021-07-03T19:15:30.417Z</time>
      </trkpt>
      <trkpt lat="46.137419" lon="6.077343">
        <ele>464.915831</ele>
        <time>2021-07-03T19:15:34.682Z</time>
      </trkpt>
      <trkpt lat="46.137415" lon="6.077380">
        <ele>465.025934</ele>
        <time>2021-07-03T19:15:35.707Z</time>
      </trkpt>
      <trkpt lat="46.137361" lon="6.077502">
        <ele>465.451572</ele>
        <time>2021-07-03T19:15:39.593Z</time>
      </trkpt>
      <trkpt lat="46.137319" lon="6.077556">
        <ele>465.690250</ele>
        <time>2021-07-03T19:15:41.715Z</time>
      </trkpt>
      <trkpt lat="46.137229" lon="6.077648">
        <ele>466.158226</ele>
        <time>2021-07-03T19:15:45.228Z</time>
      </trkpt>
      <trkpt lat="46.137173" lon="6.077688">
        <ele>466.405105</ele>
        <time>2021-07-03T19:15:49.546Z</time>
      </trkpt>
      <trkpt lat="46.137159" lon="6.077690">
        <ele>466.453680</ele>
        <time>2021-07-03T19:15:50.286Z</time>
      </trkpt>
      <trkpt lat="46.137123" lon="6.077704">
        <ele>466.582413</ele>
        <time>2021-07-03T19:15:51.594Z</time>
      </trkpt>
      <trkpt lat="46.136932" lon="6.077798">
        <ele>467.279181</ele>
        <time>2021-07-03T19:15:59.060Z</time>
      </trkpt>
      <trkpt lat="46.136910" lon="6.077816">
        <ele>467.366500</ele>
        <time>2021-07-03T19:15:59.897Z</time>
      </trkpt>
      <trkpt lat="46.136768" lon="6.077973">
        <ele>467.984143</ele>
        <time>2021-07-03T19:16:07.619Z</time>
      </trkpt>
      <trkpt lat="46.136726" lon="6.078019">
        <ele>468.166192</ele>
        <time>2021-07-03T19:16:09.748Z</time>
      </trkpt>
      <trkpt lat="46.136679" lon="6.078071">
        <ele>468.370675</ele>
        <time>2021-07-03T19:16:11.854Z</time>
      </trkpt>
      <trkpt lat="46.136541" lon="6.078223">
        <ele>468.970080</ele>
        <time>2021-07-03T19:16:18.923Z</time>
      </trkpt>
      <trkpt lat="46.136487" lon="6.078273">
        <ele>469.191606</ele>
        <time>2021-07-03T19:16:21.235Z</time>
      </trkpt>
      <trkpt lat="46.136444" lon="6.078305">
        <ele>469.358653</ele>
        <time>2021-07-03T19:16:23.147Z</time>
      </trkpt>
      <trkpt lat="46.136404" lon="6.078326">
        <ele>469.505618</ele>
        <time>2021-07-03T19:16:24.775Z</time>
      </trkpt>
      <trkpt lat="46.136176" lon="6.078396">
        <ele>470.310463</ele>
        <time>2021-07-03T19:16:33.459Z</time>
      </trkpt>
      <trkpt lat="46.136154" lon="6.078431">
        <ele>470.423522</ele>
        <time>2021-07-03T19:16:34.710Z</time>
      </trkpt>
      <trkpt lat="46.136117" lon="6.078395">
        <ele>470.577598</ele>
        <time>2021-07-03T19:16:36.414Z</time>
      </trkpt>
      <trkpt lat="46.135864" lon="6.078296">
        <ele>471.482687</ele>
        <time>2021-07-03T19:16:44.322Z</time>
      </trkpt>
      <trkpt lat="46.135196" lon="6.078279">
        <ele>473.145073</ele>
        <time>2021-07-03T19:17:04.887Z</time>
      </trkpt>
      <trkpt lat="46.134832" lon="6.078255">
        <ele>473.756577</ele>
        <time>2021-07-03T19:17:15.862Z</time>
      </trkpt>
      <trkpt lat="46.134445" lon="6.078180">
        <ele>474.411872</ele>
        <time>2021-07-03T19:17:27.246Z</time>
      </trkpt>
      <trkpt lat="46.134363" lon="6.078178">
        <ele>474.549505</ele>
        <time>2021-07-03T19:17:29.398Z</time>
      </trkpt>
      <trkpt lat="46.134294" lon="6.078183">
        <ele>474.665447</ele>
        <time>2021-07-03T19:17:31.466Z</time>
      </trkpt>
      <trkpt lat="46.133901" lon="6.078274">
        <ele>475.333418</ele>
        <time>2021-07-03T19:17:42.211Z</time>
      </trkpt>
      <trkpt lat="46.133625" lon="6.078306">
        <ele>475.847861</ele>
        <time>2021-07-03T19:17:49.290Z</time>
      </trkpt>
      <trkpt lat="46.133580" lon="6.078312">
        <ele>475.939173</ele>
        <time>2021-07-03T19:17:50.552Z</time>
      </trkpt>
      <trkpt lat="46.133153" lon="6.078362">
        <ele>476.804785</ele>
        <time>2021-07-03T19:18:02.349Z</time>
      </trkpt>
      <trkpt lat="46.132762" lon="6.078414">
        <ele>477.598169</ele>
        <time>2021-07-03T19:18:13.959Z</time>
      </trkpt>
      <trkpt lat="46.132703" lon="6.078422">
        <ele>477.717907</ele>
        <time>2021-07-03T19:18:15.608Z</time>
      </trkpt>
      <trkpt lat="46.132349" lon="6.078518">
        <ele>478.445704</ele>
        <time>2021-07-03T19:18:26.819Z</time>
      </trkpt>
      <trkpt lat="46.132269" lon="6.078556">
        <ele>478.615881</ele>
        <time>2021-07-03T19:18:29.571Z</time>
      </trkpt>
      <trkpt lat="46.132173" lon="6.078606">
        <ele>478.822102</ele>
        <time>2021-07-03T19:18:32.911Z</time>
      </trkpt>
      <trkpt lat="46.131990" lon="6.078719">
        <ele>479.267005</ele>
        <time>2021-07-03T19:18:39.491Z</time>
      </trkpt>
      <trkpt lat="46.131781" lon="6.078849">
        <ele>480.273939</ele>
        <time>2021-07-03T19:18:48.496Z</time>
      </trkpt>
      <trkpt lat="46.131275" lon="6.079170">
        <ele>482.719447</ele>
        <time>2021-07-03T19:19:08.882Z</time>
      </trkpt>
      <trkpt lat="46.131147" lon="6.079240">
        <ele>483.325068</ele>
        <time>2021-07-03T19:19:14.690Z</time>
      </trkpt>
      <trkpt lat="46.131069" lon="6.079266">
        <ele>483.679254</ele>
        <time>2021-07-03T19:19:17.730Z</time>
      </trkpt>
      <trkpt lat="46.130995" lon="6.079282">
        <ele>484.010309</ele>
        <time>2021-07-03T19:19:20.330Z</time>
      </trkpt>
      <trkpt lat="46.130916" lon="6.079271">
        <ele>484.361455</ele>
        <time>2021-07-03T19:19:23.419Z</time>
      </trkpt>
      <trkpt lat="46.130781" lon="6.079203">
        <ele>484.994085</ele>
        <time>2021-07-03T19:19:29.750Z</time>
      </trkpt>
      <trkpt lat="46.130754" lon="6.079176">
        <ele>485.139424</ele>
        <time>2021-07-03T19:19:31.101Z</time>
      </trkpt>
      <trkpt lat="46.130569" lon="6.078973">
        <ele>486.167703</ele>
        <time>2021-07-03T19:19:40.358Z</time>
      </trkpt>
      <trkpt lat="46.130492" lon="6.078912">
        <ele>486.556342</ele>
        <time>2021-07-03T19:19:46.098Z</time>
      </trkpt>
      <trkpt lat="46.130356" lon="6.078901">
        <ele>487.164285</ele>
        <time>2021-07-03T19:19:51.765Z</time>
      </trkpt>
      <trkpt lat="46.129926" lon="6.079083">
        <ele>489.965774</ele>
        <time>2021-07-03T19:20:12.152Z</time>
      </trkpt>
      <trkpt lat="46.129181" lon="6.079197">
        <ele>494.649400</ele>
        <time>2021-07-03T19:20:48.211Z</time>
      </trkpt>
      <trkpt lat="46.129108" lon="6.079240">
        <ele>495.142336</ele>
        <time>2021-07-03T19:20:53.698Z</time>
      </trkpt>
      <trkpt lat="46.129007" lon="6.079321">
        <ele>495.864731</ele>
        <time>2021-07-03T19:20:59.041Z</time>
      </trkpt>
      <trkpt lat="46.128651" lon="6.079617">
        <ele>498.430489</ele>
        <time>2021-07-03T19:21:17.148Z</time>
      </trkpt>
      <trkpt lat="46.128317" lon="6.079894">
        <ele>500.674762</ele>
        <time>2021-07-03T19:21:35.366Z</time>
      </trkpt>
      <trkpt lat="46.127892" lon="6.080240">
        <ele>503.517576</ele>
        <time>2021-07-03T19:21:58.805Z</time>
      </trkpt>
      <trkpt lat="46.127783" lon="6.080327">
        <ele>504.243251</ele>
        <time>2021-07-03T19:22:05.724Z</time>
      </trkpt>
      <trkpt lat="46.127296" lon="6.080732">
        <ele>507.517841</ele>
        <time>2021-07-03T19:22:29.223Z</time>
      </trkpt>
      <trkpt lat="46.127174" lon="6.080832">
        <ele>508.335247</ele>
        <time>2021-07-03T19:22:35.797Z</time>
      </trkpt>
      <trkpt lat="46.126762" lon="6.081120">
        <ele>510.370618</ele>
        <time>2021-07-03T19:22:54.402Z</time>
      </trkpt>
      <trkpt lat="46.126195" lon="6.081281">
        <ele>512.740317</ele>
        <time>2021-07-03T19:23:17.592Z</time>
      </trkpt>
      <trkpt lat="46.124048" lon="6.081249">
        <ele>520.517869</ele>
        <time>2021-07-03T19:24:35.295Z</time>
      </trkpt>
      <trkpt lat="46.123795" lon="6.081209">
        <ele>521.359302</ele>
        <time>2021-07-03T19:24:44.077Z</time>
      </trkpt>
      <trkpt lat="46.123527" lon="6.081081">
        <ele>522.277398</ele>
        <time>2021-07-03T19:24:53.685Z</time>
      </trkpt>
      <trkpt lat="46.123115" lon="6.080840">
        <ele>523.526977</ele>
        <time>2021-07-03T19:25:08.562Z</time>
      </trkpt>
      <trkpt lat="46.122595" lon="6.080546">
        <ele>525.096777</ele>
        <time>2021-07-03T19:25:26.827Z</time>
      </trkpt>
      <trkpt lat="46.122312" lon="6.080369">
        <ele>525.963741</ele>
        <time>2021-07-03T19:25:37.005Z</time>
      </trkpt>
      <trkpt lat="46.121755" lon="6.079884">
        <ele>527.858264</ele>
        <time>2021-07-03T19:25:59.264Z</time>
      </trkpt>
      <trkpt lat="46.121335" lon="6.079669">
        <ele>529.262166</ele>
        <time>2021-07-03T19:26:14.176Z</time>
      </trkpt>
      <trkpt lat="46.121270" lon="6.079650">
        <ele>529.471090</ele>
        <time>2021-07-03T19:26:16.661Z</time>
      </trkpt>
      <trkpt lat="46.121150" lon="6.079619">
        <ele>529.855126</ele>
        <time>2021-07-03T19:26:20.567Z</time>
      </trkpt>
      <trkpt lat="46.121083" lon="6.079603">
        <ele>530.069062</ele>
        <time>2021-07-03T19:26:22.782Z</time>
      </trkpt>
      <trkpt lat="46.119252" lon="6.079165">
        <ele>536.603361</ele>
        <time>2021-07-03T19:27:29.526Z</time>
      </trkpt>
      <trkpt lat="46.118989" lon="6.079102">
        <ele>537.635479</ele>
        <time>2021-07-03T19:27:39.345Z</time>
      </trkpt>
      <trkpt lat="46.118646" lon="6.079020">
        <ele>538.981478</ele>
        <time>2021-07-03T19:27:52.834Z</time>
      </trkpt>
      <trkpt lat="46.118320" lon="6.078974">
        <ele>540.403962</ele>
        <time>2021-07-03T19:28:06.342Z</time>
      </trkpt>
      <trkpt lat="46.118098" lon="6.079033">
        <ele>541.639003</ele>
        <time>2021-07-03T19:28:16.139Z</time>
      </trkpt>
      <trkpt lat="46.117384" lon="6.079619">
        <ele>546.133360</ele>
        <time>2021-07-03T19:28:52.832Z</time>
      </trkpt>
      <trkpt lat="46.117285" lon="6.079682">
        <ele>546.725364</ele>
        <time>2021-07-03T19:28:57.922Z</time>
      </trkpt>
      <trkpt lat="46.117144" lon="6.079766">
        <ele>547.559992</ele>
        <time>2021-07-03T19:29:04.307Z</time>
      </trkpt>
      <trkpt lat="46.116685" lon="6.080031">
        <ele>550.293254</ele>
        <time>2021-07-03T19:29:26.992Z</time>
      </trkpt>
      <trkpt lat="46.116657" lon="6.080048">
        <ele>550.468056</ele>
        <time>2021-07-03T19:29:28.421Z</time>
      </trkpt>
      <trkpt lat="46.116622" lon="6.080067">
        <ele>550.683235</ele>
        <time>2021-07-03T19:29:30.143Z</time>
      </trkpt>
      <trkpt lat="46.116569" lon="6.080097">
        <ele>551.010836</ele>
        <time>2021-07-03T19:29:32.437Z</time>
      </trkpt>
      <trkpt lat="46.116520" lon="6.080125">
        <ele>551.314099</ele>
        <time>2021-07-03T19:29:35.029Z</time>
      </trkpt>
      <trkpt lat="46.116120" lon="6.080284">
        <ele>553.701502</ele>
        <time>2021-07-03T19:29:53.795Z</time>
      </trkpt>
      <trkpt lat="46.116103" lon="6.080287">
        <ele>553.800051</ele>
        <time>2021-07-03T19:29:55.038Z</time>
      </trkpt>
      <trkpt lat="46.116022" lon="6.080293">
        <ele>554.266744</ele>
        <time>2021-07-03T19:29:58.902Z</time>
      </trkpt>
      <trkpt lat="46.115846" lon="6.080283">
        <ele>555.280244</ele>
        <time>2021-07-03T19:30:07.423Z</time>
      </trkpt>
      <trkpt lat="46.115064" lon="6.080143">
        <ele>559.814442</ele>
        <time>2021-07-03T19:30:42.946Z</time>
      </trkpt>
      <trkpt lat="46.114585" lon="6.080053">
        <ele>561.576830</ele>
        <time>2021-07-03T19:31:03.724Z</time>
      </trkpt>
      <trkpt lat="46.114388" lon="6.080043">
        <ele>562.254691</ele>
        <time>2021-07-03T19:31:10.985Z</time>
      </trkpt>
      <trkpt lat="46.114329" lon="6.080042">
        <ele>562.457594</ele>
        <time>2021-07-03T19:31:13.570Z</time>
      </trkpt>
      <trkpt lat="46.114166" lon="6.080022">
        <ele>563.020141</ele>
        <time>2021-07-03T19:31:19.093Z</time>
      </trkpt>
      <trkpt lat="46.113447" lon="6.080081">
        <ele>565.496630</ele>
        <time>2021-07-03T19:31:43.415Z</time>
      </trkpt>
      <trkpt lat="46.113290" lon="6.080098">
        <ele>566.038039</ele>
        <time>2021-07-03T19:31:48.230Z</time>
      </trkpt>
      <trkpt lat="46.113201" lon="6.080104">
        <ele>566.280200</ele>
        <time>2021-07-03T19:31:50.985Z</time>
      </trkpt>
      <trkpt lat="46.113119" lon="6.080102">
        <ele>566.367631</ele>
        <time>2021-07-03T19:31:53.131Z</time>
      </trkpt>
      <trkpt lat="46.113020" lon="6.080100">
        <ele>566.473183</ele>
        <time>2021-07-03T19:31:55.703Z</time>
      </trkpt>
      <trkpt lat="46.112965" lon="6.080099">
        <ele>566.531822</ele>
        <time>2021-07-03T19:31:57.241Z</time>
      </trkpt>
      <trkpt lat="46.112881" lon="6.080097">
        <ele>566.621385</ele>
        <time>2021-07-03T19:31:59.933Z</time>
      </trkpt>
      <trkpt lat="46.112822" lon="6.080096">
        <ele>566.684288</ele>
        <time>2021-07-03T19:32:01.345Z</time>
      </trkpt>
      <trkpt lat="46.112728" lon="6.080092">
        <ele>566.784543</ele>
        <time>2021-07-03T19:32:03.488Z</time>
      </trkpt>
      <trkpt lat="46.112715" lon="6.080093">
        <ele>566.798422</ele>
        <time>2021-07-03T19:32:03.729Z</time>
      </trkpt>
      <trkpt lat="46.112631" lon="6.080088">
        <ele>566.888049</ele>
        <time>2021-07-03T19:32:05.666Z</time>
      </trkpt>
      <trkpt lat="46.112523" lon="6.080067">
        <ele>567.004227</ele>
        <time>2021-07-03T19:32:08.389Z</time>
      </trkpt>
      <trkpt lat="46.112450" lon="6.080044">
        <ele>567.083885</ele>
        <time>2021-07-03T19:32:10.186Z</time>
      </trkpt>
      <trkpt lat="46.112324" lon="6.079986">
        <ele>567.224885</ele>
        <time>2021-07-03T19:32:13.065Z</time>
      </trkpt>
      <trkpt lat="46.112234" lon="6.079945">
        <ele>567.325503</ele>
        <time>2021-07-03T19:32:15.482Z</time>
      </trkpt>
      <trkpt lat="46.112199" lon="6.079929">
        <ele>567.364645</ele>
        <time>2021-07-03T19:32:16.443Z</time>
      </trkpt>
      <trkpt lat="46.112178" lon="6.079920">
        <ele>567.388000</ele>
        <time>2021-07-03T19:32:17.051Z</time>
      </trkpt>
      <trkpt lat="46.112128" lon="6.079902">
        <ele>567.442939</ele>
        <time>2021-07-03T19:32:18.373Z</time>
      </trkpt>
      <trkpt lat="46.112041" lon="6.079874">
        <ele>567.537968</ele>
        <time>2021-07-03T19:32:20.572Z</time>
      </trkpt>
      <trkpt lat="46.111929" lon="6.079897">
        <ele>567.658573</ele>
        <time>2021-07-03T19:32:23.206Z</time>
      </trkpt>
      <trkpt lat="46.111775" lon="6.079919">
        <ele>567.823553</ele>
        <time>2021-07-03T19:32:27.226Z</time>
      </trkpt>
      <trkpt lat="46.111660" lon="6.079935">
        <ele>567.946721</ele>
        <time>2021-07-03T19:32:30.067Z</time>
      </trkpt>
      <trkpt lat="46.111642" lon="6.079933">
        <ele>567.965967</ele>
        <time>2021-07-03T19:32:30.498Z</time>
      </trkpt>
      <trkpt lat="46.111597" lon="6.079929">
        <ele>568.014032</ele>
        <time>2021-07-03T19:32:31.628Z</time>
      </trkpt>
      <trkpt lat="46.111555" lon="6.079922">
        <ele>568.059105</ele>
        <time>2021-07-03T19:32:32.708Z</time>
      </trkpt>
      <trkpt lat="46.111518" lon="6.079912">
        <ele>568.099236</ele>
        <time>2021-07-03T19:32:33.694Z</time>
      </trkpt>
      <trkpt lat="46.111428" lon="6.079890">
        <ele>568.225961</ele>
        <time>2021-07-03T19:32:36.070Z</time>
      </trkpt>
      <trkpt lat="46.111270" lon="6.079852">
        <ele>568.577960</ele>
        <time>2021-07-03T19:32:40.744Z</time>
      </trkpt>
      <trkpt lat="46.111255" lon="6.079848">
        <ele>568.611481</ele>
        <time>2021-07-03T19:32:41.153Z</time>
      </trkpt>
      <trkpt lat="46.111246" lon="6.079845">
        <ele>568.631780</ele>
        <time>2021-07-03T19:32:41.375Z</time>
      </trkpt>
      <trkpt lat="46.111169" lon="6.079812">
        <ele>568.808298</ele>
        <time>2021-07-03T19:32:43.445Z</time>
      </trkpt>
      <trkpt lat="46.111068" lon="6.079779">
        <ele>569.035868</ele>
        <time>2021-07-03T19:32:46.835Z</time>
      </trkpt>
      <trkpt lat="46.110992" lon="6.079760">
        <ele>569.205368</ele>
        <time>2021-07-03T19:32:49.659Z</time>
      </trkpt>
      <trkpt lat="46.110964" lon="6.079757">
        <ele>569.267068</ele>
        <time>2021-07-03T19:32:50.603Z</time>
      </trkpt>
      <trkpt lat="46.110931" lon="6.079756">
        <ele>569.339601</ele>
        <time>2021-07-03T19:32:51.512Z</time>
      </trkpt>
      <trkpt lat="46.110886" lon="6.079738">
        <ele>569.442221</ele>
        <time>2021-07-03T19:32:52.854Z</time>
      </trkpt>
      <trkpt lat="46.110795" lon="6.079695">
        <ele>569.652650</ele>
        <time>2021-07-03T19:32:55.556Z</time>
      </trkpt>
      <trkpt lat="46.110704" lon="6.079636">
        <ele>569.871894</ele>
        <time>2021-07-03T19:32:59.131Z</time>
      </trkpt>
      <trkpt lat="46.110573" lon="6.079551">
        <ele>570.187551</ele>
        <time>2021-07-03T19:33:03.750Z</time>
      </trkpt>
      <trkpt lat="46.110518" lon="6.079515">
        <ele>570.320276</ele>
        <time>2021-07-03T19:33:05.339Z</time>
      </trkpt>
      <trkpt lat="46.110420" lon="6.079484">
        <ele>570.540748</ele>
        <time>2021-07-03T19:33:08.311Z</time>
      </trkpt>
      <trkpt lat="46.110241" lon="6.079360">
        <ele>570.977112</ele>
        <time>2021-07-03T19:33:14.930Z</time>
      </trkpt>
      <trkpt lat="46.110082" lon="6.079223">
        <ele>571.384107</ele>
        <time>2021-07-03T19:33:20.458Z</time>
      </trkpt>
      <trkpt lat="46.110049" lon="6.079203">
        <ele>571.462765</ele>
        <time>2021-07-03T19:33:21.940Z</time>
      </trkpt>
      <trkpt lat="46.109980" lon="6.079161">
        <ele>571.627341</ele>
        <time>2021-07-03T19:33:24.741Z</time>
      </trkpt>
      <trkpt lat="46.109839" lon="6.079037">
        <ele>571.990237</ele>
        <time>2021-07-03T19:33:29.524Z</time>
      </trkpt>
      <trkpt lat="46.109787" lon="6.078994">
        <ele>572.122306</ele>
        <time>2021-07-03T19:33:31.620Z</time>
      </trkpt>
      <trkpt lat="46.109756" lon="6.078968">
        <ele>572.248280</ele>
        <time>2021-07-03T19:33:32.953Z</time>
      </trkpt>
      <trkpt lat="46.109741" lon="6.078955">
        <ele>572.309755</ele>
        <time>2021-07-03T19:33:33.684Z</time>
      </trkpt>
      <trkpt lat="46.109727" lon="6.078945">
        <ele>572.364636</ele>
        <time>2021-07-03T19:33:34.288Z</time>
      </trkpt>
      <trkpt lat="46.109630" lon="6.078877">
        <ele>572.743507</ele>
        <time>2021-07-03T19:33:38.048Z</time>
      </trkpt>
      <trkpt lat="46.109606" lon="6.078865">
        <ele>572.832740</ele>
        <time>2021-07-03T19:33:38.872Z</time>
      </trkpt>
      <trkpt lat="46.109567" lon="6.078844">
        <ele>572.978981</ele>
        <time>2021-07-03T19:33:40.092Z</time>
      </trkpt>
      <trkpt lat="46.109500" lon="6.078823">
        <ele>573.219843</ele>
        <time>2021-07-03T19:33:42.070Z</time>
      </trkpt>
      <trkpt lat="46.109475" lon="6.078814">
        <ele>573.310361</ele>
        <time>2021-07-03T19:33:42.968Z</time>
      </trkpt>
      <trkpt lat="46.109446" lon="6.078801">
        <ele>573.417044</ele>
        <time>2021-07-03T19:33:44.044Z</time>
      </trkpt>
      <trkpt lat="46.109390" lon="6.078777">
        <ele>573.622270</ele>
        <time>2021-07-03T19:33:46.380Z</time>
      </trkpt>
      <trkpt lat="46.109330" lon="6.078750">
        <ele>573.843067</ele>
        <time>2021-07-03T19:33:48.815Z</time>
      </trkpt>
      <trkpt lat="46.109298" lon="6.078736">
        <ele>573.960540</ele>
        <time>2021-07-03T19:33:49.950Z</time>
      </trkpt>
      <trkpt lat="46.109283" lon="6.078729">
        <ele>574.015923</ele>
        <time>2021-07-03T19:33:50.503Z</time>
      </trkpt>
      <trkpt lat="46.109131" lon="6.078673">
        <ele>574.567038</ele>
        <time>2021-07-03T19:33:55.488Z</time>
      </trkpt>
      <trkpt lat="46.109041" lon="6.078649">
        <ele>574.888563</ele>
        <time>2021-07-03T19:33:59.507Z</time>
      </trkpt>
      <trkpt lat="46.108962" lon="6.078646">
        <ele>575.166183</ele>
        <time>2021-07-03T19:34:02.638Z</time>
      </trkpt>
      <trkpt lat="46.108945" lon="6.078646">
        <ele>575.225904</ele>
        <time>2021-07-03T19:34:03.179Z</time>
      </trkpt>
      <trkpt lat="46.108935" lon="6.078646">
        <ele>575.261034</ele>
        <time>2021-07-03T19:34:03.519Z</time>
      </trkpt>
      <trkpt lat="46.108808" lon="6.078652">
        <ele>575.707420</ele>
        <time>2021-07-03T19:34:07.262Z</time>
      </trkpt>
      <trkpt lat="46.108664" lon="6.078656">
        <ele>576.213381</ele>
        <time>2021-07-03T19:34:13.386Z</time>
      </trkpt>
      <trkpt lat="46.108629" lon="6.078655">
        <ele>576.336359</ele>
        <time>2021-07-03T19:34:14.931Z</time>
      </trkpt>
      <trkpt lat="46.108477" lon="6.078661">
        <ele>576.870531</ele>
        <time>2021-07-03T19:34:19.976Z</time>
      </trkpt>
      <trkpt lat="46.108345" lon="6.078649">
        <ele>577.335163</ele>
        <time>2021-07-03T19:34:25.254Z</time>
      </trkpt>
      <trkpt lat="46.108238" lon="6.078626">
        <ele>577.715201</ele>
        <time>2021-07-03T19:34:29.589Z</time>
      </trkpt>
      <trkpt lat="46.108119" lon="6.078599">
        <ele>578.138385</ele>
        <time>2021-07-03T19:34:33.920Z</time>
      </trkpt>
      <trkpt lat="46.107905" lon="6.078551">
        <ele>579.087642</ele>
        <time>2021-07-03T19:34:42.414Z</time>
      </trkpt>
      <trkpt lat="46.107718" lon="6.078508">
        <ele>580.025823</ele>
        <time>2021-07-03T19:34:49.369Z</time>
      </trkpt>
      <trkpt lat="46.107566" lon="6.078476">
        <ele>580.786878</ele>
        <time>2021-07-03T19:34:55.980Z</time>
      </trkpt>
      <trkpt lat="46.107280" lon="6.078426">
        <ele>582.214219</ele>
        <time>2021-07-03T19:35:07.565Z</time>
      </trkpt>
      <trkpt lat="46.106816" lon="6.078359">
        <ele>584.524572</ele>
        <time>2021-07-03T19:35:27.612Z</time>
      </trkpt>
      <trkpt lat="46.106740" lon="6.078348">
        <ele>584.903001</ele>
        <time>2021-07-03T19:35:30.849Z</time>
      </trkpt>
      <trkpt lat="46.106206" lon="6.078273">
        <ele>587.623083</ele>
        <time>2021-07-03T19:35:54.707Z</time>
      </trkpt>
      <trkpt lat="46.105749" lon="6.078348">
        <ele>590.573621</ele>
        <time>2021-07-03T19:36:15.630Z</time>
      </trkpt>
      <trkpt lat="46.105161" lon="6.078800">
        <ele>594.847883</ele>
        <time>2021-07-03T19:36:47.076Z</time>
      </trkpt>
      <trkpt lat="46.104956" lon="6.078883">
        <ele>596.213775</ele>
        <time>2021-07-03T19:36:56.826Z</time>
      </trkpt>
      <trkpt lat="46.104815" lon="6.078914">
        <ele>597.128728</ele>
        <time>2021-07-03T19:37:04.151Z</time>
      </trkpt>
      <trkpt lat="46.103302" lon="6.079164">
        <ele>608.791543</ele>
        <time>2021-07-03T19:38:25.501Z</time>
      </trkpt>
      <trkpt lat="46.102781" lon="6.079217">
        <ele>612.934205</ele>
        <time>2021-07-03T19:38:55.734Z</time>
      </trkpt>
      <trkpt lat="46.102505" lon="6.079148">
        <ele>614.844304</ele>
        <time>2021-07-03T19:39:11.364Z</time>
      </trkpt>
      <trkpt lat="46.102061" lon="6.078953">
        <ele>617.952032</ele>
        <time>2021-07-03T19:39:35.466Z</time>
      </trkpt>
      <trkpt lat="46.101861" lon="6.078866">
        <ele>619.350783</ele>
        <time>2021-07-03T19:39:46.100Z</time>
      </trkpt>
      <trkpt lat="46.101681" lon="6.078847">
        <ele>620.559252</ele>
        <time>2021-07-03T19:39:54.123Z</time>
      </trkpt>
      <trkpt lat="46.101655" lon="6.078852">
        <ele>620.734884</ele>
        <time>2021-07-03T19:39:56.145Z</time>
      </trkpt>
      <trkpt lat="46.101738" lon="6.079839">
        <ele>625.292662</ele>
        <time>2021-07-03T19:40:26.528Z</time>
      </trkpt>
      <trkpt lat="46.101727" lon="6.080375">
        <ele>626.828443</ele>
        <time>2021-07-03T19:40:42.593Z</time>
      </trkpt>
      <trkpt lat="46.101633" lon="6.080688">
        <ele>627.805351</ele>
        <time>2021-07-03T19:40:51.657Z</time>
      </trkpt>
      <trkpt lat="46.101503" lon="6.080920">
        <ele>628.659651</ele>
        <time>2021-07-03T19:40:59.550Z</time>
      </trkpt>
      <trkpt lat="46.101285" lon="6.081193">
        <ele>629.852189</ele>
        <time>2021-07-03T19:41:09.693Z</time>
      </trkpt>
      <trkpt lat="46.100963" lon="6.081585">
        <ele>631.592713</ele>
        <time>2021-07-03T19:41:24.885Z</time>
      </trkpt>
      <trkpt lat="46.100664" lon="6.081974">
        <ele>633.251595</ele>
        <time>2021-07-03T19:41:39.857Z</time>
      </trkpt>
      <trkpt lat="46.099616" lon="6.080935">
        <ele>638.467651</ele>
        <time>2021-07-03T19:42:30.514Z</time>
      </trkpt>
      <trkpt lat="46.099005" lon="6.080335">
        <ele>641.595851</ele>
        <time>2021-07-03T19:43:00.525Z</time>
      </trkpt>
      <trkpt lat="46.098354" lon="6.079772">
        <ele>644.910069</ele>
        <time>2021-07-03T19:43:30.375Z</time>
      </trkpt>
      <trkpt lat="46.098273" lon="6.079692">
        <ele>645.338709</ele>
        <time>2021-07-03T19:43:33.993Z</time>
      </trkpt>
      <trkpt lat="46.098249" lon="6.079572">
        <ele>645.716823</ele>
        <time>2021-07-03T19:43:37.664Z</time>
      </trkpt>
      <trkpt lat="46.096238" lon="6.077364">
        <ele>659.324772</ele>
        <time>2021-07-03T19:45:23.958Z</time>
      </trkpt>
      <trkpt lat="46.096120" lon="6.077347">
        <ele>660.386940</ele>
        <time>2021-07-03T19:45:30.094Z</time>
      </trkpt>
      <trkpt lat="46.096009" lon="6.077266">
        <ele>661.501193</ele>
        <time>2021-07-03T19:45:38.571Z</time>
      </trkpt>
      <trkpt lat="46.095907" lon="6.077212">
        <ele>662.474411</ele>
        <time>2021-07-03T19:45:43.452Z</time>
      </trkpt>
      <trkpt lat="46.095800" lon="6.077173">
        <ele>663.462931</ele>
        <time>2021-07-03T19:45:50.494Z</time>
      </trkpt>
      <trkpt lat="46.095681" lon="6.077002">
        <ele>664.967636</ele>
        <time>2021-07-03T19:46:01.430Z</time>
      </trkpt>
      <trkpt lat="46.094801" lon="6.076548">
        <ele>673.354352</ele>
        <time>2021-07-03T19:46:59.225Z</time>
      </trkpt>
      <trkpt lat="46.094661" lon="6.076511">
        <ele>675.132879</ele>
        <time>2021-07-03T19:47:11.476Z</time>
      </trkpt>
      <trkpt lat="46.094609" lon="6.076587">
        <ele>676.058035</ele>
        <time>2021-07-03T19:47:14.518Z</time>
      </trkpt>
      <trkpt lat="46.094538" lon="6.076471">
        <ele>677.398742</ele>
        <time>2021-07-03T19:47:20.983Z</time>
      </trkpt>
      <trkpt lat="46.094224" lon="6.076075">
        <ele>682.611227</ele>
        <time>2021-07-03T19:47:50.713Z</time>
      </trkpt>
      <trkpt lat="46.094167" lon="6.076017">
        <ele>683.482950</ele>
        <time>2021-07-03T19:47:57.204Z</time>
      </trkpt>
      <trkpt lat="46.094154" lon="6.075823">
        <ele>685.171871</ele>
        <time>2021-07-03T19:48:07.448Z</time>
      </trkpt>
      <trkpt lat="46.094054" lon="6.075328">
        <ele>689.639558</ele>
        <time>2021-07-03T19:48:33.090Z</time>
      </trkpt>
      <trkpt lat="46.093961" lon="6.075202">
        <ele>691.234108</ele>
        <time>2021-07-03T19:48:41.571Z</time>
      </trkpt>
      <trkpt lat="46.093865" lon="6.075346">
        <ele>692.965022</ele>
        <time>2021-07-03T19:48:54.684Z</time>
      </trkpt>
      <trkpt lat="46.093700" lon="6.075641">
        <ele>696.268909</ele>
        <time>2021-07-03T19:49:14.874Z</time>
      </trkpt>
      <trkpt lat="46.093625" lon="6.075727">
        <ele>697.516086</ele>
        <time>2021-07-03T19:49:23.323Z</time>
      </trkpt>
      <trkpt lat="46.093616" lon="6.075670">
        <ele>698.043738</ele>
        <time>2021-07-03T19:49:28.026Z</time>
      </trkpt>
      <trkpt lat="46.093372" lon="6.075418">
        <ele>701.950058</ele>
        <time>2021-07-03T19:49:49.079Z</time>
      </trkpt>
      <trkpt lat="46.093170" lon="6.074880">
        <ele>707.472155</ele>
        <time>2021-07-03T19:50:22.681Z</time>
      </trkpt>
      <trkpt lat="46.093052" lon="6.074655">
        <ele>710.018381</ele>
        <time>2021-07-03T19:50:35.520Z</time>
      </trkpt>
      <trkpt lat="46.092897" lon="6.074466">
        <ele>712.660385</ele>
        <time>2021-07-03T19:50:53.131Z</time>
      </trkpt>
      <trkpt lat="46.092622" lon="6.074252">
        <ele>716.727609</ele>
        <time>2021-07-03T19:51:16.463Z</time>
      </trkpt>
      <trkpt lat="46.092327" lon="6.074124">
        <ele>720.376141</ele>
        <time>2021-07-03T19:51:37.055Z</time>
      </trkpt>
      <trkpt lat="46.091879" lon="6.074397">
        <ele>725.233474</ele>
        <time>2021-07-03T19:52:10.306Z</time>
      </trkpt>
      <trkpt lat="46.091871" lon="6.074586">
        <ele>726.544938</ele>
        <time>2021-07-03T19:52:19.005Z</time>
      </trkpt>
      <trkpt lat="46.092061" lon="6.075052">
        <ele>730.288961</ele>
        <time>2021-07-03T19:52:41.568Z</time>
      </trkpt>
      <trkpt lat="46.092135" lon="6.075406">
        <ele>732.849743</ele>
        <time>2021-07-03T19:52:55.184Z</time>
      </trkpt>
      <trkpt lat="46.092090" lon="6.075848">
        <ele>735.943867</ele>
        <time>2021-07-03T19:53:13.029Z</time>
      </trkpt>
      <trkpt lat="46.091841" lon="6.076156">
        <ele>739.269433</ele>
        <time>2021-07-03T19:53:32.789Z</time>
      </trkpt>
      <trkpt lat="46.091054" lon="6.076565">
        <ele>747.822467</ele>
        <time>2021-07-03T19:54:26.370Z</time>
      </trkpt>
      <trkpt lat="46.090787" lon="6.076668">
        <ele>750.648314</ele>
        <time>2021-07-03T19:54:44.727Z</time>
      </trkpt>
      <trkpt lat="46.090291" lon="6.076813">
        <ele>755.862980</ele>
        <time>2021-07-03T19:55:17.970Z</time>
      </trkpt>
      <trkpt lat="46.089597" lon="6.076912">
        <ele>764.003324</ele>
        <time>2021-07-03T19:56:06.397Z</time>
      </trkpt>
      <trkpt lat="46.088968" lon="6.077024">
        <ele>771.401173</ele>
        <time>2021-07-03T19:56:51.833Z</time>
      </trkpt>
      <trkpt lat="46.087639" lon="6.077493">
        <ele>786.881346</ele>
        <time>2021-07-03T19:58:28.743Z</time>
      </trkpt>
      <trkpt lat="46.087254" lon="6.077684">
        <ele>791.418767</ele>
        <time>2021-07-03T19:58:56.148Z</time>
      </trkpt>
      <trkpt lat="46.086939" lon="6.077703">
        <ele>794.932284</ele>
        <time>2021-07-03T19:59:17.113Z</time>
      </trkpt>
      <trkpt lat="46.086601" lon="6.077674">
        <ele>798.000238</ele>
        <time>2021-07-03T19:59:38.125Z</time>
      </trkpt>
      <trkpt lat="46.085866" lon="6.077630">
        <ele>803.480851</ele>
        <time>2021-07-03T20:00:20.279Z</time>
      </trkpt>
      <trkpt lat="46.084571" lon="6.077268">
        <ele>812.753062</ele>
        <time>2021-07-03T20:01:20.720Z</time>
      </trkpt>
      <trkpt lat="46.083501" lon="6.076847">
        <ele>819.638295</ele>
        <time>2021-07-03T20:02:13.332Z</time>
      </trkpt>
      <trkpt lat="46.082950" lon="6.076698">
        <ele>823.671301</ele>
        <time>2021-07-03T20:02:41.979Z</time>
      </trkpt>
      <trkpt lat="46.082240" lon="6.076566">
        <ele>829.359257</ele>
        <time>2021-07-03T20:03:22.980Z</time>
      </trkpt>
      <trkpt lat="46.081893" lon="6.076112">
        <ele>833.082388</ele>
        <time>2021-07-03T20:03:50.719Z</time>
      </trkpt>
      <trkpt lat="46.081649" lon="6.076227">
        <ele>835.122037</ele>
        <time>2021-07-03T20:04:03.940Z</time>
      </trkpt>
      <trkpt lat="46.081622" lon="6.076202">
        <ele>835.376998</ele>
        <time>2021-07-03T20:04:07.293Z</time>
      </trkpt>
      <trkpt lat="46.081423" lon="6.075790">
        <ele>837.351189</ele>
        <time>2021-07-03T20:04:29.570Z</time>
      </trkpt>
      <trkpt lat="46.081266" lon="6.075492">
        <ele>838.810219</ele>
        <time>2021-07-03T20:04:45.460Z</time>
      </trkpt>
      <trkpt lat="46.081148" lon="6.075379">
        <ele>839.606491</ele>
        <time>2021-07-03T20:04:55.367Z</time>
      </trkpt>
      <trkpt lat="46.081026" lon="6.075364">
        <ele>840.294742</ele>
        <time>2021-07-03T20:05:02.443Z</time>
      </trkpt>
      <trkpt lat="46.080829" lon="6.075478">
        <ele>841.487956</ele>
        <time>2021-07-03T20:05:16.356Z</time>
      </trkpt>
      <trkpt lat="46.080701" lon="6.075569">
        <ele>842.290172</ele>
        <time>2021-07-03T20:05:23.756Z</time>
      </trkpt>
      <trkpt lat="46.080498" lon="6.075724">
        <ele>843.581394</ele>
        <time>2021-07-03T20:05:37.902Z</time>
      </trkpt>
      <trkpt lat="46.080124" lon="6.075989">
        <ele>845.583635</ele>
        <time>2021-07-03T20:05:57.912Z</time>
      </trkpt>
      <trkpt lat="46.079590" lon="6.076224">
        <ele>845.908043</ele>
        <time>2021-07-03T20:06:22.285Z</time>
      </trkpt>
      <trkpt lat="46.079497" lon="6.076276">
        <ele>845.966002</ele>
        <time>2021-07-03T20:06:27.128Z</time>
      </trkpt>
      <trkpt lat="46.079548" lon="6.076430">
        <ele>846.034782</ele>
        <time>2021-07-03T20:06:31.844Z</time>
      </trkpt>
      <trkpt lat="46.079721" lon="6.076899">
        <ele>846.248873</ele>
        <time>2021-07-03T20:06:46.306Z</time>
      </trkpt>
      <trkpt lat="46.079772" lon="6.077255">
        <ele>846.395384</ele>
        <time>2021-07-03T20:06:54.853Z</time>
      </trkpt>
      <trkpt lat="46.079716" lon="6.077461">
        <ele>846.484559</ele>
        <time>2021-07-03T20:06:59.822Z</time>
      </trkpt>
      <trkpt lat="46.079280" lon="6.078395">
        <ele>844.808303</ele>
        <time>2021-07-03T20:07:24.348Z</time>
      </trkpt>
      <trkpt lat="46.079326" lon="6.078567">
        <ele>844.428905</ele>
        <time>2021-07-03T20:07:28.063Z</time>
      </trkpt>
      <trkpt lat="46.079522" lon="6.078675">
        <ele>843.806330</ele>
        <time>2021-07-03T20:07:34.566Z</time>
      </trkpt>
      <trkpt lat="46.079572" lon="6.078691">
        <ele>843.654367</ele>
        <time>2021-07-03T20:07:36.013Z</time>
      </trkpt>
      <trkpt lat="46.079569" lon="6.078882">
        <ele>843.261164</ele>
        <time>2021-07-03T20:07:39.838Z</time>
      </trkpt>
      <trkpt lat="46.079495" lon="6.079485">
        <ele>842.000843</ele>
        <time>2021-07-03T20:07:52.335Z</time>
      </trkpt>
      <trkpt lat="46.079185" lon="6.080555">
        <ele>838.265281</ele>
        <time>2021-07-03T20:08:15.089Z</time>
      </trkpt>
      <trkpt lat="46.079077" lon="6.081594">
        <ele>834.322814</ele>
        <time>2021-07-03T20:08:34.918Z</time>
      </trkpt>
      <trkpt lat="46.079075" lon="6.082371">
        <ele>831.336075</ele>
        <time>2021-07-03T20:08:49.189Z</time>
      </trkpt>
      <trkpt lat="46.078865" lon="6.082624">
        <ele>828.945896</ele>
        <time>2021-07-03T20:08:56.265Z</time>
      </trkpt>
      <trkpt lat="46.078426" lon="6.082992">
        <ele>824.510796</ele>
        <time>2021-07-03T20:09:09.193Z</time>
      </trkpt>
      <trkpt lat="46.078137" lon="6.083577">
        <ele>820.159814</ele>
        <time>2021-07-03T20:09:21.771Z</time>
      </trkpt>
      <trkpt lat="46.077665" lon="6.084737">
        <ele>811.570913</ele>
        <time>2021-07-03T20:09:44.266Z</time>
      </trkpt>
      <trkpt lat="46.077260" lon="6.085147">
        <ele>806.746829</ele>
        <time>2021-07-03T20:09:56.493Z</time>
      </trkpt>
      <trkpt lat="46.077154" lon="6.085307">
        <ele>805.250774</ele>
        <time>2021-07-03T20:10:00.212Z</time>
      </trkpt>
      <trkpt lat="46.077139" lon="6.085330">
        <ele>805.037309</ele>
        <time>2021-07-03T20:10:00.695Z</time>
      </trkpt>
      <trkpt lat="46.076748" lon="6.085982">
        <ele>799.209412</ele>
        <time>2021-07-03T20:10:15.808Z</time>
      </trkpt>
      <trkpt lat="46.076235" lon="6.086363">
        <ele>796.025605</ele>
        <time>2021-07-03T20:10:30.388Z</time>
      </trkpt>
      <trkpt lat="46.075843" lon="6.086478">
        <ele>794.153063</ele>
        <time>2021-07-03T20:10:40.949Z</time>
      </trkpt>
      <trkpt lat="46.075233" lon="6.087171">
        <ele>790.517529</ele>
        <time>2021-07-03T20:11:04.921Z</time>
      </trkpt>
      <trkpt lat="46.074806" lon="6.087276">
        <ele>789.820618</ele>
        <time>2021-07-03T20:11:19.206Z</time>
      </trkpt>
      <trkpt lat="46.074676" lon="6.087258">
        <ele>789.802278</ele>
        <time>2021-07-03T20:11:23.785Z</time>
      </trkpt>
      <trkpt lat="46.074678" lon="6.087112">
        <ele>789.788052</ele>
        <time>2021-07-03T20:11:27.542Z</time>
      </trkpt>
      <trkpt lat="46.074669" lon="6.086997">
        <ele>789.776778</ele>
        <time>2021-07-03T20:11:30.310Z</time>
      </trkpt>
      <trkpt lat="46.074593" lon="6.086881">
        <ele>789.761234</ele>
        <time>2021-07-03T20:11:34.180Z</time>
      </trkpt>
      <trkpt lat="46.074507" lon="6.086861">
        <ele>789.749001</ele>
        <time>2021-07-03T20:11:37.665Z</time>
      </trkpt>
      <trkpt lat="46.074505" lon="6.086060">
        <ele>789.670968</ele>
        <time>2021-07-03T20:11:50.652Z</time>
      </trkpt>
      <trkpt lat="46.074481" lon="6.085435">
        <ele>789.609987</ele>
        <time>2021-07-03T20:12:01.748Z</time>
      </trkpt>
      <trkpt lat="46.074459" lon="6.085212">
        <ele>789.678084</ele>
        <time>2021-07-03T20:12:06.014Z</time>
      </trkpt>
      <trkpt lat="46.074375" lon="6.085226">
        <ele>789.716767</ele>
        <time>2021-07-03T20:12:08.127Z</time>
      </trkpt>
      <trkpt lat="46.074347" lon="6.085230">
        <ele>789.729639</ele>
        <time>2021-07-03T20:12:08.892Z</time>
      </trkpt>
      <trkpt lat="46.074288" lon="6.085205">
        <ele>789.757772</ele>
        <time>2021-07-03T20:12:10.409Z</time>
      </trkpt>
      <trkpt lat="46.074051" lon="6.084756">
        <ele>789.936826</ele>
        <time>2021-07-03T20:12:19.957Z</time>
      </trkpt>
      <trkpt lat="46.073979" lon="6.084693">
        <ele>789.975358</ele>
        <time>2021-07-03T20:12:21.742Z</time>
      </trkpt>
      <trkpt lat="46.073832" lon="6.084692">
        <ele>790.042607</ele>
        <time>2021-07-03T20:12:24.939Z</time>
      </trkpt>
      <trkpt lat="46.073777" lon="6.084694">
        <ele>790.067776</ele>
        <time>2021-07-03T20:12:26.293Z</time>
      </trkpt>
      <trkpt lat="46.073722" lon="6.084598">
        <ele>790.107290</ele>
        <time>2021-07-03T20:12:29.699Z</time>
      </trkpt>
      <trkpt lat="46.073777" lon="6.084694">
        <ele>790.146803</ele>
        <time>2021-07-03T20:12:32.716Z</time>
      </trkpt>
      <trkpt lat="46.073832" lon="6.084692">
        <ele>790.171972</ele>
        <time>2021-07-03T20:12:33.856Z</time>
      </trkpt>
      <trkpt lat="46.073979" lon="6.084693">
        <ele>790.239222</ele>
        <time>2021-07-03T20:12:37.179Z</time>
      </trkpt>
      <trkpt lat="46.074051" lon="6.084756">
        <ele>790.277753</ele>
        <time>2021-07-03T20:12:39.149Z</time>
      </trkpt>
      <trkpt lat="46.074288" lon="6.085205">
        <ele>790.621977</ele>
        <time>2021-07-03T20:12:47.832Z</time>
      </trkpt>
      <trkpt lat="46.074347" lon="6.085230">
        <ele>790.837615</ele>
        <time>2021-07-03T20:12:49.297Z</time>
      </trkpt>
      <trkpt lat="46.074375" lon="6.085226">
        <ele>790.936279</ele>
        <time>2021-07-03T20:12:49.991Z</time>
      </trkpt>
      <trkpt lat="46.074459" lon="6.085212">
        <ele>791.232789</ele>
        <time>2021-07-03T20:12:53.168Z</time>
      </trkpt>
      <trkpt lat="46.074481" lon="6.085435">
        <ele>791.780707</ele>
        <time>2021-07-03T20:12:57.181Z</time>
      </trkpt>
      <trkpt lat="46.074505" lon="6.086060">
        <ele>793.303383</ele>
        <time>2021-07-03T20:13:10.207Z</time>
      </trkpt>
      <trkpt lat="46.074507" lon="6.086861">
        <ele>795.251873</ele>
        <time>2021-07-03T20:13:32.406Z</time>
      </trkpt>
      <trkpt lat="46.074346" lon="6.086859">
        <ele>795.816444</ele>
        <time>2021-07-03T20:13:39.276Z</time>
      </trkpt>
      <trkpt lat="46.074282" lon="6.086888">
        <ele>796.051689</ele>
        <time>2021-07-03T20:13:42.105Z</time>
      </trkpt>
      <trkpt lat="46.074224" lon="6.086924">
        <ele>796.273120</ele>
        <time>2021-07-03T20:13:45.751Z</time>
      </trkpt>
      <trkpt lat="46.074009" lon="6.087187">
        <ele>798.236699</ele>
        <time>2021-07-03T20:13:58.531Z</time>
      </trkpt>
      <trkpt lat="46.073785" lon="6.087224">
        <ele>800.501231</ele>
        <time>2021-07-03T20:14:10.346Z</time>
      </trkpt>
      <trkpt lat="46.073642" lon="6.087201">
        <ele>801.946406</ele>
        <time>2021-07-03T20:14:17.542Z</time>
      </trkpt>
      <trkpt lat="46.073522" lon="6.087183">
        <ele>803.158169</ele>
        <time>2021-07-03T20:14:24.532Z</time>
      </trkpt>
      <trkpt lat="46.073448" lon="6.087172">
        <ele>803.905352</ele>
        <time>2021-07-03T20:14:29.320Z</time>
      </trkpt>
      <trkpt lat="46.073277" lon="6.087132">
        <ele>805.645307</ele>
        <time>2021-07-03T20:14:39.274Z</time>
      </trkpt>
      <trkpt lat="46.073050" lon="6.087097">
        <ele>807.938254</ele>
        <time>2021-07-03T20:14:55.407Z</time>
      </trkpt>
      <trkpt lat="46.072108" lon="6.086952">
        <ele>818.027460</ele>
        <time>2021-07-03T20:16:04.089Z</time>
      </trkpt>
      <trkpt lat="46.071933" lon="6.086925">
        <ele>820.178295</ele>
        <time>2021-07-03T20:16:20.203Z</time>
      </trkpt>
      <trkpt lat="46.071664" lon="6.086877">
        <ele>823.490752</ele>
        <time>2021-07-03T20:16:38.410Z</time>
      </trkpt>
      <trkpt lat="46.071564" lon="6.086859">
        <ele>824.722311</ele>
        <time>2021-07-03T20:16:47.252Z</time>
      </trkpt>
      <trkpt lat="46.071047" lon="6.086669">
        <ele>831.242525</ele>
        <time>2021-07-03T20:17:22.490Z</time>
      </trkpt>
      <trkpt lat="46.070946" lon="6.086603">
        <ele>832.597731</ele>
        <time>2021-07-03T20:17:31.903Z</time>
      </trkpt>
      <trkpt lat="46.070891" lon="6.086546">
        <ele>833.425567</ele>
        <time>2021-07-03T20:17:37.297Z</time>
      </trkpt>
      <trkpt lat="46.070854" lon="6.086497">
        <ele>834.039604</ele>
        <time>2021-07-03T20:17:40.193Z</time>
      </trkpt>
      <trkpt lat="46.070804" lon="6.086408">
        <ele>835.010552</ele>
        <time>2021-07-03T20:17:44.968Z</time>
      </trkpt>
      <trkpt lat="46.070423" lon="6.085506">
        <ele>841.837732</ele>
        <time>2021-07-03T20:18:33.678Z</time>
      </trkpt>
      <trkpt lat="46.070091" lon="6.085012">
        <ele>845.941967</ele>
        <time>2021-07-03T20:19:01.427Z</time>
      </trkpt>
      <trkpt lat="46.069516" lon="6.084446">
        <ele>851.931003</ele>
        <time>2021-07-03T20:19:35.339Z</time>
      </trkpt>
      <trkpt lat="46.069007" lon="6.084152">
        <ele>854.538440</ele>
        <time>2021-07-03T20:19:59.946Z</time>
      </trkpt>
      <trkpt lat="46.068362" lon="6.083528">
        <ele>858.011475</ele>
        <time>2021-07-03T20:20:31.711Z</time>
      </trkpt>
      <trkpt lat="46.067714" lon="6.083119">
        <ele>860.539695</ele>
        <time>2021-07-03T20:20:56.072Z</time>
      </trkpt>
      <trkpt lat="46.067458" lon="6.083037">
        <ele>860.864090</ele>
        <time>2021-07-03T20:21:03.662Z</time>
      </trkpt>
      <trkpt lat="46.067194" lon="6.083171">
        <ele>861.210313</ele>
        <time>2021-07-03T20:21:11.408Z</time>
      </trkpt>
      <trkpt lat="46.066750" lon="6.083901">
        <ele>862.043482</ele>
        <time>2021-07-03T20:21:27.887Z</time>
      </trkpt>
      <trkpt lat="46.066626" lon="6.084249">
        <ele>862.379237</ele>
        <time>2021-07-03T20:21:34.413Z</time>
      </trkpt>
      <trkpt lat="46.066594" lon="6.084438">
        <ele>862.538992</ele>
        <time>2021-07-03T20:21:37.426Z</time>
      </trkpt>
      <trkpt lat="46.066575" lon="6.084589">
        <ele>862.631612</ele>
        <time>2021-07-03T20:21:39.585Z</time>
      </trkpt>
      <trkpt lat="46.066579" lon="6.085225">
        <ele>863.015475</ele>
        <time>2021-07-03T20:21:51.083Z</time>
      </trkpt>
      <trkpt lat="46.066613" lon="6.085598">
        <ele>863.242527</ele>
        <time>2021-07-03T20:21:57.584Z</time>
      </trkpt>
      <trkpt lat="46.066638" lon="6.085797">
        <ele>863.364583</ele>
        <time>2021-07-03T20:22:01.475Z</time>
      </trkpt>
      <trkpt lat="46.066753" lon="6.086274">
        <ele>863.669352</ele>
        <time>2021-07-03T20:22:10.547Z</time>
      </trkpt>
      <trkpt lat="46.067033" lon="6.086965">
        <ele>864.168903</ele>
        <time>2021-07-03T20:22:24.550Z</time>
      </trkpt>
      <trkpt lat="46.067035" lon="6.087003">
        <ele>864.197702</ele>
        <time>2021-07-03T20:22:25.947Z</time>
      </trkpt>
      <trkpt lat="46.067036" lon="6.087045">
        <ele>864.229460</ele>
        <time>2021-07-03T20:22:26.812Z</time>
      </trkpt>
      <trkpt lat="46.066821" lon="6.087735">
        <ele>864.801065</ele>
        <time>2021-07-03T20:22:41.958Z</time>
      </trkpt>
      <trkpt lat="46.066558" lon="6.088256">
        <ele>865.287969</ele>
        <time>2021-07-03T20:22:54.426Z</time>
      </trkpt>
      <trkpt lat="46.066384" lon="6.088427">
        <ele>865.517353</ele>
        <time>2021-07-03T20:23:00.501Z</time>
      </trkpt>
      <trkpt lat="46.066037" lon="6.088514">
        <ele>865.900979</ele>
        <time>2021-07-03T20:23:09.889Z</time>
      </trkpt>
      <trkpt lat="46.065855" lon="6.088537">
        <ele>865.984112</ele>
        <time>2021-07-03T20:23:13.793Z</time>
      </trkpt>
      <trkpt lat="46.065821" lon="6.088542">
        <ele>865.942091</ele>
        <time>2021-07-03T20:23:14.540Z</time>
      </trkpt>
      <trkpt lat="46.065096" lon="6.088618">
        <ele>865.048324</ele>
        <time>2021-07-03T20:23:29.352Z</time>
      </trkpt>
      <trkpt lat="46.065052" lon="6.088672">
        <ele>864.977268</ele>
        <time>2021-07-03T20:23:30.400Z</time>
      </trkpt>
      <trkpt lat="46.064959" lon="6.088603">
        <ele>864.848659</ele>
        <time>2021-07-03T20:23:32.148Z</time>
      </trkpt>
      <trkpt lat="46.064771" lon="6.088610">
        <ele>864.617430</ele>
        <time>2021-07-03T20:23:35.595Z</time>
      </trkpt>
      <trkpt lat="46.064588" lon="6.088652">
        <ele>864.389590</ele>
        <time>2021-07-03T20:23:38.724Z</time>
      </trkpt>
      <trkpt lat="46.064358" lon="6.088651">
        <ele>864.106796</ele>
        <time>2021-07-03T20:23:42.902Z</time>
      </trkpt>
      <trkpt lat="46.063665" lon="6.088559">
        <ele>862.593402</ele>
        <time>2021-07-03T20:23:54.833Z</time>
      </trkpt>
      <trkpt lat="46.063528" lon="6.088526">
        <ele>862.229927</ele>
        <time>2021-07-03T20:23:57.113Z</time>
      </trkpt>
      <trkpt lat="46.063243" lon="6.088457">
        <ele>861.473687</ele>
        <time>2021-07-03T20:24:02.028Z</time>
      </trkpt>
      <trkpt lat="46.062793" lon="6.088364">
        <ele>860.284078</ele>
        <time>2021-07-03T20:24:09.937Z</time>
      </trkpt>
      <trkpt lat="46.062675" lon="6.088395">
        <ele>859.970207</ele>
        <time>2021-07-03T20:24:12.143Z</time>
      </trkpt>
      <trkpt lat="46.062207" lon="6.088997">
        <ele>857.692471</ele>
        <time>2021-07-03T20:24:22.061Z</time>
      </trkpt>
      <trkpt lat="46.061997" lon="6.089106">
        <ele>856.643118</ele>
        <time>2021-07-03T20:24:25.611Z</time>
      </trkpt>
      <trkpt lat="46.061757" lon="6.089046">
        <ele>855.497955</ele>
        <time>2021-07-03T20:24:29.550Z</time>
      </trkpt>
      <trkpt lat="46.061568" lon="6.088803">
        <ele>854.307201</ele>
        <time>2021-07-03T20:24:33.438Z</time>
      </trkpt>
      <trkpt lat="46.061537" lon="6.088714">
        <ele>853.982342</ele>
        <time>2021-07-03T20:24:34.579Z</time>
      </trkpt>
      <trkpt lat="46.061428" lon="6.088357">
        <ele>852.709991</ele>
        <time>2021-07-03T20:24:38.583Z</time>
      </trkpt>
      <trkpt lat="46.061255" lon="6.088041">
        <ele>851.396924</ele>
        <time>2021-07-03T20:24:42.715Z</time>
      </trkpt>
      <trkpt lat="46.061032" lon="6.087963">
        <ele>850.139007</ele>
        <time>2021-07-03T20:24:46.067Z</time>
      </trkpt>
      <trkpt lat="46.060478" lon="6.088142">
        <ele>846.116773</ele>
        <time>2021-07-03T20:24:54.137Z</time>
      </trkpt>
      <trkpt lat="46.059640" lon="6.088189">
        <ele>840.175484</ele>
        <time>2021-07-03T20:25:06.013Z</time>
      </trkpt>
      <trkpt lat="46.058421" lon="6.088633">
        <ele>831.514573</ele>
        <time>2021-07-03T20:25:24.008Z</time>
      </trkpt>
      <trkpt lat="46.058251" lon="6.088746">
        <ele>830.237376</ele>
        <time>2021-07-03T20:25:26.715Z</time>
      </trkpt>
      <trkpt lat="46.057971" lon="6.089125">
        <ele>827.616668</ele>
        <time>2021-07-03T20:25:32.302Z</time>
      </trkpt>
      <trkpt lat="46.057810" lon="6.089213">
        <ele>826.441947</ele>
        <time>2021-07-03T20:25:34.800Z</time>
      </trkpt>
      <trkpt lat="46.057625" lon="6.089181">
        <ele>825.199146</ele>
        <time>2021-07-03T20:25:37.479Z</time>
      </trkpt>
      <trkpt lat="46.057169" lon="6.088808">
        <ele>821.830081</ele>
        <time>2021-07-03T20:25:44.990Z</time>
      </trkpt>
      <trkpt lat="46.056981" lon="6.088740">
        <ele>820.584648</ele>
        <time>2021-07-03T20:25:47.763Z</time>
      </trkpt>
      <trkpt lat="46.056730" lon="6.088883">
        <ele>818.850422</ele>
        <time>2021-07-03T20:25:51.657Z</time>
      </trkpt>
      <trkpt lat="46.056038" lon="6.089535">
        <ele>813.741256</ele>
        <time>2021-07-03T20:26:03.731Z</time>
      </trkpt>
      <trkpt lat="46.055851" lon="6.089529">
        <ele>812.972948</ele>
        <time>2021-07-03T20:26:06.423Z</time>
      </trkpt>
      <trkpt lat="46.055233" lon="6.089326">
        <ele>810.369349</ele>
        <time>2021-07-03T20:26:16.538Z</time>
      </trkpt>
      <trkpt lat="46.055017" lon="6.089343">
        <ele>809.480790</ele>
        <time>2021-07-03T20:26:20.433Z</time>
      </trkpt>
      <trkpt lat="46.054782" lon="6.089423">
        <ele>808.488938</ele>
        <time>2021-07-03T20:26:24.254Z</time>
      </trkpt>
      <trkpt lat="46.054666" lon="6.089499">
        <ele>807.965521</ele>
        <time>2021-07-03T20:26:26.658Z</time>
      </trkpt>
      <trkpt lat="46.054199" lon="6.089825">
        <ele>805.179043</ele>
        <time>2021-07-03T20:26:34.722Z</time>
      </trkpt>
      <trkpt lat="46.053916" lon="6.089815">
        <ele>803.150086</ele>
        <time>2021-07-03T20:26:39.001Z</time>
      </trkpt>
      <trkpt lat="46.053773" lon="6.089782">
        <ele>802.112100</ele>
        <time>2021-07-03T20:26:41.135Z</time>
      </trkpt>
      <trkpt lat="46.053363" lon="6.089689">
        <ele>799.137318</ele>
        <time>2021-07-03T20:26:47.161Z</time>
      </trkpt>
      <trkpt lat="46.052142" lon="6.089267">
        <ele>787.568211</ele>
        <time>2021-07-03T20:27:04.305Z</time>
      </trkpt>
      <trkpt lat="46.050983" lon="6.089178">
        <ele>773.447354</ele>
        <time>2021-07-03T20:27:19.547Z</time>
      </trkpt>
      <trkpt lat="46.050772" lon="6.089106">
        <ele>770.877220</ele>
        <time>2021-07-03T20:27:22.388Z</time>
      </trkpt>
      <trkpt lat="46.050672" lon="6.088983">
        <ele>769.373837</ele>
        <time>2021-07-03T20:27:24.163Z</time>
      </trkpt>
      <trkpt lat="46.050644" lon="6.088920">
        <ele>768.780165</ele>
        <time>2021-07-03T20:27:24.821Z</time>
      </trkpt>
      <trkpt lat="46.050604" lon="6.088960">
        <ele>768.223436</ele>
        <time>2021-07-03T20:27:25.505Z</time>
      </trkpt>
      <trkpt lat="46.050455" lon="6.089137">
        <ele>766.015373</ele>
        <time>2021-07-03T20:27:28.266Z</time>
      </trkpt>
      <trkpt lat="46.050419" lon="6.089145">
        <ele>765.598872</ele>
        <time>2021-07-03T20:27:28.798Z</time>
      </trkpt>
      <trkpt lat="46.050137" lon="6.089209">
        <ele>762.334656</ele>
        <time>2021-07-03T20:27:32.729Z</time>
      </trkpt>
      <trkpt lat="46.049647" lon="6.089207">
        <ele>756.731843</ele>
        <time>2021-07-03T20:27:39.614Z</time>
      </trkpt>
      <trkpt lat="46.049413" lon="6.089158">
        <ele>754.028116</ele>
        <time>2021-07-03T20:27:42.991Z</time>
      </trkpt>
      <trkpt lat="46.049360" lon="6.089147">
        <ele>753.415845</ele>
        <time>2021-07-03T20:27:43.840Z</time>
      </trkpt>
      <trkpt lat="46.049239" lon="6.089127">
        <ele>752.023224</ele>
        <time>2021-07-03T20:27:45.476Z</time>
      </trkpt>
      <trkpt lat="46.048697" lon="6.089182">
        <ele>747.791537</ele>
        <time>2021-07-03T20:27:53.553Z</time>
      </trkpt>
      <trkpt lat="46.048129" lon="6.089392">
        <ele>743.474516</ele>
        <time>2021-07-03T20:28:02.088Z</time>
      </trkpt>
      <trkpt lat="46.047978" lon="6.089594">
        <ele>741.957597</ele>
        <time>2021-07-03T20:28:05.142Z</time>
      </trkpt>
      <trkpt lat="46.047781" lon="6.090228">
        <ele>738.408306</ele>
        <time>2021-07-03T20:28:12.716Z</time>
      </trkpt>
      <trkpt lat="46.047671" lon="6.090382">
        <ele>737.858928</ele>
        <time>2021-07-03T20:28:15.363Z</time>
      </trkpt>
      <trkpt lat="46.047631" lon="6.090409">
        <ele>737.754967</ele>
        <time>2021-07-03T20:28:16.058Z</time>
      </trkpt>
      <trkpt lat="46.047600" lon="6.090410">
        <ele>737.681990</ele>
        <time>2021-07-03T20:28:16.498Z</time>
      </trkpt>
      <trkpt lat="46.047577" lon="6.090403">
        <ele>737.626664</ele>
        <time>2021-07-03T20:28:16.867Z</time>
      </trkpt>
      <trkpt lat="46.047453" lon="6.090352">
        <ele>737.323170</ele>
        <time>2021-07-03T20:28:19.191Z</time>
      </trkpt>
      <trkpt lat="46.047461" lon="6.090306">
        <ele>737.245706</ele>
        <time>2021-07-03T20:28:19.684Z</time>
      </trkpt>
      <trkpt lat="46.047432" lon="6.090128">
        <ele>736.947041</ele>
        <time>2021-07-03T20:28:21.849Z</time>
      </trkpt>
      <trkpt lat="46.047411" lon="6.090093">
        <ele>736.871467</ele>
        <time>2021-07-03T20:28:22.307Z</time>
      </trkpt>
      <trkpt lat="46.047380" lon="6.090059">
        <ele>736.779774</ele>
        <time>2021-07-03T20:28:22.863Z</time>
      </trkpt>
      <trkpt lat="46.047198" lon="6.090068">
        <ele>736.351180</ele>
        <time>2021-07-03T20:28:26.077Z</time>
      </trkpt>
      <trkpt lat="46.047169" lon="6.090105">
        <ele>736.260014</ele>
        <time>2021-07-03T20:28:26.663Z</time>
      </trkpt>
      <trkpt lat="46.047148" lon="6.090145">
        <ele>736.178087</ele>
        <time>2021-07-03T20:28:27.734Z</time>
      </trkpt>
      <trkpt lat="46.047125" lon="6.090286">
        <ele>735.941488</ele>
        <time>2021-07-03T20:28:29.254Z</time>
      </trkpt>
      <trkpt lat="46.047163" lon="6.090422">
        <ele>735.702005</ele>
        <time>2021-07-03T20:28:31.079Z</time>
      </trkpt>
      <trkpt lat="46.047187" lon="6.090457">
        <ele>735.621636</ele>
        <time>2021-07-03T20:28:32.057Z</time>
      </trkpt>
      <trkpt lat="46.046971" lon="6.090821">
        <ele>734.839348</ele>
        <time>2021-07-03T20:28:37.897Z</time>
      </trkpt>
      <trkpt lat="46.046710" lon="6.091278">
        <ele>733.919168</ele>
        <time>2021-07-03T20:28:46.063Z</time>
      </trkpt>
      <trkpt lat="46.046206" lon="6.092100">
        <ele>735.383946</ele>
        <time>2021-07-03T20:29:07.751Z</time>
      </trkpt>
      <trkpt lat="46.043538" lon="6.096352">
        <ele>742.483530</ele>
        <time>2021-07-03T20:31:12.182Z</time>
      </trkpt>
      <trkpt lat="46.043170" lon="6.096921">
        <ele>743.262183</ele>
        <time>2021-07-03T20:31:23.653Z</time>
      </trkpt>
      <trkpt lat="46.043040" lon="6.096902">
        <ele>743.422974</ele>
        <time>2021-07-03T20:31:26.402Z</time>
      </trkpt>
      <trkpt lat="46.042954" lon="6.096867">
        <ele>743.453680</ele>
        <time>2021-07-03T20:31:28.987Z</time>
      </trkpt>
      <trkpt lat="46.042873" lon="6.096812">
        <ele>743.484448</ele>
        <time>2021-07-03T20:31:30.786Z</time>
      </trkpt>
      <trkpt lat="46.042914" lon="6.096568">
        <ele>743.544323</ele>
        <time>2021-07-03T20:31:35.636Z</time>
      </trkpt>
      <trkpt lat="46.042947" lon="6.096355">
        <ele>743.596374</ele>
        <time>2021-07-03T20:31:39.010Z</time>
      </trkpt>
      <trkpt lat="46.042734" lon="6.096530">
        <ele>743.680626</ele>
        <time>2021-07-03T20:31:45.260Z</time>
      </trkpt>
      <trkpt lat="46.042597" lon="6.096694">
        <ele>743.741830</ele>
        <time>2021-07-03T20:31:48.972Z</time>
      </trkpt>
      <trkpt lat="46.042482" lon="6.097195">
        <ele>743.867683</ele>
        <time>2021-07-03T20:31:56.694Z</time>
      </trkpt>
      <trkpt lat="46.042357" lon="6.097368">
        <ele>743.927242</ele>
        <time>2021-07-03T20:32:00.321Z</time>
      </trkpt>
      <trkpt lat="46.042118" lon="6.097549">
        <ele>744.020018</ele>
        <time>2021-07-03T20:32:06.898Z</time>
      </trkpt>
      <trkpt lat="46.042049" lon="6.097601">
        <ele>744.057361</ele>
        <time>2021-07-03T20:32:08.923Z</time>
      </trkpt>
      <trkpt lat="46.041758" lon="6.097784">
        <ele>744.246440</ele>
        <time>2021-07-03T20:32:18.506Z</time>
      </trkpt>
      <trkpt lat="46.041651" lon="6.097832">
        <ele>744.313176</ele>
        <time>2021-07-03T20:32:21.907Z</time>
      </trkpt>
      <trkpt lat="46.041470" lon="6.097905">
        <ele>744.425105</ele>
        <time>2021-07-03T20:32:27.370Z</time>
      </trkpt>
      <trkpt lat="46.041394" lon="6.097927">
        <ele>744.471267</ele>
        <time>2021-07-03T20:32:29.257Z</time>
      </trkpt>
      <trkpt lat="46.041213" lon="6.097985">
        <ele>744.581686</ele>
        <time>2021-07-03T20:32:34.319Z</time>
      </trkpt>
      <trkpt lat="46.040981" lon="6.098161">
        <ele>744.737825</ele>
        <time>2021-07-03T20:32:40.894Z</time>
      </trkpt>
      <trkpt lat="46.040828" lon="6.098406">
        <ele>744.874050</ele>
        <time>2021-07-03T20:32:46.611Z</time>
      </trkpt>
      <trkpt lat="46.040698" lon="6.098832">
        <ele>745.066408</ele>
        <time>2021-07-03T20:32:52.982Z</time>
      </trkpt>
      <trkpt lat="46.040267" lon="6.099631">
        <ele>745.253912</ele>
        <time>2021-07-03T20:33:07.009Z</time>
      </trkpt>
      <trkpt lat="46.040144" lon="6.099778">
        <ele>745.291477</ele>
        <time>2021-07-03T20:33:10.490Z</time>
      </trkpt>
      <trkpt lat="46.040084" lon="6.099920">
        <ele>745.318602</ele>
        <time>2021-07-03T20:33:12.949Z</time>
      </trkpt>
      <trkpt lat="46.039453" lon="6.100843">
        <ele>745.592931</ele>
        <time>2021-07-03T20:33:35.023Z</time>
      </trkpt>
      <trkpt lat="46.039077" lon="6.101386">
        <ele>747.802186</ele>
        <time>2021-07-03T20:33:50.934Z</time>
      </trkpt>
      <trkpt lat="46.038661" lon="6.102024">
        <ele>750.323549</ele>
        <time>2021-07-03T20:34:12.483Z</time>
      </trkpt>
      <trkpt lat="46.037942" lon="6.103063">
        <ele>756.137145</ele>
        <time>2021-07-03T20:35:04.026Z</time>
      </trkpt>
      <trkpt lat="46.037876" lon="6.103253">
        <ele>757.372103</ele>
        <time>2021-07-03T20:35:12.700Z</time>
      </trkpt>
      <trkpt lat="46.037777" lon="6.104247">
        <ele>763.209053</ele>
        <time>2021-07-03T20:35:54.441Z</time>
      </trkpt>
      <trkpt lat="46.037713" lon="6.104575">
        <ele>765.189492</ele>
        <time>2021-07-03T20:36:08.417Z</time>
      </trkpt>
      <trkpt lat="46.037736" lon="6.104631">
        <ele>765.567707</ele>
        <time>2021-07-03T20:36:12.127Z</time>
      </trkpt>
      <trkpt lat="46.037658" lon="6.105033">
        <ele>767.993963</ele>
        <time>2021-07-03T20:36:27.691Z</time>
      </trkpt>
      <trkpt lat="46.037492" lon="6.105406">
        <ele>769.576530</ele>
        <time>2021-07-03T20:36:44.684Z</time>
      </trkpt>
      <trkpt lat="46.036708" lon="6.106735">
        <ele>775.718218</ele>
        <time>2021-07-03T20:37:38.681Z</time>
      </trkpt>
      <trkpt lat="46.036062" lon="6.107487">
        <ele>777.478020</ele>
        <time>2021-07-03T20:37:57.736Z</time>
      </trkpt>
      <trkpt lat="46.035982" lon="6.107694">
        <ele>777.569810</ele>
        <time>2021-07-03T20:38:01.691Z</time>
      </trkpt>
      <trkpt lat="46.036002" lon="6.107824">
        <ele>777.621399</ele>
        <time>2021-07-03T20:38:03.973Z</time>
      </trkpt>
      <trkpt lat="46.036056" lon="6.107919">
        <ele>777.668970</ele>
        <time>2021-07-03T20:38:05.449Z</time>
      </trkpt>
      <trkpt lat="46.035302" lon="6.108651">
        <ele>778.176426</ele>
        <time>2021-07-03T20:38:26.207Z</time>
      </trkpt>
      <trkpt lat="46.035181" lon="6.108771">
        <ele>778.507867</ele>
        <time>2021-07-03T20:38:29.796Z</time>
      </trkpt>
      <trkpt lat="46.035157" lon="6.108746">
        <ele>778.576024</ele>
        <time>2021-07-03T20:38:30.409Z</time>
      </trkpt>
      <trkpt lat="46.035127" lon="6.108735">
        <ele>778.647263</ele>
        <time>2021-07-03T20:38:31.274Z</time>
      </trkpt>
      <trkpt lat="46.035085" lon="6.108745">
        <ele>778.745227</ele>
        <time>2021-07-03T20:38:32.557Z</time>
      </trkpt>
      <trkpt lat="46.035060" lon="6.108769">
        <ele>778.814364</ele>
        <time>2021-07-03T20:38:33.424Z</time>
      </trkpt>
      <trkpt lat="46.035038" lon="6.108818">
        <ele>778.907590</ele>
        <time>2021-07-03T20:38:34.642Z</time>
      </trkpt>
      <trkpt lat="46.034944" lon="6.108770">
        <ele>779.137097</ele>
        <time>2021-07-03T20:38:37.814Z</time>
      </trkpt>
      <trkpt lat="46.034830" lon="6.108714">
        <ele>779.414274</ele>
        <time>2021-07-03T20:38:40.564Z</time>
      </trkpt>
      <trkpt lat="46.034498" lon="6.108359">
        <ele>780.365782</ele>
        <time>2021-07-03T20:38:54.326Z</time>
      </trkpt>
      <trkpt lat="46.034140" lon="6.107976">
        <ele>781.391997</ele>
        <time>2021-07-03T20:39:09.872Z</time>
      </trkpt>
      <trkpt lat="46.033856" lon="6.107672">
        <ele>782.206250</ele>
        <time>2021-07-03T20:39:22.534Z</time>
      </trkpt>
      <trkpt lat="46.033777" lon="6.107584">
        <ele>782.380099</ele>
        <time>2021-07-03T20:39:26.178Z</time>
      </trkpt>
      <trkpt lat="46.033499" lon="6.107292">
        <ele>782.797581</ele>
        <time>2021-07-03T20:39:38.004Z</time>
      </trkpt>
      <trkpt lat="46.033434" lon="6.107223">
        <ele>782.895555</ele>
        <time>2021-07-03T20:39:41.117Z</time>
      </trkpt>
      <trkpt lat="46.033176" lon="6.107007">
        <ele>783.257649</ele>
        <time>2021-07-03T20:39:50.599Z</time>
      </trkpt>
      <trkpt lat="46.032841" lon="6.106771">
        <ele>783.710148</ele>
        <time>2021-07-03T20:40:01.871Z</time>
      </trkpt>
      <trkpt lat="46.032726" lon="6.106689">
        <ele>783.865850</ele>
        <time>2021-07-03T20:40:05.745Z</time>
      </trkpt>
      <trkpt lat="46.032655" lon="6.106639">
        <ele>783.961746</ele>
        <time>2021-07-03T20:40:07.380Z</time>
      </trkpt>
      <trkpt lat="46.031969" lon="6.106153">
        <ele>783.248054</ele>
        <time>2021-07-03T20:40:21.317Z</time>
      </trkpt>
      <trkpt lat="46.031402" lon="6.105752">
        <ele>780.782543</ele>
        <time>2021-07-03T20:40:31.081Z</time>
      </trkpt>
      <trkpt lat="46.031147" lon="6.105571">
        <ele>779.672928</ele>
        <time>2021-07-03T20:40:35.317Z</time>
      </trkpt>
      <trkpt lat="46.030954" lon="6.105480">
        <ele>778.880271</ele>
        <time>2021-07-03T20:40:38.500Z</time>
      </trkpt>
      <trkpt lat="46.030873" lon="6.105436">
        <ele>778.542373</ele>
        <time>2021-07-03T20:40:39.726Z</time>
      </trkpt>
      <trkpt lat="46.030760" lon="6.105452">
        <ele>778.099183</ele>
        <time>2021-07-03T20:40:41.381Z</time>
      </trkpt>
      <trkpt lat="46.028522" lon="6.105567">
        <ele>769.923372</ele>
        <time>2021-07-03T20:41:16.039Z</time>
      </trkpt>
      <trkpt lat="46.028463" lon="6.105567">
        <ele>769.898276</ele>
        <time>2021-07-03T20:41:17.848Z</time>
      </trkpt>
      <trkpt lat="46.028120" lon="6.105432">
        <ele>769.747032</ele>
        <time>2021-07-03T20:41:26.108Z</time>
      </trkpt>
      <trkpt lat="46.027815" lon="6.105107">
        <ele>769.585655</ele>
        <time>2021-07-03T20:41:35.898Z</time>
      </trkpt>
      <trkpt lat="46.027740" lon="6.104982">
        <ele>769.536865</ele>
        <time>2021-07-03T20:41:39.246Z</time>
      </trkpt>
      <trkpt lat="46.027711" lon="6.104919">
        <ele>769.514542</ele>
        <time>2021-07-03T20:41:40.347Z</time>
      </trkpt>
      <trkpt lat="46.027667" lon="6.104815">
        <ele>769.478575</ele>
        <time>2021-07-03T20:41:42.086Z</time>
      </trkpt>
      <trkpt lat="46.027507" lon="6.104950">
        <ele>769.399701</ele>
        <time>2021-07-03T20:41:47.829Z</time>
      </trkpt>
      <trkpt lat="46.027480" lon="6.104966">
        <ele>769.387282</ele>
        <time>2021-07-03T20:41:49.048Z</time>
      </trkpt>
      <trkpt lat="46.027388" lon="6.104970">
        <ele>769.348132</ele>
        <time>2021-07-03T20:41:50.987Z</time>
      </trkpt>
      <trkpt lat="46.027297" lon="6.104883">
        <ele>769.301674</ele>
        <time>2021-07-03T20:41:53.664Z</time>
      </trkpt>
      <trkpt lat="46.027269" lon="6.104829">
        <ele>769.281770</ele>
        <time>2021-07-03T20:41:55.376Z</time>
      </trkpt>
      <trkpt lat="46.027263" lon="6.104800">
        <ele>769.251370</ele>
        <time>2021-07-03T20:41:55.857Z</time>
      </trkpt>
      <trkpt lat="46.027255" lon="6.104765">
        <ele>769.197680</ele>
        <time>2021-07-03T20:41:56.456Z</time>
      </trkpt>
      <trkpt lat="46.027243" lon="6.104689">
        <ele>769.084116</ele>
        <time>2021-07-03T20:41:58.054Z</time>
      </trkpt>
      <trkpt lat="46.027239" lon="6.104657">
        <ele>769.036740</ele>
        <time>2021-07-03T20:41:58.469Z</time>
      </trkpt>
      <trkpt lat="46.027215" lon="6.103924">
        <ele>767.967522</ele>
        <time>2021-07-03T20:42:09.886Z</time>
      </trkpt>
      <trkpt lat="46.027073" lon="6.103367">
        <ele>767.102955</ele>
        <time>2021-07-03T20:42:17.743Z</time>
      </trkpt>
      <trkpt lat="46.027054" lon="6.103326">
        <ele>767.031131</ele>
        <time>2021-07-03T20:42:18.611Z</time>
      </trkpt>
      <trkpt lat="46.026961" lon="6.103131">
        <ele>766.686429</ele>
        <time>2021-07-03T20:42:21.433Z</time>
      </trkpt>
      <trkpt lat="46.026839" lon="6.102980">
        <ele>766.348853</ele>
        <time>2021-07-03T20:42:24.107Z</time>
      </trkpt>
      <trkpt lat="46.026681" lon="6.102834">
        <ele>765.954904</ele>
        <time>2021-07-03T20:42:27.084Z</time>
      </trkpt>
      <trkpt lat="46.026463" lon="6.102630">
        <ele>765.244403</ele>
        <time>2021-07-03T20:42:31.226Z</time>
      </trkpt>
      <trkpt lat="46.026179" lon="6.102358">
        <ele>763.278031</ele>
        <time>2021-07-03T20:42:36.594Z</time>
      </trkpt>
      <trkpt lat="46.026124" lon="6.102322">
        <ele>762.929721</ele>
        <time>2021-07-03T20:42:37.504Z</time>
      </trkpt>
      <trkpt lat="46.026057" lon="6.102276">
        <ele>762.501790</ele>
        <time>2021-07-03T20:42:38.691Z</time>
      </trkpt>
      <trkpt lat="46.026007" lon="6.102265">
        <ele>762.210174</ele>
        <time>2021-07-03T20:42:39.457Z</time>
      </trkpt>
      <trkpt lat="46.025975" lon="6.102257">
        <ele>762.022921</ele>
        <time>2021-07-03T20:42:39.942Z</time>
      </trkpt>
      <trkpt lat="46.025776" lon="6.102348">
        <ele>760.819154</ele>
        <time>2021-07-03T20:42:43.208Z</time>
      </trkpt>
      <trkpt lat="46.025136" lon="6.103012">
        <ele>756.271543</ele>
        <time>2021-07-03T20:42:55.345Z</time>
      </trkpt>
      <trkpt lat="46.024920" lon="6.103152">
        <ele>754.891105</ele>
        <time>2021-07-03T20:42:58.883Z</time>
      </trkpt>
      <trkpt lat="46.024481" lon="6.103291">
        <ele>752.131280</ele>
        <time>2021-07-03T20:43:05.760Z</time>
      </trkpt>
      <trkpt lat="46.024324" lon="6.103270">
        <ele>751.163154</ele>
        <time>2021-07-03T20:43:08.098Z</time>
      </trkpt>
      <trkpt lat="46.024153" lon="6.103131">
        <ele>749.957524</ele>
        <time>2021-07-03T20:43:11.296Z</time>
      </trkpt>
      <trkpt lat="46.024042" lon="6.102994">
        <ele>749.059950</ele>
        <time>2021-07-03T20:43:13.450Z</time>
      </trkpt>
      <trkpt lat="46.023944" lon="6.102873">
        <ele>748.267371</ele>
        <time>2021-07-03T20:43:15.581Z</time>
      </trkpt>
      <trkpt lat="46.023916" lon="6.102837">
        <ele>748.036909</ele>
        <time>2021-07-03T20:43:16.181Z</time>
      </trkpt>
      <trkpt lat="46.023766" lon="6.102648">
        <ele>746.813183</ele>
        <time>2021-07-03T20:43:19.151Z</time>
      </trkpt>
      <trkpt lat="46.023594" lon="6.102540">
        <ele>745.661095</ele>
        <time>2021-07-03T20:43:22.173Z</time>
      </trkpt>
      <trkpt lat="46.023393" lon="6.102540">
        <ele>744.426958</ele>
        <time>2021-07-03T20:43:25.178Z</time>
      </trkpt>
      <trkpt lat="46.023050" lon="6.102691">
        <ele>742.372950</ele>
        <time>2021-07-03T20:43:30.689Z</time>
      </trkpt>
      <trkpt lat="46.022835" lon="6.102884">
        <ele>740.940995</ele>
        <time>2021-07-03T20:43:34.580Z</time>
      </trkpt>
      <trkpt lat="46.022566" lon="6.103291">
        <ele>738.735716</ele>
        <time>2021-07-03T20:43:40.536Z</time>
      </trkpt>
      <trkpt lat="46.022335" lon="6.103796">
        <ele>736.362326</ele>
        <time>2021-07-03T20:43:47.233Z</time>
      </trkpt>
      <trkpt lat="46.022201" lon="6.103903">
        <ele>735.496304</ele>
        <time>2021-07-03T20:43:49.679Z</time>
      </trkpt>
      <trkpt lat="46.021940" lon="6.103957">
        <ele>734.005945</ele>
        <time>2021-07-03T20:43:53.855Z</time>
      </trkpt>
      <trkpt lat="46.021859" lon="6.103965">
        <ele>733.563800</ele>
        <time>2021-07-03T20:43:55.117Z</time>
      </trkpt>
      <trkpt lat="46.021389" lon="6.104010">
        <ele>731.019794</ele>
        <time>2021-07-03T20:44:02.497Z</time>
      </trkpt>
      <trkpt lat="46.020987" lon="6.104032">
        <ele>728.847083</ele>
        <time>2021-07-03T20:44:08.883Z</time>
      </trkpt>
      <trkpt lat="46.020917" lon="6.104030">
        <ele>728.468949</ele>
        <time>2021-07-03T20:44:09.949Z</time>
      </trkpt>
      <trkpt lat="46.020458" lon="6.104031">
        <ele>725.989954</ele>
        <time>2021-07-03T20:44:17.153Z</time>
      </trkpt>
      <trkpt lat="46.020261" lon="6.104029">
        <ele>724.925959</ele>
        <time>2021-07-03T20:44:20.158Z</time>
      </trkpt>
      <trkpt lat="46.020105" lon="6.104082">
        <ele>724.029344</ele>
        <time>2021-07-03T20:44:22.687Z</time>
      </trkpt>
      <trkpt lat="46.019430" lon="6.104558">
        <ele>719.129098</ele>
        <time>2021-07-03T20:44:34.181Z</time>
      </trkpt>
      <trkpt lat="46.019375" lon="6.104566">
        <ele>718.768681</ele>
        <time>2021-07-03T20:44:34.989Z</time>
      </trkpt>
      <trkpt lat="46.019236" lon="6.104590">
        <ele>717.855927</ele>
        <time>2021-07-03T20:44:37.176Z</time>
      </trkpt>
      <trkpt lat="46.018793" lon="6.104809">
        <ele>714.802170</ele>
        <time>2021-07-03T20:44:44.257Z</time>
      </trkpt>
      <trkpt lat="46.018622" lon="6.104855">
        <ele>713.667985</ele>
        <time>2021-07-03T20:44:46.941Z</time>
      </trkpt>
      <trkpt lat="46.018545" lon="6.104861">
        <ele>713.165220</ele>
        <time>2021-07-03T20:44:48.086Z</time>
      </trkpt>
      <trkpt lat="46.018461" lon="6.104895">
        <ele>712.596328</ele>
        <time>2021-07-03T20:44:49.366Z</time>
      </trkpt>
      <trkpt lat="46.018230" lon="6.105030">
        <ele>710.142508</ele>
        <time>2021-07-03T20:44:53.167Z</time>
      </trkpt>
      <trkpt lat="46.017753" lon="6.105555">
        <ele>704.083235</ele>
        <time>2021-07-03T20:45:01.793Z</time>
      </trkpt>
      <trkpt lat="46.017706" lon="6.105624">
        <ele>703.405834</ele>
        <time>2021-07-03T20:45:02.742Z</time>
      </trkpt>
      <trkpt lat="46.017552" lon="6.105845">
        <ele>701.211564</ele>
        <time>2021-07-03T20:45:05.787Z</time>
      </trkpt>
      <trkpt lat="46.017301" lon="6.106107">
        <ele>698.082805</ele>
        <time>2021-07-03T20:45:10.122Z</time>
      </trkpt>
      <trkpt lat="46.017043" lon="6.106168">
        <ele>695.444063</ele>
        <time>2021-07-03T20:45:13.796Z</time>
      </trkpt>
      <trkpt lat="46.016868" lon="6.106110">
        <ele>693.697339</ele>
        <time>2021-07-03T20:45:16.245Z</time>
      </trkpt>
      <trkpt lat="46.016595" lon="6.106025">
        <ele>691.143465</ele>
        <time>2021-07-03T20:45:20.194Z</time>
      </trkpt>
      <trkpt lat="46.016198" lon="6.105981">
        <ele>687.502738</ele>
        <time>2021-07-03T20:45:25.711Z</time>
      </trkpt>
      <trkpt lat="46.016038" lon="6.106093">
        <ele>685.876069</ele>
        <time>2021-07-03T20:45:28.409Z</time>
      </trkpt>
      <trkpt lat="46.015965" lon="6.106236">
        <ele>684.749112</ele>
        <time>2021-07-03T20:45:30.264Z</time>
      </trkpt>
      <trkpt lat="46.015937" lon="6.106318">
        <ele>684.168889</ele>
        <time>2021-07-03T20:45:31.103Z</time>
      </trkpt>
      <trkpt lat="46.015485" lon="6.107973">
        <ele>675.651829</ele>
        <time>2021-07-03T20:45:50.122Z</time>
      </trkpt>
      <trkpt lat="46.015375" lon="6.108607">
        <ele>673.802183</ele>
        <time>2021-07-03T20:45:57.928Z</time>
      </trkpt>
      <trkpt lat="46.015243" lon="6.109767">
        <ele>670.464932</ele>
        <time>2021-07-03T20:46:12.529Z</time>
      </trkpt>
      <trkpt lat="46.015135" lon="6.110712">
        <ele>667.401148</ele>
        <time>2021-07-03T20:46:23.303Z</time>
      </trkpt>
      <trkpt lat="46.015055" lon="6.111007">
        <ele>666.388019</ele>
        <time>2021-07-03T20:46:27.129Z</time>
      </trkpt>
      <trkpt lat="46.015039" lon="6.111033">
        <ele>666.276886</ele>
        <time>2021-07-03T20:46:27.448Z</time>
      </trkpt>
      <trkpt lat="46.015017" lon="6.111070">
        <ele>666.121063</ele>
        <time>2021-07-03T20:46:27.971Z</time>
      </trkpt>
      <trkpt lat="46.014781" lon="6.111215">
        <ele>664.939099</ele>
        <time>2021-07-03T20:46:32.452Z</time>
      </trkpt>
      <trkpt lat="46.014751" lon="6.111236">
        <ele>664.785440</ele>
        <time>2021-07-03T20:46:32.955Z</time>
      </trkpt>
      <trkpt lat="46.014730" lon="6.111266">
        <ele>664.649173</ele>
        <time>2021-07-03T20:46:33.344Z</time>
      </trkpt>
      <trkpt lat="46.014832" lon="6.111750">
        <ele>663.031089</ele>
        <time>2021-07-03T20:46:38.965Z</time>
      </trkpt>
      <trkpt lat="46.015165" lon="6.112130">
        <ele>660.481309</ele>
        <time>2021-07-03T20:46:45.609Z</time>
      </trkpt>
      <trkpt lat="46.015172" lon="6.112195">
        <ele>660.166449</ele>
        <time>2021-07-03T20:46:46.295Z</time>
      </trkpt>
      <trkpt lat="46.014882" lon="6.112020">
        <ele>657.999118</ele>
        <time>2021-07-03T20:46:50.759Z</time>
      </trkpt>
      <trkpt lat="46.014490" lon="6.111886">
        <ele>655.222065</ele>
        <time>2021-07-03T20:46:56.535Z</time>
      </trkpt>
      <trkpt lat="46.014075" lon="6.111913">
        <ele>652.358655</ele>
        <time>2021-07-03T20:47:02.201Z</time>
      </trkpt>
      <trkpt lat="46.013921" lon="6.111747">
        <ele>651.032692</ele>
        <time>2021-07-03T20:47:04.931Z</time>
      </trkpt>
      <trkpt lat="46.013870" lon="6.111593">
        <ele>650.215983</ele>
        <time>2021-07-03T20:47:06.810Z</time>
      </trkpt>
      <trkpt lat="46.013797" lon="6.111656">
        <ele>649.914945</ele>
        <time>2021-07-03T20:47:07.905Z</time>
      </trkpt>
      <trkpt lat="46.013509" lon="6.111846">
        <ele>650.321870</ele>
        <time>2021-07-03T20:47:13.131Z</time>
      </trkpt>
      <trkpt lat="46.013192" lon="6.111966">
        <ele>650.742903</ele>
        <time>2021-07-03T20:47:18.956Z</time>
      </trkpt>
      <trkpt lat="46.013049" lon="6.112006">
        <ele>650.930025</ele>
        <time>2021-07-03T20:47:20.973Z</time>
      </trkpt>
      <trkpt lat="46.012742" lon="6.112040">
        <ele>651.325540</ele>
        <time>2021-07-03T20:47:26.966Z</time>
      </trkpt>
      <trkpt lat="46.010759" lon="6.112128">
        <ele>665.666435</ele>
        <time>2021-07-03T20:49:32.294Z</time>
      </trkpt>
      <trkpt lat="46.010533" lon="6.112201">
        <ele>668.035717</ele>
        <time>2021-07-03T20:49:50.807Z</time>
      </trkpt>
      <trkpt lat="46.010313" lon="6.112297">
        <ele>670.387244</ele>
        <time>2021-07-03T20:50:05.524Z</time>
      </trkpt>
      <trkpt lat="46.010215" lon="6.112386">
        <ele>670.775078</ele>
        <time>2021-07-03T20:50:13.929Z</time>
      </trkpt>
      <trkpt lat="46.010030" lon="6.112575">
        <ele>671.232382</ele>
        <time>2021-07-03T20:50:25.570Z</time>
      </trkpt>
      <trkpt lat="46.009911" lon="6.112756">
        <ele>671.581353</ele>
        <time>2021-07-03T20:50:35.062Z</time>
      </trkpt>
      <trkpt lat="46.009744" lon="6.113120">
        <ele>672.192175</ele>
        <time>2021-07-03T20:50:47.104Z</time>
      </trkpt>
      <trkpt lat="46.009393" lon="6.114251">
        <ele>673.926682</ele>
        <time>2021-07-03T20:51:05.516Z</time>
      </trkpt>
      <trkpt lat="46.009266" lon="6.114700">
        <ele>672.491888</ele>
        <time>2021-07-03T20:51:10.322Z</time>
      </trkpt>
      <trkpt lat="46.009125" lon="6.115036">
        <ele>670.137833</ele>
        <time>2021-07-03T20:51:13.999Z</time>
      </trkpt>
      <trkpt lat="46.008334" lon="6.116393">
        <ele>659.514406</ele>
        <time>2021-07-03T20:51:30.748Z</time>
      </trkpt>
      <trkpt lat="46.007872" lon="6.117213">
        <ele>654.381286</ele>
        <time>2021-07-03T20:51:41.105Z</time>
      </trkpt>
      <trkpt lat="46.007644" lon="6.117571">
        <ele>652.104066</ele>
        <time>2021-07-03T20:51:45.928Z</time>
      </trkpt>
      <trkpt lat="46.007311" lon="6.117870">
        <ele>649.454981</ele>
        <time>2021-07-03T20:51:51.618Z</time>
      </trkpt>
      <trkpt lat="46.006602" lon="6.118307">
        <ele>645.495395</ele>
        <time>2021-07-03T20:52:03.295Z</time>
      </trkpt>
      <trkpt lat="46.006182" lon="6.118558">
        <ele>644.099261</ele>
        <time>2021-07-03T20:52:10.750Z</time>
      </trkpt>
      <trkpt lat="46.005813" lon="6.118783">
        <ele>642.868962</ele>
        <time>2021-07-03T20:52:17.546Z</time>
      </trkpt>
      <trkpt lat="46.005614" lon="6.118901">
        <ele>642.208214</ele>
        <time>2021-07-03T20:52:21.172Z</time>
      </trkpt>
      <trkpt lat="46.005329" lon="6.119076">
        <ele>641.256965</ele>
        <time>2021-07-03T20:52:26.701Z</time>
      </trkpt>
      <trkpt lat="46.005241" lon="6.119122">
        <ele>640.990197</ele>
        <time>2021-07-03T20:52:28.299Z</time>
      </trkpt>
      <trkpt lat="46.005232" lon="6.119099">
        <ele>640.960584</ele>
        <time>2021-07-03T20:52:28.728Z</time>
      </trkpt>
      <trkpt lat="46.005179" lon="6.119046">
        <ele>640.856367</ele>
        <time>2021-07-03T20:52:29.907Z</time>
      </trkpt>
      <trkpt lat="46.005147" lon="6.119040">
        <ele>640.804251</ele>
        <time>2021-07-03T20:52:30.592Z</time>
      </trkpt>
      <trkpt lat="46.005114" lon="6.119049">
        <ele>640.750009</ele>
        <time>2021-07-03T20:52:31.215Z</time>
      </trkpt>
      <trkpt lat="46.005081" lon="6.119078">
        <ele>640.687570</ele>
        <time>2021-07-03T20:52:31.879Z</time>
      </trkpt>
      <trkpt lat="46.005052" lon="6.119235">
        <ele>640.505332</ele>
        <time>2021-07-03T20:52:33.931Z</time>
      </trkpt>
      <trkpt lat="46.005059" lon="6.119251">
        <ele>640.484120</ele>
        <time>2021-07-03T20:52:34.126Z</time>
      </trkpt>
      <trkpt lat="46.004965" lon="6.119296">
        <ele>640.324139</ele>
        <time>2021-07-03T20:52:36.066Z</time>
      </trkpt>
      <trkpt lat="46.004535" lon="6.119577">
        <ele>639.561501</ele>
        <time>2021-07-03T20:52:45.172Z</time>
      </trkpt>
      <trkpt lat="46.002029" lon="6.121083">
        <ele>635.679561</ele>
        <time>2021-07-03T20:53:37.172Z</time>
      </trkpt>
      <trkpt lat="46.001880" lon="6.121181">
        <ele>635.771516</ele>
        <time>2021-07-03T20:53:40.796Z</time>
      </trkpt>
      <trkpt lat="46.001798" lon="6.121230">
        <ele>635.821353</ele>
        <time>2021-07-03T20:53:42.862Z</time>
      </trkpt>
      <trkpt lat="46.001580" lon="6.121362">
        <ele>635.954107</ele>
        <time>2021-07-03T20:53:48.282Z</time>
      </trkpt>
      <trkpt lat="46.001476" lon="6.121424">
        <ele>636.017293</ele>
        <time>2021-07-03T20:53:51.077Z</time>
      </trkpt>
      <trkpt lat="46.001240" lon="6.121546">
        <ele>636.158050</ele>
        <time>2021-07-03T20:53:57.324Z</time>
      </trkpt>
      <trkpt lat="46.001032" lon="6.121680">
        <ele>636.285965</ele>
        <time>2021-07-03T20:54:03.297Z</time>
      </trkpt>
      <trkpt lat="46.000997" lon="6.121702">
        <ele>636.307403</ele>
        <time>2021-07-03T20:54:04.464Z</time>
      </trkpt>
      <trkpt lat="46.000835" lon="6.121805">
        <ele>636.406813</ele>
        <time>2021-07-03T20:54:09.415Z</time>
      </trkpt>
      <trkpt lat="46.000763" lon="6.121851">
        <ele>636.451031</ele>
        <time>2021-07-03T20:54:11.604Z</time>
      </trkpt>
      <trkpt lat="45.999388" lon="6.122690">
        <ele>638.218845</ele>
        <time>2021-07-03T20:54:56.023Z</time>
      </trkpt>
      <trkpt lat="45.999358" lon="6.122708">
        <ele>638.264900</ele>
        <time>2021-07-03T20:54:57.437Z</time>
      </trkpt>
      <trkpt lat="45.998989" lon="6.122914">
        <ele>638.825726</ele>
        <time>2021-07-03T20:55:08.654Z</time>
      </trkpt>
      <trkpt lat="45.998942" lon="6.122938">
        <ele>638.896393</ele>
        <time>2021-07-03T20:55:09.946Z</time>
      </trkpt>
      <trkpt lat="45.998789" lon="6.123039">
        <ele>639.134907</ele>
        <time>2021-07-03T20:55:14.351Z</time>
      </trkpt>
      <trkpt lat="45.998673" lon="6.123098">
        <ele>639.249786</ele>
        <time>2021-07-03T20:55:18.053Z</time>
      </trkpt>
      <trkpt lat="45.998458" lon="6.123258">
        <ele>639.340811</ele>
        <time>2021-07-03T20:55:24.125Z</time>
      </trkpt>
      <trkpt lat="45.998418" lon="6.123281">
        <ele>639.357010</ele>
        <time>2021-07-03T20:55:25.224Z</time>
      </trkpt>
      <trkpt lat="45.996766" lon="6.124303">
        <ele>639.922847</ele>
        <time>2021-07-03T20:56:08.364Z</time>
      </trkpt>
      <trkpt lat="45.996318" lon="6.124487">
        <ele>639.947516</ele>
        <time>2021-07-03T20:56:19.139Z</time>
      </trkpt>
      <trkpt lat="45.995994" lon="6.124533">
        <ele>639.964755</ele>
        <time>2021-07-03T20:56:26.380Z</time>
      </trkpt>
      <trkpt lat="45.995949" lon="6.124446">
        <ele>639.968745</ele>
        <time>2021-07-03T20:56:28.074Z</time>
      </trkpt>
      <trkpt lat="45.995884" lon="6.124386">
        <ele>639.972833</ele>
        <time>2021-07-03T20:56:29.771Z</time>
      </trkpt>
      <trkpt lat="45.995814" lon="6.124362">
        <ele>639.976643</ele>
        <time>2021-07-03T20:56:31.394Z</time>
      </trkpt>
      <trkpt lat="45.995940" lon="6.123863">
        <ele>639.996174</ele>
        <time>2021-07-03T20:56:39.618Z</time>
      </trkpt>
      <trkpt lat="45.995943" lon="6.123564">
        <ele>639.999994</ele>
        <time>2021-07-03T20:56:44.250Z</time>
      </trkpt>
      <trkpt lat="45.995874" lon="6.123320">
        <ele>639.999994</ele>
        <time>2021-07-03T20:56:48.322Z</time>
      </trkpt>
      <trkpt lat="45.995777" lon="6.123192">
        <ele>639.999994</ele>
        <time>2021-07-03T20:56:51.255Z</time>
      </trkpt>
      <trkpt lat="45.995642" lon="6.123134">
        <ele>639.999994</ele>
        <time>2021-07-03T20:56:54.394Z</time>
      </trkpt>
      <trkpt lat="45.995451" lon="6.123149">
        <ele>639.999994</ele>
        <time>2021-07-03T20:56:58.649Z</time>
      </trkpt>
      <trkpt lat="45.994065" lon="6.123666">
        <ele>639.999994</ele>
        <time>2021-07-03T20:57:30.482Z</time>
      </trkpt>
      <trkpt lat="45.993924" lon="6.123680">
        <ele>639.999994</ele>
        <time>2021-07-03T20:57:33.625Z</time>
      </trkpt>
      <trkpt lat="45.993905" lon="6.123620">
        <ele>639.999994</ele>
        <time>2021-07-03T20:57:34.643Z</time>
      </trkpt>
      <trkpt lat="45.993864" lon="6.123576">
        <ele>639.999994</ele>
        <time>2021-07-03T20:57:35.782Z</time>
      </trkpt>
      <trkpt lat="45.993807" lon="6.123573">
        <ele>639.999994</ele>
        <time>2021-07-03T20:57:37.046Z</time>
      </trkpt>
      <trkpt lat="45.993757" lon="6.123622">
        <ele>639.999994</ele>
        <time>2021-07-03T20:57:38.387Z</time>
      </trkpt>
      <trkpt lat="45.993740" lon="6.123728">
        <ele>639.999994</ele>
        <time>2021-07-03T20:57:40.074Z</time>
      </trkpt>
      <trkpt lat="45.993749" lon="6.123760">
        <ele>639.999994</ele>
        <time>2021-07-03T20:57:40.606Z</time>
      </trkpt>
      <trkpt lat="45.992947" lon="6.124175">
        <ele>639.999994</ele>
        <time>2021-07-03T20:58:00.339Z</time>
      </trkpt>
      <trkpt lat="45.990563" lon="6.125411">
        <ele>639.996522</ele>
        <time>2021-07-03T20:58:59.033Z</time>
      </trkpt>
      <trkpt lat="45.990365" lon="6.125585">
        <ele>639.995301</ele>
        <time>2021-07-03T20:59:04.422Z</time>
      </trkpt>
      <trkpt lat="45.990104" lon="6.126013">
        <ele>639.993219</ele>
        <time>2021-07-03T20:59:13.604Z</time>
      </trkpt>
      <trkpt lat="45.989918" lon="6.126130">
        <ele>639.992151</ele>
        <time>2021-07-03T20:59:18.304Z</time>
      </trkpt>
      <trkpt lat="45.989676" lon="6.126139">
        <ele>639.990877</ele>
        <time>2021-07-03T20:59:23.913Z</time>
      </trkpt>
      <trkpt lat="45.988950" lon="6.125914">
        <ele>639.766001</ele>
        <time>2021-07-03T20:59:40.932Z</time>
      </trkpt>
      <trkpt lat="45.988866" lon="6.125811">
        <ele>639.729377</ele>
        <time>2021-07-03T20:59:43.438Z</time>
      </trkpt>
      <trkpt lat="45.988819" lon="6.125754">
        <ele>639.708978</ele>
        <time>2021-07-03T20:59:44.806Z</time>
      </trkpt>
      <trkpt lat="45.988676" lon="6.125067">
        <ele>639.543602</ele>
        <time>2021-07-03T20:59:56.040Z</time>
      </trkpt>
      <trkpt lat="45.988636" lon="6.124875">
        <ele>639.497380</ele>
        <time>2021-07-03T20:59:59.130Z</time>
      </trkpt>
      <trkpt lat="45.988341" lon="6.125046">
        <ele>639.382037</ele>
        <time>2021-07-03T21:00:05.356Z</time>
      </trkpt>
      <trkpt lat="45.988165" lon="6.125152">
        <ele>638.963915</ele>
        <time>2021-07-03T21:00:09.104Z</time>
      </trkpt>
      <trkpt lat="45.987947" lon="6.125440">
        <ele>638.315403</ele>
        <time>2021-07-03T21:00:14.677Z</time>
      </trkpt>
      <trkpt lat="45.987786" lon="6.125833">
        <ele>637.620704</ele>
        <time>2021-07-03T21:00:20.446Z</time>
      </trkpt>
      <trkpt lat="45.987512" lon="6.125919">
        <ele>637.006107</ele>
        <time>2021-07-03T21:00:25.397Z</time>
      </trkpt>
      <trkpt lat="45.987289" lon="6.126031">
        <ele>636.488489</ele>
        <time>2021-07-03T21:00:29.385Z</time>
      </trkpt>
      <trkpt lat="45.987156" lon="6.126099">
        <ele>636.179168</ele>
        <time>2021-07-03T21:00:31.629Z</time>
      </trkpt>
      <trkpt lat="45.986691" lon="6.126248">
        <ele>634.847804</ele>
        <time>2021-07-03T21:00:39.264Z</time>
      </trkpt>
      <trkpt lat="45.986056" lon="6.126339">
        <ele>632.180098</ele>
        <time>2021-07-03T21:00:49.160Z</time>
      </trkpt>
      <trkpt lat="45.985677" lon="6.126394">
        <ele>630.587678</ele>
        <time>2021-07-03T21:00:54.957Z</time>
      </trkpt>
      <trkpt lat="45.984341" lon="6.126572">
        <ele>626.520170</ele>
        <time>2021-07-03T21:01:15.829Z</time>
      </trkpt>
      <trkpt lat="45.984080" lon="6.126707">
        <ele>625.965765</ele>
        <time>2021-07-03T21:01:20.636Z</time>
      </trkpt>
      <trkpt lat="45.983698" lon="6.127079">
        <ele>625.043767</ele>
        <time>2021-07-03T21:01:29.613Z</time>
      </trkpt>
      <trkpt lat="45.983671" lon="6.127126">
        <ele>624.959062</ele>
        <time>2021-07-03T21:01:30.293Z</time>
      </trkpt>
      <trkpt lat="45.983629" lon="6.127047">
        <ele>624.820896</ele>
        <time>2021-07-03T21:01:32.265Z</time>
      </trkpt>
      <trkpt lat="45.983577" lon="6.126948">
        <ele>624.648517</ele>
        <time>2021-07-03T21:01:34.969Z</time>
      </trkpt>
      <trkpt lat="45.983502" lon="6.126873">
        <ele>624.465954</ele>
        <time>2021-07-03T21:01:36.845Z</time>
      </trkpt>
      <trkpt lat="45.983429" lon="6.126818">
        <ele>624.364588</ele>
        <time>2021-07-03T21:01:38.608Z</time>
      </trkpt>
      <trkpt lat="45.983312" lon="6.126724">
        <ele>624.568298</ele>
        <time>2021-07-03T21:01:42.260Z</time>
      </trkpt>
      <trkpt lat="45.982828" lon="6.126392">
        <ele>625.383409</ele>
        <time>2021-07-03T21:01:56.974Z</time>
      </trkpt>
      <trkpt lat="45.982372" lon="6.125970">
        <ele>626.207610</ele>
        <time>2021-07-03T21:02:13.226Z</time>
      </trkpt>
      <trkpt lat="45.982356" lon="6.125997">
        <ele>626.245096</ele>
        <time>2021-07-03T21:02:14.512Z</time>
      </trkpt>
      <trkpt lat="45.981640" lon="6.125883">
        <ele>627.218056</ele>
        <time>2021-07-03T21:02:37.560Z</time>
      </trkpt>
      <trkpt lat="45.980369" lon="6.125935">
        <ele>628.271861</ele>
        <time>2021-07-03T21:03:10.515Z</time>
      </trkpt>
      <trkpt lat="45.979803" lon="6.126165">
        <ele>628.703876</ele>
        <time>2021-07-03T21:03:24.257Z</time>
      </trkpt>
      <trkpt lat="45.979546" lon="6.126208">
        <ele>628.857986</ele>
        <time>2021-07-03T21:03:30.489Z</time>
      </trkpt>
      <trkpt lat="45.978928" lon="6.126053">
        <ele>629.231638</ele>
        <time>2021-07-03T21:03:46.012Z</time>
      </trkpt>
      <trkpt lat="45.978916" lon="6.126037">
        <ele>629.241383</ele>
        <time>2021-07-03T21:03:46.398Z</time>
      </trkpt>
      <trkpt lat="45.978904" lon="6.126055">
        <ele>629.251707</ele>
        <time>2021-07-03T21:03:47.025Z</time>
      </trkpt>
      <trkpt lat="45.978577" lon="6.126183">
        <ele>629.453558</ele>
        <time>2021-07-03T21:03:55.701Z</time>
      </trkpt>
      <trkpt lat="45.977220" lon="6.126313">
        <ele>630.773804</ele>
        <time>2021-07-03T21:04:33.967Z</time>
      </trkpt>
      <trkpt lat="45.975706" lon="6.125995">
        <ele>631.828345</ele>
        <time>2021-07-03T21:05:15.046Z</time>
      </trkpt>
      <trkpt lat="45.974683" lon="6.126004">
        <ele>632.142745</ele>
        <time>2021-07-03T21:05:39.060Z</time>
      </trkpt>
      <trkpt lat="45.974324" lon="6.125913">
        <ele>631.794354</ele>
        <time>2021-07-03T21:05:46.832Z</time>
      </trkpt>
      <trkpt lat="45.974201" lon="6.125836">
        <ele>631.666155</ele>
        <time>2021-07-03T21:05:49.412Z</time>
      </trkpt>
      <trkpt lat="45.974012" lon="6.125651">
        <ele>631.447687</ele>
        <time>2021-07-03T21:05:54.238Z</time>
      </trkpt>
      <trkpt lat="45.973984" lon="6.125606">
        <ele>631.407568</ele>
        <time>2021-07-03T21:05:55.019Z</time>
      </trkpt>
      <trkpt lat="45.973954" lon="6.125540">
        <ele>631.355186</ele>
        <time>2021-07-03T21:05:56.190Z</time>
      </trkpt>
      <trkpt lat="45.973926" lon="6.125554">
        <ele>631.326856</ele>
        <time>2021-07-03T21:05:56.656Z</time>
      </trkpt>
      <trkpt lat="45.973721" lon="6.125538">
        <ele>631.130643</ele>
        <time>2021-07-03T21:06:00.696Z</time>
      </trkpt>
      <trkpt lat="45.972220" lon="6.124794">
        <ele>629.501782</ele>
        <time>2021-07-03T21:06:30.225Z</time>
      </trkpt>
      <trkpt lat="45.971193" lon="6.124716">
        <ele>628.403664</ele>
        <time>2021-07-03T21:06:49.972Z</time>
      </trkpt>
      <trkpt lat="45.970879" lon="6.124625">
        <ele>628.119284</ele>
        <time>2021-07-03T21:06:57.154Z</time>
      </trkpt>
      <trkpt lat="45.970072" lon="6.123953">
        <ele>627.291452</ele>
        <time>2021-07-03T21:07:17.565Z</time>
      </trkpt>
      <trkpt lat="45.969685" lon="6.123528">
        <ele>626.720908</ele>
        <time>2021-07-03T21:07:25.893Z</time>
      </trkpt>
      <trkpt lat="45.969668" lon="6.123502">
        <ele>626.591929</ele>
        <time>2021-07-03T21:07:26.973Z</time>
      </trkpt>
      <trkpt lat="45.969672" lon="6.123497">
        <ele>626.564383</ele>
        <time>2021-07-03T21:07:27.168Z</time>
      </trkpt>
      <trkpt lat="45.969666" lon="6.123426">
        <ele>626.305955</ele>
        <time>2021-07-03T21:07:28.104Z</time>
      </trkpt>
      <trkpt lat="45.969666" lon="6.123426">
        <ele>626.305955</ele>
        <time>2021-07-03T21:07:28.195Z</time>
      </trkpt>
      <trkpt lat="45.969657" lon="6.123418">
        <ele>626.250959</ele>
        <time>2021-07-03T21:07:28.354Z</time>
      </trkpt>
      <trkpt lat="45.969611" lon="6.123444">
        <ele>625.994034</ele>
        <time>2021-07-03T21:07:29.275Z</time>
      </trkpt>
      <trkpt lat="45.969609" lon="6.123453">
        <ele>625.959893</ele>
        <time>2021-07-03T21:07:29.372Z</time>
      </trkpt>
      <trkpt lat="45.969592" lon="6.123448">
        <ele>625.869689</ele>
        <time>2021-07-03T21:07:29.637Z</time>
      </trkpt>
      <trkpt lat="45.969106" lon="6.123220">
        <ele>623.212263</ele>
        <time>2021-07-03T21:07:37.829Z</time>
      </trkpt>
      <trkpt lat="45.969000" lon="6.123219">
        <ele>622.661202</ele>
        <time>2021-07-03T21:07:39.406Z</time>
      </trkpt>
      <trkpt lat="45.968809" lon="6.123215">
        <ele>621.668169</ele>
        <time>2021-07-03T21:07:42.393Z</time>
      </trkpt>
      <trkpt lat="45.968732" lon="6.123211">
        <ele>621.267617</ele>
        <time>2021-07-03T21:07:43.430Z</time>
      </trkpt>
      <trkpt lat="45.968310" lon="6.123065">
        <ele>619.011281</ele>
        <time>2021-07-03T21:07:49.723Z</time>
      </trkpt>
      <trkpt lat="45.968169" lon="6.123078">
        <ele>618.276778</ele>
        <time>2021-07-03T21:07:51.783Z</time>
      </trkpt>
      <trkpt lat="45.968064" lon="6.123172">
        <ele>617.633882</ele>
        <time>2021-07-03T21:07:53.496Z</time>
      </trkpt>
      <trkpt lat="45.967901" lon="6.123516">
        <ele>615.172298</ele>
        <time>2021-07-03T21:07:57.618Z</time>
      </trkpt>
      <trkpt lat="45.967826" lon="6.123674">
        <ele>614.010865</ele>
        <time>2021-07-03T21:07:59.393Z</time>
      </trkpt>
      <trkpt lat="45.967759" lon="6.123769">
        <ele>613.189311</ele>
        <time>2021-07-03T21:08:00.681Z</time>
      </trkpt>
      <trkpt lat="45.967591" lon="6.123907">
        <ele>611.499787</ele>
        <time>2021-07-03T21:08:03.401Z</time>
      </trkpt>
      <trkpt lat="45.967442" lon="6.123857">
        <ele>610.163572</ele>
        <time>2021-07-03T21:08:05.451Z</time>
      </trkpt>
      <trkpt lat="45.967338" lon="6.123627">
        <ele>608.497950</ele>
        <time>2021-07-03T21:08:08.139Z</time>
      </trkpt>
      <trkpt lat="45.967217" lon="6.122904">
        <ele>603.983646</ele>
        <time>2021-07-03T21:08:15.201Z</time>
      </trkpt>
      <trkpt lat="45.967150" lon="6.122724">
        <ele>602.744164</ele>
        <time>2021-07-03T21:08:17.218Z</time>
      </trkpt>
      <trkpt lat="45.966980" lon="6.122586">
        <ele>601.213420</ele>
        <time>2021-07-03T21:08:19.854Z</time>
      </trkpt>
      <trkpt lat="45.966664" lon="6.122601">
        <ele>599.060650</ele>
        <time>2021-07-03T21:08:24.351Z</time>
      </trkpt>
      <trkpt lat="45.966332" lon="6.122696">
        <ele>596.755830</ele>
        <time>2021-07-03T21:08:29.242Z</time>
      </trkpt>
      <trkpt lat="45.966156" lon="6.122721">
        <ele>595.551644</ele>
        <time>2021-07-03T21:08:31.793Z</time>
      </trkpt>
      <trkpt lat="45.966020" lon="6.122714">
        <ele>594.625047</ele>
        <time>2021-07-03T21:08:33.786Z</time>
      </trkpt>
      <trkpt lat="45.965945" lon="6.122694">
        <ele>594.105684</ele>
        <time>2021-07-03T21:08:34.896Z</time>
      </trkpt>
      <trkpt lat="45.963813" lon="6.121441">
        <ele>579.492711</ele>
        <time>2021-07-03T21:09:08.764Z</time>
      </trkpt>
      <trkpt lat="45.963128" lon="6.121246">
        <ele>575.087779</ele>
        <time>2021-07-03T21:09:18.665Z</time>
      </trkpt>
      <trkpt lat="45.962949" lon="6.121120">
        <ele>573.821725</ele>
        <time>2021-07-03T21:09:21.620Z</time>
      </trkpt>
      <trkpt lat="45.962828" lon="6.121053">
        <ele>572.998015</ele>
        <time>2021-07-03T21:09:23.362Z</time>
      </trkpt>
      <trkpt lat="45.962765" lon="6.121009">
        <ele>572.553090</ele>
        <time>2021-07-03T21:09:24.446Z</time>
      </trkpt>
      <trkpt lat="45.962517" lon="6.120957">
        <ele>570.960858</ele>
        <time>2021-07-03T21:09:27.965Z</time>
      </trkpt>
      <trkpt lat="45.962248" lon="6.120988">
        <ele>569.246383</ele>
        <time>2021-07-03T21:09:31.976Z</time>
      </trkpt>
      <trkpt lat="45.961928" lon="6.120918">
        <ele>567.190001</ele>
        <time>2021-07-03T21:09:36.737Z</time>
      </trkpt>
      <trkpt lat="45.960906" lon="6.120620">
        <ele>564.218436</ele>
        <time>2021-07-03T21:09:53.871Z</time>
      </trkpt>
      <trkpt lat="45.960768" lon="6.120434">
        <ele>563.690650</ele>
        <time>2021-07-03T21:09:57.664Z</time>
      </trkpt>
      <trkpt lat="45.960572" lon="6.119572">
        <ele>561.898415</ele>
        <time>2021-07-03T21:10:09.243Z</time>
      </trkpt>
      <trkpt lat="45.960462" lon="6.119323">
        <ele>561.182010</ele>
        <time>2021-07-03T21:10:12.591Z</time>
      </trkpt>
      <trkpt lat="45.960405" lon="6.119242">
        <ele>560.902131</ele>
        <time>2021-07-03T21:10:14.852Z</time>
      </trkpt>
      <trkpt lat="45.960237" lon="6.119003">
        <ele>560.076777</ele>
        <time>2021-07-03T21:10:18.696Z</time>
      </trkpt>
      <trkpt lat="45.959584" lon="6.118418">
        <ele>557.389571</ele>
        <time>2021-07-03T21:10:31.153Z</time>
      </trkpt>
      <trkpt lat="45.958963" lon="6.118195">
        <ele>554.914616</ele>
        <time>2021-07-03T21:10:40.713Z</time>
      </trkpt>
      <trkpt lat="45.958692" lon="6.118168">
        <ele>553.602175</ele>
        <time>2021-07-03T21:10:44.723Z</time>
      </trkpt>
      <trkpt lat="45.958261" lon="6.117761">
        <ele>551.111250</ele>
        <time>2021-07-03T21:10:52.491Z</time>
      </trkpt>
      <trkpt lat="45.958036" lon="6.117420">
        <ele>549.532185</ele>
        <time>2021-07-03T21:10:57.547Z</time>
      </trkpt>
      <trkpt lat="45.957762" lon="6.116289">
        <ele>545.314043</ele>
        <time>2021-07-03T21:11:10.477Z</time>
      </trkpt>
      <trkpt lat="45.957743" lon="6.116038">
        <ele>544.361062</ele>
        <time>2021-07-03T21:11:13.248Z</time>
      </trkpt>
      <trkpt lat="45.957738" lon="6.115970">
        <ele>544.102969</ele>
        <time>2021-07-03T21:11:13.921Z</time>
      </trkpt>
      <trkpt lat="45.957691" lon="6.115376">
        <ele>541.846483</ele>
        <time>2021-07-03T21:11:20.188Z</time>
      </trkpt>
      <trkpt lat="45.957598" lon="6.115052">
        <ele>540.523426</ele>
        <time>2021-07-03T21:11:23.856Z</time>
      </trkpt>
      <trkpt lat="45.957484" lon="6.114833">
        <ele>539.490775</ele>
        <time>2021-07-03T21:11:26.528Z</time>
      </trkpt>
      <trkpt lat="45.957161" lon="6.114210">
        <ele>536.193275</ele>
        <time>2021-07-03T21:11:34.572Z</time>
      </trkpt>
      <trkpt lat="45.957091" lon="6.114015">
        <ele>534.970787</ele>
        <time>2021-07-03T21:11:36.732Z</time>
      </trkpt>
      <trkpt lat="45.957069" lon="6.113755">
        <ele>533.511798</ele>
        <time>2021-07-03T21:11:39.392Z</time>
      </trkpt>
      <trkpt lat="45.957117" lon="6.113471">
        <ele>531.883727</ele>
        <time>2021-07-03T21:11:42.232Z</time>
      </trkpt>
      <trkpt lat="45.957152" lon="6.113257">
        <ele>530.659122</ele>
        <time>2021-07-03T21:11:44.405Z</time>
      </trkpt>
      <trkpt lat="45.957078" lon="6.113096">
        <ele>529.584002</ele>
        <time>2021-07-03T21:11:46.267Z</time>
      </trkpt>
      <trkpt lat="45.957016" lon="6.113070">
        <ele>529.066535</ele>
        <time>2021-07-03T21:11:47.122Z</time>
      </trkpt>
      <trkpt lat="45.956958" lon="6.113100">
        <ele>528.572668</ele>
        <time>2021-07-03T21:11:48.005Z</time>
      </trkpt>
      <trkpt lat="45.956889" lon="6.113211">
        <ele>527.743220</ele>
        <time>2021-07-03T21:11:49.448Z</time>
      </trkpt>
      <trkpt lat="45.956862" lon="6.113301">
        <ele>527.197196</ele>
        <time>2021-07-03T21:11:50.409Z</time>
      </trkpt>
      <trkpt lat="45.956834" lon="6.113389">
        <ele>526.658098</ele>
        <time>2021-07-03T21:11:51.342Z</time>
      </trkpt>
      <trkpt lat="45.956717" lon="6.113733">
        <ele>524.524841</ele>
        <time>2021-07-03T21:11:55.065Z</time>
      </trkpt>
      <trkpt lat="45.956514" lon="6.113724">
        <ele>522.897788</ele>
        <time>2021-07-03T21:11:57.791Z</time>
      </trkpt>
      <trkpt lat="45.956492" lon="6.113705">
        <ele>522.696753</ele>
        <time>2021-07-03T21:11:58.153Z</time>
      </trkpt>
      <trkpt lat="45.955973" lon="6.113248">
        <ele>517.929373</ele>
        <time>2021-07-03T21:12:06.540Z</time>
      </trkpt>
      <trkpt lat="45.955484" lon="6.112579">
        <ele>512.642281</ele>
        <time>2021-07-03T21:12:16.266Z</time>
      </trkpt>
      <trkpt lat="45.955426" lon="6.112545">
        <ele>512.151603</ele>
        <time>2021-07-03T21:12:17.072Z</time>
      </trkpt>
      <trkpt lat="45.955371" lon="6.112513">
        <ele>511.686799</ele>
        <time>2021-07-03T21:12:17.926Z</time>
      </trkpt>
      <trkpt lat="45.955177" lon="6.112478">
        <ele>510.155028</ele>
        <time>2021-07-03T21:12:20.824Z</time>
      </trkpt>
      <trkpt lat="45.955125" lon="6.112489">
        <ele>509.743260</ele>
        <time>2021-07-03T21:12:21.561Z</time>
      </trkpt>
      <trkpt lat="45.955083" lon="6.112497">
        <ele>509.411346</ele>
        <time>2021-07-03T21:12:22.109Z</time>
      </trkpt>
      <trkpt lat="45.954782" lon="6.112503">
        <ele>507.881636</ele>
        <time>2021-07-03T21:12:26.678Z</time>
      </trkpt>
      <trkpt lat="45.954315" lon="6.112395">
        <ele>505.914329</ele>
        <time>2021-07-03T21:12:33.559Z</time>
      </trkpt>
      <trkpt lat="45.954089" lon="6.112044">
        <ele>504.530953</ele>
        <time>2021-07-03T21:12:38.701Z</time>
      </trkpt>
      <trkpt lat="45.954036" lon="6.112008">
        <ele>504.287170</ele>
        <time>2021-07-03T21:12:39.610Z</time>
      </trkpt>
      <trkpt lat="45.954027" lon="6.112044">
        <ele>504.176545</ele>
        <time>2021-07-03T21:12:40.135Z</time>
      </trkpt>
      <trkpt lat="45.953990" lon="6.112604">
        <ele>502.549927</ele>
        <time>2021-07-03T21:12:47.328Z</time>
      </trkpt>
      <trkpt lat="45.953751" lon="6.112916">
        <ele>501.298146</ele>
        <time>2021-07-03T21:12:53.538Z</time>
      </trkpt>
      <trkpt lat="45.953727" lon="6.112955">
        <ele>501.251773</ele>
        <time>2021-07-03T21:12:54.206Z</time>
      </trkpt>
      <trkpt lat="45.953676" lon="6.113064">
        <ele>501.134794</ele>
        <time>2021-07-03T21:12:56.059Z</time>
      </trkpt>
      <trkpt lat="45.953577" lon="6.113287">
        <ele>500.899219</ele>
        <time>2021-07-03T21:12:59.617Z</time>
      </trkpt>
      <trkpt lat="45.953442" lon="6.113573">
        <ele>500.591433</ele>
        <time>2021-07-03T21:13:04.249Z</time>
      </trkpt>
      <trkpt lat="45.953350" lon="6.113767">
        <ele>500.382348</ele>
        <time>2021-07-03T21:13:07.290Z</time>
      </trkpt>
      <trkpt lat="45.953193" lon="6.114100">
        <ele>500.024114</ele>
        <time>2021-07-03T21:13:12.946Z</time>
      </trkpt>
      <trkpt lat="45.952790" lon="6.114891">
        <ele>499.150979</ele>
        <time>2021-07-03T21:13:26.678Z</time>
      </trkpt>
      <trkpt lat="45.952741" lon="6.114997">
        <ele>499.037643</ele>
        <time>2021-07-03T21:13:28.486Z</time>
      </trkpt>
      <trkpt lat="45.952705" lon="6.115074">
        <ele>498.973771</ele>
        <time>2021-07-03T21:13:29.761Z</time>
      </trkpt>
      <trkpt lat="45.952470" lon="6.115606">
        <ele>498.544024</ele>
        <time>2021-07-03T21:13:38.735Z</time>
      </trkpt>
      <trkpt lat="45.952393" lon="6.115768">
        <ele>498.410224</ele>
        <time>2021-07-03T21:13:41.537Z</time>
      </trkpt>
      <trkpt lat="45.952357" lon="6.115746">
        <ele>498.371865</ele>
        <time>2021-07-03T21:13:42.292Z</time>
      </trkpt>
      <trkpt lat="45.952220" lon="6.115834">
        <ele>498.224723</ele>
        <time>2021-07-03T21:13:45.197Z</time>
      </trkpt>
      <trkpt lat="45.952207" lon="6.115888">
        <ele>498.185760</ele>
        <time>2021-07-03T21:13:45.979Z</time>
      </trkpt>
      <trkpt lat="45.952206" lon="6.115945">
        <ele>498.146884</ele>
        <time>2021-07-03T21:13:46.781Z</time>
      </trkpt>
      <trkpt lat="45.952148" lon="6.115960">
        <ele>498.089093</ele>
        <time>2021-07-03T21:13:47.940Z</time>
      </trkpt>
      <trkpt lat="45.952072" lon="6.115971">
        <ele>498.014185</ele>
        <time>2021-07-03T21:13:49.376Z</time>
      </trkpt>
      <trkpt lat="45.951898" lon="6.116002">
        <ele>497.842243</ele>
        <time>2021-07-03T21:13:52.752Z</time>
      </trkpt>
      <trkpt lat="45.951876" lon="6.116005">
        <ele>497.820571</ele>
        <time>2021-07-03T21:13:53.185Z</time>
      </trkpt>
      <trkpt lat="45.951797" lon="6.116012">
        <ele>497.742951</ele>
        <time>2021-07-03T21:13:54.721Z</time>
      </trkpt>
      <trkpt lat="45.951704" lon="6.115998">
        <ele>497.651250</ele>
        <time>2021-07-03T21:13:56.460Z</time>
      </trkpt>
      <trkpt lat="45.951565" lon="6.115950">
        <ele>497.511062</ele>
        <time>2021-07-03T21:13:59.042Z</time>
      </trkpt>
      <trkpt lat="45.951363" lon="6.115856">
        <ele>497.302856</ele>
        <time>2021-07-03T21:14:03.054Z</time>
      </trkpt>
      <trkpt lat="45.951256" lon="6.115806">
        <ele>497.270306</ele>
        <time>2021-07-03T21:14:05.074Z</time>
      </trkpt>
      <trkpt lat="45.951188" lon="6.115777">
        <ele>497.269543</ele>
        <time>2021-07-03T21:14:06.665Z</time>
      </trkpt>
      <trkpt lat="45.950810" lon="6.115615">
        <ele>497.265298</ele>
        <time>2021-07-03T21:14:15.279Z</time>
      </trkpt>
      <trkpt lat="45.950481" lon="6.115461">
        <ele>497.261573</ele>
        <time>2021-07-03T21:14:23.406Z</time>
      </trkpt>
      <trkpt lat="45.950295" lon="6.115372">
        <ele>497.259464</ele>
        <time>2021-07-03T21:14:28.129Z</time>
      </trkpt>
      <trkpt lat="45.950199" lon="6.115298">
        <ele>497.258291</ele>
        <time>2021-07-03T21:14:30.906Z</time>
      </trkpt>
      <trkpt lat="45.950010" lon="6.115197">
        <ele>497.256121</ele>
        <time>2021-07-03T21:14:36.280Z</time>
      </trkpt>
      <trkpt lat="45.949972" lon="6.115154">
        <ele>497.255601</ele>
        <time>2021-07-03T21:14:37.199Z</time>
      </trkpt>
      <trkpt lat="45.949907" lon="6.115176">
        <ele>497.254882</ele>
        <time>2021-07-03T21:14:38.765Z</time>
      </trkpt>
      <trkpt lat="45.949879" lon="6.115200">
        <ele>497.254531</ele>
        <time>2021-07-03T21:14:39.690Z</time>
      </trkpt>
      <trkpt lat="45.949817" lon="6.115295">
        <ele>497.253556</ele>
        <time>2021-07-03T21:14:41.942Z</time>
      </trkpt>
      <trkpt lat="45.949773" lon="6.115361">
        <ele>497.252872</ele>
        <time>2021-07-03T21:14:43.650Z</time>
      </trkpt>
      <trkpt lat="45.949740" lon="6.115420">
        <ele>497.252305</ele>
        <time>2021-07-03T21:14:45.063Z</time>
      </trkpt>
      <trkpt lat="45.949718" lon="6.115444">
        <ele>497.252008</ele>
        <time>2021-07-03T21:14:45.599Z</time>
      </trkpt>
      <trkpt lat="45.949623" lon="6.115562">
        <ele>497.232912</ele>
        <time>2021-07-03T21:14:48.556Z</time>
      </trkpt>
      <trkpt lat="45.949540" lon="6.115640">
        <ele>497.215423</ele>
        <time>2021-07-03T21:14:50.975Z</time>
      </trkpt>
      <trkpt lat="45.949302" lon="6.115839">
        <ele>497.166861</ele>
        <time>2021-07-03T21:14:57.387Z</time>
      </trkpt>
      <trkpt lat="45.949183" lon="6.115958">
        <ele>497.141294</ele>
        <time>2021-07-03T21:15:00.910Z</time>
      </trkpt>
      <trkpt lat="45.948837" lon="6.116287">
        <ele>497.068126</ele>
        <time>2021-07-03T21:15:10.657Z</time>
      </trkpt>
      <trkpt lat="45.948592" lon="6.116533">
        <ele>497.015418</ele>
        <time>2021-07-03T21:15:17.638Z</time>
      </trkpt>
      <trkpt lat="45.948438" lon="6.116673">
        <ele>496.983280</ele>
        <time>2021-07-03T21:15:21.892Z</time>
      </trkpt>
      <trkpt lat="45.948314" lon="6.116791">
        <ele>496.957052</ele>
        <time>2021-07-03T21:15:24.978Z</time>
      </trkpt>
      <trkpt lat="45.948278" lon="6.116827">
        <ele>496.949317</ele>
        <time>2021-07-03T21:15:25.787Z</time>
      </trkpt>
      <trkpt lat="45.948098" lon="6.117011">
        <ele>496.681517</ele>
        <time>2021-07-03T21:15:30.009Z</time>
      </trkpt>
      <trkpt lat="45.946866" lon="6.118615">
        <ele>493.612532</ele>
        <time>2021-07-03T21:15:58.938Z</time>
      </trkpt>
      <trkpt lat="45.946781" lon="6.118725">
        <ele>493.455167</ele>
        <time>2021-07-03T21:16:00.843Z</time>
      </trkpt>
      <trkpt lat="45.946772" lon="6.118712">
        <ele>493.437612</ele>
        <time>2021-07-03T21:16:01.070Z</time>
      </trkpt>
      <trkpt lat="45.946722" lon="6.118697">
        <ele>493.367320</ele>
        <time>2021-07-03T21:16:02.055Z</time>
      </trkpt>
      <trkpt lat="45.946710" lon="6.118703">
        <ele>493.349836</ele>
        <time>2021-07-03T21:16:02.282Z</time>
      </trkpt>
      <trkpt lat="45.946699" lon="6.118713">
        <ele>493.331927</ele>
        <time>2021-07-03T21:16:02.592Z</time>
      </trkpt>
      <trkpt lat="45.946681" lon="6.118813">
        <ele>493.233080</ele>
        <time>2021-07-03T21:16:04.013Z</time>
      </trkpt>
      <trkpt lat="45.946687" lon="6.118829">
        <ele>493.215685</ele>
        <time>2021-07-03T21:16:04.326Z</time>
      </trkpt>
      <trkpt lat="45.946636" lon="6.118899">
        <ele>493.118664</ele>
        <time>2021-07-03T21:16:05.658Z</time>
      </trkpt>
      <trkpt lat="45.946627" lon="6.118907">
        <ele>493.104103</ele>
        <time>2021-07-03T21:16:05.836Z</time>
      </trkpt>
      <trkpt lat="45.946298" lon="6.119200">
        <ele>492.571545</ele>
        <time>2021-07-03T21:16:12.903Z</time>
      </trkpt>
      <trkpt lat="45.946274" lon="6.119230">
        <ele>492.527784</ele>
        <time>2021-07-03T21:16:13.448Z</time>
      </trkpt>
      <trkpt lat="45.946228" lon="6.119275">
        <ele>492.451220</ele>
        <time>2021-07-03T21:16:14.440Z</time>
      </trkpt>
      <trkpt lat="45.946187" lon="6.119311">
        <ele>492.385111</ele>
        <time>2021-07-03T21:16:15.387Z</time>
      </trkpt>
      <trkpt lat="45.946154" lon="6.119336">
        <ele>492.333780</ele>
        <time>2021-07-03T21:16:16.097Z</time>
      </trkpt>
      <trkpt lat="45.946053" lon="6.119423">
        <ele>492.171757</ele>
        <time>2021-07-03T21:16:18.490Z</time>
      </trkpt>
      <trkpt lat="45.946030" lon="6.119366">
        <ele>492.108693</ele>
        <time>2021-07-03T21:16:19.344Z</time>
      </trkpt>
      <trkpt lat="45.945992" lon="6.119264">
        <ele>491.997959</ele>
        <time>2021-07-03T21:16:20.806Z</time>
      </trkpt>
      <trkpt lat="45.945648" lon="6.119613">
        <ele>491.418596</ele>
        <time>2021-07-03T21:16:31.711Z</time>
      </trkpt>
      <trkpt lat="45.945576" lon="6.119723">
        <ele>491.274032</ele>
        <time>2021-07-03T21:16:34.522Z</time>
      </trkpt>
      <trkpt lat="45.945383" lon="6.119945">
        <ele>490.947972</ele>
        <time>2021-07-03T21:16:41.263Z</time>
      </trkpt>
      <trkpt lat="45.945306" lon="6.120065">
        <ele>490.802505</ele>
        <time>2021-07-03T21:16:43.482Z</time>
      </trkpt>
      <trkpt lat="45.944500" lon="6.120938">
        <ele>489.509758</ele>
        <time>2021-07-03T21:17:02.893Z</time>
      </trkpt>
      <trkpt lat="45.943679" lon="6.122041">
        <ele>487.595947</ele>
        <time>2021-07-03T21:17:22.807Z</time>
      </trkpt>
      <trkpt lat="45.943542" lon="6.122181">
        <ele>487.246711</ele>
        <time>2021-07-03T21:17:25.776Z</time>
      </trkpt>
      <trkpt lat="45.943512" lon="6.122255">
        <ele>487.122939</ele>
        <time>2021-07-03T21:17:26.859Z</time>
      </trkpt>
      <trkpt lat="45.943227" lon="6.122511">
        <ele>486.424685</ele>
        <time>2021-07-03T21:17:33.019Z</time>
      </trkpt>
      <trkpt lat="45.943129" lon="6.122537">
        <ele>486.217608</ele>
        <time>2021-07-03T21:17:34.835Z</time>
      </trkpt>
      <trkpt lat="45.943027" lon="6.122552">
        <ele>486.004549</ele>
        <time>2021-07-03T21:17:36.754Z</time>
      </trkpt>
      <trkpt lat="45.942929" lon="6.122556">
        <ele>485.800826</ele>
        <time>2021-07-03T21:17:38.503Z</time>
      </trkpt>
      <trkpt lat="45.942752" lon="6.122562">
        <ele>485.432923</ele>
        <time>2021-07-03T21:17:41.714Z</time>
      </trkpt>
      <trkpt lat="45.942467" lon="6.122637">
        <ele>484.827234</ele>
        <time>2021-07-03T21:17:46.916Z</time>
      </trkpt>
      <trkpt lat="45.942319" lon="6.122710">
        <ele>484.497643</ele>
        <time>2021-07-03T21:17:49.726Z</time>
      </trkpt>
      <trkpt lat="45.942206" lon="6.122687">
        <ele>484.257236</ele>
        <time>2021-07-03T21:17:51.744Z</time>
      </trkpt>
      <trkpt lat="45.942026" lon="6.122914">
        <ele>483.752918</ele>
        <time>2021-07-03T21:17:56.009Z</time>
      </trkpt>
      <trkpt lat="45.941987" lon="6.122937">
        <ele>483.664124</ele>
        <time>2021-07-03T21:17:56.773Z</time>
      </trkpt>
      <trkpt lat="45.941941" lon="6.122925">
        <ele>483.565644</ele>
        <time>2021-07-03T21:17:57.574Z</time>
      </trkpt>
      <trkpt lat="45.941734" lon="6.122831">
        <ele>483.108374</ele>
        <time>2021-07-03T21:18:01.474Z</time>
      </trkpt>
      <trkpt lat="45.941647" lon="6.122728">
        <ele>482.870991</ele>
        <time>2021-07-03T21:18:03.499Z</time>
      </trkpt>
      <trkpt lat="45.941589" lon="6.122847">
        <ele>482.658122</ele>
        <time>2021-07-03T21:18:05.351Z</time>
      </trkpt>
      <trkpt lat="45.941546" lon="6.122904">
        <ele>482.534930</ele>
        <time>2021-07-03T21:18:06.409Z</time>
      </trkpt>
      <trkpt lat="45.941476" lon="6.122902">
        <ele>482.387446</ele>
        <time>2021-07-03T21:18:07.638Z</time>
      </trkpt>
      <trkpt lat="45.940590" lon="6.122672">
        <ele>480.948592</ele>
        <time>2021-07-03T21:18:24.025Z</time>
      </trkpt>
      <trkpt lat="45.940298" lon="6.122593">
        <ele>480.673835</ele>
        <time>2021-07-03T21:18:29.701Z</time>
      </trkpt>
      <trkpt lat="45.940270" lon="6.122585">
        <ele>480.647436</ele>
        <time>2021-07-03T21:18:30.265Z</time>
      </trkpt>
      <trkpt lat="45.940193" lon="6.122564">
        <ele>480.574963</ele>
        <time>2021-07-03T21:18:31.825Z</time>
      </trkpt>
      <trkpt lat="45.940129" lon="6.122547">
        <ele>480.514780</ele>
        <time>2021-07-03T21:18:33.008Z</time>
      </trkpt>
      <trkpt lat="45.939955" lon="6.122499">
        <ele>480.350944</ele>
        <time>2021-07-03T21:18:36.444Z</time>
      </trkpt>
      <trkpt lat="45.939918" lon="6.122488">
        <ele>480.316005</ele>
        <time>2021-07-03T21:18:37.182Z</time>
      </trkpt>
      <trkpt lat="45.939663" lon="6.122418">
        <ele>480.075942</ele>
        <time>2021-07-03T21:18:42.323Z</time>
      </trkpt>
      <trkpt lat="45.939659" lon="6.122476">
        <ele>480.038461</ele>
        <time>2021-07-03T21:18:43.217Z</time>
      </trkpt>
      <trkpt lat="45.939654" lon="6.122550">
        <ele>479.990650</ele>
        <time>2021-07-03T21:18:44.362Z</time>
      </trkpt>
      <trkpt lat="45.939576" lon="6.122662">
        <ele>479.888719</ele>
        <time>2021-07-03T21:18:46.776Z</time>
      </trkpt>
      <trkpt lat="45.939184" lon="6.123119">
        <ele>479.539069</ele>
        <time>2021-07-03T21:18:58.066Z</time>
      </trkpt>
      <trkpt lat="45.939160" lon="6.123147">
        <ele>479.525594</ele>
        <time>2021-07-03T21:18:58.775Z</time>
      </trkpt>
      <trkpt lat="45.939116" lon="6.123267">
        <ele>479.484459</ele>
        <time>2021-07-03T21:19:00.886Z</time>
      </trkpt>
      <trkpt lat="45.939034" lon="6.123319">
        <ele>479.445383</ele>
        <time>2021-07-03T21:19:02.912Z</time>
      </trkpt>
      <trkpt lat="45.938598" lon="6.123570">
        <ele>479.240606</ele>
        <time>2021-07-03T21:19:13.183Z</time>
      </trkpt>
      <trkpt lat="45.938324" lon="6.123707">
        <ele>479.114118</ele>
        <time>2021-07-03T21:19:19.535Z</time>
      </trkpt>
      <trkpt lat="45.938101" lon="6.123800">
        <ele>479.012878</ele>
        <time>2021-07-03T21:19:24.305Z</time>
      </trkpt>
      <trkpt lat="45.937995" lon="6.123847">
        <ele>478.964512</ele>
        <time>2021-07-03T21:19:26.576Z</time>
      </trkpt>
      <trkpt lat="45.937976" lon="6.123855">
        <ele>478.955879</ele>
        <time>2021-07-03T21:19:27.011Z</time>
      </trkpt>
      <trkpt lat="45.937948" lon="6.123867">
        <ele>478.943140</ele>
        <time>2021-07-03T21:19:27.603Z</time>
      </trkpt>
      <trkpt lat="45.937931" lon="6.123874">
        <ele>478.935429</ele>
        <time>2021-07-03T21:19:27.950Z</time>
      </trkpt>
      <trkpt lat="45.937862" lon="6.123907">
        <ele>478.903723</ele>
        <time>2021-07-03T21:19:29.425Z</time>
      </trkpt>
      <trkpt lat="45.937778" lon="6.123968">
        <ele>478.862691</ele>
        <time>2021-07-03T21:19:31.210Z</time>
      </trkpt>
      <trkpt lat="45.937058" lon="6.124914">
        <ele>476.620542</ele>
        <time>2021-07-03T21:19:48.916Z</time>
      </trkpt>
      <trkpt lat="45.936611" lon="6.125582">
        <ele>475.128534</ele>
        <time>2021-07-03T21:19:59.452Z</time>
      </trkpt>
      <trkpt lat="45.936507" lon="6.125738">
        <ele>474.780723</ele>
        <time>2021-07-03T21:20:01.890Z</time>
      </trkpt>
      <trkpt lat="45.936476" lon="6.125770">
        <ele>474.687074</ele>
        <time>2021-07-03T21:20:02.548Z</time>
      </trkpt>
      <trkpt lat="45.936378" lon="6.125870">
        <ele>474.055735</ele>
        <time>2021-07-03T21:20:04.418Z</time>
      </trkpt>
      <trkpt lat="45.936286" lon="6.125775">
        <ele>473.460666</ele>
        <time>2021-07-03T21:20:06.147Z</time>
      </trkpt>
      <trkpt lat="45.935786" lon="6.125590">
        <ele>470.748210</ele>
        <time>2021-07-03T21:20:14.392Z</time>
      </trkpt>
      <trkpt lat="45.935537" lon="6.125488">
        <ele>469.387972</ele>
        <time>2021-07-03T21:20:18.337Z</time>
      </trkpt>
      <trkpt lat="45.935448" lon="6.125472">
        <ele>468.916746</ele>
        <time>2021-07-03T21:20:19.772Z</time>
      </trkpt>
      <trkpt lat="45.935405" lon="6.125474">
        <ele>468.690716</ele>
        <time>2021-07-03T21:20:20.450Z</time>
      </trkpt>
      <trkpt lat="45.935372" lon="6.125488">
        <ele>468.509953</ele>
        <time>2021-07-03T21:20:20.969Z</time>
      </trkpt>
      <trkpt lat="45.935344" lon="6.125507">
        <ele>468.347290</ele>
        <time>2021-07-03T21:20:21.414Z</time>
      </trkpt>
      <trkpt lat="45.935121" lon="6.126323">
        <ele>465.115749</ele>
        <time>2021-07-03T21:20:30.581Z</time>
      </trkpt>
      <trkpt lat="45.934736" lon="6.126951">
        <ele>461.224066</ele>
        <time>2021-07-03T21:20:39.052Z</time>
      </trkpt>
      <trkpt lat="45.934508" lon="6.127193">
        <ele>459.329822</ele>
        <time>2021-07-03T21:20:43.251Z</time>
      </trkpt>
      <trkpt lat="45.934465" lon="6.127175">
        <ele>459.030470</ele>
        <time>2021-07-03T21:20:43.885Z</time>
      </trkpt>
      <trkpt lat="45.934440" lon="6.127119">
        <ele>458.721124</ele>
        <time>2021-07-03T21:20:44.545Z</time>
      </trkpt>
      <trkpt lat="45.934419" lon="6.127075">
        <ele>458.473048</ele>
        <time>2021-07-03T21:20:45.063Z</time>
      </trkpt>
      <trkpt lat="45.934145" lon="6.127359">
        <ele>456.215325</ele>
        <time>2021-07-03T21:20:49.968Z</time>
      </trkpt>
      <trkpt lat="45.934081" lon="6.127424">
        <ele>455.691580</ele>
        <time>2021-07-03T21:20:51.081Z</time>
      </trkpt>
      <trkpt lat="45.933971" lon="6.127539">
        <ele>454.782508</ele>
        <time>2021-07-03T21:20:53.233Z</time>
      </trkpt>
      <trkpt lat="45.933897" lon="6.127539">
        <ele>454.287878</ele>
        <time>2021-07-03T21:20:54.298Z</time>
      </trkpt>
      <trkpt lat="45.933859" lon="6.127565">
        <ele>454.006587</ele>
        <time>2021-07-03T21:20:54.929Z</time>
      </trkpt>
      <trkpt lat="45.933830" lon="6.127602">
        <ele>453.747434</ele>
        <time>2021-07-03T21:20:55.501Z</time>
      </trkpt>
      <trkpt lat="45.933839" lon="6.127632">
        <ele>453.595549</ele>
        <time>2021-07-03T21:20:55.837Z</time>
      </trkpt>
      <trkpt lat="45.933824" lon="6.127695">
        <ele>453.285990</ele>
        <time>2021-07-03T21:20:56.524Z</time>
      </trkpt>
      <trkpt lat="45.933800" lon="6.127722">
        <ele>453.243569</ele>
        <time>2021-07-03T21:20:57.031Z</time>
      </trkpt>
      <trkpt lat="45.933752" lon="6.127776">
        <ele>453.298223</ele>
        <time>2021-07-03T21:20:58.008Z</time>
      </trkpt>
      <trkpt lat="45.933723" lon="6.127807">
        <ele>453.330628</ele>
        <time>2021-07-03T21:20:58.688Z</time>
      </trkpt>
      <trkpt lat="45.933688" lon="6.127822">
        <ele>453.363378</ele>
        <time>2021-07-03T21:20:59.287Z</time>
      </trkpt>
      <trkpt lat="45.933449" lon="6.128090">
        <ele>453.635171</ele>
        <time>2021-07-03T21:21:04.408Z</time>
      </trkpt>
      <trkpt lat="45.933478" lon="6.128144">
        <ele>453.677721</ele>
        <time>2021-07-03T21:21:05.279Z</time>
      </trkpt>
      <trkpt lat="45.933341" lon="6.128303">
        <ele>453.835603</ele>
        <time>2021-07-03T21:21:08.113Z</time>
      </trkpt>
      <trkpt lat="45.933271" lon="6.128261">
        <ele>453.903621</ele>
        <time>2021-07-03T21:21:10.668Z</time>
      </trkpt>
      <trkpt lat="45.933225" lon="6.128234">
        <ele>453.948176</ele>
        <time>2021-07-03T21:21:11.614Z</time>
      </trkpt>
      <trkpt lat="45.933244" lon="6.128180">
        <ele>453.985919</ele>
        <time>2021-07-03T21:21:12.666Z</time>
      </trkpt>
      <trkpt lat="45.933210" lon="6.128168">
        <ele>454.017314</ele>
        <time>2021-07-03T21:21:13.271Z</time>
      </trkpt>
      <trkpt lat="45.932541" lon="6.127687">
        <ele>454.688059</ele>
        <time>2021-07-03T21:21:39.536Z</time>
      </trkpt>
      <trkpt lat="45.932439" lon="6.127594">
        <ele>454.796367</ele>
        <time>2021-07-03T21:21:45.739Z</time>
      </trkpt>
      <trkpt lat="45.932387" lon="6.127537">
        <ele>454.929689</ele>
        <time>2021-07-03T21:21:50.294Z</time>
      </trkpt>
      <trkpt lat="45.931922" lon="6.126820">
        <ele>458.136829</ele>
        <time>2021-07-03T21:22:22.432Z</time>
      </trkpt>
      <trkpt lat="45.931825" lon="6.126535">
        <ele>459.174841</ele>
        <time>2021-07-03T21:22:31.607Z</time>
      </trkpt>
      <trkpt lat="45.931787" lon="6.126418">
        <ele>459.597277</ele>
        <time>2021-07-03T21:22:36.253Z</time>
      </trkpt>
      <trkpt lat="45.931734" lon="6.126332">
        <ele>459.973179</ele>
        <time>2021-07-03T21:22:41.387Z</time>
      </trkpt>
      <trkpt lat="45.931539" lon="6.126144">
        <ele>461.077509</ele>
        <time>2021-07-03T21:22:49.743Z</time>
      </trkpt>
      <trkpt lat="45.930638" lon="6.124443">
        <ele>464.749246</ele>
        <time>2021-07-03T21:23:36.638Z</time>
      </trkpt>
      <trkpt lat="45.930626" lon="6.124419">
        <ele>464.778645</ele>
        <time>2021-07-03T21:23:36.946Z</time>
      </trkpt>
      <trkpt lat="45.930504" lon="6.124178">
        <ele>465.075119</ele>
        <time>2021-07-03T21:23:41.606Z</time>
      </trkpt>
      <trkpt lat="45.930475" lon="6.123953">
        <ele>465.302721</ele>
        <time>2021-07-03T21:23:45.455Z</time>
      </trkpt>
      <trkpt lat="45.930386" lon="6.123815">
        <ele>465.489907</ele>
        <time>2021-07-03T21:23:48.561Z</time>
      </trkpt>
      <trkpt lat="45.930349" lon="6.123767">
        <ele>465.561174</ele>
        <time>2021-07-03T21:23:49.558Z</time>
      </trkpt>
      <trkpt lat="45.930302" lon="6.123755">
        <ele>465.629437</ele>
        <time>2021-07-03T21:23:50.961Z</time>
      </trkpt>
      <trkpt lat="45.930246" lon="6.123759">
        <ele>465.709618</ele>
        <time>2021-07-03T21:23:52.534Z</time>
      </trkpt>
      <trkpt lat="45.930220" lon="6.123781">
        <ele>465.752760</ele>
        <time>2021-07-03T21:23:53.511Z</time>
      </trkpt>
      <trkpt lat="45.930100" lon="6.123822">
        <ele>465.881420</ele>
        <time>2021-07-03T21:23:55.876Z</time>
      </trkpt>
      <trkpt lat="45.930035" lon="6.123801">
        <ele>465.900182</ele>
        <time>2021-07-03T21:23:57.498Z</time>
      </trkpt>
      <trkpt lat="45.929933" lon="6.123773">
        <ele>465.929427</ele>
        <time>2021-07-03T21:24:00.195Z</time>
      </trkpt>
      <trkpt lat="45.929741" lon="6.123721">
        <ele>465.984449</ele>
        <time>2021-07-03T21:24:04.446Z</time>
      </trkpt>
      <trkpt lat="45.928993" lon="6.123782">
        <ele>466.195442</ele>
        <time>2021-07-03T21:24:21.733Z</time>
      </trkpt>
      <trkpt lat="45.928844" lon="6.123801">
        <ele>466.237568</ele>
        <time>2021-07-03T21:24:25.349Z</time>
      </trkpt>
      <trkpt lat="45.928185" lon="6.123801">
        <ele>466.343903</ele>
        <time>2021-07-03T21:24:41.200Z</time>
      </trkpt>
      <trkpt lat="45.928157" lon="6.123796">
        <ele>466.338421</ele>
        <time>2021-07-03T21:24:41.835Z</time>
      </trkpt>
      <trkpt lat="45.928052" lon="6.123731">
        <ele>466.316212</ele>
        <time>2021-07-03T21:24:44.522Z</time>
      </trkpt>
      <trkpt lat="45.928026" lon="6.123733">
        <ele>466.311154</ele>
        <time>2021-07-03T21:24:45.042Z</time>
      </trkpt>
      <trkpt lat="45.927995" lon="6.123737">
        <ele>466.305107</ele>
        <time>2021-07-03T21:24:45.757Z</time>
      </trkpt>
      <trkpt lat="45.927963" lon="6.123745">
        <ele>466.298797</ele>
        <time>2021-07-03T21:24:46.562Z</time>
      </trkpt>
      <trkpt lat="45.927941" lon="6.123743">
        <ele>466.294515</ele>
        <time>2021-07-03T21:24:47.027Z</time>
      </trkpt>
      <trkpt lat="45.927833" lon="6.123693">
        <ele>466.272473</ele>
        <time>2021-07-03T21:24:49.689Z</time>
      </trkpt>
      <trkpt lat="45.927810" lon="6.123667">
        <ele>466.266789</ele>
        <time>2021-07-03T21:24:50.328Z</time>
      </trkpt>
      <trkpt lat="45.927793" lon="6.123605">
        <ele>466.257783</ele>
        <time>2021-07-03T21:24:51.362Z</time>
      </trkpt>
      <trkpt lat="45.927773" lon="6.123539">
        <ele>466.248055</ele>
        <time>2021-07-03T21:24:52.512Z</time>
      </trkpt>
      <trkpt lat="45.927738" lon="6.123459">
        <ele>466.235284</ele>
        <time>2021-07-03T21:24:53.917Z</time>
      </trkpt>
      <trkpt lat="45.927695" lon="6.123434">
        <ele>466.226274</ele>
        <time>2021-07-03T21:24:54.957Z</time>
      </trkpt>
      <trkpt lat="45.927621" lon="6.123410">
        <ele>466.211536</ele>
        <time>2021-07-03T21:24:56.533Z</time>
      </trkpt>
      <trkpt lat="45.927549" lon="6.123392">
        <ele>466.197339</ele>
        <time>2021-07-03T21:24:58.079Z</time>
      </trkpt>
      <trkpt lat="45.927478" lon="6.123383">
        <ele>466.183492</ele>
        <time>2021-07-03T21:24:59.629Z</time>
      </trkpt>
      <trkpt lat="45.927434" lon="6.123412">
        <ele>466.174089</ele>
        <time>2021-07-03T21:25:00.724Z</time>
      </trkpt>
      <trkpt lat="45.927148" lon="6.123748">
        <ele>466.102336</ele>
        <time>2021-07-03T21:25:08.205Z</time>
      </trkpt>
      <trkpt lat="45.927098" lon="6.123755">
        <ele>466.092576</ele>
        <time>2021-07-03T21:25:09.327Z</time>
      </trkpt>
      <trkpt lat="45.927098" lon="6.123828">
        <ele>466.082712</ele>
        <time>2021-07-03T21:25:10.357Z</time>
      </trkpt>
      <trkpt lat="45.927099" lon="6.123873">
        <ele>466.076628</ele>
        <time>2021-07-03T21:25:10.997Z</time>
      </trkpt>
      <trkpt lat="45.927066" lon="6.123876">
        <ele>466.070204</ele>
        <time>2021-07-03T21:25:11.579Z</time>
      </trkpt>
      <trkpt lat="45.927066" lon="6.123945">
        <ele>466.060880</ele>
        <time>2021-07-03T21:25:12.500Z</time>
      </trkpt>
      <trkpt lat="45.927067" lon="6.124098">
        <ele>466.040205</ele>
        <time>2021-07-03T21:25:14.694Z</time>
      </trkpt>
      <trkpt lat="45.926717" lon="6.124003">
        <ele>465.849118</ele>
        <time>2021-07-03T21:25:21.799Z</time>
      </trkpt>
      <trkpt lat="45.926610" lon="6.124011">
        <ele>465.782854</ele>
        <time>2021-07-03T21:25:24.099Z</time>
      </trkpt>
      <trkpt lat="45.926517" lon="6.124057">
        <ele>465.722029</ele>
        <time>2021-07-03T21:25:25.982Z</time>
      </trkpt>
      <trkpt lat="45.926490" lon="6.124067">
        <ele>465.704785</ele>
        <time>2021-07-03T21:25:26.493Z</time>
      </trkpt>
      <trkpt lat="45.926172" lon="6.124066">
        <ele>465.508117</ele>
        <time>2021-07-03T21:25:33.452Z</time>
      </trkpt>
      <trkpt lat="45.926165" lon="6.124054">
        <ele>465.501379</ele>
        <time>2021-07-03T21:25:33.623Z</time>
      </trkpt>
      <trkpt lat="45.926147" lon="6.124024">
        <ele>465.484336</ele>
        <time>2021-07-03T21:25:34.142Z</time>
      </trkpt>
      <trkpt lat="45.926132" lon="6.124010">
        <ele>465.473276</ele>
        <time>2021-07-03T21:25:34.527Z</time>
      </trkpt>
      <trkpt lat="45.926118" lon="6.124007">
        <ele>465.464522</ele>
        <time>2021-07-03T21:25:34.811Z</time>
      </trkpt>
      <trkpt lat="45.926026" lon="6.124008">
        <ele>465.407622</ele>
        <time>2021-07-03T21:25:36.886Z</time>
      </trkpt>
      <trkpt lat="45.925881" lon="6.124010">
        <ele>465.317942</ele>
        <time>2021-07-03T21:25:39.969Z</time>
      </trkpt>
      <trkpt lat="45.925862" lon="6.124010">
        <ele>465.306192</ele>
        <time>2021-07-03T21:25:40.364Z</time>
      </trkpt>
      <trkpt lat="45.925541" lon="6.124013">
        <ele>465.107664</ele>
        <time>2021-07-03T21:25:46.795Z</time>
      </trkpt>
      <trkpt lat="45.925313" lon="6.124013">
        <ele>464.966657</ele>
        <time>2021-07-03T21:25:51.092Z</time>
      </trkpt>
      <trkpt lat="45.924453" lon="6.124008">
        <ele>464.280033</ele>
        <time>2021-07-03T21:26:07.808Z</time>
      </trkpt>
      <trkpt lat="45.924096" lon="6.124006">
        <ele>463.988014</ele>
        <time>2021-07-03T21:26:14.965Z</time>
      </trkpt>
      <trkpt lat="45.923834" lon="6.124005">
        <ele>463.773704</ele>
        <time>2021-07-03T21:26:20.273Z</time>
      </trkpt>
      <trkpt lat="45.923777" lon="6.123996">
        <ele>463.726799</ele>
        <time>2021-07-03T21:26:21.439Z</time>
      </trkpt>
      <trkpt lat="45.923608" lon="6.123978">
        <ele>463.588183</ele>
        <time>2021-07-03T21:26:24.783Z</time>
      </trkpt>
      <trkpt lat="45.923358" lon="6.123950">
        <ele>463.378372</ele>
        <time>2021-07-03T21:26:29.772Z</time>
      </trkpt>
      <trkpt lat="45.923255" lon="6.123936">
        <ele>463.287135</ele>
        <time>2021-07-03T21:26:31.791Z</time>
      </trkpt>
      <trkpt lat="45.923231" lon="6.123916">
        <ele>463.262671</ele>
        <time>2021-07-03T21:26:32.361Z</time>
      </trkpt>
      <trkpt lat="45.923192" lon="6.123882">
        <ele>463.222448</ele>
        <time>2021-07-03T21:26:33.250Z</time>
      </trkpt>
      <trkpt lat="45.923206" lon="6.123874">
        <ele>463.209163</ele>
        <time>2021-07-03T21:26:33.544Z</time>
      </trkpt>
      <trkpt lat="45.923219" lon="6.123863">
        <ele>463.195860</ele>
        <time>2021-07-03T21:26:33.841Z</time>
      </trkpt>
      <trkpt lat="45.923231" lon="6.123850">
        <ele>463.182609</ele>
        <time>2021-07-03T21:26:34.143Z</time>
      </trkpt>
      <trkpt lat="45.923242" lon="6.123833">
        <ele>463.168366</ele>
        <time>2021-07-03T21:26:34.459Z</time>
      </trkpt>
      <trkpt lat="45.923265" lon="6.123747">
        <ele>463.111845</ele>
        <time>2021-07-03T21:26:35.743Z</time>
      </trkpt>
      <trkpt lat="45.923265" lon="6.123723">
        <ele>463.097123</ele>
        <time>2021-07-03T21:26:36.052Z</time>
      </trkpt>
      <trkpt lat="45.923263" lon="6.123700">
        <ele>463.082904</ele>
        <time>2021-07-03T21:26:36.361Z</time>
      </trkpt>
      <trkpt lat="45.923251" lon="6.123658">
        <ele>463.055051</ele>
        <time>2021-07-03T21:26:37.000Z</time>
      </trkpt>
      <trkpt lat="45.923242" lon="6.123639">
        <ele>463.040949</ele>
        <time>2021-07-03T21:26:37.296Z</time>
      </trkpt>
      <trkpt lat="45.923231" lon="6.123623">
        <ele>463.027150</ele>
        <time>2021-07-03T21:26:37.591Z</time>
      </trkpt>
      <trkpt lat="45.923191" lon="6.123590">
        <ele>462.986479</ele>
        <time>2021-07-03T21:26:38.512Z</time>
      </trkpt>
      <trkpt lat="45.923176" lon="6.123584">
        <ele>462.972748</ele>
        <time>2021-07-03T21:26:38.802Z</time>
      </trkpt>
      <trkpt lat="45.923159" lon="6.123583">
        <ele>462.957744</ele>
        <time>2021-07-03T21:26:39.142Z</time>
      </trkpt>
      <trkpt lat="45.923074" lon="6.123642">
        <ele>462.874505</ele>
        <time>2021-07-03T21:26:40.985Z</time>
      </trkpt>
      <trkpt lat="45.923065" lon="6.123662">
        <ele>462.859893</ele>
        <time>2021-07-03T21:26:41.315Z</time>
      </trkpt>
      <trkpt lat="45.923057" lon="6.123688">
        <ele>462.842453</ele>
        <time>2021-07-03T21:26:41.704Z</time>
      </trkpt>
      <trkpt lat="45.923053" lon="6.123716">
        <ele>462.824918</ele>
        <time>2021-07-03T21:26:42.101Z</time>
      </trkpt>
      <trkpt lat="45.923008" lon="6.123739">
        <ele>462.782800</ele>
        <time>2021-07-03T21:26:43.018Z</time>
      </trkpt>
      <trkpt lat="45.922977" lon="6.123755">
        <ele>462.753754</ele>
        <time>2021-07-03T21:26:43.630Z</time>
      </trkpt>
      <trkpt lat="45.922909" lon="6.123782">
        <ele>462.691542</ele>
        <time>2021-07-03T21:26:45.008Z</time>
      </trkpt>
      <trkpt lat="45.922659" lon="6.123839">
        <ele>462.468320</ele>
        <time>2021-07-03T21:26:49.950Z</time>
      </trkpt>
      <trkpt lat="45.922513" lon="6.123841">
        <ele>462.339562</ele>
        <time>2021-07-03T21:26:52.760Z</time>
      </trkpt>
      <trkpt lat="45.922452" lon="6.123843">
        <ele>462.285754</ele>
        <time>2021-07-03T21:26:53.956Z</time>
      </trkpt>
      <trkpt lat="45.922033" lon="6.123853">
        <ele>461.916202</ele>
        <time>2021-07-03T21:27:02.109Z</time>
      </trkpt>
      <trkpt lat="45.921591" lon="6.123847">
        <ele>461.444415</ele>
        <time>2021-07-03T21:27:10.767Z</time>
      </trkpt>
      <trkpt lat="45.921526" lon="6.123841">
        <ele>461.372733</ele>
        <time>2021-07-03T21:27:12.040Z</time>
      </trkpt>
      <trkpt lat="45.920767" lon="6.123843">
        <ele>460.537434</ele>
        <time>2021-07-03T21:27:26.638Z</time>
      </trkpt>
      <trkpt lat="45.919956" lon="6.123833">
        <ele>459.609086</ele>
        <time>2021-07-03T21:27:41.658Z</time>
      </trkpt>
      <trkpt lat="45.919921" lon="6.123832">
        <ele>459.564636</ele>
        <time>2021-07-03T21:27:42.321Z</time>
      </trkpt>
      <trkpt lat="45.919660" lon="6.123828">
        <ele>459.233208</ele>
        <time>2021-07-03T21:27:47.181Z</time>
      </trkpt>
      <trkpt lat="45.919644" lon="6.123828">
        <ele>459.212891</ele>
        <time>2021-07-03T21:27:47.483Z</time>
      </trkpt>
      <trkpt lat="45.919620" lon="6.123828">
        <ele>459.182417</ele>
        <time>2021-07-03T21:27:47.919Z</time>
      </trkpt>
      <trkpt lat="45.919500" lon="6.123825">
        <ele>459.030022</ele>
        <time>2021-07-03T21:27:50.210Z</time>
      </trkpt>
      <trkpt lat="45.919358" lon="6.123828">
        <ele>458.849695</ele>
        <time>2021-07-03T21:27:52.820Z</time>
      </trkpt>
      <trkpt lat="45.919324" lon="6.123828">
        <ele>458.806523</ele>
        <time>2021-07-03T21:27:53.487Z</time>
      </trkpt>
      <trkpt lat="45.919062" lon="6.123827">
        <ele>458.473843</ele>
        <time>2021-07-03T21:27:58.423Z</time>
      </trkpt>
      <trkpt lat="45.918630" lon="6.123825">
        <ele>457.925301</ele>
        <time>2021-07-03T21:28:06.490Z</time>
      </trkpt>
      <trkpt lat="45.918352" lon="6.123824">
        <ele>457.580061</ele>
        <time>2021-07-03T21:28:11.756Z</time>
      </trkpt>
      <trkpt lat="45.918302" lon="6.123823">
        <ele>457.539538</ele>
        <time>2021-07-03T21:28:12.674Z</time>
      </trkpt>
      <trkpt lat="45.917759" lon="6.123818">
        <ele>457.099496</ele>
        <time>2021-07-03T21:28:22.992Z</time>
      </trkpt>
      <trkpt lat="45.917506" lon="6.123816">
        <ele>456.894469</ele>
        <time>2021-07-03T21:28:27.942Z</time>
      </trkpt>
      <trkpt lat="45.917164" lon="6.123820">
        <ele>456.617311</ele>
        <time>2021-07-03T21:28:34.866Z</time>
      </trkpt>
      <trkpt lat="45.917094" lon="6.123820">
        <ele>456.560585</ele>
        <time>2021-07-03T21:28:36.327Z</time>
      </trkpt>
      <trkpt lat="45.916280" lon="6.123828">
        <ele>455.985701</ele>
        <time>2021-07-03T21:28:53.185Z</time>
      </trkpt>
      <trkpt lat="45.915885" lon="6.123824">
        <ele>455.780952</ele>
        <time>2021-07-03T21:29:01.218Z</time>
      </trkpt>
      <trkpt lat="45.915361" lon="6.123809">
        <ele>455.509289</ele>
        <time>2021-07-03T21:29:11.906Z</time>
      </trkpt>
      <trkpt lat="45.915233" lon="6.123805">
        <ele>455.442926</ele>
        <time>2021-07-03T21:29:14.541Z</time>
      </trkpt>
      <trkpt lat="45.915047" lon="6.123790">
        <ele>455.346364</ele>
        <time>2021-07-03T21:29:18.330Z</time>
      </trkpt>
      <trkpt lat="45.914911" lon="6.123728">
        <ele>455.272409</ele>
        <time>2021-07-03T21:29:21.255Z</time>
      </trkpt>
      <trkpt lat="45.914798" lon="6.123662">
        <ele>455.209186</ele>
        <time>2021-07-03T21:29:23.730Z</time>
      </trkpt>
      <trkpt lat="45.914733" lon="6.123630">
        <ele>455.171418</ele>
        <time>2021-07-03T21:29:25.110Z</time>
      </trkpt>
      <trkpt lat="45.914678" lon="6.123623">
        <ele>455.140762</ele>
        <time>2021-07-03T21:29:26.231Z</time>
      </trkpt>
      <trkpt lat="45.914660" lon="6.123578">
        <ele>455.120712</ele>
        <time>2021-07-03T21:29:26.963Z</time>
      </trkpt>
      <trkpt lat="45.914601" lon="6.123521">
        <ele>455.081243</ele>
        <time>2021-07-03T21:29:28.444Z</time>
      </trkpt>
      <trkpt lat="45.914565" lon="6.123514">
        <ele>455.061074</ele>
        <time>2021-07-03T21:29:29.173Z</time>
      </trkpt>
      <trkpt lat="45.914532" lon="6.123523">
        <ele>455.042425</ele>
        <time>2021-07-03T21:29:29.852Z</time>
      </trkpt>
      <trkpt lat="45.914476" lon="6.123578">
        <ele>455.004769</ele>
        <time>2021-07-03T21:29:31.225Z</time>
      </trkpt>
      <trkpt lat="45.914459" lon="6.123620">
        <ele>454.986000</ele>
        <time>2021-07-03T21:29:31.906Z</time>
      </trkpt>
      <trkpt lat="45.914453" lon="6.123653">
        <ele>454.972825</ele>
        <time>2021-07-03T21:29:32.395Z</time>
      </trkpt>
      <trkpt lat="45.914451" lon="6.123688">
        <ele>454.959260</ele>
        <time>2021-07-03T21:29:32.890Z</time>
      </trkpt>
      <trkpt lat="45.914372" lon="6.123766">
        <ele>454.906047</ele>
        <time>2021-07-03T21:29:34.841Z</time>
      </trkpt>
      <trkpt lat="45.914314" lon="6.123805">
        <ele>454.870496</ele>
        <time>2021-07-03T21:29:36.159Z</time>
      </trkpt>
      <trkpt lat="45.914242" lon="6.123815">
        <ele>454.830335</ele>
        <time>2021-07-03T21:29:37.613Z</time>
      </trkpt>
      <trkpt lat="45.914071" lon="6.123810">
        <ele>454.735376</ele>
        <time>2021-07-03T21:29:41.077Z</time>
      </trkpt>
      <trkpt lat="45.913246" lon="6.123812">
        <ele>454.277334</ele>
        <time>2021-07-03T21:29:57.916Z</time>
      </trkpt>
      <trkpt lat="45.912234" lon="6.123807">
        <ele>453.697018</ele>
        <time>2021-07-03T21:30:18.504Z</time>
      </trkpt>
      <trkpt lat="45.911992" lon="6.123806">
        <ele>453.557598</ele>
        <time>2021-07-03T21:30:23.425Z</time>
      </trkpt>
      <trkpt lat="45.911867" lon="6.123761">
        <ele>453.483359</ele>
        <time>2021-07-03T21:30:26.050Z</time>
      </trkpt>
      <trkpt lat="45.911801" lon="6.123734">
        <ele>453.443825</ele>
        <time>2021-07-03T21:30:27.468Z</time>
      </trkpt>
      <trkpt lat="45.911796" lon="6.123722">
        <ele>453.438219</ele>
        <time>2021-07-03T21:30:27.669Z</time>
      </trkpt>
      <trkpt lat="45.911774" lon="6.123684">
        <ele>453.418403</ele>
        <time>2021-07-03T21:30:28.344Z</time>
      </trkpt>
      <trkpt lat="45.911649" lon="6.123675">
        <ele>453.346299</ele>
        <time>2021-07-03T21:30:30.844Z</time>
      </trkpt>
      <trkpt lat="45.911625" lon="6.123709">
        <ele>453.326884</ele>
        <time>2021-07-03T21:30:31.463Z</time>
      </trkpt>
      <trkpt lat="45.911618" lon="6.123723">
        <ele>453.319974</ele>
        <time>2021-07-03T21:30:31.719Z</time>
      </trkpt>
      <trkpt lat="45.911545" lon="6.123759">
        <ele>453.275511</ele>
        <time>2021-07-03T21:30:33.333Z</time>
      </trkpt>
      <trkpt lat="45.911427" lon="6.123802">
        <ele>453.205378</ele>
        <time>2021-07-03T21:30:35.822Z</time>
      </trkpt>
      <trkpt lat="45.911287" lon="6.123803">
        <ele>453.143797</ele>
        <time>2021-07-03T21:30:38.568Z</time>
      </trkpt>
      <trkpt lat="45.910263" lon="6.123796">
        <ele>452.807827</ele>
        <time>2021-07-03T21:30:59.871Z</time>
      </trkpt>
      <trkpt lat="45.910200" lon="6.123795">
        <ele>452.787156</ele>
        <time>2021-07-03T21:31:01.129Z</time>
      </trkpt>
      <trkpt lat="45.910053" lon="6.123796">
        <ele>452.738926</ele>
        <time>2021-07-03T21:31:04.420Z</time>
      </trkpt>
      <trkpt lat="45.909893" lon="6.123799">
        <ele>452.686427</ele>
        <time>2021-07-03T21:31:07.812Z</time>
      </trkpt>
      <trkpt lat="45.909780" lon="6.123799">
        <ele>452.649353</ele>
        <time>2021-07-03T21:31:10.298Z</time>
      </trkpt>
      <trkpt lat="45.909148" lon="6.123801">
        <ele>452.507113</ele>
        <time>2021-07-03T21:31:24.408Z</time>
      </trkpt>
      <trkpt lat="45.909063" lon="6.123801">
        <ele>452.492488</ele>
        <time>2021-07-03T21:31:26.310Z</time>
      </trkpt>
      <trkpt lat="45.908319" lon="6.123800">
        <ele>452.364480</ele>
        <time>2021-07-03T21:31:42.602Z</time>
      </trkpt>
      <trkpt lat="45.908043" lon="6.123798">
        <ele>452.316993</ele>
        <time>2021-07-03T21:31:48.534Z</time>
      </trkpt>
      <trkpt lat="45.907938" lon="6.123797">
        <ele>452.298927</ele>
        <time>2021-07-03T21:31:50.712Z</time>
      </trkpt>
      <trkpt lat="45.907768" lon="6.123790">
        <ele>452.269665</ele>
        <time>2021-07-03T21:31:54.241Z</time>
      </trkpt>
      <trkpt lat="45.907539" lon="6.123787">
        <ele>452.100551</ele>
        <time>2021-07-03T21:31:58.982Z</time>
      </trkpt>
      <trkpt lat="45.907503" lon="6.123787">
        <ele>452.073853</ele>
        <time>2021-07-03T21:31:59.725Z</time>
      </trkpt>
      <trkpt lat="45.907326" lon="6.123787">
        <ele>451.942588</ele>
        <time>2021-07-03T21:32:03.348Z</time>
      </trkpt>
      <trkpt lat="45.906796" lon="6.123785">
        <ele>451.549532</ele>
        <time>2021-07-03T21:32:14.023Z</time>
      </trkpt>
      <trkpt lat="45.906398" lon="6.123783">
        <ele>451.254370</ele>
        <time>2021-07-03T21:32:21.801Z</time>
      </trkpt>
      <trkpt lat="45.906339" lon="6.123782">
        <ele>451.210611</ele>
        <time>2021-07-03T21:32:22.908Z</time>
      </trkpt>
      <trkpt lat="45.906260" lon="6.123782">
        <ele>451.152024</ele>
        <time>2021-07-03T21:32:24.438Z</time>
      </trkpt>
      <trkpt lat="45.906093" lon="6.123785">
        <ele>451.028165</ele>
        <time>2021-07-03T21:32:27.645Z</time>
      </trkpt>
      <trkpt lat="45.906019" lon="6.123780">
        <ele>450.973226</ele>
        <time>2021-07-03T21:32:29.022Z</time>
      </trkpt>
      <trkpt lat="45.905913" lon="6.123774">
        <ele>450.872815</ele>
        <time>2021-07-03T21:32:31.027Z</time>
      </trkpt>
      <trkpt lat="45.905807" lon="6.123736">
        <ele>450.748839</ele>
        <time>2021-07-03T21:32:33.137Z</time>
      </trkpt>
      <trkpt lat="45.905644" lon="6.123723">
        <ele>450.563579</ele>
        <time>2021-07-03T21:32:36.199Z</time>
      </trkpt>
      <trkpt lat="45.905565" lon="6.123737">
        <ele>450.473249</ele>
        <time>2021-07-03T21:32:37.706Z</time>
      </trkpt>
      <trkpt lat="45.905499" lon="6.123808">
        <ele>450.379692</ele>
        <time>2021-07-03T21:32:39.301Z</time>
      </trkpt>
      <trkpt lat="45.905460" lon="6.123821">
        <ele>450.334259</ele>
        <time>2021-07-03T21:32:40.078Z</time>
      </trkpt>
      <trkpt lat="45.905382" lon="6.123849">
        <ele>450.243024</ele>
        <time>2021-07-03T21:32:41.571Z</time>
      </trkpt>
      <trkpt lat="45.905135" lon="6.123968">
        <ele>449.947392</ele>
        <time>2021-07-03T21:32:46.537Z</time>
      </trkpt>
      <trkpt lat="45.904741" lon="6.124183">
        <ele>449.469125</ele>
        <time>2021-07-03T21:32:54.553Z</time>
      </trkpt>
      <trkpt lat="45.904500" lon="6.124307">
        <ele>449.178634</ele>
        <time>2021-07-03T21:32:59.459Z</time>
      </trkpt>
      <trkpt lat="45.904442" lon="6.124336">
        <ele>449.108944</ele>
        <time>2021-07-03T21:33:00.618Z</time>
      </trkpt>
      <trkpt lat="45.904382" lon="6.124368">
        <ele>449.036318</ele>
        <time>2021-07-03T21:33:01.820Z</time>
      </trkpt>
      <trkpt lat="45.904337" lon="6.124391">
        <ele>448.982117</ele>
        <time>2021-07-03T21:33:02.724Z</time>
      </trkpt>
      <trkpt lat="45.904155" lon="6.124531">
        <ele>448.772764</ele>
        <time>2021-07-03T21:33:06.624Z</time>
      </trkpt>
      <trkpt lat="45.904045" lon="6.124622">
        <ele>448.653207</ele>
        <time>2021-07-03T21:33:09.001Z</time>
      </trkpt>
      <trkpt lat="45.903958" lon="6.124699">
        <ele>448.556963</ele>
        <time>2021-07-03T21:33:10.925Z</time>
      </trkpt>
      <trkpt lat="45.903851" lon="6.124744">
        <ele>448.451947</ele>
        <time>2021-07-03T21:33:13.016Z</time>
      </trkpt>
      <trkpt lat="45.903815" lon="6.124736">
        <ele>448.417634</ele>
        <time>2021-07-03T21:33:13.691Z</time>
      </trkpt>
      <trkpt lat="45.903779" lon="6.124708">
        <ele>448.379076</ele>
        <time>2021-07-03T21:33:14.478Z</time>
      </trkpt>
      <trkpt lat="45.903745" lon="6.124646">
        <ele>448.327334</ele>
        <time>2021-07-03T21:33:15.548Z</time>
      </trkpt>
      <trkpt lat="45.903723" lon="6.124585">
        <ele>448.282299</ele>
        <time>2021-07-03T21:33:16.462Z</time>
      </trkpt>
      <trkpt lat="45.903708" lon="6.124520">
        <ele>448.237412</ele>
        <time>2021-07-03T21:33:17.383Z</time>
      </trkpt>
      <trkpt lat="45.903662" lon="6.124317">
        <ele>448.097475</ele>
        <time>2021-07-03T21:33:20.211Z</time>
      </trkpt>
      <trkpt lat="45.903529" lon="6.124162">
        <ele>447.936177</ele>
        <time>2021-07-03T21:33:23.577Z</time>
      </trkpt>
      <trkpt lat="45.903365" lon="6.124041">
        <ele>447.762527</ele>
        <time>2021-07-03T21:33:27.149Z</time>
      </trkpt>
      <trkpt lat="45.903327" lon="6.124012">
        <ele>447.721999</ele>
        <time>2021-07-03T21:33:28.001Z</time>
      </trkpt>
      <trkpt lat="45.903276" lon="6.123971">
        <ele>447.666953</ele>
        <time>2021-07-03T21:33:29.192Z</time>
      </trkpt>
      <trkpt lat="45.903218" lon="6.123918">
        <ele>447.602210</ele>
        <time>2021-07-03T21:33:30.565Z</time>
      </trkpt>
      <trkpt lat="45.903147" lon="6.123858">
        <ele>447.524625</ele>
        <time>2021-07-03T21:33:32.213Z</time>
      </trkpt>
      <trkpt lat="45.903073" lon="6.123787">
        <ele>447.440813</ele>
        <time>2021-07-03T21:33:33.972Z</time>
      </trkpt>
      <trkpt lat="45.902977" lon="6.123691">
        <ele>447.330646</ele>
        <time>2021-07-03T21:33:36.335Z</time>
      </trkpt>
      <trkpt lat="45.902853" lon="6.123535">
        <ele>447.183286</ele>
        <time>2021-07-03T21:33:39.689Z</time>
      </trkpt>
      <trkpt lat="45.902831" lon="6.123507">
        <ele>447.164401</ele>
        <time>2021-07-03T21:33:40.274Z</time>
      </trkpt>
      <trkpt lat="45.902710" lon="6.123343">
        <ele>447.057515</ele>
        <time>2021-07-03T21:33:43.674Z</time>
      </trkpt>
      <trkpt lat="45.902119" lon="6.122526">
        <ele>446.530524</ele>
        <time>2021-07-03T21:34:00.436Z</time>
      </trkpt>
      <trkpt lat="45.902055" lon="6.122440">
        <ele>446.474216</ele>
        <time>2021-07-03T21:34:02.204Z</time>
      </trkpt>
      <trkpt lat="45.901729" lon="6.122003">
        <ele>446.187725</ele>
        <time>2021-07-03T21:34:11.215Z</time>
      </trkpt>
      <trkpt lat="45.901692" lon="6.121956">
        <ele>446.155990</ele>
        <time>2021-07-03T21:34:12.206Z</time>
      </trkpt>
      <trkpt lat="45.901606" lon="6.121840">
        <ele>446.080193</ele>
        <time>2021-07-03T21:34:14.537Z</time>
      </trkpt>
      <trkpt lat="45.901567" lon="6.121794">
        <ele>446.047770</ele>
        <time>2021-07-03T21:34:15.545Z</time>
      </trkpt>
      <trkpt lat="45.901504" lon="6.121721">
        <ele>445.974112</ele>
        <time>2021-07-03T21:34:17.136Z</time>
      </trkpt>
      <trkpt lat="45.901483" lon="6.121606">
        <ele>445.897255</ele>
        <time>2021-07-03T21:34:19.358Z</time>
      </trkpt>
      <trkpt lat="45.901441" lon="6.121409">
        <ele>445.764065</ele>
        <time>2021-07-03T21:34:23.141Z</time>
      </trkpt>
      <trkpt lat="45.901408" lon="6.121241">
        <ele>445.651219</ele>
        <time>2021-07-03T21:34:26.370Z</time>
      </trkpt>
      <trkpt lat="45.901382" lon="6.121137">
        <ele>445.579783</ele>
        <time>2021-07-03T21:34:28.401Z</time>
      </trkpt>
      <trkpt lat="45.901347" lon="6.121101">
        <ele>445.539800</ele>
        <time>2021-07-03T21:34:29.548Z</time>
      </trkpt>
      <trkpt lat="45.901308" lon="6.121096">
        <ele>445.503428</ele>
        <time>2021-07-03T21:34:30.559Z</time>
      </trkpt>
      <trkpt lat="45.901159" lon="6.121164">
        <ele>445.358205</ele>
        <time>2021-07-03T21:34:34.691Z</time>
      </trkpt>
      <trkpt lat="45.901067" lon="6.121205">
        <ele>445.268727</ele>
        <time>2021-07-03T21:34:37.230Z</time>
      </trkpt>
      <trkpt lat="45.901010" lon="6.121234">
        <ele>445.212558</ele>
        <time>2021-07-03T21:34:38.813Z</time>
      </trkpt>
      <trkpt lat="45.900972" lon="6.121125">
        <ele>445.133748</ele>
        <time>2021-07-03T21:34:40.995Z</time>
      </trkpt>
      <trkpt lat="45.900857" lon="6.120987">
        <ele>444.994571</ele>
        <time>2021-07-03T21:34:44.940Z</time>
      </trkpt>
      <trkpt lat="45.900674" lon="6.120706">
        <ele>444.745783</ele>
        <time>2021-07-03T21:34:50.059Z</time>
      </trkpt>
      <trkpt lat="45.900597" lon="6.120589">
        <ele>444.641683</ele>
        <time>2021-07-03T21:34:52.214Z</time>
      </trkpt>
      <trkpt lat="45.900475" lon="6.120415">
        <ele>444.482009</ele>
        <time>2021-07-03T21:34:55.492Z</time>
      </trkpt>
      <trkpt lat="45.900414" lon="6.120329">
        <ele>444.402626</ele>
        <time>2021-07-03T21:34:57.161Z</time>
      </trkpt>
      <trkpt lat="45.900021" lon="6.119774">
        <ele>444.019865</ele>
        <time>2021-07-03T21:35:07.868Z</time>
      </trkpt>
      <trkpt lat="45.899689" lon="6.119306">
        <ele>443.703367</ele>
        <time>2021-07-03T21:35:17.030Z</time>
      </trkpt>
      <trkpt lat="45.899532" lon="6.119082">
        <ele>443.552803</ele>
        <time>2021-07-03T21:35:21.506Z</time>
      </trkpt>
      <trkpt lat="45.899316" lon="6.118783">
        <ele>443.348698</ele>
        <time>2021-07-03T21:35:27.630Z</time>
      </trkpt>
      <trkpt lat="45.899250" lon="6.118690">
        <ele>443.285791</ele>
        <time>2021-07-03T21:35:29.553Z</time>
      </trkpt>
      <trkpt lat="45.899134" lon="6.118523">
        <ele>443.174046</ele>
        <time>2021-07-03T21:35:32.992Z</time>
      </trkpt>
      <trkpt lat="45.899017" lon="6.118346">
        <ele>443.152710</ele>
        <time>2021-07-03T21:35:36.626Z</time>
      </trkpt>
      <trkpt lat="45.899000" lon="6.118309">
        <ele>443.153447</ele>
        <time>2021-07-03T21:35:37.284Z</time>
      </trkpt>
      <trkpt lat="45.898978" lon="6.118274">
        <ele>443.154230</ele>
        <time>2021-07-03T21:35:37.999Z</time>
      </trkpt>
      <trkpt lat="45.898913" lon="6.118207">
        <ele>443.156140</ele>
        <time>2021-07-03T21:35:39.806Z</time>
      </trkpt>
      <trkpt lat="45.898904" lon="6.118126">
        <ele>443.157502</ele>
        <time>2021-07-03T21:35:41.103Z</time>
      </trkpt>
      <trkpt lat="45.898882" lon="6.118073">
        <ele>443.158528</ele>
        <time>2021-07-03T21:35:42.080Z</time>
      </trkpt>
      <trkpt lat="45.898849" lon="6.118034">
        <ele>443.159548</ele>
        <time>2021-07-03T21:35:43.062Z</time>
      </trkpt>
      <trkpt lat="45.898810" lon="6.118011">
        <ele>443.160554</ele>
        <time>2021-07-03T21:35:44.031Z</time>
      </trkpt>
      <trkpt lat="45.898774" lon="6.118008">
        <ele>443.161415</ele>
        <time>2021-07-03T21:35:44.805Z</time>
      </trkpt>
      <trkpt lat="45.898734" lon="6.118020">
        <ele>443.162390</ele>
        <time>2021-07-03T21:35:45.688Z</time>
      </trkpt>
      <trkpt lat="45.898673" lon="6.118094">
        <ele>443.164296</ele>
        <time>2021-07-03T21:35:47.509Z</time>
      </trkpt>
      <trkpt lat="45.898656" lon="6.118148">
        <ele>443.165280</ele>
        <time>2021-07-03T21:35:48.440Z</time>
      </trkpt>
      <trkpt lat="45.898653" lon="6.118214">
        <ele>443.166379</ele>
        <time>2021-07-03T21:35:49.506Z</time>
      </trkpt>
      <trkpt lat="45.898594" lon="6.118375">
        <ele>443.169402</ele>
        <time>2021-07-03T21:35:52.442Z</time>
      </trkpt>
      <trkpt lat="45.898526" lon="6.118502">
        <ele>443.172064</ele>
        <time>2021-07-03T21:35:54.957Z</time>
      </trkpt>
      <trkpt lat="45.898441" lon="6.118710">
        <ele>443.176071</ele>
        <time>2021-07-03T21:35:58.882Z</time>
      </trkpt>
      <trkpt lat="45.898311" lon="6.118931">
        <ele>443.180878</ele>
        <time>2021-07-03T21:36:03.490Z</time>
      </trkpt>
      <trkpt lat="45.898119" lon="6.119128">
        <ele>443.186510</ele>
        <time>2021-07-03T21:36:09.050Z</time>
      </trkpt>
      <trkpt lat="45.898081" lon="6.119179">
        <ele>443.187751</ele>
        <time>2021-07-03T21:36:10.158Z</time>
      </trkpt>
      <trkpt lat="45.898059" lon="6.119207">
        <ele>443.188453</ele>
        <time>2021-07-03T21:36:10.797Z</time>
      </trkpt>
      <trkpt lat="45.897904" lon="6.119421">
        <ele>443.196309</ele>
        <time>2021-07-03T21:36:15.643Z</time>
      </trkpt>
      <trkpt lat="45.897880" lon="6.119462">
        <ele>443.199340</ele>
        <time>2021-07-03T21:36:16.551Z</time>
      </trkpt>
      <trkpt lat="45.897655" lon="6.119137">
        <ele>443.225273</ele>
        <time>2021-07-03T21:36:25.842Z</time>
      </trkpt>
      <trkpt lat="45.897244" lon="6.118685">
        <ele>443.267343</ele>
        <time>2021-07-03T21:36:41.020Z</time>
      </trkpt>
      <trkpt lat="45.897170" lon="6.118622">
        <ele>443.274334</ele>
        <time>2021-07-03T21:36:43.477Z</time>
      </trkpt>
      <trkpt lat="45.897011" lon="6.118488">
        <ele>443.289318</ele>
        <time>2021-07-03T21:36:49.253Z</time>
      </trkpt>
      <trkpt lat="45.896842" lon="6.118250">
        <ele>443.308553</ele>
        <time>2021-07-03T21:36:56.046Z</time>
      </trkpt>
      <trkpt lat="45.896762" lon="6.117972">
        <ele>443.325571</ele>
        <time>2021-07-03T21:37:02.387Z</time>
      </trkpt>
      <trkpt lat="45.896735" lon="6.117549">
        <ele>443.395954</ele>
        <time>2021-07-03T21:37:11.108Z</time>
      </trkpt>
      <trkpt lat="45.896774" lon="6.117266">
        <ele>443.481378</ele>
        <time>2021-07-03T21:37:16.813Z</time>
      </trkpt>
      <trkpt lat="45.896706" lon="6.117346">
        <ele>443.518770</ele>
        <time>2021-07-03T21:37:19.715Z</time>
      </trkpt>
      <trkpt lat="45.896570" lon="6.117389">
        <ele>443.578018</ele>
        <time>2021-07-03T21:37:23.875Z</time>
      </trkpt>
      <trkpt lat="45.896484" lon="6.117317">
        <ele>443.620366</ele>
        <time>2021-07-03T21:37:26.729Z</time>
      </trkpt>
      <trkpt lat="45.896120" lon="6.117676">
        <ele>443.808207</ele>
        <time>2021-07-03T21:37:40.368Z</time>
      </trkpt>
      <trkpt lat="45.895815" lon="6.117676">
        <ele>443.937974</ele>
        <time>2021-07-03T21:37:49.936Z</time>
      </trkpt>
      <trkpt lat="45.895498" lon="6.117829">
        <ele>444.080252</ele>
        <time>2021-07-03T21:38:00.859Z</time>
      </trkpt>
      <trkpt lat="45.895312" lon="6.117760">
        <ele>444.243303</ele>
        <time>2021-07-03T21:38:07.322Z</time>
      </trkpt>
      <trkpt lat="45.894785" lon="6.117541">
        <ele>444.803559</ele>
        <time>2021-07-03T21:38:25.388Z</time>
      </trkpt>
      <trkpt lat="45.894557" lon="6.117424">
        <ele>445.050808</ele>
        <time>2021-07-03T21:38:33.344Z</time>
      </trkpt>
      <trkpt lat="45.894254" lon="6.117254">
        <ele>445.383002</ele>
        <time>2021-07-03T21:38:44.252Z</time>
      </trkpt>
      <trkpt lat="45.894108" lon="6.117202">
        <ele>445.536617</ele>
        <time>2021-07-03T21:38:49.470Z</time>
      </trkpt>
      <trkpt lat="45.893149" lon="6.117460">
        <ele>446.691735</ele>
        <time>2021-07-03T21:39:22.471Z</time>
      </trkpt>
      <trkpt lat="45.893108" lon="6.117530">
        <ele>446.774192</ele>
        <time>2021-07-03T21:39:24.728Z</time>
      </trkpt>
      <trkpt lat="45.893097" lon="6.117521">
        <ele>446.790584</ele>
        <time>2021-07-03T21:39:25.081Z</time>
      </trkpt>
      <trkpt lat="45.893060" lon="6.117487">
        <ele>446.847458</ele>
        <time>2021-07-03T21:39:26.293Z</time>
      </trkpt>
      <trkpt lat="45.893033" lon="6.117464">
        <ele>446.888104</ele>
        <time>2021-07-03T21:39:27.134Z</time>
      </trkpt>
      <trkpt lat="45.892884" lon="6.117335">
        <ele>447.113373</ele>
        <time>2021-07-03T21:39:31.740Z</time>
      </trkpt>
      <trkpt lat="45.892794" lon="6.117257">
        <ele>447.249479</ele>
        <time>2021-07-03T21:39:34.643Z</time>
      </trkpt>
      <trkpt lat="45.892627" lon="6.117105">
        <ele>447.505475</ele>
        <time>2021-07-03T21:39:40.063Z</time>
      </trkpt>
      <trkpt lat="45.891895" lon="6.116451">
        <ele>448.824873</ele>
        <time>2021-07-03T21:40:03.959Z</time>
      </trkpt>
      <trkpt lat="45.891478" lon="6.116073">
        <ele>449.832112</ele>
        <time>2021-07-03T21:40:18.775Z</time>
      </trkpt>
      <trkpt lat="45.890755" lon="6.115427">
        <ele>451.571401</ele>
        <time>2021-07-03T21:40:45.282Z</time>
      </trkpt>
      <trkpt lat="45.890435" lon="6.115141">
        <ele>452.450541</ele>
        <time>2021-07-03T21:40:57.522Z</time>
      </trkpt>
      <trkpt lat="45.890149" lon="6.114860">
        <ele>453.353145</ele>
        <time>2021-07-03T21:41:08.943Z</time>
      </trkpt>
      <trkpt lat="45.890109" lon="6.114771">
        <ele>453.545239</ele>
        <time>2021-07-03T21:41:11.428Z</time>
      </trkpt>
      <trkpt lat="45.890094" lon="6.114736">
        <ele>453.619767</ele>
        <time>2021-07-03T21:41:12.431Z</time>
      </trkpt>
      <trkpt lat="45.890068" lon="6.114665">
        <ele>453.765235</ele>
        <time>2021-07-03T21:41:14.292Z</time>
      </trkpt>
      <trkpt lat="45.890076" lon="6.114625">
        <ele>453.840699</ele>
        <time>2021-07-03T21:41:15.200Z</time>
      </trkpt>
      <trkpt lat="45.890078" lon="6.114584">
        <ele>453.915223</ele>
        <time>2021-07-03T21:41:16.121Z</time>
      </trkpt>
      <trkpt lat="45.890074" lon="6.114535">
        <ele>454.004679</ele>
        <time>2021-07-03T21:41:17.272Z</time>
      </trkpt>
      <trkpt lat="45.890045" lon="6.114447">
        <ele>454.181223</ele>
        <time>2021-07-03T21:41:19.368Z</time>
      </trkpt>
      <trkpt lat="45.890022" lon="6.114411">
        <ele>454.269828</ele>
        <time>2021-07-03T21:41:20.516Z</time>
      </trkpt>
      <trkpt lat="45.890004" lon="6.114392">
        <ele>454.328014</ele>
        <time>2021-07-03T21:41:21.241Z</time>
      </trkpt>
      <trkpt lat="45.889985" lon="6.114377">
        <ele>454.384491</ele>
        <time>2021-07-03T21:41:21.958Z</time>
      </trkpt>
      <trkpt lat="45.889939" lon="6.114357">
        <ele>454.509690</ele>
        <time>2021-07-03T21:41:23.625Z</time>
      </trkpt>
      <trkpt lat="45.889891" lon="6.114358">
        <ele>454.634746</ele>
        <time>2021-07-03T21:41:25.257Z</time>
      </trkpt>
      <trkpt lat="45.889872" lon="6.114365">
        <ele>454.685843</ele>
        <time>2021-07-03T21:41:25.909Z</time>
      </trkpt>
      <trkpt lat="45.889836" lon="6.114387">
        <ele>454.787757</ele>
        <time>2021-07-03T21:41:27.140Z</time>
      </trkpt>
      <trkpt lat="45.889759" lon="6.114379">
        <ele>454.988870</ele>
        <time>2021-07-03T21:41:29.646Z</time>
      </trkpt>
      <trkpt lat="45.889740" lon="6.114376">
        <ele>455.038664</ele>
        <time>2021-07-03T21:41:30.264Z</time>
      </trkpt>
      <trkpt lat="45.889623" lon="6.114341">
        <ele>455.349992</ele>
        <time>2021-07-03T21:41:34.149Z</time>
      </trkpt>
      <trkpt lat="45.889577" lon="6.114292">
        <ele>455.499169</ele>
        <time>2021-07-03T21:41:36.154Z</time>
      </trkpt>
      <trkpt lat="45.889305" lon="6.114004">
        <ele>456.379386</ele>
        <time>2021-07-03T21:41:47.187Z</time>
      </trkpt>
      <trkpt lat="45.889169" lon="6.113860">
        <ele>456.907880</ele>
        <time>2021-07-03T21:41:52.651Z</time>
      </trkpt>
      <trkpt lat="45.888398" lon="6.113059">
        <ele>460.541416</ele>
        <time>2021-07-03T21:42:23.745Z</time>
      </trkpt>
      <trkpt lat="45.888276" lon="6.112932">
        <ele>461.116768</ele>
        <time>2021-07-03T21:42:29.004Z</time>
      </trkpt>
      <trkpt lat="45.887439" lon="6.112084">
        <ele>466.585760</ele>
        <time>2021-07-03T21:43:15.070Z</time>
      </trkpt>
      <trkpt lat="45.887389" lon="6.111983">
        <ele>467.250759</ele>
        <time>2021-07-03T21:43:19.475Z</time>
      </trkpt>
      <trkpt lat="45.887361" lon="6.111910">
        <ele>467.697973</ele>
        <time>2021-07-03T21:43:22.859Z</time>
      </trkpt>
      <trkpt lat="45.887345" lon="6.111805">
        <ele>468.274698</ele>
        <time>2021-07-03T21:43:26.770Z</time>
      </trkpt>
      <trkpt lat="45.887353" lon="6.111757">
        <ele>468.539524</ele>
        <time>2021-07-03T21:43:28.536Z</time>
      </trkpt>
      <trkpt lat="45.887341" lon="6.111661">
        <ele>469.062856</ele>
        <time>2021-07-03T21:43:31.361Z</time>
      </trkpt>
      <trkpt lat="45.887321" lon="6.111621">
        <ele>469.327109</ele>
        <time>2021-07-03T21:43:33.118Z</time>
      </trkpt>
      <trkpt lat="45.887282" lon="6.111582">
        <ele>469.693393</ele>
        <time>2021-07-03T21:43:35.425Z</time>
      </trkpt>
      <trkpt lat="45.887235" lon="6.111567">
        <ele>470.064516</ele>
        <time>2021-07-03T21:43:38.182Z</time>
      </trkpt>
      <trkpt lat="45.887218" lon="6.111569">
        <ele>470.195996</ele>
        <time>2021-07-03T21:43:39.185Z</time>
      </trkpt>
      <trkpt lat="45.887194" lon="6.111504">
        <ele>470.590787</ele>
        <time>2021-07-03T21:43:42.334Z</time>
      </trkpt>
      <trkpt lat="45.887208" lon="6.111402">
        <ele>471.148612</ele>
        <time>2021-07-03T21:43:46.260Z</time>
      </trkpt>
      <trkpt lat="45.887173" lon="6.111306">
        <ele>471.730084</ele>
        <time>2021-07-03T21:43:50.895Z</time>
      </trkpt>
      <trkpt lat="45.887146" lon="6.111250">
        <ele>472.095596</ele>
        <time>2021-07-03T21:43:53.988Z</time>
      </trkpt>
      <trkpt lat="45.887124" lon="6.111195">
        <ele>472.435958</ele>
        <time>2021-07-03T21:43:56.932Z</time>
      </trkpt>
      <trkpt lat="45.887031" lon="6.111038">
        <ele>473.542095</ele>
        <time>2021-07-03T21:44:07.944Z</time>
      </trkpt>
      <trkpt lat="45.886569" lon="6.110382">
        <ele>478.730032</ele>
        <time>2021-07-03T21:44:56.012Z</time>
      </trkpt>
      <trkpt lat="45.885911" lon="6.109805">
        <ele>485.577983</ele>
        <time>2021-07-03T21:45:56.416Z</time>
      </trkpt>
      <trkpt lat="45.885353" lon="6.109324">
        <ele>491.358624</ele>
        <time>2021-07-03T21:46:42.326Z</time>
      </trkpt>
      <trkpt lat="45.885204" lon="6.109194">
        <ele>492.907191</ele>
        <time>2021-07-03T21:46:54.064Z</time>
      </trkpt>
      <trkpt lat="45.885146" lon="6.109145">
        <ele>493.431675</ele>
        <time>2021-07-03T21:46:58.798Z</time>
      </trkpt>
      <trkpt lat="45.885013" lon="6.109033">
        <ele>494.190476</ele>
        <time>2021-07-03T21:47:08.553Z</time>
      </trkpt>
      <trkpt lat="45.884956" lon="6.108991">
        <ele>494.505780</ele>
        <time>2021-07-03T21:47:12.751Z</time>
      </trkpt>
      <trkpt lat="45.884815" lon="6.108887">
        <ele>495.285907</ele>
        <time>2021-07-03T21:47:23.265Z</time>
      </trkpt>
      <trkpt lat="45.884601" lon="6.108774">
        <ele>496.408107</ele>
        <time>2021-07-03T21:47:37.165Z</time>
      </trkpt>
      <trkpt lat="45.884410" lon="6.108681">
        <ele>497.400734</ele>
        <time>2021-07-03T21:47:49.750Z</time>
      </trkpt>
      <trkpt lat="45.884305" lon="6.108657">
        <ele>497.924041</ele>
        <time>2021-07-03T21:47:56.194Z</time>
      </trkpt>
      <trkpt lat="45.883009" lon="6.108374">
        <ele>502.507536</ele>
        <time>2021-07-03T21:49:00.656Z</time>
      </trkpt>
      <trkpt lat="45.882951" lon="6.108354">
        <ele>502.549771</ele>
        <time>2021-07-03T21:49:03.402Z</time>
      </trkpt>
      <trkpt lat="45.882944" lon="6.108406">
        <ele>502.575877</ele>
        <time>2021-07-03T21:49:05.944Z</time>
      </trkpt>
      <trkpt lat="45.882899" lon="6.108391">
        <ele>502.608586</ele>
        <time>2021-07-03T21:49:07.084Z</time>
      </trkpt>
      <trkpt lat="45.882760" lon="6.108311">
        <ele>502.714614</ele>
        <time>2021-07-03T21:49:10.253Z</time>
      </trkpt>
      <trkpt lat="45.882681" lon="6.108210">
        <ele>502.789497</ele>
        <time>2021-07-03T21:49:12.722Z</time>
      </trkpt>
      <trkpt lat="45.882675" lon="6.108146">
        <ele>502.821328</ele>
        <time>2021-07-03T21:49:13.772Z</time>
      </trkpt>
      <trkpt lat="45.882654" lon="6.108089">
        <ele>502.853116</ele>
        <time>2021-07-03T21:49:14.798Z</time>
      </trkpt>
      <trkpt lat="45.882619" lon="6.108047">
        <ele>502.885408</ele>
        <time>2021-07-03T21:49:15.635Z</time>
      </trkpt>
      <trkpt lat="45.882577" lon="6.108025">
        <ele>502.917062</ele>
        <time>2021-07-03T21:49:16.594Z</time>
      </trkpt>
      <trkpt lat="45.882532" lon="6.108026">
        <ele>502.948929</ele>
        <time>2021-07-03T21:49:17.558Z</time>
      </trkpt>
      <trkpt lat="45.882481" lon="6.108059">
        <ele>502.988535</ele>
        <time>2021-07-03T21:49:18.688Z</time>
      </trkpt>
      <trkpt lat="45.882445" lon="6.108122">
        <ele>503.028711</ele>
        <time>2021-07-03T21:49:19.949Z</time>
      </trkpt>
      <trkpt lat="45.882395" lon="6.108171">
        <ele>503.071568</ele>
        <time>2021-07-03T21:49:21.457Z</time>
      </trkpt>
      <trkpt lat="45.882348" lon="6.108200">
        <ele>503.107788</ele>
        <time>2021-07-03T21:49:22.584Z</time>
      </trkpt>
      <trkpt lat="45.882326" lon="6.108213">
        <ele>503.124632</ele>
        <time>2021-07-03T21:49:22.992Z</time>
      </trkpt>
      <trkpt lat="45.882123" lon="6.108229">
        <ele>503.268587</ele>
        <time>2021-07-03T21:49:27.193Z</time>
      </trkpt>
      <trkpt lat="45.881878" lon="6.108176">
        <ele>503.444020</ele>
        <time>2021-07-03T21:49:32.453Z</time>
      </trkpt>
      <trkpt lat="45.881748" lon="6.108147">
        <ele>503.448457</ele>
        <time>2021-07-03T21:49:35.139Z</time>
      </trkpt>
      <trkpt lat="45.881667" lon="6.108117">
        <ele>503.432686</ele>
        <time>2021-07-03T21:49:37.039Z</time>
      </trkpt>
      <trkpt lat="45.881576" lon="6.108076">
        <ele>503.414706</ele>
        <time>2021-07-03T21:49:38.916Z</time>
      </trkpt>
      <trkpt lat="45.881482" lon="6.107999">
        <ele>503.394305</ele>
        <time>2021-07-03T21:49:41.080Z</time>
      </trkpt>
      <trkpt lat="45.881388" lon="6.107922">
        <ele>503.373904</ele>
        <time>2021-07-03T21:49:43.287Z</time>
      </trkpt>
      <trkpt lat="45.881314" lon="6.107877">
        <ele>503.358755</ele>
        <time>2021-07-03T21:49:44.952Z</time>
      </trkpt>
      <trkpt lat="45.881193" lon="6.107762">
        <ele>503.331401</ele>
        <time>2021-07-03T21:49:47.784Z</time>
      </trkpt>
      <trkpt lat="45.880362" lon="6.107010">
        <ele>503.146236</ele>
        <time>2021-07-03T21:50:08.543Z</time>
      </trkpt>
      <trkpt lat="45.879604" lon="6.106283">
        <ele>504.090149</ele>
        <time>2021-07-03T21:50:32.570Z</time>
      </trkpt>
      <trkpt lat="45.878992" lon="6.105700">
        <ele>504.957318</ele>
        <time>2021-07-03T21:50:53.286Z</time>
      </trkpt>
      <trkpt lat="45.878812" lon="6.105588">
        <ele>505.188959</ele>
        <time>2021-07-03T21:50:58.824Z</time>
      </trkpt>
      <trkpt lat="45.878570" lon="6.105497">
        <ele>505.590660</ele>
        <time>2021-07-03T21:51:06.247Z</time>
      </trkpt>
      <trkpt lat="45.878424" lon="6.105444">
        <ele>505.849829</ele>
        <time>2021-07-03T21:51:10.576Z</time>
      </trkpt>
      <trkpt lat="45.878321" lon="6.105400">
        <ele>506.034767</ele>
        <time>2021-07-03T21:51:13.841Z</time>
      </trkpt>
      <trkpt lat="45.877394" lon="6.105046">
        <ele>507.685569</ele>
        <time>2021-07-03T21:51:41.882Z</time>
      </trkpt>
      <trkpt lat="45.877012" lon="6.104903">
        <ele>508.371734</ele>
        <time>2021-07-03T21:51:53.543Z</time>
      </trkpt>
      <trkpt lat="45.876688" lon="6.104732">
        <ele>509.195875</ele>
        <time>2021-07-03T21:52:03.255Z</time>
      </trkpt>
      <trkpt lat="45.876376" lon="6.104450">
        <ele>510.076010</ele>
        <time>2021-07-03T21:52:13.955Z</time>
      </trkpt>
      <trkpt lat="45.876151" lon="6.104242">
        <ele>510.714860</ele>
        <time>2021-07-03T21:52:22.198Z</time>
      </trkpt>
      <trkpt lat="45.875917" lon="6.104024">
        <ele>511.380780</ele>
        <time>2021-07-03T21:52:31.289Z</time>
      </trkpt>
      <trkpt lat="45.875267" lon="6.103374">
        <ele>513.748907</ele>
        <time>2021-07-03T21:52:59.124Z</time>
      </trkpt>
      <trkpt lat="45.875223" lon="6.103294">
        <ele>514.046739</ele>
        <time>2021-07-03T21:53:01.817Z</time>
      </trkpt>
      <trkpt lat="45.875209" lon="6.103267">
        <ele>514.145087</ele>
        <time>2021-07-03T21:53:02.627Z</time>
      </trkpt>
      <trkpt lat="45.874964" lon="6.102783">
        <ele>515.893230</ele>
        <time>2021-07-03T21:53:18.704Z</time>
      </trkpt>
      <trkpt lat="45.874707" lon="6.102399">
        <ele>517.449284</ele>
        <time>2021-07-03T21:53:33.153Z</time>
      </trkpt>
      <trkpt lat="45.874612" lon="6.102286">
        <ele>517.966847</ele>
        <time>2021-07-03T21:53:38.465Z</time>
      </trkpt>
      <trkpt lat="45.874341" lon="6.102007">
        <ele>519.365898</ele>
        <time>2021-07-03T21:53:52.012Z</time>
      </trkpt>
      <trkpt lat="45.874027" lon="6.101688">
        <ele>521.158896</ele>
        <time>2021-07-03T21:54:08.504Z</time>
      </trkpt>
      <trkpt lat="45.873538" lon="6.101204">
        <ele>524.215373</ele>
        <time>2021-07-03T21:54:33.175Z</time>
      </trkpt>
      <trkpt lat="45.872713" lon="6.100408">
        <ele>529.330570</ele>
        <time>2021-07-03T21:55:16.684Z</time>
      </trkpt>
      <trkpt lat="45.871708" lon="6.099388">
        <ele>536.126508</ele>
        <time>2021-07-03T21:56:10.580Z</time>
      </trkpt>
      <trkpt lat="45.871094" lon="6.098781">
        <ele>540.445126</ele>
        <time>2021-07-03T21:56:44.280Z</time>
      </trkpt>
      <trkpt lat="45.870905" lon="6.098597">
        <ele>541.998011</ele>
        <time>2021-07-03T21:56:54.627Z</time>
      </trkpt>
      <trkpt lat="45.870873" lon="6.098563">
        <ele>542.268727</ele>
        <time>2021-07-03T21:56:56.635Z</time>
      </trkpt>
      <trkpt lat="45.870505" lon="6.098200">
        <ele>545.304979</ele>
        <time>2021-07-03T21:57:17.386Z</time>
      </trkpt>
      <trkpt lat="45.867285" lon="6.095031">
        <ele>571.563355</ele>
        <time>2021-07-03T22:00:35.055Z</time>
      </trkpt>
      <trkpt lat="45.867211" lon="6.094953">
        <ele>572.165028</ele>
        <time>2021-07-03T22:00:39.299Z</time>
      </trkpt>
      <trkpt lat="45.867036" lon="6.094762">
        <ele>573.605769</ele>
        <time>2021-07-03T22:00:50.041Z</time>
      </trkpt>
      <trkpt lat="45.866967" lon="6.094674">
        <ele>574.210643</ele>
        <time>2021-07-03T22:00:54.091Z</time>
      </trkpt>
      <trkpt lat="45.866918" lon="6.094592">
        <ele>574.703827</ele>
        <time>2021-07-03T22:00:57.383Z</time>
      </trkpt>
      <trkpt lat="45.866899" lon="6.094558">
        <ele>574.902804</ele>
        <time>2021-07-03T22:00:58.713Z</time>
      </trkpt>
      <trkpt lat="45.866873" lon="6.094509">
        <ele>575.183982</ele>
        <time>2021-07-03T22:01:01.563Z</time>
      </trkpt>
      <trkpt lat="45.865981" lon="6.092663">
        <ele>581.976197</ele>
        <time>2021-07-03T22:02:04.633Z</time>
      </trkpt>
      <trkpt lat="45.865700" lon="6.092091">
        <ele>583.848299</ele>
        <time>2021-07-03T22:02:20.180Z</time>
      </trkpt>
      <trkpt lat="45.865626" lon="6.091915">
        <ele>584.303694</ele>
        <time>2021-07-03T22:02:24.312Z</time>
      </trkpt>
      <trkpt lat="45.865485" lon="6.091635">
        <ele>585.069078</ele>
        <time>2021-07-03T22:02:31.682Z</time>
      </trkpt>
      <trkpt lat="45.865225" lon="6.091101">
        <ele>586.512360</ele>
        <time>2021-07-03T22:02:46.154Z</time>
      </trkpt>
      <trkpt lat="45.864915" lon="6.090461">
        <ele>588.239210</ele>
        <time>2021-07-03T22:03:06.571Z</time>
      </trkpt>
      <trkpt lat="45.864879" lon="6.090378">
        <ele>588.455806</ele>
        <time>2021-07-03T22:03:09.370Z</time>
      </trkpt>
      <trkpt lat="45.864712" lon="6.090029">
        <ele>589.636243</ele>
        <time>2021-07-03T22:03:20.369Z</time>
      </trkpt>
      <trkpt lat="45.864665" lon="6.089929">
        <ele>590.063144</ele>
        <time>2021-07-03T22:03:23.810Z</time>
      </trkpt>
      <trkpt lat="45.864371" lon="6.089289">
        <ele>592.776141</ele>
        <time>2021-07-03T22:03:46.120Z</time>
      </trkpt>
      <trkpt lat="45.864286" lon="6.089114">
        <ele>593.531129</ele>
        <time>2021-07-03T22:03:53.023Z</time>
      </trkpt>
      <trkpt lat="45.863856" lon="6.088254">
        <ele>597.277429</ele>
        <time>2021-07-03T22:04:25.845Z</time>
      </trkpt>
      <trkpt lat="45.863786" lon="6.088080">
        <ele>597.988492</ele>
        <time>2021-07-03T22:04:31.973Z</time>
      </trkpt>
      <trkpt lat="45.863690" lon="6.087581">
        <ele>599.389585</ele>
        <time>2021-07-03T22:04:48.389Z</time>
      </trkpt>
      <trkpt lat="45.863697" lon="6.087377">
        <ele>599.928399</ele>
        <time>2021-07-03T22:04:54.915Z</time>
      </trkpt>
      <trkpt lat="45.863708" lon="6.087327">
        <ele>600.066727</ele>
        <time>2021-07-03T22:04:56.513Z</time>
      </trkpt>
      <trkpt lat="45.863709" lon="6.087275">
        <ele>600.203958</ele>
        <time>2021-07-03T22:04:57.990Z</time>
      </trkpt>
      <trkpt lat="45.863698" lon="6.087213">
        <ele>600.372742</ele>
        <time>2021-07-03T22:04:59.748Z</time>
      </trkpt>
      <trkpt lat="45.863674" lon="6.087160">
        <ele>600.539519</ele>
        <time>2021-07-03T22:05:01.378Z</time>
      </trkpt>
      <trkpt lat="45.863639" lon="6.087122">
        <ele>600.705740</ele>
        <time>2021-07-03T22:05:03.097Z</time>
      </trkpt>
      <trkpt lat="45.863590" lon="6.087099">
        <ele>600.901031</ele>
        <time>2021-07-03T22:05:04.936Z</time>
      </trkpt>
      <trkpt lat="45.863553" lon="6.087100">
        <ele>601.041223</ele>
        <time>2021-07-03T22:05:06.222Z</time>
      </trkpt>
      <trkpt lat="45.863517" lon="6.087115">
        <ele>601.183226</ele>
        <time>2021-07-03T22:05:07.772Z</time>
      </trkpt>
      <trkpt lat="45.863428" lon="6.087096">
        <ele>601.524090</ele>
        <time>2021-07-03T22:05:10.913Z</time>
      </trkpt>
      <trkpt lat="45.863381" lon="6.087069">
        <ele>601.715858</ele>
        <time>2021-07-03T22:05:12.772Z</time>
      </trkpt>
      <trkpt lat="45.863266" lon="6.086965">
        <ele>602.230704</ele>
        <time>2021-07-03T22:05:17.832Z</time>
      </trkpt>
      <trkpt lat="45.863251" lon="6.086943">
        <ele>602.311928</ele>
        <time>2021-07-03T22:05:18.650Z</time>
      </trkpt>
      <trkpt lat="45.863235" lon="6.086914">
        <ele>602.409533</ele>
        <time>2021-07-03T22:05:19.537Z</time>
      </trkpt>
      <trkpt lat="45.863204" lon="6.086858">
        <ele>602.598256</ele>
        <time>2021-07-03T22:05:21.485Z</time>
      </trkpt>
      <trkpt lat="45.862533" lon="6.085411">
        <ele>606.149221</ele>
        <time>2021-07-03T22:05:59.557Z</time>
      </trkpt>
      <trkpt lat="45.862532" lon="6.085385">
        <ele>606.186211</ele>
        <time>2021-07-03T22:06:00.453Z</time>
      </trkpt>
      <trkpt lat="45.862531" lon="6.085347">
        <ele>606.240230</ele>
        <time>2021-07-03T22:06:01.141Z</time>
      </trkpt>
      <trkpt lat="45.862538" lon="6.085287">
        <ele>606.326651</ele>
        <time>2021-07-03T22:06:02.300Z</time>
      </trkpt>
      <trkpt lat="45.862549" lon="6.085250">
        <ele>606.383801</ele>
        <time>2021-07-03T22:06:02.986Z</time>
      </trkpt>
      <trkpt lat="45.862503" lon="6.085234">
        <ele>606.480350</ele>
        <time>2021-07-03T22:06:04.514Z</time>
      </trkpt>
      <trkpt lat="45.862378" lon="6.085120">
        <ele>606.782415</ele>
        <time>2021-07-03T22:06:08.895Z</time>
      </trkpt>
      <trkpt lat="45.862054" lon="6.084426">
        <ele>607.969325</ele>
        <time>2021-07-03T22:06:25.814Z</time>
      </trkpt>
      <trkpt lat="45.861934" lon="6.084384">
        <ele>608.221279</ele>
        <time>2021-07-03T22:06:29.196Z</time>
      </trkpt>
      <trkpt lat="45.861853" lon="6.084216">
        <ele>608.511551</ele>
        <time>2021-07-03T22:06:33.565Z</time>
      </trkpt>
      <trkpt lat="45.861678" lon="6.083851">
        <ele>609.253482</ele>
        <time>2021-07-03T22:06:43.152Z</time>
      </trkpt>
      <trkpt lat="45.861687" lon="6.083663">
        <ele>609.577892</ele>
        <time>2021-07-03T22:06:47.178Z</time>
      </trkpt>
      <trkpt lat="45.861111" lon="6.082449">
        <ele>612.106797</ele>
        <time>2021-07-03T22:07:21.347Z</time>
      </trkpt>
      <trkpt lat="45.860949" lon="6.082110">
        <ele>612.814591</ele>
        <time>2021-07-03T22:07:30.746Z</time>
      </trkpt>
      <trkpt lat="45.860794" lon="6.081786">
        <ele>613.294840</ele>
        <time>2021-07-03T22:07:39.689Z</time>
      </trkpt>
      <trkpt lat="45.860732" lon="6.081647">
        <ele>613.450530</ele>
        <time>2021-07-03T22:07:43.440Z</time>
      </trkpt>
      <trkpt lat="45.860692" lon="6.081552">
        <ele>613.555237</ele>
        <time>2021-07-03T22:07:46.363Z</time>
      </trkpt>
      <trkpt lat="45.859724" lon="6.079468">
        <ele>615.319142</ele>
        <time>2021-07-03T22:08:32.420Z</time>
      </trkpt>
      <trkpt lat="45.859640" lon="6.079285">
        <ele>615.234701</ele>
        <time>2021-07-03T22:08:35.660Z</time>
      </trkpt>
      <trkpt lat="45.859568" lon="6.079130">
        <ele>615.162920</ele>
        <time>2021-07-03T22:08:37.933Z</time>
      </trkpt>
      <trkpt lat="45.858992" lon="6.077818">
        <ele>614.565390</ele>
        <time>2021-07-03T22:08:58.987Z</time>
      </trkpt>
      <trkpt lat="45.858940" lon="6.077709">
        <ele>614.514488</ele>
        <time>2021-07-03T22:09:01.049Z</time>
      </trkpt>
      <trkpt lat="45.858743" lon="6.077313">
        <ele>613.880898</ele>
        <time>2021-07-03T22:09:07.365Z</time>
      </trkpt>
      <trkpt lat="45.858536" lon="6.077024">
        <ele>613.303970</ele>
        <time>2021-07-03T22:09:12.417Z</time>
      </trkpt>
      <trkpt lat="45.858509" lon="6.076892">
        <ele>613.112514</ele>
        <time>2021-07-03T22:09:14.384Z</time>
      </trkpt>
      <trkpt lat="45.858485" lon="6.076563">
        <ele>612.652159</ele>
        <time>2021-07-03T22:09:18.386Z</time>
      </trkpt>
      <trkpt lat="45.858520" lon="6.076563">
        <ele>612.582221</ele>
        <time>2021-07-03T22:09:18.992Z</time>
      </trkpt>
      <trkpt lat="45.858598" lon="6.076509">
        <ele>612.409187</ele>
        <time>2021-07-03T22:09:20.769Z</time>
      </trkpt>
      <trkpt lat="45.858612" lon="6.076483">
        <ele>612.363451</ele>
        <time>2021-07-03T22:09:21.167Z</time>
      </trkpt>
      <trkpt lat="45.858629" lon="6.076434">
        <ele>612.287268</ele>
        <time>2021-07-03T22:09:21.803Z</time>
      </trkpt>
      <trkpt lat="45.858624" lon="6.076310">
        <ele>612.114416</ele>
        <time>2021-07-03T22:09:23.228Z</time>
      </trkpt>
      <trkpt lat="45.858570" lon="6.076222">
        <ele>611.951195</ele>
        <time>2021-07-03T22:09:24.714Z</time>
      </trkpt>
      <trkpt lat="45.858428" lon="6.076235">
        <ele>611.666869</ele>
        <time>2021-07-03T22:09:27.369Z</time>
      </trkpt>
      <trkpt lat="45.858402" lon="6.076271">
        <ele>611.594694</ele>
        <time>2021-07-03T22:09:28.087Z</time>
      </trkpt>
      <trkpt lat="45.858243" lon="6.076102">
        <ele>611.199397</ele>
        <time>2021-07-03T22:09:31.389Z</time>
      </trkpt>
      <trkpt lat="45.858134" lon="6.075922">
        <ele>610.841290</ele>
        <time>2021-07-03T22:09:34.297Z</time>
      </trkpt>
      <trkpt lat="45.858119" lon="6.075902">
        <ele>610.770828</ele>
        <time>2021-07-03T22:09:34.572Z</time>
      </trkpt>
      <trkpt lat="45.856943" lon="6.073328">
        <ele>603.534586</ele>
        <time>2021-07-03T22:10:08.893Z</time>
      </trkpt>
      <trkpt lat="45.856790" lon="6.073054">
        <ele>602.784229</ele>
        <time>2021-07-03T22:10:12.851Z</time>
      </trkpt>
      <trkpt lat="45.856531" lon="6.072777">
        <ele>601.793471</ele>
        <time>2021-07-03T22:10:18.235Z</time>
      </trkpt>
      <trkpt lat="45.855894" lon="6.072303">
        <ele>599.592436</ele>
        <time>2021-07-03T22:10:30.260Z</time>
      </trkpt>
      <trkpt lat="45.855866" lon="6.072276">
        <ele>599.488963</ele>
        <time>2021-07-03T22:10:30.774Z</time>
      </trkpt>
      <trkpt lat="45.855690" lon="6.072151">
        <ele>598.830864</ele>
        <time>2021-07-03T22:10:34.117Z</time>
      </trkpt>
      <trkpt lat="45.855626" lon="6.072097">
        <ele>598.561914</ele>
        <time>2021-07-03T22:10:35.351Z</time>
      </trkpt>
      <trkpt lat="45.855529" lon="6.072017">
        <ele>598.156623</ele>
        <time>2021-07-03T22:10:37.169Z</time>
      </trkpt>
      <trkpt lat="45.854911" lon="6.071527">
        <ele>595.598845</ele>
        <time>2021-07-03T22:10:48.705Z</time>
      </trkpt>
      <trkpt lat="45.854545" lon="6.071104">
        <ele>593.896569</ele>
        <time>2021-07-03T22:10:56.077Z</time>
      </trkpt>
      <trkpt lat="45.854051" lon="6.070440">
        <ele>591.234791</ele>
        <time>2021-07-03T22:11:06.440Z</time>
      </trkpt>
      <trkpt lat="45.853425" lon="6.069452">
        <ele>587.290074</ele>
        <time>2021-07-03T22:11:20.564Z</time>
      </trkpt>
      <trkpt lat="45.853139" lon="6.069228">
        <ele>585.908611</ele>
        <time>2021-07-03T22:11:25.743Z</time>
      </trkpt>
      <trkpt lat="45.852953" lon="6.069197">
        <ele>585.114602</ele>
        <time>2021-07-03T22:11:29.114Z</time>
      </trkpt>
      <trkpt lat="45.852771" lon="6.069193">
        <ele>584.590678</ele>
        <time>2021-07-03T22:11:31.876Z</time>
      </trkpt>
      <trkpt lat="45.852655" lon="6.069210">
        <ele>584.269352</ele>
        <time>2021-07-03T22:11:34.307Z</time>
      </trkpt>
      <trkpt lat="45.852324" lon="6.069140">
        <ele>583.347361</ele>
        <time>2021-07-03T22:11:39.827Z</time>
      </trkpt>
      <trkpt lat="45.851660" lon="6.068800">
        <ele>581.404661</ele>
        <time>2021-07-03T22:11:51.924Z</time>
      </trkpt>
      <trkpt lat="45.849969" lon="6.067184">
        <ele>575.012510</ele>
        <time>2021-07-03T22:12:25.562Z</time>
      </trkpt>
      <trkpt lat="45.849788" lon="6.067074">
        <ele>574.370535</ele>
        <time>2021-07-03T22:12:28.578Z</time>
      </trkpt>
      <trkpt lat="45.849293" lon="6.067048">
        <ele>572.096907</ele>
        <time>2021-07-03T22:12:36.121Z</time>
      </trkpt>
      <trkpt lat="45.848878" lon="6.067301">
        <ele>569.965905</ele>
        <time>2021-07-03T22:12:42.987Z</time>
      </trkpt>
      <trkpt lat="45.848535" lon="6.067339">
        <ele>568.339912</ele>
        <time>2021-07-03T22:12:48.142Z</time>
      </trkpt>
      <trkpt lat="45.847911" lon="6.067066">
        <ele>565.367500</ele>
        <time>2021-07-03T22:12:57.980Z</time>
      </trkpt>
      <trkpt lat="45.847704" lon="6.066907">
        <ele>564.524255</ele>
        <time>2021-07-03T22:13:01.609Z</time>
      </trkpt>
      <trkpt lat="45.847363" lon="6.066517">
        <ele>562.958273</ele>
        <time>2021-07-03T22:13:08.545Z</time>
      </trkpt>
      <trkpt lat="45.847223" lon="6.066367">
        <ele>562.330807</ele>
        <time>2021-07-03T22:13:11.294Z</time>
      </trkpt>
      <trkpt lat="45.847161" lon="6.066300">
        <ele>562.052072</ele>
        <time>2021-07-03T22:13:12.580Z</time>
      </trkpt>
      <trkpt lat="45.846938" lon="6.066016">
        <ele>560.981338</ele>
        <time>2021-07-03T22:13:17.459Z</time>
      </trkpt>
      <trkpt lat="45.846748" lon="6.065645">
        <ele>559.829223</ele>
        <time>2021-07-03T22:13:22.781Z</time>
      </trkpt>
      <trkpt lat="45.846311" lon="6.064421">
        <ele>557.267526</ele>
        <time>2021-07-03T22:13:39.007Z</time>
      </trkpt>
      <trkpt lat="45.845715" lon="6.063365">
        <ele>554.909203</ele>
        <time>2021-07-03T22:13:55.492Z</time>
      </trkpt>
      <trkpt lat="45.845426" lon="6.062935">
        <ele>553.586634</ele>
        <time>2021-07-03T22:14:02.380Z</time>
      </trkpt>
      <trkpt lat="45.844887" lon="6.062421">
        <ele>551.465811</ele>
        <time>2021-07-03T22:14:12.961Z</time>
      </trkpt>
      <trkpt lat="45.844575" lon="6.062181">
        <ele>550.305678</ele>
        <time>2021-07-03T22:14:18.725Z</time>
      </trkpt>
      <trkpt lat="45.844159" lon="6.061798">
        <ele>548.564169</ele>
        <time>2021-07-03T22:14:26.660Z</time>
      </trkpt>
      <trkpt lat="45.843063" lon="6.060845">
        <ele>541.761977</ele>
        <time>2021-07-03T22:14:46.012Z</time>
      </trkpt>
      <trkpt lat="45.842721" lon="6.060547">
        <ele>539.638195</ele>
        <time>2021-07-03T22:14:51.988Z</time>
      </trkpt>
      <trkpt lat="45.842676" lon="6.060513">
        <ele>539.368245</ele>
        <time>2021-07-03T22:14:52.698Z</time>
      </trkpt>
      <trkpt lat="45.841525" lon="6.059476">
        <ele>528.916647</ele>
        <time>2021-07-03T22:15:12.834Z</time>
      </trkpt>
      <trkpt lat="45.841114" lon="6.059132">
        <ele>525.269295</ele>
        <time>2021-07-03T22:15:19.664Z</time>
      </trkpt>
      <trkpt lat="45.840770" lon="6.058820">
        <ele>522.370066</ele>
        <time>2021-07-03T22:15:25.689Z</time>
      </trkpt>
      <trkpt lat="45.840649" lon="6.058725">
        <ele>521.387420</ele>
        <time>2021-07-03T22:15:27.852Z</time>
      </trkpt>
      <trkpt lat="45.840517" lon="6.058632">
        <ele>520.339753</ele>
        <time>2021-07-03T22:15:29.963Z</time>
      </trkpt>
      <trkpt lat="45.840475" lon="6.058577">
        <ele>519.934689</ele>
        <time>2021-07-03T22:15:31.398Z</time>
      </trkpt>
      <trkpt lat="45.840586" lon="6.058461">
        <ele>518.956430</ele>
        <time>2021-07-03T22:15:35.152Z</time>
      </trkpt>
      <trkpt lat="45.840581" lon="6.058423">
        <ele>518.764478</ele>
        <time>2021-07-03T22:15:35.847Z</time>
      </trkpt>
      <trkpt lat="45.840471" lon="6.058457">
        <ele>517.962774</ele>
        <time>2021-07-03T22:15:37.409Z</time>
      </trkpt>
      <trkpt lat="45.840431" lon="6.058475">
        <ele>517.664101</ele>
        <time>2021-07-03T22:15:37.951Z</time>
      </trkpt>
      <trkpt lat="45.839448" lon="6.058920">
        <ele>511.194621</ele>
        <time>2021-07-03T22:15:53.073Z</time>
      </trkpt>
      <trkpt lat="45.838828" lon="6.059601">
        <ele>507.706004</ele>
        <time>2021-07-03T22:16:05.103Z</time>
      </trkpt>
      <trkpt lat="45.838642" lon="6.059665">
        <ele>506.851299</ele>
        <time>2021-07-03T22:16:08.108Z</time>
      </trkpt>
      <trkpt lat="45.838356" lon="6.059614">
        <ele>505.563458</ele>
        <time>2021-07-03T22:16:12.695Z</time>
      </trkpt>
      <trkpt lat="45.837325" lon="6.058920">
        <ele>501.809785</ele>
        <time>2021-07-03T22:16:31.311Z</time>
      </trkpt>
      <trkpt lat="45.836570" lon="6.058413">
        <ele>499.282210</ele>
        <time>2021-07-03T22:16:45.101Z</time>
      </trkpt>
      <trkpt lat="45.836362" lon="6.058130">
        <ele>498.467982</ele>
        <time>2021-07-03T22:16:49.944Z</time>
      </trkpt>
      <trkpt lat="45.836200" lon="6.057780">
        <ele>497.644227</ele>
        <time>2021-07-03T22:16:54.903Z</time>
      </trkpt>
      <trkpt lat="45.835971" lon="6.057144">
        <ele>496.240747</ele>
        <time>2021-07-03T22:17:03.351Z</time>
      </trkpt>
      <trkpt lat="45.835778" lon="6.056857">
        <ele>495.458776</ele>
        <time>2021-07-03T22:17:08.010Z</time>
      </trkpt>
      <trkpt lat="45.835500" lon="6.056582">
        <ele>494.508757</ele>
        <time>2021-07-03T22:17:13.652Z</time>
      </trkpt>
      <trkpt lat="45.834556" lon="6.055696">
        <ele>490.252775</ele>
        <time>2021-07-03T22:17:31.793Z</time>
      </trkpt>
      <trkpt lat="45.834322" lon="6.055480">
        <ele>489.164948</ele>
        <time>2021-07-03T22:17:36.250Z</time>
      </trkpt>
      <trkpt lat="45.832676" lon="6.053955">
        <ele>480.065254</ele>
        <time>2021-07-03T22:18:05.835Z</time>
      </trkpt>
      <trkpt lat="45.831905" lon="6.053240">
        <ele>476.409727</ele>
        <time>2021-07-03T22:18:19.793Z</time>
      </trkpt>
      <trkpt lat="45.831835" lon="6.053173">
        <ele>476.128541</ele>
        <time>2021-07-03T22:18:21.084Z</time>
      </trkpt>
      <trkpt lat="45.830298" lon="6.051686">
        <ele>471.264179</ele>
        <time>2021-07-03T22:18:52.618Z</time>
      </trkpt>
      <trkpt lat="45.828900" lon="6.050342">
        <ele>469.227367</ele>
        <time>2021-07-03T22:19:26.156Z</time>
      </trkpt>
      <trkpt lat="45.828216" lon="6.049562">
        <ele>468.491479</ele>
        <time>2021-07-03T22:19:43.587Z</time>
      </trkpt>
      <trkpt lat="45.827686" lon="6.048809">
        <ele>467.401223</ele>
        <time>2021-07-03T22:19:57.847Z</time>
      </trkpt>
      <trkpt lat="45.826205" lon="6.046191">
        <ele>462.943066</ele>
        <time>2021-07-03T22:20:38.169Z</time>
      </trkpt>
      <trkpt lat="45.825839" lon="6.045425">
        <ele>461.843218</ele>
        <time>2021-07-03T22:20:50.227Z</time>
      </trkpt>
      <trkpt lat="45.825640" lon="6.044852">
        <ele>461.415480</ele>
        <time>2021-07-03T22:20:59.631Z</time>
      </trkpt>
      <trkpt lat="45.825488" lon="6.044331">
        <ele>461.299806</ele>
        <time>2021-07-03T22:21:07.906Z</time>
      </trkpt>
      <trkpt lat="45.825203" lon="6.043125">
        <ele>461.039000</ele>
        <time>2021-07-03T22:21:27.857Z</time>
      </trkpt>
      <trkpt lat="45.824866" lon="6.041717">
        <ele>459.863412</ele>
        <time>2021-07-03T22:21:49.240Z</time>
      </trkpt>
      <trkpt lat="45.824524" lon="6.040767">
        <ele>458.784960</ele>
        <time>2021-07-03T22:22:02.396Z</time>
      </trkpt>
      <trkpt lat="45.824403" lon="6.040546">
        <ele>458.501495</ele>
        <time>2021-07-03T22:22:05.724Z</time>
      </trkpt>
      <trkpt lat="45.823998" lon="6.039809">
        <ele>456.821562</ele>
        <time>2021-07-03T22:22:16.784Z</time>
      </trkpt>
      <trkpt lat="45.823726" lon="6.039313">
        <ele>455.599924</ele>
        <time>2021-07-03T22:22:24.195Z</time>
      </trkpt>
      <trkpt lat="45.820756" lon="6.034280">
        <ele>441.020702</ele>
        <time>2021-07-03T22:23:39.974Z</time>
      </trkpt>
      <trkpt lat="45.820480" lon="6.033808">
        <ele>438.328156</ele>
        <time>2021-07-03T22:23:46.531Z</time>
      </trkpt>
      <trkpt lat="45.820519" lon="6.033752">
        <ele>437.982186</ele>
        <time>2021-07-03T22:23:47.403Z</time>
      </trkpt>
      <trkpt lat="45.820558" lon="6.033713">
        <ele>437.684104</ele>
        <time>2021-07-03T22:23:48.058Z</time>
      </trkpt>
      <trkpt lat="45.820312" lon="6.033222">
        <ele>435.041473</ele>
        <time>2021-07-03T22:23:54.410Z</time>
      </trkpt>
      <trkpt lat="45.820199" lon="6.032989">
        <ele>433.800966</ele>
        <time>2021-07-03T22:23:57.492Z</time>
      </trkpt>
      <trkpt lat="45.820161" lon="6.032893">
        <ele>433.318492</ele>
        <time>2021-07-03T22:23:58.676Z</time>
      </trkpt>
      <trkpt lat="45.820106" lon="6.032898">
        <ele>432.972918</ele>
        <time>2021-07-03T22:23:59.428Z</time>
      </trkpt>
      <trkpt lat="45.819871" lon="6.032238">
        <ele>428.965581</ele>
        <time>2021-07-03T22:24:07.012Z</time>
      </trkpt>
      <trkpt lat="45.819724" lon="6.031094">
        <ele>420.644759</ele>
        <time>2021-07-03T22:24:18.543Z</time>
      </trkpt>
      <trkpt lat="45.819749" lon="6.030327">
        <ele>415.152497</ele>
        <time>2021-07-03T22:24:26.043Z</time>
      </trkpt>
      <trkpt lat="45.819869" lon="6.029271">
        <ele>408.359858</ele>
        <time>2021-07-03T22:24:36.653Z</time>
      </trkpt>
      <trkpt lat="45.819916" lon="6.028883">
        <ele>406.029610</ele>
        <time>2021-07-03T22:24:40.617Z</time>
      </trkpt>
      <trkpt lat="45.820014" lon="6.028624">
        <ele>404.285781</ele>
        <time>2021-07-03T22:24:43.604Z</time>
      </trkpt>
      <trkpt lat="45.820194" lon="6.027187">
        <ele>396.392532</ele>
        <time>2021-07-03T22:24:58.853Z</time>
      </trkpt>
      <trkpt lat="45.820194" lon="6.026745">
        <ele>395.025631</ele>
        <time>2021-07-03T22:25:03.661Z</time>
      </trkpt>
      <trkpt lat="45.820093" lon="6.025943">
        <ele>392.505246</ele>
        <time>2021-07-03T22:25:12.943Z</time>
      </trkpt>
      <trkpt lat="45.820078" lon="6.025769">
        <ele>391.963042</ele>
        <time>2021-07-03T22:25:14.902Z</time>
      </trkpt>
      <trkpt lat="45.820050" lon="6.025224">
        <ele>390.273032</ele>
        <time>2021-07-03T22:25:21.382Z</time>
      </trkpt>
      <trkpt lat="45.820032" lon="6.024949">
        <ele>389.418840</ele>
        <time>2021-07-03T22:25:24.784Z</time>
      </trkpt>
      <trkpt lat="45.820017" lon="6.024601">
        <ele>389.292814</ele>
        <time>2021-07-03T22:25:29.252Z</time>
      </trkpt>
      <trkpt lat="45.820050" lon="6.024333">
        <ele>389.354623</ele>
        <time>2021-07-03T22:25:32.712Z</time>
      </trkpt>
      <trkpt lat="45.820010" lon="6.023746">
        <ele>389.488575</ele>
        <time>2021-07-03T22:25:40.372Z</time>
      </trkpt>
      <trkpt lat="45.820032" lon="6.023662">
        <ele>389.508955</ele>
        <time>2021-07-03T22:25:41.655Z</time>
      </trkpt>
      <trkpt lat="45.820162" lon="6.023611">
        <ele>389.552875</ele>
        <time>2021-07-03T22:25:44.322Z</time>
      </trkpt>
      <trkpt lat="45.820178" lon="6.023565">
        <ele>389.564551</ele>
        <time>2021-07-03T22:25:44.907Z</time>
      </trkpt>
      <trkpt lat="45.820106" lon="6.023572">
        <ele>389.588069</ele>
        <time>2021-07-03T22:25:46.407Z</time>
      </trkpt>
      <trkpt lat="45.820002" lon="6.023476">
        <ele>389.628368</ele>
        <time>2021-07-03T22:25:51.718Z</time>
      </trkpt>
      <trkpt lat="45.819927" lon="6.023079">
        <ele>389.721786</ele>
        <time>2021-07-03T22:25:59.557Z</time>
      </trkpt>
      <trkpt lat="45.819906" lon="6.023028">
        <ele>389.735240</ele>
        <time>2021-07-03T22:26:01.819Z</time>
      </trkpt>
      <trkpt lat="45.819885" lon="6.022433">
        <ele>391.258449</ele>
        <time>2021-07-03T22:26:18.628Z</time>
      </trkpt>
      <trkpt lat="45.819876" lon="6.022260">
        <ele>392.261799</ele>
        <time>2021-07-03T22:26:22.881Z</time>
      </trkpt>
      <trkpt lat="45.819849" lon="6.021994">
        <ele>393.816475</ele>
        <time>2021-07-03T22:26:32.298Z</time>
      </trkpt>
      <trkpt lat="45.819797" lon="6.021607">
        <ele>396.095961</ele>
        <time>2021-07-03T22:26:44.447Z</time>
      </trkpt>
      <trkpt lat="45.819803" lon="6.021444">
        <ele>397.040007</ele>
        <time>2021-07-03T22:26:52.522Z</time>
      </trkpt>
      <trkpt lat="45.820046" lon="6.019058">
        <ele>412.927416</ele>
        <time>2021-07-03T22:28:42.217Z</time>
      </trkpt>
      <trkpt lat="45.819776" lon="6.015413">
        <ele>439.741162</ele>
        <time>2021-07-03T22:31:31.721Z</time>
      </trkpt>
      <trkpt lat="45.819735" lon="6.013927">
        <ele>447.238498</ele>
        <time>2021-07-03T22:32:26.126Z</time>
      </trkpt>
      <trkpt lat="45.819695" lon="6.012900">
        <ele>451.588650</ele>
        <time>2021-07-03T22:32:57.103Z</time>
      </trkpt>
      <trkpt lat="45.819672" lon="6.012309">
        <ele>453.857686</ele>
        <time>2021-07-03T22:33:13.044Z</time>
      </trkpt>
      <trkpt lat="45.819611" lon="6.011724">
        <ele>455.105591</ele>
        <time>2021-07-03T22:33:28.773Z</time>
      </trkpt>
      <trkpt lat="45.819670" lon="6.011188">
        <ele>456.250402</ele>
        <time>2021-07-03T22:33:42.557Z</time>
      </trkpt>
      <trkpt lat="45.819683" lon="6.010248">
        <ele>458.233898</ele>
        <time>2021-07-03T22:34:04.475Z</time>
      </trkpt>
      <trkpt lat="45.819733" lon="6.009911">
        <ele>458.960795</ele>
        <time>2021-07-03T22:34:11.645Z</time>
      </trkpt>
      <trkpt lat="45.819737" lon="6.009863">
        <ele>459.062781</ele>
        <time>2021-07-03T22:34:13.331Z</time>
      </trkpt>
      <trkpt lat="45.819750" lon="6.009850">
        <ele>459.080429</ele>
        <time>2021-07-03T22:34:13.888Z</time>
      </trkpt>
      <trkpt lat="45.819821" lon="6.009622">
        <ele>459.222384</ele>
        <time>2021-07-03T22:34:19.053Z</time>
      </trkpt>
      <trkpt lat="45.819758" lon="6.008984">
        <ele>459.588672</ele>
        <time>2021-07-03T22:34:32.131Z</time>
      </trkpt>
      <trkpt lat="45.819818" lon="6.008824">
        <ele>459.691953</ele>
        <time>2021-07-03T22:34:36.047Z</time>
      </trkpt>
      <trkpt lat="45.819906" lon="6.008748">
        <ele>459.775729</ele>
        <time>2021-07-03T22:34:38.606Z</time>
      </trkpt>
      <trkpt lat="45.819829" lon="6.008656">
        <ele>459.857456</ele>
        <time>2021-07-03T22:34:41.081Z</time>
      </trkpt>
      <trkpt lat="45.819743" lon="6.008574">
        <ele>459.941677</ele>
        <time>2021-07-03T22:34:44.067Z</time>
      </trkpt>
      <trkpt lat="45.819687" lon="6.008528">
        <ele>459.994309</ele>
        <time>2021-07-03T22:34:45.742Z</time>
      </trkpt>
      <trkpt lat="45.819730" lon="6.008145">
        <ele>460.214829</ele>
        <time>2021-07-03T22:34:51.739Z</time>
      </trkpt>
      <trkpt lat="45.819741" lon="6.007770">
        <ele>460.428184</ele>
        <time>2021-07-03T22:34:57.826Z</time>
      </trkpt>
      <trkpt lat="45.819685" lon="6.007174">
        <ele>460.194527</ele>
        <time>2021-07-03T22:35:06.162Z</time>
      </trkpt>
      <trkpt lat="45.819600" lon="6.006710">
        <ele>459.795728</ele>
        <time>2021-07-03T22:35:12.651Z</time>
      </trkpt>
      <trkpt lat="45.818749" lon="6.003677">
        <ele>456.762316</ele>
        <time>2021-07-03T22:35:54.440Z</time>
      </trkpt>
      <trkpt lat="45.818468" lon="6.002684">
        <ele>455.653428</ele>
        <time>2021-07-03T22:36:08.411Z</time>
      </trkpt>
      <trkpt lat="45.818328" lon="6.002178">
        <ele>455.062092</ele>
        <time>2021-07-03T22:36:15.417Z</time>
      </trkpt>
      <trkpt lat="45.818191" lon="6.001704">
        <ele>454.504722</ele>
        <time>2021-07-03T22:36:22.012Z</time>
      </trkpt>
      <trkpt lat="45.817729" lon="6.000077">
        <ele>452.463655</ele>
        <time>2021-07-03T22:36:44.390Z</time>
      </trkpt>
      <trkpt lat="45.816954" lon="5.997471">
        <ele>448.219384</ele>
        <time>2021-07-03T22:37:18.415Z</time>
      </trkpt>
      <trkpt lat="45.816597" lon="5.996272">
        <ele>446.397682</ele>
        <time>2021-07-03T22:37:33.983Z</time>
      </trkpt>
      <trkpt lat="45.816060" lon="5.994385">
        <ele>445.134017</ele>
        <time>2021-07-03T22:38:01.094Z</time>
      </trkpt>
      <trkpt lat="45.815668" lon="5.993047">
        <ele>444.963762</ele>
        <time>2021-07-03T22:38:26.339Z</time>
      </trkpt>
      <trkpt lat="45.814558" lon="5.989262">
        <ele>445.705958</ele>
        <time>2021-07-03T22:39:36.472Z</time>
      </trkpt>
      <trkpt lat="45.814319" lon="5.988666">
        <ele>445.615350</ele>
        <time>2021-07-03T22:39:45.497Z</time>
      </trkpt>
      <trkpt lat="45.814047" lon="5.988116">
        <ele>444.808019</ele>
        <time>2021-07-03T22:39:54.017Z</time>
      </trkpt>
      <trkpt lat="45.813928" lon="5.987924">
        <ele>444.402012</ele>
        <time>2021-07-03T22:39:57.035Z</time>
      </trkpt>
      <trkpt lat="45.813395" lon="5.987081">
        <ele>442.603447</ele>
        <time>2021-07-03T22:40:10.559Z</time>
      </trkpt>
      <trkpt lat="45.813090" lon="5.986585">
        <ele>441.558218</ele>
        <time>2021-07-03T22:40:18.355Z</time>
      </trkpt>
      <trkpt lat="45.812971" lon="5.986391">
        <ele>441.151144</ele>
        <time>2021-07-03T22:40:21.279Z</time>
      </trkpt>
      <trkpt lat="45.812905" lon="5.986283">
        <ele>440.924982</ele>
        <time>2021-07-03T22:40:22.927Z</time>
      </trkpt>
      <trkpt lat="45.812184" lon="5.985249">
        <ele>438.621990</ele>
        <time>2021-07-03T22:40:40.663Z</time>
      </trkpt>
      <trkpt lat="45.811739" lon="5.984887">
        <ele>437.466345</ele>
        <time>2021-07-03T22:40:49.752Z</time>
      </trkpt>
      <trkpt lat="45.809569" lon="5.983502">
        <ele>432.239056</ele>
        <time>2021-07-03T22:41:31.016Z</time>
      </trkpt>
      <trkpt lat="45.808308" lon="5.982697">
        <ele>428.886870</ele>
        <time>2021-07-03T22:41:54.424Z</time>
      </trkpt>
      <trkpt lat="45.806893" lon="5.981768">
        <ele>424.861041</ele>
        <time>2021-07-03T22:42:20.693Z</time>
      </trkpt>
      <trkpt lat="45.806349" lon="5.981135">
        <ele>422.932921</ele>
        <time>2021-07-03T22:42:32.496Z</time>
      </trkpt>
      <trkpt lat="45.805516" lon="5.980000">
        <ele>419.741927</ele>
        <time>2021-07-03T22:42:51.683Z</time>
      </trkpt>
      <trkpt lat="45.805284" lon="5.979642">
        <ele>418.677494</ele>
        <time>2021-07-03T22:42:57.341Z</time>
      </trkpt>
      <trkpt lat="45.804157" lon="5.977907">
        <ele>413.297708</ele>
        <time>2021-07-03T22:43:24.364Z</time>
      </trkpt>
      <trkpt lat="45.802793" lon="5.975797">
        <ele>404.682144</ele>
        <time>2021-07-03T22:43:55.642Z</time>
      </trkpt>
      <trkpt lat="45.802648" lon="5.975581">
        <ele>403.563198</ele>
        <time>2021-07-03T22:43:58.796Z</time>
      </trkpt>
      <trkpt lat="45.802584" lon="5.975489">
        <ele>403.078213</ele>
        <time>2021-07-03T22:44:00.132Z</time>
      </trkpt>
      <trkpt lat="45.802324" lon="5.975109">
        <ele>401.091383</ele>
        <time>2021-07-03T22:44:05.650Z</time>
      </trkpt>
      <trkpt lat="45.801959" lon="5.974524">
        <ele>398.161815</ele>
        <time>2021-07-03T22:44:13.708Z</time>
      </trkpt>
      <trkpt lat="45.801894" lon="5.974428">
        <ele>397.662435</ele>
        <time>2021-07-03T22:44:15.091Z</time>
      </trkpt>
      <trkpt lat="45.801029" lon="5.973150">
        <ele>390.601328</ele>
        <time>2021-07-03T22:44:33.338Z</time>
      </trkpt>
      <trkpt lat="45.800914" lon="5.972980">
        <ele>389.656116</ele>
        <time>2021-07-03T22:44:35.801Z</time>
      </trkpt>
      <trkpt lat="45.800848" lon="5.972878">
        <ele>389.100810</ele>
        <time>2021-07-03T22:44:37.227Z</time>
      </trkpt>
      <trkpt lat="45.800689" lon="5.972633">
        <ele>387.765150</ele>
        <time>2021-07-03T22:44:40.707Z</time>
      </trkpt>
      <trkpt lat="45.800596" lon="5.972488">
        <ele>386.978941</ele>
        <time>2021-07-03T22:44:42.748Z</time>
      </trkpt>
      <trkpt lat="45.799944" lon="5.971486">
        <ele>382.872009</ele>
        <time>2021-07-03T22:44:57.225Z</time>
      </trkpt>
      <trkpt lat="45.799875" lon="5.971377">
        <ele>382.438817</ele>
        <time>2021-07-03T22:44:58.794Z</time>
      </trkpt>
      <trkpt lat="45.799504" lon="5.970805">
        <ele>380.140104</ele>
        <time>2021-07-03T22:45:07.637Z</time>
      </trkpt>
      <trkpt lat="45.799168" lon="5.970289">
        <ele>378.286902</ele>
        <time>2021-07-03T22:45:15.754Z</time>
      </trkpt>
      <trkpt lat="45.799093" lon="5.970196">
        <ele>377.958453</ele>
        <time>2021-07-03T22:45:17.398Z</time>
      </trkpt>
      <trkpt lat="45.799025" lon="5.970105">
        <ele>377.650347</ele>
        <time>2021-07-03T22:45:19.080Z</time>
      </trkpt>
      <trkpt lat="45.798854" lon="5.969873">
        <ele>376.870550</ele>
        <time>2021-07-03T22:45:22.851Z</time>
      </trkpt>
      <trkpt lat="45.798708" lon="5.970119">
        <ele>376.124358</ele>
        <time>2021-07-03T22:45:26.743Z</time>
      </trkpt>
      <trkpt lat="45.798614" lon="5.970282">
        <ele>375.635764</ele>
        <time>2021-07-03T22:45:29.164Z</time>
      </trkpt>
      <trkpt lat="45.798539" lon="5.970411">
        <ele>375.247800</ele>
        <time>2021-07-03T22:45:31.398Z</time>
      </trkpt>
      <trkpt lat="45.798367" lon="5.970346">
        <ele>374.658525</ele>
        <time>2021-07-03T22:45:35.174Z</time>
      </trkpt>
      <trkpt lat="45.798165" lon="5.970266">
        <ele>373.964265</ele>
        <time>2021-07-03T22:45:40.101Z</time>
      </trkpt>
      <trkpt lat="45.797948" lon="5.970191">
        <ele>373.224775</ele>
        <time>2021-07-03T22:45:44.775Z</time>
      </trkpt>
      <trkpt lat="45.797709" lon="5.970035">
        <ele>372.350015</ele>
        <time>2021-07-03T22:45:49.056Z</time>
      </trkpt>
      <trkpt lat="45.797473" lon="5.969856">
        <ele>371.460173</ele>
        <time>2021-07-03T22:45:53.799Z</time>
      </trkpt>
      <trkpt lat="45.797406" lon="5.969804">
        <ele>371.206253</ele>
        <time>2021-07-03T22:45:54.956Z</time>
      </trkpt>
      <trkpt lat="45.797219" lon="5.969654">
        <ele>370.492099</ele>
        <time>2021-07-03T22:45:58.819Z</time>
      </trkpt>
      <trkpt lat="45.796908" lon="5.969584">
        <ele>369.442797</ele>
        <time>2021-07-03T22:46:03.979Z</time>
      </trkpt>
      <trkpt lat="45.796733" lon="5.969484">
        <ele>368.814904</ele>
        <time>2021-07-03T22:46:06.999Z</time>
      </trkpt>
      <trkpt lat="45.796699" lon="5.969550">
        <ele>368.624200</ele>
        <time>2021-07-03T22:46:07.902Z</time>
      </trkpt>
      <trkpt lat="45.796562" lon="5.969623">
        <ele>368.137062</ele>
        <time>2021-07-03T22:46:10.474Z</time>
      </trkpt>
      <trkpt lat="45.796299" lon="5.969661">
        <ele>367.256001</ele>
        <time>2021-07-03T22:46:14.709Z</time>
      </trkpt>
      <trkpt lat="45.795941" lon="5.969714">
        <ele>366.838168</ele>
        <time>2021-07-03T22:46:21.051Z</time>
      </trkpt>
      <trkpt lat="45.795129" lon="5.969972">
        <ele>366.044631</ele>
        <time>2021-07-03T22:46:37.782Z</time>
      </trkpt>
      <trkpt lat="45.794718" lon="5.969948">
        <ele>365.652159</ele>
        <time>2021-07-03T22:46:47.309Z</time>
      </trkpt>
      <trkpt lat="45.794397" lon="5.969930">
        <ele>365.346392</ele>
        <time>2021-07-03T22:46:54.777Z</time>
      </trkpt>
      <trkpt lat="45.792126" lon="5.968991">
        <ele>362.505585</ele>
        <time>2021-07-03T22:47:39.671Z</time>
      </trkpt>
      <trkpt lat="45.791268" lon="5.968448">
        <ele>360.758210</ele>
        <time>2021-07-03T22:47:55.800Z</time>
      </trkpt>
      <trkpt lat="45.790317" lon="5.967417">
        <ele>358.690487</ele>
        <time>2021-07-03T22:48:16.491Z</time>
      </trkpt>
      <trkpt lat="45.790129" lon="5.967365">
        <ele>358.363422</ele>
        <time>2021-07-03T22:48:20.019Z</time>
      </trkpt>
      <trkpt lat="45.789934" lon="5.967401">
        <ele>358.027569</ele>
        <time>2021-07-03T22:48:23.956Z</time>
      </trkpt>
      <trkpt lat="45.789749" lon="5.967504">
        <ele>357.688568</ele>
        <time>2021-07-03T22:48:27.540Z</time>
      </trkpt>
      <trkpt lat="45.789674" lon="5.967559">
        <ele>357.544673</ele>
        <time>2021-07-03T22:48:29.287Z</time>
      </trkpt>
      <trkpt lat="45.789213" lon="5.967890">
        <ele>357.032230</ele>
        <time>2021-07-03T22:48:39.749Z</time>
      </trkpt>
      <trkpt lat="45.788834" lon="5.968199">
        <ele>356.712105</ele>
        <time>2021-07-03T22:48:48.242Z</time>
      </trkpt>
      <trkpt lat="45.788626" lon="5.968283">
        <ele>356.553433</ele>
        <time>2021-07-03T22:48:52.945Z</time>
      </trkpt>
      <trkpt lat="45.788487" lon="5.968339">
        <ele>356.447416</ele>
        <time>2021-07-03T22:48:55.623Z</time>
      </trkpt>
      <trkpt lat="45.787965" lon="5.968249">
        <ele>356.061357</ele>
        <time>2021-07-03T22:49:06.730Z</time>
      </trkpt>
      <trkpt lat="45.787533" lon="5.968028">
        <ele>355.802886</ele>
        <time>2021-07-03T22:49:15.959Z</time>
      </trkpt>
      <trkpt lat="45.786310" lon="5.967731">
        <ele>355.161700</ele>
        <time>2021-07-03T22:49:40.438Z</time>
      </trkpt>
      <trkpt lat="45.785191" lon="5.967613">
        <ele>356.011301</ele>
        <time>2021-07-03T22:50:07.438Z</time>
      </trkpt>
      <trkpt lat="45.785028" lon="5.967557">
        <ele>356.183959</ele>
        <time>2021-07-03T22:50:11.984Z</time>
      </trkpt>
      <trkpt lat="45.784710" lon="5.967446">
        <ele>356.521097</ele>
        <time>2021-07-03T22:50:21.176Z</time>
      </trkpt>
      <trkpt lat="45.783669" lon="5.967331">
        <ele>358.514524</ele>
        <time>2021-07-03T22:50:53.372Z</time>
      </trkpt>
      <trkpt lat="45.782969" lon="5.967323">
        <ele>360.202696</ele>
        <time>2021-07-03T22:51:16.410Z</time>
      </trkpt>
      <trkpt lat="45.780852" lon="5.967458">
        <ele>365.216352</ele>
        <time>2021-07-03T22:52:24.409Z</time>
      </trkpt>
      <trkpt lat="45.780620" lon="5.967462">
        <ele>365.592573</ele>
        <time>2021-07-03T22:52:31.437Z</time>
      </trkpt>
      <trkpt lat="45.780411" lon="5.967466">
        <ele>365.784246</ele>
        <time>2021-07-03T22:52:37.576Z</time>
      </trkpt>
      <trkpt lat="45.780058" lon="5.967354">
        <ele>366.115781</ele>
        <time>2021-07-03T22:52:48.168Z</time>
      </trkpt>
      <trkpt lat="45.780073" lon="5.967310">
        <ele>366.147103</ele>
        <time>2021-07-03T22:52:49.075Z</time>
      </trkpt>
      <trkpt lat="45.780078" lon="5.967262">
        <ele>366.178141</ele>
        <time>2021-07-03T22:52:50.128Z</time>
      </trkpt>
      <trkpt lat="45.780072" lon="5.967213">
        <ele>366.209958</ele>
        <time>2021-07-03T22:52:51.132Z</time>
      </trkpt>
      <trkpt lat="45.780055" lon="5.967169">
        <ele>366.242127</ele>
        <time>2021-07-03T22:52:52.238Z</time>
      </trkpt>
      <trkpt lat="45.779996" lon="5.967117">
        <ele>366.305635</ele>
        <time>2021-07-03T22:52:53.932Z</time>
      </trkpt>
      <trkpt lat="45.779961" lon="5.967115">
        <ele>366.337756</ele>
        <time>2021-07-03T22:52:54.647Z</time>
      </trkpt>
      <trkpt lat="45.779927" lon="5.967130">
        <ele>366.370376</ele>
        <time>2021-07-03T22:52:55.772Z</time>
      </trkpt>
      <trkpt lat="45.779878" lon="5.967202">
        <ele>366.434714</ele>
        <time>2021-07-03T22:52:57.589Z</time>
      </trkpt>
      <trkpt lat="45.779886" lon="5.967348">
        <ele>366.528375</ele>
        <time>2021-07-03T22:53:00.124Z</time>
      </trkpt>
      <trkpt lat="45.779911" lon="5.967385">
        <ele>366.561322</ele>
        <time>2021-07-03T22:53:01.214Z</time>
      </trkpt>
      <trkpt lat="45.779712" lon="5.967495">
        <ele>366.756898</ele>
        <time>2021-07-03T22:53:06.005Z</time>
      </trkpt>
      <trkpt lat="45.779439" lon="5.967645">
        <ele>367.024993</ele>
        <time>2021-07-03T22:53:12.372Z</time>
      </trkpt>
      <trkpt lat="45.778857" lon="5.967745">
        <ele>366.581978</ele>
        <time>2021-07-03T22:53:23.980Z</time>
      </trkpt>
      <trkpt lat="45.778396" lon="5.967512">
        <ele>366.005770</ele>
        <time>2021-07-03T22:53:33.552Z</time>
      </trkpt>
      <trkpt lat="45.776472" lon="5.966540">
        <ele>363.616147</ele>
        <time>2021-07-03T22:54:10.135Z</time>
      </trkpt>
      <trkpt lat="45.775830" lon="5.966309">
        <ele>362.963658</ele>
        <time>2021-07-03T22:54:24.125Z</time>
      </trkpt>
      <trkpt lat="45.775773" lon="5.966275">
        <ele>363.012122</ele>
        <time>2021-07-03T22:54:25.440Z</time>
      </trkpt>
      <trkpt lat="45.775151" lon="5.965907">
        <ele>363.540337</ele>
        <time>2021-07-03T22:54:41.823Z</time>
      </trkpt>
      <trkpt lat="45.774672" lon="5.965622">
        <ele>363.947450</ele>
        <time>2021-07-03T22:54:56.312Z</time>
      </trkpt>
      <trkpt lat="45.773751" lon="5.964849">
        <ele>364.317473</ele>
        <time>2021-07-03T22:55:24.874Z</time>
      </trkpt>
      <trkpt lat="45.773581" lon="5.964794">
        <ele>364.314458</ele>
        <time>2021-07-03T22:55:29.387Z</time>
      </trkpt>
      <trkpt lat="45.773505" lon="5.964770">
        <ele>364.313112</ele>
        <time>2021-07-03T22:55:31.311Z</time>
      </trkpt>
      <trkpt lat="45.773141" lon="5.964651">
        <ele>364.306653</ele>
        <time>2021-07-03T22:55:39.295Z</time>
      </trkpt>
      <trkpt lat="45.773102" lon="5.964639">
        <ele>364.305963</ele>
        <time>2021-07-03T22:55:39.914Z</time>
      </trkpt>
      <trkpt lat="45.772451" lon="5.964344">
        <ele>364.000043</ele>
        <time>2021-07-03T22:55:53.444Z</time>
      </trkpt>
      <trkpt lat="45.771625" lon="5.963796">
        <ele>361.962948</ele>
        <time>2021-07-03T22:56:09.252Z</time>
      </trkpt>
      <trkpt lat="45.770489" lon="5.963779">
        <ele>359.255312</ele>
        <time>2021-07-03T22:56:28.155Z</time>
      </trkpt>
      <trkpt lat="45.770317" lon="5.963722">
        <ele>358.783577</ele>
        <time>2021-07-03T22:56:31.097Z</time>
      </trkpt>
      <trkpt lat="45.769890" lon="5.963289">
        <ele>357.385964</ele>
        <time>2021-07-03T22:56:39.824Z</time>
      </trkpt>
      <trkpt lat="45.768816" lon="5.962202">
        <ele>354.278186</ele>
        <time>2021-07-03T22:57:02.041Z</time>
      </trkpt>
      <trkpt lat="45.766501" lon="5.960834">
        <ele>349.962763</ele>
        <time>2021-07-03T22:57:47.274Z</time>
      </trkpt>
      <trkpt lat="45.764981" lon="5.959785">
        <ele>348.114206</ele>
        <time>2021-07-03T22:58:19.775Z</time>
      </trkpt>
      <trkpt lat="45.764705" lon="5.959483">
        <ele>347.788887</ele>
        <time>2021-07-03T22:58:26.582Z</time>
      </trkpt>
      <trkpt lat="45.764250" lon="5.958752">
        <ele>347.394301</ele>
        <time>2021-07-03T22:58:40.303Z</time>
      </trkpt>
      <trkpt lat="45.763810" lon="5.958083">
        <ele>347.167496</ele>
        <time>2021-07-03T22:58:53.595Z</time>
      </trkpt>
      <trkpt lat="45.763621" lon="5.957892">
        <ele>347.085726</ele>
        <time>2021-07-03T22:58:58.638Z</time>
      </trkpt>
      <trkpt lat="45.762558" lon="5.957238">
        <ele>347.127548</ele>
        <time>2021-07-03T22:59:24.242Z</time>
      </trkpt>
      <trkpt lat="45.762146" lon="5.956987">
        <ele>347.278784</ele>
        <time>2021-07-03T22:59:34.878Z</time>
      </trkpt>
      <trkpt lat="45.761903" lon="5.956810">
        <ele>347.370868</ele>
        <time>2021-07-03T22:59:41.446Z</time>
      </trkpt>
      <trkpt lat="45.761420" lon="5.956421">
        <ele>347.657685</ele>
        <time>2021-07-03T22:59:55.277Z</time>
      </trkpt>
      <trkpt lat="45.760731" lon="5.955763">
        <ele>348.583533</ele>
        <time>2021-07-03T23:00:17.190Z</time>
      </trkpt>
      <trkpt lat="45.759875" lon="5.955228">
        <ele>349.580229</ele>
        <time>2021-07-03T23:00:42.943Z</time>
      </trkpt>
      <trkpt lat="45.759324" lon="5.954621">
        <ele>349.993091</ele>
        <time>2021-07-03T23:01:01.934Z</time>
      </trkpt>
      <trkpt lat="45.757537" lon="5.952945">
        <ele>350.103453</ele>
        <time>2021-07-03T23:01:49.903Z</time>
      </trkpt>
      <trkpt lat="45.757113" lon="5.951868">
        <ele>349.612666</ele>
        <time>2021-07-03T23:02:06.161Z</time>
      </trkpt>
      <trkpt lat="45.756680" lon="5.951286">
        <ele>348.993348</ele>
        <time>2021-07-03T23:02:17.159Z</time>
      </trkpt>
      <trkpt lat="45.756545" lon="5.951008">
        <ele>348.746796</ele>
        <time>2021-07-03T23:02:21.479Z</time>
      </trkpt>
      <trkpt lat="45.755952" lon="5.948545">
        <ele>347.974411</ele>
        <time>2021-07-03T23:02:58.371Z</time>
      </trkpt>
      <trkpt lat="45.755592" lon="5.947994">
        <ele>347.996457</ele>
        <time>2021-07-03T23:03:11.716Z</time>
      </trkpt>
      <trkpt lat="45.755232" lon="5.946659">
        <ele>348.465985</ele>
        <time>2021-07-03T23:03:38.364Z</time>
      </trkpt>
      <trkpt lat="45.754673" lon="5.945827">
        <ele>348.951696</ele>
        <time>2021-07-03T23:03:58.217Z</time>
      </trkpt>
      <trkpt lat="45.754129" lon="5.944839">
        <ele>348.656183</ele>
        <time>2021-07-03T23:04:16.928Z</time>
      </trkpt>
      <trkpt lat="45.752729" lon="5.943145">
        <ele>347.956829</ele>
        <time>2021-07-03T23:04:52.306Z</time>
      </trkpt>
      <trkpt lat="45.752438" lon="5.942597">
        <ele>348.007219</ele>
        <time>2021-07-03T23:05:03.701Z</time>
      </trkpt>
      <trkpt lat="45.751701" lon="5.941605">
        <ele>348.784916</ele>
        <time>2021-07-03T23:05:30.396Z</time>
      </trkpt>
      <trkpt lat="45.751510" lon="5.941347">
        <ele>349.283039</ele>
        <time>2021-07-03T23:05:38.145Z</time>
      </trkpt>
      <trkpt lat="45.750783" lon="5.940733">
        <ele>350.884532</ele>
        <time>2021-07-03T23:06:03.852Z</time>
      </trkpt>
      <trkpt lat="45.750186" lon="5.939958">
        <ele>352.952045</ele>
        <time>2021-07-03T23:06:30.067Z</time>
      </trkpt>
      <trkpt lat="45.749854" lon="5.939528">
        <ele>354.295580</ele>
        <time>2021-07-03T23:06:44.779Z</time>
      </trkpt>
      <trkpt lat="45.749168" lon="5.938903">
        <ele>356.736160</ele>
        <time>2021-07-03T23:07:13.390Z</time>
      </trkpt>
      <trkpt lat="45.748608" lon="5.938203">
        <ele>359.938180</ele>
        <time>2021-07-03T23:07:41.980Z</time>
      </trkpt>
      <trkpt lat="45.748087" lon="5.936907">
        <ele>364.534827</ele>
        <time>2021-07-03T23:08:27.499Z</time>
      </trkpt>
      <trkpt lat="45.747871" lon="5.936610">
        <ele>364.829292</ele>
        <time>2021-07-03T23:08:39.575Z</time>
      </trkpt>
      <trkpt lat="45.747648" lon="5.936454">
        <ele>364.850366</ele>
        <time>2021-07-03T23:08:46.892Z</time>
      </trkpt>
      <trkpt lat="45.747400" lon="5.936325">
        <ele>364.872773</ele>
        <time>2021-07-03T23:08:53.483Z</time>
      </trkpt>
      <trkpt lat="45.747092" lon="5.936309">
        <ele>364.898948</ele>
        <time>2021-07-03T23:09:00.630Z</time>
      </trkpt>
      <trkpt lat="45.746569" lon="5.935881">
        <ele>364.950097</ele>
        <time>2021-07-03T23:09:11.787Z</time>
      </trkpt>
      <trkpt lat="45.746426" lon="5.935764">
        <ele>364.801437</ele>
        <time>2021-07-03T23:09:14.291Z</time>
      </trkpt>
      <trkpt lat="45.745976" lon="5.935308">
        <ele>361.338766</ele>
        <time>2021-07-03T23:09:22.689Z</time>
      </trkpt>
      <trkpt lat="45.744228" lon="5.933948">
        <ele>349.600314</ele>
        <time>2021-07-03T23:09:50.874Z</time>
      </trkpt>
      <trkpt lat="45.743595" lon="5.933469">
        <ele>345.810296</ele>
        <time>2021-07-03T23:10:01.934Z</time>
      </trkpt>
      <trkpt lat="45.743246" lon="5.933351">
        <ele>344.076221</ele>
        <time>2021-07-03T23:10:07.789Z</time>
      </trkpt>
      <trkpt lat="45.743078" lon="5.933209">
        <ele>343.791873</ele>
        <time>2021-07-03T23:10:11.120Z</time>
      </trkpt>
      <trkpt lat="45.742891" lon="5.933049">
        <ele>343.474358</ele>
        <time>2021-07-03T23:10:14.892Z</time>
      </trkpt>
      <trkpt lat="45.742826" lon="5.932966">
        <ele>343.347434</ele>
        <time>2021-07-03T23:10:16.481Z</time>
      </trkpt>
      <trkpt lat="45.742361" lon="5.932372">
        <ele>342.439279</ele>
        <time>2021-07-03T23:10:28.006Z</time>
      </trkpt>
      <trkpt lat="45.741220" lon="5.930890">
        <ele>341.506709</ele>
        <time>2021-07-03T23:11:00.729Z</time>
      </trkpt>
      <trkpt lat="45.741025" lon="5.930622">
        <ele>341.503763</ele>
        <time>2021-07-03T23:11:07.312Z</time>
      </trkpt>
      <trkpt lat="45.740734" lon="5.930326">
        <ele>341.499872</ele>
        <time>2021-07-03T23:11:15.487Z</time>
      </trkpt>
      <trkpt lat="45.740469" lon="5.930241">
        <ele>341.496448</ele>
        <time>2021-07-03T23:11:21.565Z</time>
      </trkpt>
      <trkpt lat="45.740211" lon="5.930240">
        <ele>341.476760</ele>
        <time>2021-07-03T23:11:27.389Z</time>
      </trkpt>
      <trkpt lat="45.739917" lon="5.930275">
        <ele>341.454248</ele>
        <time>2021-07-03T23:11:34.241Z</time>
      </trkpt>
      <trkpt lat="45.739682" lon="5.930313">
        <ele>341.436202</ele>
        <time>2021-07-03T23:11:39.915Z</time>
      </trkpt>
      <trkpt lat="45.739415" lon="5.930306">
        <ele>341.415824</ele>
        <time>2021-07-03T23:11:45.675Z</time>
      </trkpt>
      <trkpt lat="45.738704" lon="5.930321">
        <ele>341.361563</ele>
        <time>2021-07-03T23:12:00.880Z</time>
      </trkpt>
      <trkpt lat="45.738018" lon="5.930449">
        <ele>340.992594</ele>
        <time>2021-07-03T23:12:14.718Z</time>
      </trkpt>
      <trkpt lat="45.737539" lon="5.930737">
        <ele>340.707024</ele>
        <time>2021-07-03T23:12:25.193Z</time>
      </trkpt>
      <trkpt lat="45.737252" lon="5.930996">
        <ele>340.520561</ele>
        <time>2021-07-03T23:12:32.162Z</time>
      </trkpt>
      <trkpt lat="45.736662" lon="5.931195">
        <ele>340.229732</ele>
        <time>2021-07-03T23:12:44.742Z</time>
      </trkpt>
      <trkpt lat="45.736292" lon="5.931217">
        <ele>340.073147</ele>
        <time>2021-07-03T23:12:52.483Z</time>
      </trkpt>
      <trkpt lat="45.735955" lon="5.931179">
        <ele>339.930210</ele>
        <time>2021-07-03T23:12:59.516Z</time>
      </trkpt>
      <trkpt lat="45.734918" lon="5.930644">
        <ele>339.332611</ele>
        <time>2021-07-03T23:13:22.390Z</time>
      </trkpt>
      <trkpt lat="45.734551" lon="5.930582">
        <ele>339.035804</ele>
        <time>2021-07-03T23:13:30.163Z</time>
      </trkpt>
      <trkpt lat="45.733957" lon="5.930650">
        <ele>338.557197</ele>
        <time>2021-07-03T23:13:42.036Z</time>
      </trkpt>
      <trkpt lat="45.733486" lon="5.930555">
        <ele>338.175171</ele>
        <time>2021-07-03T23:13:50.877Z</time>
      </trkpt>
      <trkpt lat="45.733270" lon="5.930505">
        <ele>337.765093</ele>
        <time>2021-07-03T23:13:55.040Z</time>
      </trkpt>
      <trkpt lat="45.733232" lon="5.930496">
        <ele>337.690581</ele>
        <time>2021-07-03T23:13:55.762Z</time>
      </trkpt>
      <trkpt lat="45.733074" lon="5.930458">
        <ele>337.380641</ele>
        <time>2021-07-03T23:13:58.498Z</time>
      </trkpt>
      <trkpt lat="45.733041" lon="5.930442">
        <ele>337.313243</ele>
        <time>2021-07-03T23:13:59.134Z</time>
      </trkpt>
      <trkpt lat="45.732961" lon="5.930405">
        <ele>337.150612</ele>
        <time>2021-07-03T23:14:00.718Z</time>
      </trkpt>
      <trkpt lat="45.732606" lon="5.930209">
        <ele>336.414604</ele>
        <time>2021-07-03T23:14:07.461Z</time>
      </trkpt>
      <trkpt lat="45.732212" lon="5.929930">
        <ele>335.564354</ele>
        <time>2021-07-03T23:14:15.201Z</time>
      </trkpt>
      <trkpt lat="45.732141" lon="5.929871">
        <ele>335.405565</ele>
        <time>2021-07-03T23:14:16.493Z</time>
      </trkpt>
      <trkpt lat="45.732024" lon="5.929764">
        <ele>335.137033</ele>
        <time>2021-07-03T23:14:18.981Z</time>
      </trkpt>
      <trkpt lat="45.731915" lon="5.929637">
        <ele>334.865231</ele>
        <time>2021-07-03T23:14:21.533Z</time>
      </trkpt>
      <trkpt lat="45.731845" lon="5.929532">
        <ele>334.669214</ele>
        <time>2021-07-03T23:14:23.146Z</time>
      </trkpt>
      <trkpt lat="45.731758" lon="5.929401">
        <ele>334.425772</ele>
        <time>2021-07-03T23:14:25.357Z</time>
      </trkpt>
      <trkpt lat="45.731688" lon="5.929303">
        <ele>334.236994</ele>
        <time>2021-07-03T23:14:27.145Z</time>
      </trkpt>
      <trkpt lat="45.731550" lon="5.929159">
        <ele>333.907702</ele>
        <time>2021-07-03T23:14:29.941Z</time>
      </trkpt>
      <trkpt lat="45.731483" lon="5.929105">
        <ele>333.759427</ele>
        <time>2021-07-03T23:14:31.263Z</time>
      </trkpt>
      <trkpt lat="45.731405" lon="5.929050">
        <ele>333.591746</ele>
        <time>2021-07-03T23:14:32.876Z</time>
      </trkpt>
      <trkpt lat="45.731236" lon="5.928945">
        <ele>333.236448</ele>
        <time>2021-07-03T23:14:35.990Z</time>
      </trkpt>
      <trkpt lat="45.731122" lon="5.928824">
        <ele>332.962795</ele>
        <time>2021-07-03T23:14:38.591Z</time>
      </trkpt>
      <trkpt lat="45.731056" lon="5.928766">
        <ele>332.813453</ele>
        <time>2021-07-03T23:14:40.099Z</time>
      </trkpt>
      <trkpt lat="45.731046" lon="5.928761">
        <ele>332.793025</ele>
        <time>2021-07-03T23:14:40.276Z</time>
      </trkpt>
      <trkpt lat="45.730998" lon="5.928739">
        <ele>332.695820</ele>
        <time>2021-07-03T23:14:41.080Z</time>
      </trkpt>
      <trkpt lat="45.730967" lon="5.928724">
        <ele>332.632710</ele>
        <time>2021-07-03T23:14:41.604Z</time>
      </trkpt>
      <trkpt lat="45.730846" lon="5.928704">
        <ele>332.397779</ele>
        <time>2021-07-03T23:14:43.807Z</time>
      </trkpt>
      <trkpt lat="45.730759" lon="5.928697">
        <ele>332.229711</ele>
        <time>2021-07-03T23:14:45.476Z</time>
      </trkpt>
      <trkpt lat="45.730442" lon="5.928503">
        <ele>331.564835</ele>
        <time>2021-07-03T23:14:51.779Z</time>
      </trkpt>
      <trkpt lat="45.730229" lon="5.928492">
        <ele>331.157180</ele>
        <time>2021-07-03T23:14:55.646Z</time>
      </trkpt>
      <trkpt lat="45.729874" lon="5.928595">
        <ele>330.496571</ele>
        <time>2021-07-03T23:15:02.263Z</time>
      </trkpt>
      <trkpt lat="45.729368" lon="5.928740">
        <ele>329.555426</ele>
        <time>2021-07-03T23:15:11.715Z</time>
      </trkpt>
      <trkpt lat="45.729354" lon="5.928745">
        <ele>329.529110</ele>
        <time>2021-07-03T23:15:11.978Z</time>
      </trkpt>
      <trkpt lat="45.728708" lon="5.928942">
        <ele>328.324510</ele>
        <time>2021-07-03T23:15:23.914Z</time>
      </trkpt>
      <trkpt lat="45.728245" lon="5.929107">
        <ele>326.805847</ele>
        <time>2021-07-03T23:15:32.222Z</time>
      </trkpt>
      <trkpt lat="45.727325" lon="5.929648">
        <ele>322.552846</ele>
        <time>2021-07-03T23:15:47.571Z</time>
      </trkpt>
      <trkpt lat="45.726976" lon="5.930002">
        <ele>320.724064</ele>
        <time>2021-07-03T23:15:53.987Z</time>
      </trkpt>
      <trkpt lat="45.726640" lon="5.930373">
        <ele>318.351673</ele>
        <time>2021-07-03T23:16:00.282Z</time>
      </trkpt>
      <trkpt lat="45.726538" lon="5.930429">
        <ele>317.689179</ele>
        <time>2021-07-03T23:16:01.808Z</time>
      </trkpt>
      <trkpt lat="45.726398" lon="5.930385">
        <ele>316.819903</ele>
        <time>2021-07-03T23:16:04.039Z</time>
      </trkpt>
      <trkpt lat="45.726318" lon="5.930291">
        <ele>316.192374</ele>
        <time>2021-07-03T23:16:05.603Z</time>
      </trkpt>
      <trkpt lat="45.726271" lon="5.930207">
        <ele>315.736598</ele>
        <time>2021-07-03T23:16:06.632Z</time>
      </trkpt>
      <trkpt lat="45.726193" lon="5.929618">
        <ele>313.198414</ele>
        <time>2021-07-03T23:16:12.643Z</time>
      </trkpt>
      <trkpt lat="45.725753" lon="5.928335">
        <ele>307.578238</ele>
        <time>2021-07-03T23:16:27.376Z</time>
      </trkpt>
      <trkpt lat="45.725674" lon="5.927978">
        <ele>306.305379</ele>
        <time>2021-07-03T23:16:31.298Z</time>
      </trkpt>
      <trkpt lat="45.725662" lon="5.927397">
        <ele>304.329833</ele>
        <time>2021-07-03T23:16:37.545Z</time>
      </trkpt>
      <trkpt lat="45.725606" lon="5.926219">
        <ele>300.416286</ele>
        <time>2021-07-03T23:16:50.257Z</time>
      </trkpt>
      <trkpt lat="45.725566" lon="5.926043">
        <ele>300.025739</ele>
        <time>2021-07-03T23:16:52.221Z</time>
      </trkpt>
      <trkpt lat="45.725513" lon="5.925990">
        <ele>299.830373</ele>
        <time>2021-07-03T23:16:53.209Z</time>
      </trkpt>
      <trkpt lat="45.725478" lon="5.925980">
        <ele>299.722500</ele>
        <time>2021-07-03T23:16:53.752Z</time>
      </trkpt>
      <trkpt lat="45.725326" lon="5.925948">
        <ele>299.258141</ele>
        <time>2021-07-03T23:16:56.329Z</time>
      </trkpt>
      <trkpt lat="45.725244" lon="5.925931">
        <ele>299.007712</ele>
        <time>2021-07-03T23:16:57.670Z</time>
      </trkpt>
      <trkpt lat="45.724869" lon="5.925856">
        <ele>297.863270</ele>
        <time>2021-07-03T23:17:04.021Z</time>
      </trkpt>
      <trkpt lat="45.724785" lon="5.925794">
        <ele>297.577655</ele>
        <time>2021-07-03T23:17:05.605Z</time>
      </trkpt>
      <trkpt lat="45.724670" lon="5.925686">
        <ele>297.162022</ele>
        <time>2021-07-03T23:17:08.009Z</time>
      </trkpt>
      <trkpt lat="45.724704" lon="5.925597">
        <ele>296.947949</ele>
        <time>2021-07-03T23:17:09.170Z</time>
      </trkpt>
      <trkpt lat="45.724686" lon="5.924492">
        <ele>294.847832</ele>
        <time>2021-07-03T23:17:22.249Z</time>
      </trkpt>
      <trkpt lat="45.724690" lon="5.924194">
        <ele>294.495936</ele>
        <time>2021-07-03T23:17:25.846Z</time>
      </trkpt>
      <trkpt lat="45.724689" lon="5.923726">
        <ele>293.943392</ele>
        <time>2021-07-03T23:17:32.039Z</time>
      </trkpt>
      <trkpt lat="45.724696" lon="5.923361">
        <ele>293.512295</ele>
        <time>2021-07-03T23:17:37.024Z</time>
      </trkpt>
      <trkpt lat="45.724757" lon="5.922844">
        <ele>292.893246</ele>
        <time>2021-07-03T23:17:44.232Z</time>
      </trkpt>
      <trkpt lat="45.724844" lon="5.922700">
        <ele>292.668407</ele>
        <time>2021-07-03T23:17:46.700Z</time>
      </trkpt>
      <trkpt lat="45.724677" lon="5.922447">
        <ele>292.257322</ele>
        <time>2021-07-03T23:17:51.575Z</time>
      </trkpt>
      <trkpt lat="45.724598" lon="5.922346">
        <ele>292.092197</ele>
        <time>2021-07-03T23:17:53.551Z</time>
      </trkpt>
      <trkpt lat="45.724452" lon="5.922292">
        <ele>291.994798</ele>
        <time>2021-07-03T23:17:56.544Z</time>
      </trkpt>
      <trkpt lat="45.724105" lon="5.922202">
        <ele>291.767014</ele>
        <time>2021-07-03T23:18:03.431Z</time>
      </trkpt>
      <trkpt lat="45.723859" lon="5.922259">
        <ele>291.606049</ele>
        <time>2021-07-03T23:18:08.267Z</time>
      </trkpt>
      <trkpt lat="45.723774" lon="5.922213">
        <ele>291.547356</ele>
        <time>2021-07-03T23:18:10.128Z</time>
      </trkpt>
      <trkpt lat="45.723701" lon="5.922151">
        <ele>291.492538</ele>
        <time>2021-07-03T23:18:11.986Z</time>
      </trkpt>
      <trkpt lat="45.723667" lon="5.922114">
        <ele>291.464957</ele>
        <time>2021-07-03T23:18:12.826Z</time>
      </trkpt>
      <trkpt lat="45.723705" lon="5.922008">
        <ele>291.411223</ele>
        <time>2021-07-03T23:18:14.299Z</time>
      </trkpt>
      <trkpt lat="45.723802" lon="5.921755">
        <ele>291.281063</ele>
        <time>2021-07-03T23:18:18.384Z</time>
      </trkpt>
      <trkpt lat="45.723766" lon="5.921734">
        <ele>291.255955</ele>
        <time>2021-07-03T23:18:19.352Z</time>
      </trkpt>
      <trkpt lat="45.723707" lon="5.921702">
        <ele>291.215204</ele>
        <time>2021-07-03T23:18:20.640Z</time>
      </trkpt>
      <trkpt lat="45.723468" lon="5.921695">
        <ele>291.060794</ele>
        <time>2021-07-03T23:18:25.742Z</time>
      </trkpt>
      <trkpt lat="45.723436" lon="5.921694">
        <ele>291.040119</ele>
        <time>2021-07-03T23:18:26.602Z</time>
      </trkpt>
      <trkpt lat="45.723241" lon="5.921527">
        <ele>291.058335</ele>
        <time>2021-07-03T23:18:32.025Z</time>
      </trkpt>
      <trkpt lat="45.723176" lon="5.921387">
        <ele>291.256513</ele>
        <time>2021-07-03T23:18:35.060Z</time>
      </trkpt>
      <trkpt lat="45.723124" lon="5.920891">
        <ele>291.847702</ele>
        <time>2021-07-03T23:18:45.014Z</time>
      </trkpt>
      <trkpt lat="45.723102" lon="5.920527">
        <ele>292.278354</ele>
        <time>2021-07-03T23:18:52.704Z</time>
      </trkpt>
      <trkpt lat="45.723074" lon="5.920124">
        <ele>292.755716</ele>
        <time>2021-07-03T23:19:02.138Z</time>
      </trkpt>
      <trkpt lat="45.723099" lon="5.919934">
        <ele>292.983612</ele>
        <time>2021-07-03T23:19:06.372Z</time>
      </trkpt>
      <trkpt lat="45.723207" lon="5.919283">
        <ele>293.772312</ele>
        <time>2021-07-03T23:19:21.608Z</time>
      </trkpt>
      <trkpt lat="45.723241" lon="5.918945">
        <ele>293.943905</ele>
        <time>2021-07-03T23:19:28.020Z</time>
      </trkpt>
      <trkpt lat="45.723176" lon="5.918847">
        <ele>293.918375</ele>
        <time>2021-07-03T23:19:31.383Z</time>
      </trkpt>
      <trkpt lat="45.722964" lon="5.918686">
        <ele>293.853459</ele>
        <time>2021-07-03T23:19:37.426Z</time>
      </trkpt>
      <trkpt lat="45.722515" lon="5.918355">
        <ele>293.716845</ele>
        <time>2021-07-03T23:19:50.981Z</time>
      </trkpt>
      <trkpt lat="45.720672" lon="5.918084">
        <ele>290.477973</ele>
        <time>2021-07-03T23:20:22.984Z</time>
      </trkpt>
      <trkpt lat="45.719270" lon="5.917953">
        <ele>286.220343</ele>
        <time>2021-07-03T23:20:45.106Z</time>
      </trkpt>
      <trkpt lat="45.718796" lon="5.917901">
        <ele>284.747864</ele>
        <time>2021-07-03T23:20:52.871Z</time>
      </trkpt>
      <trkpt lat="45.717763" lon="5.917766">
        <ele>281.765409</ele>
        <time>2021-07-03T23:21:10.505Z</time>
      </trkpt>
      <trkpt lat="45.717619" lon="5.917707">
        <ele>281.405590</ele>
        <time>2021-07-03T23:21:13.077Z</time>
      </trkpt>
      <trkpt lat="45.716963" lon="5.917651">
        <ele>279.826835</ele>
        <time>2021-07-03T23:21:24.674Z</time>
      </trkpt>
      <trkpt lat="45.715538" lon="5.917466">
        <ele>276.118473</ele>
        <time>2021-07-03T23:21:48.571Z</time>
      </trkpt>
      <trkpt lat="45.715372" lon="5.917448">
        <ele>275.660015</ele>
        <time>2021-07-03T23:21:51.439Z</time>
      </trkpt>
      <trkpt lat="45.715219" lon="5.917428">
        <ele>275.236915</ele>
        <time>2021-07-03T23:21:53.873Z</time>
      </trkpt>
      <trkpt lat="45.715084" lon="5.917412">
        <ele>274.863866</ele>
        <time>2021-07-03T23:21:56.240Z</time>
      </trkpt>
      <trkpt lat="45.715060" lon="5.917384">
        <ele>274.778618</ele>
        <time>2021-07-03T23:21:56.784Z</time>
      </trkpt>
      <trkpt lat="45.715031" lon="5.917367">
        <ele>274.692324</ele>
        <time>2021-07-03T23:21:57.324Z</time>
      </trkpt>
      <trkpt lat="45.715001" lon="5.917363">
        <ele>274.609349</ele>
        <time>2021-07-03T23:21:57.837Z</time>
      </trkpt>
      <trkpt lat="45.714971" lon="5.917373">
        <ele>274.524523</ele>
        <time>2021-07-03T23:21:58.355Z</time>
      </trkpt>
      <trkpt lat="45.714944" lon="5.917394">
        <ele>274.439911</ele>
        <time>2021-07-03T23:21:58.841Z</time>
      </trkpt>
      <trkpt lat="45.714919" lon="5.917430">
        <ele>274.342280</ele>
        <time>2021-07-03T23:21:59.381Z</time>
      </trkpt>
      <trkpt lat="45.714905" lon="5.917476">
        <ele>274.245790</ele>
        <time>2021-07-03T23:21:59.970Z</time>
      </trkpt>
      <trkpt lat="45.714903" lon="5.917526">
        <ele>274.149490</ele>
        <time>2021-07-03T23:22:00.577Z</time>
      </trkpt>
      <trkpt lat="45.714911" lon="5.917573">
        <ele>274.056468</ele>
        <time>2021-07-03T23:22:01.154Z</time>
      </trkpt>
      <trkpt lat="45.714930" lon="5.917614">
        <ele>273.961847</ele>
        <time>2021-07-03T23:22:01.717Z</time>
      </trkpt>
      <trkpt lat="45.714957" lon="5.917644">
        <ele>273.867739</ele>
        <time>2021-07-03T23:22:02.270Z</time>
      </trkpt>
      <trkpt lat="45.714953" lon="5.917743">
        <ele>273.677057</ele>
        <time>2021-07-03T23:22:03.479Z</time>
      </trkpt>
      <trkpt lat="45.714954" lon="5.917812">
        <ele>273.544351</ele>
        <time>2021-07-03T23:22:04.291Z</time>
      </trkpt>
      <trkpt lat="45.714957" lon="5.917865">
        <ele>273.442105</ele>
        <time>2021-07-03T23:22:04.879Z</time>
      </trkpt>
      <trkpt lat="45.714931" lon="5.917841">
        <ele>273.356920</ele>
        <time>2021-07-03T23:22:05.376Z</time>
      </trkpt>
      <trkpt lat="45.714838" lon="5.917630">
        <ele>272.943873</ele>
        <time>2021-07-03T23:22:08.470Z</time>
      </trkpt>
      <trkpt lat="45.714675" lon="5.917441">
        <ele>272.460211</ele>
        <time>2021-07-03T23:22:12.148Z</time>
      </trkpt>
      <trkpt lat="45.713941" lon="5.917040">
        <ele>270.648490</ele>
        <time>2021-07-03T23:22:26.416Z</time>
      </trkpt>
      <trkpt lat="45.713868" lon="5.916990">
        <ele>270.461875</ele>
        <time>2021-07-03T23:22:27.835Z</time>
      </trkpt>
      <trkpt lat="45.713748" lon="5.916909">
        <ele>270.155935</ele>
        <time>2021-07-03T23:22:30.315Z</time>
      </trkpt>
      <trkpt lat="45.713647" lon="5.916791">
        <ele>269.855337</ele>
        <time>2021-07-03T23:22:32.747Z</time>
      </trkpt>
      <trkpt lat="45.712988" lon="5.916190">
        <ele>268.053173</ele>
        <time>2021-07-03T23:22:47.124Z</time>
      </trkpt>
      <trkpt lat="45.710934" lon="5.913991">
        <ele>262.106028</ele>
        <time>2021-07-03T23:23:33.033Z</time>
      </trkpt>
      <trkpt lat="45.710876" lon="5.913975">
        <ele>261.968291</ele>
        <time>2021-07-03T23:23:34.035Z</time>
      </trkpt>
      <trkpt lat="45.710645" lon="5.913745">
        <ele>261.312224</ele>
        <time>2021-07-03T23:23:38.888Z</time>
      </trkpt>
      <trkpt lat="45.709713" lon="5.912749">
        <ele>259.326608</ele>
        <time>2021-07-03T23:23:59.583Z</time>
      </trkpt>
      <trkpt lat="45.709517" lon="5.912553">
        <ele>258.953533</ele>
        <time>2021-07-03T23:24:03.961Z</time>
      </trkpt>
      <trkpt lat="45.709489" lon="5.912526">
        <ele>258.900853</ele>
        <time>2021-07-03T23:24:04.648Z</time>
      </trkpt>
      <trkpt lat="45.709063" lon="5.912139">
        <ele>258.113546</ele>
        <time>2021-07-03T23:24:14.447Z</time>
      </trkpt>
      <trkpt lat="45.708955" lon="5.912184">
        <ele>257.951453</ele>
        <time>2021-07-03T23:24:16.530Z</time>
      </trkpt>
      <trkpt lat="45.708888" lon="5.912334">
        <ele>257.808661</ele>
        <time>2021-07-03T23:24:18.972Z</time>
      </trkpt>
      <trkpt lat="45.708801" lon="5.912459">
        <ele>257.667132</ele>
        <time>2021-07-03T23:24:21.390Z</time>
      </trkpt>
      <trkpt lat="45.708785" lon="5.912423">
        <ele>257.632911</ele>
        <time>2021-07-03T23:24:21.962Z</time>
      </trkpt>
      <trkpt lat="45.708742" lon="5.912337">
        <ele>257.548089</ele>
        <time>2021-07-03T23:24:23.336Z</time>
      </trkpt>
      <trkpt lat="45.708571" lon="5.911944">
        <ele>257.176755</ele>
        <time>2021-07-03T23:24:29.853Z</time>
      </trkpt>
      <trkpt lat="45.708086" lon="5.910652">
        <ele>256.000436</ele>
        <time>2021-07-03T23:24:50.360Z</time>
      </trkpt>
      <trkpt lat="45.707754" lon="5.909593">
        <ele>254.910962</ele>
        <time>2021-07-03T23:25:05.974Z</time>
      </trkpt>
      <trkpt lat="45.707663" lon="5.909299">
        <ele>254.605176</ele>
        <time>2021-07-03T23:25:10.300Z</time>
      </trkpt>
      <trkpt lat="45.707433" lon="5.908562">
        <ele>253.837587</ele>
        <time>2021-07-03T23:25:21.308Z</time>
      </trkpt>
      <trkpt lat="45.707191" lon="5.907924">
        <ele>253.209348</ele>
        <time>2021-07-03T23:25:31.258Z</time>
      </trkpt>
      <trkpt lat="45.706960" lon="5.907040">
        <ele>252.482387</ele>
        <time>2021-07-03T23:25:44.363Z</time>
      </trkpt>
      <trkpt lat="45.706810" lon="5.906396">
        <ele>251.959516</ele>
        <time>2021-07-03T23:25:53.971Z</time>
      </trkpt>
      <trkpt lat="45.706567" lon="5.905712">
        <ele>251.393592</ele>
        <time>2021-07-03T23:26:04.804Z</time>
      </trkpt>
      <trkpt lat="45.706374" lon="5.905199">
        <ele>251.037286</ele>
        <time>2021-07-03T23:26:12.946Z</time>
      </trkpt>
      <trkpt lat="45.706345" lon="5.905121">
        <ele>250.983254</ele>
        <time>2021-07-03T23:26:14.253Z</time>
      </trkpt>
      <trkpt lat="45.706133" lon="5.904553">
        <ele>250.589447</ele>
        <time>2021-07-03T23:26:23.692Z</time>
      </trkpt>
      <trkpt lat="45.706051" lon="5.904329">
        <ele>250.434800</ele>
        <time>2021-07-03T23:26:27.280Z</time>
      </trkpt>
      <trkpt lat="45.705821" lon="5.903692">
        <ele>249.996312</ele>
        <time>2021-07-03T23:26:37.712Z</time>
      </trkpt>
      <trkpt lat="45.705737" lon="5.903477">
        <ele>249.830441</ele>
        <time>2021-07-03T23:26:41.180Z</time>
      </trkpt>
      <trkpt lat="45.705771" lon="5.903450">
        <ele>249.788983</ele>
        <time>2021-07-03T23:26:42.543Z</time>
      </trkpt>
      <trkpt lat="45.705893" lon="5.903378">
        <ele>249.648270</ele>
        <time>2021-07-03T23:26:47.115Z</time>
      </trkpt>
      <trkpt lat="45.706231" lon="5.903175">
        <ele>249.257420</ele>
        <time>2021-07-03T23:26:59.610Z</time>
      </trkpt>
      <trkpt lat="45.706234" lon="5.903109">
        <ele>249.208167</ele>
        <time>2021-07-03T23:27:01.261Z</time>
      </trkpt>
      <trkpt lat="45.705957" lon="5.902044">
        <ele>248.361856</ele>
        <time>2021-07-03T23:27:17.127Z</time>
      </trkpt>
      <trkpt lat="45.705529" lon="5.900420">
        <ele>246.828439</ele>
        <time>2021-07-03T23:27:40.679Z</time>
      </trkpt>
      <trkpt lat="45.705449" lon="5.900230">
        <ele>246.620365</ele>
        <time>2021-07-03T23:27:43.656Z</time>
      </trkpt>
      <trkpt lat="45.705194" lon="5.900004">
        <ele>246.217626</ele>
        <time>2021-07-03T23:27:49.477Z</time>
      </trkpt>
      <trkpt lat="45.704994" lon="5.899491">
        <ele>245.666611</ele>
        <time>2021-07-03T23:27:57.657Z</time>
      </trkpt>
      <trkpt lat="45.704726" lon="5.899159">
        <ele>245.274019</ele>
        <time>2021-07-03T23:28:04.750Z</time>
      </trkpt>
      <trkpt lat="45.704649" lon="5.899029">
        <ele>245.148185</ele>
        <time>2021-07-03T23:28:07.116Z</time>
      </trkpt>
      <trkpt lat="45.704564" lon="5.898855">
        <ele>244.991432</ele>
        <time>2021-07-03T23:28:10.050Z</time>
      </trkpt>
      <trkpt lat="45.704548" lon="5.898827">
        <ele>244.964724</ele>
        <time>2021-07-03T23:28:10.563Z</time>
      </trkpt>
      <trkpt lat="45.704488" lon="5.898830">
        <ele>244.901262</ele>
        <time>2021-07-03T23:28:11.719Z</time>
      </trkpt>
      <trkpt lat="45.704420" lon="5.898800">
        <ele>244.826048</ele>
        <time>2021-07-03T23:28:13.095Z</time>
      </trkpt>
      <trkpt lat="45.704356" lon="5.898751">
        <ele>244.749334</ele>
        <time>2021-07-03T23:28:14.441Z</time>
      </trkpt>
      <trkpt lat="45.704315" lon="5.898719">
        <ele>244.699975</ele>
        <time>2021-07-03T23:28:15.319Z</time>
      </trkpt>
      <trkpt lat="45.704259" lon="5.898676">
        <ele>244.632806</ele>
        <time>2021-07-03T23:28:16.525Z</time>
      </trkpt>
      <trkpt lat="45.704135" lon="5.898580">
        <ele>244.483800</ele>
        <time>2021-07-03T23:28:19.251Z</time>
      </trkpt>
      <trkpt lat="45.704079" lon="5.898504">
        <ele>244.402242</ele>
        <time>2021-07-03T23:28:20.707Z</time>
      </trkpt>
      <trkpt lat="45.704086" lon="5.898477">
        <ele>244.380981</ele>
        <time>2021-07-03T23:28:21.061Z</time>
      </trkpt>
      <trkpt lat="45.704079" lon="5.898423">
        <ele>244.340437</ele>
        <time>2021-07-03T23:28:21.791Z</time>
      </trkpt>
      <trkpt lat="45.704067" lon="5.898402">
        <ele>244.320406</ele>
        <time>2021-07-03T23:28:22.157Z</time>
      </trkpt>
      <trkpt lat="45.704061" lon="5.898234">
        <ele>244.196225</ele>
        <time>2021-07-03T23:28:24.410Z</time>
      </trkpt>
      <trkpt lat="45.704075" lon="5.898100">
        <ele>244.096204</ele>
        <time>2021-07-03T23:28:26.258Z</time>
      </trkpt>
      <trkpt lat="45.704126" lon="5.897539">
        <ele>243.678692</ele>
        <time>2021-07-03T23:28:33.889Z</time>
      </trkpt>
      <trkpt lat="45.704133" lon="5.897465">
        <ele>243.626469</ele>
        <time>2021-07-03T23:28:34.890Z</time>
      </trkpt>
      <trkpt lat="45.704159" lon="5.897178">
        <ele>243.424080</ele>
        <time>2021-07-03T23:28:38.956Z</time>
      </trkpt>
      <trkpt lat="45.704181" lon="5.896894">
        <ele>243.224253</ele>
        <time>2021-07-03T23:28:42.937Z</time>
      </trkpt>
      <trkpt lat="45.704198" lon="5.896676">
        <ele>243.070852</ele>
        <time>2021-07-03T23:28:46.034Z</time>
      </trkpt>
      <trkpt lat="45.704201" lon="5.896630">
        <ele>243.038543</ele>
        <time>2021-07-03T23:28:46.679Z</time>
      </trkpt>
      <trkpt lat="45.704238" lon="5.896128">
        <ele>242.685530</ele>
        <time>2021-07-03T23:28:53.509Z</time>
      </trkpt>
      <trkpt lat="45.704265" lon="5.895749">
        <ele>242.419110</ele>
        <time>2021-07-03T23:28:58.528Z</time>
      </trkpt>
      <trkpt lat="45.704299" lon="5.895407">
        <ele>242.177529</ele>
        <time>2021-07-03T23:29:03.073Z</time>
      </trkpt>
      <trkpt lat="45.704304" lon="5.895340">
        <ele>242.130407</ele>
        <time>2021-07-03T23:29:03.953Z</time>
      </trkpt>
      <trkpt lat="45.704311" lon="5.895245">
        <ele>242.063602</ele>
        <time>2021-07-03T23:29:05.249Z</time>
      </trkpt>
      <trkpt lat="45.704349" lon="5.894843">
        <ele>241.783470</ele>
        <time>2021-07-03T23:29:10.649Z</time>
      </trkpt>
      <trkpt lat="45.704378" lon="5.894830">
        <ele>241.754126</ele>
        <time>2021-07-03T23:29:11.236Z</time>
      </trkpt>
      <trkpt lat="45.704422" lon="5.894773">
        <ele>241.696830</ele>
        <time>2021-07-03T23:29:12.399Z</time>
      </trkpt>
      <trkpt lat="45.704435" lon="5.894734">
        <ele>241.667688</ele>
        <time>2021-07-03T23:29:12.989Z</time>
      </trkpt>
      <trkpt lat="45.704440" lon="5.894682">
        <ele>241.632290</ele>
        <time>2021-07-03T23:29:13.698Z</time>
      </trkpt>
      <trkpt lat="45.704432" lon="5.894631">
        <ele>241.597041</ele>
        <time>2021-07-03T23:29:14.404Z</time>
      </trkpt>
      <trkpt lat="45.704413" lon="5.894585">
        <ele>241.561000</ele>
        <time>2021-07-03T23:29:15.110Z</time>
      </trkpt>
      <trkpt lat="45.704385" lon="5.894552">
        <ele>241.525982</ele>
        <time>2021-07-03T23:29:15.818Z</time>
      </trkpt>
      <trkpt lat="45.704391" lon="5.894426">
        <ele>241.440814</ele>
        <time>2021-07-03T23:29:17.512Z</time>
      </trkpt>
      <trkpt lat="45.704422" lon="5.893845">
        <ele>241.047866</ele>
        <time>2021-07-03T23:29:25.440Z</time>
      </trkpt>
      <trkpt lat="45.704439" lon="5.893678">
        <ele>240.934057</ele>
        <time>2021-07-03T23:29:27.757Z</time>
      </trkpt>
      <trkpt lat="45.704447" lon="5.893593">
        <ele>240.876218</ele>
        <time>2021-07-03T23:29:28.917Z</time>
      </trkpt>
      <trkpt lat="45.704450" lon="5.893533">
        <ele>240.835653</ele>
        <time>2021-07-03T23:29:29.741Z</time>
      </trkpt>
      <trkpt lat="45.704459" lon="5.893410">
        <ele>240.752252</ele>
        <time>2021-07-03T23:29:31.413Z</time>
      </trkpt>
      <trkpt lat="45.704356" lon="5.893455">
        <ele>240.648264</ele>
        <time>2021-07-03T23:29:38.883Z</time>
      </trkpt>
      <trkpt lat="45.704096" lon="5.893522">
        <ele>240.393164</ele>
        <time>2021-07-03T23:29:44.291Z</time>
      </trkpt>
      <trkpt lat="45.703946" lon="5.892177">
        <ele>239.616814</ele>
        <time>2021-07-03T23:30:02.852Z</time>
      </trkpt>
      <trkpt lat="45.703845" lon="5.891504">
        <ele>239.251373</ele>
        <time>2021-07-03T23:30:12.380Z</time>
      </trkpt>
      <trkpt lat="45.703623" lon="5.891164">
        <ele>239.004269</ele>
        <time>2021-07-03T23:30:18.893Z</time>
      </trkpt>
      <trkpt lat="45.703594" lon="5.891077">
        <ele>238.953090</ele>
        <time>2021-07-03T23:30:20.209Z</time>
      </trkpt>
      <trkpt lat="45.703148" lon="5.891214">
        <ele>238.761714</ele>
        <time>2021-07-03T23:30:29.612Z</time>
      </trkpt>
      <trkpt lat="45.702999" lon="5.891260">
        <ele>238.752251</ele>
        <time>2021-07-03T23:30:32.830Z</time>
      </trkpt>
      <trkpt lat="45.702966" lon="5.891270">
        <ele>238.750157</ele>
        <time>2021-07-03T23:30:33.569Z</time>
      </trkpt>
      <trkpt lat="45.702877" lon="5.891297">
        <ele>238.744509</ele>
        <time>2021-07-03T23:30:35.546Z</time>
      </trkpt>
      <trkpt lat="45.702844" lon="5.891306">
        <ele>238.742424</ele>
        <time>2021-07-03T23:30:36.234Z</time>
      </trkpt>
      <trkpt lat="45.702688" lon="5.891355">
        <ele>238.732509</ele>
        <time>2021-07-03T23:30:39.728Z</time>
      </trkpt>
      <trkpt lat="45.702550" lon="5.891397">
        <ele>238.723751</ele>
        <time>2021-07-03T23:30:42.882Z</time>
      </trkpt>
      <trkpt lat="45.702516" lon="5.891408">
        <ele>238.721587</ele>
        <time>2021-07-03T23:30:43.637Z</time>
      </trkpt>
      <trkpt lat="45.702481" lon="5.891419">
        <ele>238.719362</ele>
        <time>2021-07-03T23:30:44.387Z</time>
      </trkpt>
      <trkpt lat="45.702454" lon="5.891426">
        <ele>238.717659</ele>
        <time>2021-07-03T23:30:44.997Z</time>
      </trkpt>
      <trkpt lat="45.702427" lon="5.891433">
        <ele>238.715955</ele>
        <time>2021-07-03T23:30:45.592Z</time>
      </trkpt>
      <trkpt lat="45.702366" lon="5.891450">
        <ele>238.712098</ele>
        <time>2021-07-03T23:30:46.974Z</time>
      </trkpt>
      <trkpt lat="45.702215" lon="5.891425">
        <ele>238.702661</ele>
        <time>2021-07-03T23:30:50.423Z</time>
      </trkpt>
      <trkpt lat="45.702205" lon="5.891396">
        <ele>238.701259</ele>
        <time>2021-07-03T23:30:50.912Z</time>
      </trkpt>
      <trkpt lat="45.702190" lon="5.891374">
        <ele>238.699926</ele>
        <time>2021-07-03T23:30:51.384Z</time>
      </trkpt>
      <trkpt lat="45.702171" lon="5.891359">
        <ele>238.698579</ele>
        <time>2021-07-03T23:30:51.848Z</time>
      </trkpt>
      <trkpt lat="45.702152" lon="5.891353">
        <ele>238.697371</ele>
        <time>2021-07-03T23:30:52.270Z</time>
      </trkpt>
      <trkpt lat="45.702132" lon="5.891355">
        <ele>238.696126</ele>
        <time>2021-07-03T23:30:52.710Z</time>
      </trkpt>
      <trkpt lat="45.702114" lon="5.891365">
        <ele>238.694928</ele>
        <time>2021-07-03T23:30:53.143Z</time>
      </trkpt>
      <trkpt lat="45.702078" lon="5.891430">
        <ele>238.691331</ele>
        <time>2021-07-03T23:30:54.422Z</time>
      </trkpt>
      <trkpt lat="45.702076" lon="5.891457">
        <ele>238.690154</ele>
        <time>2021-07-03T23:30:54.864Z</time>
      </trkpt>
      <trkpt lat="45.702021" lon="5.891526">
        <ele>238.685614</ele>
        <time>2021-07-03T23:30:56.547Z</time>
      </trkpt>
      <trkpt lat="45.702000" lon="5.891542">
        <ele>238.684138</ele>
        <time>2021-07-03T23:30:57.079Z</time>
      </trkpt>
      <trkpt lat="45.701915" lon="5.891524">
        <ele>238.678803</ele>
        <time>2021-07-03T23:30:59.141Z</time>
      </trkpt>
      <trkpt lat="45.701851" lon="5.891558">
        <ele>238.674566</ele>
        <time>2021-07-03T23:31:00.662Z</time>
      </trkpt>
      <trkpt lat="45.701442" lon="5.891689">
        <ele>238.723773</ele>
        <time>2021-07-03T23:31:10.492Z</time>
      </trkpt>
      <trkpt lat="45.701392" lon="5.891448">
        <ele>238.766383</ele>
        <time>2021-07-03T23:31:14.783Z</time>
      </trkpt>
      <trkpt lat="45.701273" lon="5.890013">
        <ele>239.011302</ele>
        <time>2021-07-03T23:31:38.448Z</time>
      </trkpt>
      <trkpt lat="45.701273" lon="5.889995">
        <ele>239.014353</ele>
        <time>2021-07-03T23:31:38.818Z</time>
      </trkpt>
      <trkpt lat="45.701269" lon="5.889426">
        <ele>239.105261</ele>
        <time>2021-07-03T23:31:47.775Z</time>
      </trkpt>
      <trkpt lat="45.701447" lon="5.885753">
        <ele>239.070286</ele>
        <time>2021-07-03T23:32:46.396Z</time>
      </trkpt>
      <trkpt lat="45.701449" lon="5.885690">
        <ele>239.057591</ele>
        <time>2021-07-03T23:32:47.400Z</time>
      </trkpt>
      <trkpt lat="45.701500" lon="5.885712">
        <ele>239.042238</ele>
        <time>2021-07-03T23:32:48.647Z</time>
      </trkpt>
      <trkpt lat="45.701556" lon="5.885752">
        <ele>239.024200</ele>
        <time>2021-07-03T23:32:49.757Z</time>
      </trkpt>
      <trkpt lat="45.701607" lon="5.885834">
        <ele>239.002097</ele>
        <time>2021-07-03T23:32:51.151Z</time>
      </trkpt>
      <trkpt lat="45.701652" lon="5.885941">
        <ele>238.976954</ele>
        <time>2021-07-03T23:32:53.024Z</time>
      </trkpt>
      <trkpt lat="45.701681" lon="5.886038">
        <ele>238.955713</ele>
        <time>2021-07-03T23:32:54.932Z</time>
      </trkpt>
      <trkpt lat="45.701812" lon="5.886373">
        <ele>238.878426</ele>
        <time>2021-07-03T23:33:00.061Z</time>
      </trkpt>
      <trkpt lat="45.701895" lon="5.886534">
        <ele>238.838144</ele>
        <time>2021-07-03T23:33:03.466Z</time>
      </trkpt>
      <trkpt lat="45.701812" lon="5.886373">
        <ele>238.797861</ele>
        <time>2021-07-03T23:33:05.894Z</time>
      </trkpt>
      <trkpt lat="45.701681" lon="5.886038">
        <ele>238.561684</ele>
        <time>2021-07-03T23:33:11.790Z</time>
      </trkpt>
      <trkpt lat="45.701652" lon="5.885941">
        <ele>238.489624</ele>
        <time>2021-07-03T23:33:12.982Z</time>
      </trkpt>
      <trkpt lat="45.701607" lon="5.885834">
        <ele>238.404322</ele>
        <time>2021-07-03T23:33:14.775Z</time>
      </trkpt>
      <trkpt lat="45.701556" lon="5.885752">
        <ele>238.329332</ele>
        <time>2021-07-03T23:33:16.673Z</time>
      </trkpt>
      <trkpt lat="45.701473" lon="5.885646">
        <ele>238.220574</ele>
        <time>2021-07-03T23:33:19.086Z</time>
      </trkpt>
      <trkpt lat="45.701438" lon="5.885624">
        <ele>238.183196</ele>
        <time>2021-07-03T23:33:19.705Z</time>
      </trkpt>
      <trkpt lat="45.701432" lon="5.885620">
        <ele>238.176724</ele>
        <time>2021-07-03T23:33:19.818Z</time>
      </trkpt>
      <trkpt lat="45.701385" lon="5.885612">
        <ele>238.130440</ele>
        <time>2021-07-03T23:33:20.632Z</time>
      </trkpt>
      <trkpt lat="45.701174" lon="5.885605">
        <ele>237.924051</ele>
        <time>2021-07-03T23:33:25.672Z</time>
      </trkpt>
      <trkpt lat="45.701080" lon="5.885601">
        <ele>237.832090</ele>
        <time>2021-07-03T23:33:27.316Z</time>
      </trkpt>
      <trkpt lat="45.700843" lon="5.885604">
        <ele>237.600323</ele>
        <time>2021-07-03T23:33:31.645Z</time>
      </trkpt>
      <trkpt lat="45.700742" lon="5.885622">
        <ele>237.500795</ele>
        <time>2021-07-03T23:33:33.609Z</time>
      </trkpt>
      <trkpt lat="45.700693" lon="5.885642">
        <ele>237.450970</ele>
        <time>2021-07-03T23:33:34.412Z</time>
      </trkpt>
      <trkpt lat="45.700661" lon="5.885650">
        <ele>237.419205</ele>
        <time>2021-07-03T23:33:34.935Z</time>
      </trkpt>
      <trkpt lat="45.700565" lon="5.885681">
        <ele>237.322970</ele>
        <time>2021-07-03T23:33:36.788Z</time>
      </trkpt>
      <trkpt lat="45.700449" lon="5.885718">
        <ele>237.206755</ele>
        <time>2021-07-03T23:33:39.078Z</time>
      </trkpt>
      <trkpt lat="45.700357" lon="5.885759">
        <ele>237.112533</ele>
        <time>2021-07-03T23:33:40.768Z</time>
      </trkpt>
      <trkpt lat="45.699670" lon="5.886168">
        <ele>236.891394</ele>
        <time>2021-07-03T23:33:55.858Z</time>
      </trkpt>
      <trkpt lat="45.699225" lon="5.886445">
        <ele>236.790520</ele>
        <time>2021-07-03T23:34:06.950Z</time>
      </trkpt>
      <trkpt lat="45.699155" lon="5.886489">
        <ele>236.774627</ele>
        <time>2021-07-03T23:34:08.771Z</time>
      </trkpt>
      <trkpt lat="45.699072" lon="5.886544">
        <ele>236.755614</ele>
        <time>2021-07-03T23:34:10.992Z</time>
      </trkpt>
      <trkpt lat="45.698994" lon="5.886594">
        <ele>236.737848</ele>
        <time>2021-07-03T23:34:12.962Z</time>
      </trkpt>
      <trkpt lat="45.698887" lon="5.886662">
        <ele>236.713512</ele>
        <time>2021-07-03T23:34:15.442Z</time>
      </trkpt>
      <trkpt lat="45.698208" lon="5.887097">
        <ele>236.769215</ele>
        <time>2021-07-03T23:34:32.731Z</time>
      </trkpt>
      <trkpt lat="45.698030" lon="5.887194">
        <ele>236.816979</ele>
        <time>2021-07-03T23:34:37.451Z</time>
      </trkpt>
      <trkpt lat="45.698000" lon="5.887127">
        <ele>236.830919</ele>
        <time>2021-07-03T23:34:38.594Z</time>
      </trkpt>
      <trkpt lat="45.697848" lon="5.887059">
        <ele>236.870856</ele>
        <time>2021-07-03T23:34:42.399Z</time>
      </trkpt>
      <trkpt lat="45.697757" lon="5.887143">
        <ele>236.898009</ele>
        <time>2021-07-03T23:34:45.198Z</time>
      </trkpt>
      <trkpt lat="45.697724" lon="5.887292">
        <ele>236.925388</ele>
        <time>2021-07-03T23:34:47.763Z</time>
      </trkpt>
      <trkpt lat="45.697736" lon="5.887369">
        <ele>236.939207</ele>
        <time>2021-07-03T23:34:48.916Z</time>
      </trkpt>
      <trkpt lat="45.696835" lon="5.887955">
        <ele>236.890149</ele>
        <time>2021-07-03T23:35:11.787Z</time>
      </trkpt>
      <trkpt lat="45.696490" lon="5.888179">
        <ele>236.641237</ele>
        <time>2021-07-03T23:35:19.959Z</time>
      </trkpt>
      <trkpt lat="45.695061" lon="5.889071">
        <ele>235.269988</ele>
        <time>2021-07-03T23:35:49.712Z</time>
      </trkpt>
      <trkpt lat="45.694994" lon="5.889106">
        <ele>235.170085</ele>
        <time>2021-07-03T23:35:50.992Z</time>
      </trkpt>
      <trkpt lat="45.694912" lon="5.888937">
        <ele>234.968754</ele>
        <time>2021-07-03T23:35:54.512Z</time>
      </trkpt>
      <trkpt lat="45.694863" lon="5.888756">
        <ele>234.778826</ele>
        <time>2021-07-03T23:35:57.911Z</time>
      </trkpt>
      <trkpt lat="45.694809" lon="5.888588">
        <ele>234.597885</ele>
        <time>2021-07-03T23:36:01.077Z</time>
      </trkpt>
      <trkpt lat="45.694774" lon="5.888472">
        <ele>234.474253</ele>
        <time>2021-07-03T23:36:03.287Z</time>
      </trkpt>
      <trkpt lat="45.694686" lon="5.888176">
        <ele>234.159502</ele>
        <time>2021-07-03T23:36:07.653Z</time>
      </trkpt>
      <trkpt lat="45.694681" lon="5.888138">
        <ele>234.121669</ele>
        <time>2021-07-03T23:36:08.174Z</time>
      </trkpt>
      <trkpt lat="45.694688" lon="5.888095">
        <ele>234.078470</ele>
        <time>2021-07-03T23:36:08.711Z</time>
      </trkpt>
      <trkpt lat="45.694413" lon="5.888510">
        <ele>233.518777</ele>
        <time>2021-07-03T23:36:16.389Z</time>
      </trkpt>
      <trkpt lat="45.693914" lon="5.888779">
        <ele>233.173778</ele>
        <time>2021-07-03T23:36:26.220Z</time>
      </trkpt>
      <trkpt lat="45.693853" lon="5.888810">
        <ele>233.140759</ele>
        <time>2021-07-03T23:36:27.467Z</time>
      </trkpt>
      <trkpt lat="45.693632" lon="5.888921">
        <ele>233.021288</ele>
        <time>2021-07-03T23:36:32.092Z</time>
      </trkpt>
      <trkpt lat="45.693578" lon="5.888952">
        <ele>232.991611</ele>
        <time>2021-07-03T23:36:33.391Z</time>
      </trkpt>
      <trkpt lat="45.693491" lon="5.888988">
        <ele>232.945415</ele>
        <time>2021-07-03T23:36:35.374Z</time>
      </trkpt>
      <trkpt lat="45.693380" lon="5.889011">
        <ele>232.888203</ele>
        <time>2021-07-03T23:36:37.660Z</time>
      </trkpt>
      <trkpt lat="45.693252" lon="5.888930">
        <ele>232.816815</ele>
        <time>2021-07-03T23:36:40.741Z</time>
      </trkpt>
      <trkpt lat="45.693231" lon="5.888929">
        <ele>232.806096</ele>
        <time>2021-07-03T23:36:41.245Z</time>
      </trkpt>
      <trkpt lat="45.693033" lon="5.889152">
        <ele>232.677587</ele>
        <time>2021-07-03T23:36:47.201Z</time>
      </trkpt>
      <trkpt lat="45.692962" lon="5.889224">
        <ele>232.633203</ele>
        <time>2021-07-03T23:36:49.094Z</time>
      </trkpt>
      <trkpt lat="45.692858" lon="5.889329">
        <ele>232.568287</ele>
        <time>2021-07-03T23:36:52.146Z</time>
      </trkpt>
      <trkpt lat="45.692802" lon="5.889391">
        <ele>232.532175</ele>
        <time>2021-07-03T23:36:53.797Z</time>
      </trkpt>
      <trkpt lat="45.692746" lon="5.889450">
        <ele>232.496707</ele>
        <time>2021-07-03T23:36:55.412Z</time>
      </trkpt>
      <trkpt lat="45.692563" lon="5.889291">
        <ele>232.476526</ele>
        <time>2021-07-03T23:37:00.357Z</time>
      </trkpt>
      <trkpt lat="45.692398" lon="5.889463">
        <ele>232.466080</ele>
        <time>2021-07-03T23:37:04.829Z</time>
      </trkpt>
      <trkpt lat="45.692312" lon="5.889553">
        <ele>232.460629</ele>
        <time>2021-07-03T23:37:07.297Z</time>
      </trkpt>
      <trkpt lat="45.692223" lon="5.889763">
        <ele>232.451848</ele>
        <time>2021-07-03T23:37:11.049Z</time>
      </trkpt>
      <trkpt lat="45.692221" lon="5.889987">
        <ele>232.443840</ele>
        <time>2021-07-03T23:37:14.305Z</time>
      </trkpt>
      <trkpt lat="45.692274" lon="5.890241">
        <ele>232.434364</ele>
        <time>2021-07-03T23:37:18.400Z</time>
      </trkpt>
      <trkpt lat="45.692298" lon="5.890358">
        <ele>232.430005</ele>
        <time>2021-07-03T23:37:20.161Z</time>
      </trkpt>
      <trkpt lat="45.692245" lon="5.890393">
        <ele>232.427018</ele>
        <time>2021-07-03T23:37:21.335Z</time>
      </trkpt>
      <trkpt lat="45.692279" lon="5.890542">
        <ele>232.421415</ele>
        <time>2021-07-03T23:37:23.766Z</time>
      </trkpt>
      <trkpt lat="45.691944" lon="5.890771">
        <ele>232.402417</ele>
        <time>2021-07-03T23:37:31.972Z</time>
      </trkpt>
      <trkpt lat="45.691838" lon="5.890957">
        <ele>232.400703</ele>
        <time>2021-07-03T23:37:35.573Z</time>
      </trkpt>
      <trkpt lat="45.691190" lon="5.892248">
        <ele>233.029655</ele>
        <time>2021-07-03T23:38:02.003Z</time>
      </trkpt>
      <trkpt lat="45.691167" lon="5.892293">
        <ele>233.051715</ele>
        <time>2021-07-03T23:38:03.212Z</time>
      </trkpt>
      <trkpt lat="45.690932" lon="5.892746">
        <ele>233.274957</ele>
        <time>2021-07-03T23:38:12.785Z</time>
      </trkpt>
      <trkpt lat="45.690734" lon="5.893126">
        <ele>233.852056</ele>
        <time>2021-07-03T23:38:21.708Z</time>
      </trkpt>
      <trkpt lat="45.690468" lon="5.893461">
        <ele>235.635444</ele>
        <time>2021-07-03T23:38:33.639Z</time>
      </trkpt>
      <trkpt lat="45.690101" lon="5.893925">
        <ele>238.100176</ele>
        <time>2021-07-03T23:38:54.010Z</time>
      </trkpt>
      <trkpt lat="45.690033" lon="5.894071">
        <ele>238.717208</ele>
        <time>2021-07-03T23:39:00.392Z</time>
      </trkpt>
      <trkpt lat="45.690023" lon="5.894071">
        <ele>238.767546</ele>
        <time>2021-07-03T23:39:00.820Z</time>
      </trkpt>
      <trkpt lat="45.689995" lon="5.894106">
        <ele>238.954662</ele>
        <time>2021-07-03T23:39:02.433Z</time>
      </trkpt>
      <trkpt lat="45.689643" lon="5.894672">
        <ele>241.619374</ele>
        <time>2021-07-03T23:39:29.887Z</time>
      </trkpt>
      <trkpt lat="45.689580" lon="5.894779">
        <ele>242.111445</ele>
        <time>2021-07-03T23:39:35.517Z</time>
      </trkpt>
      <trkpt lat="45.689387" lon="5.895128">
        <ele>243.873033</ele>
        <time>2021-07-03T23:39:51.804Z</time>
      </trkpt>
      <trkpt lat="45.689285" lon="5.895248">
        <ele>244.645527</ele>
        <time>2021-07-03T23:39:58.706Z</time>
      </trkpt>
      <trkpt lat="45.689293" lon="5.895364">
        <ele>245.121956</ele>
        <time>2021-07-03T23:40:03.805Z</time>
      </trkpt>
      <trkpt lat="45.689250" lon="5.895332">
        <ele>245.405519</ele>
        <time>2021-07-03T23:40:06.787Z</time>
      </trkpt>
      <trkpt lat="45.689137" lon="5.895285">
        <ele>246.094034</ele>
        <time>2021-07-03T23:40:13.349Z</time>
      </trkpt>
      <trkpt lat="45.689107" lon="5.895366">
        <ele>246.468760</ele>
        <time>2021-07-03T23:40:17.114Z</time>
      </trkpt>
      <trkpt lat="45.689154" lon="5.895445">
        <ele>246.892891</ele>
        <time>2021-07-03T23:40:20.539Z</time>
      </trkpt>
      <trkpt lat="45.689174" lon="5.895445">
        <ele>247.009913</ele>
        <time>2021-07-03T23:40:22.194Z</time>
      </trkpt>
      <trkpt lat="45.689177" lon="5.895509">
        <ele>247.272087</ele>
        <time>2021-07-03T23:40:25.170Z</time>
      </trkpt>
      <trkpt lat="45.689027" lon="5.895487">
        <ele>248.154346</ele>
        <time>2021-07-03T23:40:32.263Z</time>
      </trkpt>
      <trkpt lat="45.688535" lon="5.895434">
        <ele>251.041222</ele>
        <time>2021-07-03T23:40:55.045Z</time>
      </trkpt>
      <trkpt lat="45.688345" lon="5.895361">
        <ele>252.192275</ele>
        <time>2021-07-03T23:41:03.464Z</time>
      </trkpt>
      <trkpt lat="45.688270" lon="5.895354">
        <ele>252.632038</ele>
        <time>2021-07-03T23:41:06.226Z</time>
      </trkpt>
      <trkpt lat="45.688141" lon="5.895391">
        <ele>252.990918</ele>
        <time>2021-07-03T23:41:11.516Z</time>
      </trkpt>
      <trkpt lat="45.686556" lon="5.895081">
        <ele>252.984999</ele>
        <time>2021-07-03T23:41:43.948Z</time>
      </trkpt>
      <trkpt lat="45.686280" lon="5.894930">
        <ele>252.823729</ele>
        <time>2021-07-03T23:41:48.969Z</time>
      </trkpt>
      <trkpt lat="45.686043" lon="5.894982">
        <ele>252.592508</ele>
        <time>2021-07-03T23:41:53.085Z</time>
      </trkpt>
      <trkpt lat="45.683876" lon="5.894650">
        <ele>251.793457</ele>
        <time>2021-07-03T23:42:36.813Z</time>
      </trkpt>
      <trkpt lat="45.683739" lon="5.894479">
        <ele>251.918941</ele>
        <time>2021-07-03T23:42:41.858Z</time>
      </trkpt>
      <trkpt lat="45.683611" lon="5.894459">
        <ele>252.007829</ele>
        <time>2021-07-03T23:42:45.593Z</time>
      </trkpt>
      <trkpt lat="45.683438" lon="5.894552">
        <ele>252.135403</ele>
        <time>2021-07-03T23:42:50.989Z</time>
      </trkpt>
      <trkpt lat="45.682290" lon="5.894347">
        <ele>253.390208</ele>
        <time>2021-07-03T23:43:25.594Z</time>
      </trkpt>
      <trkpt lat="45.681973" lon="5.894208">
        <ele>253.855082</ele>
        <time>2021-07-03T23:43:35.336Z</time>
      </trkpt>
      <trkpt lat="45.681390" lon="5.894189">
        <ele>254.672753</ele>
        <time>2021-07-03T23:43:50.881Z</time>
      </trkpt>
      <trkpt lat="45.680258" lon="5.893930">
        <ele>255.619662</ele>
        <time>2021-07-03T23:44:18.566Z</time>
      </trkpt>
      <trkpt lat="45.680002" lon="5.893774">
        <ele>255.806336</ele>
        <time>2021-07-03T23:44:25.357Z</time>
      </trkpt>
      <trkpt lat="45.679827" lon="5.893812">
        <ele>255.925091</ele>
        <time>2021-07-03T23:44:29.402Z</time>
      </trkpt>
      <trkpt lat="45.679753" lon="5.893863">
        <ele>255.980195</ele>
        <time>2021-07-03T23:44:30.809Z</time>
      </trkpt>
      <trkpt lat="45.679660" lon="5.893928">
        <ele>256.049632</ele>
        <time>2021-07-03T23:44:34.763Z</time>
      </trkpt>
      <trkpt lat="45.677866" lon="5.893956">
        <ele>257.500309</ele>
        <time>2021-07-03T23:45:22.485Z</time>
      </trkpt>
      <trkpt lat="45.677608" lon="5.893881">
        <ele>257.709525</ele>
        <time>2021-07-03T23:45:28.663Z</time>
      </trkpt>
      <trkpt lat="45.676799" lon="5.893863">
        <ele>256.522833</ele>
        <time>2021-07-03T23:45:45.390Z</time>
      </trkpt>
      <trkpt lat="45.673528" lon="5.893489">
        <ele>248.781884</ele>
        <time>2021-07-03T23:46:40.840Z</time>
      </trkpt>
      <trkpt lat="45.673003" lon="5.893509">
        <ele>247.037164</ele>
        <time>2021-07-03T23:46:49.291Z</time>
      </trkpt>
      <trkpt lat="45.670658" lon="5.893296">
        <ele>239.044105</ele>
        <time>2021-07-03T23:47:26.482Z</time>
      </trkpt>
      <trkpt lat="45.670313" lon="5.893337">
        <ele>238.141495</ele>
        <time>2021-07-03T23:47:32.409Z</time>
      </trkpt>
      <trkpt lat="45.669999" lon="5.893452">
        <ele>237.797786</ele>
        <time>2021-07-03T23:47:38.284Z</time>
      </trkpt>
      <trkpt lat="45.669812" lon="5.893527">
        <ele>237.591844</ele>
        <time>2021-07-03T23:47:41.881Z</time>
      </trkpt>
      <trkpt lat="45.669697" lon="5.893501">
        <ele>237.468381</ele>
        <time>2021-07-03T23:47:44.390Z</time>
      </trkpt>
      <trkpt lat="45.669429" lon="5.893598">
        <ele>237.175235</ele>
        <time>2021-07-03T23:47:50.034Z</time>
      </trkpt>
      <trkpt lat="45.669379" lon="5.893609">
        <ele>237.121590</ele>
        <time>2021-07-03T23:47:51.175Z</time>
      </trkpt>
      <trkpt lat="45.669246" lon="5.893641">
        <ele>236.978572</ele>
        <time>2021-07-03T23:47:54.477Z</time>
      </trkpt>
      <trkpt lat="45.669040" lon="5.893690">
        <ele>236.757125</ele>
        <time>2021-07-03T23:47:58.423Z</time>
      </trkpt>
      <trkpt lat="45.668871" lon="5.893717">
        <ele>236.576798</ele>
        <time>2021-07-03T23:48:02.130Z</time>
      </trkpt>
      <trkpt lat="45.668659" lon="5.893834">
        <ele>236.351086</ele>
        <time>2021-07-03T23:48:06.470Z</time>
      </trkpt>
      <trkpt lat="45.668482" lon="5.894024">
        <ele>236.249546</ele>
        <time>2021-07-03T23:48:11.128Z</time>
      </trkpt>
      <trkpt lat="45.668457" lon="5.894047">
        <ele>236.235907</ele>
        <time>2021-07-03T23:48:11.894Z</time>
      </trkpt>
      <trkpt lat="45.668303" lon="5.894208">
        <ele>236.148384</ele>
        <time>2021-07-03T23:48:15.966Z</time>
      </trkpt>
      <trkpt lat="45.668022" lon="5.894351">
        <ele>236.011519</ele>
        <time>2021-07-03T23:48:22.518Z</time>
      </trkpt>
      <trkpt lat="45.667901" lon="5.894395">
        <ele>235.954227</ele>
        <time>2021-07-03T23:48:25.929Z</time>
      </trkpt>
      <trkpt lat="45.667793" lon="5.894434">
        <ele>235.903111</ele>
        <time>2021-07-03T23:48:28.397Z</time>
      </trkpt>
      <trkpt lat="45.667674" lon="5.894521">
        <ele>235.841786</ele>
        <time>2021-07-03T23:48:30.895Z</time>
      </trkpt>
      <trkpt lat="45.667164" lon="5.894932">
        <ele>235.573181</ele>
        <time>2021-07-03T23:48:42.721Z</time>
      </trkpt>
      <trkpt lat="45.665924" lon="5.895630">
        <ele>235.065302</ele>
        <time>2021-07-03T23:49:08.115Z</time>
      </trkpt>
      <trkpt lat="45.665286" lon="5.895867">
        <ele>235.041477</ele>
        <time>2021-07-03T23:49:24.990Z</time>
      </trkpt>
      <trkpt lat="45.664867" lon="5.895951">
        <ele>235.708522</ele>
        <time>2021-07-03T23:49:36.806Z</time>
      </trkpt>
      <trkpt lat="45.664551" lon="5.895980">
        <ele>236.207749</ele>
        <time>2021-07-03T23:49:45.972Z</time>
      </trkpt>
      <trkpt lat="45.664522" lon="5.895982">
        <ele>236.253523</ele>
        <time>2021-07-03T23:49:46.851Z</time>
      </trkpt>
      <trkpt lat="45.664195" lon="5.896012">
        <ele>236.770128</ele>
        <time>2021-07-03T23:49:56.620Z</time>
      </trkpt>
      <trkpt lat="45.664090" lon="5.895977">
        <ele>236.940102</ele>
        <time>2021-07-03T23:50:00.183Z</time>
      </trkpt>
      <trkpt lat="45.663913" lon="5.895960">
        <ele>237.219787</ele>
        <time>2021-07-03T23:50:05.485Z</time>
      </trkpt>
      <trkpt lat="45.663482" lon="5.895930">
        <ele>237.797443</ele>
        <time>2021-07-03T23:50:18.176Z</time>
      </trkpt>
      <trkpt lat="45.662779" lon="5.895724">
        <ele>238.359202</ele>
        <time>2021-07-03T23:50:38.331Z</time>
      </trkpt>
      <trkpt lat="45.662734" lon="5.895713">
        <ele>238.394941</ele>
        <time>2021-07-03T23:50:39.786Z</time>
      </trkpt>
      <trkpt lat="45.662679" lon="5.895699">
        <ele>238.438673</ele>
        <time>2021-07-03T23:50:41.234Z</time>
      </trkpt>
      <trkpt lat="45.662582" lon="5.895676">
        <ele>238.515644</ele>
        <time>2021-07-03T23:50:43.668Z</time>
      </trkpt>
      <trkpt lat="45.662049" lon="5.895503">
        <ele>238.943499</ele>
        <time>2021-07-03T23:50:56.085Z</time>
      </trkpt>
      <trkpt lat="45.660097" lon="5.894687">
        <ele>237.879829</ele>
        <time>2021-07-03T23:51:36.450Z</time>
      </trkpt>
      <trkpt lat="45.659964" lon="5.894584">
        <ele>237.876239</ele>
        <time>2021-07-03T23:51:39.562Z</time>
      </trkpt>
      <trkpt lat="45.659817" lon="5.894551">
        <ele>237.872707</ele>
        <time>2021-07-03T23:51:42.352Z</time>
      </trkpt>
      <trkpt lat="45.659780" lon="5.894543">
        <ele>237.871819</ele>
        <time>2021-07-03T23:51:43.330Z</time>
      </trkpt>
      <trkpt lat="45.659663" lon="5.894584">
        <ele>237.868960</ele>
        <time>2021-07-03T23:51:45.868Z</time>
      </trkpt>
      <trkpt lat="45.658191" lon="5.894323">
        <ele>238.072829</ele>
        <time>2021-07-03T23:52:19.051Z</time>
      </trkpt>
      <trkpt lat="45.658024" lon="5.894261">
        <ele>238.308340</ele>
        <time>2021-07-03T23:52:23.890Z</time>
      </trkpt>
      <trkpt lat="45.657839" lon="5.894196">
        <ele>238.568376</ele>
        <time>2021-07-03T23:52:30.050Z</time>
      </trkpt>
      <trkpt lat="45.657658" lon="5.894122">
        <ele>238.825338</ele>
        <time>2021-07-03T23:52:35.247Z</time>
      </trkpt>
      <trkpt lat="45.657446" lon="5.893860">
        <ele>239.207741</ele>
        <time>2021-07-03T23:52:43.723Z</time>
      </trkpt>
      <trkpt lat="45.657347" lon="5.893844">
        <ele>239.343739</ele>
        <time>2021-07-03T23:52:46.475Z</time>
      </trkpt>
      <trkpt lat="45.657295" lon="5.893860">
        <ele>239.416345</ele>
        <time>2021-07-03T23:52:47.575Z</time>
      </trkpt>
      <trkpt lat="45.657252" lon="5.893899">
        <ele>239.485842</ele>
        <time>2021-07-03T23:52:49.981Z</time>
      </trkpt>
      <trkpt lat="45.657165" lon="5.894094">
        <ele>239.706563</ele>
        <time>2021-07-03T23:52:54.425Z</time>
      </trkpt>
      <trkpt lat="45.657080" lon="5.894262">
        <ele>239.904439</ele>
        <time>2021-07-03T23:52:58.032Z</time>
      </trkpt>
      <trkpt lat="45.656955" lon="5.894356">
        <ele>240.097203</ele>
        <time>2021-07-03T23:53:03.114Z</time>
      </trkpt>
      <trkpt lat="45.656777" lon="5.894449">
        <ele>240.288889</ele>
        <time>2021-07-03T23:53:07.535Z</time>
      </trkpt>
      <trkpt lat="45.656445" lon="5.894466">
        <ele>240.258769</ele>
        <time>2021-07-03T23:53:16.640Z</time>
      </trkpt>
      <trkpt lat="45.655841" lon="5.894307">
        <ele>240.203088</ele>
        <time>2021-07-03T23:53:32.600Z</time>
      </trkpt>
      <trkpt lat="45.655649" lon="5.894173">
        <ele>240.183719</ele>
        <time>2021-07-03T23:53:37.382Z</time>
      </trkpt>
      <trkpt lat="45.655038" lon="5.893520">
        <ele>239.786630</ele>
        <time>2021-07-03T23:53:50.804Z</time>
      </trkpt>
      <trkpt lat="45.654503" lon="5.893297">
        <ele>238.661212</ele>
        <time>2021-07-03T23:54:00.373Z</time>
      </trkpt>
      <trkpt lat="45.653905" lon="5.892827">
        <ele>237.283232</ele>
        <time>2021-07-03T23:54:12.474Z</time>
      </trkpt>
      <trkpt lat="45.653791" lon="5.892755">
        <ele>237.031559</ele>
        <time>2021-07-03T23:54:14.522Z</time>
      </trkpt>
      <trkpt lat="45.653710" lon="5.892701">
        <ele>236.851080</ele>
        <time>2021-07-03T23:54:16.360Z</time>
      </trkpt>
      <trkpt lat="45.653562" lon="5.892657">
        <ele>236.545792</ele>
        <time>2021-07-03T23:54:18.940Z</time>
      </trkpt>
      <trkpt lat="45.653415" lon="5.893062">
        <ele>236.286906</ele>
        <time>2021-07-03T23:54:24.580Z</time>
      </trkpt>
      <trkpt lat="45.653289" lon="5.893074">
        <ele>236.196801</ele>
        <time>2021-07-03T23:54:26.618Z</time>
      </trkpt>
      <trkpt lat="45.653212" lon="5.893028">
        <ele>236.137261</ele>
        <time>2021-07-03T23:54:28.468Z</time>
      </trkpt>
      <trkpt lat="45.653078" lon="5.892928">
        <ele>236.029421</ele>
        <time>2021-07-03T23:54:31.498Z</time>
      </trkpt>
      <trkpt lat="45.652946" lon="5.892843">
        <ele>235.926133</ele>
        <time>2021-07-03T23:54:33.981Z</time>
      </trkpt>
      <trkpt lat="45.652820" lon="5.892873">
        <ele>235.834991</ele>
        <time>2021-07-03T23:54:36.982Z</time>
      </trkpt>
      <trkpt lat="45.652790" lon="5.892878">
        <ele>235.813440</ele>
        <time>2021-07-03T23:54:37.576Z</time>
      </trkpt>
      <trkpt lat="45.652754" lon="5.892871">
        <ele>235.787517</ele>
        <time>2021-07-03T23:54:38.446Z</time>
      </trkpt>
      <trkpt lat="45.652699" lon="5.892836">
        <ele>235.744565</ele>
        <time>2021-07-03T23:54:39.958Z</time>
      </trkpt>
      <trkpt lat="45.652651" lon="5.892793">
        <ele>235.704154</ele>
        <time>2021-07-03T23:54:40.865Z</time>
      </trkpt>
      <trkpt lat="45.652582" lon="5.892555">
        <ele>235.575643</ele>
        <time>2021-07-03T23:54:45.172Z</time>
      </trkpt>
      <trkpt lat="45.652275" lon="5.891991">
        <ele>235.219108</ele>
        <time>2021-07-03T23:54:58.073Z</time>
      </trkpt>
      <trkpt lat="45.652241" lon="5.891959">
        <ele>235.236092</ele>
        <time>2021-07-03T23:54:58.765Z</time>
      </trkpt>
      <trkpt lat="45.652178" lon="5.891917">
        <ele>235.281757</ele>
        <time>2021-07-03T23:55:00.690Z</time>
      </trkpt>
      <trkpt lat="45.652111" lon="5.891897">
        <ele>235.326724</ele>
        <time>2021-07-03T23:55:02.724Z</time>
      </trkpt>
      <trkpt lat="45.652090" lon="5.891895">
        <ele>235.340551</ele>
        <time>2021-07-03T23:55:03.164Z</time>
      </trkpt>
      <trkpt lat="45.651992" lon="5.892025">
        <ele>235.428358</ele>
        <time>2021-07-03T23:55:06.821Z</time>
      </trkpt>
      <trkpt lat="45.651378" lon="5.892834">
        <ele>235.976781</ele>
        <time>2021-07-03T23:55:27.093Z</time>
      </trkpt>
      <trkpt lat="45.651325" lon="5.892855">
        <ele>236.012913</ele>
        <time>2021-07-03T23:55:29.027Z</time>
      </trkpt>
      <trkpt lat="45.651250" lon="5.892872">
        <ele>236.062802</ele>
        <time>2021-07-03T23:55:31.024Z</time>
      </trkpt>
      <trkpt lat="45.651132" lon="5.893026">
        <ele>236.167742</ele>
        <time>2021-07-03T23:55:35.470Z</time>
      </trkpt>
      <trkpt lat="45.651096" lon="5.893001">
        <ele>236.194034</ele>
        <time>2021-07-03T23:55:36.225Z</time>
      </trkpt>
      <trkpt lat="45.651017" lon="5.892999">
        <ele>236.245945</ele>
        <time>2021-07-03T23:55:38.686Z</time>
      </trkpt>
      <trkpt lat="45.650980" lon="5.893022">
        <ele>236.272449</ele>
        <time>2021-07-03T23:55:39.668Z</time>
      </trkpt>
      <trkpt lat="45.650950" lon="5.893057">
        <ele>236.297883</ele>
        <time>2021-07-03T23:55:40.732Z</time>
      </trkpt>
      <trkpt lat="45.650887" lon="5.893099">
        <ele>236.343547</ele>
        <time>2021-07-03T23:55:42.857Z</time>
      </trkpt>
      <trkpt lat="45.650770" lon="5.893137">
        <ele>236.404680</ele>
        <time>2021-07-03T23:55:46.047Z</time>
      </trkpt>
      <trkpt lat="45.650747" lon="5.893140">
        <ele>236.409775</ele>
        <time>2021-07-03T23:55:46.621Z</time>
      </trkpt>
      <trkpt lat="45.650586" lon="5.893129">
        <ele>236.445336</ele>
        <time>2021-07-03T23:55:51.058Z</time>
      </trkpt>
      <trkpt lat="45.649382" lon="5.893061">
        <ele>236.711176</ele>
        <time>2021-07-03T23:56:19.314Z</time>
      </trkpt>
      <trkpt lat="45.649311" lon="5.893060">
        <ele>236.726841</ele>
        <time>2021-07-03T23:56:20.785Z</time>
      </trkpt>
      <trkpt lat="45.649125" lon="5.893055">
        <ele>236.767884</ele>
        <time>2021-07-03T23:56:24.557Z</time>
      </trkpt>
      <trkpt lat="45.648907" lon="5.893049">
        <ele>236.727658</ele>
        <time>2021-07-03T23:56:28.905Z</time>
      </trkpt>
      <trkpt lat="45.648217" lon="5.893061">
        <ele>236.305923</ele>
        <time>2021-07-03T23:56:42.681Z</time>
      </trkpt>
      <trkpt lat="45.648046" lon="5.893009">
        <ele>236.199078</ele>
        <time>2021-07-03T23:56:46.175Z</time>
      </trkpt>
      <trkpt lat="45.648000" lon="5.892973">
        <ele>236.167032</ele>
        <time>2021-07-03T23:56:47.171Z</time>
      </trkpt>
      <trkpt lat="45.647976" lon="5.892881">
        <ele>236.125078</ele>
        <time>2021-07-03T23:56:48.547Z</time>
      </trkpt>
      <trkpt lat="45.647942" lon="5.892814">
        <ele>236.089706</ele>
        <time>2021-07-03T23:56:49.753Z</time>
      </trkpt>
      <trkpt lat="45.647899" lon="5.892764">
        <ele>236.055839</ele>
        <time>2021-07-03T23:56:50.825Z</time>
      </trkpt>
      <trkpt lat="45.647822" lon="5.892722">
        <ele>236.005474</ele>
        <time>2021-07-03T23:56:52.470Z</time>
      </trkpt>
      <trkpt lat="45.647777" lon="5.892716">
        <ele>235.977852</ele>
        <time>2021-07-03T23:56:53.401Z</time>
      </trkpt>
      <trkpt lat="45.647715" lon="5.892730">
        <ele>235.939491</ele>
        <time>2021-07-03T23:56:54.590Z</time>
      </trkpt>
      <trkpt lat="45.647666" lon="5.892762">
        <ele>235.906571</ele>
        <time>2021-07-03T23:56:55.677Z</time>
      </trkpt>
      <trkpt lat="45.647629" lon="5.892801">
        <ele>235.878482</ele>
        <time>2021-07-03T23:56:56.645Z</time>
      </trkpt>
      <trkpt lat="45.647597" lon="5.892853">
        <ele>235.848883</ele>
        <time>2021-07-03T23:56:57.661Z</time>
      </trkpt>
      <trkpt lat="45.647550" lon="5.892870">
        <ele>235.819254</ele>
        <time>2021-07-03T23:56:58.578Z</time>
      </trkpt>
      <trkpt lat="45.646683" lon="5.892850">
        <ele>235.657664</ele>
        <time>2021-07-03T23:57:16.403Z</time>
      </trkpt>
      <trkpt lat="45.646287" lon="5.892859">
        <ele>235.636318</ele>
        <time>2021-07-03T23:57:25.017Z</time>
      </trkpt>
      <trkpt lat="45.643007" lon="5.892645">
        <ele>236.539813</ele>
        <time>2021-07-03T23:58:43.479Z</time>
      </trkpt>
      <trkpt lat="45.638602" lon="5.892347">
        <ele>237.855564</ele>
        <time>2021-07-04T00:00:26.509Z</time>
      </trkpt>
      <trkpt lat="45.638362" lon="5.892299">
        <ele>237.920081</ele>
        <time>2021-07-04T00:00:32.032Z</time>
      </trkpt>
      <trkpt lat="45.638207" lon="5.892277">
        <ele>237.943946</ele>
        <time>2021-07-04T00:00:35.583Z</time>
      </trkpt>
      <trkpt lat="45.638105" lon="5.892258">
        <ele>237.959669</ele>
        <time>2021-07-04T00:00:37.935Z</time>
      </trkpt>
      <trkpt lat="45.638008" lon="5.892117">
        <ele>237.980809</ele>
        <time>2021-07-04T00:00:41.107Z</time>
      </trkpt>
      <trkpt lat="45.637893" lon="5.891847">
        <ele>238.014599</ele>
        <time>2021-07-04T00:00:46.154Z</time>
      </trkpt>
      <trkpt lat="45.637859" lon="5.891551">
        <ele>238.046658</ele>
        <time>2021-07-04T00:00:50.958Z</time>
      </trkpt>
      <trkpt lat="45.637800" lon="5.891535">
        <ele>238.055837</ele>
        <time>2021-07-04T00:00:52.317Z</time>
      </trkpt>
      <trkpt lat="45.637730" lon="5.891518">
        <ele>238.066691</ele>
        <time>2021-07-04T00:00:53.930Z</time>
      </trkpt>
      <trkpt lat="45.637691" lon="5.891508">
        <ele>238.072747</ele>
        <time>2021-07-04T00:00:54.838Z</time>
      </trkpt>
      <trkpt lat="45.637578" lon="5.891692">
        <ele>238.098921</ele>
        <time>2021-07-04T00:00:58.735Z</time>
      </trkpt>
      <trkpt lat="45.637297" lon="5.891963">
        <ele>238.150727</ele>
        <time>2021-07-04T00:01:06.446Z</time>
      </trkpt>
      <trkpt lat="45.636984" lon="5.892115">
        <ele>238.202521</ele>
        <time>2021-07-04T00:01:13.991Z</time>
      </trkpt>
      <trkpt lat="45.633227" lon="5.891800">
        <ele>238.859418</ele>
        <time>2021-07-04T00:02:40.440Z</time>
      </trkpt>
      <trkpt lat="45.632992" lon="5.891687">
        <ele>238.881241</ele>
        <time>2021-07-04T00:02:46.051Z</time>
      </trkpt>
      <trkpt lat="45.632915" lon="5.891641">
        <ele>238.888586</ele>
        <time>2021-07-04T00:02:47.946Z</time>
      </trkpt>
      <trkpt lat="45.632762" lon="5.891631">
        <ele>238.902068</ele>
        <time>2021-07-04T00:02:51.406Z</time>
      </trkpt>
      <trkpt lat="45.632491" lon="5.891623">
        <ele>238.925927</ele>
        <time>2021-07-04T00:02:57.524Z</time>
      </trkpt>
      <trkpt lat="45.632177" lon="5.891556">
        <ele>238.953872</ele>
        <time>2021-07-04T00:03:04.674Z</time>
      </trkpt>
      <trkpt lat="45.631608" lon="5.891506">
        <ele>238.999606</ele>
        <time>2021-07-04T00:03:17.420Z</time>
      </trkpt>
      <trkpt lat="45.629445" lon="5.891355">
        <ele>238.999994</ele>
        <time>2021-07-04T00:04:05.576Z</time>
      </trkpt>
      <trkpt lat="45.627459" lon="5.891219">
        <ele>238.999994</ele>
        <time>2021-07-04T00:04:49.784Z</time>
      </trkpt>
      <trkpt lat="45.627246" lon="5.891181">
        <ele>238.999994</ele>
        <time>2021-07-04T00:04:54.549Z</time>
      </trkpt>
      <trkpt lat="45.626951" lon="5.891128">
        <ele>238.999994</ele>
        <time>2021-07-04T00:05:01.151Z</time>
      </trkpt>
      <trkpt lat="45.626281" lon="5.890934">
        <ele>238.999994</ele>
        <time>2021-07-04T00:05:16.363Z</time>
      </trkpt>
      <trkpt lat="45.626021" lon="5.890789">
        <ele>238.999994</ele>
        <time>2021-07-04T00:05:22.557Z</time>
      </trkpt>
      <trkpt lat="45.625836" lon="5.890545">
        <ele>238.999994</ele>
        <time>2021-07-04T00:05:28.160Z</time>
      </trkpt>
      <trkpt lat="45.625582" lon="5.889823">
        <ele>238.999994</ele>
        <time>2021-07-04T00:05:40.757Z</time>
      </trkpt>
      <trkpt lat="45.625359" lon="5.889674">
        <ele>238.999994</ele>
        <time>2021-07-04T00:05:46.237Z</time>
      </trkpt>
      <trkpt lat="45.625316" lon="5.889671">
        <ele>238.999994</ele>
        <time>2021-07-04T00:05:47.174Z</time>
      </trkpt>
      <trkpt lat="45.625308" lon="5.889619">
        <ele>238.999994</ele>
        <time>2021-07-04T00:05:48.010Z</time>
      </trkpt>
      <trkpt lat="45.625136" lon="5.889204">
        <ele>238.999994</ele>
        <time>2021-07-04T00:05:55.525Z</time>
      </trkpt>
      <trkpt lat="45.624959" lon="5.889032">
        <ele>239.000141</ele>
        <time>2021-07-04T00:06:00.298Z</time>
      </trkpt>
      <trkpt lat="45.624789" lon="5.888967">
        <ele>239.000286</ele>
        <time>2021-07-04T00:06:04.213Z</time>
      </trkpt>
      <trkpt lat="45.624693" lon="5.888938">
        <ele>239.000367</ele>
        <time>2021-07-04T00:06:06.393Z</time>
      </trkpt>
      <trkpt lat="45.624427" lon="5.888867">
        <ele>239.000589</ele>
        <time>2021-07-04T00:06:12.392Z</time>
      </trkpt>
      <trkpt lat="45.623553" lon="5.888631">
        <ele>239.001321</ele>
        <time>2021-07-04T00:06:32.173Z</time>
      </trkpt>
      <trkpt lat="45.623145" lon="5.888513">
        <ele>239.033383</ele>
        <time>2021-07-04T00:06:41.500Z</time>
      </trkpt>
      <trkpt lat="45.623074" lon="5.888490">
        <ele>239.043439</ele>
        <time>2021-07-04T00:06:43.114Z</time>
      </trkpt>
      <trkpt lat="45.622714" lon="5.888279">
        <ele>239.097185</ele>
        <time>2021-07-04T00:06:51.898Z</time>
      </trkpt>
      <trkpt lat="45.622014" lon="5.887723">
        <ele>239.207800</ele>
        <time>2021-07-04T00:07:10.106Z</time>
      </trkpt>
      <trkpt lat="45.621941" lon="5.887672">
        <ele>239.219023</ele>
        <time>2021-07-04T00:07:11.963Z</time>
      </trkpt>
      <trkpt lat="45.621911" lon="5.887652">
        <ele>239.223595</ele>
        <time>2021-07-04T00:07:12.760Z</time>
      </trkpt>
      <trkpt lat="45.621314" lon="5.887258">
        <ele>239.379738</ele>
        <time>2021-07-04T00:07:28.178Z</time>
      </trkpt>
      <trkpt lat="45.620616" lon="5.886674">
        <ele>239.604594</ele>
        <time>2021-07-04T00:07:47.165Z</time>
      </trkpt>
      <trkpt lat="45.620527" lon="5.886597">
        <ele>239.633517</ele>
        <time>2021-07-04T00:07:49.687Z</time>
      </trkpt>
      <trkpt lat="45.620483" lon="5.886554">
        <ele>239.648335</ele>
        <time>2021-07-04T00:07:50.936Z</time>
      </trkpt>
      <trkpt lat="45.620438" lon="5.886508">
        <ele>239.663716</ele>
        <time>2021-07-04T00:07:52.208Z</time>
      </trkpt>
      <trkpt lat="45.620360" lon="5.886382">
        <ele>239.696437</ele>
        <time>2021-07-04T00:07:54.879Z</time>
      </trkpt>
      <trkpt lat="45.620342" lon="5.886317">
        <ele>239.710032</ele>
        <time>2021-07-04T00:07:56.038Z</time>
      </trkpt>
      <trkpt lat="45.620216" lon="5.886302">
        <ele>239.745186</ele>
        <time>2021-07-04T00:07:59.026Z</time>
      </trkpt>
      <trkpt lat="45.620025" lon="5.886228">
        <ele>239.774700</ele>
        <time>2021-07-04T00:08:03.540Z</time>
      </trkpt>
      <trkpt lat="45.619169" lon="5.885524">
        <ele>239.909710</ele>
        <time>2021-07-04T00:08:26.279Z</time>
      </trkpt>
      <trkpt lat="45.618934" lon="5.885323">
        <ele>239.947149</ele>
        <time>2021-07-04T00:08:32.389Z</time>
      </trkpt>
      <trkpt lat="45.618155" lon="5.884634">
        <ele>240.028486</ele>
        <time>2021-07-04T00:08:52.767Z</time>
      </trkpt>
      <trkpt lat="45.618085" lon="5.884575">
        <ele>240.033217</ele>
        <time>2021-07-04T00:08:54.572Z</time>
      </trkpt>
      <trkpt lat="45.617641" lon="5.884197">
        <ele>240.063302</ele>
        <time>2021-07-04T00:09:06.067Z</time>
      </trkpt>
      <trkpt lat="45.617499" lon="5.884063">
        <ele>240.073208</ele>
        <time>2021-07-04T00:09:09.919Z</time>
      </trkpt>
      <trkpt lat="45.617383" lon="5.883864">
        <ele>240.083757</ele>
        <time>2021-07-04T00:09:13.976Z</time>
      </trkpt>
      <trkpt lat="45.617328" lon="5.883769">
        <ele>240.088778</ele>
        <time>2021-07-04T00:09:15.963Z</time>
      </trkpt>
      <trkpt lat="45.617293" lon="5.883720">
        <ele>240.091630</ele>
        <time>2021-07-04T00:09:17.090Z</time>
      </trkpt>
      <trkpt lat="45.617253" lon="5.883708">
        <ele>240.094010</ele>
        <time>2021-07-04T00:09:18.046Z</time>
      </trkpt>
      <trkpt lat="45.617188" lon="5.883721">
        <ele>240.097831</ele>
        <time>2021-07-04T00:09:19.529Z</time>
      </trkpt>
      <trkpt lat="45.617077" lon="5.883653">
        <ele>240.122255</ele>
        <time>2021-07-04T00:09:22.274Z</time>
      </trkpt>
      <trkpt lat="45.616658" lon="5.883429">
        <ele>240.255734</ele>
        <time>2021-07-04T00:09:32.666Z</time>
      </trkpt>
      <trkpt lat="45.616626" lon="5.883422">
        <ele>240.265393</ele>
        <time>2021-07-04T00:09:33.452Z</time>
      </trkpt>
      <trkpt lat="45.616537" lon="5.883391">
        <ele>240.292726</ele>
        <time>2021-07-04T00:09:35.593Z</time>
      </trkpt>
      <trkpt lat="45.616497" lon="5.883362">
        <ele>240.306109</ele>
        <time>2021-07-04T00:09:36.612Z</time>
      </trkpt>
      <trkpt lat="45.616467" lon="5.883333">
        <ele>240.316915</ele>
        <time>2021-07-04T00:09:37.450Z</time>
      </trkpt>
      <trkpt lat="45.616403" lon="5.883230">
        <ele>240.345669</ele>
        <time>2021-07-04T00:09:39.666Z</time>
      </trkpt>
      <trkpt lat="45.616379" lon="5.883188">
        <ele>240.356988</ele>
        <time>2021-07-04T00:09:40.609Z</time>
      </trkpt>
      <trkpt lat="45.616015" lon="5.883348">
        <ele>240.470618</ele>
        <time>2021-07-04T00:09:49.540Z</time>
      </trkpt>
      <trkpt lat="45.615948" lon="5.883312">
        <ele>240.491976</ele>
        <time>2021-07-04T00:09:51.263Z</time>
      </trkpt>
      <trkpt lat="45.615560" lon="5.883352">
        <ele>240.608050</ele>
        <time>2021-07-04T00:10:00.486Z</time>
      </trkpt>
      <trkpt lat="45.612874" lon="5.883351">
        <ele>241.764504</ele>
        <time>2021-07-04T00:11:04.795Z</time>
      </trkpt>
      <trkpt lat="45.612165" lon="5.883403">
        <ele>242.112807</ele>
        <time>2021-07-04T00:11:21.987Z</time>
      </trkpt>
      <trkpt lat="45.610346" lon="5.883875">
        <ele>243.121514</ele>
        <time>2021-07-04T00:12:07.317Z</time>
      </trkpt>
      <trkpt lat="45.609757" lon="5.884141">
        <ele>243.450127</ele>
        <time>2021-07-04T00:12:22.399Z</time>
      </trkpt>
      <trkpt lat="45.608754" lon="5.884630">
        <ele>243.996492</ele>
        <time>2021-07-04T00:12:48.052Z</time>
      </trkpt>
      <trkpt lat="45.607968" lon="5.884965">
        <ele>244.377990</ele>
        <time>2021-07-04T00:13:07.903Z</time>
      </trkpt>
      <trkpt lat="45.607320" lon="5.885265">
        <ele>244.666484</ele>
        <time>2021-07-04T00:13:24.647Z</time>
      </trkpt>
      <trkpt lat="45.606473" lon="5.885652">
        <ele>245.028219</ele>
        <time>2021-07-04T00:13:45.178Z</time>
      </trkpt>
      <trkpt lat="45.606239" lon="5.885773">
        <ele>245.116870</ele>
        <time>2021-07-04T00:13:50.941Z</time>
      </trkpt>
      <trkpt lat="45.606105" lon="5.885872">
        <ele>245.170608</ele>
        <time>2021-07-04T00:13:54.289Z</time>
      </trkpt>
      <trkpt lat="45.606040" lon="5.885902">
        <ele>245.194942</ele>
        <time>2021-07-04T00:13:55.959Z</time>
      </trkpt>
      <trkpt lat="45.606030" lon="5.885848">
        <ele>245.208864</ele>
        <time>2021-07-04T00:13:56.848Z</time>
      </trkpt>
      <trkpt lat="45.605926" lon="5.885412">
        <ele>245.323672</ele>
        <time>2021-07-04T00:14:04.333Z</time>
      </trkpt>
      <trkpt lat="45.605905" lon="5.885363">
        <ele>245.337994</ele>
        <time>2021-07-04T00:14:05.253Z</time>
      </trkpt>
      <trkpt lat="45.605878" lon="5.885339">
        <ele>245.349321</ele>
        <time>2021-07-04T00:14:05.991Z</time>
      </trkpt>
      <trkpt lat="45.605710" lon="5.885346">
        <ele>245.409198</ele>
        <time>2021-07-04T00:14:09.706Z</time>
      </trkpt>
      <trkpt lat="45.605440" lon="5.885349">
        <ele>245.505390</ele>
        <time>2021-07-04T00:14:16.417Z</time>
      </trkpt>
      <trkpt lat="45.605477" lon="5.885180">
        <ele>245.549525</ele>
        <time>2021-07-04T00:14:21.407Z</time>
      </trkpt>
      <trkpt lat="45.605673" lon="5.884657">
        <ele>245.950709</ele>
        <time>2021-07-04T00:14:38.192Z</time>
      </trkpt>
      <trkpt lat="45.605766" lon="5.884398">
        <ele>246.194672</ele>
        <time>2021-07-04T00:14:46.306Z</time>
      </trkpt>
      <trkpt lat="45.605778" lon="5.884333">
        <ele>246.251008</ele>
        <time>2021-07-04T00:14:48.248Z</time>
      </trkpt>
      <trkpt lat="45.605832" lon="5.884060">
        <ele>246.488752</ele>
        <time>2021-07-04T00:14:56.395Z</time>
      </trkpt>
      <trkpt lat="45.605855" lon="5.883792">
        <ele>246.715022</ele>
        <time>2021-07-04T00:15:04.385Z</time>
      </trkpt>
      <trkpt lat="45.605847" lon="5.883511">
        <ele>246.950696</ele>
        <time>2021-07-04T00:15:12.695Z</time>
      </trkpt>
      <trkpt lat="45.605819" lon="5.883251">
        <ele>247.171145</ele>
        <time>2021-07-04T00:15:20.691Z</time>
      </trkpt>
      <trkpt lat="45.605696" lon="5.882818">
        <ele>247.562774</ele>
        <time>2021-07-04T00:15:34.795Z</time>
      </trkpt>
      <trkpt lat="45.605571" lon="5.882570">
        <ele>247.859135</ele>
        <time>2021-07-04T00:15:44.076Z</time>
      </trkpt>
      <trkpt lat="45.605131" lon="5.881984">
        <ele>248.969721</ele>
        <time>2021-07-04T00:16:10.979Z</time>
      </trkpt>
      <trkpt lat="45.604103" lon="5.881327">
        <ele>251.049249</ele>
        <time>2021-07-04T00:17:01.212Z</time>
      </trkpt>
      <trkpt lat="45.603970" lon="5.881205">
        <ele>251.349195</ele>
        <time>2021-07-04T00:17:08.549Z</time>
      </trkpt>
      <trkpt lat="45.603798" lon="5.881001">
        <ele>251.774115</ele>
        <time>2021-07-04T00:17:18.332Z</time>
      </trkpt>
      <trkpt lat="45.603685" lon="5.880767">
        <ele>252.152302</ele>
        <time>2021-07-04T00:17:27.417Z</time>
      </trkpt>
      <trkpt lat="45.603572" lon="5.880417">
        <ele>252.665018</ele>
        <time>2021-07-04T00:17:35.785Z</time>
      </trkpt>
      <trkpt lat="45.603502" lon="5.880026">
        <ele>253.201846</ele>
        <time>2021-07-04T00:17:44.206Z</time>
      </trkpt>
      <trkpt lat="45.603496" lon="5.880002">
        <ele>253.235745</ele>
        <time>2021-07-04T00:17:44.964Z</time>
      </trkpt>
      <trkpt lat="45.603427" lon="5.879693">
        <ele>253.667175</ele>
        <time>2021-07-04T00:17:51.898Z</time>
      </trkpt>
      <trkpt lat="45.603127" lon="5.878215">
        <ele>255.369258</ele>
        <time>2021-07-04T00:18:24.721Z</time>
      </trkpt>
      <trkpt lat="45.603059" lon="5.877305">
        <ele>256.244770</ele>
        <time>2021-07-04T00:18:43.067Z</time>
      </trkpt>
      <trkpt lat="45.602982" lon="5.876472">
        <ele>256.986816</ele>
        <time>2021-07-04T00:18:59.008Z</time>
      </trkpt>
      <trkpt lat="45.602982" lon="5.876414">
        <ele>257.009140</ele>
        <time>2021-07-04T00:19:00.102Z</time>
      </trkpt>
      <trkpt lat="45.602849" lon="5.876421">
        <ele>257.082358</ele>
        <time>2021-07-04T00:19:03.573Z</time>
      </trkpt>
      <trkpt lat="45.602574" lon="5.876441">
        <ele>257.233841</ele>
        <time>2021-07-04T00:19:10.763Z</time>
      </trkpt>
      <trkpt lat="45.602473" lon="5.876445">
        <ele>257.289427</ele>
        <time>2021-07-04T00:19:13.370Z</time>
      </trkpt>
      <trkpt lat="45.602407" lon="5.876419">
        <ele>257.327090</ele>
        <time>2021-07-04T00:19:15.115Z</time>
      </trkpt>
      <trkpt lat="45.602345" lon="5.876316">
        <ele>257.379388</ele>
        <time>2021-07-04T00:19:17.606Z</time>
      </trkpt>
      <trkpt lat="45.602294" lon="5.876255">
        <ele>257.415972</ele>
        <time>2021-07-04T00:19:19.298Z</time>
      </trkpt>
      <trkpt lat="45.602232" lon="5.876235">
        <ele>257.450939</ele>
        <time>2021-07-04T00:19:20.883Z</time>
      </trkpt>
      <trkpt lat="45.602202" lon="5.876225">
        <ele>257.467886</ele>
        <time>2021-07-04T00:19:21.676Z</time>
      </trkpt>
      <trkpt lat="45.602160" lon="5.876226">
        <ele>257.490995</ele>
        <time>2021-07-04T00:19:22.729Z</time>
      </trkpt>
      <trkpt lat="45.602039" lon="5.876311">
        <ele>257.565167</ele>
        <time>2021-07-04T00:19:26.137Z</time>
      </trkpt>
      <trkpt lat="45.601898" lon="5.876411">
        <ele>257.651761</ele>
        <time>2021-07-04T00:19:30.046Z</time>
      </trkpt>
      <trkpt lat="45.601091" lon="5.876385">
        <ele>258.111764</ele>
        <time>2021-07-04T00:19:49.279Z</time>
      </trkpt>
      <trkpt lat="45.601015" lon="5.876286">
        <ele>258.173927</ele>
        <time>2021-07-04T00:19:51.698Z</time>
      </trkpt>
      <trkpt lat="45.601005" lon="5.876253">
        <ele>258.189138</ele>
        <time>2021-07-04T00:19:52.309Z</time>
      </trkpt>
      <trkpt lat="45.600942" lon="5.876250">
        <ele>258.227245</ele>
        <time>2021-07-04T00:19:53.788Z</time>
      </trkpt>
      <trkpt lat="45.600873" lon="5.876246">
        <ele>258.268992</ele>
        <time>2021-07-04T00:19:55.445Z</time>
      </trkpt>
      <trkpt lat="45.600844" lon="5.876244">
        <ele>258.286544</ele>
        <time>2021-07-04T00:19:56.115Z</time>
      </trkpt>
      <trkpt lat="45.600795" lon="5.876272">
        <ele>258.318446</ele>
        <time>2021-07-04T00:19:57.367Z</time>
      </trkpt>
      <trkpt lat="45.600779" lon="5.876343">
        <ele>258.349995</ele>
        <time>2021-07-04T00:19:58.599Z</time>
      </trkpt>
      <trkpt lat="45.600759" lon="5.876421">
        <ele>258.385132</ele>
        <time>2021-07-04T00:19:59.971Z</time>
      </trkpt>
      <trkpt lat="45.600079" lon="5.877144">
        <ele>258.897484</ele>
        <time>2021-07-04T00:20:21.955Z</time>
      </trkpt>
      <trkpt lat="45.599742" lon="5.877258">
        <ele>259.198133</ele>
        <time>2021-07-04T00:20:31.716Z</time>
      </trkpt>
      <trkpt lat="45.599489" lon="5.877199">
        <ele>259.519995</ele>
        <time>2021-07-04T00:20:39.361Z</time>
      </trkpt>
      <trkpt lat="45.599219" lon="5.877138">
        <ele>259.863212</ele>
        <time>2021-07-04T00:20:47.576Z</time>
      </trkpt>
      <trkpt lat="45.599169" lon="5.877098">
        <ele>259.935156</ele>
        <time>2021-07-04T00:20:49.222Z</time>
      </trkpt>
      <trkpt lat="45.599104" lon="5.876728">
        <ele>260.270290</ele>
        <time>2021-07-04T00:20:57.336Z</time>
      </trkpt>
      <trkpt lat="45.599057" lon="5.876680">
        <ele>260.342819</ele>
        <time>2021-07-04T00:20:59.206Z</time>
      </trkpt>
      <trkpt lat="45.598973" lon="5.876665">
        <ele>260.449108</ele>
        <time>2021-07-04T00:21:01.370Z</time>
      </trkpt>
      <trkpt lat="45.598478" lon="5.876737">
        <ele>261.073831</ele>
        <time>2021-07-04T00:21:15.021Z</time>
      </trkpt>
      <trkpt lat="45.598426" lon="5.876745">
        <ele>261.139499</ele>
        <time>2021-07-04T00:21:16.718Z</time>
      </trkpt>
      <trkpt lat="45.597720" lon="5.876766">
        <ele>261.168746</ele>
        <time>2021-07-04T00:21:34.350Z</time>
      </trkpt>
      <trkpt lat="45.597688" lon="5.876757">
        <ele>261.162614</ele>
        <time>2021-07-04T00:21:35.402Z</time>
      </trkpt>
      <trkpt lat="45.597675" lon="5.876828">
        <ele>261.152960</ele>
        <time>2021-07-04T00:21:36.738Z</time>
      </trkpt>
      <trkpt lat="45.597666" lon="5.877059">
        <ele>261.122523</ele>
        <time>2021-07-04T00:21:40.220Z</time>
      </trkpt>
      <trkpt lat="45.597661" lon="5.877195">
        <ele>261.104607</ele>
        <time>2021-07-04T00:21:42.059Z</time>
      </trkpt>
      <trkpt lat="45.597651" lon="5.877445">
        <ele>261.071665</ele>
        <time>2021-07-04T00:21:45.924Z</time>
      </trkpt>
      <trkpt lat="45.597586" lon="5.877519">
        <ele>261.056041</ele>
        <time>2021-07-04T00:21:47.629Z</time>
      </trkpt>
      <trkpt lat="45.597364" lon="5.877629">
        <ele>261.011863</ele>
        <time>2021-07-04T00:21:52.288Z</time>
      </trkpt>
      <trkpt lat="45.597087" lon="5.877766">
        <ele>260.956752</ele>
        <time>2021-07-04T00:21:57.862Z</time>
      </trkpt>
      <trkpt lat="45.597026" lon="5.877968">
        <ele>260.900048</ele>
        <time>2021-07-04T00:22:00.819Z</time>
      </trkpt>
      <trkpt lat="45.596953" lon="5.877999">
        <ele>260.858182</ele>
        <time>2021-07-04T00:22:02.227Z</time>
      </trkpt>
      <trkpt lat="45.596716" lon="5.878100">
        <ele>260.722222</ele>
        <time>2021-07-04T00:22:06.927Z</time>
      </trkpt>
      <trkpt lat="45.596577" lon="5.878153">
        <ele>260.643133</ele>
        <time>2021-07-04T00:22:09.602Z</time>
      </trkpt>
      <trkpt lat="45.596352" lon="5.878239">
        <ele>260.515092</ele>
        <time>2021-07-04T00:22:14.182Z</time>
      </trkpt>
      <trkpt lat="45.596139" lon="5.878338">
        <ele>260.391958</ele>
        <time>2021-07-04T00:22:18.718Z</time>
      </trkpt>
      <trkpt lat="45.596041" lon="5.878385">
        <ele>260.335130</ele>
        <time>2021-07-04T00:22:20.894Z</time>
      </trkpt>
      <trkpt lat="45.595968" lon="5.878413">
        <ele>260.293578</ele>
        <time>2021-07-04T00:22:22.538Z</time>
      </trkpt>
      <trkpt lat="45.595920" lon="5.878426">
        <ele>260.266720</ele>
        <time>2021-07-04T00:22:23.569Z</time>
      </trkpt>
      <trkpt lat="45.595304" lon="5.878600">
        <ele>259.958822</ele>
        <time>2021-07-04T00:22:37.384Z</time>
      </trkpt>
      <trkpt lat="45.595189" lon="5.878676">
        <ele>259.970588</ele>
        <time>2021-07-04T00:22:40.188Z</time>
      </trkpt>
      <trkpt lat="45.595182" lon="5.878657">
        <ele>259.971983</ele>
        <time>2021-07-04T00:22:40.556Z</time>
      </trkpt>
      <trkpt lat="45.595085" lon="5.878615">
        <ele>259.981395</ele>
        <time>2021-07-04T00:22:42.742Z</time>
      </trkpt>
      <trkpt lat="45.595074" lon="5.878623">
        <ele>259.982541</ele>
        <time>2021-07-04T00:22:43.056Z</time>
      </trkpt>
      <trkpt lat="45.595061" lon="5.878633">
        <ele>259.983912</ele>
        <time>2021-07-04T00:22:43.388Z</time>
      </trkpt>
      <trkpt lat="45.595045" lon="5.878657">
        <ele>259.986066</ele>
        <time>2021-07-04T00:22:43.894Z</time>
      </trkpt>
      <trkpt lat="45.595039" lon="5.878673">
        <ele>259.987246</ele>
        <time>2021-07-04T00:22:44.178Z</time>
      </trkpt>
      <trkpt lat="45.594959" lon="5.878676">
        <ele>259.994678</ele>
        <time>2021-07-04T00:22:46.080Z</time>
      </trkpt>
      <trkpt lat="45.594645" lon="5.878783">
        <ele>260.024654</ele>
        <time>2021-07-04T00:22:53.337Z</time>
      </trkpt>
      <trkpt lat="45.594539" lon="5.878820">
        <ele>260.034787</ele>
        <time>2021-07-04T00:22:55.855Z</time>
      </trkpt>
      <trkpt lat="45.594260" lon="5.878936">
        <ele>260.061770</ele>
        <time>2021-07-04T00:23:02.618Z</time>
      </trkpt>
      <trkpt lat="45.594190" lon="5.878967">
        <ele>260.068575</ele>
        <time>2021-07-04T00:23:04.290Z</time>
      </trkpt>
      <trkpt lat="45.593942" lon="5.879049">
        <ele>260.092213</ele>
        <time>2021-07-04T00:23:10.134Z</time>
      </trkpt>
      <trkpt lat="45.593584" lon="5.879094">
        <ele>260.113112</ele>
        <time>2021-07-04T00:23:18.382Z</time>
      </trkpt>
      <trkpt lat="45.593579" lon="5.879007">
        <ele>260.104985</ele>
        <time>2021-07-04T00:23:19.786Z</time>
      </trkpt>
      <trkpt lat="45.593550" lon="5.878929">
        <ele>260.096761</ele>
        <time>2021-07-04T00:23:21.133Z</time>
      </trkpt>
      <trkpt lat="45.593503" lon="5.878841">
        <ele>260.086454</ele>
        <time>2021-07-04T00:23:22.826Z</time>
      </trkpt>
      <trkpt lat="45.593481" lon="5.878913">
        <ele>260.079139</ele>
        <time>2021-07-04T00:23:24.012Z</time>
      </trkpt>
      <trkpt lat="45.593369" lon="5.878925">
        <ele>260.064195</ele>
        <time>2021-07-04T00:23:26.461Z</time>
      </trkpt>
      <trkpt lat="45.593314" lon="5.878928">
        <ele>260.056871</ele>
        <time>2021-07-04T00:23:27.661Z</time>
      </trkpt>
      <trkpt lat="45.593279" lon="5.878954">
        <ele>260.051623</ele>
        <time>2021-07-04T00:23:28.502Z</time>
      </trkpt>
      <trkpt lat="45.593238" lon="5.879030">
        <ele>260.042688</ele>
        <time>2021-07-04T00:23:29.926Z</time>
      </trkpt>
      <trkpt lat="45.593216" lon="5.879078">
        <ele>260.037345</ele>
        <time>2021-07-04T00:23:30.775Z</time>
      </trkpt>
      <trkpt lat="45.593179" lon="5.879298">
        <ele>260.016278</ele>
        <time>2021-07-04T00:23:34.161Z</time>
      </trkpt>
      <trkpt lat="45.593151" lon="5.879382">
        <ele>260.007615</ele>
        <time>2021-07-04T00:23:35.551Z</time>
      </trkpt>
      <trkpt lat="45.593087" lon="5.879465">
        <ele>259.996116</ele>
        <time>2021-07-04T00:23:37.414Z</time>
      </trkpt>
      <trkpt lat="45.592143" lon="5.880068">
        <ele>259.841111</ele>
        <time>2021-07-04T00:23:59.761Z</time>
      </trkpt>
      <trkpt lat="45.592121" lon="5.880069">
        <ele>259.835925</ele>
        <time>2021-07-04T00:24:00.230Z</time>
      </trkpt>
      <trkpt lat="45.592041" lon="5.880068">
        <ele>259.817075</ele>
        <time>2021-07-04T00:24:01.964Z</time>
      </trkpt>
      <trkpt lat="45.591979" lon="5.880045">
        <ele>259.801982</ele>
        <time>2021-07-04T00:24:03.356Z</time>
      </trkpt>
      <trkpt lat="45.591938" lon="5.879998">
        <ele>259.789598</ele>
        <time>2021-07-04T00:24:04.505Z</time>
      </trkpt>
      <trkpt lat="45.591876" lon="5.880024">
        <ele>259.774374</ele>
        <time>2021-07-04T00:24:05.854Z</time>
      </trkpt>
      <trkpt lat="45.591825" lon="5.880059">
        <ele>259.761044</ele>
        <time>2021-07-04T00:24:07.077Z</time>
      </trkpt>
      <trkpt lat="45.591777" lon="5.880208">
        <ele>259.733999</ele>
        <time>2021-07-04T00:24:09.676Z</time>
      </trkpt>
      <trkpt lat="45.591724" lon="5.880338">
        <ele>259.709193</ele>
        <time>2021-07-04T00:24:12.048Z</time>
      </trkpt>
      <trkpt lat="45.591696" lon="5.880386">
        <ele>259.698890</ele>
        <time>2021-07-04T00:24:13.032Z</time>
      </trkpt>
      <trkpt lat="45.591614" lon="5.880462">
        <ele>259.675862</ele>
        <time>2021-07-04T00:24:15.129Z</time>
      </trkpt>
      <trkpt lat="45.591420" lon="5.880629">
        <ele>259.622500</ele>
        <time>2021-07-04T00:24:20.248Z</time>
      </trkpt>
      <trkpt lat="45.591316" lon="5.880732">
        <ele>259.592686</ele>
        <time>2021-07-04T00:24:22.986Z</time>
      </trkpt>
      <trkpt lat="45.590822" lon="5.881133">
        <ele>259.458825</ele>
        <time>2021-07-04T00:24:35.627Z</time>
      </trkpt>
      <trkpt lat="45.590448" lon="5.881385">
        <ele>259.383739</ele>
        <time>2021-07-04T00:24:44.778Z</time>
      </trkpt>
      <trkpt lat="45.590313" lon="5.881396">
        <ele>259.359298</ele>
        <time>2021-07-04T00:24:47.702Z</time>
      </trkpt>
      <trkpt lat="45.590252" lon="5.881507">
        <ele>259.341445</ele>
        <time>2021-07-04T00:24:49.926Z</time>
      </trkpt>
      <trkpt lat="45.589287" lon="5.881985">
        <ele>259.156832</ele>
        <time>2021-07-04T00:25:13.053Z</time>
      </trkpt>
      <trkpt lat="45.589081" lon="5.882100">
        <ele>259.137675</ele>
        <time>2021-07-04T00:25:18.192Z</time>
      </trkpt>
      <trkpt lat="45.588879" lon="5.882214">
        <ele>259.151579</ele>
        <time>2021-07-04T00:25:23.234Z</time>
      </trkpt>
      <trkpt lat="45.588587" lon="5.882407">
        <ele>259.172177</ele>
        <time>2021-07-04T00:25:30.720Z</time>
      </trkpt>
      <trkpt lat="45.588546" lon="5.882439">
        <ele>259.175167</ele>
        <time>2021-07-04T00:25:31.821Z</time>
      </trkpt>
      <trkpt lat="45.588467" lon="5.882555">
        <ele>259.182419</ele>
        <time>2021-07-04T00:25:34.467Z</time>
      </trkpt>
      <trkpt lat="45.587212" lon="5.883460">
        <ele>259.299947</ele>
        <time>2021-07-04T00:26:07.684Z</time>
      </trkpt>
      <trkpt lat="45.586721" lon="5.883789">
        <ele>259.372841</ele>
        <time>2021-07-04T00:26:20.528Z</time>
      </trkpt>
      <trkpt lat="45.586432" lon="5.883983">
        <ele>259.415760</ele>
        <time>2021-07-04T00:26:28.087Z</time>
      </trkpt>
      <trkpt lat="45.583504" lon="5.886013">
        <ele>260.084526</ele>
        <time>2021-07-04T00:27:45.595Z</time>
      </trkpt>
      <trkpt lat="45.583206" lon="5.886178">
        <ele>260.198446</ele>
        <time>2021-07-04T00:27:53.240Z</time>
      </trkpt>
      <trkpt lat="45.583058" lon="5.886255">
        <ele>260.254589</ele>
        <time>2021-07-04T00:27:57.120Z</time>
      </trkpt>
      <trkpt lat="45.582836" lon="5.886367">
        <ele>260.338510</ele>
        <time>2021-07-04T00:28:02.909Z</time>
      </trkpt>
      <trkpt lat="45.582025" lon="5.887117">
        <ele>261.560009</ele>
        <time>2021-07-04T00:28:29.050Z</time>
      </trkpt>
      <trkpt lat="45.581953" lon="5.887173">
        <ele>261.680275</ele>
        <time>2021-07-04T00:28:31.271Z</time>
      </trkpt>
      <trkpt lat="45.581883" lon="5.887200">
        <ele>261.786646</ele>
        <time>2021-07-04T00:28:33.499Z</time>
      </trkpt>
      <trkpt lat="45.581819" lon="5.887221">
        <ele>261.882983</ele>
        <time>2021-07-04T00:28:35.415Z</time>
      </trkpt>
      <trkpt lat="45.581754" lon="5.887243">
        <ele>261.980982</ele>
        <time>2021-07-04T00:28:37.254Z</time>
      </trkpt>
      <trkpt lat="45.581694" lon="5.887283">
        <ele>262.078117</ele>
        <time>2021-07-04T00:28:39.061Z</time>
      </trkpt>
      <trkpt lat="45.581661" lon="5.887319">
        <ele>262.139028</ele>
        <time>2021-07-04T00:28:40.220Z</time>
      </trkpt>
      <trkpt lat="45.581602" lon="5.887398">
        <ele>262.257654</ele>
        <time>2021-07-04T00:28:42.488Z</time>
      </trkpt>
      <trkpt lat="45.581561" lon="5.887453">
        <ele>262.340160</ele>
        <time>2021-07-04T00:28:44.420Z</time>
      </trkpt>
      <trkpt lat="45.581373" lon="5.887566">
        <ele>262.639382</ele>
        <time>2021-07-04T00:28:50.181Z</time>
      </trkpt>
      <trkpt lat="45.579700" lon="5.887462">
        <ele>267.051479</ele>
        <time>2021-07-04T00:29:48.289Z</time>
      </trkpt>
      <trkpt lat="45.579569" lon="5.887455">
        <ele>267.426704</ele>
        <time>2021-07-04T00:29:53.371Z</time>
      </trkpt>
      <trkpt lat="45.579138" lon="5.887419">
        <ele>268.606591</ele>
        <time>2021-07-04T00:30:08.775Z</time>
      </trkpt>
      <trkpt lat="45.577747" lon="5.887294">
        <ele>272.125772</ele>
        <time>2021-07-04T00:30:56.413Z</time>
      </trkpt>
      <trkpt lat="45.577403" lon="5.887388">
        <ele>272.843513</ele>
        <time>2021-07-04T00:31:06.503Z</time>
      </trkpt>
      <trkpt lat="45.576655" lon="5.887827">
        <ele>273.671449</ele>
        <time>2021-07-04T00:31:28.766Z</time>
      </trkpt>
      <trkpt lat="45.576360" lon="5.887921">
        <ele>273.980905</ele>
        <time>2021-07-04T00:31:36.763Z</time>
      </trkpt>
      <trkpt lat="45.575791" lon="5.887938">
        <ele>274.563599</ele>
        <time>2021-07-04T00:31:51.304Z</time>
      </trkpt>
      <trkpt lat="45.575588" lon="5.887957">
        <ele>274.655576</ele>
        <time>2021-07-04T00:31:56.458Z</time>
      </trkpt>
      <trkpt lat="45.575560" lon="5.887959">
        <ele>274.667627</ele>
        <time>2021-07-04T00:31:57.226Z</time>
      </trkpt>
      <trkpt lat="45.575363" lon="5.888024">
        <ele>274.754531</ele>
        <time>2021-07-04T00:32:02.217Z</time>
      </trkpt>
      <trkpt lat="45.573291" lon="5.889344">
        <ele>275.695991</ele>
        <time>2021-07-04T00:32:58.435Z</time>
      </trkpt>
      <trkpt lat="45.573109" lon="5.889408">
        <ele>275.769509</ele>
        <time>2021-07-04T00:33:03.004Z</time>
      </trkpt>
      <trkpt lat="45.573011" lon="5.889462">
        <ele>275.810709</ele>
        <time>2021-07-04T00:33:05.633Z</time>
      </trkpt>
      <trkpt lat="45.572854" lon="5.889554">
        <ele>275.877269</ele>
        <time>2021-07-04T00:33:09.771Z</time>
      </trkpt>
      <trkpt lat="45.572296" lon="5.890084">
        <ele>276.241754</ele>
        <time>2021-07-04T00:33:26.330Z</time>
      </trkpt>
      <trkpt lat="45.572177" lon="5.890115">
        <ele>276.342742</ele>
        <time>2021-07-04T00:33:29.279Z</time>
      </trkpt>
      <trkpt lat="45.572078" lon="5.890037">
        <ele>276.437130</ele>
        <time>2021-07-04T00:33:32.115Z</time>
      </trkpt>
      <trkpt lat="45.572004" lon="5.890021">
        <ele>276.499614</ele>
        <time>2021-07-04T00:33:33.967Z</time>
      </trkpt>
      <trkpt lat="45.571969" lon="5.890026">
        <ele>276.528980</ele>
        <time>2021-07-04T00:33:34.847Z</time>
      </trkpt>
      <trkpt lat="45.571940" lon="5.890031">
        <ele>276.553367</ele>
        <time>2021-07-04T00:33:35.576Z</time>
      </trkpt>
      <trkpt lat="45.571840" lon="5.890127">
        <ele>276.653953</ele>
        <time>2021-07-04T00:33:38.480Z</time>
      </trkpt>
      <trkpt lat="45.571793" lon="5.890422">
        <ele>276.830765</ele>
        <time>2021-07-04T00:33:44.092Z</time>
      </trkpt>
      <trkpt lat="45.571510" lon="5.890806">
        <ele>277.156626</ele>
        <time>2021-07-04T00:33:54.728Z</time>
      </trkpt>
      <trkpt lat="45.570663" lon="5.891406">
        <ele>278.543183</ele>
        <time>2021-07-04T00:34:21.653Z</time>
      </trkpt>
      <trkpt lat="45.570575" lon="5.891458">
        <ele>278.743124</ele>
        <time>2021-07-04T00:34:24.504Z</time>
      </trkpt>
      <trkpt lat="45.570381" lon="5.891573">
        <ele>279.184106</ele>
        <time>2021-07-04T00:34:30.772Z</time>
      </trkpt>
      <trkpt lat="45.569128" lon="5.892085">
        <ele>282.037865</ele>
        <time>2021-07-04T00:35:14.435Z</time>
      </trkpt>
      <trkpt lat="45.568807" lon="5.892085">
        <ele>282.845546</ele>
        <time>2021-07-04T00:35:25.446Z</time>
      </trkpt>
      <trkpt lat="45.568704" lon="5.892075">
        <ele>283.105306</ele>
        <time>2021-07-04T00:35:29.189Z</time>
      </trkpt>
      <trkpt lat="45.568642" lon="5.892108">
        <ele>283.271784</ele>
        <time>2021-07-04T00:35:31.824Z</time>
      </trkpt>
      <trkpt lat="45.568518" lon="5.892298">
        <ele>283.729333</ele>
        <time>2021-07-04T00:35:37.398Z</time>
      </trkpt>
      <trkpt lat="45.567938" lon="5.892524">
        <ele>285.242015</ele>
        <time>2021-07-04T00:35:57.586Z</time>
      </trkpt>
      <trkpt lat="45.567247" lon="5.892820">
        <ele>286.528494</ele>
        <time>2021-07-04T00:36:20.420Z</time>
      </trkpt>
      <trkpt lat="45.567169" lon="5.892854">
        <ele>286.643558</ele>
        <time>2021-07-04T00:36:22.748Z</time>
      </trkpt>
      <trkpt lat="45.565949" lon="5.893308">
        <ele>288.413064</ele>
        <time>2021-07-04T00:36:57.506Z</time>
      </trkpt>
      <trkpt lat="45.565822" lon="5.893273">
        <ele>288.540765</ele>
        <time>2021-07-04T00:37:00.896Z</time>
      </trkpt>
      <trkpt lat="45.565788" lon="5.893262">
        <ele>288.575184</ele>
        <time>2021-07-04T00:37:01.783Z</time>
      </trkpt>
      <trkpt lat="45.565749" lon="5.893284">
        <ele>288.616584</ele>
        <time>2021-07-04T00:37:02.960Z</time>
      </trkpt>
      <trkpt lat="45.565644" lon="5.893380">
        <ele>288.739670</ele>
        <time>2021-07-04T00:37:06.247Z</time>
      </trkpt>
      <trkpt lat="45.565086" lon="5.893351">
        <ele>289.290957</ele>
        <time>2021-07-04T00:37:20.871Z</time>
      </trkpt>
      <trkpt lat="45.565003" lon="5.893379">
        <ele>289.375159</ele>
        <time>2021-07-04T00:37:23.216Z</time>
      </trkpt>
      <trkpt lat="45.564972" lon="5.893391">
        <ele>289.406869</ele>
        <time>2021-07-04T00:37:24.028Z</time>
      </trkpt>
      <trkpt lat="45.564865" lon="5.893397">
        <ele>289.512594</ele>
        <time>2021-07-04T00:37:27.050Z</time>
      </trkpt>
      <trkpt lat="45.563741" lon="5.893367">
        <ele>290.639942</ele>
        <time>2021-07-04T00:37:58.302Z</time>
      </trkpt>
      <trkpt lat="45.563002" lon="5.893471">
        <ele>291.401135</ele>
        <time>2021-07-04T00:38:18.858Z</time>
      </trkpt>
      <trkpt lat="45.562909" lon="5.893505">
        <ele>291.499540</ele>
        <time>2021-07-04T00:38:21.414Z</time>
      </trkpt>
      <trkpt lat="45.562828" lon="5.893513">
        <ele>291.582769</ele>
        <time>2021-07-04T00:38:23.654Z</time>
      </trkpt>
      <trkpt lat="45.562406" lon="5.893535">
        <ele>292.013722</ele>
        <time>2021-07-04T00:38:34.752Z</time>
      </trkpt>
      <trkpt lat="45.562339" lon="5.893507">
        <ele>292.056230</ele>
        <time>2021-07-04T00:38:36.701Z</time>
      </trkpt>
      <trkpt lat="45.562277" lon="5.893499">
        <ele>292.094136</ele>
        <time>2021-07-04T00:38:38.263Z</time>
      </trkpt>
      <trkpt lat="45.562235" lon="5.893518">
        <ele>292.120963</ele>
        <time>2021-07-04T00:38:39.405Z</time>
      </trkpt>
      <trkpt lat="45.562084" lon="5.893803">
        <ele>292.273333</ele>
        <time>2021-07-04T00:38:46.011Z</time>
      </trkpt>
      <trkpt lat="45.562077" lon="5.893813">
        <ele>292.279362</ele>
        <time>2021-07-04T00:38:46.259Z</time>
      </trkpt>
      <trkpt lat="45.562049" lon="5.893848">
        <ele>292.302018</ele>
        <time>2021-07-04T00:38:47.173Z</time>
      </trkpt>
      <trkpt lat="45.562036" lon="5.893864">
        <ele>292.312468</ele>
        <time>2021-07-04T00:38:47.643Z</time>
      </trkpt>
      <trkpt lat="45.560794" lon="5.894648">
        <ele>293.137937</ele>
        <time>2021-07-04T00:39:22.311Z</time>
      </trkpt>
      <trkpt lat="45.560673" lon="5.894656">
        <ele>293.208649</ele>
        <time>2021-07-04T00:39:25.086Z</time>
      </trkpt>
      <trkpt lat="45.560635" lon="5.894665">
        <ele>293.231135</ele>
        <time>2021-07-04T00:39:26.149Z</time>
      </trkpt>
      <trkpt lat="45.560562" lon="5.894780">
        <ele>293.294581</ele>
        <time>2021-07-04T00:39:28.787Z</time>
      </trkpt>
      <trkpt lat="45.560045" lon="5.895151">
        <ele>293.632341</ele>
        <time>2021-07-04T00:39:42.744Z</time>
      </trkpt>
      <trkpt lat="45.560015" lon="5.895152">
        <ele>293.649859</ele>
        <time>2021-07-04T00:39:43.591Z</time>
      </trkpt>
      <trkpt lat="45.559946" lon="5.895154">
        <ele>293.690147</ele>
        <time>2021-07-04T00:39:45.258Z</time>
      </trkpt>
      <trkpt lat="45.559841" lon="5.895205">
        <ele>293.754890</ele>
        <time>2021-07-04T00:39:48.172Z</time>
      </trkpt>
      <trkpt lat="45.559746" lon="5.895298">
        <ele>293.822125</ele>
        <time>2021-07-04T00:39:50.887Z</time>
      </trkpt>
      <trkpt lat="45.559606" lon="5.895439">
        <ele>293.922129</ele>
        <time>2021-07-04T00:39:55.121Z</time>
      </trkpt>
      <trkpt lat="45.559516" lon="5.895521">
        <ele>293.984448</ele>
        <time>2021-07-04T00:39:58.177Z</time>
      </trkpt>
      <trkpt lat="45.559462" lon="5.895624">
        <ele>294.037042</ele>
        <time>2021-07-04T00:40:00.313Z</time>
      </trkpt>
      <trkpt lat="45.559437" lon="5.895675">
        <ele>294.062489</ele>
        <time>2021-07-04T00:40:01.392Z</time>
      </trkpt>
      <trkpt lat="45.559391" lon="5.895737">
        <ele>294.099411</ele>
        <time>2021-07-04T00:40:02.978Z</time>
      </trkpt>
      <trkpt lat="45.559313" lon="5.895769">
        <ele>294.146787</ele>
        <time>2021-07-04T00:40:05.110Z</time>
      </trkpt>
      <trkpt lat="45.559266" lon="5.895762">
        <ele>294.208541</ele>
        <time>2021-07-04T00:40:06.546Z</time>
      </trkpt>
      <trkpt lat="45.559229" lon="5.895766">
        <ele>294.270774</ele>
        <time>2021-07-04T00:40:07.543Z</time>
      </trkpt>
      <trkpt lat="45.559120" lon="5.895851">
        <ele>294.479061</ele>
        <time>2021-07-04T00:40:10.654Z</time>
      </trkpt>
      <trkpt lat="45.559025" lon="5.895965">
        <ele>294.687166</ele>
        <time>2021-07-04T00:40:13.857Z</time>
      </trkpt>
      <trkpt lat="45.558975" lon="5.895939">
        <ele>294.776410</ele>
        <time>2021-07-04T00:40:15.608Z</time>
      </trkpt>
      <trkpt lat="45.558391" lon="5.895467">
        <ele>295.901835</ele>
        <time>2021-07-04T00:40:34.587Z</time>
      </trkpt>
      <trkpt lat="45.558296" lon="5.895419">
        <ele>296.070843</ele>
        <time>2021-07-04T00:40:37.950Z</time>
      </trkpt>
      <trkpt lat="45.558045" lon="5.895176">
        <ele>296.579416</ele>
        <time>2021-07-04T00:40:46.896Z</time>
      </trkpt>
      <trkpt lat="45.557950" lon="5.895083">
        <ele>296.772584</ele>
        <time>2021-07-04T00:40:50.519Z</time>
      </trkpt>
      <trkpt lat="45.557408" lon="5.894553">
        <ele>298.128104</ele>
        <time>2021-07-04T00:41:11.330Z</time>
      </trkpt>
      <trkpt lat="45.557223" lon="5.894373">
        <ele>298.639392</ele>
        <time>2021-07-04T00:41:18.277Z</time>
      </trkpt>
      <trkpt lat="45.556486" lon="5.893662">
        <ele>300.670797</ele>
        <time>2021-07-04T00:41:46.840Z</time>
      </trkpt>
      <trkpt lat="45.556383" lon="5.893563">
        <ele>300.954370</ele>
        <time>2021-07-04T00:41:50.568Z</time>
      </trkpt>
      <trkpt lat="45.556331" lon="5.893497">
        <ele>301.113266</ele>
        <time>2021-07-04T00:41:52.819Z</time>
      </trkpt>
      <trkpt lat="45.556334" lon="5.893475">
        <ele>301.149112</ele>
        <time>2021-07-04T00:41:53.338Z</time>
      </trkpt>
      <trkpt lat="45.556330" lon="5.893432">
        <ele>301.218486</ele>
        <time>2021-07-04T00:41:54.287Z</time>
      </trkpt>
      <trkpt lat="45.556321" lon="5.893413">
        <ele>301.255173</ele>
        <time>2021-07-04T00:41:54.805Z</time>
      </trkpt>
      <trkpt lat="45.556309" lon="5.893397">
        <ele>301.288202</ele>
        <time>2021-07-04T00:41:55.319Z</time>
      </trkpt>
      <trkpt lat="45.556248" lon="5.893397">
        <ele>301.374496</ele>
        <time>2021-07-04T00:41:57.200Z</time>
      </trkpt>
      <trkpt lat="45.556236" lon="5.893411">
        <ele>301.396416</ele>
        <time>2021-07-04T00:41:57.707Z</time>
      </trkpt>
      <trkpt lat="45.556170" lon="5.893354">
        <ele>301.505527</ele>
        <time>2021-07-04T00:41:59.928Z</time>
      </trkpt>
      <trkpt lat="45.556110" lon="5.893293">
        <ele>301.609717</ele>
        <time>2021-07-04T00:42:02.075Z</time>
      </trkpt>
      <trkpt lat="45.555914" lon="5.893091">
        <ele>301.951648</ele>
        <time>2021-07-04T00:42:09.363Z</time>
      </trkpt>
      <trkpt lat="45.555672" lon="5.892868">
        <ele>302.359072</ele>
        <time>2021-07-04T00:42:17.927Z</time>
      </trkpt>
      <trkpt lat="45.555369" lon="5.892564">
        <ele>302.882916</ele>
        <time>2021-07-04T00:42:28.649Z</time>
      </trkpt>
      <trkpt lat="45.555294" lon="5.892490">
        <ele>303.011874</ele>
        <time>2021-07-04T00:42:31.001Z</time>
      </trkpt>
      <trkpt lat="45.555022" lon="5.892226">
        <ele>303.477113</ele>
        <time>2021-07-04T00:42:39.594Z</time>
      </trkpt>
      <trkpt lat="45.554561" lon="5.891846">
        <ele>304.009690</ele>
        <time>2021-07-04T00:42:51.610Z</time>
      </trkpt>
      <trkpt lat="45.554430" lon="5.891773">
        <ele>304.100280</ele>
        <time>2021-07-04T00:42:55.399Z</time>
      </trkpt>
      <trkpt lat="45.554256" lon="5.891671">
        <ele>304.221451</ele>
        <time>2021-07-04T00:42:59.487Z</time>
      </trkpt>
      <trkpt lat="45.554206" lon="5.891633">
        <ele>304.257939</ele>
        <time>2021-07-04T00:43:00.864Z</time>
      </trkpt>
      <trkpt lat="45.554168" lon="5.891613">
        <ele>304.284029</ele>
        <time>2021-07-04T00:43:01.919Z</time>
      </trkpt>
      <trkpt lat="45.554143" lon="5.891553">
        <ele>304.315524</ele>
        <time>2021-07-04T00:43:03.315Z</time>
      </trkpt>
      <trkpt lat="45.554104" lon="5.891511">
        <ele>304.346992</ele>
        <time>2021-07-04T00:43:04.628Z</time>
      </trkpt>
      <trkpt lat="45.554052" lon="5.891493">
        <ele>304.381461</ele>
        <time>2021-07-04T00:43:05.697Z</time>
      </trkpt>
      <trkpt lat="45.554000" lon="5.891506">
        <ele>304.415470</ele>
        <time>2021-07-04T00:43:06.946Z</time>
      </trkpt>
      <trkpt lat="45.553956" lon="5.891548">
        <ele>304.449565</ele>
        <time>2021-07-04T00:43:08.001Z</time>
      </trkpt>
      <trkpt lat="45.553854" lon="5.891527">
        <ele>304.515954</ele>
        <time>2021-07-04T00:43:10.547Z</time>
      </trkpt>
      <trkpt lat="45.553721" lon="5.891489">
        <ele>304.603333</ele>
        <time>2021-07-04T00:43:13.962Z</time>
      </trkpt>
      <trkpt lat="45.553425" lon="5.891373">
        <ele>304.801072</ele>
        <time>2021-07-04T00:43:21.281Z</time>
      </trkpt>
      <trkpt lat="45.553237" lon="5.891300">
        <ele>304.926582</ele>
        <time>2021-07-04T00:43:25.452Z</time>
      </trkpt>
      <trkpt lat="45.552930" lon="5.891178">
        <ele>305.723536</ele>
        <time>2021-07-04T00:43:34.185Z</time>
      </trkpt>
      <trkpt lat="45.551720" lon="5.890712">
        <ele>309.763560</ele>
        <time>2021-07-04T00:44:18.805Z</time>
      </trkpt>
      <trkpt lat="45.551535" lon="5.890634">
        <ele>310.385393</ele>
        <time>2021-07-04T00:44:27.257Z</time>
      </trkpt>
      <trkpt lat="45.551296" lon="5.890547">
        <ele>311.351720</ele>
        <time>2021-07-04T00:44:37.618Z</time>
      </trkpt>
      <trkpt lat="45.551204" lon="5.890514">
        <ele>311.789031</ele>
        <time>2021-07-04T00:44:41.487Z</time>
      </trkpt>
      <trkpt lat="45.551116" lon="5.890477">
        <ele>312.211945</ele>
        <time>2021-07-04T00:44:45.957Z</time>
      </trkpt>
      <trkpt lat="45.550924" lon="5.890262">
        <ele>313.336787</ele>
        <time>2021-07-04T00:44:55.485Z</time>
      </trkpt>
      <trkpt lat="45.550789" lon="5.890218">
        <ele>313.975164</ele>
        <time>2021-07-04T00:45:01.513Z</time>
      </trkpt>
      <trkpt lat="45.550592" lon="5.890196">
        <ele>314.886140</ele>
        <time>2021-07-04T00:45:09.239Z</time>
      </trkpt>
      <trkpt lat="45.550519" lon="5.890188">
        <ele>315.223671</ele>
        <time>2021-07-04T00:45:12.245Z</time>
      </trkpt>
      <trkpt lat="45.550396" lon="5.890145">
        <ele>315.807467</ele>
        <time>2021-07-04T00:45:17.426Z</time>
      </trkpt>
      <trkpt lat="45.550141" lon="5.890050">
        <ele>317.022408</ele>
        <time>2021-07-04T00:45:28.313Z</time>
      </trkpt>
      <trkpt lat="45.550080" lon="5.890025">
        <ele>317.314981</ele>
        <time>2021-07-04T00:45:31.044Z</time>
      </trkpt>
      <trkpt lat="45.549739" lon="5.889886">
        <ele>318.949843</ele>
        <time>2021-07-04T00:45:45.447Z</time>
      </trkpt>
      <trkpt lat="45.549014" lon="5.889595">
        <ele>322.065188</ele>
        <time>2021-07-04T00:46:14.869Z</time>
      </trkpt>
      <trkpt lat="45.548956" lon="5.889553">
        <ele>322.333059</ele>
        <time>2021-07-04T00:46:17.086Z</time>
      </trkpt>
      <trkpt lat="45.548608" lon="5.889347">
        <ele>323.884793</ele>
        <time>2021-07-04T00:46:31.285Z</time>
      </trkpt>
      <trkpt lat="45.548570" lon="5.889324">
        <ele>324.054799</ele>
        <time>2021-07-04T00:46:32.798Z</time>
      </trkpt>
      <trkpt lat="45.548138" lon="5.889021">
        <ele>326.037322</ele>
        <time>2021-07-04T00:46:51.227Z</time>
      </trkpt>
      <trkpt lat="45.548037" lon="5.888942">
        <ele>326.510026</ele>
        <time>2021-07-04T00:46:55.839Z</time>
      </trkpt>
      <trkpt lat="45.547886" lon="5.888802">
        <ele>327.208631</ele>
        <time>2021-07-04T00:47:02.553Z</time>
      </trkpt>
      <trkpt lat="45.547767" lon="5.888661">
        <ele>327.808659</ele>
        <time>2021-07-04T00:47:09.020Z</time>
      </trkpt>
      <trkpt lat="45.547588" lon="5.888428">
        <ele>328.748521</ele>
        <time>2021-07-04T00:47:18.286Z</time>
      </trkpt>
      <trkpt lat="45.547521" lon="5.888342">
        <ele>329.098102</ele>
        <time>2021-07-04T00:47:22.292Z</time>
      </trkpt>
      <trkpt lat="45.547313" lon="5.888011">
        <ele>330.306610</ele>
        <time>2021-07-04T00:47:34.380Z</time>
      </trkpt>
      <trkpt lat="45.546636" lon="5.886536">
        <ele>334.539721</ele>
        <time>2021-07-04T00:48:19.427Z</time>
      </trkpt>
      <trkpt lat="45.546594" lon="5.886446">
        <ele>334.733172</ele>
        <time>2021-07-04T00:48:21.740Z</time>
      </trkpt>
      <trkpt lat="45.546540" lon="5.886335">
        <ele>334.974924</ele>
        <time>2021-07-04T00:48:24.553Z</time>
      </trkpt>
      <trkpt lat="45.546425" lon="5.886100">
        <ele>335.487727</ele>
        <time>2021-07-04T00:48:31.177Z</time>
      </trkpt>
      <trkpt lat="45.546227" lon="5.885694">
        <ele>336.372683</ele>
        <time>2021-07-04T00:48:42.007Z</time>
      </trkpt>
      <trkpt lat="45.546023" lon="5.885253">
        <ele>337.318059</ele>
        <time>2021-07-04T00:48:53.522Z</time>
      </trkpt>
      <trkpt lat="45.545958" lon="5.885109">
        <ele>337.624504</ele>
        <time>2021-07-04T00:48:57.040Z</time>
      </trkpt>
      <trkpt lat="45.545895" lon="5.884971">
        <ele>337.919164</ele>
        <time>2021-07-04T00:49:00.570Z</time>
      </trkpt>
      <trkpt lat="45.545547" lon="5.884233">
        <ele>339.168509</ele>
        <time>2021-07-04T00:49:19.597Z</time>
      </trkpt>
      <trkpt lat="45.544931" lon="5.882930">
        <ele>341.319034</ele>
        <time>2021-07-04T00:49:52.698Z</time>
      </trkpt>
      <trkpt lat="45.544828" lon="5.882601">
        <ele>341.757033</ele>
        <time>2021-07-04T00:50:00.165Z</time>
      </trkpt>
      <trkpt lat="45.544796" lon="5.882484">
        <ele>341.889877</ele>
        <time>2021-07-04T00:50:02.951Z</time>
      </trkpt>
      <trkpt lat="45.544754" lon="5.882342">
        <ele>342.052904</ele>
        <time>2021-07-04T00:50:06.422Z</time>
      </trkpt>
      <trkpt lat="45.544640" lon="5.882027">
        <ele>342.427911</ele>
        <time>2021-07-04T00:50:13.078Z</time>
      </trkpt>
      <trkpt lat="45.544017" lon="5.880618">
        <ele>344.190263</ele>
        <time>2021-07-04T00:50:44.806Z</time>
      </trkpt>
      <trkpt lat="45.543699" lon="5.879897">
        <ele>346.038645</ele>
        <time>2021-07-04T00:51:02.345Z</time>
      </trkpt>
      <trkpt lat="45.543554" lon="5.879574">
        <ele>346.921536</ele>
        <time>2021-07-04T00:51:11.785Z</time>
      </trkpt>
      <trkpt lat="45.543304" lon="5.879170">
        <ele>348.162156</ele>
        <time>2021-07-04T00:51:25.659Z</time>
      </trkpt>
      <trkpt lat="45.543193" lon="5.879074">
        <ele>348.588570</ele>
        <time>2021-07-04T00:51:30.560Z</time>
      </trkpt>
      <trkpt lat="45.542860" lon="5.878858">
        <ele>349.790356</ele>
        <time>2021-07-04T00:51:44.350Z</time>
      </trkpt>
      <trkpt lat="45.542635" lon="5.878663">
        <ele>350.979089</ele>
        <time>2021-07-04T00:51:55.186Z</time>
      </trkpt>
      <trkpt lat="45.542440" lon="5.878456">
        <ele>352.340453</ele>
        <time>2021-07-04T00:52:06.711Z</time>
      </trkpt>
      <trkpt lat="45.542105" lon="5.878091">
        <ele>354.701368</ele>
        <time>2021-07-04T00:52:26.431Z</time>
      </trkpt>
      <trkpt lat="45.541793" lon="5.877628">
        <ele>357.222530</ele>
        <time>2021-07-04T00:52:48.312Z</time>
      </trkpt>
      <trkpt lat="45.541540" lon="5.877093">
        <ele>359.755585</ele>
        <time>2021-07-04T00:53:09.457Z</time>
      </trkpt>
      <trkpt lat="45.540918" lon="5.875771">
        <ele>363.873149</ele>
        <time>2021-07-04T00:53:52.120Z</time>
      </trkpt>
      <trkpt lat="45.540744" lon="5.875250">
        <ele>365.295753</ele>
        <time>2021-07-04T00:54:04.651Z</time>
      </trkpt>
      <trkpt lat="45.540688" lon="5.874188">
        <ele>367.672765</ele>
        <time>2021-07-04T00:54:28.938Z</time>
      </trkpt>
      <trkpt lat="45.540561" lon="5.873733">
        <ele>368.653003</ele>
        <time>2021-07-04T00:54:40.520Z</time>
      </trkpt>
      <trkpt lat="45.540430" lon="5.873461">
        <ele>369.313634</ele>
        <time>2021-07-04T00:54:47.600Z</time>
      </trkpt>
      <trkpt lat="45.539869" lon="5.872270">
        <ele>372.297037</ele>
        <time>2021-07-04T00:55:22.389Z</time>
      </trkpt>
      <trkpt lat="45.539535" lon="5.871571">
        <ele>374.413182</ele>
        <time>2021-07-04T00:55:44.688Z</time>
      </trkpt>
      <trkpt lat="45.538191" lon="5.869280">
        <ele>381.638828</ele>
        <time>2021-07-04T00:57:01.398Z</time>
      </trkpt>
      <trkpt lat="45.537725" lon="5.868491">
        <ele>384.047967</ele>
        <time>2021-07-04T00:57:26.386Z</time>
      </trkpt>
      <trkpt lat="45.537570" lon="5.868247">
        <ele>384.675615</ele>
        <time>2021-07-04T00:57:34.260Z</time>
      </trkpt>
      <trkpt lat="45.537121" lon="5.867730">
        <ele>386.185857</ele>
        <time>2021-07-04T00:57:53.379Z</time>
      </trkpt>
      <trkpt lat="45.535907" lon="5.866612">
        <ele>390.023678</ele>
        <time>2021-07-04T00:58:39.748Z</time>
      </trkpt>
      <trkpt lat="45.535600" lon="5.866333">
        <ele>391.024490</ele>
        <time>2021-07-04T00:58:50.988Z</time>
      </trkpt>
      <trkpt lat="45.535192" lon="5.865967">
        <ele>392.349631</ele>
        <time>2021-07-04T00:59:05.941Z</time>
      </trkpt>
      <trkpt lat="45.534876" lon="5.865738">
        <ele>393.324199</ele>
        <time>2021-07-04T00:59:17.865Z</time>
      </trkpt>
      <trkpt lat="45.534356" lon="5.865521">
        <ele>395.614030</ele>
        <time>2021-07-04T00:59:39.461Z</time>
      </trkpt>
      <trkpt lat="45.533986" lon="5.865173">
        <ele>397.806629</ele>
        <time>2021-07-04T00:59:56.538Z</time>
      </trkpt>
      <trkpt lat="45.533763" lon="5.864863">
        <ele>399.346905</ele>
        <time>2021-07-04T01:00:09.461Z</time>
      </trkpt>
      <trkpt lat="45.533641" lon="5.864692">
        <ele>400.192970</ele>
        <time>2021-07-04T01:00:17.525Z</time>
      </trkpt>
      <trkpt lat="45.533590" lon="5.864629">
        <ele>400.526711</ele>
        <time>2021-07-04T01:00:20.364Z</time>
      </trkpt>
      <trkpt lat="45.533559" lon="5.864602">
        <ele>400.706411</ele>
        <time>2021-07-04T01:00:22.436Z</time>
      </trkpt>
      <trkpt lat="45.533415" lon="5.864536">
        <ele>401.454821</ele>
        <time>2021-07-04T01:00:27.887Z</time>
      </trkpt>
      <trkpt lat="45.533361" lon="5.864517">
        <ele>401.730036</ele>
        <time>2021-07-04T01:00:30.820Z</time>
      </trkpt>
      <trkpt lat="45.533300" lon="5.864492">
        <ele>402.044088</ele>
        <time>2021-07-04T01:00:34.140Z</time>
      </trkpt>
      <trkpt lat="45.533181" lon="5.864398">
        <ele>402.718476</ele>
        <time>2021-07-04T01:00:39.904Z</time>
      </trkpt>
      <trkpt lat="45.532815" lon="5.863562">
        <ele>407.644855</ele>
        <time>2021-07-04T01:01:15.820Z</time>
      </trkpt>
      <trkpt lat="45.532672" lon="5.863295">
        <ele>409.324386</ele>
        <time>2021-07-04T01:01:27.973Z</time>
      </trkpt>
      <trkpt lat="45.532600" lon="5.863167">
        <ele>410.144717</ele>
        <time>2021-07-04T01:01:34.435Z</time>
      </trkpt>
      <trkpt lat="45.532232" lon="5.862778">
        <ele>413.411271</ele>
        <time>2021-07-04T01:01:57.371Z</time>
      </trkpt>
      <trkpt lat="45.532138" lon="5.862702">
        <ele>414.181916</ele>
        <time>2021-07-04T01:02:02.789Z</time>
      </trkpt>
      <trkpt lat="45.531942" lon="5.862551">
        <ele>415.759684</ele>
        <time>2021-07-04T01:02:14.494Z</time>
      </trkpt>
      <trkpt lat="45.531624" lon="5.862371">
        <ele>418.080585</ele>
        <time>2021-07-04T01:02:32.624Z</time>
      </trkpt>
      <trkpt lat="45.531039" lon="5.862184">
        <ele>422.147834</ele>
        <time>2021-07-04T01:03:03.834Z</time>
      </trkpt>
      <trkpt lat="45.530793" lon="5.862087">
        <ele>423.879332</ele>
        <time>2021-07-04T01:03:17.062Z</time>
      </trkpt>
      <trkpt lat="45.529993" lon="5.861769">
        <ele>428.710309</ele>
        <time>2021-07-04T01:03:54.863Z</time>
      </trkpt>
      <trkpt lat="45.529262" lon="5.861173">
        <ele>431.823662</ele>
        <time>2021-07-04T01:04:27.000Z</time>
      </trkpt>
      <trkpt lat="45.529123" lon="5.861041">
        <ele>432.441090</ele>
        <time>2021-07-04T01:04:32.728Z</time>
      </trkpt>
      <trkpt lat="45.528641" lon="5.860512">
        <ele>434.610783</ele>
        <time>2021-07-04T01:04:50.854Z</time>
      </trkpt>
      <trkpt lat="45.527748" lon="5.859370">
        <ele>437.838501</ele>
        <time>2021-07-04T01:05:28.635Z</time>
      </trkpt>
      <trkpt lat="45.527560" lon="5.859065">
        <ele>438.604684</ele>
        <time>2021-07-04T01:05:38.545Z</time>
      </trkpt>
      <trkpt lat="45.527287" lon="5.858372">
        <ele>440.585512</ele>
        <time>2021-07-04T01:05:59.568Z</time>
      </trkpt>
      <trkpt lat="45.527113" lon="5.858084">
        <ele>441.703194</ele>
        <time>2021-07-04T01:06:09.868Z</time>
      </trkpt>
      <trkpt lat="45.526929" lon="5.857902">
        <ele>442.642295</ele>
        <time>2021-07-04T01:06:18.708Z</time>
      </trkpt>
      <trkpt lat="45.526420" lon="5.857616">
        <ele>444.937048</ele>
        <time>2021-07-04T01:06:40.690Z</time>
      </trkpt>
      <trkpt lat="45.526134" lon="5.857381">
        <ele>446.321418</ele>
        <time>2021-07-04T01:06:53.822Z</time>
      </trkpt>
      <trkpt lat="45.524656" lon="5.855365">
        <ele>455.937852</ele>
        <time>2021-07-04T01:08:16.017Z</time>
      </trkpt>
      <trkpt lat="45.524501" lon="5.855275">
        <ele>456.969618</ele>
        <time>2021-07-04T01:08:23.548Z</time>
      </trkpt>
      <trkpt lat="45.523376" lon="5.855002">
        <ele>464.005778</ele>
        <time>2021-07-04T01:09:18.774Z</time>
      </trkpt>
      <trkpt lat="45.523035" lon="5.855057">
        <ele>466.121727</ele>
        <time>2021-07-04T01:09:35.834Z</time>
      </trkpt>
      <trkpt lat="45.522545" lon="5.855288">
        <ele>468.180481</ele>
        <time>2021-07-04T01:10:01.064Z</time>
      </trkpt>
      <trkpt lat="45.522252" lon="5.855248">
        <ele>469.339058</ele>
        <time>2021-07-04T01:10:13.512Z</time>
      </trkpt>
      <trkpt lat="45.521780" lon="5.855140">
        <ele>471.220679</ele>
        <time>2021-07-04T01:10:30.835Z</time>
      </trkpt>
      <trkpt lat="45.521100" lon="5.854882">
        <ele>473.423040</ele>
        <time>2021-07-04T01:10:50.141Z</time>
      </trkpt>
      <trkpt lat="45.520956" lon="5.854775">
        <ele>473.553388</ele>
        <time>2021-07-04T01:10:54.000Z</time>
      </trkpt>
      <trkpt lat="45.520708" lon="5.854540">
        <ele>473.792397</ele>
        <time>2021-07-04T01:11:01.272Z</time>
      </trkpt>
      <trkpt lat="45.520517" lon="5.854382">
        <ele>473.969648</ele>
        <time>2021-07-04T01:11:07.076Z</time>
      </trkpt>
      <trkpt lat="45.520305" lon="5.854232">
        <ele>474.159631</ele>
        <time>2021-07-04T01:11:12.126Z</time>
      </trkpt>
      <trkpt lat="45.520174" lon="5.854161">
        <ele>474.272140</ele>
        <time>2021-07-04T01:11:15.722Z</time>
      </trkpt>
      <trkpt lat="45.520003" lon="5.854087">
        <ele>474.415608</ele>
        <time>2021-07-04T01:11:20.085Z</time>
      </trkpt>
      <trkpt lat="45.519921" lon="5.854053">
        <ele>474.484168</ele>
        <time>2021-07-04T01:11:22.295Z</time>
      </trkpt>
      <trkpt lat="45.519737" lon="5.853977">
        <ele>474.637964</ele>
        <time>2021-07-04T01:11:26.662Z</time>
      </trkpt>
      <trkpt lat="45.519552" lon="5.853900">
        <ele>474.897919</ele>
        <time>2021-07-04T01:11:31.719Z</time>
      </trkpt>
      <trkpt lat="45.518814" lon="5.853592">
        <ele>476.431995</ele>
        <time>2021-07-04T01:11:53.770Z</time>
      </trkpt>
      <trkpt lat="45.518609" lon="5.853505">
        <ele>476.858698</ele>
        <time>2021-07-04T01:12:01.286Z</time>
      </trkpt>
      <trkpt lat="45.518551" lon="5.853481">
        <ele>476.979182</ele>
        <time>2021-07-04T01:12:03.310Z</time>
      </trkpt>
      <trkpt lat="45.517586" lon="5.853102">
        <ele>478.856219</ele>
        <time>2021-07-04T01:12:36.112Z</time>
      </trkpt>
      <trkpt lat="45.514122" lon="5.851699">
        <ele>484.019616</ele>
        <time>2021-07-04T01:14:15.291Z</time>
      </trkpt>
      <trkpt lat="45.513599" lon="5.851489">
        <ele>484.646705</ele>
        <time>2021-07-04T01:14:29.810Z</time>
      </trkpt>
      <trkpt lat="45.513439" lon="5.851416">
        <ele>484.840587</ele>
        <time>2021-07-04T01:14:34.265Z</time>
      </trkpt>
      <trkpt lat="45.511567" lon="5.850628">
        <ele>487.097266</ele>
        <time>2021-07-04T01:15:26.216Z</time>
      </trkpt>
      <trkpt lat="45.511041" lon="5.850424">
        <ele>487.728199</ele>
        <time>2021-07-04T01:15:41.018Z</time>
      </trkpt>
      <trkpt lat="45.510413" lon="5.850254">
        <ele>488.373017</ele>
        <time>2021-07-04T01:15:58.578Z</time>
      </trkpt>
      <trkpt lat="45.508920" lon="5.849931">
        <ele>489.810180</ele>
        <time>2021-07-04T01:16:37.495Z</time>
      </trkpt>
      <trkpt lat="45.508639" lon="5.849796">
        <ele>490.039569</ele>
        <time>2021-07-04T01:16:44.244Z</time>
      </trkpt>
      <trkpt lat="45.506808" lon="5.848900">
        <ele>492.373725</ele>
        <time>2021-07-04T01:17:33.881Z</time>
      </trkpt>
      <trkpt lat="45.504908" lon="5.847981">
        <ele>495.996518</ele>
        <time>2021-07-04T01:18:39.606Z</time>
      </trkpt>
      <trkpt lat="45.504556" lon="5.847779">
        <ele>496.634055</ele>
        <time>2021-07-04T01:18:50.050Z</time>
      </trkpt>
      <trkpt lat="45.504526" lon="5.847759">
        <ele>496.689697</ele>
        <time>2021-07-04T01:18:50.964Z</time>
      </trkpt>
      <trkpt lat="45.504288" lon="5.847537">
        <ele>497.167502</ele>
        <time>2021-07-04T01:18:58.273Z</time>
      </trkpt>
      <trkpt lat="45.504024" lon="5.847265">
        <ele>497.470867</ele>
        <time>2021-07-04T01:19:05.794Z</time>
      </trkpt>
      <trkpt lat="45.503952" lon="5.847186">
        <ele>497.488091</ele>
        <time>2021-07-04T01:19:07.568Z</time>
      </trkpt>
      <trkpt lat="45.503824" lon="5.847103">
        <ele>497.514754</ele>
        <time>2021-07-04T01:19:10.516Z</time>
      </trkpt>
      <trkpt lat="45.503611" lon="5.846833">
        <ele>497.568786</ele>
        <time>2021-07-04T01:19:16.384Z</time>
      </trkpt>
      <trkpt lat="45.503483" lon="5.846675">
        <ele>497.600882</ele>
        <time>2021-07-04T01:19:20.131Z</time>
      </trkpt>
      <trkpt lat="45.503459" lon="5.846645">
        <ele>497.606933</ele>
        <time>2021-07-04T01:19:20.845Z</time>
      </trkpt>
      <trkpt lat="45.503431" lon="5.846569">
        <ele>497.618345</ele>
        <time>2021-07-04T01:19:21.925Z</time>
      </trkpt>
      <trkpt lat="45.503149" lon="5.846193">
        <ele>497.691539</ele>
        <time>2021-07-04T01:19:30.282Z</time>
      </trkpt>
      <trkpt lat="45.503103" lon="5.846167">
        <ele>497.700922</ele>
        <time>2021-07-04T01:19:31.234Z</time>
      </trkpt>
      <trkpt lat="45.502937" lon="5.845941">
        <ele>497.744434</ele>
        <time>2021-07-04T01:19:37.254Z</time>
      </trkpt>
      <trkpt lat="45.502703" lon="5.845623">
        <ele>498.082199</ele>
        <time>2021-07-04T01:19:45.468Z</time>
      </trkpt>
      <trkpt lat="45.502548" lon="5.845412">
        <ele>498.576207</ele>
        <time>2021-07-04T01:19:51.144Z</time>
      </trkpt>
      <trkpt lat="45.502426" lon="5.845247">
        <ele>498.963840</ele>
        <time>2021-07-04T01:19:56.246Z</time>
      </trkpt>
      <trkpt lat="45.502384" lon="5.845191">
        <ele>499.096398</ele>
        <time>2021-07-04T01:19:57.851Z</time>
      </trkpt>
      <trkpt lat="45.502299" lon="5.845077">
        <ele>499.365406</ele>
        <time>2021-07-04T01:20:01.160Z</time>
      </trkpt>
      <trkpt lat="45.502203" lon="5.844953">
        <ele>499.664018</ele>
        <time>2021-07-04T01:20:05.377Z</time>
      </trkpt>
      <trkpt lat="45.502139" lon="5.844870">
        <ele>499.863456</ele>
        <time>2021-07-04T01:20:08.198Z</time>
      </trkpt>
      <trkpt lat="45.502126" lon="5.844852">
        <ele>499.905229</ele>
        <time>2021-07-04T01:20:08.833Z</time>
      </trkpt>
      <trkpt lat="45.502114" lon="5.844797">
        <ele>499.998327</ele>
        <time>2021-07-04T01:20:10.349Z</time>
      </trkpt>
      <trkpt lat="45.502022" lon="5.844673">
        <ele>500.290168</ele>
        <time>2021-07-04T01:20:14.133Z</time>
      </trkpt>
      <trkpt lat="45.501973" lon="5.844653">
        <ele>500.407693</ele>
        <time>2021-07-04T01:20:16.059Z</time>
      </trkpt>
      <trkpt lat="45.501768" lon="5.844381">
        <ele>501.053234</ele>
        <time>2021-07-04T01:20:25.982Z</time>
      </trkpt>
      <trkpt lat="45.501456" lon="5.844010">
        <ele>501.976767</ele>
        <time>2021-07-04T01:20:40.575Z</time>
      </trkpt>
      <trkpt lat="45.501272" lon="5.843844">
        <ele>502.371947</ele>
        <time>2021-07-04T01:20:48.629Z</time>
      </trkpt>
      <trkpt lat="45.501189" lon="5.843777">
        <ele>502.545056</ele>
        <time>2021-07-04T01:20:51.842Z</time>
      </trkpt>
      <trkpt lat="45.501054" lon="5.843664">
        <ele>502.829176</ele>
        <time>2021-07-04T01:20:57.365Z</time>
      </trkpt>
      <trkpt lat="45.500668" lon="5.843339">
        <ele>503.642778</ele>
        <time>2021-07-04T01:21:12.031Z</time>
      </trkpt>
      <trkpt lat="45.500601" lon="5.843282">
        <ele>503.784381</ele>
        <time>2021-07-04T01:21:14.281Z</time>
      </trkpt>
      <trkpt lat="45.500476" lon="5.843141">
        <ele>504.073639</ele>
        <time>2021-07-04T01:21:18.715Z</time>
      </trkpt>
      <trkpt lat="45.500309" lon="5.842998">
        <ele>504.427194</ele>
        <time>2021-07-04T01:21:23.482Z</time>
      </trkpt>
      <trkpt lat="45.500262" lon="5.842959">
        <ele>504.525892</ele>
        <time>2021-07-04T01:21:24.904Z</time>
      </trkpt>
      <trkpt lat="45.500225" lon="5.842926">
        <ele>504.605100</ele>
        <time>2021-07-04T01:21:25.944Z</time>
      </trkpt>
      <trkpt lat="45.500188" lon="5.842893">
        <ele>504.684309</ele>
        <time>2021-07-04T01:21:27.025Z</time>
      </trkpt>
      <trkpt lat="45.500069" lon="5.842786">
        <ele>504.939645</ele>
        <time>2021-07-04T01:21:30.247Z</time>
      </trkpt>
      <trkpt lat="45.499801" lon="5.842473">
        <ele>505.066628</ele>
        <time>2021-07-04T01:21:37.796Z</time>
      </trkpt>
      <trkpt lat="45.499680" lon="5.842303">
        <ele>504.962248</ele>
        <time>2021-07-04T01:21:41.581Z</time>
      </trkpt>
      <trkpt lat="45.499630" lon="5.842161">
        <ele>504.893786</ele>
        <time>2021-07-04T01:21:43.773Z</time>
      </trkpt>
      <trkpt lat="45.499593" lon="5.842038">
        <ele>504.836121</ele>
        <time>2021-07-04T01:21:45.548Z</time>
      </trkpt>
      <trkpt lat="45.499564" lon="5.841911">
        <ele>504.778577</ele>
        <time>2021-07-04T01:21:47.462Z</time>
      </trkpt>
      <trkpt lat="45.499497" lon="5.841472">
        <ele>504.585015</ele>
        <time>2021-07-04T01:21:53.422Z</time>
      </trkpt>
      <trkpt lat="45.499420" lon="5.841073">
        <ele>504.406722</ele>
        <time>2021-07-04T01:21:58.915Z</time>
      </trkpt>
      <trkpt lat="45.499372" lon="5.840910">
        <ele>504.330552</ele>
        <time>2021-07-04T01:22:01.312Z</time>
      </trkpt>
      <trkpt lat="45.499316" lon="5.840762">
        <ele>504.258093</ele>
        <time>2021-07-04T01:22:03.537Z</time>
      </trkpt>
      <trkpt lat="45.499242" lon="5.840614">
        <ele>504.179771</ele>
        <time>2021-07-04T01:22:05.903Z</time>
      </trkpt>
      <trkpt lat="45.499106" lon="5.840412">
        <ele>504.122706</ele>
        <time>2021-07-04T01:22:09.973Z</time>
      </trkpt>
      <trkpt lat="45.498317" lon="5.839613">
        <ele>504.836981</ele>
        <time>2021-07-04T01:22:32.224Z</time>
      </trkpt>
      <trkpt lat="45.498126" lon="5.839498">
        <ele>504.990024</ele>
        <time>2021-07-04T01:22:37.948Z</time>
      </trkpt>
      <trkpt lat="45.497858" lon="5.839387">
        <ele>505.196038</ele>
        <time>2021-07-04T01:22:45.877Z</time>
      </trkpt>
      <trkpt lat="45.497868" lon="5.839339">
        <ele>505.221949</ele>
        <time>2021-07-04T01:22:47.279Z</time>
      </trkpt>
      <trkpt lat="45.497878" lon="5.839288">
        <ele>505.249352</ele>
        <time>2021-07-04T01:22:48.232Z</time>
      </trkpt>
      <trkpt lat="45.497569" lon="5.839078">
        <ele>505.737458</ele>
        <time>2021-07-04T01:22:58.531Z</time>
      </trkpt>
      <trkpt lat="45.497338" lon="5.838997">
        <ele>506.392574</ele>
        <time>2021-07-04T01:23:05.548Z</time>
      </trkpt>
      <trkpt lat="45.497304" lon="5.838785">
        <ele>506.812398</ele>
        <time>2021-07-04T01:23:10.485Z</time>
      </trkpt>
      <trkpt lat="45.497323" lon="5.838654">
        <ele>507.070641</ele>
        <time>2021-07-04T01:23:13.720Z</time>
      </trkpt>
      <trkpt lat="45.497366" lon="5.838513">
        <ele>507.367476</ele>
        <time>2021-07-04T01:23:16.800Z</time>
      </trkpt>
      <trkpt lat="45.497524" lon="5.838211">
        <ele>508.094949</ele>
        <time>2021-07-04T01:23:25.731Z</time>
      </trkpt>
      <trkpt lat="45.497556" lon="5.838024">
        <ele>508.466538</ele>
        <time>2021-07-04T01:23:29.774Z</time>
      </trkpt>
      <trkpt lat="45.497479" lon="5.837860">
        <ele>508.847586</ele>
        <time>2021-07-04T01:23:34.589Z</time>
      </trkpt>
      <trkpt lat="45.497167" lon="5.837466">
        <ele>509.995112</ele>
        <time>2021-07-04T01:23:49.592Z</time>
      </trkpt>
      <trkpt lat="45.497096" lon="5.837309">
        <ele>510.355792</ele>
        <time>2021-07-04T01:23:54.258Z</time>
      </trkpt>
      <trkpt lat="45.497097" lon="5.836943">
        <ele>511.578479</ele>
        <time>2021-07-04T01:24:04.531Z</time>
      </trkpt>
      <trkpt lat="45.497190" lon="5.836637">
        <ele>512.701858</ele>
        <time>2021-07-04T01:24:13.112Z</time>
      </trkpt>
      <trkpt lat="45.497101" lon="5.836028">
        <ele>514.797196</ele>
        <time>2021-07-04T01:24:31.036Z</time>
      </trkpt>
      <trkpt lat="45.497154" lon="5.835606">
        <ele>516.241209</ele>
        <time>2021-07-04T01:24:43.378Z</time>
      </trkpt>
      <trkpt lat="45.497043" lon="5.835554">
        <ele>516.802609</ele>
        <time>2021-07-04T01:24:48.731Z</time>
      </trkpt>
      <trkpt lat="45.496454" lon="5.835334">
        <ele>520.129106</ele>
        <time>2021-07-04T01:25:14.499Z</time>
      </trkpt>
      <trkpt lat="45.496074" lon="5.835098">
        <ele>523.235370</ele>
        <time>2021-07-04T01:25:36.634Z</time>
      </trkpt>
      <trkpt lat="45.495703" lon="5.834699">
        <ele>526.717621</ele>
        <time>2021-07-04T01:26:02.679Z</time>
      </trkpt>
      <trkpt lat="45.495372" lon="5.834122">
        <ele>530.634749</ele>
        <time>2021-07-04T01:26:29.305Z</time>
      </trkpt>
      <trkpt lat="45.495315" lon="5.833975">
        <ele>531.517334</ele>
        <time>2021-07-04T01:26:37.354Z</time>
      </trkpt>
      <trkpt lat="45.495285" lon="5.833914">
        <ele>531.908823</ele>
        <time>2021-07-04T01:26:41.548Z</time>
      </trkpt>
      <trkpt lat="45.494670" lon="5.832831">
        <ele>538.774020</ele>
        <time>2021-07-04T01:27:31.171Z</time>
      </trkpt>
      <trkpt lat="45.494643" lon="5.832788">
        <ele>539.056727</ele>
        <time>2021-07-04T01:27:35.198Z</time>
      </trkpt>
      <trkpt lat="45.494488" lon="5.832549">
        <ele>540.651240</ele>
        <time>2021-07-04T01:27:46.094Z</time>
      </trkpt>
      <trkpt lat="45.494042" lon="5.832117">
        <ele>544.417429</ele>
        <time>2021-07-04T01:28:13.002Z</time>
      </trkpt>
      <trkpt lat="45.492717" lon="5.831849">
        <ele>550.689303</ele>
        <time>2021-07-04T01:29:04.398Z</time>
      </trkpt>
      <trkpt lat="45.492508" lon="5.831694">
        <ele>551.753379</ele>
        <time>2021-07-04T01:29:13.042Z</time>
      </trkpt>
      <trkpt lat="45.491402" lon="5.831181">
        <ele>558.526786</ele>
        <time>2021-07-04T01:30:02.066Z</time>
      </trkpt>
      <trkpt lat="45.490543" lon="5.831291">
        <ele>563.971428</ele>
        <time>2021-07-04T01:30:46.123Z</time>
      </trkpt>
      <trkpt lat="45.489962" lon="5.830792">
        <ele>569.749620</ele>
        <time>2021-07-04T01:31:24.780Z</time>
      </trkpt>
      <trkpt lat="45.489199" lon="5.830245">
        <ele>577.313013</ele>
        <time>2021-07-04T01:32:15.713Z</time>
      </trkpt>
      <trkpt lat="45.488747" lon="5.830184">
        <ele>581.344061</ele>
        <time>2021-07-04T01:32:42.417Z</time>
      </trkpt>
      <trkpt lat="45.488704" lon="5.830073">
        <ele>582.140423</ele>
        <time>2021-07-04T01:32:47.683Z</time>
      </trkpt>
      <trkpt lat="45.488725" lon="5.830006">
        <ele>582.601284</ele>
        <time>2021-07-04T01:32:50.630Z</time>
      </trkpt>
      <trkpt lat="45.489155" lon="5.829760">
        <ele>586.751137</ele>
        <time>2021-07-04T01:33:16.802Z</time>
      </trkpt>
      <trkpt lat="45.489200" lon="5.829655">
        <ele>587.523925</ele>
        <time>2021-07-04T01:33:21.475Z</time>
      </trkpt>
      <trkpt lat="45.489163" lon="5.829532">
        <ele>588.364399</ele>
        <time>2021-07-04T01:33:26.700Z</time>
      </trkpt>
      <trkpt lat="45.488225" lon="5.829545">
        <ele>596.770127</ele>
        <time>2021-07-04T01:34:22.714Z</time>
      </trkpt>
      <trkpt lat="45.487610" lon="5.829322">
        <ele>602.557926</ele>
        <time>2021-07-04T01:34:58.381Z</time>
      </trkpt>
      <trkpt lat="45.487551" lon="5.829244">
        <ele>603.291653</ele>
        <time>2021-07-04T01:35:03.634Z</time>
      </trkpt>
      <trkpt lat="45.487473" lon="5.829140">
        <ele>604.265505</ele>
        <time>2021-07-04T01:35:10.403Z</time>
      </trkpt>
      <trkpt lat="45.487329" lon="5.829009">
        <ele>605.823310</ele>
        <time>2021-07-04T01:35:21.030Z</time>
      </trkpt>
      <trkpt lat="45.486653" lon="5.828711">
        <ele>612.276827</ele>
        <time>2021-07-04T01:36:03.406Z</time>
      </trkpt>
      <trkpt lat="45.486527" lon="5.828606">
        <ele>613.360340</ele>
        <time>2021-07-04T01:36:12.298Z</time>
      </trkpt>
      <trkpt lat="45.486252" lon="5.827968">
        <ele>616.245338</ele>
        <time>2021-07-04T01:36:39.488Z</time>
      </trkpt>
      <trkpt lat="45.486205" lon="5.827898">
        <ele>616.618702</ele>
        <time>2021-07-04T01:36:44.863Z</time>
      </trkpt>
      <trkpt lat="45.485408" lon="5.827421">
        <ele>621.367752</ele>
        <time>2021-07-04T01:37:18.236Z</time>
      </trkpt>
      <trkpt lat="45.485218" lon="5.827327">
        <ele>622.472737</ele>
        <time>2021-07-04T01:37:26.100Z</time>
      </trkpt>
      <trkpt lat="45.484676" lon="5.827340">
        <ele>623.425927</ele>
        <time>2021-07-04T01:37:42.567Z</time>
      </trkpt>
      <trkpt lat="45.483501" lon="5.827102">
        <ele>624.834074</ele>
        <time>2021-07-04T01:38:10.329Z</time>
      </trkpt>
      <trkpt lat="45.483072" lon="5.826949">
        <ele>625.505748</ele>
        <time>2021-07-04T01:38:21.864Z</time>
      </trkpt>
      <trkpt lat="45.482170" lon="5.826418">
        <ele>627.140923</ele>
        <time>2021-07-04T01:38:50.324Z</time>
      </trkpt>
      <trkpt lat="45.481030" lon="5.825642">
        <ele>629.285886</ele>
        <time>2021-07-04T01:39:30.009Z</time>
      </trkpt>
      <trkpt lat="45.480197" lon="5.825264">
        <ele>630.784023</ele>
        <time>2021-07-04T01:39:55.056Z</time>
      </trkpt>
      <trkpt lat="45.479781" lon="5.824891">
        <ele>631.151122</ele>
        <time>2021-07-04T01:40:07.854Z</time>
      </trkpt>
      <trkpt lat="45.478201" lon="5.824256">
        <ele>631.275046</ele>
        <time>2021-07-04T01:40:44.235Z</time>
      </trkpt>
      <trkpt lat="45.477453" lon="5.823778">
        <ele>630.569995</ele>
        <time>2021-07-04T01:41:00.600Z</time>
      </trkpt>
      <trkpt lat="45.476125" lon="5.823212">
        <ele>628.864354</ele>
        <time>2021-07-04T01:41:26.683Z</time>
      </trkpt>
      <trkpt lat="45.474808" lon="5.822094">
        <ele>626.257287</ele>
        <time>2021-07-04T01:41:53.582Z</time>
      </trkpt>
      <trkpt lat="45.474496" lon="5.821917">
        <ele>625.800182</ele>
        <time>2021-07-04T01:41:59.330Z</time>
      </trkpt>
      <trkpt lat="45.474310" lon="5.821890">
        <ele>625.545669</ele>
        <time>2021-07-04T01:42:02.560Z</time>
      </trkpt>
      <trkpt lat="45.474209" lon="5.821886">
        <ele>625.408123</ele>
        <time>2021-07-04T01:42:04.190Z</time>
      </trkpt>
      <trkpt lat="45.473728" lon="5.821894">
        <ele>624.753285</ele>
        <time>2021-07-04T01:42:13.100Z</time>
      </trkpt>
      <trkpt lat="45.473259" lon="5.821901">
        <ele>624.392942</ele>
        <time>2021-07-04T01:42:23.452Z</time>
      </trkpt>
      <trkpt lat="45.473118" lon="5.821971">
        <ele>624.810683</ele>
        <time>2021-07-04T01:42:26.659Z</time>
      </trkpt>
      <trkpt lat="45.472946" lon="5.822165">
        <ele>625.424275</ele>
        <time>2021-07-04T01:42:33.166Z</time>
      </trkpt>
      <trkpt lat="45.472904" lon="5.822213">
        <ele>625.574874</ele>
        <time>2021-07-04T01:42:34.194Z</time>
      </trkpt>
      <trkpt lat="45.472486" lon="5.821618">
        <ele>627.227386</ele>
        <time>2021-07-04T01:42:54.300Z</time>
      </trkpt>
      <trkpt lat="45.471491" lon="5.820210">
        <ele>631.979873</ele>
        <time>2021-07-04T01:43:51.446Z</time>
      </trkpt>
      <trkpt lat="45.470567" lon="5.818903">
        <ele>636.797591</ele>
        <time>2021-07-04T01:44:40.591Z</time>
      </trkpt>
      <trkpt lat="45.470461" lon="5.818754">
        <ele>637.069785</ele>
        <time>2021-07-04T01:44:45.601Z</time>
      </trkpt>
      <trkpt lat="45.470396" lon="5.818666">
        <ele>637.233694</ele>
        <time>2021-07-04T01:44:48.268Z</time>
      </trkpt>
      <trkpt lat="45.469951" lon="5.818022">
        <ele>638.393163</ele>
        <time>2021-07-04T01:45:06.647Z</time>
      </trkpt>
      <trkpt lat="45.469658" lon="5.817591">
        <ele>639.162987</ele>
        <time>2021-07-04T01:45:18.349Z</time>
      </trkpt>
      <trkpt lat="45.469491" lon="5.817358">
        <ele>639.590257</ele>
        <time>2021-07-04T01:45:24.571Z</time>
      </trkpt>
      <trkpt lat="45.469388" lon="5.817209">
        <ele>639.671508</ele>
        <time>2021-07-04T01:45:28.409Z</time>
      </trkpt>
      <trkpt lat="45.469135" lon="5.816869">
        <ele>639.241759</ele>
        <time>2021-07-04T01:45:36.290Z</time>
      </trkpt>
      <trkpt lat="45.468636" lon="5.816285">
        <ele>638.443764</ele>
        <time>2021-07-04T01:45:49.364Z</time>
      </trkpt>
      <trkpt lat="45.468441" lon="5.816098">
        <ele>638.153274</ele>
        <time>2021-07-04T01:45:53.643Z</time>
      </trkpt>
      <trkpt lat="45.468119" lon="5.815823">
        <ele>637.689302</ele>
        <time>2021-07-04T01:46:00.061Z</time>
      </trkpt>
      <trkpt lat="45.467594" lon="5.815507">
        <ele>635.051629</ele>
        <time>2021-07-04T01:46:09.182Z</time>
      </trkpt>
      <trkpt lat="45.464482" lon="5.813931">
        <ele>614.996172</ele>
        <time>2021-07-04T01:46:56.797Z</time>
      </trkpt>
      <trkpt lat="45.464089" lon="5.813646">
        <ele>613.215788</ele>
        <time>2021-07-04T01:47:03.349Z</time>
      </trkpt>
      <trkpt lat="45.462802" lon="5.812613">
        <ele>608.104974</ele>
        <time>2021-07-04T01:47:27.337Z</time>
      </trkpt>
      <trkpt lat="45.460280" lon="5.810795">
        <ele>607.088263</ele>
        <time>2021-07-04T01:48:29.050Z</time>
      </trkpt>
      <trkpt lat="45.460076" lon="5.810615">
        <ele>607.116509</ele>
        <time>2021-07-04T01:48:35.129Z</time>
      </trkpt>
      <trkpt lat="45.459811" lon="5.810269">
        <ele>607.098534</ele>
        <time>2021-07-04T01:48:44.472Z</time>
      </trkpt>
      <trkpt lat="45.459719" lon="5.810125">
        <ele>607.021167</ele>
        <time>2021-07-04T01:48:48.158Z</time>
      </trkpt>
      <trkpt lat="45.459385" lon="5.809512">
        <ele>606.712857</ele>
        <time>2021-07-04T01:48:59.564Z</time>
      </trkpt>
      <trkpt lat="45.458946" lon="5.808706">
        <ele>606.307529</ele>
        <time>2021-07-04T01:49:14.139Z</time>
      </trkpt>
      <trkpt lat="45.458824" lon="5.808466">
        <ele>606.189799</ele>
        <time>2021-07-04T01:49:18.139Z</time>
      </trkpt>
      <trkpt lat="45.458761" lon="5.808342">
        <ele>606.126183</ele>
        <time>2021-07-04T01:49:19.881Z</time>
      </trkpt>
      <trkpt lat="45.458684" lon="5.807992">
        <ele>605.538723</ele>
        <time>2021-07-04T01:49:24.696Z</time>
      </trkpt>
      <trkpt lat="45.458690" lon="5.807806">
        <ele>605.240523</ele>
        <time>2021-07-04T01:49:26.837Z</time>
      </trkpt>
      <trkpt lat="45.458896" lon="5.806705">
        <ele>603.415586</ele>
        <time>2021-07-04T01:49:40.460Z</time>
      </trkpt>
      <trkpt lat="45.458888" lon="5.806481">
        <ele>603.056380</ele>
        <time>2021-07-04T01:49:43.041Z</time>
      </trkpt>
      <trkpt lat="45.458854" lon="5.806261">
        <ele>602.695593</ele>
        <time>2021-07-04T01:49:45.621Z</time>
      </trkpt>
      <trkpt lat="45.458713" lon="5.805839">
        <ele>601.956674</ele>
        <time>2021-07-04T01:49:51.293Z</time>
      </trkpt>
      <trkpt lat="45.457989" lon="5.804382">
        <ele>599.460798</ele>
        <time>2021-07-04T01:50:13.705Z</time>
      </trkpt>
      <trkpt lat="45.457329" lon="5.803265">
        <ele>596.490476</ele>
        <time>2021-07-04T01:50:31.830Z</time>
      </trkpt>
      <trkpt lat="45.457186" lon="5.803028">
        <ele>595.655372</ele>
        <time>2021-07-04T01:50:35.387Z</time>
      </trkpt>
      <trkpt lat="45.457045" lon="5.802785">
        <ele>594.812927</ele>
        <time>2021-07-04T01:50:38.911Z</time>
      </trkpt>
      <trkpt lat="45.456799" lon="5.802421">
        <ele>593.462674</ele>
        <time>2021-07-04T01:50:44.340Z</time>
      </trkpt>
      <trkpt lat="45.456538" lon="5.802194">
        <ele>592.298329</ele>
        <time>2021-07-04T01:50:48.928Z</time>
      </trkpt>
      <trkpt lat="45.456166" lon="5.802103">
        <ele>590.680123</ele>
        <time>2021-07-04T01:50:54.505Z</time>
      </trkpt>
      <trkpt lat="45.455850" lon="5.802129">
        <ele>589.175331</ele>
        <time>2021-07-04T01:50:59.176Z</time>
      </trkpt>
      <trkpt lat="45.455541" lon="5.802166">
        <ele>587.701146</ele>
        <time>2021-07-04T01:51:03.818Z</time>
      </trkpt>
      <trkpt lat="45.454936" lon="5.802230">
        <ele>584.817016</ele>
        <time>2021-07-04T01:51:13.077Z</time>
      </trkpt>
      <trkpt lat="45.454719" lon="5.802236">
        <ele>583.785185</ele>
        <time>2021-07-04T01:51:16.467Z</time>
      </trkpt>
      <trkpt lat="45.454132" lon="5.802091">
        <ele>582.327139</ele>
        <time>2021-07-04T01:51:25.972Z</time>
      </trkpt>
      <trkpt lat="45.453943" lon="5.801980">
        <ele>581.995804</ele>
        <time>2021-07-04T01:51:29.548Z</time>
      </trkpt>
      <trkpt lat="45.453760" lon="5.801819">
        <ele>581.647233</ele>
        <time>2021-07-04T01:51:33.538Z</time>
      </trkpt>
      <trkpt lat="45.453459" lon="5.801476">
        <ele>581.022611</ele>
        <time>2021-07-04T01:51:41.106Z</time>
      </trkpt>
      <trkpt lat="45.453343" lon="5.801302">
        <ele>580.749667</ele>
        <time>2021-07-04T01:51:44.661Z</time>
      </trkpt>
      <trkpt lat="45.453268" lon="5.801153">
        <ele>580.541141</ele>
        <time>2021-07-04T01:51:47.474Z</time>
      </trkpt>
      <trkpt lat="45.453028" lon="5.800465">
        <ele>580.138277</ele>
        <time>2021-07-04T01:51:59.162Z</time>
      </trkpt>
      <trkpt lat="45.452984" lon="5.800253">
        <ele>580.146934</ele>
        <time>2021-07-04T01:52:02.655Z</time>
      </trkpt>
      <trkpt lat="45.452962" lon="5.800091">
        <ele>580.153396</ele>
        <time>2021-07-04T01:52:05.264Z</time>
      </trkpt>
      <trkpt lat="45.452962" lon="5.799415">
        <ele>580.179867</ele>
        <time>2021-07-04T01:52:15.971Z</time>
      </trkpt>
      <trkpt lat="45.452987" lon="5.799185">
        <ele>580.188981</ele>
        <time>2021-07-04T01:52:19.686Z</time>
      </trkpt>
      <trkpt lat="45.452997" lon="5.799090">
        <ele>580.192742</ele>
        <time>2021-07-04T01:52:21.231Z</time>
      </trkpt>
      <trkpt lat="45.453179" lon="5.798428">
        <ele>580.220585</ele>
        <time>2021-07-04T01:52:32.643Z</time>
      </trkpt>
      <trkpt lat="45.453427" lon="5.797958">
        <ele>580.299994</ele>
        <time>2021-07-04T01:52:42.183Z</time>
      </trkpt>
      <trkpt lat="45.454105" lon="5.796931">
        <ele>580.506288</ele>
        <time>2021-07-04T01:53:05.185Z</time>
      </trkpt>
      <trkpt lat="45.454268" lon="5.796478">
        <ele>580.580761</ele>
        <time>2021-07-04T01:53:13.405Z</time>
      </trkpt>
      <trkpt lat="45.454346" lon="5.795986">
        <ele>580.713109</ele>
        <time>2021-07-04T01:53:21.424Z</time>
      </trkpt>
      <trkpt lat="45.454314" lon="5.795279">
        <ele>580.924213</ele>
        <time>2021-07-04T01:53:33.184Z</time>
      </trkpt>
      <trkpt lat="45.453974" lon="5.794296">
        <ele>581.250790</ele>
        <time>2021-07-04T01:53:52.549Z</time>
      </trkpt>
      <trkpt lat="45.453754" lon="5.793779">
        <ele>581.029282</ele>
        <time>2021-07-04T01:54:03.018Z</time>
      </trkpt>
      <trkpt lat="45.453703" lon="5.793579">
        <ele>580.722889</ele>
        <time>2021-07-04T01:54:07.614Z</time>
      </trkpt>
      <trkpt lat="45.453569" lon="5.792361">
        <ele>578.947785</ele>
        <time>2021-07-04T01:54:23.591Z</time>
      </trkpt>
      <trkpt lat="45.453562" lon="5.791931">
        <ele>578.328507</ele>
        <time>2021-07-04T01:54:28.976Z</time>
      </trkpt>
      <trkpt lat="45.453511" lon="5.791918">
        <ele>578.222170</ele>
        <time>2021-07-04T01:54:29.922Z</time>
      </trkpt>
      <trkpt lat="45.453072" lon="5.791788">
        <ele>576.254302</ele>
        <time>2021-07-04T01:54:39.355Z</time>
      </trkpt>
      <trkpt lat="45.452357" lon="5.791678">
        <ele>570.582146</ele>
        <time>2021-07-04T01:54:53.307Z</time>
      </trkpt>
      <trkpt lat="45.451448" lon="5.791536">
        <ele>563.366470</ele>
        <time>2021-07-04T01:55:06.457Z</time>
      </trkpt>
      <trkpt lat="45.451031" lon="5.791342">
        <ele>559.809479</ele>
        <time>2021-07-04T01:55:12.757Z</time>
      </trkpt>
      <trkpt lat="45.450875" lon="5.791134">
        <ele>558.077345</ele>
        <time>2021-07-04T01:55:15.842Z</time>
      </trkpt>
      <trkpt lat="45.450619" lon="5.790253">
        <ele>552.652717</ele>
        <time>2021-07-04T01:55:25.660Z</time>
      </trkpt>
      <trkpt lat="45.450335" lon="5.789658">
        <ele>548.426436</ele>
        <time>2021-07-04T01:55:33.389Z</time>
      </trkpt>
      <trkpt lat="45.450250" lon="5.789502">
        <ele>546.865328</ele>
        <time>2021-07-04T01:55:35.439Z</time>
      </trkpt>
      <trkpt lat="45.450243" lon="5.789487">
        <ele>546.722945</ele>
        <time>2021-07-04T01:55:35.661Z</time>
      </trkpt>
      <trkpt lat="45.450165" lon="5.789321">
        <ele>545.143901</ele>
        <time>2021-07-04T01:55:37.932Z</time>
      </trkpt>
      <trkpt lat="45.449717" lon="5.788470">
        <ele>536.735059</ele>
        <time>2021-07-04T01:55:49.130Z</time>
      </trkpt>
      <trkpt lat="45.449387" lon="5.788054">
        <ele>531.772083</ele>
        <time>2021-07-04T01:55:55.111Z</time>
      </trkpt>
      <trkpt lat="45.449216" lon="5.787746">
        <ele>528.667760</ele>
        <time>2021-07-04T01:55:58.791Z</time>
      </trkpt>
      <trkpt lat="45.449058" lon="5.787308">
        <ele>522.309132</ele>
        <time>2021-07-04T01:56:03.383Z</time>
      </trkpt>
      <trkpt lat="45.448862" lon="5.786641">
        <ele>512.942606</ele>
        <time>2021-07-04T01:56:10.106Z</time>
      </trkpt>
      <trkpt lat="45.448794" lon="5.786506">
        <ele>510.789996</ele>
        <time>2021-07-04T01:56:11.674Z</time>
      </trkpt>
      <trkpt lat="45.448688" lon="5.785829">
        <ele>501.805439</ele>
        <time>2021-07-04T01:56:18.252Z</time>
      </trkpt>
      <trkpt lat="45.448193" lon="5.785069">
        <ele>491.872232</ele>
        <time>2021-07-04T01:56:28.217Z</time>
      </trkpt>
      <trkpt lat="45.447570" lon="5.784726">
        <ele>485.657659</ele>
        <time>2021-07-04T01:56:41.148Z</time>
      </trkpt>
      <trkpt lat="45.447081" lon="5.784727">
        <ele>481.107393</ele>
        <time>2021-07-04T01:56:50.492Z</time>
      </trkpt>
      <trkpt lat="45.446741" lon="5.784601">
        <ele>477.535594</ele>
        <time>2021-07-04T01:56:57.582Z</time>
      </trkpt>
      <trkpt lat="45.446484" lon="5.784360">
        <ele>473.656118</ele>
        <time>2021-07-04T01:57:04.235Z</time>
      </trkpt>
      <trkpt lat="45.446266" lon="5.784095">
        <ele>470.042963</ele>
        <time>2021-07-04T01:57:08.358Z</time>
      </trkpt>
      <trkpt lat="45.445987" lon="5.783726">
        <ele>465.243206</ele>
        <time>2021-07-04T01:57:13.643Z</time>
      </trkpt>
      <trkpt lat="45.445551" lon="5.783356">
        <ele>458.844155</ele>
        <time>2021-07-04T01:57:20.458Z</time>
      </trkpt>
      <trkpt lat="45.445258" lon="5.783254">
        <ele>454.914947</ele>
        <time>2021-07-04T01:57:24.478Z</time>
      </trkpt>
      <trkpt lat="45.444590" lon="5.782848">
        <ele>444.568471</ele>
        <time>2021-07-04T01:57:34.167Z</time>
      </trkpt>
      <trkpt lat="45.444257" lon="5.782567">
        <ele>439.054917</ele>
        <time>2021-07-04T01:57:39.497Z</time>
      </trkpt>
      <trkpt lat="45.444201" lon="5.782585">
        <ele>438.237021</ele>
        <time>2021-07-04T01:57:40.239Z</time>
      </trkpt>
      <trkpt lat="45.444015" lon="5.782591">
        <ele>435.586312</ele>
        <time>2021-07-04T01:57:42.732Z</time>
      </trkpt>
      <trkpt lat="45.443560" lon="5.782423">
        <ele>429.841304</ele>
        <time>2021-07-04T01:57:49.188Z</time>
      </trkpt>
      <trkpt lat="45.443297" lon="5.782406">
        <ele>428.481525</ele>
        <time>2021-07-04T01:57:52.890Z</time>
      </trkpt>
      <trkpt lat="45.443074" lon="5.782393">
        <ele>427.328778</ele>
        <time>2021-07-04T01:57:56.146Z</time>
      </trkpt>
      <trkpt lat="45.442976" lon="5.782403">
        <ele>426.821317</ele>
        <time>2021-07-04T01:57:57.593Z</time>
      </trkpt>
      <trkpt lat="45.442894" lon="5.782454">
        <ele>426.359222</ele>
        <time>2021-07-04T01:57:59.172Z</time>
      </trkpt>
      <trkpt lat="45.442792" lon="5.782592">
        <ele>425.632838</ele>
        <time>2021-07-04T01:58:01.365Z</time>
      </trkpt>
      <trkpt lat="45.442665" lon="5.782766">
        <ele>424.722969</ele>
        <time>2021-07-04T01:58:04.151Z</time>
      </trkpt>
      <trkpt lat="45.442566" lon="5.782805">
        <ele>424.192467</ele>
        <time>2021-07-04T01:58:05.815Z</time>
      </trkpt>
      <trkpt lat="45.442466" lon="5.782788">
        <ele>423.672310</ele>
        <time>2021-07-04T01:58:07.624Z</time>
      </trkpt>
      <trkpt lat="45.442341" lon="5.782731">
        <ele>422.994452</ele>
        <time>2021-07-04T01:58:09.637Z</time>
      </trkpt>
      <trkpt lat="45.442195" lon="5.782665">
        <ele>422.203348</ele>
        <time>2021-07-04T01:58:12.134Z</time>
      </trkpt>
      <trkpt lat="45.442128" lon="5.782630">
        <ele>421.834784</ele>
        <time>2021-07-04T01:58:13.383Z</time>
      </trkpt>
      <trkpt lat="45.442005" lon="5.782417">
        <ele>420.882724</ele>
        <time>2021-07-04T01:58:16.393Z</time>
      </trkpt>
      <trkpt lat="45.441756" lon="5.782163">
        <ele>419.593856</ele>
        <time>2021-07-04T01:58:21.542Z</time>
      </trkpt>
      <trkpt lat="45.441694" lon="5.782102">
        <ele>419.276746</ele>
        <time>2021-07-04T01:58:22.835Z</time>
      </trkpt>
      <trkpt lat="45.441631" lon="5.782030">
        <ele>418.936843</ele>
        <time>2021-07-04T01:58:24.206Z</time>
      </trkpt>
      <trkpt lat="45.441579" lon="5.781939">
        <ele>418.590240</ele>
        <time>2021-07-04T01:58:25.916Z</time>
      </trkpt>
      <trkpt lat="45.441531" lon="5.781836">
        <ele>418.225065</ele>
        <time>2021-07-04T01:58:27.501Z</time>
      </trkpt>
      <trkpt lat="45.441470" lon="5.781661">
        <ele>417.647971</ele>
        <time>2021-07-04T01:58:29.600Z</time>
      </trkpt>
      <trkpt lat="45.441043" lon="5.779771">
        <ele>411.518677</ele>
        <time>2021-07-04T01:58:50.544Z</time>
      </trkpt>
      <trkpt lat="45.440853" lon="5.779069">
        <ele>408.957303</ele>
        <time>2021-07-04T01:58:58.339Z</time>
      </trkpt>
      <trkpt lat="45.440749" lon="5.778711">
        <ele>407.638273</ele>
        <time>2021-07-04T01:59:02.485Z</time>
      </trkpt>
      <trkpt lat="45.440635" lon="5.778302">
        <ele>406.140116</ele>
        <time>2021-07-04T01:59:07.265Z</time>
      </trkpt>
      <trkpt lat="45.440533" lon="5.777962">
        <ele>404.881326</ele>
        <time>2021-07-04T01:59:11.349Z</time>
      </trkpt>
      <trkpt lat="45.440449" lon="5.777709">
        <ele>404.471796</ele>
        <time>2021-07-04T01:59:14.455Z</time>
      </trkpt>
      <trkpt lat="45.440196" lon="5.777076">
        <ele>403.546408</ele>
        <time>2021-07-04T01:59:23.093Z</time>
      </trkpt>
      <trkpt lat="45.439813" lon="5.776367">
        <ele>402.409784</ele>
        <time>2021-07-04T01:59:34.765Z</time>
      </trkpt>
      <trkpt lat="45.439665" lon="5.776132">
        <ele>402.008656</ele>
        <time>2021-07-04T01:59:39.145Z</time>
      </trkpt>
      <trkpt lat="45.439559" lon="5.775977">
        <ele>401.733712</ele>
        <time>2021-07-04T01:59:42.409Z</time>
      </trkpt>
      <trkpt lat="45.439528" lon="5.775802">
        <ele>401.542603</ele>
        <time>2021-07-04T01:59:45.206Z</time>
      </trkpt>
      <trkpt lat="45.439371" lon="5.775375">
        <ele>401.607789</ele>
        <time>2021-07-04T01:59:52.676Z</time>
      </trkpt>
      <trkpt lat="45.439238" lon="5.774979">
        <ele>401.667154</ele>
        <time>2021-07-04T01:59:59.549Z</time>
      </trkpt>
      <trkpt lat="45.439098" lon="5.774608">
        <ele>401.724115</ele>
        <time>2021-07-04T02:00:06.209Z</time>
      </trkpt>
      <trkpt lat="45.438972" lon="5.774168">
        <ele>401.788376</ele>
        <time>2021-07-04T02:00:14.245Z</time>
      </trkpt>
      <trkpt lat="45.438938" lon="5.774070">
        <ele>401.803159</ele>
        <time>2021-07-04T02:00:16.173Z</time>
      </trkpt>
      <trkpt lat="45.438887" lon="5.773954">
        <ele>401.821669</ele>
        <time>2021-07-04T02:00:18.373Z</time>
      </trkpt>
      <trkpt lat="45.438774" lon="5.773725">
        <ele>401.859525</ele>
        <time>2021-07-04T02:00:23.373Z</time>
      </trkpt>
      <trkpt lat="45.438790" lon="5.773676">
        <ele>401.866834</ele>
        <time>2021-07-04T02:00:24.326Z</time>
      </trkpt>
      <trkpt lat="45.438799" lon="5.773648">
        <ele>401.870998</ele>
        <time>2021-07-04T02:00:24.832Z</time>
      </trkpt>
      <trkpt lat="45.438845" lon="5.773493">
        <ele>401.922051</ele>
        <time>2021-07-04T02:00:27.632Z</time>
      </trkpt>
      <trkpt lat="45.438860" lon="5.773383">
        <ele>401.989472</ele>
        <time>2021-07-04T02:00:29.750Z</time>
      </trkpt>
      <trkpt lat="45.438852" lon="5.773289">
        <ele>402.046444</ele>
        <time>2021-07-04T02:00:31.326Z</time>
      </trkpt>
      <trkpt lat="45.438819" lon="5.773199">
        <ele>402.107541</ele>
        <time>2021-07-04T02:00:33.147Z</time>
      </trkpt>
      <trkpt lat="45.438732" lon="5.773100">
        <ele>402.203005</ele>
        <time>2021-07-04T02:00:35.752Z</time>
      </trkpt>
      <trkpt lat="45.438531" lon="5.772968">
        <ele>402.392777</ele>
        <time>2021-07-04T02:00:41.451Z</time>
      </trkpt>
      <trkpt lat="45.438454" lon="5.772913">
        <ele>402.466631</ele>
        <time>2021-07-04T02:00:43.551Z</time>
      </trkpt>
      <trkpt lat="45.438404" lon="5.772843">
        <ele>402.526732</ele>
        <time>2021-07-04T02:00:45.191Z</time>
      </trkpt>
      <trkpt lat="45.438354" lon="5.772869">
        <ele>402.572370</ele>
        <time>2021-07-04T02:00:46.828Z</time>
      </trkpt>
      <trkpt lat="45.437547" lon="5.772777">
        <ele>403.266567</ele>
        <time>2021-07-04T02:01:07.890Z</time>
      </trkpt>
      <trkpt lat="45.436832" lon="5.772794">
        <ele>403.810550</ele>
        <time>2021-07-04T02:01:27.053Z</time>
      </trkpt>
      <trkpt lat="45.436600" lon="5.772619">
        <ele>404.001166</ele>
        <time>2021-07-04T02:01:33.797Z</time>
      </trkpt>
      <trkpt lat="45.436149" lon="5.771897">
        <ele>404.493719</ele>
        <time>2021-07-04T02:01:51.242Z</time>
      </trkpt>
      <trkpt lat="45.435875" lon="5.771457">
        <ele>404.714567</ele>
        <time>2021-07-04T02:02:01.581Z</time>
      </trkpt>
      <trkpt lat="45.434826" lon="5.770175">
        <ele>404.387236</ele>
        <time>2021-07-04T02:02:32.800Z</time>
      </trkpt>
      <trkpt lat="45.433279" lon="5.767954">
        <ele>402.471297</ele>
        <time>2021-07-04T02:03:17.452Z</time>
      </trkpt>
      <trkpt lat="45.432363" lon="5.767138">
        <ele>400.979795</ele>
        <time>2021-07-04T02:03:38.256Z</time>
      </trkpt>
      <trkpt lat="45.432209" lon="5.767099">
        <ele>400.763837</ele>
        <time>2021-07-04T02:03:41.367Z</time>
      </trkpt>
      <trkpt lat="45.432178" lon="5.767090">
        <ele>400.720157</ele>
        <time>2021-07-04T02:03:41.874Z</time>
      </trkpt>
      <trkpt lat="45.432177" lon="5.766775">
        <ele>400.414948</ele>
        <time>2021-07-04T02:03:46.237Z</time>
      </trkpt>
      <trkpt lat="45.432289" lon="5.765439">
        <ele>399.346021</ele>
        <time>2021-07-04T02:04:04.663Z</time>
      </trkpt>
      <trkpt lat="45.432444" lon="5.764963">
        <ele>398.961524</ele>
        <time>2021-07-04T02:04:12.033Z</time>
      </trkpt>
      <trkpt lat="45.432166" lon="5.764860">
        <ele>398.661603</ele>
        <time>2021-07-04T02:04:17.772Z</time>
      </trkpt>
      <trkpt lat="45.431083" lon="5.764271">
        <ele>397.723682</ele>
        <time>2021-07-04T02:04:41.151Z</time>
      </trkpt>
      <trkpt lat="45.428998" lon="5.762751">
        <ele>396.180768</ele>
        <time>2021-07-04T02:05:28.401Z</time>
      </trkpt>
      <trkpt lat="45.428469" lon="5.762365">
        <ele>395.779901</ele>
        <time>2021-07-04T02:05:40.224Z</time>
      </trkpt>
      <trkpt lat="45.427724" lon="5.761821">
        <ele>395.053736</ele>
        <time>2021-07-04T02:05:56.841Z</time>
      </trkpt>
      <trkpt lat="45.427024" lon="5.761072">
        <ele>394.294376</ele>
        <time>2021-07-04T02:06:13.930Z</time>
      </trkpt>
      <trkpt lat="45.426498" lon="5.760179">
        <ele>393.160409</ele>
        <time>2021-07-04T02:06:29.289Z</time>
      </trkpt>
      <trkpt lat="45.426400" lon="5.760014">
        <ele>392.946797</ele>
        <time>2021-07-04T02:06:32.168Z</time>
      </trkpt>
      <trkpt lat="45.426320" lon="5.759869">
        <ele>392.764526</ele>
        <time>2021-07-04T02:06:34.528Z</time>
      </trkpt>
      <trkpt lat="45.426133" lon="5.759503">
        <ele>392.317137</ele>
        <time>2021-07-04T02:06:40.465Z</time>
      </trkpt>
      <trkpt lat="45.426031" lon="5.759285">
        <ele>392.058214</ele>
        <time>2021-07-04T02:06:43.822Z</time>
      </trkpt>
      <trkpt lat="45.425861" lon="5.758902">
        <ele>391.566078</ele>
        <time>2021-07-04T02:06:49.528Z</time>
      </trkpt>
      <trkpt lat="45.425281" lon="5.757622">
        <ele>389.514748</ele>
        <time>2021-07-04T02:07:08.328Z</time>
      </trkpt>
      <trkpt lat="45.425125" lon="5.757349">
        <ele>389.040763</ele>
        <time>2021-07-04T02:07:12.648Z</time>
      </trkpt>
      <trkpt lat="45.424953" lon="5.757115">
        <ele>388.584548</ele>
        <time>2021-07-04T02:07:16.895Z</time>
      </trkpt>
      <trkpt lat="45.424881" lon="5.756990">
        <ele>388.366828</ele>
        <time>2021-07-04T02:07:18.890Z</time>
      </trkpt>
      <trkpt lat="45.424881" lon="5.756882">
        <ele>388.234819</ele>
        <time>2021-07-04T02:07:20.305Z</time>
      </trkpt>
      <trkpt lat="45.424855" lon="5.756780">
        <ele>388.120947</ele>
        <time>2021-07-04T02:07:21.711Z</time>
      </trkpt>
      <trkpt lat="45.424807" lon="5.756697">
        <ele>388.008094</ele>
        <time>2021-07-04T02:07:23.033Z</time>
      </trkpt>
      <trkpt lat="45.424731" lon="5.756637">
        <ele>387.878189</ele>
        <time>2021-07-04T02:07:24.544Z</time>
      </trkpt>
      <trkpt lat="45.424644" lon="5.756623">
        <ele>387.747288</ele>
        <time>2021-07-04T02:07:26.125Z</time>
      </trkpt>
      <trkpt lat="45.424563" lon="5.756657">
        <ele>387.621038</ele>
        <time>2021-07-04T02:07:27.730Z</time>
      </trkpt>
      <trkpt lat="45.424497" lon="5.756649">
        <ele>387.522005</ele>
        <time>2021-07-04T02:07:28.892Z</time>
      </trkpt>
      <trkpt lat="45.424410" lon="5.756492">
        <ele>387.312099</ele>
        <time>2021-07-04T02:07:31.359Z</time>
      </trkpt>
      <trkpt lat="45.424285" lon="5.755955">
        <ele>386.718420</ele>
        <time>2021-07-04T02:07:38.548Z</time>
      </trkpt>
      <trkpt lat="45.424180" lon="5.755767">
        <ele>386.466303</ele>
        <time>2021-07-04T02:07:41.710Z</time>
      </trkpt>
      <trkpt lat="45.424079" lon="5.755637">
        <ele>386.262805</ele>
        <time>2021-07-04T02:07:44.188Z</time>
      </trkpt>
      <trkpt lat="45.423825" lon="5.755305">
        <ele>385.747454</ele>
        <time>2021-07-04T02:07:50.732Z</time>
      </trkpt>
      <trkpt lat="45.423446" lon="5.754876">
        <ele>385.369140</ele>
        <time>2021-07-04T02:08:00.225Z</time>
      </trkpt>
      <trkpt lat="45.423013" lon="5.754416">
        <ele>385.051577</ele>
        <time>2021-07-04T02:08:11.094Z</time>
      </trkpt>
      <trkpt lat="45.422059" lon="5.753673">
        <ele>384.551289</ele>
        <time>2021-07-04T02:08:33.861Z</time>
      </trkpt>
      <trkpt lat="45.420803" lon="5.752918">
        <ele>384.654205</ele>
        <time>2021-07-04T02:09:04.588Z</time>
      </trkpt>
      <trkpt lat="45.416896" lon="5.751170">
        <ele>386.584489</ele>
        <time>2021-07-04T02:10:44.093Z</time>
      </trkpt>
      <trkpt lat="45.415717" lon="5.750600">
        <ele>387.167428</ele>
        <time>2021-07-04T02:11:14.256Z</time>
      </trkpt>
      <trkpt lat="45.414744" lon="5.750129">
        <ele>387.563184</ele>
        <time>2021-07-04T02:11:38.688Z</time>
      </trkpt>
      <trkpt lat="45.414439" lon="5.749999">
        <ele>387.675796</ele>
        <time>2021-07-04T02:11:46.150Z</time>
      </trkpt>
      <trkpt lat="45.414060" lon="5.749956">
        <ele>387.810282</ele>
        <time>2021-07-04T02:11:55.072Z</time>
      </trkpt>
      <trkpt lat="45.413958" lon="5.749912">
        <ele>387.847979</ele>
        <time>2021-07-04T02:11:57.558Z</time>
      </trkpt>
      <trkpt lat="45.413955" lon="5.749799">
        <ele>387.876058</ele>
        <time>2021-07-04T02:11:59.413Z</time>
      </trkpt>
      <trkpt lat="45.413855" lon="5.749596">
        <ele>387.938124</ele>
        <time>2021-07-04T02:12:03.511Z</time>
      </trkpt>
      <trkpt lat="45.413781" lon="5.749552">
        <ele>387.973161</ele>
        <time>2021-07-04T02:12:05.343Z</time>
      </trkpt>
      <trkpt lat="45.413715" lon="5.749546">
        <ele>388.002058</ele>
        <time>2021-07-04T02:12:06.876Z</time>
      </trkpt>
      <trkpt lat="45.413639" lon="5.749573">
        <ele>388.036283</ele>
        <time>2021-07-04T02:12:08.749Z</time>
      </trkpt>
      <trkpt lat="45.413562" lon="5.749652">
        <ele>388.077745</ele>
        <time>2021-07-04T02:12:10.982Z</time>
      </trkpt>
      <trkpt lat="45.413336" lon="5.749610">
        <ele>388.177330</ele>
        <time>2021-07-04T02:12:16.290Z</time>
      </trkpt>
      <trkpt lat="45.413065" lon="5.749396">
        <ele>388.312717</ele>
        <time>2021-07-04T02:12:23.580Z</time>
      </trkpt>
      <trkpt lat="45.412933" lon="5.749303">
        <ele>388.377061</ele>
        <time>2021-07-04T02:12:27.111Z</time>
      </trkpt>
      <trkpt lat="45.412398" lon="5.749030">
        <ele>388.625370</ele>
        <time>2021-07-04T02:12:40.696Z</time>
      </trkpt>
      <trkpt lat="45.402006" lon="5.744228">
        <ele>396.902313</ele>
        <time>2021-07-04T02:17:17.309Z</time>
      </trkpt>
      <trkpt lat="45.401491" lon="5.743984">
        <ele>397.392696</ele>
        <time>2021-07-04T02:17:30.912Z</time>
      </trkpt>
      <trkpt lat="45.400380" lon="5.743457">
        <ele>398.480360</ele>
        <time>2021-07-04T02:18:01.172Z</time>
      </trkpt>
      <trkpt lat="45.400050" lon="5.743287">
        <ele>398.858216</ele>
        <time>2021-07-04T02:18:10.591Z</time>
      </trkpt>
      <trkpt lat="45.399666" lon="5.743108">
        <ele>399.350402</ele>
        <time>2021-07-04T02:18:21.620Z</time>
      </trkpt>
      <trkpt lat="45.399359" lon="5.742991">
        <ele>399.737531</ele>
        <time>2021-07-04T02:18:30.256Z</time>
      </trkpt>
      <trkpt lat="45.399113" lon="5.743028">
        <ele>400.038861</ele>
        <time>2021-07-04T02:18:36.974Z</time>
      </trkpt>
      <trkpt lat="45.398942" lon="5.742949">
        <ele>400.257850</ele>
        <time>2021-07-04T02:18:42.008Z</time>
      </trkpt>
      <trkpt lat="45.398915" lon="5.742880">
        <ele>400.325414</ele>
        <time>2021-07-04T02:18:43.484Z</time>
      </trkpt>
      <trkpt lat="45.398868" lon="5.742821">
        <ele>400.401733</ele>
        <time>2021-07-04T02:18:45.167Z</time>
      </trkpt>
      <trkpt lat="45.398829" lon="5.742795">
        <ele>400.454188</ele>
        <time>2021-07-04T02:18:46.369Z</time>
      </trkpt>
      <trkpt lat="45.398693" lon="5.742805">
        <ele>400.620076</ele>
        <time>2021-07-04T02:18:50.159Z</time>
      </trkpt>
      <trkpt lat="45.398637" lon="5.742859">
        <ele>400.702459</ele>
        <time>2021-07-04T02:18:52.067Z</time>
      </trkpt>
      <trkpt lat="45.398446" lon="5.742586">
        <ele>401.010090</ele>
        <time>2021-07-04T02:18:59.499Z</time>
      </trkpt>
      <trkpt lat="45.398198" lon="5.742427">
        <ele>401.305198</ele>
        <time>2021-07-04T02:19:06.977Z</time>
      </trkpt>
      <trkpt lat="45.397251" lon="5.742010">
        <ele>402.380753</ele>
        <time>2021-07-04T02:19:33.415Z</time>
      </trkpt>
      <trkpt lat="45.396702" lon="5.741768">
        <ele>402.964734</ele>
        <time>2021-07-04T02:19:48.070Z</time>
      </trkpt>
      <trkpt lat="45.396039" lon="5.741445">
        <ele>403.589434</ele>
        <time>2021-07-04T02:20:05.725Z</time>
      </trkpt>
      <trkpt lat="45.395889" lon="5.741386">
        <ele>403.728167</ele>
        <time>2021-07-04T02:20:09.606Z</time>
      </trkpt>
      <trkpt lat="45.395793" lon="5.741334">
        <ele>403.819734</ele>
        <time>2021-07-04T02:20:12.222Z</time>
      </trkpt>
      <trkpt lat="45.395689" lon="5.741290">
        <ele>403.916456</ele>
        <time>2021-07-04T02:20:14.974Z</time>
      </trkpt>
      <trkpt lat="45.395650" lon="5.741276">
        <ele>403.952312</ele>
        <time>2021-07-04T02:20:15.985Z</time>
      </trkpt>
      <trkpt lat="45.395080" lon="5.741077">
        <ele>404.583434</ele>
        <time>2021-07-04T02:20:30.945Z</time>
      </trkpt>
      <trkpt lat="45.393899" lon="5.740573">
        <ele>407.004985</ele>
        <time>2021-07-04T02:21:06.985Z</time>
      </trkpt>
      <trkpt lat="45.392975" lon="5.740245">
        <ele>409.567882</ele>
        <time>2021-07-04T02:21:39.204Z</time>
      </trkpt>
      <trkpt lat="45.391620" lon="5.739735">
        <ele>414.209658</ele>
        <time>2021-07-04T02:22:31.511Z</time>
      </trkpt>
      <trkpt lat="45.391199" lon="5.739458">
        <ele>415.246976</ele>
        <time>2021-07-04T02:22:47.601Z</time>
      </trkpt>
      <trkpt lat="45.391117" lon="5.739404">
        <ele>415.449050</ele>
        <time>2021-07-04T02:22:50.628Z</time>
      </trkpt>
      <trkpt lat="45.390362" lon="5.738806">
        <ele>417.381432</ele>
        <time>2021-07-04T02:23:16.981Z</time>
      </trkpt>
      <trkpt lat="45.390104" lon="5.738601">
        <ele>418.031876</ele>
        <time>2021-07-04T02:23:25.053Z</time>
      </trkpt>
      <trkpt lat="45.389778" lon="5.738321">
        <ele>418.072362</ele>
        <time>2021-07-04T02:23:33.967Z</time>
      </trkpt>
      <trkpt lat="45.389550" lon="5.738128">
        <ele>418.100569</ele>
        <time>2021-07-04T02:23:39.771Z</time>
      </trkpt>
      <trkpt lat="45.389146" lon="5.737814">
        <ele>418.149515</ele>
        <time>2021-07-04T02:23:49.566Z</time>
      </trkpt>
      <trkpt lat="45.388902" lon="5.737633">
        <ele>418.178773</ele>
        <time>2021-07-04T02:23:55.490Z</time>
      </trkpt>
      <trkpt lat="45.388616" lon="5.737449">
        <ele>418.212147</ele>
        <time>2021-07-04T02:24:02.068Z</time>
      </trkpt>
      <trkpt lat="45.388389" lon="5.737347">
        <ele>418.483026</ele>
        <time>2021-07-04T02:24:07.321Z</time>
      </trkpt>
      <trkpt lat="45.387954" lon="5.737222">
        <ele>419.311643</ele>
        <time>2021-07-04T02:24:17.183Z</time>
      </trkpt>
      <trkpt lat="45.387449" lon="5.737210">
        <ele>420.254722</ele>
        <time>2021-07-04T02:24:30.799Z</time>
      </trkpt>
      <trkpt lat="45.387372" lon="5.737181">
        <ele>420.403443</ele>
        <time>2021-07-04T02:24:33.151Z</time>
      </trkpt>
      <trkpt lat="45.387323" lon="5.737143">
        <ele>420.507627</ele>
        <time>2021-07-04T02:24:34.687Z</time>
      </trkpt>
      <trkpt lat="45.387276" lon="5.737075">
        <ele>420.632741</ele>
        <time>2021-07-04T02:24:37.364Z</time>
      </trkpt>
      <trkpt lat="45.387143" lon="5.736761">
        <ele>421.113604</ele>
        <time>2021-07-04T02:24:47.036Z</time>
      </trkpt>
      <trkpt lat="45.387098" lon="5.736639">
        <ele>421.294314</ele>
        <time>2021-07-04T02:24:51.213Z</time>
      </trkpt>
      <trkpt lat="45.387008" lon="5.736203">
        <ele>422.410111</ele>
        <time>2021-07-04T02:25:03.881Z</time>
      </trkpt>
      <trkpt lat="45.387007" lon="5.736135">
        <ele>422.649282</ele>
        <time>2021-07-04T02:25:06.219Z</time>
      </trkpt>
      <trkpt lat="45.387011" lon="5.735873">
        <ele>423.570808</ele>
        <time>2021-07-04T02:25:13.835Z</time>
      </trkpt>
      <trkpt lat="45.387010" lon="5.735719">
        <ele>424.112363</ele>
        <time>2021-07-04T02:25:17.643Z</time>
      </trkpt>
      <trkpt lat="45.387011" lon="5.735606">
        <ele>424.509753</ele>
        <time>2021-07-04T02:25:21.390Z</time>
      </trkpt>
      <trkpt lat="45.387019" lon="5.735102">
        <ele>426.282493</ele>
        <time>2021-07-04T02:25:36.771Z</time>
      </trkpt>
      <trkpt lat="45.387012" lon="5.734983">
        <ele>426.702415</ele>
        <time>2021-07-04T02:25:40.573Z</time>
      </trkpt>
      <trkpt lat="45.387005" lon="5.734921">
        <ele>426.923234</ele>
        <time>2021-07-04T02:25:42.577Z</time>
      </trkpt>
      <trkpt lat="45.387004" lon="5.734865">
        <ele>427.120218</ele>
        <time>2021-07-04T02:25:44.545Z</time>
      </trkpt>
      <trkpt lat="45.387002" lon="5.734684">
        <ele>427.756774</ele>
        <time>2021-07-04T02:25:49.346Z</time>
      </trkpt>
      <trkpt lat="45.387007" lon="5.734615">
        <ele>428.000696</ele>
        <time>2021-07-04T02:25:51.846Z</time>
      </trkpt>
      <trkpt lat="45.387021" lon="5.734417">
        <ele>428.700472</ele>
        <time>2021-07-04T02:25:58.185Z</time>
      </trkpt>
      <trkpt lat="45.387039" lon="5.734296">
        <ele>429.135402</ele>
        <time>2021-07-04T02:26:01.970Z</time>
      </trkpt>
      <trkpt lat="45.387240" lon="5.733709">
        <ele>431.001471</ele>
        <time>2021-07-04T02:26:21.598Z</time>
      </trkpt>
      <trkpt lat="45.387269" lon="5.733650">
        <ele>431.125740</ele>
        <time>2021-07-04T02:26:23.913Z</time>
      </trkpt>
      <trkpt lat="45.387257" lon="5.733378">
        <ele>431.596032</ele>
        <time>2021-07-04T02:26:32.808Z</time>
      </trkpt>
      <trkpt lat="45.387198" lon="5.732884">
        <ele>432.460725</ele>
        <time>2021-07-04T02:26:47.041Z</time>
      </trkpt>
      <trkpt lat="45.387001" lon="5.732022">
        <ele>434.024983</ele>
        <time>2021-07-04T02:27:05.220Z</time>
      </trkpt>
      <trkpt lat="45.386834" lon="5.730917">
        <ele>433.713491</ele>
        <time>2021-07-04T02:27:24.150Z</time>
      </trkpt>
      <trkpt lat="45.386797" lon="5.730670">
        <ele>433.132286</ele>
        <time>2021-07-04T02:27:27.284Z</time>
      </trkpt>
      <trkpt lat="45.386511" lon="5.729090">
        <ele>429.377404</ele>
        <time>2021-07-04T02:27:45.910Z</time>
      </trkpt>
      <trkpt lat="45.386438" lon="5.728769">
        <ele>428.237037</ele>
        <time>2021-07-04T02:27:49.609Z</time>
      </trkpt>
      <trkpt lat="45.386500" lon="5.728616">
        <ele>427.541385</ele>
        <time>2021-07-04T02:27:51.379Z</time>
      </trkpt>
      <trkpt lat="45.386560" lon="5.728416">
        <ele>426.684893</ele>
        <time>2021-07-04T02:27:53.713Z</time>
      </trkpt>
      <trkpt lat="45.386654" lon="5.728157">
        <ele>425.536752</ele>
        <time>2021-07-04T02:27:56.653Z</time>
      </trkpt>
      <trkpt lat="45.386890" lon="5.727623">
        <ele>423.052023</ele>
        <time>2021-07-04T02:28:03.200Z</time>
      </trkpt>
      <trkpt lat="45.386973" lon="5.727416">
        <ele>422.113315</ele>
        <time>2021-07-04T02:28:05.644Z</time>
      </trkpt>
      <trkpt lat="45.386885" lon="5.726691">
        <ele>419.215800</ele>
        <time>2021-07-04T02:28:13.252Z</time>
      </trkpt>
      <trkpt lat="45.386892" lon="5.726433">
        <ele>418.594533</ele>
        <time>2021-07-04T02:28:16.000Z</time>
      </trkpt>
      <trkpt lat="45.386958" lon="5.725940">
        <ele>417.562541</ele>
        <time>2021-07-04T02:28:21.511Z</time>
      </trkpt>
      <trkpt lat="45.386960" lon="5.725623">
        <ele>416.910679</ele>
        <time>2021-07-04T02:28:25.205Z</time>
      </trkpt>
      <trkpt lat="45.386872" lon="5.725168">
        <ele>415.940250</ele>
        <time>2021-07-04T02:28:30.770Z</time>
      </trkpt>
      <trkpt lat="45.386819" lon="5.724603">
        <ele>414.768141</ele>
        <time>2021-07-04T02:28:37.912Z</time>
      </trkpt>
      <trkpt lat="45.386818" lon="5.724144">
        <ele>413.824309</ele>
        <time>2021-07-04T02:28:43.744Z</time>
      </trkpt>
      <trkpt lat="45.386737" lon="5.723091">
        <ele>413.476836</ele>
        <time>2021-07-04T02:28:58.264Z</time>
      </trkpt>
      <trkpt lat="45.386170" lon="5.721893">
        <ele>413.078202</ele>
        <time>2021-07-04T02:29:20.589Z</time>
      </trkpt>
      <trkpt lat="45.386079" lon="5.721688">
        <ele>413.140066</ele>
        <time>2021-07-04T02:29:25.128Z</time>
      </trkpt>
      <trkpt lat="45.385564" lon="5.719845">
        <ele>414.246578</ele>
        <time>2021-07-04T02:30:01.878Z</time>
      </trkpt>
      <trkpt lat="45.385340" lon="5.718655">
        <ele>415.071765</ele>
        <time>2021-07-04T02:30:26.240Z</time>
      </trkpt>
      <trkpt lat="45.385243" lon="5.718333">
        <ele>415.326948</ele>
        <time>2021-07-04T02:30:33.071Z</time>
      </trkpt>
      <trkpt lat="45.385120" lon="5.717967">
        <ele>415.622461</ele>
        <time>2021-07-04T02:30:41.029Z</time>
      </trkpt>
      <trkpt lat="45.384950" lon="5.717627">
        <ele>415.926435</ele>
        <time>2021-07-04T02:30:49.314Z</time>
      </trkpt>
      <trkpt lat="45.384019" lon="5.715734">
        <ele>416.388878</ele>
        <time>2021-07-04T02:31:31.485Z</time>
      </trkpt>
      <trkpt lat="45.383678" lon="5.714862">
        <ele>416.093514</ele>
        <time>2021-07-04T02:31:45.522Z</time>
      </trkpt>
      <trkpt lat="45.383532" lon="5.714431">
        <ele>415.204957</ele>
        <time>2021-07-04T02:31:51.938Z</time>
      </trkpt>
      <trkpt lat="45.383508" lon="5.714171">
        <ele>414.718003</ele>
        <time>2021-07-04T02:31:55.201Z</time>
      </trkpt>
      <trkpt lat="45.383351" lon="5.713015">
        <ele>412.531627</ele>
        <time>2021-07-04T02:32:09.853Z</time>
      </trkpt>
      <trkpt lat="45.383105" lon="5.711847">
        <ele>409.869462</ele>
        <time>2021-07-04T02:32:23.720Z</time>
      </trkpt>
      <trkpt lat="45.383019" lon="5.711520">
        <ele>409.034936</ele>
        <time>2021-07-04T02:32:27.790Z</time>
      </trkpt>
      <trkpt lat="45.383030" lon="5.711112">
        <ele>408.059093</ele>
        <time>2021-07-04T02:32:32.609Z</time>
      </trkpt>
      <trkpt lat="45.383069" lon="5.710893">
        <ele>407.519119</ele>
        <time>2021-07-04T02:32:35.335Z</time>
      </trkpt>
      <trkpt lat="45.383184" lon="5.710804">
        <ele>407.073720</ele>
        <time>2021-07-04T02:32:44.427Z</time>
      </trkpt>
      <trkpt lat="45.383363" lon="5.710606">
        <ele>406.302394</ele>
        <time>2021-07-04T02:32:48.235Z</time>
      </trkpt>
      <trkpt lat="45.383497" lon="5.710456">
        <ele>405.722362</ele>
        <time>2021-07-04T02:32:51.073Z</time>
      </trkpt>
      <trkpt lat="45.383042" lon="5.709544">
        <ele>405.488387</ele>
        <time>2021-07-04T02:33:05.015Z</time>
      </trkpt>
      <trkpt lat="45.382506" lon="5.708466">
        <ele>405.432000</ele>
        <time>2021-07-04T02:33:29.582Z</time>
      </trkpt>
      <trkpt lat="45.382196" lon="5.707920">
        <ele>406.008434</ele>
        <time>2021-07-04T02:33:45.236Z</time>
      </trkpt>
      <trkpt lat="45.382085" lon="5.707771">
        <ele>406.261876</ele>
        <time>2021-07-04T02:33:49.819Z</time>
      </trkpt>
      <trkpt lat="45.381653" lon="5.707302">
        <ele>407.164405</ele>
        <time>2021-07-04T02:34:06.543Z</time>
      </trkpt>
      <trkpt lat="45.381299" lon="5.706955">
        <ele>407.878414</ele>
        <time>2021-07-04T02:34:18.848Z</time>
      </trkpt>
      <trkpt lat="45.381082" lon="5.706578">
        <ele>408.422656</ele>
        <time>2021-07-04T02:34:28.457Z</time>
      </trkpt>
      <trkpt lat="45.380125" lon="5.704507">
        <ele>409.326373</ele>
        <time>2021-07-04T02:35:09.517Z</time>
      </trkpt>
      <trkpt lat="45.379761" lon="5.703698">
        <ele>409.817787</ele>
        <time>2021-07-04T02:35:25.809Z</time>
      </trkpt>
      <trkpt lat="45.379569" lon="5.703117">
        <ele>410.151521</ele>
        <time>2021-07-04T02:35:37.457Z</time>
      </trkpt>
      <trkpt lat="45.379480" lon="5.702712">
        <ele>410.372087</ele>
        <time>2021-07-04T02:35:45.122Z</time>
      </trkpt>
      <trkpt lat="45.379440" lon="5.702517">
        <ele>410.477675</ele>
        <time>2021-07-04T02:35:49.140Z</time>
      </trkpt>
      <trkpt lat="45.379258" lon="5.701853">
        <ele>410.806742</ele>
        <time>2021-07-04T02:36:01.989Z</time>
      </trkpt>
      <trkpt lat="45.379058" lon="5.701405">
        <ele>411.016296</ele>
        <time>2021-07-04T02:36:11.657Z</time>
      </trkpt>
      <trkpt lat="45.378979" lon="5.701247">
        <ele>411.092858</ele>
        <time>2021-07-04T02:36:15.441Z</time>
      </trkpt>
      <trkpt lat="45.378932" lon="5.701161">
        <ele>411.135874</ele>
        <time>2021-07-04T02:36:17.441Z</time>
      </trkpt>
      <trkpt lat="45.377596" lon="5.698857">
        <ele>411.955549</ele>
        <time>2021-07-04T02:37:05.978Z</time>
      </trkpt>
      <trkpt lat="45.377381" lon="5.698520">
        <ele>412.032388</ele>
        <time>2021-07-04T02:37:13.092Z</time>
      </trkpt>
      <trkpt lat="45.377194" lon="5.698303">
        <ele>412.090358</ele>
        <time>2021-07-04T02:37:18.789Z</time>
      </trkpt>
      <trkpt lat="45.376826" lon="5.697981">
        <ele>412.412186</ele>
        <time>2021-07-04T02:37:29.001Z</time>
      </trkpt>
      <trkpt lat="45.376049" lon="5.697556">
        <ele>413.192825</ele>
        <time>2021-07-04T02:37:50.240Z</time>
      </trkpt>
      <trkpt lat="45.375993" lon="5.697525">
        <ele>413.249175</ele>
        <time>2021-07-04T02:37:52.080Z</time>
      </trkpt>
      <trkpt lat="45.375837" lon="5.697445">
        <ele>413.404681</ele>
        <time>2021-07-04T02:37:56.870Z</time>
      </trkpt>
      <trkpt lat="45.375789" lon="5.697417">
        <ele>413.453330</ele>
        <time>2021-07-04T02:37:58.202Z</time>
      </trkpt>
      <trkpt lat="45.375596" lon="5.697321">
        <ele>413.645064</ele>
        <time>2021-07-04T02:38:04.085Z</time>
      </trkpt>
      <trkpt lat="45.375473" lon="5.697258">
        <ele>413.767658</ele>
        <time>2021-07-04T02:38:07.487Z</time>
      </trkpt>
      <trkpt lat="45.375352" lon="5.697194">
        <ele>413.903736</ele>
        <time>2021-07-04T02:38:10.855Z</time>
      </trkpt>
      <trkpt lat="45.375216" lon="5.697122">
        <ele>414.064492</ele>
        <time>2021-07-04T02:38:15.340Z</time>
      </trkpt>
      <trkpt lat="45.374957" lon="5.697022">
        <ele>414.361804</ele>
        <time>2021-07-04T02:38:22.499Z</time>
      </trkpt>
      <trkpt lat="45.374917" lon="5.697013">
        <ele>414.406670</ele>
        <time>2021-07-04T02:38:23.962Z</time>
      </trkpt>
      <trkpt lat="45.374854" lon="5.697000">
        <ele>414.477198</ele>
        <time>2021-07-04T02:38:25.643Z</time>
      </trkpt>
      <trkpt lat="45.374660" lon="5.696957">
        <ele>414.694719</ele>
        <time>2021-07-04T02:38:30.642Z</time>
      </trkpt>
      <trkpt lat="45.374603" lon="5.696941">
        <ele>414.759086</ele>
        <time>2021-07-04T02:38:32.415Z</time>
      </trkpt>
      <trkpt lat="45.374571" lon="5.696932">
        <ele>414.795224</ele>
        <time>2021-07-04T02:38:33.594Z</time>
      </trkpt>
      <trkpt lat="45.374037" lon="5.696700">
        <ele>415.413781</ele>
        <time>2021-07-04T02:38:48.083Z</time>
      </trkpt>
      <trkpt lat="45.373883" lon="5.696581">
        <ele>415.607913</ele>
        <time>2021-07-04T02:38:52.941Z</time>
      </trkpt>
      <trkpt lat="45.373676" lon="5.696378">
        <ele>415.798452</ele>
        <time>2021-07-04T02:38:58.811Z</time>
      </trkpt>
      <trkpt lat="45.373462" lon="5.696070">
        <ele>415.797892</ele>
        <time>2021-07-04T02:39:06.246Z</time>
      </trkpt>
      <trkpt lat="45.373326" lon="5.695832">
        <ele>415.797494</ele>
        <time>2021-07-04T02:39:11.411Z</time>
      </trkpt>
      <trkpt lat="45.372936" lon="5.695122">
        <ele>415.796328</ele>
        <time>2021-07-04T02:39:25.243Z</time>
      </trkpt>
      <trkpt lat="45.372562" lon="5.694470">
        <ele>415.774656</ele>
        <time>2021-07-04T02:39:37.512Z</time>
      </trkpt>
      <trkpt lat="45.372465" lon="5.694298">
        <ele>415.646338</ele>
        <time>2021-07-04T02:39:40.679Z</time>
      </trkpt>
      <trkpt lat="45.372310" lon="5.693984">
        <ele>415.423076</ele>
        <time>2021-07-04T02:39:46.131Z</time>
      </trkpt>
      <trkpt lat="45.372212" lon="5.693743">
        <ele>415.261076</ele>
        <time>2021-07-04T02:39:50.088Z</time>
      </trkpt>
      <trkpt lat="45.372017" lon="5.693248">
        <ele>414.930914</ele>
        <time>2021-07-04T02:39:57.891Z</time>
      </trkpt>
      <trkpt lat="45.371941" lon="5.693048">
        <ele>414.798629</ele>
        <time>2021-07-04T02:40:00.950Z</time>
      </trkpt>
      <trkpt lat="45.371813" lon="5.692596">
        <ele>414.515108</ele>
        <time>2021-07-04T02:40:07.608Z</time>
      </trkpt>
      <trkpt lat="45.371740" lon="5.692077">
        <ele>414.255445</ele>
        <time>2021-07-04T02:40:14.703Z</time>
      </trkpt>
      <trkpt lat="45.371734" lon="5.691485">
        <ele>414.079641</ele>
        <time>2021-07-04T02:40:22.597Z</time>
      </trkpt>
      <trkpt lat="45.371731" lon="5.691176">
        <ele>413.987879</ele>
        <time>2021-07-04T02:40:26.929Z</time>
      </trkpt>
      <trkpt lat="45.371697" lon="5.690718">
        <ele>413.851126</ele>
        <time>2021-07-04T02:40:33.654Z</time>
      </trkpt>
      <trkpt lat="45.371619" lon="5.690269">
        <ele>413.713786</ele>
        <time>2021-07-04T02:40:40.714Z</time>
      </trkpt>
      <trkpt lat="45.371570" lon="5.690049">
        <ele>413.645255</ele>
        <time>2021-07-04T02:40:44.251Z</time>
      </trkpt>
      <trkpt lat="45.371496" lon="5.689823">
        <ele>413.571216</ele>
        <time>2021-07-04T02:40:48.410Z</time>
      </trkpt>
      <trkpt lat="45.371379" lon="5.689561">
        <ele>413.747165</ele>
        <time>2021-07-04T02:40:53.439Z</time>
      </trkpt>
      <trkpt lat="45.371058" lon="5.688909">
        <ele>414.464292</ele>
        <time>2021-07-04T02:41:08.115Z</time>
      </trkpt>
      <trkpt lat="45.370860" lon="5.688547">
        <ele>414.877526</ele>
        <time>2021-07-04T02:41:16.982Z</time>
      </trkpt>
      <trkpt lat="45.370491" lon="5.688043">
        <ele>415.533207</ele>
        <time>2021-07-04T02:41:31.973Z</time>
      </trkpt>
      <trkpt lat="45.369782" lon="5.687333">
        <ele>417.050897</ele>
        <time>2021-07-04T02:41:58.460Z</time>
      </trkpt>
      <trkpt lat="45.369228" lon="5.686889">
        <ele>418.283612</ele>
        <time>2021-07-04T02:42:17.283Z</time>
      </trkpt>
      <trkpt lat="45.367991" lon="5.685909">
        <ele>421.462833</ele>
        <time>2021-07-04T02:42:59.791Z</time>
      </trkpt>
      <trkpt lat="45.367079" lon="5.685460">
        <ele>423.848421</ele>
        <time>2021-07-04T02:43:31.974Z</time>
      </trkpt>
      <trkpt lat="45.366881" lon="5.685275">
        <ele>424.636113</ele>
        <time>2021-07-04T02:43:40.491Z</time>
      </trkpt>
      <trkpt lat="45.366421" lon="5.684776">
        <ele>426.559593</ele>
        <time>2021-07-04T02:44:01.340Z</time>
      </trkpt>
      <trkpt lat="45.366310" lon="5.684667">
        <ele>427.008078</ele>
        <time>2021-07-04T02:44:06.292Z</time>
      </trkpt>
      <trkpt lat="45.365990" lon="5.684317">
        <ele>428.350231</ele>
        <time>2021-07-04T02:44:20.874Z</time>
      </trkpt>
      <trkpt lat="45.365805" lon="5.684120">
        <ele>429.118620</ele>
        <time>2021-07-04T02:44:29.410Z</time>
      </trkpt>
      <trkpt lat="45.364631" lon="5.682870">
        <ele>433.473427</ele>
        <time>2021-07-04T02:45:20.414Z</time>
      </trkpt>
      <trkpt lat="45.364296" lon="5.682516">
        <ele>434.692460</ele>
        <time>2021-07-04T02:45:33.672Z</time>
      </trkpt>
      <trkpt lat="45.364104" lon="5.682313">
        <ele>435.288628</ele>
        <time>2021-07-04T02:45:41.011Z</time>
      </trkpt>
      <trkpt lat="45.364052" lon="5.682250">
        <ele>435.440683</ele>
        <time>2021-07-04T02:45:43.396Z</time>
      </trkpt>
      <trkpt lat="45.363753" lon="5.681946">
        <ele>436.258880</ele>
        <time>2021-07-04T02:45:54.847Z</time>
      </trkpt>
      <trkpt lat="45.363466" lon="5.681638">
        <ele>437.059240</ele>
        <time>2021-07-04T02:46:05.796Z</time>
      </trkpt>
      <trkpt lat="45.363239" lon="5.681168">
        <ele>437.951516</ele>
        <time>2021-07-04T02:46:17.664Z</time>
      </trkpt>
      <trkpt lat="45.363005" lon="5.680568">
        <ele>439.043030</ele>
        <time>2021-07-04T02:46:32.653Z</time>
      </trkpt>
      <trkpt lat="45.362793" lon="5.679843">
        <ele>440.636322</ele>
        <time>2021-07-04T02:46:50.919Z</time>
      </trkpt>
      <trkpt lat="45.362787" lon="5.679553">
        <ele>441.224972</ele>
        <time>2021-07-04T02:46:57.987Z</time>
      </trkpt>
      <trkpt lat="45.362850" lon="5.679230">
        <ele>441.905105</ele>
        <time>2021-07-04T02:47:05.460Z</time>
      </trkpt>
      <trkpt lat="45.362876" lon="5.679140">
        <ele>442.102543</ele>
        <time>2021-07-04T02:47:07.909Z</time>
      </trkpt>
      <trkpt lat="45.362828" lon="5.679111">
        <ele>442.253124</ele>
        <time>2021-07-04T02:47:10.005Z</time>
      </trkpt>
      <trkpt lat="45.362730" lon="5.678901">
        <ele>442.764622</ele>
        <time>2021-07-04T02:47:15.735Z</time>
      </trkpt>
      <trkpt lat="45.362649" lon="5.678770">
        <ele>443.118680</ele>
        <time>2021-07-04T02:47:19.892Z</time>
      </trkpt>
      <trkpt lat="45.362548" lon="5.678667">
        <ele>443.477481</ele>
        <time>2021-07-04T02:47:24.713Z</time>
      </trkpt>
      <trkpt lat="45.361792" lon="5.678231">
        <ele>446.320090</ele>
        <time>2021-07-04T02:47:53.763Z</time>
      </trkpt>
      <trkpt lat="45.360929" lon="5.677080">
        <ele>450.729008</ele>
        <time>2021-07-04T02:48:39.273Z</time>
      </trkpt>
      <trkpt lat="45.360663" lon="5.676887">
        <ele>451.754799</ele>
        <time>2021-07-04T02:48:50.183Z</time>
      </trkpt>
      <trkpt lat="45.360327" lon="5.676686">
        <ele>452.992346</ele>
        <time>2021-07-04T02:49:03.173Z</time>
      </trkpt>
      <trkpt lat="45.359851" lon="5.676401">
        <ele>454.745770</ele>
        <time>2021-07-04T02:49:20.743Z</time>
      </trkpt>
      <trkpt lat="45.359707" lon="5.676315">
        <ele>455.276017</ele>
        <time>2021-07-04T02:49:26.322Z</time>
      </trkpt>
      <trkpt lat="45.358595" lon="5.675592">
        <ele>459.780748</ele>
        <time>2021-07-04T02:50:10.559Z</time>
      </trkpt>
      <trkpt lat="45.358346" lon="5.675483">
        <ele>460.792661</ele>
        <time>2021-07-04T02:50:20.245Z</time>
      </trkpt>
      <trkpt lat="45.358120" lon="5.675389">
        <ele>461.707238</ele>
        <time>2021-07-04T02:50:29.125Z</time>
      </trkpt>
      <trkpt lat="45.357807" lon="5.675184">
        <ele>463.045599</ele>
        <time>2021-07-04T02:50:42.229Z</time>
      </trkpt>
      <trkpt lat="45.356560" lon="5.674017">
        <ele>469.729403</ele>
        <time>2021-07-04T02:51:44.491Z</time>
      </trkpt>
      <trkpt lat="45.355611" lon="5.673303">
        <ele>473.942738</ele>
        <time>2021-07-04T02:52:26.565Z</time>
      </trkpt>
      <trkpt lat="45.355457" lon="5.673177">
        <ele>474.520126</ele>
        <time>2021-07-04T02:52:32.879Z</time>
      </trkpt>
      <trkpt lat="45.355379" lon="5.673116">
        <ele>474.809414</ele>
        <time>2021-07-04T02:52:35.932Z</time>
      </trkpt>
      <trkpt lat="45.355362" lon="5.673111">
        <ele>474.865838</ele>
        <time>2021-07-04T02:52:36.713Z</time>
      </trkpt>
      <trkpt lat="45.355294" lon="5.673047">
        <ele>475.130828</ele>
        <time>2021-07-04T02:52:39.809Z</time>
      </trkpt>
      <trkpt lat="45.355057" lon="5.672866">
        <ele>476.005084</ele>
        <time>2021-07-04T02:52:48.897Z</time>
      </trkpt>
      <trkpt lat="45.354895" lon="5.672754">
        <ele>476.590493</ele>
        <time>2021-07-04T02:52:55.217Z</time>
      </trkpt>
      <trkpt lat="45.354756" lon="5.672659">
        <ele>477.091697</ele>
        <time>2021-07-04T02:52:59.986Z</time>
      </trkpt>
      <trkpt lat="45.354359" lon="5.672386">
        <ele>478.395417</ele>
        <time>2021-07-04T02:53:14.048Z</time>
      </trkpt>
      <trkpt lat="45.353950" lon="5.672251">
        <ele>479.381813</ele>
        <time>2021-07-04T02:53:26.594Z</time>
      </trkpt>
      <trkpt lat="45.353487" lon="5.672168">
        <ele>480.478161</ele>
        <time>2021-07-04T02:53:40.396Z</time>
      </trkpt>
      <trkpt lat="45.353216" lon="5.672154">
        <ele>481.115255</ele>
        <time>2021-07-04T02:53:48.540Z</time>
      </trkpt>
      <trkpt lat="45.352966" lon="5.672123">
        <ele>481.704819</ele>
        <time>2021-07-04T02:53:56.623Z</time>
      </trkpt>
      <trkpt lat="45.352279" lon="5.671887">
        <ele>484.426306</ele>
        <time>2021-07-04T02:54:21.387Z</time>
      </trkpt>
      <trkpt lat="45.351864" lon="5.671584">
        <ele>486.597198</ele>
        <time>2021-07-04T02:54:39.823Z</time>
      </trkpt>
      <trkpt lat="45.351006" lon="5.670806">
        <ele>491.496259</ele>
        <time>2021-07-04T02:55:25.310Z</time>
      </trkpt>
      <trkpt lat="45.350810" lon="5.670618">
        <ele>492.862522</ele>
        <time>2021-07-04T02:55:37.169Z</time>
      </trkpt>
      <trkpt lat="45.350637" lon="5.670382">
        <ele>494.247782</ele>
        <time>2021-07-04T02:55:48.717Z</time>
      </trkpt>
      <trkpt lat="45.350482" lon="5.670051">
        <ele>495.863487</ele>
        <time>2021-07-04T02:56:01.310Z</time>
      </trkpt>
      <trkpt lat="45.350443" lon="5.669967">
        <ele>496.272444</ele>
        <time>2021-07-04T02:56:05.137Z</time>
      </trkpt>
      <trkpt lat="45.350110" lon="5.669324">
        <ele>499.516987</ele>
        <time>2021-07-04T02:56:29.750Z</time>
      </trkpt>
      <trkpt lat="45.350046" lon="5.669236">
        <ele>500.031410</ele>
        <time>2021-07-04T02:56:34.144Z</time>
      </trkpt>
      <trkpt lat="45.349961" lon="5.669120">
        <ele>500.712163</ele>
        <time>2021-07-04T02:56:39.685Z</time>
      </trkpt>
      <trkpt lat="45.349735" lon="5.668916">
        <ele>501.917481</ele>
        <time>2021-07-04T02:56:50.988Z</time>
      </trkpt>
      <trkpt lat="45.348939" lon="5.668469">
        <ele>505.464738</ele>
        <time>2021-07-04T02:57:24.150Z</time>
      </trkpt>
      <trkpt lat="45.348779" lon="5.668405">
        <ele>506.153681</ele>
        <time>2021-07-04T02:57:30.597Z</time>
      </trkpt>
      <trkpt lat="45.348771" lon="5.668402">
        <ele>506.187975</ele>
        <time>2021-07-04T02:57:31.055Z</time>
      </trkpt>
      <trkpt lat="45.347643" lon="5.668230">
        <ele>510.537037</ele>
        <time>2021-07-04T02:58:11.856Z</time>
      </trkpt>
      <trkpt lat="45.346517" lon="5.667734">
        <ele>514.698438</ele>
        <time>2021-07-04T02:58:54.267Z</time>
      </trkpt>
      <trkpt lat="45.345693" lon="5.667658">
        <ele>518.243339</ele>
        <time>2021-07-04T02:59:25.646Z</time>
      </trkpt>
      <trkpt lat="45.345409" lon="5.667576">
        <ele>519.500125</ele>
        <time>2021-07-04T02:59:36.978Z</time>
      </trkpt>
      <trkpt lat="45.343205" lon="5.666237">
        <ele>530.965955</ele>
        <time>2021-07-04T03:01:17.152Z</time>
      </trkpt>
      <trkpt lat="45.342678" lon="5.665595">
        <ele>534.718500</ele>
        <time>2021-07-04T03:01:47.857Z</time>
      </trkpt>
      <trkpt lat="45.341431" lon="5.664644">
        <ele>542.546079</ele>
        <time>2021-07-04T03:02:51.224Z</time>
      </trkpt>
      <trkpt lat="45.340947" lon="5.664119">
        <ele>546.015951</ele>
        <time>2021-07-04T03:03:18.596Z</time>
      </trkpt>
      <trkpt lat="45.340260" lon="5.663699">
        <ele>550.278945</ele>
        <time>2021-07-04T03:03:53.291Z</time>
      </trkpt>
      <trkpt lat="45.339881" lon="5.663312">
        <ele>552.641782</ele>
        <time>2021-07-04T03:04:13.916Z</time>
      </trkpt>
      <trkpt lat="45.339399" lon="5.662825">
        <ele>555.152402</ele>
        <time>2021-07-04T03:04:37.882Z</time>
      </trkpt>
      <trkpt lat="45.339288" lon="5.662730">
        <ele>555.702515</ele>
        <time>2021-07-04T03:04:43.039Z</time>
      </trkpt>
      <trkpt lat="45.339124" lon="5.662577">
        <ele>556.535374</ele>
        <time>2021-07-04T03:04:50.252Z</time>
      </trkpt>
      <trkpt lat="45.339062" lon="5.662517">
        <ele>556.853814</ele>
        <time>2021-07-04T03:04:53.294Z</time>
      </trkpt>
      <trkpt lat="45.339006" lon="5.662434">
        <ele>557.197242</ele>
        <time>2021-07-04T03:04:56.318Z</time>
      </trkpt>
      <trkpt lat="45.338743" lon="5.662151">
        <ele>558.597635</ele>
        <time>2021-07-04T03:05:08.414Z</time>
      </trkpt>
      <trkpt lat="45.338268" lon="5.661851">
        <ele>560.523328</ele>
        <time>2021-07-04T03:05:26.764Z</time>
      </trkpt>
      <trkpt lat="45.338183" lon="5.661818">
        <ele>560.821831</ele>
        <time>2021-07-04T03:05:29.826Z</time>
      </trkpt>
      <trkpt lat="45.338026" lon="5.661776">
        <ele>561.363055</ele>
        <time>2021-07-04T03:05:35.384Z</time>
      </trkpt>
      <trkpt lat="45.337672" lon="5.661684">
        <ele>562.582223</ele>
        <time>2021-07-04T03:05:47.072Z</time>
      </trkpt>
      <trkpt lat="45.337541" lon="5.661571">
        <ele>563.101251</ele>
        <time>2021-07-04T03:05:52.173Z</time>
      </trkpt>
      <trkpt lat="45.336739" lon="5.660226">
        <ele>567.954912</ele>
        <time>2021-07-04T03:06:38.985Z</time>
      </trkpt>
      <trkpt lat="45.336283" lon="5.659781">
        <ele>570.510480</ele>
        <time>2021-07-04T03:07:02.623Z</time>
      </trkpt>
      <trkpt lat="45.334868" lon="5.659254">
        <ele>577.247445</ele>
        <time>2021-07-04T03:08:03.829Z</time>
      </trkpt>
      <trkpt lat="45.333629" lon="5.659158">
        <ele>582.780208</ele>
        <time>2021-07-04T03:08:53.098Z</time>
      </trkpt>
      <trkpt lat="45.333456" lon="5.659133">
        <ele>583.427709</ele>
        <time>2021-07-04T03:08:59.708Z</time>
      </trkpt>
      <trkpt lat="45.333435" lon="5.659133">
        <ele>583.505905</ele>
        <time>2021-07-04T03:09:01.511Z</time>
      </trkpt>
      <trkpt lat="45.332585" lon="5.658846">
        <ele>586.758915</ele>
        <time>2021-07-04T03:09:34.282Z</time>
      </trkpt>
      <trkpt lat="45.331852" lon="5.658496">
        <ele>588.751548</ele>
        <time>2021-07-04T03:10:01.790Z</time>
      </trkpt>
      <trkpt lat="45.331733" lon="5.658488">
        <ele>588.739856</ele>
        <time>2021-07-04T03:10:05.386Z</time>
      </trkpt>
      <trkpt lat="45.331138" lon="5.658425">
        <ele>588.681300</ele>
        <time>2021-07-04T03:10:21.288Z</time>
      </trkpt>
      <trkpt lat="45.330476" lon="5.658229">
        <ele>588.614938</ele>
        <time>2021-07-04T03:10:34.120Z</time>
      </trkpt>
      <trkpt lat="45.330314" lon="5.658198">
        <ele>588.598895</ele>
        <time>2021-07-04T03:10:36.647Z</time>
      </trkpt>
      <trkpt lat="45.330109" lon="5.658191">
        <ele>587.364622</ele>
        <time>2021-07-04T03:10:40.163Z</time>
      </trkpt>
      <trkpt lat="45.330046" lon="5.658203">
        <ele>586.960145</ele>
        <time>2021-07-04T03:10:41.043Z</time>
      </trkpt>
      <trkpt lat="45.329883" lon="5.658255">
        <ele>585.897133</ele>
        <time>2021-07-04T03:10:43.517Z</time>
      </trkpt>
      <trkpt lat="45.329593" lon="5.658325">
        <ele>584.025346</ele>
        <time>2021-07-04T03:10:47.745Z</time>
      </trkpt>
      <trkpt lat="45.329429" lon="5.658301">
        <ele>582.976229</ele>
        <time>2021-07-04T03:10:50.320Z</time>
      </trkpt>
      <trkpt lat="45.329392" lon="5.658285">
        <ele>582.730140</ele>
        <time>2021-07-04T03:10:50.848Z</time>
      </trkpt>
      <trkpt lat="45.329356" lon="5.658260">
        <ele>582.475212</ele>
        <time>2021-07-04T03:10:51.371Z</time>
      </trkpt>
      <trkpt lat="45.328976" lon="5.657725">
        <ele>579.072880</ele>
        <time>2021-07-04T03:10:59.012Z</time>
      </trkpt>
      <trkpt lat="45.328800" lon="5.657577">
        <ele>577.771831</ele>
        <time>2021-07-04T03:11:01.878Z</time>
      </trkpt>
      <trkpt lat="45.328731" lon="5.657545">
        <ele>577.310002</ele>
        <time>2021-07-04T03:11:02.880Z</time>
      </trkpt>
      <trkpt lat="45.328471" lon="5.657376">
        <ele>574.834751</ele>
        <time>2021-07-04T03:11:06.890Z</time>
      </trkpt>
      <trkpt lat="45.328047" lon="5.657025">
        <ele>570.479859</ele>
        <time>2021-07-04T03:11:13.619Z</time>
      </trkpt>
      <trkpt lat="45.327820" lon="5.656912">
        <ele>568.344940</ele>
        <time>2021-07-04T03:11:17.005Z</time>
      </trkpt>
      <trkpt lat="45.327238" lon="5.656797">
        <ele>563.128917</ele>
        <time>2021-07-04T03:11:25.065Z</time>
      </trkpt>
      <trkpt lat="45.326958" lon="5.656781">
        <ele>560.597319</ele>
        <time>2021-07-04T03:11:28.940Z</time>
      </trkpt>
      <trkpt lat="45.326849" lon="5.656774">
        <ele>559.550380</ele>
        <time>2021-07-04T03:11:30.380Z</time>
      </trkpt>
      <trkpt lat="45.326221" lon="5.656601">
        <ele>553.412636</ele>
        <time>2021-07-04T03:11:39.173Z</time>
      </trkpt>
      <trkpt lat="45.326059" lon="5.656529">
        <ele>551.784098</ele>
        <time>2021-07-04T03:11:41.434Z</time>
      </trkpt>
      <trkpt lat="45.325991" lon="5.656498">
        <ele>551.098930</ele>
        <time>2021-07-04T03:11:42.453Z</time>
      </trkpt>
      <trkpt lat="45.325954" lon="5.656486">
        <ele>550.734796</ele>
        <time>2021-07-04T03:11:42.969Z</time>
      </trkpt>
      <trkpt lat="45.325739" lon="5.656356">
        <ele>548.493161</ele>
        <time>2021-07-04T03:11:46.115Z</time>
      </trkpt>
      <trkpt lat="45.325536" lon="5.656236">
        <ele>546.383812</ele>
        <time>2021-07-04T03:11:49.167Z</time>
      </trkpt>
      <trkpt lat="45.325437" lon="5.656178">
        <ele>545.356462</ele>
        <time>2021-07-04T03:11:50.575Z</time>
      </trkpt>
      <trkpt lat="45.324873" lon="5.655941">
        <ele>540.333012</ele>
        <time>2021-07-04T03:11:58.780Z</time>
      </trkpt>
      <trkpt lat="45.324263" lon="5.655407">
        <ele>534.470524</ele>
        <time>2021-07-04T03:12:08.680Z</time>
      </trkpt>
      <trkpt lat="45.323789" lon="5.655147">
        <ele>530.312515</ele>
        <time>2021-07-04T03:12:15.904Z</time>
      </trkpt>
      <trkpt lat="45.323271" lon="5.654560">
        <ele>526.028492</ele>
        <time>2021-07-04T03:12:25.512Z</time>
      </trkpt>
      <trkpt lat="45.322510" lon="5.654055">
        <ele>520.966303</ele>
        <time>2021-07-04T03:12:37.885Z</time>
      </trkpt>
      <trkpt lat="45.322074" lon="5.653894">
        <ele>518.273596</ele>
        <time>2021-07-04T03:12:44.512Z</time>
      </trkpt>
      <trkpt lat="45.321020" lon="5.653663">
        <ele>513.138498</ele>
        <time>2021-07-04T03:13:00.729Z</time>
      </trkpt>
      <trkpt lat="45.320925" lon="5.653642">
        <ele>512.675564</ele>
        <time>2021-07-04T03:13:02.187Z</time>
      </trkpt>
      <trkpt lat="45.320834" lon="5.653622">
        <ele>512.232182</ele>
        <time>2021-07-04T03:13:03.602Z</time>
      </trkpt>
      <trkpt lat="45.319110" lon="5.653052">
        <ele>503.868978</ele>
        <time>2021-07-04T03:13:30.898Z</time>
      </trkpt>
      <trkpt lat="45.318959" lon="5.653006">
        <ele>503.145185</ele>
        <time>2021-07-04T03:13:33.266Z</time>
      </trkpt>
      <trkpt lat="45.318768" lon="5.652983">
        <ele>502.246763</ele>
        <time>2021-07-04T03:13:36.171Z</time>
      </trkpt>
      <trkpt lat="45.318382" lon="5.652895">
        <ele>500.259001</ele>
        <time>2021-07-04T03:13:41.971Z</time>
      </trkpt>
      <trkpt lat="45.318197" lon="5.652821">
        <ele>499.195076</ele>
        <time>2021-07-04T03:13:44.831Z</time>
      </trkpt>
      <trkpt lat="45.317580" lon="5.652377">
        <ele>495.366881</ele>
        <time>2021-07-04T03:13:55.012Z</time>
      </trkpt>
      <trkpt lat="45.317130" lon="5.652116">
        <ele>492.676397</ele>
        <time>2021-07-04T03:14:02.212Z</time>
      </trkpt>
      <trkpt lat="45.316545" lon="5.651687">
        <ele>489.268852</ele>
        <time>2021-07-04T03:14:12.057Z</time>
      </trkpt>
      <trkpt lat="45.315892" lon="5.651329">
        <ele>485.795556</ele>
        <time>2021-07-04T03:14:22.498Z</time>
      </trkpt>
      <trkpt lat="45.315693" lon="5.651182">
        <ele>484.682634</ele>
        <time>2021-07-04T03:14:25.856Z</time>
      </trkpt>
      <trkpt lat="45.315558" lon="5.651074">
        <ele>483.913894</ele>
        <time>2021-07-04T03:14:28.423Z</time>
      </trkpt>
      <trkpt lat="45.315510" lon="5.651041">
        <ele>483.649294</ele>
        <time>2021-07-04T03:14:29.299Z</time>
      </trkpt>
      <trkpt lat="45.315471" lon="5.651014">
        <ele>483.434020</ele>
        <time>2021-07-04T03:14:29.999Z</time>
      </trkpt>
      <trkpt lat="45.315383" lon="5.650952">
        <ele>482.946619</ele>
        <time>2021-07-04T03:14:31.406Z</time>
      </trkpt>
      <trkpt lat="45.314209" lon="5.650096">
        <ele>477.999802</ele>
        <time>2021-07-04T03:14:52.396Z</time>
      </trkpt>
      <trkpt lat="45.313806" lon="5.649309">
        <ele>475.475978</ele>
        <time>2021-07-04T03:15:03.523Z</time>
      </trkpt>
      <trkpt lat="45.313298" lon="5.648465">
        <ele>472.346959</ele>
        <time>2021-07-04T03:15:16.232Z</time>
      </trkpt>
      <trkpt lat="45.312416" lon="5.648098">
        <ele>468.666239</ele>
        <time>2021-07-04T03:15:30.384Z</time>
      </trkpt>
      <trkpt lat="45.311890" lon="5.647714">
        <ele>465.284809</ele>
        <time>2021-07-04T03:15:39.221Z</time>
      </trkpt>
      <trkpt lat="45.311560" lon="5.647385">
        <ele>462.973372</ele>
        <time>2021-07-04T03:15:45.159Z</time>
      </trkpt>
      <trkpt lat="45.310634" lon="5.645656">
        <ele>453.660066</ele>
        <time>2021-07-04T03:16:07.520Z</time>
      </trkpt>
      <trkpt lat="45.310509" lon="5.645336">
        <ele>451.987411</ele>
        <time>2021-07-04T03:16:11.374Z</time>
      </trkpt>
      <trkpt lat="45.310244" lon="5.644305">
        <ele>446.971472</ele>
        <time>2021-07-04T03:16:22.402Z</time>
      </trkpt>
      <trkpt lat="45.310200" lon="5.644119">
        <ele>446.041025</ele>
        <time>2021-07-04T03:16:24.332Z</time>
      </trkpt>
      <trkpt lat="45.310177" lon="5.644036">
        <ele>445.609127</ele>
        <time>2021-07-04T03:16:25.260Z</time>
      </trkpt>
      <trkpt lat="45.310146" lon="5.643954">
        <ele>445.158415</ele>
        <time>2021-07-04T03:16:26.309Z</time>
      </trkpt>
      <trkpt lat="45.310103" lon="5.643865">
        <ele>444.635655</ele>
        <time>2021-07-04T03:16:27.455Z</time>
      </trkpt>
      <trkpt lat="45.310058" lon="5.643798">
        <ele>444.187125</ele>
        <time>2021-07-04T03:16:28.295Z</time>
      </trkpt>
      <trkpt lat="45.309646" lon="5.643476">
        <ele>440.950718</ele>
        <time>2021-07-04T03:16:35.172Z</time>
      </trkpt>
      <trkpt lat="45.309353" lon="5.643161">
        <ele>438.422065</ele>
        <time>2021-07-04T03:16:40.495Z</time>
      </trkpt>
      <trkpt lat="45.309260" lon="5.643001">
        <ele>437.417121</ele>
        <time>2021-07-04T03:16:42.764Z</time>
      </trkpt>
      <trkpt lat="45.309197" lon="5.642719">
        <ele>435.984619</ele>
        <time>2021-07-04T03:16:45.700Z</time>
      </trkpt>
      <trkpt lat="45.309201" lon="5.642414">
        <ele>434.507736</ele>
        <time>2021-07-04T03:16:48.882Z</time>
      </trkpt>
      <trkpt lat="45.309256" lon="5.642204">
        <ele>433.211343</ele>
        <time>2021-07-04T03:16:50.975Z</time>
      </trkpt>
      <trkpt lat="45.309516" lon="5.641608">
        <ele>428.957872</ele>
        <time>2021-07-04T03:16:58.151Z</time>
      </trkpt>
      <trkpt lat="45.309826" lon="5.641129">
        <ele>425.010056</ele>
        <time>2021-07-04T03:17:04.635Z</time>
      </trkpt>
      <trkpt lat="45.309858" lon="5.640897">
        <ele>423.576254</ele>
        <time>2021-07-04T03:17:06.833Z</time>
      </trkpt>
      <trkpt lat="45.309822" lon="5.640645">
        <ele>422.016752</ele>
        <time>2021-07-04T03:17:09.468Z</time>
      </trkpt>
      <trkpt lat="45.309799" lon="5.640550">
        <ele>421.407427</ele>
        <time>2021-07-04T03:17:10.443Z</time>
      </trkpt>
      <trkpt lat="45.309768" lon="5.640459">
        <ele>420.794207</ele>
        <time>2021-07-04T03:17:11.347Z</time>
      </trkpt>
      <trkpt lat="45.309641" lon="5.640210">
        <ele>418.928780</ele>
        <time>2021-07-04T03:17:14.433Z</time>
      </trkpt>
      <trkpt lat="45.309115" lon="5.639673">
        <ele>411.599980</ele>
        <time>2021-07-04T03:17:23.075Z</time>
      </trkpt>
      <trkpt lat="45.308160" lon="5.638184">
        <ele>395.865456</ele>
        <time>2021-07-04T03:17:41.962Z</time>
      </trkpt>
      <trkpt lat="45.307875" lon="5.637651">
        <ele>391.324570</ele>
        <time>2021-07-04T03:17:48.447Z</time>
      </trkpt>
      <trkpt lat="45.307480" lon="5.637362">
        <ele>387.040855</ele>
        <time>2021-07-04T03:17:54.525Z</time>
      </trkpt>
      <trkpt lat="45.306579" lon="5.636881">
        <ele>377.771352</ele>
        <time>2021-07-04T03:18:07.856Z</time>
      </trkpt>
      <trkpt lat="45.306436" lon="5.636641">
        <ele>375.645659</ele>
        <time>2021-07-04T03:18:10.960Z</time>
      </trkpt>
      <trkpt lat="45.306398" lon="5.636523">
        <ele>374.768603</ele>
        <time>2021-07-04T03:18:12.267Z</time>
      </trkpt>
      <trkpt lat="45.306330" lon="5.636393">
        <ele>373.673732</ele>
        <time>2021-07-04T03:18:13.792Z</time>
      </trkpt>
      <trkpt lat="45.306159" lon="5.636291">
        <ele>371.891910</ele>
        <time>2021-07-04T03:18:16.450Z</time>
      </trkpt>
      <trkpt lat="45.305660" lon="5.636256">
        <ele>367.091337</ele>
        <time>2021-07-04T03:18:23.141Z</time>
      </trkpt>
      <trkpt lat="45.305195" lon="5.635977">
        <ele>362.181793</ele>
        <time>2021-07-04T03:18:29.953Z</time>
      </trkpt>
      <trkpt lat="45.304719" lon="5.636008">
        <ele>357.401794</ele>
        <time>2021-07-04T03:18:36.411Z</time>
      </trkpt>
      <trkpt lat="45.304559" lon="5.636016">
        <ele>355.795762</ele>
        <time>2021-07-04T03:18:38.544Z</time>
      </trkpt>
      <trkpt lat="45.304423" lon="5.635967">
        <ele>354.388356</ele>
        <time>2021-07-04T03:18:40.496Z</time>
      </trkpt>
      <trkpt lat="45.304261" lon="5.635867">
        <ele>352.616699</ele>
        <time>2021-07-04T03:18:42.894Z</time>
      </trkpt>
      <trkpt lat="45.303853" lon="5.635421">
        <ele>347.453973</ele>
        <time>2021-07-04T03:18:49.939Z</time>
      </trkpt>
      <trkpt lat="45.303711" lon="5.635354">
        <ele>345.953109</ele>
        <time>2021-07-04T03:18:51.977Z</time>
      </trkpt>
      <trkpt lat="45.302529" lon="5.635392">
        <ele>334.940088</ele>
        <time>2021-07-04T03:19:08.158Z</time>
      </trkpt>
      <trkpt lat="45.301291" lon="5.635034">
        <ele>324.780525</ele>
        <time>2021-07-04T03:19:25.576Z</time>
      </trkpt>
      <trkpt lat="45.300897" lon="5.634804">
        <ele>321.928724</ele>
        <time>2021-07-04T03:19:31.730Z</time>
      </trkpt>
      <trkpt lat="45.300819" lon="5.634711">
        <ele>321.247114</ele>
        <time>2021-07-04T03:19:33.087Z</time>
      </trkpt>
      <trkpt lat="45.300756" lon="5.634697">
        <ele>320.820168</ele>
        <time>2021-07-04T03:19:34.413Z</time>
      </trkpt>
      <trkpt lat="45.300653" lon="5.634814">
        <ele>319.937421</ele>
        <time>2021-07-04T03:19:36.465Z</time>
      </trkpt>
      <trkpt lat="45.300668" lon="5.634956">
        <ele>319.261156</ele>
        <time>2021-07-04T03:19:37.934Z</time>
      </trkpt>
      <trkpt lat="45.301428" lon="5.635386">
        <ele>315.386529</ele>
        <time>2021-07-04T03:19:50.802Z</time>
      </trkpt>
      <trkpt lat="45.302000" lon="5.636000">
        <ele>313.130492</ele>
        <time>2021-07-04T03:20:03.163Z</time>
      </trkpt>
      <trkpt lat="45.302499" lon="5.636103">
        <ele>311.543324</ele>
        <time>2021-07-04T03:20:11.445Z</time>
      </trkpt>
      <trkpt lat="45.302701" lon="5.636207">
        <ele>310.831919</ele>
        <time>2021-07-04T03:20:15.048Z</time>
      </trkpt>
      <trkpt lat="45.302783" lon="5.636398">
        <ele>310.274134</ele>
        <time>2021-07-04T03:20:17.467Z</time>
      </trkpt>
      <trkpt lat="45.302844" lon="5.636751">
        <ele>309.368052</ele>
        <time>2021-07-04T03:20:21.794Z</time>
      </trkpt>
      <trkpt lat="45.302892" lon="5.636856">
        <ele>309.055898</ele>
        <time>2021-07-04T03:20:23.077Z</time>
      </trkpt>
      <trkpt lat="45.303041" lon="5.637075">
        <ele>308.296400</ele>
        <time>2021-07-04T03:20:26.688Z</time>
      </trkpt>
      <trkpt lat="45.303126" lon="5.637244">
        <ele>307.778517</ele>
        <time>2021-07-04T03:20:28.951Z</time>
      </trkpt>
      <trkpt lat="45.303242" lon="5.637896">
        <ele>306.102115</ele>
        <time>2021-07-04T03:20:36.645Z</time>
      </trkpt>
      <trkpt lat="45.303242" lon="5.637987">
        <ele>305.875283</ele>
        <time>2021-07-04T03:20:37.620Z</time>
      </trkpt>
      <trkpt lat="45.303239" lon="5.638196">
        <ele>305.354210</ele>
        <time>2021-07-04T03:20:39.964Z</time>
      </trkpt>
      <trkpt lat="45.303243" lon="5.638356">
        <ele>304.955133</ele>
        <time>2021-07-04T03:20:41.807Z</time>
      </trkpt>
      <trkpt lat="45.303290" lon="5.638568">
        <ele>304.249928</ele>
        <time>2021-07-04T03:20:44.322Z</time>
      </trkpt>
      <trkpt lat="45.303693" lon="5.638846">
        <ele>302.015888</ele>
        <time>2021-07-04T03:20:51.188Z</time>
      </trkpt>
      <trkpt lat="45.303724" lon="5.638961">
        <ele>301.583863</ele>
        <time>2021-07-04T03:20:52.786Z</time>
      </trkpt>
      <trkpt lat="45.303722" lon="5.639000">
        <ele>301.446690</ele>
        <time>2021-07-04T03:20:53.179Z</time>
      </trkpt>
      <trkpt lat="45.303667" lon="5.639119">
        <ele>300.947184</ele>
        <time>2021-07-04T03:20:54.637Z</time>
      </trkpt>
      <trkpt lat="45.303507" lon="5.639151">
        <ele>300.141332</ele>
        <time>2021-07-04T03:20:57.220Z</time>
      </trkpt>
      <trkpt lat="45.303127" lon="5.638803">
        <ele>297.886957</ele>
        <time>2021-07-04T03:21:04.077Z</time>
      </trkpt>
      <trkpt lat="45.302836" lon="5.638672">
        <ele>296.364587</ele>
        <time>2021-07-04T03:21:08.670Z</time>
      </trkpt>
      <trkpt lat="45.302619" lon="5.638586">
        <ele>294.863309</ele>
        <time>2021-07-04T03:21:11.883Z</time>
      </trkpt>
      <trkpt lat="45.301896" lon="5.638311">
        <ele>288.614394</ele>
        <time>2021-07-04T03:21:22.346Z</time>
      </trkpt>
      <trkpt lat="45.301150" lon="5.638164">
        <ele>282.326198</ele>
        <time>2021-07-04T03:21:32.604Z</time>
      </trkpt>
      <trkpt lat="45.300566" lon="5.638037">
        <ele>277.479837</ele>
        <time>2021-07-04T03:21:40.853Z</time>
      </trkpt>
      <trkpt lat="45.300385" lon="5.638004">
        <ele>275.995048</ele>
        <time>2021-07-04T03:21:43.451Z</time>
      </trkpt>
      <trkpt lat="45.300323" lon="5.637993">
        <ele>275.486664</ele>
        <time>2021-07-04T03:21:44.348Z</time>
      </trkpt>
      <trkpt lat="45.300248" lon="5.637992">
        <ele>274.876391</ele>
        <time>2021-07-04T03:21:45.389Z</time>
      </trkpt>
      <trkpt lat="45.300110" lon="5.637999">
        <ele>273.752823</ele>
        <time>2021-07-04T03:21:47.356Z</time>
      </trkpt>
      <trkpt lat="45.299547" lon="5.638081">
        <ele>269.147930</ele>
        <time>2021-07-04T03:21:55.211Z</time>
      </trkpt>
      <trkpt lat="45.299088" lon="5.638023">
        <ele>265.442884</ele>
        <time>2021-07-04T03:22:01.668Z</time>
      </trkpt>
      <trkpt lat="45.298810" lon="5.637914">
        <ele>263.235233</ele>
        <time>2021-07-04T03:22:05.758Z</time>
      </trkpt>
      <trkpt lat="45.298673" lon="5.637743">
        <ele>261.839578</ele>
        <time>2021-07-04T03:22:08.301Z</time>
      </trkpt>
      <trkpt lat="45.298605" lon="5.637615">
        <ele>260.975822</ele>
        <time>2021-07-04T03:22:09.901Z</time>
      </trkpt>
      <trkpt lat="45.298540" lon="5.637480">
        <ele>260.094871</ele>
        <time>2021-07-04T03:22:11.667Z</time>
      </trkpt>
      <trkpt lat="45.298505" lon="5.637409">
        <ele>259.628003</ele>
        <time>2021-07-04T03:22:12.536Z</time>
      </trkpt>
      <trkpt lat="45.298441" lon="5.637279">
        <ele>258.773546</ele>
        <time>2021-07-04T03:22:14.069Z</time>
      </trkpt>
      <trkpt lat="45.298351" lon="5.637088">
        <ele>257.535586</ele>
        <time>2021-07-04T03:22:16.461Z</time>
      </trkpt>
      <trkpt lat="45.298220" lon="5.636814">
        <ele>255.751568</ele>
        <time>2021-07-04T03:22:19.717Z</time>
      </trkpt>
      <trkpt lat="45.298189" lon="5.636749">
        <ele>255.328681</ele>
        <time>2021-07-04T03:22:20.512Z</time>
      </trkpt>
      <trkpt lat="45.298146" lon="5.636638">
        <ele>254.646305</ele>
        <time>2021-07-04T03:22:21.855Z</time>
      </trkpt>
      <trkpt lat="45.298124" lon="5.636559">
        <ele>254.188770</ele>
        <time>2021-07-04T03:22:22.708Z</time>
      </trkpt>
      <trkpt lat="45.298108" lon="5.636503">
        <ele>253.863288</ele>
        <time>2021-07-04T03:22:23.271Z</time>
      </trkpt>
      <trkpt lat="45.298088" lon="5.636429">
        <ele>253.436401</ele>
        <time>2021-07-04T03:22:24.044Z</time>
      </trkpt>
      <trkpt lat="45.298083" lon="5.636376">
        <ele>253.148444</ele>
        <time>2021-07-04T03:22:24.569Z</time>
      </trkpt>
      <trkpt lat="45.298073" lon="5.636347">
        <ele>252.974526</ele>
        <time>2021-07-04T03:22:24.884Z</time>
      </trkpt>
      <trkpt lat="45.298065" lon="5.636330">
        <ele>252.864386</ele>
        <time>2021-07-04T03:22:25.086Z</time>
      </trkpt>
      <trkpt lat="45.298063" lon="5.636194">
        <ele>252.154084</ele>
        <time>2021-07-04T03:22:26.496Z</time>
      </trkpt>
      <trkpt lat="45.298040" lon="5.636119">
        <ele>251.752993</ele>
        <time>2021-07-04T03:22:27.323Z</time>
      </trkpt>
      <trkpt lat="45.298046" lon="5.636075">
        <ele>251.533278</ele>
        <time>2021-07-04T03:22:27.774Z</time>
      </trkpt>
      <trkpt lat="45.297993" lon="5.636053">
        <ele>251.148488</ele>
        <time>2021-07-04T03:22:28.544Z</time>
      </trkpt>
      <trkpt lat="45.297631" lon="5.635666">
        <ele>247.991902</ele>
        <time>2021-07-04T03:22:35.171Z</time>
      </trkpt>
      <trkpt lat="45.297178" lon="5.634903">
        <ele>243.097214</ele>
        <time>2021-07-04T03:22:45.846Z</time>
      </trkpt>
      <trkpt lat="45.296998" lon="5.634600">
        <ele>241.152968</ele>
        <time>2021-07-04T03:22:49.903Z</time>
      </trkpt>
      <trkpt lat="45.296904" lon="5.634443">
        <ele>240.142250</ele>
        <time>2021-07-04T03:22:51.991Z</time>
      </trkpt>
      <trkpt lat="45.296888" lon="5.634461">
        <ele>240.000051</ele>
        <time>2021-07-04T03:22:52.531Z</time>
      </trkpt>
      <trkpt lat="45.296747" lon="5.634641">
        <ele>238.868467</ele>
        <time>2021-07-04T03:22:57.818Z</time>
      </trkpt>
      <trkpt lat="45.296739" lon="5.634655">
        <ele>238.794395</ele>
        <time>2021-07-04T03:22:58.168Z</time>
      </trkpt>
      <trkpt lat="45.296726" lon="5.634636">
        <ele>238.685546</ele>
        <time>2021-07-04T03:22:58.420Z</time>
      </trkpt>
      <trkpt lat="45.296411" lon="5.634082">
        <ele>235.760154</ele>
        <time>2021-07-04T03:23:06.272Z</time>
      </trkpt>
      <trkpt lat="45.296253" lon="5.633817">
        <ele>234.333557</ele>
        <time>2021-07-04T03:23:10.001Z</time>
      </trkpt>
      <trkpt lat="45.296150" lon="5.633659">
        <ele>233.448910</ele>
        <time>2021-07-04T03:23:12.325Z</time>
      </trkpt>
      <trkpt lat="45.295717" lon="5.632910">
        <ele>229.467518</ele>
        <time>2021-07-04T03:23:22.940Z</time>
      </trkpt>
      <trkpt lat="45.295484" lon="5.632329">
        <ele>226.988968</ele>
        <time>2021-07-04T03:23:30.278Z</time>
      </trkpt>
      <trkpt lat="45.295446" lon="5.632238">
        <ele>226.598766</ele>
        <time>2021-07-04T03:23:31.393Z</time>
      </trkpt>
      <trkpt lat="45.295340" lon="5.631970">
        <ele>225.465104</ele>
        <time>2021-07-04T03:23:34.753Z</time>
      </trkpt>
      <trkpt lat="45.295108" lon="5.631217">
        <ele>222.433994</ele>
        <time>2021-07-04T03:23:44.047Z</time>
      </trkpt>
      <trkpt lat="45.294994" lon="5.630891">
        <ele>221.091625</ele>
        <time>2021-07-04T03:23:48.081Z</time>
      </trkpt>
      <trkpt lat="45.294950" lon="5.630662">
        <ele>220.216316</ele>
        <time>2021-07-04T03:23:50.686Z</time>
      </trkpt>
      <trkpt lat="45.294843" lon="5.630147">
        <ele>218.662669</ele>
        <time>2021-07-04T03:23:56.659Z</time>
      </trkpt>
      <trkpt lat="45.294659" lon="5.629827">
        <ele>217.525499</ele>
        <time>2021-07-04T03:24:01.474Z</time>
      </trkpt>
      <trkpt lat="45.294573" lon="5.629686">
        <ele>217.012025</ele>
        <time>2021-07-04T03:24:03.602Z</time>
      </trkpt>
      <trkpt lat="45.294574" lon="5.629403">
        <ele>216.233353</ele>
        <time>2021-07-04T03:24:06.937Z</time>
      </trkpt>
      <trkpt lat="45.294567" lon="5.629340">
        <ele>216.057862</ele>
        <time>2021-07-04T03:24:07.674Z</time>
      </trkpt>
      <trkpt lat="45.294559" lon="5.629283">
        <ele>215.897938</ele>
        <time>2021-07-04T03:24:08.335Z</time>
      </trkpt>
      <trkpt lat="45.294583" lon="5.629210">
        <ele>215.676229</ele>
        <time>2021-07-04T03:24:09.289Z</time>
      </trkpt>
      <trkpt lat="45.294601" lon="5.629199">
        <ele>215.599595</ele>
        <time>2021-07-04T03:24:09.595Z</time>
      </trkpt>
      <trkpt lat="45.294595" lon="5.629186">
        <ele>215.556815</ele>
        <time>2021-07-04T03:24:09.766Z</time>
      </trkpt>
      <trkpt lat="45.294559" lon="5.629134">
        <ele>215.356073</ele>
        <time>2021-07-04T03:24:10.598Z</time>
      </trkpt>
      <trkpt lat="45.294442" lon="5.629117">
        <ele>214.896066</ele>
        <time>2021-07-04T03:24:12.466Z</time>
      </trkpt>
      <trkpt lat="45.292573" lon="5.630136">
        <ele>208.557655</ele>
        <time>2021-07-04T03:24:45.463Z</time>
      </trkpt>
      <trkpt lat="45.292536" lon="5.630196">
        <ele>208.394410</ele>
        <time>2021-07-04T03:24:46.332Z</time>
      </trkpt>
      <trkpt lat="45.292454" lon="5.630287">
        <ele>208.091858</ele>
        <time>2021-07-04T03:24:48.213Z</time>
      </trkpt>
      <trkpt lat="45.292432" lon="5.630252">
        <ele>207.995828</ele>
        <time>2021-07-04T03:24:48.728Z</time>
      </trkpt>
      <trkpt lat="45.291535" lon="5.631122">
        <ele>205.610484</ele>
        <time>2021-07-04T03:25:07.408Z</time>
      </trkpt>
      <trkpt lat="45.291123" lon="5.631945">
        <ele>204.111684</ele>
        <time>2021-07-04T03:25:20.088Z</time>
      </trkpt>
      <trkpt lat="45.290881" lon="5.632285">
        <ele>203.501180</ele>
        <time>2021-07-04T03:25:26.380Z</time>
      </trkpt>
      <trkpt lat="45.290743" lon="5.632372">
        <ele>203.256541</ele>
        <time>2021-07-04T03:25:29.064Z</time>
      </trkpt>
      <trkpt lat="45.290540" lon="5.632562">
        <ele>202.862666</ele>
        <time>2021-07-04T03:25:33.528Z</time>
      </trkpt>
      <trkpt lat="45.290469" lon="5.632650">
        <ele>202.710013</ele>
        <time>2021-07-04T03:25:35.215Z</time>
      </trkpt>
      <trkpt lat="45.290445" lon="5.632686">
        <ele>202.653470</ele>
        <time>2021-07-04T03:25:35.829Z</time>
      </trkpt>
      <trkpt lat="45.290176" lon="5.632928">
        <ele>202.137581</ele>
        <time>2021-07-04T03:25:41.666Z</time>
      </trkpt>
      <trkpt lat="45.289577" lon="5.633463">
        <ele>200.991171</ele>
        <time>2021-07-04T03:25:54.563Z</time>
      </trkpt>
      <trkpt lat="45.289478" lon="5.633533">
        <ele>200.808956</ele>
        <time>2021-07-04T03:25:56.497Z</time>
      </trkpt>
      <trkpt lat="45.289290" lon="5.633590">
        <ele>200.490176</ele>
        <time>2021-07-04T03:26:00.085Z</time>
      </trkpt>
      <trkpt lat="45.288891" lon="5.633557">
        <ele>199.827381</ele>
        <time>2021-07-04T03:26:07.402Z</time>
      </trkpt>
      <trkpt lat="45.288716" lon="5.633601">
        <ele>199.532668</ele>
        <time>2021-07-04T03:26:10.576Z</time>
      </trkpt>
      <trkpt lat="45.286849" lon="5.634910">
        <ele>196.174035</ele>
        <time>2021-07-04T03:26:47.985Z</time>
      </trkpt>
      <trkpt lat="45.286385" lon="5.635218">
        <ele>195.367128</ele>
        <time>2021-07-04T03:26:57.368Z</time>
      </trkpt>
      <trkpt lat="45.285416" lon="5.635839">
        <ele>194.627279</ele>
        <time>2021-07-04T03:27:17.825Z</time>
      </trkpt>
      <trkpt lat="45.284230" lon="5.636606">
        <ele>194.262069</ele>
        <time>2021-07-04T03:27:46.821Z</time>
      </trkpt>
      <trkpt lat="45.283964" lon="5.636840">
        <ele>194.354042</ele>
        <time>2021-07-04T03:27:54.251Z</time>
      </trkpt>
      <trkpt lat="45.283908" lon="5.636872">
        <ele>194.371788</ele>
        <time>2021-07-04T03:27:55.738Z</time>
      </trkpt>
      <trkpt lat="45.283861" lon="5.636763">
        <ele>194.398233</ele>
        <time>2021-07-04T03:27:58.099Z</time>
      </trkpt>
      <trkpt lat="45.283612" lon="5.636263">
        <ele>194.524949</ele>
        <time>2021-07-04T03:28:08.903Z</time>
      </trkpt>
      <trkpt lat="45.283194" lon="5.635643">
        <ele>194.639461</ele>
        <time>2021-07-04T03:28:23.961Z</time>
      </trkpt>
      <trkpt lat="45.282461" lon="5.634407">
        <ele>194.340379</ele>
        <time>2021-07-04T03:28:49.419Z</time>
      </trkpt>
      <trkpt lat="45.281687" lon="5.633222">
        <ele>193.865142</ele>
        <time>2021-07-04T03:29:13.403Z</time>
      </trkpt>
      <trkpt lat="45.281623" lon="5.633125">
        <ele>193.812601</ele>
        <time>2021-07-04T03:29:15.321Z</time>
      </trkpt>
      <trkpt lat="45.281606" lon="5.633099">
        <ele>193.798577</ele>
        <time>2021-07-04T03:29:15.833Z</time>
      </trkpt>
      <trkpt lat="45.281348" lon="5.633024">
        <ele>193.650699</ele>
        <time>2021-07-04T03:29:21.332Z</time>
      </trkpt>
      <trkpt lat="45.280617" lon="5.632631">
        <ele>193.211822</ele>
        <time>2021-07-04T03:29:37.812Z</time>
      </trkpt>
      <trkpt lat="45.279365" lon="5.631760">
        <ele>193.132585</ele>
        <time>2021-07-04T03:30:09.826Z</time>
      </trkpt>
      <trkpt lat="45.279270" lon="5.631746">
        <ele>193.128782</ele>
        <time>2021-07-04T03:30:12.042Z</time>
      </trkpt>
      <trkpt lat="45.277355" lon="5.632435">
        <ele>193.605729</ele>
        <time>2021-07-04T03:30:59.789Z</time>
      </trkpt>
      <trkpt lat="45.274463" lon="5.633322">
        <ele>194.940754</ele>
        <time>2021-07-04T03:32:15.537Z</time>
      </trkpt>
      <trkpt lat="45.273550" lon="5.633473">
        <ele>195.121689</ele>
        <time>2021-07-04T03:32:36.300Z</time>
      </trkpt>
      <trkpt lat="45.273528" lon="5.633477">
        <ele>195.117977</ele>
        <time>2021-07-04T03:32:36.773Z</time>
      </trkpt>
      <trkpt lat="45.273498" lon="5.633483">
        <ele>195.112908</ele>
        <time>2021-07-04T03:32:37.425Z</time>
      </trkpt>
      <trkpt lat="45.273457" lon="5.633152">
        <ele>195.073329</ele>
        <time>2021-07-04T03:32:42.389Z</time>
      </trkpt>
      <trkpt lat="45.273156" lon="5.630564">
        <ele>195.151378</ele>
        <time>2021-07-04T03:33:22.150Z</time>
      </trkpt>
      <trkpt lat="45.273016" lon="5.628663">
        <ele>196.112308</ele>
        <time>2021-07-04T03:33:57.419Z</time>
      </trkpt>
      <trkpt lat="45.273006" lon="5.628522">
        <ele>196.203241</ele>
        <time>2021-07-04T03:34:00.446Z</time>
      </trkpt>
      <trkpt lat="45.273006" lon="5.628522">
        <ele>196.203241</ele>
        <time>2021-07-04T03:34:00.457Z</time>
      </trkpt>
      <trkpt lat="45.273006" lon="5.628522">
        <ele>196.203241</ele>
        <time>2021-07-04T03:34:00.487Z</time>
      </trkpt>
      <trkpt lat="45.273001" lon="5.628447">
        <ele>196.253390</ele>
        <time>2021-07-04T03:34:01.881Z</time>
      </trkpt>
      <trkpt lat="45.272998" lon="5.628393">
        <ele>196.289448</ele>
        <time>2021-07-04T03:34:03.018Z</time>
      </trkpt>
      <trkpt lat="45.272918" lon="5.628079">
        <ele>196.511744</ele>
        <time>2021-07-04T03:34:09.724Z</time>
      </trkpt>
      <trkpt lat="45.272835" lon="5.627866">
        <ele>196.673818</ele>
        <time>2021-07-04T03:34:14.007Z</time>
      </trkpt>
      <trkpt lat="45.272832" lon="5.627596">
        <ele>196.853571</ele>
        <time>2021-07-04T03:34:19.408Z</time>
      </trkpt>
      <trkpt lat="45.272951" lon="5.627250">
        <ele>197.109928</ele>
        <time>2021-07-04T03:34:25.973Z</time>
      </trkpt>
      <trkpt lat="45.273005" lon="5.627193">
        <ele>197.173558</ele>
        <time>2021-07-04T03:34:28.243Z</time>
      </trkpt>
      <trkpt lat="45.273049" lon="5.627169">
        <ele>197.218140</ele>
        <time>2021-07-04T03:34:29.260Z</time>
      </trkpt>
      <trkpt lat="45.273089" lon="5.627134">
        <ele>197.262574</ele>
        <time>2021-07-04T03:34:30.338Z</time>
      </trkpt>
      <trkpt lat="45.273122" lon="5.627087">
        <ele>197.306769</ele>
        <time>2021-07-04T03:34:31.605Z</time>
      </trkpt>
      <trkpt lat="45.273147" lon="5.627031">
        <ele>197.350915</ele>
        <time>2021-07-04T03:34:32.595Z</time>
      </trkpt>
      <trkpt lat="45.273157" lon="5.626773">
        <ele>197.522917</ele>
        <time>2021-07-04T03:34:37.641Z</time>
      </trkpt>
      <trkpt lat="45.273136" lon="5.626714">
        <ele>197.566930</ele>
        <time>2021-07-04T03:34:38.629Z</time>
      </trkpt>
      <trkpt lat="45.273107" lon="5.626663">
        <ele>197.610576</ele>
        <time>2021-07-04T03:34:39.753Z</time>
      </trkpt>
      <trkpt lat="45.272937" lon="5.626570">
        <ele>197.782887</ele>
        <time>2021-07-04T03:34:44.128Z</time>
      </trkpt>
      <trkpt lat="45.272891" lon="5.626581">
        <ele>197.823913</ele>
        <time>2021-07-04T03:34:45.684Z</time>
      </trkpt>
      <trkpt lat="45.272789" lon="5.626561">
        <ele>197.815095</ele>
        <time>2021-07-04T03:34:48.164Z</time>
      </trkpt>
      <trkpt lat="45.272709" lon="5.626504">
        <ele>197.807431</ele>
        <time>2021-07-04T03:34:50.237Z</time>
      </trkpt>
      <trkpt lat="45.272639" lon="5.626405">
        <ele>197.798973</ele>
        <time>2021-07-04T03:34:52.497Z</time>
      </trkpt>
      <trkpt lat="45.272620" lon="5.626306">
        <ele>197.792788</ele>
        <time>2021-07-04T03:34:54.711Z</time>
      </trkpt>
      <trkpt lat="45.272450" lon="5.625592">
        <ele>197.747360</ele>
        <time>2021-07-04T03:35:06.724Z</time>
      </trkpt>
      <trkpt lat="45.272435" lon="5.625509">
        <ele>197.742195</ele>
        <time>2021-07-04T03:35:07.851Z</time>
      </trkpt>
      <trkpt lat="45.272242" lon="5.624790">
        <ele>197.695817</ele>
        <time>2021-07-04T03:35:19.012Z</time>
      </trkpt>
      <trkpt lat="45.272232" lon="5.624546">
        <ele>197.681086</ele>
        <time>2021-07-04T03:35:22.457Z</time>
      </trkpt>
      <trkpt lat="45.272242" lon="5.624323">
        <ele>197.656293</ele>
        <time>2021-07-04T03:35:25.671Z</time>
      </trkpt>
      <trkpt lat="45.272256" lon="5.624238">
        <ele>197.627324</ele>
        <time>2021-07-04T03:35:26.965Z</time>
      </trkpt>
      <trkpt lat="45.272301" lon="5.624162">
        <ele>197.594365</ele>
        <time>2021-07-04T03:35:28.414Z</time>
      </trkpt>
      <trkpt lat="45.272326" lon="5.623970">
        <ele>197.529570</ele>
        <time>2021-07-04T03:35:31.154Z</time>
      </trkpt>
      <trkpt lat="45.272249" lon="5.623782">
        <ele>197.457387</ele>
        <time>2021-07-04T03:35:34.345Z</time>
      </trkpt>
      <trkpt lat="45.272171" lon="5.623729">
        <ele>197.416618</ele>
        <time>2021-07-04T03:35:36.132Z</time>
      </trkpt>
      <trkpt lat="45.272183" lon="5.623686">
        <ele>197.401267</ele>
        <time>2021-07-04T03:35:36.955Z</time>
      </trkpt>
      <trkpt lat="45.272195" lon="5.623487">
        <ele>197.334988</ele>
        <time>2021-07-04T03:35:40.848Z</time>
      </trkpt>
      <trkpt lat="45.272132" lon="5.623262">
        <ele>197.254631</ele>
        <time>2021-07-04T03:35:45.654Z</time>
      </trkpt>
      <trkpt lat="45.271965" lon="5.623208">
        <ele>197.173870</ele>
        <time>2021-07-04T03:35:50.279Z</time>
      </trkpt>
      <trkpt lat="45.271804" lon="5.622524">
        <ele>196.934528</ele>
        <time>2021-07-04T03:36:04.419Z</time>
      </trkpt>
      <trkpt lat="45.272014" lon="5.622363">
        <ele>196.822010</ele>
        <time>2021-07-04T03:36:09.334Z</time>
      </trkpt>
      <trkpt lat="45.272485" lon="5.622072">
        <ele>196.885995</ele>
        <time>2021-07-04T03:36:20.228Z</time>
      </trkpt>
      <trkpt lat="45.272726" lon="5.621939">
        <ele>196.918213</ele>
        <time>2021-07-04T03:36:25.868Z</time>
      </trkpt>
      <trkpt lat="45.273558" lon="5.621587">
        <ele>197.026396</ele>
        <time>2021-07-04T03:36:45.868Z</time>
      </trkpt>
      <trkpt lat="45.274652" lon="5.621359">
        <ele>197.944564</ele>
        <time>2021-07-04T03:37:14.648Z</time>
      </trkpt>
      <trkpt lat="45.275780" lon="5.621425">
        <ele>198.961729</ele>
        <time>2021-07-04T03:37:44.716Z</time>
      </trkpt>
      <trkpt lat="45.276323" lon="5.621220">
        <ele>199.386115</ele>
        <time>2021-07-04T03:37:59.476Z</time>
      </trkpt>
      <trkpt lat="45.278548" lon="5.620708">
        <ele>200.451740</ele>
        <time>2021-07-04T03:38:54.259Z</time>
      </trkpt>
      <trkpt lat="45.281106" lon="5.620539">
        <ele>199.738497</ele>
        <time>2021-07-04T03:39:47.825Z</time>
      </trkpt>
      <trkpt lat="45.283149" lon="5.620132">
        <ele>198.432415</ele>
        <time>2021-07-04T03:40:28.215Z</time>
      </trkpt>
      <trkpt lat="45.285697" lon="5.619601">
        <ele>198.143423</ele>
        <time>2021-07-04T03:41:25.122Z</time>
      </trkpt>
      <trkpt lat="45.287201" lon="5.619182">
        <ele>198.397454</ele>
        <time>2021-07-04T03:42:01.365Z</time>
      </trkpt>
      <trkpt lat="45.292209" lon="5.618087">
        <ele>198.737660</ele>
        <time>2021-07-04T03:43:55.344Z</time>
      </trkpt>
      <trkpt lat="45.293146" lon="5.617789">
        <ele>198.597740</ele>
        <time>2021-07-04T03:44:15.750Z</time>
      </trkpt>
      <trkpt lat="45.293876" lon="5.617582">
        <ele>198.554142</ele>
        <time>2021-07-04T03:44:31.711Z</time>
      </trkpt>
      <trkpt lat="45.293983" lon="5.617552">
        <ele>198.549849</ele>
        <time>2021-07-04T03:44:34.126Z</time>
      </trkpt>
      <trkpt lat="45.295974" lon="5.617147">
        <ele>198.444122</ele>
        <time>2021-07-04T03:45:19.518Z</time>
      </trkpt>
      <trkpt lat="45.297442" lon="5.616092">
        <ele>197.789594</ele>
        <time>2021-07-04T03:45:54.566Z</time>
      </trkpt>
      <trkpt lat="45.299539" lon="5.613778">
        <ele>195.024658</ele>
        <time>2021-07-04T03:46:44.951Z</time>
      </trkpt>
      <trkpt lat="45.300004" lon="5.612932">
        <ele>194.095212</ele>
        <time>2021-07-04T03:46:58.819Z</time>
      </trkpt>
      <trkpt lat="45.301265" lon="5.609994">
        <ele>191.645454</ele>
        <time>2021-07-04T03:47:44.981Z</time>
      </trkpt>
      <trkpt lat="45.302469" lon="5.606838">
        <ele>190.967849</ele>
        <time>2021-07-04T03:48:40.427Z</time>
      </trkpt>
      <trkpt lat="45.302639" lon="5.606210">
        <ele>190.891756</ele>
        <time>2021-07-04T03:48:50.573Z</time>
      </trkpt>
      <trkpt lat="45.302979" lon="5.604026">
        <ele>190.726684</ele>
        <time>2021-07-04T03:49:24.379Z</time>
      </trkpt>
      <trkpt lat="45.303114" lon="5.602497">
        <ele>190.797426</ele>
        <time>2021-07-04T03:49:49.531Z</time>
      </trkpt>
      <trkpt lat="45.303182" lon="5.600863">
        <ele>190.706712</ele>
        <time>2021-07-04T03:50:15.466Z</time>
      </trkpt>
      <trkpt lat="45.303161" lon="5.600471">
        <ele>190.669189</ele>
        <time>2021-07-04T03:50:21.417Z</time>
      </trkpt>
      <trkpt lat="45.303165" lon="5.600185">
        <ele>190.641885</ele>
        <time>2021-07-04T03:50:25.930Z</time>
      </trkpt>
      <trkpt lat="45.303171" lon="5.599869">
        <ele>190.611713</ele>
        <time>2021-07-04T03:50:30.518Z</time>
      </trkpt>
      <trkpt lat="45.303191" lon="5.599603">
        <ele>190.586179</ele>
        <time>2021-07-04T03:50:34.507Z</time>
      </trkpt>
      <trkpt lat="45.303229" lon="5.599201">
        <ele>190.497617</ele>
        <time>2021-07-04T03:50:40.467Z</time>
      </trkpt>
      <trkpt lat="45.303280" lon="5.599084">
        <ele>190.460366</ele>
        <time>2021-07-04T03:50:42.355Z</time>
      </trkpt>
      <trkpt lat="45.303292" lon="5.598324">
        <ele>190.254635</ele>
        <time>2021-07-04T03:50:53.204Z</time>
      </trkpt>
      <trkpt lat="45.303295" lon="5.597742">
        <ele>190.097123</ele>
        <time>2021-07-04T03:51:01.456Z</time>
      </trkpt>
      <trkpt lat="45.303243" lon="5.597141">
        <ele>189.933248</ele>
        <time>2021-07-04T03:51:10.618Z</time>
      </trkpt>
      <trkpt lat="45.303140" lon="5.595928">
        <ele>190.016638</ele>
        <time>2021-07-04T03:51:30.118Z</time>
      </trkpt>
      <trkpt lat="45.303146" lon="5.593536">
        <ele>190.264224</ele>
        <time>2021-07-04T03:52:09.984Z</time>
      </trkpt>
      <trkpt lat="45.302978" lon="5.592279">
        <ele>190.338146</ele>
        <time>2021-07-04T03:52:30.489Z</time>
      </trkpt>
      <trkpt lat="45.302600" lon="5.590606">
        <ele>189.919640</ele>
        <time>2021-07-04T03:52:56.318Z</time>
      </trkpt>
      <trkpt lat="45.301995" lon="5.589001">
        <ele>189.373261</ele>
        <time>2021-07-04T03:53:22.136Z</time>
      </trkpt>
      <trkpt lat="45.301515" lon="5.588023">
        <ele>189.080708</ele>
        <time>2021-07-04T03:53:39.648Z</time>
      </trkpt>
      <trkpt lat="45.301093" lon="5.587323">
        <ele>188.916090</ele>
        <time>2021-07-04T03:53:53.967Z</time>
      </trkpt>
      <trkpt lat="45.299775" lon="5.585332">
        <ele>189.170147</ele>
        <time>2021-07-04T03:54:38.697Z</time>
      </trkpt>
      <trkpt lat="45.298914" lon="5.584109">
        <ele>189.042539</ele>
        <time>2021-07-04T03:55:05.467Z</time>
      </trkpt>
      <trkpt lat="45.297432" lon="5.581942">
        <ele>188.197414</ele>
        <time>2021-07-04T03:55:49.247Z</time>
      </trkpt>
      <trkpt lat="45.296953" lon="5.580984">
        <ele>187.963591</ele>
        <time>2021-07-04T03:56:06.357Z</time>
      </trkpt>
      <trkpt lat="45.296402" lon="5.578771">
        <ele>187.820790</ele>
        <time>2021-07-04T03:56:42.452Z</time>
      </trkpt>
      <trkpt lat="45.296397" lon="5.577131">
        <ele>188.052609</ele>
        <time>2021-07-04T03:57:09.859Z</time>
      </trkpt>
      <trkpt lat="45.296484" lon="5.576227">
        <ele>188.253807</ele>
        <time>2021-07-04T03:57:25.450Z</time>
      </trkpt>
      <trkpt lat="45.298135" lon="5.570196">
        <ele>189.475758</ele>
        <time>2021-07-04T03:59:11.804Z</time>
      </trkpt>
      <trkpt lat="45.298743" lon="5.567743">
        <ele>189.285446</ele>
        <time>2021-07-04T03:59:51.688Z</time>
      </trkpt>
      <trkpt lat="45.298958" lon="5.566340">
        <ele>189.063312</ele>
        <time>2021-07-04T04:00:13.419Z</time>
      </trkpt>
      <trkpt lat="45.298906" lon="5.565476">
        <ele>188.920390</ele>
        <time>2021-07-04T04:00:26.381Z</time>
      </trkpt>
      <trkpt lat="45.298536" lon="5.563823">
        <ele>188.540491</ele>
        <time>2021-07-04T04:00:51.941Z</time>
      </trkpt>
      <trkpt lat="45.298071" lon="5.562844">
        <ele>188.258505</ele>
        <time>2021-07-04T04:01:09.379Z</time>
      </trkpt>
      <trkpt lat="45.296981" lon="5.561356">
        <ele>188.068663</ele>
        <time>2021-07-04T04:01:42.361Z</time>
      </trkpt>
      <trkpt lat="45.294984" lon="5.558869">
        <ele>188.080234</ele>
        <time>2021-07-04T04:02:41.976Z</time>
      </trkpt>
      <trkpt lat="45.294538" lon="5.557987">
        <ele>188.081193</ele>
        <time>2021-07-04T04:02:58.903Z</time>
      </trkpt>
      <trkpt lat="45.294174" lon="5.557039">
        <ele>188.057184</ele>
        <time>2021-07-04T04:03:15.642Z</time>
      </trkpt>
      <trkpt lat="45.293905" lon="5.556112">
        <ele>187.978443</ele>
        <time>2021-07-04T04:03:31.087Z</time>
      </trkpt>
      <trkpt lat="45.293789" lon="5.555413">
        <ele>187.922047</ele>
        <time>2021-07-04T04:03:42.156Z</time>
      </trkpt>
      <trkpt lat="45.293727" lon="5.553578">
        <ele>187.801367</ele>
        <time>2021-07-04T04:04:10.467Z</time>
      </trkpt>
      <trkpt lat="45.293932" lon="5.550229">
        <ele>187.609842</ele>
        <time>2021-07-04T04:05:02.401Z</time>
      </trkpt>
      <trkpt lat="45.293481" lon="5.545120">
        <ele>187.402496</ele>
        <time>2021-07-04T04:06:22.425Z</time>
      </trkpt>
      <trkpt lat="45.293043" lon="5.542197">
        <ele>187.358117</ele>
        <time>2021-07-04T04:07:09.018Z</time>
      </trkpt>
      <trkpt lat="45.292225" lon="5.537408">
        <ele>187.912588</ele>
        <time>2021-07-04T04:08:28.925Z</time>
      </trkpt>
      <trkpt lat="45.291366" lon="5.533117">
        <ele>187.651758</ele>
        <time>2021-07-04T04:09:37.281Z</time>
      </trkpt>
      <trkpt lat="45.290810" lon="5.531504">
        <ele>187.579365</ele>
        <time>2021-07-04T04:10:05.451Z</time>
      </trkpt>
      <trkpt lat="45.289633" lon="5.529353">
        <ele>187.224987</ele>
        <time>2021-07-04T04:10:48.027Z</time>
      </trkpt>
      <trkpt lat="45.289398" lon="5.528977">
        <ele>187.087534</ele>
        <time>2021-07-04T04:10:55.284Z</time>
      </trkpt>
      <trkpt lat="45.289190" lon="5.528784">
        <ele>186.991041</ele>
        <time>2021-07-04T04:11:00.235Z</time>
      </trkpt>
      <trkpt lat="45.288110" lon="5.528161">
        <ele>186.366730</ele>
        <time>2021-07-04T04:11:23.133Z</time>
      </trkpt>
      <trkpt lat="45.287540" lon="5.527716">
        <ele>185.971786</ele>
        <time>2021-07-04T04:11:36.214Z</time>
      </trkpt>
      <trkpt lat="45.287131" lon="5.527282">
        <ele>185.769031</ele>
        <time>2021-07-04T04:11:47.063Z</time>
      </trkpt>
      <trkpt lat="45.286733" lon="5.526873">
        <ele>185.831635</ele>
        <time>2021-07-04T04:11:58.111Z</time>
      </trkpt>
      <trkpt lat="45.286707" lon="5.526910">
        <ele>185.836325</ele>
        <time>2021-07-04T04:11:59.110Z</time>
      </trkpt>
      <trkpt lat="45.286536" lon="5.527054">
        <ele>185.861660</ele>
        <time>2021-07-04T04:12:03.509Z</time>
      </trkpt>
      <trkpt lat="45.286380" lon="5.526973">
        <ele>185.882831</ele>
        <time>2021-07-04T04:12:07.506Z</time>
      </trkpt>
      <trkpt lat="45.286309" lon="5.526872">
        <ele>185.895636</ele>
        <time>2021-07-04T04:12:09.761Z</time>
      </trkpt>
      <trkpt lat="45.285717" lon="5.526528">
        <ele>185.977161</ele>
        <time>2021-07-04T04:12:24.963Z</time>
      </trkpt>
      <trkpt lat="45.284737" lon="5.526034">
        <ele>186.078914</ele>
        <time>2021-07-04T04:12:49.032Z</time>
      </trkpt>
      <trkpt lat="45.281307" lon="5.524943">
        <ele>185.880394</ele>
        <time>2021-07-04T04:14:06.276Z</time>
      </trkpt>
      <trkpt lat="45.277109" lon="5.523428">
        <ele>184.769762</ele>
        <time>2021-07-04T04:15:37.607Z</time>
      </trkpt>
      <trkpt lat="45.275191" lon="5.522635">
        <ele>185.116692</ele>
        <time>2021-07-04T04:16:24.158Z</time>
      </trkpt>
      <trkpt lat="45.274288" lon="5.522324">
        <ele>185.057211</ele>
        <time>2021-07-04T04:16:44.828Z</time>
      </trkpt>
      <trkpt lat="45.273355" lon="5.522095">
        <ele>184.977386</ele>
        <time>2021-07-04T04:17:05.067Z</time>
      </trkpt>
      <trkpt lat="45.272857" lon="5.521938">
        <ele>184.878926</ele>
        <time>2021-07-04T04:17:15.903Z</time>
      </trkpt>
      <trkpt lat="45.271697" lon="5.521574">
        <ele>184.662181</ele>
        <time>2021-07-04T04:17:41.483Z</time>
      </trkpt>
      <trkpt lat="45.267033" lon="5.520262">
        <ele>185.023747</ele>
        <time>2021-07-04T04:19:28.958Z</time>
      </trkpt>
      <trkpt lat="45.266608" lon="5.520024">
        <ele>185.071180</ele>
        <time>2021-07-04T04:19:39.148Z</time>
      </trkpt>
      <trkpt lat="45.263532" lon="5.517786">
        <ele>185.315199</ele>
        <time>2021-07-04T04:20:56.903Z</time>
      </trkpt>
      <trkpt lat="45.261806" lon="5.516615">
        <ele>185.419150</ele>
        <time>2021-07-04T04:21:40.238Z</time>
      </trkpt>
      <trkpt lat="45.259955" lon="5.514874">
        <ele>185.169115</ele>
        <time>2021-07-04T04:22:28.326Z</time>
      </trkpt>
      <trkpt lat="45.253385" lon="5.508342">
        <ele>185.340849</ele>
        <time>2021-07-04T04:25:26.940Z</time>
      </trkpt>
      <trkpt lat="45.252121" lon="5.507209">
        <ele>185.713767</ele>
        <time>2021-07-04T04:26:02.467Z</time>
      </trkpt>
      <trkpt lat="45.251101" lon="5.506384">
        <ele>186.070231</ele>
        <time>2021-07-04T04:26:30.581Z</time>
      </trkpt>
      <trkpt lat="45.249487" lon="5.505209">
        <ele>185.979470</ele>
        <time>2021-07-04T04:27:10.777Z</time>
      </trkpt>
      <trkpt lat="45.247705" lon="5.504079">
        <ele>184.709376</ele>
        <time>2021-07-04T04:27:49.554Z</time>
      </trkpt>
      <trkpt lat="45.245422" lon="5.502901">
        <ele>183.148620</ele>
        <time>2021-07-04T04:28:37.809Z</time>
      </trkpt>
      <trkpt lat="45.244844" lon="5.502495">
        <ele>182.839257</ele>
        <time>2021-07-04T04:28:51.340Z</time>
      </trkpt>
      <trkpt lat="45.242604" lon="5.500599">
        <ele>182.666988</ele>
        <time>2021-07-04T04:29:49.269Z</time>
      </trkpt>
      <trkpt lat="45.241396" lon="5.499384">
        <ele>182.503669</ele>
        <time>2021-07-04T04:30:21.969Z</time>
      </trkpt>
      <trkpt lat="45.240994" lon="5.498936">
        <ele>182.323540</ele>
        <time>2021-07-04T04:30:32.834Z</time>
      </trkpt>
      <trkpt lat="45.240214" lon="5.498086">
        <ele>181.976966</ele>
        <time>2021-07-04T04:30:53.181Z</time>
      </trkpt>
      <trkpt lat="45.239417" lon="5.496863">
        <ele>181.385170</ele>
        <time>2021-07-04T04:31:17.062Z</time>
      </trkpt>
      <trkpt lat="45.237987" lon="5.494181">
        <ele>180.433457</ele>
        <time>2021-07-04T04:32:06.540Z</time>
      </trkpt>
      <trkpt lat="45.237272" lon="5.492791">
        <ele>180.100718</ele>
        <time>2021-07-04T04:32:32.443Z</time>
      </trkpt>
      <trkpt lat="45.237169" lon="5.492592">
        <ele>180.053937</ele>
        <time>2021-07-04T04:32:36.131Z</time>
      </trkpt>
      <trkpt lat="45.236190" lon="5.490759">
        <ele>179.750457</ele>
        <time>2021-07-04T04:33:11.073Z</time>
      </trkpt>
      <trkpt lat="45.235470" lon="5.489534">
        <ele>179.650296</ele>
        <time>2021-07-04T04:33:35.714Z</time>
      </trkpt>
      <trkpt lat="45.233773" lon="5.486873">
        <ele>179.605755</ele>
        <time>2021-07-04T04:34:32.064Z</time>
      </trkpt>
      <trkpt lat="45.233486" lon="5.486478">
        <ele>179.589930</ele>
        <time>2021-07-04T04:34:40.810Z</time>
      </trkpt>
      <trkpt lat="45.232979" lon="5.486002">
        <ele>179.559087</ele>
        <time>2021-07-04T04:34:54.071Z</time>
      </trkpt>
      <trkpt lat="45.232345" lon="5.485574">
        <ele>179.519382</ele>
        <time>2021-07-04T04:35:09.583Z</time>
      </trkpt>
      <trkpt lat="45.232068" lon="5.485426">
        <ele>179.502642</ele>
        <time>2021-07-04T04:35:16.076Z</time>
      </trkpt>
      <trkpt lat="45.231422" lon="5.485130">
        <ele>179.481552</ele>
        <time>2021-07-04T04:35:31.045Z</time>
      </trkpt>
      <trkpt lat="45.230911" lon="5.484976">
        <ele>179.484568</ele>
        <time>2021-07-04T04:35:42.495Z</time>
      </trkpt>
      <trkpt lat="45.230076" lon="5.484850">
        <ele>179.489416</ele>
        <time>2021-07-04T04:36:01.040Z</time>
      </trkpt>
      <trkpt lat="45.229042" lon="5.484878">
        <ele>179.815222</ele>
        <time>2021-07-04T04:36:25.180Z</time>
      </trkpt>
      <trkpt lat="45.228826" lon="5.484912">
        <ele>179.895893</ele>
        <time>2021-07-04T04:36:30.440Z</time>
      </trkpt>
      <trkpt lat="45.228733" lon="5.484927">
        <ele>179.930637</ele>
        <time>2021-07-04T04:36:32.639Z</time>
      </trkpt>
      <trkpt lat="45.228528" lon="5.484962">
        <ele>180.007282</ele>
        <time>2021-07-04T04:36:37.677Z</time>
      </trkpt>
      <trkpt lat="45.228449" lon="5.484977">
        <ele>180.036868</ele>
        <time>2021-07-04T04:36:39.574Z</time>
      </trkpt>
      <trkpt lat="45.228353" lon="5.484995">
        <ele>180.072813</ele>
        <time>2021-07-04T04:36:41.869Z</time>
      </trkpt>
      <trkpt lat="45.228186" lon="5.485026">
        <ele>180.135331</ele>
        <time>2021-07-04T04:36:46.011Z</time>
      </trkpt>
      <trkpt lat="45.227388" lon="5.485175">
        <ele>180.401083</ele>
        <time>2021-07-04T04:37:05.789Z</time>
      </trkpt>
      <trkpt lat="45.225256" lon="5.485750">
        <ele>180.653845</ele>
        <time>2021-07-04T04:37:55.338Z</time>
      </trkpt>
      <trkpt lat="45.224444" lon="5.485769">
        <ele>180.551116</ele>
        <time>2021-07-04T04:38:12.347Z</time>
      </trkpt>
      <trkpt lat="45.223826" lon="5.485702">
        <ele>180.327870</ele>
        <time>2021-07-04T04:38:24.919Z</time>
      </trkpt>
      <trkpt lat="45.222918" lon="5.485340">
        <ele>179.988166</ele>
        <time>2021-07-04T04:38:44.736Z</time>
      </trkpt>
      <trkpt lat="45.222892" lon="5.485325">
        <ele>179.978057</ele>
        <time>2021-07-04T04:38:45.201Z</time>
      </trkpt>
      <trkpt lat="45.222712" lon="5.485228">
        <ele>179.960029</ele>
        <time>2021-07-04T04:38:49.565Z</time>
      </trkpt>
      <trkpt lat="45.222177" lon="5.484542">
        <ele>180.025954</ele>
        <time>2021-07-04T04:39:05.675Z</time>
      </trkpt>
      <trkpt lat="45.220975" lon="5.482644">
        <ele>180.156839</ele>
        <time>2021-07-04T04:39:47.598Z</time>
      </trkpt>
      <trkpt lat="45.219768" lon="5.480275">
        <ele>179.981623</ele>
        <time>2021-07-04T04:40:32.621Z</time>
      </trkpt>
      <trkpt lat="45.219461" lon="5.479686">
        <ele>179.875681</ele>
        <time>2021-07-04T04:40:43.407Z</time>
      </trkpt>
      <trkpt lat="45.219404" lon="5.479555">
        <ele>179.853418</ele>
        <time>2021-07-04T04:40:45.763Z</time>
      </trkpt>
      <trkpt lat="45.219271" lon="5.479331">
        <ele>179.790881</ele>
        <time>2021-07-04T04:40:49.978Z</time>
      </trkpt>
      <trkpt lat="45.217930" lon="5.477693">
        <ele>179.164730</ele>
        <time>2021-07-04T04:41:27.017Z</time>
      </trkpt>
      <trkpt lat="45.216836" lon="5.476705">
        <ele>178.939163</ele>
        <time>2021-07-04T04:41:54.875Z</time>
      </trkpt>
      <trkpt lat="45.214884" lon="5.475073">
        <ele>178.829641</ele>
        <time>2021-07-04T04:42:44.526Z</time>
      </trkpt>
      <trkpt lat="45.213516" lon="5.473688">
        <ele>179.528720</ele>
        <time>2021-07-04T04:43:24.764Z</time>
      </trkpt>
      <trkpt lat="45.212360" lon="5.472068">
        <ele>180.860685</ele>
        <time>2021-07-04T04:44:07.221Z</time>
      </trkpt>
      <trkpt lat="45.211374" lon="5.470545">
        <ele>181.683506</ele>
        <time>2021-07-04T04:44:43.871Z</time>
      </trkpt>
      <trkpt lat="45.209448" lon="5.467471">
        <ele>182.447792</ele>
        <time>2021-07-04T04:45:48.396Z</time>
      </trkpt>
      <trkpt lat="45.209077" lon="5.466855">
        <ele>182.903373</ele>
        <time>2021-07-04T04:46:02.624Z</time>
      </trkpt>
      <trkpt lat="45.208889" lon="5.466426">
        <ele>183.187391</ele>
        <time>2021-07-04T04:46:12.195Z</time>
      </trkpt>
      <trkpt lat="45.208809" lon="5.466225">
        <ele>183.317171</ele>
        <time>2021-07-04T04:46:17.046Z</time>
      </trkpt>
      <trkpt lat="45.208785" lon="5.465933">
        <ele>183.538095</ele>
        <time>2021-07-04T04:46:22.824Z</time>
      </trkpt>
      <trkpt lat="45.208774" lon="5.465899">
        <ele>183.616778</ele>
        <time>2021-07-04T04:46:23.596Z</time>
      </trkpt>
      <trkpt lat="45.208852" lon="5.465742">
        <ele>184.020798</ele>
        <time>2021-07-04T04:46:28.024Z</time>
      </trkpt>
      <trkpt lat="45.208933" lon="5.465432">
        <ele>184.716139</ele>
        <time>2021-07-04T04:46:34.356Z</time>
      </trkpt>
      <trkpt lat="45.208932" lon="5.464905">
        <ele>185.824455</ele>
        <time>2021-07-04T04:46:45.673Z</time>
      </trkpt>
      <trkpt lat="45.208769" lon="5.464495">
        <ele>186.814521</ele>
        <time>2021-07-04T04:46:56.947Z</time>
      </trkpt>
      <trkpt lat="45.208651" lon="5.464343">
        <ele>187.290188</ele>
        <time>2021-07-04T04:47:03.530Z</time>
      </trkpt>
      <trkpt lat="45.208385" lon="5.464147">
        <ele>188.184836</ele>
        <time>2021-07-04T04:47:15.282Z</time>
      </trkpt>
      <trkpt lat="45.208288" lon="5.464075">
        <ele>188.511592</ele>
        <time>2021-07-04T04:47:19.184Z</time>
      </trkpt>
      <trkpt lat="45.208001" lon="5.463886">
        <ele>190.151328</ele>
        <time>2021-07-04T04:47:31.812Z</time>
      </trkpt>
      <trkpt lat="45.207900" lon="5.463798">
        <ele>190.898772</ele>
        <time>2021-07-04T04:47:35.927Z</time>
      </trkpt>
      <trkpt lat="45.207761" lon="5.463573">
        <ele>192.228476</ele>
        <time>2021-07-04T04:47:45.445Z</time>
      </trkpt>
      <trkpt lat="45.207632" lon="5.463084">
        <ele>194.548670</ele>
        <time>2021-07-04T04:48:02.632Z</time>
      </trkpt>
      <trkpt lat="45.207660" lon="5.462577">
        <ele>196.808435</ele>
        <time>2021-07-04T04:48:21.281Z</time>
      </trkpt>
      <trkpt lat="45.207768" lon="5.462240">
        <ele>198.453532</ele>
        <time>2021-07-04T04:48:35.196Z</time>
      </trkpt>
      <trkpt lat="45.208076" lon="5.461673">
        <ele>201.393926</ele>
        <time>2021-07-04T04:49:03.004Z</time>
      </trkpt>
      <trkpt lat="45.208373" lon="5.461166">
        <ele>203.840105</ele>
        <time>2021-07-04T04:49:25.621Z</time>
      </trkpt>
      <trkpt lat="45.208787" lon="5.460419">
        <ele>207.366094</ele>
        <time>2021-07-04T04:49:54.051Z</time>
      </trkpt>
      <trkpt lat="45.208640" lon="5.460294">
        <ele>208.268444</ele>
        <time>2021-07-04T04:50:00.632Z</time>
      </trkpt>
      <trkpt lat="45.208442" lon="5.460201">
        <ele>209.366673</ele>
        <time>2021-07-04T04:50:08.071Z</time>
      </trkpt>
      <trkpt lat="45.208198" lon="5.460113">
        <ele>209.629582</ele>
        <time>2021-07-04T04:50:16.487Z</time>
      </trkpt>
      <trkpt lat="45.207757" lon="5.459758">
        <ele>209.586524</ele>
        <time>2021-07-04T04:50:29.208Z</time>
      </trkpt>
      <trkpt lat="45.207407" lon="5.459345">
        <ele>209.547868</ele>
        <time>2021-07-04T04:50:37.532Z</time>
      </trkpt>
      <trkpt lat="45.206753" lon="5.458271">
        <ele>209.607823</ele>
        <time>2021-07-04T04:50:55.837Z</time>
      </trkpt>
      <trkpt lat="45.206645" lon="5.458087">
        <ele>209.660980</ele>
        <time>2021-07-04T04:50:59.082Z</time>
      </trkpt>
      <trkpt lat="45.206510" lon="5.457865">
        <ele>209.726073</ele>
        <time>2021-07-04T04:51:03.424Z</time>
      </trkpt>
      <trkpt lat="45.206490" lon="5.457831">
        <ele>209.735904</ele>
        <time>2021-07-04T04:51:03.957Z</time>
      </trkpt>
      <trkpt lat="45.206264" lon="5.457425">
        <ele>209.850756</ele>
        <time>2021-07-04T04:51:12.550Z</time>
      </trkpt>
      <trkpt lat="45.205664" lon="5.456673">
        <ele>210.633643</ele>
        <time>2021-07-04T04:51:35.258Z</time>
      </trkpt>
      <trkpt lat="45.205461" lon="5.456332">
        <ele>211.967625</ele>
        <time>2021-07-04T04:51:46.386Z</time>
      </trkpt>
      <trkpt lat="45.205089" lon="5.455753">
        <ele>214.309106</ele>
        <time>2021-07-04T04:52:08.606Z</time>
      </trkpt>
      <trkpt lat="45.204847" lon="5.455439">
        <ele>215.699710</ele>
        <time>2021-07-04T04:52:22.765Z</time>
      </trkpt>
      <trkpt lat="45.204572" lon="5.454938">
        <ele>217.597482</ele>
        <time>2021-07-04T04:52:43.116Z</time>
      </trkpt>
      <trkpt lat="45.204520" lon="5.454841">
        <ele>217.940606</ele>
        <time>2021-07-04T04:52:46.952Z</time>
      </trkpt>
      <trkpt lat="45.204431" lon="5.454657">
        <ele>218.556022</ele>
        <time>2021-07-04T04:52:53.920Z</time>
      </trkpt>
      <trkpt lat="45.204377" lon="5.454549">
        <ele>218.921189</ele>
        <time>2021-07-04T04:52:58.051Z</time>
      </trkpt>
      <trkpt lat="45.204325" lon="5.454441">
        <ele>219.281883</ele>
        <time>2021-07-04T04:53:01.914Z</time>
      </trkpt>
      <trkpt lat="45.204045" lon="5.453870">
        <ele>221.200163</ele>
        <time>2021-07-04T04:53:21.165Z</time>
      </trkpt>
      <trkpt lat="45.203972" lon="5.453677">
        <ele>221.804184</ele>
        <time>2021-07-04T04:53:27.205Z</time>
      </trkpt>
      <trkpt lat="45.203879" lon="5.453385">
        <ele>222.687796</ele>
        <time>2021-07-04T04:53:35.542Z</time>
      </trkpt>
      <trkpt lat="45.203819" lon="5.453065">
        <ele>223.600888</ele>
        <time>2021-07-04T04:53:43.769Z</time>
      </trkpt>
      <trkpt lat="45.203805" lon="5.452906">
        <ele>224.042732</ele>
        <time>2021-07-04T04:53:47.453Z</time>
      </trkpt>
      <trkpt lat="45.203759" lon="5.452329">
        <ele>225.051805</ele>
        <time>2021-07-04T04:53:59.879Z</time>
      </trkpt>
      <trkpt lat="45.203754" lon="5.452009">
        <ele>225.364001</ele>
        <time>2021-07-04T04:54:06.408Z</time>
      </trkpt>
      <trkpt lat="45.203747" lon="5.451775">
        <ele>225.592444</ele>
        <time>2021-07-04T04:54:11.236Z</time>
      </trkpt>
      <trkpt lat="45.203716" lon="5.451185">
        <ele>226.169513</ele>
        <time>2021-07-04T04:54:22.135Z</time>
      </trkpt>
      <trkpt lat="45.203655" lon="5.450539">
        <ele>226.805239</ele>
        <time>2021-07-04T04:54:33.525Z</time>
      </trkpt>
      <trkpt lat="45.203606" lon="5.449779">
        <ele>227.577731</ele>
        <time>2021-07-04T04:54:47.932Z</time>
      </trkpt>
      <trkpt lat="45.203381" lon="5.448751">
        <ele>228.716575</ele>
        <time>2021-07-04T04:55:09.444Z</time>
      </trkpt>
      <trkpt lat="45.203371" lon="5.448307">
        <ele>229.186549</ele>
        <time>2021-07-04T04:55:18.596Z</time>
      </trkpt>
      <trkpt lat="45.203481" lon="5.447786">
        <ele>229.761960</ele>
        <time>2021-07-04T04:55:29.799Z</time>
      </trkpt>
      <trkpt lat="45.203659" lon="5.447270">
        <ele>230.428120</ele>
        <time>2021-07-04T04:55:41.462Z</time>
      </trkpt>
      <trkpt lat="45.203988" lon="5.445224">
        <ele>232.935239</ele>
        <time>2021-07-04T04:56:24.826Z</time>
      </trkpt>
      <trkpt lat="45.203992" lon="5.445167">
        <ele>232.989953</ele>
        <time>2021-07-04T04:56:26.338Z</time>
      </trkpt>
      <trkpt lat="45.203766" lon="5.443344">
        <ele>234.350996</ele>
        <time>2021-07-04T04:57:01.651Z</time>
      </trkpt>
      <trkpt lat="45.203382" lon="5.442283">
        <ele>234.811868</ele>
        <time>2021-07-04T04:57:21.882Z</time>
      </trkpt>
      <trkpt lat="45.203062" lon="5.441094">
        <ele>234.730807</ele>
        <time>2021-07-04T04:57:41.431Z</time>
      </trkpt>
      <trkpt lat="45.203054" lon="5.441026">
        <ele>234.726416</ele>
        <time>2021-07-04T04:57:42.388Z</time>
      </trkpt>
      <trkpt lat="45.202999" lon="5.440553">
        <ele>234.695884</ele>
        <time>2021-07-04T04:57:49.343Z</time>
      </trkpt>
      <trkpt lat="45.203214" lon="5.439105">
        <ele>234.752406</ele>
        <time>2021-07-04T04:58:10.788Z</time>
      </trkpt>
      <trkpt lat="45.203255" lon="5.438715">
        <ele>234.774138</ele>
        <time>2021-07-04T04:58:16.881Z</time>
      </trkpt>
      <trkpt lat="45.203281" lon="5.437693">
        <ele>234.919688</ele>
        <time>2021-07-04T04:58:34.970Z</time>
      </trkpt>
      <trkpt lat="45.203275" lon="5.437550">
        <ele>235.023407</ele>
        <time>2021-07-04T04:58:37.626Z</time>
      </trkpt>
      <trkpt lat="45.203241" lon="5.437281">
        <ele>235.221278</ele>
        <time>2021-07-04T04:58:43.839Z</time>
      </trkpt>
      <trkpt lat="45.203134" lon="5.436937">
        <ele>235.493532</ele>
        <time>2021-07-04T04:58:50.963Z</time>
      </trkpt>
      <trkpt lat="45.202914" lon="5.436446">
        <ele>235.914821</ele>
        <time>2021-07-04T04:59:02.616Z</time>
      </trkpt>
      <trkpt lat="45.202872" lon="5.435968">
        <ele>236.263587</ele>
        <time>2021-07-04T04:59:11.662Z</time>
      </trkpt>
      <trkpt lat="45.202921" lon="5.435640">
        <ele>236.506348</ele>
        <time>2021-07-04T04:59:17.274Z</time>
      </trkpt>
      <trkpt lat="45.202993" lon="5.435423">
        <ele>236.668483</ele>
        <time>2021-07-04T04:59:22.395Z</time>
      </trkpt>
      <trkpt lat="45.202890" lon="5.435199">
        <ele>236.603034</ele>
        <time>2021-07-04T04:59:26.479Z</time>
      </trkpt>
      <trkpt lat="45.202139" lon="5.434281">
        <ele>236.258832</ele>
        <time>2021-07-04T04:59:48.608Z</time>
      </trkpt>
      <trkpt lat="45.201487" lon="5.433180">
        <ele>235.298144</ele>
        <time>2021-07-04T05:00:09.174Z</time>
      </trkpt>
      <trkpt lat="45.201445" lon="5.433025">
        <ele>235.080634</ele>
        <time>2021-07-04T05:00:11.175Z</time>
      </trkpt>
      <trkpt lat="45.201428" lon="5.432878">
        <ele>234.885521</ele>
        <time>2021-07-04T05:00:14.113Z</time>
      </trkpt>
      <trkpt lat="45.201436" lon="5.432421">
        <ele>234.286768</ele>
        <time>2021-07-04T05:00:20.135Z</time>
      </trkpt>
      <trkpt lat="45.201372" lon="5.431900">
        <ele>233.594082</ele>
        <time>2021-07-04T05:00:27.027Z</time>
      </trkpt>
      <trkpt lat="45.201275" lon="5.431557">
        <ele>233.109994</ele>
        <time>2021-07-04T05:00:31.488Z</time>
      </trkpt>
      <trkpt lat="45.200873" lon="5.430881">
        <ele>231.207554</ele>
        <time>2021-07-04T05:00:42.645Z</time>
      </trkpt>
      <trkpt lat="45.200275" lon="5.429891">
        <ele>227.810132</ele>
        <time>2021-07-04T05:00:57.775Z</time>
      </trkpt>
      <trkpt lat="45.199984" lon="5.429199">
        <ele>225.650008</ele>
        <time>2021-07-04T05:01:07.152Z</time>
      </trkpt>
      <trkpt lat="45.199937" lon="5.429082">
        <ele>225.237092</ele>
        <time>2021-07-04T05:01:08.548Z</time>
      </trkpt>
      <trkpt lat="45.199830" lon="5.428809">
        <ele>224.279314</ele>
        <time>2021-07-04T05:01:12.470Z</time>
      </trkpt>
      <trkpt lat="45.199693" lon="5.428491">
        <ele>223.136545</ele>
        <time>2021-07-04T05:01:16.574Z</time>
      </trkpt>
      <trkpt lat="45.199638" lon="5.428396">
        <ele>222.759574</ele>
        <time>2021-07-04T05:01:18.306Z</time>
      </trkpt>
      <trkpt lat="45.199563" lon="5.428351">
        <ele>222.405272</ele>
        <time>2021-07-04T05:01:19.499Z</time>
      </trkpt>
      <trkpt lat="45.199127" lon="5.427764">
        <ele>219.790312</ele>
        <time>2021-07-04T05:01:29.524Z</time>
      </trkpt>
      <trkpt lat="45.198847" lon="5.427161">
        <ele>217.595378</ele>
        <time>2021-07-04T05:01:37.653Z</time>
      </trkpt>
      <trkpt lat="45.198789" lon="5.426964">
        <ele>216.960092</ele>
        <time>2021-07-04T05:01:40.092Z</time>
      </trkpt>
      <trkpt lat="45.198757" lon="5.426404">
        <ele>215.288329</ele>
        <time>2021-07-04T05:01:46.418Z</time>
      </trkpt>
      <trkpt lat="45.198682" lon="5.426275">
        <ele>214.790698</ele>
        <time>2021-07-04T05:01:48.308Z</time>
      </trkpt>
      <trkpt lat="45.198326" lon="5.425950">
        <ele>213.003231</ele>
        <time>2021-07-04T05:01:55.166Z</time>
      </trkpt>
      <trkpt lat="45.198202" lon="5.425753">
        <ele>212.217238</ele>
        <time>2021-07-04T05:01:58.265Z</time>
      </trkpt>
      <trkpt lat="45.197997" lon="5.425466">
        <ele>211.001242</ele>
        <time>2021-07-04T05:02:03.000Z</time>
      </trkpt>
      <trkpt lat="45.197727" lon="5.425080">
        <ele>209.846203</ele>
        <time>2021-07-04T05:02:09.561Z</time>
      </trkpt>
      <trkpt lat="45.197049" lon="5.424271">
        <ele>207.493758</ele>
        <time>2021-07-04T05:02:25.049Z</time>
      </trkpt>
      <trkpt lat="45.196255" lon="5.423592">
        <ele>206.267841</ele>
        <time>2021-07-04T05:02:41.836Z</time>
      </trkpt>
      <trkpt lat="45.195999" lon="5.423366">
        <ele>206.669720</ele>
        <time>2021-07-04T05:02:49.390Z</time>
      </trkpt>
      <trkpt lat="45.195993" lon="5.423294">
        <ele>206.737821</ele>
        <time>2021-07-04T05:02:50.245Z</time>
      </trkpt>
      <trkpt lat="45.195587" lon="5.422956">
        <ele>207.365256</ele>
        <time>2021-07-04T05:03:04.331Z</time>
      </trkpt>
      <trkpt lat="45.195524" lon="5.422936">
        <ele>207.451308</ele>
        <time>2021-07-04T05:03:05.484Z</time>
      </trkpt>
      <trkpt lat="45.195526" lon="5.422985">
        <ele>207.497412</ele>
        <time>2021-07-04T05:03:06.738Z</time>
      </trkpt>
      <trkpt lat="45.195521" lon="5.423052">
        <ele>207.560698</ele>
        <time>2021-07-04T05:03:08.802Z</time>
      </trkpt>
      <trkpt lat="45.195206" lon="5.424202">
        <ele>210.425575</ele>
        <time>2021-07-04T05:03:41.935Z</time>
      </trkpt>
      <trkpt lat="45.194722" lon="5.425760">
        <ele>217.862998</ele>
        <time>2021-07-04T05:04:43.533Z</time>
      </trkpt>
      <trkpt lat="45.194634" lon="5.426005">
        <ele>219.064182</ele>
        <time>2021-07-04T05:04:53.704Z</time>
      </trkpt>
      <trkpt lat="45.194406" lon="5.426612">
        <ele>221.053439</ele>
        <time>2021-07-04T05:05:15.655Z</time>
      </trkpt>
      <trkpt lat="45.194355" lon="5.426725">
        <ele>221.416485</ele>
        <time>2021-07-04T05:05:20.288Z</time>
      </trkpt>
      <trkpt lat="45.194257" lon="5.426945">
        <ele>222.120638</ele>
        <time>2021-07-04T05:05:27.606Z</time>
      </trkpt>
      <trkpt lat="45.194118" lon="5.427236">
        <ele>223.071755</ele>
        <time>2021-07-04T05:05:37.412Z</time>
      </trkpt>
      <trkpt lat="45.193066" lon="5.426118">
        <ele>226.933422</ele>
        <time>2021-07-04T05:06:16.962Z</time>
      </trkpt>
      <trkpt lat="45.192863" lon="5.425911">
        <ele>227.265577</ele>
        <time>2021-07-04T05:06:23.388Z</time>
      </trkpt>
      <trkpt lat="45.192530" lon="5.425570">
        <ele>227.811230</ele>
        <time>2021-07-04T05:06:33.905Z</time>
      </trkpt>
      <trkpt lat="45.192400" lon="5.425436">
        <ele>228.024729</ele>
        <time>2021-07-04T05:06:38.265Z</time>
      </trkpt>
      <trkpt lat="45.191865" lon="5.425111">
        <ele>228.762545</ele>
        <time>2021-07-04T05:06:54.343Z</time>
      </trkpt>
      <trkpt lat="45.190308" lon="5.424625">
        <ele>230.140570</ele>
        <time>2021-07-04T05:07:36.667Z</time>
      </trkpt>
      <trkpt lat="45.190309" lon="5.424548">
        <ele>230.187485</ele>
        <time>2021-07-04T05:07:37.836Z</time>
      </trkpt>
      <trkpt lat="45.190244" lon="5.424416">
        <ele>230.215003</ele>
        <time>2021-07-04T05:07:40.400Z</time>
      </trkpt>
      <trkpt lat="45.190186" lon="5.424332">
        <ele>230.139357</ele>
        <time>2021-07-04T05:07:42.238Z</time>
      </trkpt>
      <trkpt lat="45.190156" lon="5.424289">
        <ele>230.100435</ele>
        <time>2021-07-04T05:07:43.209Z</time>
      </trkpt>
      <trkpt lat="45.189320" lon="5.422719">
        <ele>228.834639</ele>
        <time>2021-07-04T05:08:09.810Z</time>
      </trkpt>
      <trkpt lat="45.189062" lon="5.422413">
        <ele>228.469576</ele>
        <time>2021-07-04T05:08:15.838Z</time>
      </trkpt>
      <trkpt lat="45.188658" lon="5.422194">
        <ele>227.794342</ele>
        <time>2021-07-04T05:08:23.690Z</time>
      </trkpt>
      <trkpt lat="45.186730" lon="5.422017">
        <ele>224.404501</ele>
        <time>2021-07-04T05:08:59.016Z</time>
      </trkpt>
      <trkpt lat="45.185525" lon="5.421531">
        <ele>221.838074</ele>
        <time>2021-07-04T05:09:20.157Z</time>
      </trkpt>
      <trkpt lat="45.184306" lon="5.421012">
        <ele>220.321877</ele>
        <time>2021-07-04T05:09:42.423Z</time>
      </trkpt>
      <trkpt lat="45.183989" lon="5.420852">
        <ele>219.921043</ele>
        <time>2021-07-04T05:09:50.040Z</time>
      </trkpt>
      <trkpt lat="45.183631" lon="5.420666">
        <ele>220.972888</ele>
        <time>2021-07-04T05:10:00.583Z</time>
      </trkpt>
      <trkpt lat="45.181620" lon="5.419828">
        <ele>229.271289</ele>
        <time>2021-07-04T05:11:27.302Z</time>
      </trkpt>
      <trkpt lat="45.181365" lon="5.419634">
        <ele>230.527904</ele>
        <time>2021-07-04T05:11:40.490Z</time>
      </trkpt>
      <trkpt lat="45.180325" lon="5.418286">
        <ele>234.515910</ele>
        <time>2021-07-04T05:12:33.065Z</time>
      </trkpt>
      <trkpt lat="45.180013" lon="5.417663">
        <ele>234.551967</ele>
        <time>2021-07-04T05:12:46.249Z</time>
      </trkpt>
      <trkpt lat="45.179299" lon="5.416556">
        <ele>232.987502</ele>
        <time>2021-07-04T05:13:04.236Z</time>
      </trkpt>
      <trkpt lat="45.179105" lon="5.415995">
        <ele>230.582021</ele>
        <time>2021-07-04T05:13:10.845Z</time>
      </trkpt>
      <trkpt lat="45.179100" lon="5.415446">
        <ele>228.468439</ele>
        <time>2021-07-04T05:13:16.482Z</time>
      </trkpt>
      <trkpt lat="45.179191" lon="5.414061">
        <ele>223.027253</ele>
        <time>2021-07-04T05:13:30.615Z</time>
      </trkpt>
      <trkpt lat="45.179150" lon="5.413249">
        <ele>219.730854</ele>
        <time>2021-07-04T05:13:38.882Z</time>
      </trkpt>
      <trkpt lat="45.178788" lon="5.411281">
        <ele>213.367531</ele>
        <time>2021-07-04T05:14:00.744Z</time>
      </trkpt>
      <trkpt lat="45.178437" lon="5.410394">
        <ele>211.860424</ele>
        <time>2021-07-04T05:14:13.834Z</time>
      </trkpt>
      <trkpt lat="45.178364" lon="5.410251">
        <ele>211.598828</ele>
        <time>2021-07-04T05:14:16.424Z</time>
      </trkpt>
      <trkpt lat="45.177992" lon="5.409549">
        <ele>210.700317</ele>
        <time>2021-07-04T05:14:29.653Z</time>
      </trkpt>
      <trkpt lat="45.177464" lon="5.408655">
        <ele>210.853829</ele>
        <time>2021-07-04T05:14:48.931Z</time>
      </trkpt>
      <trkpt lat="45.177419" lon="5.408572">
        <ele>210.867611</ele>
        <time>2021-07-04T05:14:51.552Z</time>
      </trkpt>
      <trkpt lat="45.177237" lon="5.408082">
        <ele>210.940512</ele>
        <time>2021-07-04T05:15:00.671Z</time>
      </trkpt>
      <trkpt lat="45.177086" lon="5.407640">
        <ele>211.000573</ele>
        <time>2021-07-04T05:15:08.565Z</time>
      </trkpt>
      <trkpt lat="45.177024" lon="5.407184">
        <ele>210.910489</ele>
        <time>2021-07-04T05:15:15.698Z</time>
      </trkpt>
      <trkpt lat="45.177095" lon="5.406012">
        <ele>210.682311</ele>
        <time>2021-07-04T05:15:32.555Z</time>
      </trkpt>
      <trkpt lat="45.177065" lon="5.404907">
        <ele>210.401516</ele>
        <time>2021-07-04T05:15:49.989Z</time>
      </trkpt>
      <trkpt lat="45.176278" lon="5.402578">
        <ele>208.618652</ele>
        <time>2021-07-04T05:16:26.761Z</time>
      </trkpt>
      <trkpt lat="45.176235" lon="5.402366">
        <ele>208.080913</ele>
        <time>2021-07-04T05:16:29.480Z</time>
      </trkpt>
      <trkpt lat="45.176263" lon="5.401444">
        <ele>205.831353</ele>
        <time>2021-07-04T05:16:40.079Z</time>
      </trkpt>
      <trkpt lat="45.175699" lon="5.399724">
        <ele>201.414689</ele>
        <time>2021-07-04T05:17:00.439Z</time>
      </trkpt>
      <trkpt lat="45.175611" lon="5.399566">
        <ele>200.981122</ele>
        <time>2021-07-04T05:17:02.510Z</time>
      </trkpt>
      <trkpt lat="45.175541" lon="5.399501">
        <ele>200.725582</ele>
        <time>2021-07-04T05:17:03.846Z</time>
      </trkpt>
      <trkpt lat="45.175092" lon="5.399070">
        <ele>199.069683</ele>
        <time>2021-07-04T05:17:12.818Z</time>
      </trkpt>
      <trkpt lat="45.175018" lon="5.398941">
        <ele>198.711581</ele>
        <time>2021-07-04T05:17:14.640Z</time>
      </trkpt>
      <trkpt lat="45.174901" lon="5.398715">
        <ele>198.107839</ele>
        <time>2021-07-04T05:17:18.877Z</time>
      </trkpt>
      <trkpt lat="45.174853" lon="5.398562">
        <ele>197.747252</ele>
        <time>2021-07-04T05:17:20.818Z</time>
      </trkpt>
      <trkpt lat="45.174852" lon="5.398196">
        <ele>198.092570</ele>
        <time>2021-07-04T05:17:26.953Z</time>
      </trkpt>
      <trkpt lat="45.175083" lon="5.397615">
        <ele>199.717169</ele>
        <time>2021-07-04T05:17:40.013Z</time>
      </trkpt>
      <trkpt lat="45.175113" lon="5.397357">
        <ele>200.354029</ele>
        <time>2021-07-04T05:17:46.726Z</time>
      </trkpt>
      <trkpt lat="45.175032" lon="5.396933">
        <ele>201.423945</ele>
        <time>2021-07-04T05:17:58.733Z</time>
      </trkpt>
      <trkpt lat="45.174768" lon="5.396192">
        <ele>203.446078</ele>
        <time>2021-07-04T05:18:25.535Z</time>
      </trkpt>
      <trkpt lat="45.174576" lon="5.395878">
        <ele>205.014341</ele>
        <time>2021-07-04T05:18:40.548Z</time>
      </trkpt>
      <trkpt lat="45.174380" lon="5.395671">
        <ele>206.481632</ele>
        <time>2021-07-04T05:18:53.108Z</time>
      </trkpt>
      <trkpt lat="45.173786" lon="5.395295">
        <ele>210.387444</ele>
        <time>2021-07-04T05:19:24.708Z</time>
      </trkpt>
      <trkpt lat="45.173380" lon="5.395017">
        <ele>213.094527</ele>
        <time>2021-07-04T05:19:45.228Z</time>
      </trkpt>
      <trkpt lat="45.173096" lon="5.394720">
        <ele>214.848907</ele>
        <time>2021-07-04T05:19:59.911Z</time>
      </trkpt>
      <trkpt lat="45.172477" lon="5.394010">
        <ele>217.168114</ele>
        <time>2021-07-04T05:20:29.363Z</time>
      </trkpt>
      <trkpt lat="45.172291" lon="5.393727">
        <ele>217.962782</ele>
        <time>2021-07-04T05:20:38.214Z</time>
      </trkpt>
      <trkpt lat="45.172000" lon="5.392858">
        <ele>219.862581</ele>
        <time>2021-07-04T05:20:56.363Z</time>
      </trkpt>
      <trkpt lat="45.171584" lon="5.391971">
        <ele>221.187287</ele>
        <time>2021-07-04T05:21:17.577Z</time>
      </trkpt>
      <trkpt lat="45.171139" lon="5.391433">
        <ele>222.218590</ele>
        <time>2021-07-04T05:21:35.120Z</time>
      </trkpt>
      <trkpt lat="45.170306" lon="5.390749">
        <ele>223.885186</ele>
        <time>2021-07-04T05:22:05.130Z</time>
      </trkpt>
      <trkpt lat="45.169626" lon="5.389539">
        <ele>225.749442</ele>
        <time>2021-07-04T05:22:37.156Z</time>
      </trkpt>
      <trkpt lat="45.169158" lon="5.388578">
        <ele>226.033937</ele>
        <time>2021-07-04T05:22:57.352Z</time>
      </trkpt>
      <trkpt lat="45.168547" lon="5.387982">
        <ele>226.079720</ele>
        <time>2021-07-04T05:23:12.899Z</time>
      </trkpt>
      <trkpt lat="45.166894" lon="5.387031">
        <ele>226.078775</ele>
        <time>2021-07-04T05:23:49.545Z</time>
      </trkpt>
      <trkpt lat="45.164657" lon="5.385798">
        <ele>228.629600</ele>
        <time>2021-07-04T05:24:55.987Z</time>
      </trkpt>
      <trkpt lat="45.162756" lon="5.384749">
        <ele>230.402331</ele>
        <time>2021-07-04T05:25:50.893Z</time>
      </trkpt>
      <trkpt lat="45.162791" lon="5.384641">
        <ele>230.388007</ele>
        <time>2021-07-04T05:25:52.758Z</time>
      </trkpt>
      <trkpt lat="45.162525" lon="5.382869">
        <ele>230.158316</ele>
        <time>2021-07-04T05:26:19.826Z</time>
      </trkpt>
      <trkpt lat="45.162023" lon="5.381996">
        <ele>229.410958</ele>
        <time>2021-07-04T05:26:34.876Z</time>
      </trkpt>
      <trkpt lat="45.161846" lon="5.381652">
        <ele>229.128433</ele>
        <time>2021-07-04T05:26:40.684Z</time>
      </trkpt>
      <trkpt lat="45.161361" lon="5.381095">
        <ele>228.541236</ele>
        <time>2021-07-04T05:26:53.039Z</time>
      </trkpt>
      <trkpt lat="45.160953" lon="5.380505">
        <ele>228.083703</ele>
        <time>2021-07-04T05:27:04.696Z</time>
      </trkpt>
      <trkpt lat="45.160628" lon="5.379818">
        <ele>227.637116</ele>
        <time>2021-07-04T05:27:16.356Z</time>
      </trkpt>
      <trkpt lat="45.160492" lon="5.379367">
        <ele>227.372328</ele>
        <time>2021-07-04T05:27:23.220Z</time>
      </trkpt>
      <trkpt lat="45.159833" lon="5.378176">
        <ele>226.529791</ele>
        <time>2021-07-04T05:27:44.199Z</time>
      </trkpt>
      <trkpt lat="45.159508" lon="5.377726">
        <ele>226.166003</ele>
        <time>2021-07-04T05:27:53.137Z</time>
      </trkpt>
      <trkpt lat="45.159357" lon="5.377348">
        <ele>225.920649</ele>
        <time>2021-07-04T05:27:59.204Z</time>
      </trkpt>
      <trkpt lat="45.159076" lon="5.376916">
        <ele>225.611575</ele>
        <time>2021-07-04T05:28:07.442Z</time>
      </trkpt>
      <trkpt lat="45.158816" lon="5.376284">
        <ele>225.326683</ele>
        <time>2021-07-04T05:28:17.811Z</time>
      </trkpt>
      <trkpt lat="45.157941" lon="5.375000">
        <ele>224.650040</ele>
        <time>2021-07-04T05:28:43.732Z</time>
      </trkpt>
      <trkpt lat="45.157165" lon="5.373998">
        <ele>224.356492</ele>
        <time>2021-07-04T05:29:05.983Z</time>
      </trkpt>
      <trkpt lat="45.156749" lon="5.373501">
        <ele>224.204345</ele>
        <time>2021-07-04T05:29:17.666Z</time>
      </trkpt>
      <trkpt lat="45.155972" lon="5.372798">
        <ele>223.915123</ele>
        <time>2021-07-04T05:29:37.460Z</time>
      </trkpt>
      <trkpt lat="45.155462" lon="5.372089">
        <ele>223.686760</ele>
        <time>2021-07-04T05:29:52.671Z</time>
      </trkpt>
      <trkpt lat="45.154550" lon="5.370680">
        <ele>222.412836</ele>
        <time>2021-07-04T05:30:20.020Z</time>
      </trkpt>
      <trkpt lat="45.154515" lon="5.370626">
        <ele>222.354751</ele>
        <time>2021-07-04T05:30:20.982Z</time>
      </trkpt>
      <trkpt lat="45.154043" lon="5.369993">
        <ele>221.625164</ele>
        <time>2021-07-04T05:30:32.844Z</time>
      </trkpt>
      <trkpt lat="45.153900" lon="5.368991">
        <ele>217.672866</ele>
        <time>2021-07-04T05:30:45.359Z</time>
      </trkpt>
      <trkpt lat="45.153615" lon="5.366912">
        <ele>207.894055</ele>
        <time>2021-07-04T05:31:06.421Z</time>
      </trkpt>
      <trkpt lat="45.153660" lon="5.366562">
        <ele>205.673134</ele>
        <time>2021-07-04T05:31:09.803Z</time>
      </trkpt>
      <trkpt lat="45.154108" lon="5.365331">
        <ele>197.025587</ele>
        <time>2021-07-04T05:31:22.933Z</time>
      </trkpt>
      <trkpt lat="45.155173" lon="5.362605">
        <ele>191.110742</ele>
        <time>2021-07-04T05:31:58.841Z</time>
      </trkpt>
      <trkpt lat="45.155261" lon="5.362322">
        <ele>192.490515</ele>
        <time>2021-07-04T05:32:10.342Z</time>
      </trkpt>
      <trkpt lat="45.155324" lon="5.362124">
        <ele>193.459556</ele>
        <time>2021-07-04T05:32:16.610Z</time>
      </trkpt>
      <trkpt lat="45.155263" lon="5.362009">
        <ele>194.101509</ele>
        <time>2021-07-04T05:32:23.870Z</time>
      </trkpt>
      <trkpt lat="45.155126" lon="5.361644">
        <ele>195.946084</ele>
        <time>2021-07-04T05:32:38.324Z</time>
      </trkpt>
      <trkpt lat="45.154732" lon="5.361026">
        <ele>199.662700</ele>
        <time>2021-07-04T05:33:14.242Z</time>
      </trkpt>
      <trkpt lat="45.153251" lon="5.359300">
        <ele>215.814632</ele>
        <time>2021-07-04T05:35:05.390Z</time>
      </trkpt>
      <trkpt lat="45.153010" lon="5.359088">
        <ele>218.150663</ele>
        <time>2021-07-04T05:35:19.870Z</time>
      </trkpt>
      <trkpt lat="45.151748" lon="5.358393">
        <ele>228.701172</ele>
        <time>2021-07-04T05:36:33.186Z</time>
      </trkpt>
      <trkpt lat="45.151625" lon="5.358168">
        <ele>230.265760</ele>
        <time>2021-07-04T05:36:43.436Z</time>
      </trkpt>
      <trkpt lat="45.151584" lon="5.357659">
        <ele>232.309555</ele>
        <time>2021-07-04T05:37:01.894Z</time>
      </trkpt>
      <trkpt lat="45.151755" lon="5.357112">
        <ele>234.383711</ele>
        <time>2021-07-04T05:37:22.781Z</time>
      </trkpt>
      <trkpt lat="45.151553" lon="5.356977">
        <ele>235.481398</ele>
        <time>2021-07-04T05:37:32.826Z</time>
      </trkpt>
      <trkpt lat="45.149678" lon="5.355427">
        <ele>242.973872</ele>
        <time>2021-07-04T05:38:49.692Z</time>
      </trkpt>
      <trkpt lat="45.148892" lon="5.354608">
        <ele>244.636300</ele>
        <time>2021-07-04T05:39:16.224Z</time>
      </trkpt>
      <trkpt lat="45.148125" lon="5.353999">
        <ele>245.411635</ele>
        <time>2021-07-04T05:39:39.580Z</time>
      </trkpt>
      <trkpt lat="45.148029" lon="5.353911">
        <ele>245.512461</ele>
        <time>2021-07-04T05:39:42.647Z</time>
      </trkpt>
      <trkpt lat="45.147966" lon="5.353852">
        <ele>245.579053</ele>
        <time>2021-07-04T05:39:44.654Z</time>
      </trkpt>
      <trkpt lat="45.147212" lon="5.352859">
        <ele>246.142374</ele>
        <time>2021-07-04T05:40:11.146Z</time>
      </trkpt>
      <trkpt lat="45.145789" lon="5.351348">
        <ele>246.574889</ele>
        <time>2021-07-04T05:40:54.315Z</time>
      </trkpt>
      <trkpt lat="45.143766" lon="5.349029">
        <ele>245.945706</ele>
        <time>2021-07-04T05:41:52.263Z</time>
      </trkpt>
      <trkpt lat="45.143088" lon="5.348229">
        <ele>245.039135</ele>
        <time>2021-07-04T05:42:10.123Z</time>
      </trkpt>
      <trkpt lat="45.142831" lon="5.347928">
        <ele>244.610680</ele>
        <time>2021-07-04T05:42:16.703Z</time>
      </trkpt>
      <trkpt lat="45.142623" lon="5.347736">
        <ele>244.291669</ele>
        <time>2021-07-04T05:42:21.525Z</time>
      </trkpt>
      <trkpt lat="45.142470" lon="5.347621">
        <ele>244.069092</ele>
        <time>2021-07-04T05:42:24.817Z</time>
      </trkpt>
      <trkpt lat="45.142401" lon="5.347569">
        <ele>243.968656</ele>
        <time>2021-07-04T05:42:26.158Z</time>
      </trkpt>
      <trkpt lat="45.141286" lon="5.346793">
        <ele>242.234269</ele>
        <time>2021-07-04T05:42:49.835Z</time>
      </trkpt>
      <trkpt lat="45.141141" lon="5.346647">
        <ele>241.978521</ele>
        <time>2021-07-04T05:42:53.073Z</time>
      </trkpt>
      <trkpt lat="45.140773" lon="5.346077">
        <ele>241.194743</ele>
        <time>2021-07-04T05:43:03.948Z</time>
      </trkpt>
      <trkpt lat="45.140161" lon="5.344817">
        <ele>239.868495</ele>
        <time>2021-07-04T05:43:25.771Z</time>
      </trkpt>
      <trkpt lat="45.140110" lon="5.344712">
        <ele>239.761552</ele>
        <time>2021-07-04T05:43:27.611Z</time>
      </trkpt>
      <trkpt lat="45.140004" lon="5.344684">
        <ele>239.633322</ele>
        <time>2021-07-04T05:43:29.654Z</time>
      </trkpt>
      <trkpt lat="45.139197" lon="5.344845">
        <ele>238.626332</ele>
        <time>2021-07-04T05:43:45.759Z</time>
      </trkpt>
      <trkpt lat="45.138852" lon="5.344696">
        <ele>238.084294</ele>
        <time>2021-07-04T05:43:52.711Z</time>
      </trkpt>
      <trkpt lat="45.138745" lon="5.344578">
        <ele>237.880553</ele>
        <time>2021-07-04T05:43:55.411Z</time>
      </trkpt>
      <trkpt lat="45.138640" lon="5.344372">
        <ele>237.611113</ele>
        <time>2021-07-04T05:43:58.564Z</time>
      </trkpt>
      <trkpt lat="45.137750" lon="5.343094">
        <ele>235.852906</ele>
        <time>2021-07-04T05:44:23.010Z</time>
      </trkpt>
      <trkpt lat="45.137638" lon="5.342903">
        <ele>235.686214</ele>
        <time>2021-07-04T05:44:26.164Z</time>
      </trkpt>
      <trkpt lat="45.137555" lon="5.342677">
        <ele>235.515212</ele>
        <time>2021-07-04T05:44:30.084Z</time>
      </trkpt>
      <trkpt lat="45.137296" lon="5.341891">
        <ele>234.932985</ele>
        <time>2021-07-04T05:44:42.776Z</time>
      </trkpt>
      <trkpt lat="45.137016" lon="5.341226">
        <ele>234.413219</ele>
        <time>2021-07-04T05:44:54.324Z</time>
      </trkpt>
      <trkpt lat="45.136476" lon="5.340471">
        <ele>233.299191</ele>
        <time>2021-07-04T05:45:10.446Z</time>
      </trkpt>
      <trkpt lat="45.136259" lon="5.340080">
        <ele>232.778483</ele>
        <time>2021-07-04T05:45:17.174Z</time>
      </trkpt>
      <trkpt lat="45.136218" lon="5.340004">
        <ele>232.678343</ele>
        <time>2021-07-04T05:45:18.407Z</time>
      </trkpt>
      <trkpt lat="45.135892" lon="5.339423">
        <ele>231.901333</ele>
        <time>2021-07-04T05:45:28.042Z</time>
      </trkpt>
      <trkpt lat="45.135477" lon="5.338890">
        <ele>230.081992</ele>
        <time>2021-07-04T05:45:38.024Z</time>
      </trkpt>
      <trkpt lat="45.135336" lon="5.338720">
        <ele>229.392198</ele>
        <time>2021-07-04T05:45:41.044Z</time>
      </trkpt>
      <trkpt lat="45.134934" lon="5.338255">
        <ele>227.458664</ele>
        <time>2021-07-04T05:45:49.563Z</time>
      </trkpt>
      <trkpt lat="45.134443" lon="5.337835">
        <ele>225.321595</ele>
        <time>2021-07-04T05:45:58.836Z</time>
      </trkpt>
      <trkpt lat="45.134176" lon="5.337670">
        <ele>224.285502</ele>
        <time>2021-07-04T05:46:03.615Z</time>
      </trkpt>
      <trkpt lat="45.134063" lon="5.337679">
        <ele>223.890232</ele>
        <time>2021-07-04T05:46:05.343Z</time>
      </trkpt>
      <trkpt lat="45.133350" lon="5.337730">
        <ele>221.396939</ele>
        <time>2021-07-04T05:46:17.132Z</time>
      </trkpt>
      <trkpt lat="45.133049" lon="5.337857">
        <ele>220.300128</ele>
        <time>2021-07-04T05:46:22.522Z</time>
      </trkpt>
      <trkpt lat="45.132740" lon="5.337806">
        <ele>219.213667</ele>
        <time>2021-07-04T05:46:27.922Z</time>
      </trkpt>
      <trkpt lat="45.132512" lon="5.337614">
        <ele>218.415155</ele>
        <time>2021-07-04T05:46:32.613Z</time>
      </trkpt>
      <trkpt lat="45.132079" lon="5.336906">
        <ele>216.758075</ele>
        <time>2021-07-04T05:46:45.782Z</time>
      </trkpt>
      <trkpt lat="45.131786" lon="5.336469">
        <ele>215.691889</ele>
        <time>2021-07-04T05:46:54.522Z</time>
      </trkpt>
      <trkpt lat="45.131088" lon="5.335989">
        <ele>212.107454</ele>
        <time>2021-07-04T05:47:07.820Z</time>
      </trkpt>
      <trkpt lat="45.130557" lon="5.335742">
        <ele>205.960067</ele>
        <time>2021-07-04T05:47:15.907Z</time>
      </trkpt>
      <trkpt lat="45.130241" lon="5.335586">
        <ele>202.279332</ele>
        <time>2021-07-04T05:47:20.500Z</time>
      </trkpt>
      <trkpt lat="45.130143" lon="5.335607">
        <ele>201.189098</ele>
        <time>2021-07-04T05:47:21.849Z</time>
      </trkpt>
      <trkpt lat="45.129400" lon="5.335604">
        <ele>192.804525</ele>
        <time>2021-07-04T05:47:31.972Z</time>
      </trkpt>
      <trkpt lat="45.128891" lon="5.335691">
        <ele>186.330375</ele>
        <time>2021-07-04T05:47:38.916Z</time>
      </trkpt>
      <trkpt lat="45.128586" lon="5.335337">
        <ele>181.352344</ele>
        <time>2021-07-04T05:47:44.274Z</time>
      </trkpt>
      <trkpt lat="45.128450" lon="5.335096">
        <ele>178.602882</ele>
        <time>2021-07-04T05:47:47.282Z</time>
      </trkpt>
      <trkpt lat="45.128297" lon="5.334482">
        <ele>172.801447</ele>
        <time>2021-07-04T05:47:53.765Z</time>
      </trkpt>
      <trkpt lat="45.128029" lon="5.334037">
        <ele>170.655181</ele>
        <time>2021-07-04T05:48:00.030Z</time>
      </trkpt>
      <trkpt lat="45.127131" lon="5.333378">
        <ele>167.333534</ele>
        <time>2021-07-04T05:48:18.609Z</time>
      </trkpt>
      <trkpt lat="45.126872" lon="5.333089">
        <ele>166.250772</ele>
        <time>2021-07-04T05:48:25.099Z</time>
      </trkpt>
      <trkpt lat="45.126567" lon="5.332602">
        <ele>165.899203</ele>
        <time>2021-07-04T05:48:34.543Z</time>
      </trkpt>
      <trkpt lat="45.126242" lon="5.331851">
        <ele>166.038861</ele>
        <time>2021-07-04T05:48:48.007Z</time>
      </trkpt>
      <trkpt lat="45.126052" lon="5.331251">
        <ele>166.143114</ele>
        <time>2021-07-04T05:48:58.475Z</time>
      </trkpt>
      <trkpt lat="45.125885" lon="5.330670">
        <ele>166.567529</ele>
        <time>2021-07-04T05:49:11.707Z</time>
      </trkpt>
      <trkpt lat="45.125683" lon="5.329684">
        <ele>170.690038</ele>
        <time>2021-07-04T05:49:39.641Z</time>
      </trkpt>
      <trkpt lat="45.125608" lon="5.329574">
        <ele>171.304242</ele>
        <time>2021-07-04T05:49:44.761Z</time>
      </trkpt>
      <trkpt lat="45.125508" lon="5.329708">
        <ele>172.087405</ele>
        <time>2021-07-04T05:49:50.548Z</time>
      </trkpt>
      <trkpt lat="45.124237" lon="5.330592">
        <ele>181.527450</ele>
        <time>2021-07-04T05:51:10.349Z</time>
      </trkpt>
      <trkpt lat="45.123988" lon="5.330728">
        <ele>183.616846</ele>
        <time>2021-07-04T05:51:26.840Z</time>
      </trkpt>
      <trkpt lat="45.123756" lon="5.330690">
        <ele>185.445462</ele>
        <time>2021-07-04T05:51:40.326Z</time>
      </trkpt>
      <trkpt lat="45.123532" lon="5.330449">
        <ele>187.647463</ele>
        <time>2021-07-04T05:51:55.111Z</time>
      </trkpt>
      <trkpt lat="45.123310" lon="5.329943">
        <ele>190.716083</ele>
        <time>2021-07-04T05:52:16.042Z</time>
      </trkpt>
      <trkpt lat="45.123273" lon="5.329858">
        <ele>190.952997</ele>
        <time>2021-07-04T05:52:19.397Z</time>
      </trkpt>
      <trkpt lat="45.122523" lon="5.328066">
        <ele>195.895439</ele>
        <time>2021-07-04T05:53:09.387Z</time>
      </trkpt>
      <trkpt lat="45.122178" lon="5.327533">
        <ele>197.338301</ele>
        <time>2021-07-04T05:53:24.150Z</time>
      </trkpt>
      <trkpt lat="45.121973" lon="5.327313">
        <ele>197.970605</ele>
        <time>2021-07-04T05:53:31.677Z</time>
      </trkpt>
      <trkpt lat="45.121740" lon="5.327149">
        <ele>198.610315</ele>
        <time>2021-07-04T05:53:39.743Z</time>
      </trkpt>
      <trkpt lat="45.121468" lon="5.327003">
        <ele>199.325521</ele>
        <time>2021-07-04T05:53:49.068Z</time>
      </trkpt>
      <trkpt lat="45.121289" lon="5.326957">
        <ele>199.772855</ele>
        <time>2021-07-04T05:53:54.920Z</time>
      </trkpt>
      <trkpt lat="45.121164" lon="5.326924">
        <ele>200.085514</ele>
        <time>2021-07-04T05:53:59.278Z</time>
      </trkpt>
      <trkpt lat="45.120753" lon="5.326961">
        <ele>201.130175</ele>
        <time>2021-07-04T05:54:13.190Z</time>
      </trkpt>
      <trkpt lat="45.120582" lon="5.326976">
        <ele>201.719281</ele>
        <time>2021-07-04T05:54:19.094Z</time>
      </trkpt>
      <trkpt lat="45.120355" lon="5.326996">
        <ele>202.501324</ele>
        <time>2021-07-04T05:54:27.292Z</time>
      </trkpt>
      <trkpt lat="45.120112" lon="5.327018">
        <ele>203.338579</ele>
        <time>2021-07-04T05:54:36.372Z</time>
      </trkpt>
      <trkpt lat="45.119600" lon="5.327071">
        <ele>205.103772</ele>
        <time>2021-07-04T05:54:55.163Z</time>
      </trkpt>
      <trkpt lat="45.118785" lon="5.327157">
        <ele>207.860798</ele>
        <time>2021-07-04T05:55:24.705Z</time>
      </trkpt>
      <trkpt lat="45.118611" lon="5.327175">
        <ele>208.415912</ele>
        <time>2021-07-04T05:55:31.134Z</time>
      </trkpt>
      <trkpt lat="45.117492" lon="5.327328">
        <ele>211.992934</ele>
        <time>2021-07-04T05:56:10.793Z</time>
      </trkpt>
      <trkpt lat="45.117166" lon="5.327282">
        <ele>213.008821</ele>
        <time>2021-07-04T05:56:21.994Z</time>
      </trkpt>
      <trkpt lat="45.116952" lon="5.327306">
        <ele>213.526924</ele>
        <time>2021-07-04T05:56:28.708Z</time>
      </trkpt>
      <trkpt lat="45.116481" lon="5.327414">
        <ele>214.678466</ele>
        <time>2021-07-04T05:56:43.832Z</time>
      </trkpt>
      <trkpt lat="45.116122" lon="5.327437">
        <ele>215.545796</ele>
        <time>2021-07-04T05:56:54.908Z</time>
      </trkpt>
      <trkpt lat="45.115859" lon="5.327453">
        <ele>216.181130</ele>
        <time>2021-07-04T05:57:02.922Z</time>
      </trkpt>
      <trkpt lat="45.115840" lon="5.327454">
        <ele>216.227018</ele>
        <time>2021-07-04T05:57:03.571Z</time>
      </trkpt>
      <trkpt lat="45.115691" lon="5.327464">
        <ele>216.587032</ele>
        <time>2021-07-04T05:57:08.272Z</time>
      </trkpt>
      <trkpt lat="45.115468" lon="5.327449">
        <ele>217.125848</ele>
        <time>2021-07-04T05:57:15.311Z</time>
      </trkpt>
      <trkpt lat="45.115326" lon="5.327397">
        <ele>217.511889</ele>
        <time>2021-07-04T05:57:19.863Z</time>
      </trkpt>
      <trkpt lat="45.115070" lon="5.327297">
        <ele>218.249138</ele>
        <time>2021-07-04T05:57:28.670Z</time>
      </trkpt>
      <trkpt lat="45.114557" lon="5.327118">
        <ele>219.715936</ele>
        <time>2021-07-04T05:57:46.322Z</time>
      </trkpt>
      <trkpt lat="45.114430" lon="5.327075">
        <ele>220.078455</ele>
        <time>2021-07-04T05:57:50.658Z</time>
      </trkpt>
      <trkpt lat="45.114117" lon="5.326972">
        <ele>220.970569</ele>
        <time>2021-07-04T05:58:01.625Z</time>
      </trkpt>
      <trkpt lat="45.113947" lon="5.326940">
        <ele>221.446691</ele>
        <time>2021-07-04T05:58:07.138Z</time>
      </trkpt>
      <trkpt lat="45.113834" lon="5.326933">
        <ele>221.760715</ele>
        <time>2021-07-04T05:58:11.209Z</time>
      </trkpt>
      <trkpt lat="45.113686" lon="5.326906">
        <ele>222.175003</ele>
        <time>2021-07-04T05:58:16.009Z</time>
      </trkpt>
      <trkpt lat="45.113647" lon="5.326900">
        <ele>222.283871</ele>
        <time>2021-07-04T05:58:17.425Z</time>
      </trkpt>
      <trkpt lat="45.113604" lon="5.326873">
        <ele>222.414201</ele>
        <time>2021-07-04T05:58:18.984Z</time>
      </trkpt>
      <trkpt lat="45.113581" lon="5.326860">
        <ele>222.482819</ele>
        <time>2021-07-04T05:58:19.843Z</time>
      </trkpt>
      <trkpt lat="45.113475" lon="5.326787">
        <ele>222.809404</ele>
        <time>2021-07-04T05:58:24.050Z</time>
      </trkpt>
      <trkpt lat="45.113441" lon="5.326750">
        <ele>222.928198</ele>
        <time>2021-07-04T05:58:25.606Z</time>
      </trkpt>
      <trkpt lat="45.113403" lon="5.326650">
        <ele>223.150302</ele>
        <time>2021-07-04T05:58:28.053Z</time>
      </trkpt>
      <trkpt lat="45.113203" lon="5.326423">
        <ele>223.860380</ele>
        <time>2021-07-04T05:58:37.495Z</time>
      </trkpt>
      <trkpt lat="45.112717" lon="5.326112">
        <ele>225.338077</ele>
        <time>2021-07-04T05:58:55.769Z</time>
      </trkpt>
      <trkpt lat="45.112132" lon="5.325887">
        <ele>227.017804</ele>
        <time>2021-07-04T05:59:15.718Z</time>
      </trkpt>
      <trkpt lat="45.111893" lon="5.325786">
        <ele>227.459269</ele>
        <time>2021-07-04T05:59:23.246Z</time>
      </trkpt>
      <trkpt lat="45.111735" lon="5.325710">
        <ele>227.673198</ele>
        <time>2021-07-04T05:59:27.864Z</time>
      </trkpt>
      <trkpt lat="45.111636" lon="5.325687">
        <ele>227.801823</ele>
        <time>2021-07-04T05:59:30.576Z</time>
      </trkpt>
      <trkpt lat="45.111587" lon="5.325680">
        <ele>227.864965</ele>
        <time>2021-07-04T05:59:32.007Z</time>
      </trkpt>
      <trkpt lat="45.111572" lon="5.325678">
        <ele>227.884282</ele>
        <time>2021-07-04T05:59:32.537Z</time>
      </trkpt>
      <trkpt lat="45.111264" lon="5.325493">
        <ele>228.313189</ele>
        <time>2021-07-04T05:59:41.648Z</time>
      </trkpt>
      <trkpt lat="45.111120" lon="5.325437">
        <ele>228.504642</ele>
        <time>2021-07-04T05:59:45.713Z</time>
      </trkpt>
      <trkpt lat="45.111057" lon="5.325408">
        <ele>228.589571</ele>
        <time>2021-07-04T05:59:47.511Z</time>
      </trkpt>
      <trkpt lat="45.110563" lon="5.325151">
        <ele>229.264279</ele>
        <time>2021-07-04T06:00:01.659Z</time>
      </trkpt>
      <trkpt lat="45.110340" lon="5.324976">
        <ele>229.558197</ele>
        <time>2021-07-04T06:00:07.952Z</time>
      </trkpt>
      <trkpt lat="45.109945" lon="5.324666">
        <ele>229.669307</ele>
        <time>2021-07-04T06:00:18.901Z</time>
      </trkpt>
      <trkpt lat="45.108911" lon="5.324151">
        <ele>229.939003</ele>
        <time>2021-07-04T06:00:43.992Z</time>
      </trkpt>
      <trkpt lat="45.108116" lon="5.323548">
        <ele>229.650462</ele>
        <time>2021-07-04T06:01:03.114Z</time>
      </trkpt>
      <trkpt lat="45.107360" lon="5.322659">
        <ele>229.157381</ele>
        <time>2021-07-04T06:01:22.897Z</time>
      </trkpt>
      <trkpt lat="45.106543" lon="5.321448">
        <ele>228.272325</ele>
        <time>2021-07-04T06:01:46.261Z</time>
      </trkpt>
      <trkpt lat="45.106174" lon="5.321050">
        <ele>227.910595</ele>
        <time>2021-07-04T06:01:55.488Z</time>
      </trkpt>
      <trkpt lat="45.104808" lon="5.320007">
        <ele>226.600110</ele>
        <time>2021-07-04T06:02:26.304Z</time>
      </trkpt>
      <trkpt lat="45.102800" lon="5.318067">
        <ele>224.172201</ele>
        <time>2021-07-04T06:03:12.960Z</time>
      </trkpt>
      <trkpt lat="45.102556" lon="5.317816">
        <ele>223.889889</ele>
        <time>2021-07-04T06:03:18.685Z</time>
      </trkpt>
      <trkpt lat="45.102037" lon="5.317284">
        <ele>223.290127</ele>
        <time>2021-07-04T06:03:30.975Z</time>
      </trkpt>
      <trkpt lat="45.101577" lon="5.316706">
        <ele>222.714468</ele>
        <time>2021-07-04T06:03:43.043Z</time>
      </trkpt>
      <trkpt lat="45.101274" lon="5.316427">
        <ele>222.476724</ele>
        <time>2021-07-04T06:03:50.316Z</time>
      </trkpt>
      <trkpt lat="45.100208" lon="5.315700">
        <ele>221.914125</ele>
        <time>2021-07-04T06:04:14.836Z</time>
      </trkpt>
      <trkpt lat="45.099826" lon="5.315320">
        <ele>221.688682</ele>
        <time>2021-07-04T06:04:24.677Z</time>
      </trkpt>
      <trkpt lat="45.099776" lon="5.315237">
        <ele>221.648203</ele>
        <time>2021-07-04T06:04:26.315Z</time>
      </trkpt>
      <trkpt lat="45.099682" lon="5.315084">
        <ele>221.572957</ele>
        <time>2021-07-04T06:04:29.200Z</time>
      </trkpt>
      <trkpt lat="45.098881" lon="5.314080">
        <ele>221.010876</ele>
        <time>2021-07-04T06:04:51.318Z</time>
      </trkpt>
      <trkpt lat="45.097667" lon="5.313000">
        <ele>220.198620</ele>
        <time>2021-07-04T06:05:20.087Z</time>
      </trkpt>
      <trkpt lat="45.097560" lon="5.312929">
        <ele>220.129526</ele>
        <time>2021-07-04T06:05:22.421Z</time>
      </trkpt>
      <trkpt lat="45.096578" lon="5.312277">
        <ele>219.861797</ele>
        <time>2021-07-04T06:05:44.620Z</time>
      </trkpt>
      <trkpt lat="45.095768" lon="5.311792">
        <ele>220.156899</ele>
        <time>2021-07-04T06:06:04.854Z</time>
      </trkpt>
      <trkpt lat="45.095418" lon="5.311561">
        <ele>220.286474</ele>
        <time>2021-07-04T06:06:14.691Z</time>
      </trkpt>
      <trkpt lat="45.093879" lon="5.310834">
        <ele>223.021551</ele>
        <time>2021-07-04T06:07:02.043Z</time>
      </trkpt>
      <trkpt lat="45.089188" lon="5.309053">
        <ele>233.743778</ele>
        <time>2021-07-04T06:09:35.681Z</time>
      </trkpt>
      <trkpt lat="45.086750" lon="5.308408">
        <ele>238.191254</ele>
        <time>2021-07-04T06:10:44.252Z</time>
      </trkpt>
      <trkpt lat="45.085653" lon="5.307800">
        <ele>243.252601</ele>
        <time>2021-07-04T06:11:27.940Z</time>
      </trkpt>
      <trkpt lat="45.085258" lon="5.307693">
        <ele>245.151827</ele>
        <time>2021-07-04T06:11:46.314Z</time>
      </trkpt>
      <trkpt lat="45.085130" lon="5.307846">
        <ele>245.942821</ele>
        <time>2021-07-04T06:11:55.797Z</time>
      </trkpt>
      <trkpt lat="45.084858" lon="5.307867">
        <ele>247.330914</ele>
        <time>2021-07-04T06:12:08.061Z</time>
      </trkpt>
      <trkpt lat="45.084243" lon="5.307599">
        <ele>251.620358</ele>
        <time>2021-07-04T06:12:39.542Z</time>
      </trkpt>
      <trkpt lat="45.083999" lon="5.307525">
        <ele>253.283809</ele>
        <time>2021-07-04T06:12:53.520Z</time>
      </trkpt>
      <trkpt lat="45.083361" lon="5.307409">
        <ele>257.571809</ele>
        <time>2021-07-04T06:13:25.676Z</time>
      </trkpt>
      <trkpt lat="45.083080" lon="5.307487">
        <ele>259.438818</ele>
        <time>2021-07-04T06:13:39.191Z</time>
      </trkpt>
      <trkpt lat="45.082785" lon="5.307477">
        <ele>261.243877</ele>
        <time>2021-07-04T06:13:52.770Z</time>
      </trkpt>
      <trkpt lat="45.082354" lon="5.307341">
        <ele>263.944989</ele>
        <time>2021-07-04T06:14:12.349Z</time>
      </trkpt>
      <trkpt lat="45.081908" lon="5.307156">
        <ele>266.787821</ele>
        <time>2021-07-04T06:14:33.355Z</time>
      </trkpt>
      <trkpt lat="45.081086" lon="5.306477">
        <ele>273.282691</ele>
        <time>2021-07-04T06:15:21.481Z</time>
      </trkpt>
      <trkpt lat="45.080434" lon="5.306205">
        <ele>278.504190</ele>
        <time>2021-07-04T06:16:03.132Z</time>
      </trkpt>
      <trkpt lat="45.080215" lon="5.306234">
        <ele>280.193901</ele>
        <time>2021-07-04T06:16:15.028Z</time>
      </trkpt>
      <trkpt lat="45.080030" lon="5.306370">
        <ele>281.795149</ele>
        <time>2021-07-04T06:16:26.167Z</time>
      </trkpt>
      <trkpt lat="45.079749" lon="5.306729">
        <ele>284.115544</ele>
        <time>2021-07-04T06:16:44.922Z</time>
      </trkpt>
      <trkpt lat="45.079571" lon="5.307030">
        <ele>284.871894</ele>
        <time>2021-07-04T06:16:58.253Z</time>
      </trkpt>
      <trkpt lat="45.079540" lon="5.307059">
        <ele>284.973254</ele>
        <time>2021-07-04T06:16:59.604Z</time>
      </trkpt>
      <trkpt lat="45.079290" lon="5.307292">
        <ele>285.789754</ele>
        <time>2021-07-04T06:17:11.853Z</time>
      </trkpt>
      <trkpt lat="45.079125" lon="5.307554">
        <ele>286.466063</ele>
        <time>2021-07-04T06:17:20.437Z</time>
      </trkpt>
      <trkpt lat="45.078810" lon="5.308448">
        <ele>288.390831</ele>
        <time>2021-07-04T06:17:40.350Z</time>
      </trkpt>
      <trkpt lat="45.078453" lon="5.308797">
        <ele>287.605863</ele>
        <time>2021-07-04T06:17:48.384Z</time>
      </trkpt>
      <trkpt lat="45.078090" lon="5.308894">
        <ele>286.346203</ele>
        <time>2021-07-04T06:17:54.420Z</time>
      </trkpt>
      <trkpt lat="45.077487" lon="5.308778">
        <ele>284.271110</ele>
        <time>2021-07-04T06:18:04.303Z</time>
      </trkpt>
      <trkpt lat="45.077048" lon="5.309001">
        <ele>282.680741</ele>
        <time>2021-07-04T06:18:11.978Z</time>
      </trkpt>
      <trkpt lat="45.076998" lon="5.309036">
        <ele>282.474206</ele>
        <time>2021-07-04T06:18:12.813Z</time>
      </trkpt>
      <trkpt lat="45.076855" lon="5.309136">
        <ele>281.812717</ele>
        <time>2021-07-04T06:18:15.415Z</time>
      </trkpt>
      <trkpt lat="45.076168" lon="5.309247">
        <ele>278.944794</ele>
        <time>2021-07-04T06:18:26.724Z</time>
      </trkpt>
      <trkpt lat="45.074724" lon="5.309311">
        <ele>272.568302</ele>
        <time>2021-07-04T06:18:50.392Z</time>
      </trkpt>
      <trkpt lat="45.073874" lon="5.309457">
        <ele>268.383066</ele>
        <time>2021-07-04T06:19:04.244Z</time>
      </trkpt>
      <trkpt lat="45.072894" lon="5.309263">
        <ele>261.537055</ele>
        <time>2021-07-04T06:19:19.317Z</time>
      </trkpt>
      <trkpt lat="45.072723" lon="5.309156">
        <ele>259.959919</ele>
        <time>2021-07-04T06:19:22.040Z</time>
      </trkpt>
      <trkpt lat="45.072394" lon="5.308993">
        <ele>257.019473</ele>
        <time>2021-07-04T06:19:27.091Z</time>
      </trkpt>
      <trkpt lat="45.072332" lon="5.308962">
        <ele>256.464787</ele>
        <time>2021-07-04T06:19:28.052Z</time>
      </trkpt>
      <trkpt lat="45.072199" lon="5.308946">
        <ele>255.338749</ele>
        <time>2021-07-04T06:19:29.981Z</time>
      </trkpt>
      <trkpt lat="45.071694" lon="5.308884">
        <ele>251.043447</ele>
        <time>2021-07-04T06:19:37.171Z</time>
      </trkpt>
      <trkpt lat="45.071488" lon="5.308933">
        <ele>248.850742</ele>
        <time>2021-07-04T06:19:40.134Z</time>
      </trkpt>
      <trkpt lat="45.071269" lon="5.309137">
        <ele>246.099030</ele>
        <time>2021-07-04T06:19:43.806Z</time>
      </trkpt>
      <trkpt lat="45.070721" lon="5.309865">
        <ele>238.211230</ele>
        <time>2021-07-04T06:19:54.334Z</time>
      </trkpt>
      <trkpt lat="45.070081" lon="5.310347">
        <ele>231.376688</ele>
        <time>2021-07-04T06:20:04.688Z</time>
      </trkpt>
      <trkpt lat="45.069960" lon="5.310496">
        <ele>230.479875</ele>
        <time>2021-07-04T06:20:07.040Z</time>
      </trkpt>
      <trkpt lat="45.069816" lon="5.310894">
        <ele>228.713597</ele>
        <time>2021-07-04T06:20:11.749Z</time>
      </trkpt>
      <trkpt lat="45.069706" lon="5.311428">
        <ele>226.516546</ele>
        <time>2021-07-04T06:20:17.831Z</time>
      </trkpt>
      <trkpt lat="45.069758" lon="5.311959">
        <ele>224.399162</ele>
        <time>2021-07-04T06:20:24.031Z</time>
      </trkpt>
      <trkpt lat="45.069922" lon="5.312375">
        <ele>222.517411</ele>
        <time>2021-07-04T06:20:29.904Z</time>
      </trkpt>
      <trkpt lat="45.069939" lon="5.312544">
        <ele>222.259665</ele>
        <time>2021-07-04T06:20:32.179Z</time>
      </trkpt>
      <trkpt lat="45.069809" lon="5.312621">
        <ele>222.388633</ele>
        <time>2021-07-04T06:20:34.852Z</time>
      </trkpt>
      <trkpt lat="45.069740" lon="5.312547">
        <ele>222.467853</ele>
        <time>2021-07-04T06:20:36.574Z</time>
      </trkpt>
      <trkpt lat="45.069674" lon="5.312587">
        <ele>222.533558</ele>
        <time>2021-07-04T06:20:39.110Z</time>
      </trkpt>
      <trkpt lat="45.069613" lon="5.313007">
        <ele>222.810715</ele>
        <time>2021-07-04T06:20:50.122Z</time>
      </trkpt>
      <trkpt lat="45.069613" lon="5.313349">
        <ele>223.031773</ele>
        <time>2021-07-04T06:21:00.135Z</time>
      </trkpt>
      <trkpt lat="45.069565" lon="5.313469">
        <ele>223.120914</ele>
        <time>2021-07-04T06:21:04.605Z</time>
      </trkpt>
      <trkpt lat="45.069623" lon="5.313679">
        <ele>223.266663</ele>
        <time>2021-07-04T06:21:09.713Z</time>
      </trkpt>
      <trkpt lat="45.069695" lon="5.314278">
        <ele>223.659406</ele>
        <time>2021-07-04T06:21:24.267Z</time>
      </trkpt>
      <trkpt lat="45.069643" lon="5.314728">
        <ele>224.222027</ele>
        <time>2021-07-04T06:21:35.635Z</time>
      </trkpt>
      <trkpt lat="45.069568" lon="5.314949">
        <ele>224.777676</ele>
        <time>2021-07-04T06:21:41.920Z</time>
      </trkpt>
      <trkpt lat="45.069346" lon="5.315679">
        <ele>226.578853</ele>
        <time>2021-07-04T06:22:02.524Z</time>
      </trkpt>
      <trkpt lat="45.069294" lon="5.316010">
        <ele>227.347300</ele>
        <time>2021-07-04T06:22:11.476Z</time>
      </trkpt>
      <trkpt lat="45.069312" lon="5.316397">
        <ele>228.226222</ele>
        <time>2021-07-04T06:22:21.780Z</time>
      </trkpt>
      <trkpt lat="45.069247" lon="5.316893">
        <ele>229.369447</ele>
        <time>2021-07-04T06:22:35.079Z</time>
      </trkpt>
      <trkpt lat="45.069260" lon="5.317078">
        <ele>229.744498</ele>
        <time>2021-07-04T06:22:40.008Z</time>
      </trkpt>
      <trkpt lat="45.069869" lon="5.318123">
        <ele>231.989242</ele>
        <time>2021-07-04T06:23:10.403Z</time>
      </trkpt>
      <trkpt lat="45.069955" lon="5.318420">
        <ele>232.521072</ele>
        <time>2021-07-04T06:23:17.103Z</time>
      </trkpt>
      <trkpt lat="45.069744" lon="5.319120">
        <ele>233.782066</ele>
        <time>2021-07-04T06:23:34.030Z</time>
      </trkpt>
      <trkpt lat="45.069809" lon="5.319825">
        <ele>235.663914</ele>
        <time>2021-07-04T06:23:50.780Z</time>
      </trkpt>
      <trkpt lat="45.069870" lon="5.319970">
        <ele>236.119002</ele>
        <time>2021-07-04T06:23:55.431Z</time>
      </trkpt>
      <trkpt lat="45.069980" lon="5.319990">
        <ele>236.542425</ele>
        <time>2021-07-04T06:23:59.296Z</time>
      </trkpt>
      <trkpt lat="45.070254" lon="5.319869">
        <ele>237.638243</ele>
        <time>2021-07-04T06:24:10.403Z</time>
      </trkpt>
      <trkpt lat="45.070398" lon="5.319883">
        <ele>238.189323</ele>
        <time>2021-07-04T06:24:15.544Z</time>
      </trkpt>
      <trkpt lat="45.070296" lon="5.320250">
        <ele>239.252767</ele>
        <time>2021-07-04T06:24:27.673Z</time>
      </trkpt>
      <trkpt lat="45.069888" lon="5.321060">
        <ele>242.139574</ele>
        <time>2021-07-04T06:24:57.730Z</time>
      </trkpt>
      <trkpt lat="45.069408" lon="5.321686">
        <ele>245.044586</ele>
        <time>2021-07-04T06:25:26.555Z</time>
      </trkpt>
      <trkpt lat="45.068469" lon="5.322728">
        <ele>249.064030</ele>
        <time>2021-07-04T06:26:10.849Z</time>
      </trkpt>
      <trkpt lat="45.067705" lon="5.323566">
        <ele>249.985195</ele>
        <time>2021-07-04T06:26:35.612Z</time>
      </trkpt>
      <trkpt lat="45.064755" lon="5.325590">
        <ele>246.379620</ele>
        <time>2021-07-04T06:27:37.306Z</time>
      </trkpt>
      <trkpt lat="45.063481" lon="5.326449">
        <ele>240.756074</ele>
        <time>2021-07-04T06:28:00.968Z</time>
      </trkpt>
      <trkpt lat="45.062210" lon="5.327306">
        <ele>230.545776</ele>
        <time>2021-07-04T06:28:20.584Z</time>
      </trkpt>
      <trkpt lat="45.061930" lon="5.327525">
        <ele>227.109939</ele>
        <time>2021-07-04T06:28:24.885Z</time>
      </trkpt>
      <trkpt lat="45.061700" lon="5.327790">
        <ele>223.924867</ele>
        <time>2021-07-04T06:28:28.868Z</time>
      </trkpt>
      <trkpt lat="45.061604" lon="5.328033">
        <ele>221.812544</ele>
        <time>2021-07-04T06:28:31.463Z</time>
      </trkpt>
      <trkpt lat="45.061297" lon="5.329644">
        <ele>210.818027</ele>
        <time>2021-07-04T06:28:47.299Z</time>
      </trkpt>
      <trkpt lat="45.061316" lon="5.330044">
        <ele>208.870078</ele>
        <time>2021-07-04T06:28:51.197Z</time>
      </trkpt>
      <trkpt lat="45.061463" lon="5.330575">
        <ele>206.098926</ele>
        <time>2021-07-04T06:28:57.246Z</time>
      </trkpt>
      <trkpt lat="45.061556" lon="5.331477">
        <ele>201.669772</ele>
        <time>2021-07-04T06:29:07.242Z</time>
      </trkpt>
      <trkpt lat="45.061775" lon="5.332373">
        <ele>200.200070</ele>
        <time>2021-07-04T06:29:18.293Z</time>
      </trkpt>
      <trkpt lat="45.062113" lon="5.333335">
        <ele>198.746585</ele>
        <time>2021-07-04T06:29:32.310Z</time>
      </trkpt>
      <trkpt lat="45.062314" lon="5.333731">
        <ele>198.086917</ele>
        <time>2021-07-04T06:29:39.274Z</time>
      </trkpt>
      <trkpt lat="45.062665" lon="5.334276">
        <ele>197.928547</ele>
        <time>2021-07-04T06:29:50.012Z</time>
      </trkpt>
      <trkpt lat="45.062801" lon="5.334335">
        <ele>197.916985</ele>
        <time>2021-07-04T06:29:53.402Z</time>
      </trkpt>
      <trkpt lat="45.063077" lon="5.334358">
        <ele>197.894511</ele>
        <time>2021-07-04T06:29:59.343Z</time>
      </trkpt>
      <trkpt lat="45.063572" lon="5.334514">
        <ele>197.853289</ele>
        <time>2021-07-04T06:30:10.857Z</time>
      </trkpt>
      <trkpt lat="45.064152" lon="5.334963">
        <ele>197.852450</ele>
        <time>2021-07-04T06:30:26.487Z</time>
      </trkpt>
      <trkpt lat="45.064467" lon="5.335475">
        <ele>197.916620</ele>
        <time>2021-07-04T06:30:37.670Z</time>
      </trkpt>
      <trkpt lat="45.064503" lon="5.335636">
        <ele>197.932580</ele>
        <time>2021-07-04T06:30:40.264Z</time>
      </trkpt>
      <trkpt lat="45.064504" lon="5.335804">
        <ele>197.948458</ele>
        <time>2021-07-04T06:30:43.038Z</time>
      </trkpt>
      <trkpt lat="45.064388" lon="5.336271">
        <ele>197.995243</ele>
        <time>2021-07-04T06:30:50.914Z</time>
      </trkpt>
      <trkpt lat="45.064177" lon="5.336787">
        <ele>198.051591</ele>
        <time>2021-07-04T06:31:00.334Z</time>
      </trkpt>
      <trkpt lat="45.064109" lon="5.336952">
        <ele>198.066226</ele>
        <time>2021-07-04T06:31:03.284Z</time>
      </trkpt>
      <trkpt lat="45.063910" lon="5.337375">
        <ele>198.096849</ele>
        <time>2021-07-04T06:31:11.222Z</time>
      </trkpt>
      <trkpt lat="45.063500" lon="5.338069">
        <ele>198.151364</ele>
        <time>2021-07-04T06:31:25.564Z</time>
      </trkpt>
      <trkpt lat="45.063213" lon="5.338537">
        <ele>198.188708</ele>
        <time>2021-07-04T06:31:35.499Z</time>
      </trkpt>
      <trkpt lat="45.062560" lon="5.340249">
        <ele>198.518157</ele>
        <time>2021-07-04T06:32:07.520Z</time>
      </trkpt>
      <trkpt lat="45.062449" lon="5.340576">
        <ele>198.590281</ele>
        <time>2021-07-04T06:32:13.628Z</time>
      </trkpt>
      <trkpt lat="45.062279" lon="5.341149">
        <ele>198.713831</ele>
        <time>2021-07-04T06:32:23.981Z</time>
      </trkpt>
      <trkpt lat="45.062152" lon="5.341877">
        <ele>198.791600</ele>
        <time>2021-07-04T06:32:36.467Z</time>
      </trkpt>
      <trkpt lat="45.062093" lon="5.341914">
        <ele>198.800708</ele>
        <time>2021-07-04T06:32:37.980Z</time>
      </trkpt>
      <trkpt lat="45.061582" lon="5.342863">
        <ele>198.919675</ele>
        <time>2021-07-04T06:32:57.352Z</time>
      </trkpt>
      <trkpt lat="45.061476" lon="5.343073">
        <ele>198.945408</ele>
        <time>2021-07-04T06:33:01.446Z</time>
      </trkpt>
      <trkpt lat="45.061582" lon="5.342863">
        <ele>198.971141</ele>
        <time>2021-07-04T06:33:05.464Z</time>
      </trkpt>
      <trkpt lat="45.062093" lon="5.341914">
        <ele>198.803422</ele>
        <time>2021-07-04T06:33:23.671Z</time>
      </trkpt>
      <trkpt lat="45.062152" lon="5.341877">
        <ele>198.790092</ele>
        <time>2021-07-04T06:33:25.036Z</time>
      </trkpt>
      <trkpt lat="45.062279" lon="5.341149">
        <ele>198.680680</ele>
        <time>2021-07-04T06:33:36.236Z</time>
      </trkpt>
      <trkpt lat="45.062449" lon="5.340576">
        <ele>198.586906</ele>
        <time>2021-07-04T06:33:45.516Z</time>
      </trkpt>
      <trkpt lat="45.062560" lon="5.340249">
        <ele>198.520536</ele>
        <time>2021-07-04T06:33:50.873Z</time>
      </trkpt>
      <trkpt lat="45.063213" lon="5.338537">
        <ele>198.164607</ele>
        <time>2021-07-04T06:34:20.209Z</time>
      </trkpt>
      <trkpt lat="45.063500" lon="5.338069">
        <ele>198.120177</ele>
        <time>2021-07-04T06:34:29.791Z</time>
      </trkpt>
      <trkpt lat="45.063910" lon="5.337375">
        <ele>198.088716</ele>
        <time>2021-07-04T06:34:43.919Z</time>
      </trkpt>
      <trkpt lat="45.064109" lon="5.336952">
        <ele>198.071043</ele>
        <time>2021-07-04T06:34:51.983Z</time>
      </trkpt>
      <trkpt lat="45.064177" lon="5.336787">
        <ele>198.064400</ele>
        <time>2021-07-04T06:34:55.023Z</time>
      </trkpt>
      <trkpt lat="45.064388" lon="5.336271">
        <ele>198.033627</ele>
        <time>2021-07-04T06:35:04.393Z</time>
      </trkpt>
      <trkpt lat="45.064504" lon="5.335804">
        <ele>197.974690</ele>
        <time>2021-07-04T06:35:12.108Z</time>
      </trkpt>
      <trkpt lat="45.064503" lon="5.335636">
        <ele>197.954688</ele>
        <time>2021-07-04T06:35:14.634Z</time>
      </trkpt>
      <trkpt lat="45.064467" lon="5.335475">
        <ele>197.934583</ele>
        <time>2021-07-04T06:35:17.376Z</time>
      </trkpt>
      <trkpt lat="45.064152" lon="5.334963">
        <ele>197.853744</ele>
        <time>2021-07-04T06:35:27.584Z</time>
      </trkpt>
      <trkpt lat="45.063572" lon="5.334514">
        <ele>197.748849</ele>
        <time>2021-07-04T06:35:41.459Z</time>
      </trkpt>
      <trkpt lat="45.063077" lon="5.334358">
        <ele>197.904758</ele>
        <time>2021-07-04T06:35:52.483Z</time>
      </trkpt>
      <trkpt lat="45.062801" lon="5.334335">
        <ele>197.989759</ele>
        <time>2021-07-04T06:35:58.859Z</time>
      </trkpt>
      <trkpt lat="45.062665" lon="5.334276">
        <ele>198.033490</ele>
        <time>2021-07-04T06:36:01.841Z</time>
      </trkpt>
      <trkpt lat="45.062314" lon="5.333731">
        <ele>198.193653</ele>
        <time>2021-07-04T06:36:14.449Z</time>
      </trkpt>
      <trkpt lat="45.062113" lon="5.333335">
        <ele>198.314217</ele>
        <time>2021-07-04T06:36:22.990Z</time>
      </trkpt>
      <trkpt lat="45.061775" lon="5.332373">
        <ele>200.314646</ele>
        <time>2021-07-04T06:36:44.290Z</time>
      </trkpt>
      <trkpt lat="45.061556" lon="5.331477">
        <ele>202.079906</ele>
        <time>2021-07-04T06:37:07.351Z</time>
      </trkpt>
      <trkpt lat="45.061463" lon="5.330575">
        <ele>205.360572</ele>
        <time>2021-07-04T06:37:32.877Z</time>
      </trkpt>
      <trkpt lat="45.061316" lon="5.330044">
        <ele>208.699347</ele>
        <time>2021-07-04T06:37:50.466Z</time>
      </trkpt>
      <trkpt lat="45.061297" lon="5.329644">
        <ele>211.046299</ele>
        <time>2021-07-04T06:38:07.401Z</time>
      </trkpt>
      <trkpt lat="45.061604" lon="5.328033">
        <ele>220.685827</ele>
        <time>2021-07-04T06:39:25.436Z</time>
      </trkpt>
      <trkpt lat="45.061700" lon="5.327790">
        <ele>222.242649</ele>
        <time>2021-07-04T06:39:39.523Z</time>
      </trkpt>
      <trkpt lat="45.061930" lon="5.327525">
        <ele>224.590107</ele>
        <time>2021-07-04T06:39:58.006Z</time>
      </trkpt>
      <trkpt lat="45.062210" lon="5.327306">
        <ele>227.122382</ele>
        <time>2021-07-04T06:40:17.150Z</time>
      </trkpt>
      <trkpt lat="45.063098" lon="5.322777">
        <ele>240.067854</ele>
        <time>2021-07-04T06:42:19.823Z</time>
      </trkpt>
      <trkpt lat="45.063154" lon="5.322246">
        <ele>240.754300</ele>
        <time>2021-07-04T06:42:29.483Z</time>
      </trkpt>
      <trkpt lat="45.063293" lon="5.318756">
        <ele>241.850892</ele>
        <time>2021-07-04T06:43:27.708Z</time>
      </trkpt>
      <trkpt lat="45.063625" lon="5.315813">
        <ele>241.628545</ele>
        <time>2021-07-04T06:44:15.701Z</time>
      </trkpt>
      <trkpt lat="45.063957" lon="5.311864">
        <ele>240.441776</ele>
        <time>2021-07-04T06:45:18.216Z</time>
      </trkpt>
      <trkpt lat="45.064169" lon="5.308865">
        <ele>236.402296</ele>
        <time>2021-07-04T06:45:58.867Z</time>
      </trkpt>
      <trkpt lat="45.064184" lon="5.308404">
        <ele>233.751978</ele>
        <time>2021-07-04T06:46:03.998Z</time>
      </trkpt>
      <trkpt lat="45.064296" lon="5.307193">
        <ele>226.420119</ele>
        <time>2021-07-04T06:46:16.754Z</time>
      </trkpt>
      <trkpt lat="45.064346" lon="5.305736">
        <ele>215.487839</ele>
        <time>2021-07-04T06:46:31.117Z</time>
      </trkpt>
      <trkpt lat="45.064318" lon="5.305347">
        <ele>211.643602</ele>
        <time>2021-07-04T06:46:34.912Z</time>
      </trkpt>
      <trkpt lat="45.063835" lon="5.303932">
        <ele>196.192688</ele>
        <time>2021-07-04T06:46:50.009Z</time>
      </trkpt>
      <trkpt lat="45.063573" lon="5.303333">
        <ele>191.285404</ele>
        <time>2021-07-04T06:46:56.893Z</time>
      </trkpt>
      <trkpt lat="45.063401" lon="5.303053">
        <ele>188.725017</ele>
        <time>2021-07-04T06:47:00.553Z</time>
      </trkpt>
      <trkpt lat="45.063259" lon="5.302802">
        <ele>186.506108</ele>
        <time>2021-07-04T06:47:03.829Z</time>
      </trkpt>
      <trkpt lat="45.063201" lon="5.302703">
        <ele>185.618625</ele>
        <time>2021-07-04T06:47:05.064Z</time>
      </trkpt>
      <trkpt lat="45.062919" lon="5.302213">
        <ele>181.257480</ele>
        <time>2021-07-04T06:47:11.361Z</time>
      </trkpt>
      <trkpt lat="45.062987" lon="5.302063">
        <ele>180.027661</ele>
        <time>2021-07-04T06:47:13.203Z</time>
      </trkpt>
      <trkpt lat="45.063064" lon="5.301894">
        <ele>178.640023</ele>
        <time>2021-07-04T06:47:15.256Z</time>
      </trkpt>
      <trkpt lat="45.063170" lon="5.301662">
        <ele>178.028556</ele>
        <time>2021-07-04T06:47:18.215Z</time>
      </trkpt>
      <trkpt lat="45.063494" lon="5.300925">
        <ele>176.510839</ele>
        <time>2021-07-04T06:47:28.173Z</time>
      </trkpt>
      <trkpt lat="45.063572" lon="5.300717">
        <ele>176.099113</ele>
        <time>2021-07-04T06:47:31.274Z</time>
      </trkpt>
      <trkpt lat="45.063592" lon="5.300658">
        <ele>175.984697</ele>
        <time>2021-07-04T06:47:32.149Z</time>
      </trkpt>
      <trkpt lat="45.063661" lon="5.300487">
        <ele>175.640388</ele>
        <time>2021-07-04T06:47:34.797Z</time>
      </trkpt>
      <trkpt lat="45.063730" lon="5.300126">
        <ele>174.986543</ele>
        <time>2021-07-04T06:47:40.124Z</time>
      </trkpt>
      <trkpt lat="45.063789" lon="5.299502">
        <ele>173.990794</ele>
        <time>2021-07-04T06:47:49.263Z</time>
      </trkpt>
      <trkpt lat="45.063800" lon="5.299355">
        <ele>173.940799</ele>
        <time>2021-07-04T06:47:51.333Z</time>
      </trkpt>
      <trkpt lat="45.063831" lon="5.298558">
        <ele>173.670833</ele>
        <time>2021-07-04T06:48:02.793Z</time>
      </trkpt>
      <trkpt lat="45.063854" lon="5.297961">
        <ele>173.468618</ele>
        <time>2021-07-04T06:48:11.432Z</time>
      </trkpt>
      <trkpt lat="45.063863" lon="5.297764">
        <ele>173.401851</ele>
        <time>2021-07-04T06:48:14.315Z</time>
      </trkpt>
      <trkpt lat="45.063876" lon="5.297352">
        <ele>173.262367</ele>
        <time>2021-07-04T06:48:20.398Z</time>
      </trkpt>
      <trkpt lat="45.063953" lon="5.295629">
        <ele>172.929995</ele>
        <time>2021-07-04T06:48:46.813Z</time>
      </trkpt>
      <trkpt lat="45.064026" lon="5.293382">
        <ele>172.644127</ele>
        <time>2021-07-04T06:49:20.889Z</time>
      </trkpt>
      <trkpt lat="45.064098" lon="5.292615">
        <ele>172.571555</ele>
        <time>2021-07-04T06:49:32.818Z</time>
      </trkpt>
      <trkpt lat="45.064086" lon="5.292236">
        <ele>172.535971</ele>
        <time>2021-07-04T06:49:38.708Z</time>
      </trkpt>
      <trkpt lat="45.064022" lon="5.291682">
        <ele>172.500994</ele>
        <time>2021-07-04T06:49:47.449Z</time>
      </trkpt>
      <trkpt lat="45.063847" lon="5.290923">
        <ele>172.476701</ele>
        <time>2021-07-04T06:50:00.084Z</time>
      </trkpt>
      <trkpt lat="45.063708" lon="5.290524">
        <ele>172.463164</ele>
        <time>2021-07-04T06:50:07.127Z</time>
      </trkpt>
      <trkpt lat="45.063464" lon="5.290095">
        <ele>172.446405</ele>
        <time>2021-07-04T06:50:15.862Z</time>
      </trkpt>
      <trkpt lat="45.063244" lon="5.289877">
        <ele>172.434838</ele>
        <time>2021-07-04T06:50:21.790Z</time>
      </trkpt>
      <trkpt lat="45.062576" lon="5.289536">
        <ele>172.235921</ele>
        <time>2021-07-04T06:50:37.041Z</time>
      </trkpt>
      <trkpt lat="45.062386" lon="5.289379">
        <ele>172.168961</ele>
        <time>2021-07-04T06:50:41.680Z</time>
      </trkpt>
      <trkpt lat="45.061653" lon="5.288112">
        <ele>171.807027</ele>
        <time>2021-07-04T06:51:05.852Z</time>
      </trkpt>
      <trkpt lat="45.061353" lon="5.287429">
        <ele>171.608977</ele>
        <time>2021-07-04T06:51:17.552Z</time>
      </trkpt>
      <trkpt lat="45.061231" lon="5.287037">
        <ele>171.503495</ele>
        <time>2021-07-04T06:51:23.774Z</time>
      </trkpt>
      <trkpt lat="45.060740" lon="5.285038">
        <ele>171.168140</ele>
        <time>2021-07-04T06:51:55.929Z</time>
      </trkpt>
      <trkpt lat="45.060731" lon="5.284875">
        <ele>171.155064</ele>
        <time>2021-07-04T06:51:58.320Z</time>
      </trkpt>
      <trkpt lat="45.060716" lon="5.284587">
        <ele>171.131968</ele>
        <time>2021-07-04T06:52:03.008Z</time>
      </trkpt>
      <trkpt lat="45.060777" lon="5.283787">
        <ele>171.067613</ele>
        <time>2021-07-04T06:52:15.573Z</time>
      </trkpt>
      <trkpt lat="45.061037" lon="5.282675">
        <ele>170.973741</ele>
        <time>2021-07-04T06:52:34.322Z</time>
      </trkpt>
      <trkpt lat="45.061203" lon="5.281622">
        <ele>170.887247</ele>
        <time>2021-07-04T06:52:50.864Z</time>
      </trkpt>
      <trkpt lat="45.061402" lon="5.280510">
        <ele>170.701648</ele>
        <time>2021-07-04T06:53:07.866Z</time>
      </trkpt>
      <trkpt lat="45.061555" lon="5.279399">
        <ele>170.454821</ele>
        <time>2021-07-04T06:53:24.530Z</time>
      </trkpt>
      <trkpt lat="45.061494" lon="5.278941">
        <ele>170.353189</ele>
        <time>2021-07-04T06:53:31.440Z</time>
      </trkpt>
      <trkpt lat="45.061246" lon="5.278293">
        <ele>170.715115</ele>
        <time>2021-07-04T06:53:42.518Z</time>
      </trkpt>
      <trkpt lat="45.061041" lon="5.277348">
        <ele>171.604390</ele>
        <time>2021-07-04T06:54:00.829Z</time>
      </trkpt>
      <trkpt lat="45.061041" lon="5.276305">
        <ele>172.542637</ele>
        <time>2021-07-04T06:54:23.246Z</time>
      </trkpt>
      <trkpt lat="45.061024" lon="5.276231">
        <ele>172.658485</ele>
        <time>2021-07-04T06:54:25.486Z</time>
      </trkpt>
      <trkpt lat="45.060893" lon="5.275669">
        <ele>174.076760</ele>
        <time>2021-07-04T06:54:39.226Z</time>
      </trkpt>
      <trkpt lat="45.060806" lon="5.275297">
        <ele>175.015855</ele>
        <time>2021-07-04T06:54:48.924Z</time>
      </trkpt>
      <trkpt lat="45.060811" lon="5.274685">
        <ele>176.482617</ele>
        <time>2021-07-04T06:55:04.811Z</time>
      </trkpt>
      <trkpt lat="45.061022" lon="5.273223">
        <ele>180.017787</ele>
        <time>2021-07-04T06:55:45.288Z</time>
      </trkpt>
      <trkpt lat="45.061245" lon="5.272446">
        <ele>181.967741</ele>
        <time>2021-07-04T06:56:07.882Z</time>
      </trkpt>
      <trkpt lat="45.061472" lon="5.271952">
        <ele>183.337939</ele>
        <time>2021-07-04T06:56:22.354Z</time>
      </trkpt>
      <trkpt lat="45.061800" lon="5.271436">
        <ele>184.674062</ele>
        <time>2021-07-04T06:56:37.813Z</time>
      </trkpt>
      <trkpt lat="45.062139" lon="5.270897">
        <ele>184.997054</ele>
        <time>2021-07-04T06:56:52.484Z</time>
      </trkpt>
      <trkpt lat="45.062452" lon="5.270399">
        <ele>185.295386</ele>
        <time>2021-07-04T06:57:03.188Z</time>
      </trkpt>
      <trkpt lat="45.062583" lon="5.270118">
        <ele>185.446065</ele>
        <time>2021-07-04T06:57:08.653Z</time>
      </trkpt>
      <trkpt lat="45.062841" lon="5.269010">
        <ele>185.700874</ele>
        <time>2021-07-04T06:57:25.660Z</time>
      </trkpt>
      <trkpt lat="45.063124" lon="5.268518">
        <ele>185.640951</ele>
        <time>2021-07-04T06:57:34.957Z</time>
      </trkpt>
      <trkpt lat="45.063213" lon="5.268428">
        <ele>185.626327</ele>
        <time>2021-07-04T06:57:37.564Z</time>
      </trkpt>
      <trkpt lat="45.063532" lon="5.268235">
        <ele>185.579944</ele>
        <time>2021-07-04T06:57:45.168Z</time>
      </trkpt>
      <trkpt lat="45.063910" lon="5.268191">
        <ele>185.529232</ele>
        <time>2021-07-04T06:57:53.670Z</time>
      </trkpt>
      <trkpt lat="45.064173" lon="5.268184">
        <ele>185.509522</ele>
        <time>2021-07-04T06:57:59.550Z</time>
      </trkpt>
      <trkpt lat="45.064225" lon="5.268235">
        <ele>185.511199</ele>
        <time>2021-07-04T06:58:01.129Z</time>
      </trkpt>
      <trkpt lat="45.064306" lon="5.268248">
        <ele>185.513361</ele>
        <time>2021-07-04T06:58:03.044Z</time>
      </trkpt>
      <trkpt lat="45.064379" lon="5.268197">
        <ele>185.515519</ele>
        <time>2021-07-04T06:58:04.916Z</time>
      </trkpt>
      <trkpt lat="45.064414" lon="5.268128">
        <ele>185.517110</ele>
        <time>2021-07-04T06:58:06.335Z</time>
      </trkpt>
      <trkpt lat="45.064427" lon="5.268038">
        <ele>185.518830</ele>
        <time>2021-07-04T06:58:07.784Z</time>
      </trkpt>
      <trkpt lat="45.064419" lon="5.267977">
        <ele>185.519992</ele>
        <time>2021-07-04T06:58:09.071Z</time>
      </trkpt>
      <trkpt lat="45.064396" lon="5.267918">
        <ele>185.521254</ele>
        <time>2021-07-04T06:58:10.182Z</time>
      </trkpt>
      <trkpt lat="45.064318" lon="5.267844">
        <ele>185.523744</ele>
        <time>2021-07-04T06:58:12.645Z</time>
      </trkpt>
      <trkpt lat="45.064268" lon="5.267838">
        <ele>185.525074</ele>
        <time>2021-07-04T06:58:13.845Z</time>
      </trkpt>
      <trkpt lat="45.064136" lon="5.267617">
        <ele>185.530495</ele>
        <time>2021-07-04T06:58:18.794Z</time>
      </trkpt>
      <trkpt lat="45.063556" lon="5.265932">
        <ele>185.074284</ele>
        <time>2021-07-04T06:58:46.945Z</time>
      </trkpt>
      <trkpt lat="45.063619" lon="5.265420">
        <ele>184.647100</ele>
        <time>2021-07-04T06:58:54.062Z</time>
      </trkpt>
      <trkpt lat="45.063404" lon="5.264802">
        <ele>184.080850</ele>
        <time>2021-07-04T06:59:03.499Z</time>
      </trkpt>
      <trkpt lat="45.063308" lon="5.264627">
        <ele>183.898718</ele>
        <time>2021-07-04T06:59:06.510Z</time>
      </trkpt>
      <trkpt lat="45.063033" lon="5.264259">
        <ele>183.457920</ele>
        <time>2021-07-04T06:59:13.793Z</time>
      </trkpt>
      <trkpt lat="45.062735" lon="5.263591">
        <ele>182.717559</ele>
        <time>2021-07-04T06:59:24.532Z</time>
      </trkpt>
      <trkpt lat="45.062636" lon="5.263216">
        <ele>182.342412</ele>
        <time>2021-07-04T06:59:29.905Z</time>
      </trkpt>
      <trkpt lat="45.062485" lon="5.261370">
        <ele>180.899085</ele>
        <time>2021-07-04T06:59:56.058Z</time>
      </trkpt>
      <trkpt lat="45.062500" lon="5.260062">
        <ele>180.443635</ele>
        <time>2021-07-04T07:00:16.285Z</time>
      </trkpt>
      <trkpt lat="45.062407" lon="5.259160">
        <ele>180.104480</ele>
        <time>2021-07-04T07:00:30.949Z</time>
      </trkpt>
      <trkpt lat="45.062360" lon="5.257314">
        <ele>179.237057</ele>
        <time>2021-07-04T07:00:59.386Z</time>
      </trkpt>
      <trkpt lat="45.062436" lon="5.255519">
        <ele>177.215718</ele>
        <time>2021-07-04T07:01:23.562Z</time>
      </trkpt>
      <trkpt lat="45.062360" lon="5.255247">
        <ele>176.809075</ele>
        <time>2021-07-04T07:01:27.293Z</time>
      </trkpt>
      <trkpt lat="45.062071" lon="5.254724">
        <ele>175.885944</ele>
        <time>2021-07-04T07:01:35.569Z</time>
      </trkpt>
      <trkpt lat="45.062015" lon="5.254532">
        <ele>175.597165</ele>
        <time>2021-07-04T07:01:38.359Z</time>
      </trkpt>
      <trkpt lat="45.061994" lon="5.254218">
        <ele>175.223731</ele>
        <time>2021-07-04T07:01:42.271Z</time>
      </trkpt>
      <trkpt lat="45.061955" lon="5.253155">
        <ele>174.071070</ele>
        <time>2021-07-04T07:01:56.182Z</time>
      </trkpt>
      <trkpt lat="45.062207" lon="5.251253">
        <ele>172.662384</ele>
        <time>2021-07-04T07:02:24.008Z</time>
      </trkpt>
      <trkpt lat="45.062321" lon="5.250787">
        <ele>172.637869</ele>
        <time>2021-07-04T07:02:32.124Z</time>
      </trkpt>
      <trkpt lat="45.062407" lon="5.250026">
        <ele>172.599559</ele>
        <time>2021-07-04T07:02:44.798Z</time>
      </trkpt>
      <trkpt lat="45.062382" lon="5.249831">
        <ele>172.589707</ele>
        <time>2021-07-04T07:02:48.934Z</time>
      </trkpt>
      <trkpt lat="45.062336" lon="5.249785">
        <ele>172.585743</ele>
        <time>2021-07-04T07:02:50.119Z</time>
      </trkpt>
      <trkpt lat="45.062229" lon="5.249678">
        <ele>172.576524</ele>
        <time>2021-07-04T07:02:52.858Z</time>
      </trkpt>
      <trkpt lat="45.062218" lon="5.249511">
        <ele>172.592149</ele>
        <time>2021-07-04T07:02:56.639Z</time>
      </trkpt>
      <trkpt lat="45.062089" lon="5.248498">
        <ele>174.390431</ele>
        <time>2021-07-04T07:03:14.743Z</time>
      </trkpt>
      <trkpt lat="45.061925" lon="5.248052">
        <ele>175.268874</ele>
        <time>2021-07-04T07:03:24.875Z</time>
      </trkpt>
      <trkpt lat="45.061805" lon="5.247516">
        <ele>176.251204</ele>
        <time>2021-07-04T07:03:38.402Z</time>
      </trkpt>
      <trkpt lat="45.061728" lon="5.247452">
        <ele>176.472050</ele>
        <time>2021-07-04T07:03:42.012Z</time>
      </trkpt>
      <trkpt lat="45.061693" lon="5.247475">
        <ele>176.567489</ele>
        <time>2021-07-04T07:03:44.059Z</time>
      </trkpt>
      <trkpt lat="45.061640" lon="5.247432">
        <ele>176.718577</ele>
        <time>2021-07-04T07:03:46.164Z</time>
      </trkpt>
      <trkpt lat="45.061569" lon="5.247400">
        <ele>176.902871</ele>
        <time>2021-07-04T07:03:48.917Z</time>
      </trkpt>
      <trkpt lat="45.061352" lon="5.247334">
        <ele>178.091654</ele>
        <time>2021-07-04T07:04:01.169Z</time>
      </trkpt>
      <trkpt lat="45.061283" lon="5.247312">
        <ele>178.524324</ele>
        <time>2021-07-04T07:04:03.710Z</time>
      </trkpt>
      <trkpt lat="45.061035" lon="5.247220">
        <ele>180.092648</ele>
        <time>2021-07-04T07:04:16.961Z</time>
      </trkpt>
      <trkpt lat="45.060958" lon="5.247196">
        <ele>180.574966</ele>
        <time>2021-07-04T07:04:20.773Z</time>
      </trkpt>
      <trkpt lat="45.060876" lon="5.247172">
        <ele>181.087197</ele>
        <time>2021-07-04T07:04:24.201Z</time>
      </trkpt>
      <trkpt lat="45.060770" lon="5.247129">
        <ele>181.761732</ele>
        <time>2021-07-04T07:04:31.109Z</time>
      </trkpt>
      <trkpt lat="45.060730" lon="5.247109">
        <ele>182.021240</ele>
        <time>2021-07-04T07:04:34.244Z</time>
      </trkpt>
      <trkpt lat="45.060642" lon="5.247064">
        <ele>182.593609</ele>
        <time>2021-07-04T07:04:39.273Z</time>
      </trkpt>
      <trkpt lat="45.060553" lon="5.247032">
        <ele>183.155338</ele>
        <time>2021-07-04T07:04:41.929Z</time>
      </trkpt>
      <trkpt lat="45.060539" lon="5.247027">
        <ele>183.243664</ele>
        <time>2021-07-04T07:04:42.452Z</time>
      </trkpt>
      <trkpt lat="45.060422" lon="5.246979">
        <ele>183.988843</ele>
        <time>2021-07-04T07:04:49.272Z</time>
      </trkpt>
      <trkpt lat="45.060286" lon="5.246919">
        <ele>184.860265</ele>
        <time>2021-07-04T07:04:57.252Z</time>
      </trkpt>
      <trkpt lat="45.060204" lon="5.246873">
        <ele>185.399835</ele>
        <time>2021-07-04T07:04:59.576Z</time>
      </trkpt>
      <trkpt lat="45.060124" lon="5.246808">
        <ele>185.964095</ele>
        <time>2021-07-04T07:05:03.708Z</time>
      </trkpt>
      <trkpt lat="45.060071" lon="5.246755">
        <ele>186.361043</ele>
        <time>2021-07-04T07:05:08.674Z</time>
      </trkpt>
      <trkpt lat="45.059948" lon="5.246539">
        <ele>187.559923</ele>
        <time>2021-07-04T07:05:15.588Z</time>
      </trkpt>
      <trkpt lat="45.059886" lon="5.246161">
        <ele>188.612010</ele>
        <time>2021-07-04T07:05:28.505Z</time>
      </trkpt>
      <trkpt lat="45.059824" lon="5.245667">
        <ele>189.666406</ele>
        <time>2021-07-04T07:05:42.946Z</time>
      </trkpt>
      <trkpt lat="45.059863" lon="5.245444">
        <ele>190.149188</ele>
        <time>2021-07-04T07:05:47.038Z</time>
      </trkpt>
      <trkpt lat="45.059954" lon="5.244558">
        <ele>192.030687</ele>
        <time>2021-07-04T07:06:13.287Z</time>
      </trkpt>
      <trkpt lat="45.059995" lon="5.244569">
        <ele>192.154836</ele>
        <time>2021-07-04T07:06:13.846Z</time>
      </trkpt>
      <trkpt lat="45.060077" lon="5.244271">
        <ele>192.826917</ele>
        <time>2021-07-04T07:06:19.623Z</time>
      </trkpt>
      <trkpt lat="45.060077" lon="5.243871">
        <ele>193.261833</ele>
        <time>2021-07-04T07:06:25.182Z</time>
      </trkpt>
      <trkpt lat="45.060099" lon="5.243675">
        <ele>193.107138</ele>
        <time>2021-07-04T07:06:29.544Z</time>
      </trkpt>
      <trkpt lat="45.060139" lon="5.243544">
        <ele>192.995894</ele>
        <time>2021-07-04T07:06:30.976Z</time>
      </trkpt>
      <trkpt lat="45.060193" lon="5.243415">
        <ele>192.879010</ele>
        <time>2021-07-04T07:06:32.807Z</time>
      </trkpt>
      <trkpt lat="45.060287" lon="5.243258">
        <ele>192.718584</ele>
        <time>2021-07-04T07:06:36.769Z</time>
      </trkpt>
      <trkpt lat="45.060520" lon="5.243008">
        <ele>192.395964</ele>
        <time>2021-07-04T07:06:41.648Z</time>
      </trkpt>
      <trkpt lat="45.060520" lon="5.242995">
        <ele>192.385830</ele>
        <time>2021-07-04T07:06:41.951Z</time>
      </trkpt>
      <trkpt lat="45.060521" lon="5.242928">
        <ele>192.333594</ele>
        <time>2021-07-04T07:06:43.709Z</time>
      </trkpt>
      <trkpt lat="45.060515" lon="5.242881">
        <ele>192.296365</ele>
        <time>2021-07-04T07:06:45.184Z</time>
      </trkpt>
      <trkpt lat="45.060646" lon="5.242795">
        <ele>192.137018</ele>
        <time>2021-07-04T07:06:47.321Z</time>
      </trkpt>
      <trkpt lat="45.061009" lon="5.242683">
        <ele>191.727041</ele>
        <time>2021-07-04T07:06:54.955Z</time>
      </trkpt>
      <trkpt lat="45.061499" lon="5.242661">
        <ele>191.498714</ele>
        <time>2021-07-04T07:07:04.215Z</time>
      </trkpt>
      <trkpt lat="45.062444" lon="5.242470">
        <ele>192.086204</ele>
        <time>2021-07-04T07:07:22.140Z</time>
      </trkpt>
      <trkpt lat="45.062814" lon="5.242450">
        <ele>192.314084</ele>
        <time>2021-07-04T07:07:33.821Z</time>
      </trkpt>
      <trkpt lat="45.062975" lon="5.242432">
        <ele>192.413479</ele>
        <time>2021-07-04T07:07:40.002Z</time>
      </trkpt>
      <trkpt lat="45.063096" lon="5.242381">
        <ele>192.491177</ele>
        <time>2021-07-04T07:07:44.494Z</time>
      </trkpt>
      <trkpt lat="45.063415" lon="5.242199">
        <ele>194.826029</ele>
        <time>2021-07-04T07:07:58.565Z</time>
      </trkpt>
      <trkpt lat="45.063547" lon="5.242114">
        <ele>195.821416</ele>
        <time>2021-07-04T07:08:05.827Z</time>
      </trkpt>
      <trkpt lat="45.063730" lon="5.241997">
        <ele>197.199700</ele>
        <time>2021-07-04T07:08:14.451Z</time>
      </trkpt>
      <trkpt lat="45.063858" lon="5.241913">
        <ele>198.168110</ele>
        <time>2021-07-04T07:08:21.974Z</time>
      </trkpt>
      <trkpt lat="45.063826" lon="5.241816">
        <ele>198.687162</ele>
        <time>2021-07-04T07:08:26.582Z</time>
      </trkpt>
      <trkpt lat="45.063926" lon="5.241659">
        <ele>199.712132</ele>
        <time>2021-07-04T07:08:33.009Z</time>
      </trkpt>
      <trkpt lat="45.063955" lon="5.241607">
        <ele>200.033356</ele>
        <time>2021-07-04T07:08:36.505Z</time>
      </trkpt>
      <trkpt lat="45.063993" lon="5.241525">
        <ele>200.508844</ele>
        <time>2021-07-04T07:08:40.094Z</time>
      </trkpt>
      <trkpt lat="45.064038" lon="5.241441">
        <ele>201.019988</ele>
        <time>2021-07-04T07:08:44.570Z</time>
      </trkpt>
      <trkpt lat="45.064079" lon="5.241476">
        <ele>201.348618</ele>
        <time>2021-07-04T07:08:47.312Z</time>
      </trkpt>
      <trkpt lat="45.064831" lon="5.240885">
        <ele>207.219915</ele>
        <time>2021-07-04T07:09:37.832Z</time>
      </trkpt>
      <trkpt lat="45.064831" lon="5.240492">
        <ele>209.099600</ele>
        <time>2021-07-04T07:09:55.172Z</time>
      </trkpt>
      <trkpt lat="45.065012" lon="5.239821">
        <ele>212.535016</ele>
        <time>2021-07-04T07:10:21.664Z</time>
      </trkpt>
      <trkpt lat="45.065054" lon="5.239269">
        <ele>215.190449</ele>
        <time>2021-07-04T07:10:39.220Z</time>
      </trkpt>
      <trkpt lat="45.065187" lon="5.238577">
        <ele>217.575158</ele>
        <time>2021-07-04T07:10:58.756Z</time>
      </trkpt>
      <trkpt lat="45.065075" lon="5.237491">
        <ele>219.396254</ele>
        <time>2021-07-04T07:11:22.540Z</time>
      </trkpt>
      <trkpt lat="45.064901" lon="5.237264">
        <ele>219.952102</ele>
        <time>2021-07-04T07:11:30.019Z</time>
      </trkpt>
      <trkpt lat="45.064950" lon="5.237008">
        <ele>220.392203</ele>
        <time>2021-07-04T07:11:35.388Z</time>
      </trkpt>
      <trkpt lat="45.065396" lon="5.236356">
        <ele>221.683112</ele>
        <time>2021-07-04T07:11:54.844Z</time>
      </trkpt>
      <trkpt lat="45.065577" lon="5.235951">
        <ele>222.216311</ele>
        <time>2021-07-04T07:12:05.625Z</time>
      </trkpt>
      <trkpt lat="45.065563" lon="5.235112">
        <ele>223.149981</ele>
        <time>2021-07-04T07:12:23.257Z</time>
      </trkpt>
      <trkpt lat="45.065445" lon="5.234469">
        <ele>223.889088</ele>
        <time>2021-07-04T07:12:37.108Z</time>
      </trkpt>
      <trkpt lat="45.065285" lon="5.234184">
        <ele>223.852659</ele>
        <time>2021-07-04T07:12:44.823Z</time>
      </trkpt>
      <trkpt lat="45.065050" lon="5.233428">
        <ele>222.890589</ele>
        <time>2021-07-04T07:12:58.414Z</time>
      </trkpt>
      <trkpt lat="45.064944" lon="5.233159">
        <ele>222.531802</ele>
        <time>2021-07-04T07:13:02.624Z</time>
      </trkpt>
      <trkpt lat="45.064736" lon="5.232653">
        <ele>221.849877</ele>
        <time>2021-07-04T07:13:09.744Z</time>
      </trkpt>
      <trkpt lat="45.064397" lon="5.231843">
        <ele>220.464115</ele>
        <time>2021-07-04T07:13:20.693Z</time>
      </trkpt>
      <trkpt lat="45.064145" lon="5.231131">
        <ele>218.789665</ele>
        <time>2021-07-04T07:13:29.906Z</time>
      </trkpt>
      <trkpt lat="45.064112" lon="5.230891">
        <ele>218.275579</ele>
        <time>2021-07-04T07:13:32.971Z</time>
      </trkpt>
      <trkpt lat="45.064122" lon="5.230851">
        <ele>218.186364</ele>
        <time>2021-07-04T07:13:33.385Z</time>
      </trkpt>
      <trkpt lat="45.063721" lon="5.230514">
        <ele>216.798211</ele>
        <time>2021-07-04T07:13:41.408Z</time>
      </trkpt>
      <trkpt lat="45.062670" lon="5.229336">
        <ele>215.006820</ele>
        <time>2021-07-04T07:14:07.200Z</time>
      </trkpt>
      <trkpt lat="45.062585" lon="5.229240">
        <ele>214.924395</ele>
        <time>2021-07-04T07:14:09.561Z</time>
      </trkpt>
      <trkpt lat="45.062302" lon="5.228923">
        <ele>214.650842</ele>
        <time>2021-07-04T07:14:17.228Z</time>
      </trkpt>
      <trkpt lat="45.062143" lon="5.228647">
        <ele>214.460142</ele>
        <time>2021-07-04T07:14:22.543Z</time>
      </trkpt>
      <trkpt lat="45.061986" lon="5.228290">
        <ele>214.367034</ele>
        <time>2021-07-04T07:14:28.792Z</time>
      </trkpt>
      <trkpt lat="45.061941" lon="5.228188">
        <ele>214.355897</ele>
        <time>2021-07-04T07:14:30.617Z</time>
      </trkpt>
      <trkpt lat="45.061726" lon="5.227564">
        <ele>214.291598</ele>
        <time>2021-07-04T07:14:40.997Z</time>
      </trkpt>
      <trkpt lat="45.061541" lon="5.226878">
        <ele>214.223592</ele>
        <time>2021-07-04T07:14:52.188Z</time>
      </trkpt>
      <trkpt lat="45.061242" lon="5.225956">
        <ele>214.215979</ele>
        <time>2021-07-04T07:15:08.432Z</time>
      </trkpt>
      <trkpt lat="45.060526" lon="5.224047">
        <ele>214.607913</ele>
        <time>2021-07-04T07:15:44.530Z</time>
      </trkpt>
      <trkpt lat="45.060380" lon="5.223525">
        <ele>214.616520</ele>
        <time>2021-07-04T07:15:53.498Z</time>
      </trkpt>
      <trkpt lat="45.060313" lon="5.223338">
        <ele>214.614797</ele>
        <time>2021-07-04T07:15:56.818Z</time>
      </trkpt>
      <trkpt lat="45.060309" lon="5.223339">
        <ele>214.614749</ele>
        <time>2021-07-04T07:15:56.939Z</time>
      </trkpt>
      <trkpt lat="45.060133" lon="5.223048">
        <ele>214.611600</ele>
        <time>2021-07-04T07:16:02.942Z</time>
      </trkpt>
      <trkpt lat="45.059388" lon="5.222225">
        <ele>214.600604</ele>
        <time>2021-07-04T07:16:23.705Z</time>
      </trkpt>
      <trkpt lat="45.059132" lon="5.221862">
        <ele>214.555583</ele>
        <time>2021-07-04T07:16:31.557Z</time>
      </trkpt>
      <trkpt lat="45.057728" lon="5.219561">
        <ele>214.123546</ele>
        <time>2021-07-04T07:17:17.995Z</time>
      </trkpt>
      <trkpt lat="45.057442" lon="5.219200">
        <ele>214.006467</ele>
        <time>2021-07-04T07:17:26.133Z</time>
      </trkpt>
      <trkpt lat="45.054522" lon="5.216364">
        <ele>212.904369</ele>
        <time>2021-07-04T07:18:39.642Z</time>
      </trkpt>
      <trkpt lat="45.051980" lon="5.213768">
        <ele>213.682543</ele>
        <time>2021-07-04T07:19:52.768Z</time>
      </trkpt>
      <trkpt lat="45.049135" lon="5.210939">
        <ele>217.544460</ele>
        <time>2021-07-04T07:21:23.663Z</time>
      </trkpt>
      <trkpt lat="45.047982" lon="5.209742">
        <ele>221.293955</ele>
        <time>2021-07-04T07:22:11.027Z</time>
      </trkpt>
      <trkpt lat="45.047937" lon="5.209714">
        <ele>221.561013</ele>
        <time>2021-07-04T07:22:12.878Z</time>
      </trkpt>
      <trkpt lat="45.046759" lon="5.210734">
        <ele>229.063488</ele>
        <time>2021-07-04T07:23:14.151Z</time>
      </trkpt>
      <trkpt lat="45.046330" lon="5.210819">
        <ele>231.471301</ele>
        <time>2021-07-04T07:23:35.321Z</time>
      </trkpt>
      <trkpt lat="45.046172" lon="5.210890">
        <ele>232.505138</ele>
        <time>2021-07-04T07:23:44.165Z</time>
      </trkpt>
      <trkpt lat="45.045851" lon="5.210792">
        <ele>234.553095</ele>
        <time>2021-07-04T07:24:00.874Z</time>
      </trkpt>
      <trkpt lat="45.045384" lon="5.210376">
        <ele>237.994369</ele>
        <time>2021-07-04T07:24:28.320Z</time>
      </trkpt>
      <trkpt lat="45.045196" lon="5.210301">
        <ele>239.212515</ele>
        <time>2021-07-04T07:24:38.395Z</time>
      </trkpt>
      <trkpt lat="45.044543" lon="5.210431">
        <ele>242.995608</ele>
        <time>2021-07-04T07:25:07.269Z</time>
      </trkpt>
      <trkpt lat="45.044468" lon="5.210360">
        <ele>243.383227</ele>
        <time>2021-07-04T07:25:11.614Z</time>
      </trkpt>
      <trkpt lat="45.044062" lon="5.210141">
        <ele>245.249727</ele>
        <time>2021-07-04T07:25:29.991Z</time>
      </trkpt>
      <trkpt lat="45.043622" lon="5.209553">
        <ele>247.849373</ele>
        <time>2021-07-04T07:25:55.373Z</time>
      </trkpt>
      <trkpt lat="45.043327" lon="5.209300">
        <ele>249.331172</ele>
        <time>2021-07-04T07:26:08.321Z</time>
      </trkpt>
      <trkpt lat="45.043114" lon="5.208924">
        <ele>250.177457</ele>
        <time>2021-07-04T07:26:19.717Z</time>
      </trkpt>
      <trkpt lat="45.042805" lon="5.208472">
        <ele>250.616902</ele>
        <time>2021-07-04T07:26:33.171Z</time>
      </trkpt>
      <trkpt lat="45.042593" lon="5.208205">
        <ele>250.897534</ele>
        <time>2021-07-04T07:26:41.065Z</time>
      </trkpt>
      <trkpt lat="45.042182" lon="5.207836">
        <ele>251.378845</ele>
        <time>2021-07-04T07:26:53.576Z</time>
      </trkpt>
      <trkpt lat="45.042114" lon="5.207713">
        <ele>251.487969</ele>
        <time>2021-07-04T07:26:56.153Z</time>
      </trkpt>
      <trkpt lat="45.042080" lon="5.207418">
        <ele>251.696818</ele>
        <time>2021-07-04T07:27:00.862Z</time>
      </trkpt>
      <trkpt lat="45.042114" lon="5.207186">
        <ele>251.663024</ele>
        <time>2021-07-04T07:27:04.269Z</time>
      </trkpt>
      <trkpt lat="45.042022" lon="5.206720">
        <ele>251.257484</ele>
        <time>2021-07-04T07:27:10.713Z</time>
      </trkpt>
      <trkpt lat="45.041457" lon="5.205305">
        <ele>249.895221</ele>
        <time>2021-07-04T07:27:33.287Z</time>
      </trkpt>
      <trkpt lat="45.041283" lon="5.205086">
        <ele>249.616307</ele>
        <time>2021-07-04T07:27:37.876Z</time>
      </trkpt>
      <trkpt lat="45.040698" lon="5.204928">
        <ele>248.810403</ele>
        <time>2021-07-04T07:27:49.180Z</time>
      </trkpt>
      <trkpt lat="45.040525" lon="5.204912">
        <ele>248.575801</ele>
        <time>2021-07-04T07:27:52.627Z</time>
      </trkpt>
      <trkpt lat="45.040108" lon="5.204874">
        <ele>248.010351</ele>
        <time>2021-07-04T07:28:00.686Z</time>
      </trkpt>
      <trkpt lat="45.039968" lon="5.204839">
        <ele>247.817971</ele>
        <time>2021-07-04T07:28:03.480Z</time>
      </trkpt>
      <trkpt lat="45.039896" lon="5.204732">
        <ele>247.676690</ele>
        <time>2021-07-04T07:28:05.664Z</time>
      </trkpt>
      <trkpt lat="45.039982" lon="5.204580">
        <ele>247.490500</ele>
        <time>2021-07-04T07:28:08.155Z</time>
      </trkpt>
      <trkpt lat="45.040032" lon="5.204036">
        <ele>247.185148</ele>
        <time>2021-07-04T07:28:15.716Z</time>
      </trkpt>
      <trkpt lat="45.039956" lon="5.203794">
        <ele>247.164823</ele>
        <time>2021-07-04T07:28:19.501Z</time>
      </trkpt>
      <trkpt lat="45.039770" lon="5.203468">
        <ele>247.132666</ele>
        <time>2021-07-04T07:28:24.757Z</time>
      </trkpt>
      <trkpt lat="45.039300" lon="5.202933">
        <ele>247.067154</ele>
        <time>2021-07-04T07:28:35.894Z</time>
      </trkpt>
      <trkpt lat="45.039089" lon="5.202596">
        <ele>247.032597</ele>
        <time>2021-07-04T07:28:43.994Z</time>
      </trkpt>
      <trkpt lat="45.038944" lon="5.202253">
        <ele>247.324301</ele>
        <time>2021-07-04T07:28:52.594Z</time>
      </trkpt>
      <trkpt lat="45.038730" lon="5.201725">
        <ele>249.429118</ele>
        <time>2021-07-04T07:29:10.269Z</time>
      </trkpt>
      <trkpt lat="45.038629" lon="5.201488">
        <ele>250.386161</ele>
        <time>2021-07-04T07:29:19.545Z</time>
      </trkpt>
      <trkpt lat="45.038176" lon="5.201054">
        <ele>253.063198</ele>
        <time>2021-07-04T07:29:45.342Z</time>
      </trkpt>
      <trkpt lat="45.038123" lon="5.201006">
        <ele>253.371125</ele>
        <time>2021-07-04T07:29:48.229Z</time>
      </trkpt>
      <trkpt lat="45.038038" lon="5.200884">
        <ele>253.963578</ele>
        <time>2021-07-04T07:29:53.548Z</time>
      </trkpt>
      <trkpt lat="45.037741" lon="5.200699">
        <ele>255.551544</ele>
        <time>2021-07-04T07:30:07.958Z</time>
      </trkpt>
      <trkpt lat="45.037300" lon="5.200528">
        <ele>256.453459</ele>
        <time>2021-07-04T07:30:27.968Z</time>
      </trkpt>
      <trkpt lat="45.037039" lon="5.200287">
        <ele>256.948877</ele>
        <time>2021-07-04T07:30:39.656Z</time>
      </trkpt>
      <trkpt lat="45.036692" lon="5.200099">
        <ele>257.539541</ele>
        <time>2021-07-04T07:30:51.815Z</time>
      </trkpt>
      <trkpt lat="45.036410" lon="5.199921">
        <ele>258.030404</ele>
        <time>2021-07-04T07:30:59.956Z</time>
      </trkpt>
      <trkpt lat="45.034592" lon="5.198913">
        <ele>254.664226</ele>
        <time>2021-07-04T07:31:33.053Z</time>
      </trkpt>
      <trkpt lat="45.033179" lon="5.198161">
        <ele>254.343333</ele>
        <time>2021-07-04T07:32:05.813Z</time>
      </trkpt>
      <trkpt lat="45.033090" lon="5.198027">
        <ele>254.376421</ele>
        <time>2021-07-04T07:32:09.574Z</time>
      </trkpt>
      <trkpt lat="45.032867" lon="5.198143">
        <ele>254.436915</ele>
        <time>2021-07-04T07:32:16.573Z</time>
      </trkpt>
      <trkpt lat="45.030819" lon="5.198114">
        <ele>259.918573</ele>
        <time>2021-07-04T07:33:26.487Z</time>
      </trkpt>
      <trkpt lat="45.030622" lon="5.197986">
        <ele>260.638004</ele>
        <time>2021-07-04T07:33:34.432Z</time>
      </trkpt>
      <trkpt lat="45.030516" lon="5.197857">
        <ele>261.102009</ele>
        <time>2021-07-04T07:33:39.170Z</time>
      </trkpt>
      <trkpt lat="45.030381" lon="5.197699">
        <ele>261.683444</ele>
        <time>2021-07-04T07:33:45.663Z</time>
      </trkpt>
      <trkpt lat="45.030291" lon="5.197596">
        <ele>262.067603</ele>
        <time>2021-07-04T07:33:49.656Z</time>
      </trkpt>
      <trkpt lat="45.029940" lon="5.197399">
        <ele>263.320782</ele>
        <time>2021-07-04T07:34:03.248Z</time>
      </trkpt>
      <trkpt lat="45.027880" lon="5.196905">
        <ele>270.226901</ele>
        <time>2021-07-04T07:35:17.780Z</time>
      </trkpt>
      <trkpt lat="45.026380" lon="5.196530">
        <ele>275.090653</ele>
        <time>2021-07-04T07:36:10.756Z</time>
      </trkpt>
      <trkpt lat="45.025583" lon="5.196179">
        <ele>277.742822</ele>
        <time>2021-07-04T07:36:39.681Z</time>
      </trkpt>
      <trkpt lat="45.025084" lon="5.195830">
        <ele>279.565450</ele>
        <time>2021-07-04T07:36:59.170Z</time>
      </trkpt>
      <trkpt lat="45.024897" lon="5.195679">
        <ele>280.270457</ele>
        <time>2021-07-04T07:37:06.647Z</time>
      </trkpt>
      <trkpt lat="45.023837" lon="5.194818">
        <ele>284.304422</ele>
        <time>2021-07-04T07:37:50.625Z</time>
      </trkpt>
      <trkpt lat="45.022614" lon="5.193282">
        <ele>289.830341</ele>
        <time>2021-07-04T07:38:49.034Z</time>
      </trkpt>
      <trkpt lat="45.021143" lon="5.192077">
        <ele>295.800038</ele>
        <time>2021-07-04T07:39:50.088Z</time>
      </trkpt>
      <trkpt lat="45.021050" lon="5.192029">
        <ele>296.191006</ele>
        <time>2021-07-04T07:39:53.987Z</time>
      </trkpt>
      <trkpt lat="45.017035" lon="5.189978">
        <ele>313.755550</ele>
        <time>2021-07-04T07:42:37.561Z</time>
      </trkpt>
      <trkpt lat="45.016841" lon="5.189879">
        <ele>314.714750</ele>
        <time>2021-07-04T07:42:46.799Z</time>
      </trkpt>
      <trkpt lat="45.016209" lon="5.189510">
        <ele>317.894679</ele>
        <time>2021-07-04T07:43:16.294Z</time>
      </trkpt>
      <trkpt lat="45.015758" lon="5.189050">
        <ele>320.357955</ele>
        <time>2021-07-04T07:43:40.153Z</time>
      </trkpt>
      <trkpt lat="45.014458" lon="5.187725">
        <ele>327.184103</ele>
        <time>2021-07-04T07:44:42.123Z</time>
      </trkpt>
      <trkpt lat="45.014048" lon="5.187023">
        <ele>329.528475</ele>
        <time>2021-07-04T07:45:05.127Z</time>
      </trkpt>
      <trkpt lat="45.014000" lon="5.186926">
        <ele>329.833312</ele>
        <time>2021-07-04T07:45:08.106Z</time>
      </trkpt>
      <trkpt lat="45.013586" lon="5.186018">
        <ele>332.616835</ele>
        <time>2021-07-04T07:45:36.021Z</time>
      </trkpt>
      <trkpt lat="45.013412" lon="5.185688">
        <ele>333.819606</ele>
        <time>2021-07-04T07:45:46.873Z</time>
      </trkpt>
      <trkpt lat="45.013114" lon="5.185358">
        <ele>335.383675</ele>
        <time>2021-07-04T07:46:01.236Z</time>
      </trkpt>
      <trkpt lat="45.012509" lon="5.184866">
        <ele>338.267748</ele>
        <time>2021-07-04T07:46:28.895Z</time>
      </trkpt>
      <trkpt lat="45.010478" lon="5.183148">
        <ele>348.354085</ele>
        <time>2021-07-04T07:48:02.330Z</time>
      </trkpt>
      <trkpt lat="45.008901" lon="5.181416">
        <ele>356.537823</ele>
        <time>2021-07-04T07:49:20.011Z</time>
      </trkpt>
      <trkpt lat="45.008709" lon="5.181034">
        <ele>357.800449</ele>
        <time>2021-07-04T07:49:32.547Z</time>
      </trkpt>
      <trkpt lat="45.008198" lon="5.178972">
        <ele>363.865927</ele>
        <time>2021-07-04T07:50:30.126Z</time>
      </trkpt>
      <trkpt lat="45.008021" lon="5.178619">
        <ele>365.163732</ele>
        <time>2021-07-04T07:50:40.760Z</time>
      </trkpt>
      <trkpt lat="45.007870" lon="5.178470">
        <ele>365.944684</ele>
        <time>2021-07-04T07:50:47.046Z</time>
      </trkpt>
      <trkpt lat="45.005577" lon="5.177199">
        <ele>379.828464</ele>
        <time>2021-07-04T07:52:31.749Z</time>
      </trkpt>
      <trkpt lat="45.004886" lon="5.176817">
        <ele>387.553886</ele>
        <time>2021-07-04T07:53:23.349Z</time>
      </trkpt>
      <trkpt lat="45.004207" lon="5.176520">
        <ele>396.216932</ele>
        <time>2021-07-04T07:54:18.437Z</time>
      </trkpt>
      <trkpt lat="45.003624" lon="5.176122">
        <ele>403.720970</ele>
        <time>2021-07-04T07:55:08.130Z</time>
      </trkpt>
      <trkpt lat="45.003336" lon="5.176287">
        <ele>405.851431</ele>
        <time>2021-07-04T07:55:28.498Z</time>
      </trkpt>
      <trkpt lat="45.003157" lon="5.176816">
        <ele>408.694466</ele>
        <time>2021-07-04T07:55:49.891Z</time>
      </trkpt>
      <trkpt lat="45.003060" lon="5.177914">
        <ele>414.058778</ele>
        <time>2021-07-04T07:56:22.991Z</time>
      </trkpt>
      <trkpt lat="45.003073" lon="5.178349">
        <ele>415.803048</ele>
        <time>2021-07-04T07:56:33.034Z</time>
      </trkpt>
      <trkpt lat="45.002997" lon="5.178592">
        <ele>416.322007</ele>
        <time>2021-07-04T07:56:40.257Z</time>
      </trkpt>
      <trkpt lat="45.002854" lon="5.178704">
        <ele>416.773533</ele>
        <time>2021-07-04T07:56:43.966Z</time>
      </trkpt>
      <trkpt lat="45.002640" lon="5.178873">
        <ele>417.450566</ele>
        <time>2021-07-04T07:56:52.351Z</time>
      </trkpt>
      <trkpt lat="45.002158" lon="5.179009">
        <ele>418.808205</ele>
        <time>2021-07-04T07:57:06.475Z</time>
      </trkpt>
      <trkpt lat="45.001267" lon="5.178873">
        <ele>421.827080</ele>
        <time>2021-07-04T07:57:37.056Z</time>
      </trkpt>
      <trkpt lat="45.000741" lon="5.178632">
        <ele>424.447075</ele>
        <time>2021-07-04T07:58:00.470Z</time>
      </trkpt>
      <trkpt lat="44.999633" lon="5.177641">
        <ele>430.126573</ele>
        <time>2021-07-04T07:58:58.172Z</time>
      </trkpt>
      <trkpt lat="44.999366" lon="5.177503">
        <ele>431.028568</ele>
        <time>2021-07-04T07:59:09.813Z</time>
      </trkpt>
      <trkpt lat="44.998596" lon="5.177104">
        <ele>433.630617</ele>
        <time>2021-07-04T07:59:37.095Z</time>
      </trkpt>
      <trkpt lat="44.998445" lon="5.176976">
        <ele>434.189220</ele>
        <time>2021-07-04T07:59:42.858Z</time>
      </trkpt>
      <trkpt lat="44.998346" lon="5.176891">
        <ele>434.556708</ele>
        <time>2021-07-04T07:59:45.983Z</time>
      </trkpt>
      <trkpt lat="44.998253" lon="5.176812">
        <ele>434.671351</ele>
        <time>2021-07-04T07:59:48.667Z</time>
      </trkpt>
      <trkpt lat="44.997830" lon="5.176267">
        <ele>433.648709</ele>
        <time>2021-07-04T08:00:01.504Z</time>
      </trkpt>
      <trkpt lat="44.997529" lon="5.175921">
        <ele>432.955498</ele>
        <time>2021-07-04T08:00:08.259Z</time>
      </trkpt>
      <trkpt lat="44.996837" lon="5.175580">
        <ele>431.645891</ele>
        <time>2021-07-04T08:00:20.138Z</time>
      </trkpt>
      <trkpt lat="44.996728" lon="5.175422">
        <ele>431.125609</ele>
        <time>2021-07-04T08:00:22.561Z</time>
      </trkpt>
      <trkpt lat="44.996521" lon="5.175120">
        <ele>429.851654</ele>
        <time>2021-07-04T08:00:27.116Z</time>
      </trkpt>
      <trkpt lat="44.996287" lon="5.174381">
        <ele>427.399050</ele>
        <time>2021-07-04T08:00:35.927Z</time>
      </trkpt>
      <trkpt lat="44.995998" lon="5.173876">
        <ele>425.431242</ele>
        <time>2021-07-04T08:00:43.026Z</time>
      </trkpt>
      <trkpt lat="44.995740" lon="5.173657">
        <ele>424.142313</ele>
        <time>2021-07-04T08:00:47.622Z</time>
      </trkpt>
      <trkpt lat="44.995517" lon="5.173467">
        <ele>423.269231</ele>
        <time>2021-07-04T08:00:51.712Z</time>
      </trkpt>
      <trkpt lat="44.994774" lon="5.172962">
        <ele>420.795810</ele>
        <time>2021-07-04T08:01:05.030Z</time>
      </trkpt>
      <trkpt lat="44.993604" lon="5.171519">
        <ele>417.177317</ele>
        <time>2021-07-04T08:01:32.144Z</time>
      </trkpt>
      <trkpt lat="44.992382" lon="5.170014">
        <ele>415.187508</ele>
        <time>2021-07-04T08:02:02.367Z</time>
      </trkpt>
      <trkpt lat="44.992291" lon="5.169980">
        <ele>415.140706</ele>
        <time>2021-07-04T08:02:04.195Z</time>
      </trkpt>
      <trkpt lat="44.991392" lon="5.169644">
        <ele>414.678327</ele>
        <time>2021-07-04T08:02:24.179Z</time>
      </trkpt>
      <trkpt lat="44.990539" lon="5.169695">
        <ele>414.895156</ele>
        <time>2021-07-04T08:02:44.577Z</time>
      </trkpt>
      <trkpt lat="44.990099" lon="5.169384">
        <ele>415.122919</ele>
        <time>2021-07-04T08:02:56.966Z</time>
      </trkpt>
      <trkpt lat="44.989281" lon="5.169107">
        <ele>415.347035</ele>
        <time>2021-07-04T08:03:17.924Z</time>
      </trkpt>
      <trkpt lat="44.988306" lon="5.167960">
        <ele>414.897689</ele>
        <time>2021-07-04T08:03:44.879Z</time>
      </trkpt>
      <trkpt lat="44.987555" lon="5.167361">
        <ele>413.827640</ele>
        <time>2021-07-04T08:04:01.044Z</time>
      </trkpt>
      <trkpt lat="44.987156" lon="5.166953">
        <ele>412.948491</ele>
        <time>2021-07-04T08:04:09.859Z</time>
      </trkpt>
      <trkpt lat="44.986454" lon="5.165631">
        <ele>410.468949</ele>
        <time>2021-07-04T08:04:30.024Z</time>
      </trkpt>
      <trkpt lat="44.984584" lon="5.163784">
        <ele>403.680987</ele>
        <time>2021-07-04T08:05:07.760Z</time>
      </trkpt>
      <trkpt lat="44.984347" lon="5.163401">
        <ele>402.493303</ele>
        <time>2021-07-04T08:05:13.503Z</time>
      </trkpt>
      <trkpt lat="44.983976" lon="5.162804">
        <ele>400.637450</ele>
        <time>2021-07-04T08:05:22.451Z</time>
      </trkpt>
      <trkpt lat="44.983887" lon="5.162639">
        <ele>400.099783</ele>
        <time>2021-07-04T08:05:24.880Z</time>
      </trkpt>
      <trkpt lat="44.983782" lon="5.162446">
        <ele>399.468877</ele>
        <time>2021-07-04T08:05:27.555Z</time>
      </trkpt>
      <trkpt lat="44.983536" lon="5.162353">
        <ele>398.536030</ele>
        <time>2021-07-04T08:05:31.694Z</time>
      </trkpt>
      <trkpt lat="44.983153" lon="5.162558">
        <ele>397.035782</ele>
        <time>2021-07-04T08:05:38.230Z</time>
      </trkpt>
      <trkpt lat="44.982138" lon="5.163706">
        <ele>391.670871</ele>
        <time>2021-07-04T08:05:58.922Z</time>
      </trkpt>
      <trkpt lat="44.981640" lon="5.163580">
        <ele>389.191520</ele>
        <time>2021-07-04T08:06:06.702Z</time>
      </trkpt>
      <trkpt lat="44.980618" lon="5.164028">
        <ele>384.283502</ele>
        <time>2021-07-04T08:06:22.340Z</time>
      </trkpt>
      <trkpt lat="44.980031" lon="5.163843">
        <ele>382.099078</ele>
        <time>2021-07-04T08:06:31.506Z</time>
      </trkpt>
      <trkpt lat="44.979499" lon="5.163455">
        <ele>379.924777</ele>
        <time>2021-07-04T08:06:41.204Z</time>
      </trkpt>
      <trkpt lat="44.979087" lon="5.163150">
        <ele>378.959851</ele>
        <time>2021-07-04T08:06:50.194Z</time>
      </trkpt>
      <trkpt lat="44.978950" lon="5.162786">
        <ele>379.511095</ele>
        <time>2021-07-04T08:06:56.305Z</time>
      </trkpt>
      <trkpt lat="44.978991" lon="5.162468">
        <ele>379.943246</ele>
        <time>2021-07-04T08:07:02.298Z</time>
      </trkpt>
      <trkpt lat="44.979179" lon="5.162199">
        <ele>380.448809</ele>
        <time>2021-07-04T08:07:10.368Z</time>
      </trkpt>
      <trkpt lat="44.979603" lon="5.161863">
        <ele>381.367493</ele>
        <time>2021-07-04T08:07:28.330Z</time>
      </trkpt>
      <trkpt lat="44.979915" lon="5.161068">
        <ele>382.981409</ele>
        <time>2021-07-04T08:07:52.648Z</time>
      </trkpt>
      <trkpt lat="44.980505" lon="5.160135">
        <ele>386.068278</ele>
        <time>2021-07-04T08:08:25.164Z</time>
      </trkpt>
      <trkpt lat="44.980911" lon="5.159078">
        <ele>388.800046</ele>
        <time>2021-07-04T08:08:55.117Z</time>
      </trkpt>
      <trkpt lat="44.980847" lon="5.158497">
        <ele>389.727402</ele>
        <time>2021-07-04T08:09:09.149Z</time>
      </trkpt>
      <trkpt lat="44.980474" lon="5.157657">
        <ele>391.291605</ele>
        <time>2021-07-04T08:09:31.461Z</time>
      </trkpt>
      <trkpt lat="44.979699" lon="5.156721">
        <ele>392.569369</ele>
        <time>2021-07-04T08:09:59.033Z</time>
      </trkpt>
      <trkpt lat="44.979567" lon="5.156573">
        <ele>392.625729</ele>
        <time>2021-07-04T08:10:03.092Z</time>
      </trkpt>
      <trkpt lat="44.978487" lon="5.155244">
        <ele>392.811892</ele>
        <time>2021-07-04T08:10:34.214Z</time>
      </trkpt>
      <trkpt lat="44.976882" lon="5.153850">
        <ele>391.625186</ele>
        <time>2021-07-04T08:11:12.038Z</time>
      </trkpt>
      <trkpt lat="44.976343" lon="5.153518">
        <ele>391.111686</ele>
        <time>2021-07-04T08:11:23.687Z</time>
      </trkpt>
      <trkpt lat="44.975495" lon="5.153092">
        <ele>390.205145</ele>
        <time>2021-07-04T08:11:41.409Z</time>
      </trkpt>
      <trkpt lat="44.974205" lon="5.152629">
        <ele>387.454293</ele>
        <time>2021-07-04T08:12:05.021Z</time>
      </trkpt>
      <trkpt lat="44.974117" lon="5.152587">
        <ele>387.262321</ele>
        <time>2021-07-04T08:12:06.558Z</time>
      </trkpt>
      <trkpt lat="44.973751" lon="5.152270">
        <ele>386.442683</ele>
        <time>2021-07-04T08:12:13.390Z</time>
      </trkpt>
      <trkpt lat="44.973667" lon="5.152155">
        <ele>386.251810</ele>
        <time>2021-07-04T08:12:15.180Z</time>
      </trkpt>
      <trkpt lat="44.973519" lon="5.151889">
        <ele>385.861040</ele>
        <time>2021-07-04T08:12:19.199Z</time>
      </trkpt>
      <trkpt lat="44.973135" lon="5.151030">
        <ele>384.687698</ele>
        <time>2021-07-04T08:12:32.038Z</time>
      </trkpt>
      <trkpt lat="44.973004" lon="5.150780">
        <ele>384.328452</ele>
        <time>2021-07-04T08:12:35.943Z</time>
      </trkpt>
      <trkpt lat="44.972830" lon="5.150552">
        <ele>383.941182</ele>
        <time>2021-07-04T08:12:41.305Z</time>
      </trkpt>
      <trkpt lat="44.972584" lon="5.150286">
        <ele>384.319813</ele>
        <time>2021-07-04T08:12:48.507Z</time>
      </trkpt>
      <trkpt lat="44.972320" lon="5.150103">
        <ele>385.146138</ele>
        <time>2021-07-04T08:12:56.781Z</time>
      </trkpt>
      <trkpt lat="44.971678" lon="5.149690">
        <ele>387.128405</ele>
        <time>2021-07-04T08:13:21.051Z</time>
      </trkpt>
      <trkpt lat="44.971239" lon="5.149035">
        <ele>388.959506</ele>
        <time>2021-07-04T08:13:47.973Z</time>
      </trkpt>
      <trkpt lat="44.970866" lon="5.148540">
        <ele>390.897613</ele>
        <time>2021-07-04T08:14:08.598Z</time>
      </trkpt>
      <trkpt lat="44.969048" lon="5.145799">
        <ele>399.581519</ele>
        <time>2021-07-04T08:15:43.802Z</time>
      </trkpt>
      <trkpt lat="44.968766" lon="5.145375">
        <ele>400.676118</ele>
        <time>2021-07-04T08:15:55.509Z</time>
      </trkpt>
      <trkpt lat="44.968638" lon="5.145257">
        <ele>400.691155</ele>
        <time>2021-07-04T08:15:59.623Z</time>
      </trkpt>
      <trkpt lat="44.967923" lon="5.144599">
        <ele>400.775109</ele>
        <time>2021-07-04T08:16:20.025Z</time>
      </trkpt>
      <trkpt lat="44.966784" lon="5.142507">
        <ele>399.742317</ele>
        <time>2021-07-04T08:16:56.426Z</time>
      </trkpt>
      <trkpt lat="44.966121" lon="5.141337">
        <ele>398.924949</ele>
        <time>2021-07-04T08:17:16.564Z</time>
      </trkpt>
      <trkpt lat="44.966021" lon="5.141157">
        <ele>398.875920</ele>
        <time>2021-07-04T08:17:19.730Z</time>
      </trkpt>
      <trkpt lat="44.965962" lon="5.141063">
        <ele>398.848999</ele>
        <time>2021-07-04T08:17:21.378Z</time>
      </trkpt>
      <trkpt lat="44.965065" lon="5.139475">
        <ele>398.807284</ele>
        <time>2021-07-04T08:17:53.287Z</time>
      </trkpt>
      <trkpt lat="44.963342" lon="5.138071">
        <ele>401.399324</ele>
        <time>2021-07-04T08:18:50.302Z</time>
      </trkpt>
      <trkpt lat="44.962648" lon="5.137505">
        <ele>402.516856</ele>
        <time>2021-07-04T08:19:13.112Z</time>
      </trkpt>
      <trkpt lat="44.962079" lon="5.136840">
        <ele>403.403096</ele>
        <time>2021-07-04T08:19:32.865Z</time>
      </trkpt>
      <trkpt lat="44.961298" lon="5.135925">
        <ele>404.010237</ele>
        <time>2021-07-04T08:19:58.216Z</time>
      </trkpt>
      <trkpt lat="44.960527" lon="5.134265">
        <ele>404.275207</ele>
        <time>2021-07-04T08:20:30.630Z</time>
      </trkpt>
      <trkpt lat="44.960007" lon="5.133309">
        <ele>404.172485</ele>
        <time>2021-07-04T08:20:48.793Z</time>
      </trkpt>
      <trkpt lat="44.959535" lon="5.132553">
        <ele>403.632261</ele>
        <time>2021-07-04T08:21:03.345Z</time>
      </trkpt>
      <trkpt lat="44.959504" lon="5.132276">
        <ele>403.449956</ele>
        <time>2021-07-04T08:21:07.234Z</time>
      </trkpt>
      <trkpt lat="44.959503" lon="5.132086">
        <ele>403.326440</ele>
        <time>2021-07-04T08:21:09.864Z</time>
      </trkpt>
      <trkpt lat="44.959411" lon="5.131969">
        <ele>403.212739</ele>
        <time>2021-07-04T08:21:12.237Z</time>
      </trkpt>
      <trkpt lat="44.959295" lon="5.131976">
        <ele>403.106075</ele>
        <time>2021-07-04T08:21:14.482Z</time>
      </trkpt>
      <trkpt lat="44.959151" lon="5.131897">
        <ele>402.964167</ele>
        <time>2021-07-04T08:21:17.453Z</time>
      </trkpt>
      <trkpt lat="44.958021" lon="5.130136">
        <ele>400.622449</ele>
        <time>2021-07-04T08:21:48.677Z</time>
      </trkpt>
      <trkpt lat="44.956981" lon="5.128446">
        <ele>396.995322</ele>
        <time>2021-07-04T08:22:16.614Z</time>
      </trkpt>
      <trkpt lat="44.956707" lon="5.128105">
        <ele>395.997214</ele>
        <time>2021-07-04T08:22:22.625Z</time>
      </trkpt>
      <trkpt lat="44.956482" lon="5.127851">
        <ele>395.209956</ele>
        <time>2021-07-04T08:22:27.282Z</time>
      </trkpt>
      <trkpt lat="44.956298" lon="5.127636">
        <ele>394.475010</ele>
        <time>2021-07-04T08:22:31.115Z</time>
      </trkpt>
      <trkpt lat="44.955444" lon="5.126661">
        <ele>389.951121</ele>
        <time>2021-07-04T08:22:47.889Z</time>
      </trkpt>
      <trkpt lat="44.955068" lon="5.126355">
        <ele>388.163231</ele>
        <time>2021-07-04T08:22:54.702Z</time>
      </trkpt>
      <trkpt lat="44.954868" lon="5.126238">
        <ele>387.287744</ele>
        <time>2021-07-04T08:22:58.074Z</time>
      </trkpt>
      <trkpt lat="44.954404" lon="5.126025">
        <ele>386.177267</ele>
        <time>2021-07-04T08:23:06.150Z</time>
      </trkpt>
      <trkpt lat="44.954135" lon="5.125915">
        <ele>385.539854</ele>
        <time>2021-07-04T08:23:10.834Z</time>
      </trkpt>
      <trkpt lat="44.953534" lon="5.125665">
        <ele>384.113830</ele>
        <time>2021-07-04T08:23:21.732Z</time>
      </trkpt>
      <trkpt lat="44.953288" lon="5.125393">
        <ele>383.402845</ele>
        <time>2021-07-04T08:23:27.706Z</time>
      </trkpt>
      <trkpt lat="44.953207" lon="5.125228">
        <ele>383.151762</ele>
        <time>2021-07-04T08:23:30.671Z</time>
      </trkpt>
      <trkpt lat="44.953157" lon="5.125073">
        <ele>383.024898</ele>
        <time>2021-07-04T08:23:33.046Z</time>
      </trkpt>
      <trkpt lat="44.953129" lon="5.124914">
        <ele>382.902870</ele>
        <time>2021-07-04T08:23:35.512Z</time>
      </trkpt>
      <trkpt lat="44.951771" lon="5.124281">
        <ele>381.397982</ele>
        <time>2021-07-04T08:24:03.096Z</time>
      </trkpt>
      <trkpt lat="44.951426" lon="5.124072">
        <ele>380.893925</ele>
        <time>2021-07-04T08:24:10.051Z</time>
      </trkpt>
      <trkpt lat="44.950194" lon="5.122732">
        <ele>378.687843</ele>
        <time>2021-07-04T08:24:38.656Z</time>
      </trkpt>
      <trkpt lat="44.948925" lon="5.121096">
        <ele>375.986779</ele>
        <time>2021-07-04T08:25:10.126Z</time>
      </trkpt>
      <trkpt lat="44.948777" lon="5.120956">
        <ele>375.564644</ele>
        <time>2021-07-04T08:25:13.402Z</time>
      </trkpt>
      <trkpt lat="44.948383" lon="5.120730">
        <ele>374.508073</ele>
        <time>2021-07-04T08:25:20.839Z</time>
      </trkpt>
      <trkpt lat="44.947655" lon="5.120461">
        <ele>372.638370</ele>
        <time>2021-07-04T08:25:33.645Z</time>
      </trkpt>
      <trkpt lat="44.947582" lon="5.120434">
        <ele>372.450875</ele>
        <time>2021-07-04T08:25:34.782Z</time>
      </trkpt>
      <trkpt lat="44.946116" lon="5.119808">
        <ele>368.583965</ele>
        <time>2021-07-04T08:25:59.816Z</time>
      </trkpt>
      <trkpt lat="44.945552" lon="5.119636">
        <ele>367.119183</ele>
        <time>2021-07-04T08:26:09.956Z</time>
      </trkpt>
      <trkpt lat="44.945488" lon="5.119616">
        <ele>366.952782</ele>
        <time>2021-07-04T08:26:11.209Z</time>
      </trkpt>
      <trkpt lat="44.944600" lon="5.119024">
        <ele>367.032481</ele>
        <time>2021-07-04T08:26:30.759Z</time>
      </trkpt>
      <trkpt lat="44.944157" lon="5.118920">
        <ele>367.086384</ele>
        <time>2021-07-04T08:26:42.335Z</time>
      </trkpt>
      <trkpt lat="44.943147" lon="5.119129">
        <ele>368.531167</ele>
        <time>2021-07-04T08:27:12.729Z</time>
      </trkpt>
      <trkpt lat="44.942765" lon="5.119042">
        <ele>369.378591</ele>
        <time>2021-07-04T08:27:24.808Z</time>
      </trkpt>
      <trkpt lat="44.941785" lon="5.118552">
        <ele>371.723164</ele>
        <time>2021-07-04T08:27:58.073Z</time>
      </trkpt>
      <trkpt lat="44.940923" lon="5.118274">
        <ele>373.884506</ele>
        <time>2021-07-04T08:28:27.922Z</time>
      </trkpt>
      <trkpt lat="44.940590" lon="5.118098">
        <ele>374.753615</ele>
        <time>2021-07-04T08:28:39.713Z</time>
      </trkpt>
      <trkpt lat="44.940329" lon="5.117880">
        <ele>375.467824</ele>
        <time>2021-07-04T08:28:48.941Z</time>
      </trkpt>
      <trkpt lat="44.940261" lon="5.117578">
        <ele>375.459942</ele>
        <time>2021-07-04T08:28:54.942Z</time>
      </trkpt>
      <trkpt lat="44.940273" lon="5.117426">
        <ele>375.456138</ele>
        <time>2021-07-04T08:28:58.270Z</time>
      </trkpt>
      <trkpt lat="44.940202" lon="5.117420">
        <ele>375.453639</ele>
        <time>2021-07-04T08:29:00.326Z</time>
      </trkpt>
      <trkpt lat="44.940143" lon="5.117384">
        <ele>375.451381</ele>
        <time>2021-07-04T08:29:01.774Z</time>
      </trkpt>
      <trkpt lat="44.939560" lon="5.116931">
        <ele>375.428001</ele>
        <time>2021-07-04T08:29:16.210Z</time>
      </trkpt>
      <trkpt lat="44.939275" lon="5.116739">
        <ele>375.416906</ele>
        <time>2021-07-04T08:29:22.218Z</time>
      </trkpt>
      <trkpt lat="44.938660" lon="5.116324">
        <ele>375.066947</ele>
        <time>2021-07-04T08:29:34.801Z</time>
      </trkpt>
      <trkpt lat="44.938530" lon="5.116324">
        <ele>374.938774</ele>
        <time>2021-07-04T08:29:37.050Z</time>
      </trkpt>
      <trkpt lat="44.937996" lon="5.116189">
        <ele>374.403915</ele>
        <time>2021-07-04T08:29:46.944Z</time>
      </trkpt>
      <trkpt lat="44.937909" lon="5.116179">
        <ele>374.317854</ele>
        <time>2021-07-04T08:29:48.753Z</time>
      </trkpt>
      <trkpt lat="44.937684" lon="5.116152">
        <ele>374.095218</ele>
        <time>2021-07-04T08:29:52.817Z</time>
      </trkpt>
      <trkpt lat="44.937507" lon="5.116119">
        <ele>373.919192</ele>
        <time>2021-07-04T08:29:56.858Z</time>
      </trkpt>
      <trkpt lat="44.936978" lon="5.115722">
        <ele>373.814771</ele>
        <time>2021-07-04T08:30:10.072Z</time>
      </trkpt>
      <trkpt lat="44.936511" lon="5.115484">
        <ele>374.110569</ele>
        <time>2021-07-04T08:30:24.172Z</time>
      </trkpt>
      <trkpt lat="44.936025" lon="5.114806">
        <ele>374.517535</ele>
        <time>2021-07-04T08:30:42.055Z</time>
      </trkpt>
      <trkpt lat="44.935701" lon="5.114577">
        <ele>374.668331</ele>
        <time>2021-07-04T08:30:50.393Z</time>
      </trkpt>
      <trkpt lat="44.935241" lon="5.114412">
        <ele>374.339857</ele>
        <time>2021-07-04T08:31:00.511Z</time>
      </trkpt>
      <trkpt lat="44.934923" lon="5.114303">
        <ele>374.113380</ele>
        <time>2021-07-04T08:31:06.972Z</time>
      </trkpt>
      <trkpt lat="44.934612" lon="5.114110">
        <ele>373.878278</ele>
        <time>2021-07-04T08:31:13.465Z</time>
      </trkpt>
      <trkpt lat="44.933413" lon="5.113094">
        <ele>373.380527</ele>
        <time>2021-07-04T08:31:40.004Z</time>
      </trkpt>
      <trkpt lat="44.933192" lon="5.113039">
        <ele>373.358440</ele>
        <time>2021-07-04T08:31:44.868Z</time>
      </trkpt>
      <trkpt lat="44.932946" lon="5.113085">
        <ele>373.334017</ele>
        <time>2021-07-04T08:31:50.943Z</time>
      </trkpt>
      <trkpt lat="44.931792" lon="5.113222">
        <ele>374.428303</ele>
        <time>2021-07-04T08:32:21.741Z</time>
      </trkpt>
      <trkpt lat="44.931513" lon="5.113231">
        <ele>374.941605</ele>
        <time>2021-07-04T08:32:30.052Z</time>
      </trkpt>
      <trkpt lat="44.931384" lon="5.113304">
        <ele>375.197209</ele>
        <time>2021-07-04T08:32:34.121Z</time>
      </trkpt>
      <trkpt lat="44.931202" lon="5.113561">
        <ele>375.670551</ele>
        <time>2021-07-04T08:32:42.015Z</time>
      </trkpt>
      <trkpt lat="44.931040" lon="5.113625">
        <ele>375.979954</ele>
        <time>2021-07-04T08:32:47.578Z</time>
      </trkpt>
      <trkpt lat="44.930904" lon="5.113597">
        <ele>376.232744</ele>
        <time>2021-07-04T08:32:52.000Z</time>
      </trkpt>
      <trkpt lat="44.930606" lon="5.113204">
        <ele>377.236766</ele>
        <time>2021-07-04T08:33:05.406Z</time>
      </trkpt>
      <trkpt lat="44.930016" lon="5.112773">
        <ele>379.248667</ele>
        <time>2021-07-04T08:33:27.731Z</time>
      </trkpt>
      <trkpt lat="44.929951" lon="5.112682">
        <ele>379.525868</ele>
        <time>2021-07-04T08:33:30.761Z</time>
      </trkpt>
      <trkpt lat="44.929821" lon="5.112499">
        <ele>380.081781</ele>
        <time>2021-07-04T08:33:37.287Z</time>
      </trkpt>
      <trkpt lat="44.929646" lon="5.112361">
        <ele>380.688851</ele>
        <time>2021-07-04T08:33:44.063Z</time>
      </trkpt>
      <trkpt lat="44.929095" lon="5.112325">
        <ele>382.447013</ele>
        <time>2021-07-04T08:34:03.953Z</time>
      </trkpt>
      <trkpt lat="44.928862" lon="5.112206">
        <ele>383.401300</ele>
        <time>2021-07-04T08:34:13.096Z</time>
      </trkpt>
      <trkpt lat="44.928427" lon="5.111821">
        <ele>385.378492</ele>
        <time>2021-07-04T08:34:32.559Z</time>
      </trkpt>
      <trkpt lat="44.927161" lon="5.110381">
        <ele>391.499784</ele>
        <time>2021-07-04T08:35:34.583Z</time>
      </trkpt>
      <trkpt lat="44.926806" lon="5.109650">
        <ele>393.791059</ele>
        <time>2021-07-04T08:35:58.048Z</time>
      </trkpt>
      <trkpt lat="44.926608" lon="5.109320">
        <ele>394.909151</ele>
        <time>2021-07-04T08:36:09.304Z</time>
      </trkpt>
      <trkpt lat="44.925437" lon="5.108378">
        <ele>397.913238</ele>
        <time>2021-07-04T08:36:54.029Z</time>
      </trkpt>
      <trkpt lat="44.924982" lon="5.108099">
        <ele>398.916813</ele>
        <time>2021-07-04T08:37:06.642Z</time>
      </trkpt>
      <trkpt lat="44.924900" lon="5.108061">
        <ele>399.091418</ele>
        <time>2021-07-04T08:37:09.058Z</time>
      </trkpt>
      <trkpt lat="44.924577" lon="5.107914">
        <ele>399.083683</ele>
        <time>2021-07-04T08:37:16.805Z</time>
      </trkpt>
      <trkpt lat="44.924232" lon="5.107850">
        <ele>398.982671</ele>
        <time>2021-07-04T08:37:24.445Z</time>
      </trkpt>
      <trkpt lat="44.924153" lon="5.107851">
        <ele>398.959737</ele>
        <time>2021-07-04T08:37:25.989Z</time>
      </trkpt>
      <trkpt lat="44.924095" lon="5.107852">
        <ele>398.942899</ele>
        <time>2021-07-04T08:37:27.075Z</time>
      </trkpt>
      <trkpt lat="44.923987" lon="5.107920">
        <ele>398.908572</ele>
        <time>2021-07-04T08:37:29.644Z</time>
      </trkpt>
      <trkpt lat="44.923695" lon="5.108111">
        <ele>398.815157</ele>
        <time>2021-07-04T08:37:36.255Z</time>
      </trkpt>
      <trkpt lat="44.923461" lon="5.108283">
        <ele>398.738579</ele>
        <time>2021-07-04T08:37:41.546Z</time>
      </trkpt>
      <trkpt lat="44.922776" lon="5.108531">
        <ele>398.318797</ele>
        <time>2021-07-04T08:37:55.366Z</time>
      </trkpt>
      <trkpt lat="44.922438" lon="5.108836">
        <ele>397.985879</ele>
        <time>2021-07-04T08:38:03.582Z</time>
      </trkpt>
      <trkpt lat="44.922276" lon="5.108900">
        <ele>397.846255</ele>
        <time>2021-07-04T08:38:07.011Z</time>
      </trkpt>
      <trkpt lat="44.922110" lon="5.108874">
        <ele>397.707629</ele>
        <time>2021-07-04T08:38:10.373Z</time>
      </trkpt>
      <trkpt lat="44.921961" lon="5.108773">
        <ele>397.570450</ele>
        <time>2021-07-04T08:38:13.710Z</time>
      </trkpt>
      <trkpt lat="44.921673" lon="5.108054">
        <ele>396.938257</ele>
        <time>2021-07-04T08:38:25.121Z</time>
      </trkpt>
      <trkpt lat="44.921560" lon="5.108003">
        <ele>396.635808</ele>
        <time>2021-07-04T08:38:27.344Z</time>
      </trkpt>
      <trkpt lat="44.920849" lon="5.107565">
        <ele>394.658151</ele>
        <time>2021-07-04T08:38:41.102Z</time>
      </trkpt>
      <trkpt lat="44.920516" lon="5.107278">
        <ele>393.663553</ele>
        <time>2021-07-04T08:38:47.441Z</time>
      </trkpt>
      <trkpt lat="44.920016" lon="5.106617">
        <ele>391.360677</ele>
        <time>2021-07-04T08:38:58.336Z</time>
      </trkpt>
      <trkpt lat="44.919836" lon="5.106210">
        <ele>389.755411</ele>
        <time>2021-07-04T08:39:03.513Z</time>
      </trkpt>
      <trkpt lat="44.919723" lon="5.106019">
        <ele>388.922798</ele>
        <time>2021-07-04T08:39:06.164Z</time>
      </trkpt>
      <trkpt lat="44.919223" lon="5.105574">
        <ele>386.130690</ele>
        <time>2021-07-04T08:39:15.137Z</time>
      </trkpt>
      <trkpt lat="44.918815" lon="5.105272">
        <ele>383.979088</ele>
        <time>2021-07-04T08:39:21.999Z</time>
      </trkpt>
      <trkpt lat="44.918742" lon="5.105218">
        <ele>383.670843</ele>
        <time>2021-07-04T08:39:23.165Z</time>
      </trkpt>
      <trkpt lat="44.918161" lon="5.105065">
        <ele>381.460178</ele>
        <time>2021-07-04T08:39:32.351Z</time>
      </trkpt>
      <trkpt lat="44.917876" lon="5.105163">
        <ele>380.363002</ele>
        <time>2021-07-04T08:39:36.909Z</time>
      </trkpt>
      <trkpt lat="44.917638" lon="5.105243">
        <ele>379.447903</ele>
        <time>2021-07-04T08:39:40.672Z</time>
      </trkpt>
      <trkpt lat="44.917422" lon="5.105256">
        <ele>378.639232</ele>
        <time>2021-07-04T08:39:44.181Z</time>
      </trkpt>
      <trkpt lat="44.916333" lon="5.104468">
        <ele>377.400475</ele>
        <time>2021-07-04T08:40:06.573Z</time>
      </trkpt>
      <trkpt lat="44.916255" lon="5.104389">
        <ele>377.406542</ele>
        <time>2021-07-04T08:40:08.438Z</time>
      </trkpt>
      <trkpt lat="44.916232" lon="5.104328">
        <ele>377.409635</ele>
        <time>2021-07-04T08:40:09.621Z</time>
      </trkpt>
      <trkpt lat="44.916222" lon="5.104293">
        <ele>377.411325</ele>
        <time>2021-07-04T08:40:10.313Z</time>
      </trkpt>
      <trkpt lat="44.916185" lon="5.104289">
        <ele>377.413670</ele>
        <time>2021-07-04T08:40:11.640Z</time>
      </trkpt>
      <trkpt lat="44.916075" lon="5.104238">
        <ele>377.420988</ele>
        <time>2021-07-04T08:40:14.942Z</time>
      </trkpt>
      <trkpt lat="44.915818" lon="5.104055">
        <ele>377.439181</ele>
        <time>2021-07-04T08:40:22.739Z</time>
      </trkpt>
      <trkpt lat="44.915605" lon="5.103904">
        <ele>377.454245</ele>
        <time>2021-07-04T08:40:29.242Z</time>
      </trkpt>
      <trkpt lat="44.915388" lon="5.103780">
        <ele>378.423794</ele>
        <time>2021-07-04T08:40:37.706Z</time>
      </trkpt>
      <trkpt lat="44.914846" lon="5.103686">
        <ele>381.641705</ele>
        <time>2021-07-04T08:40:58.035Z</time>
      </trkpt>
      <trkpt lat="44.914069" lon="5.103789">
        <ele>386.240562</ele>
        <time>2021-07-04T08:41:38.322Z</time>
      </trkpt>
      <trkpt lat="44.913878" lon="5.103822">
        <ele>387.374486</ele>
        <time>2021-07-04T08:41:48.909Z</time>
      </trkpt>
      <trkpt lat="44.913751" lon="5.103792">
        <ele>388.135864</ele>
        <time>2021-07-04T08:41:57.159Z</time>
      </trkpt>
      <trkpt lat="44.913604" lon="5.103813">
        <ele>389.036408</ele>
        <time>2021-07-04T08:42:05.592Z</time>
      </trkpt>
      <trkpt lat="44.913513" lon="5.103853">
        <ele>389.617307</ele>
        <time>2021-07-04T08:42:10.622Z</time>
      </trkpt>
      <trkpt lat="44.913443" lon="5.104199">
        <ele>391.170510</ele>
        <time>2021-07-04T08:42:24.862Z</time>
      </trkpt>
      <trkpt lat="44.913345" lon="5.104644">
        <ele>393.182018</ele>
        <time>2021-07-04T08:42:41.871Z</time>
      </trkpt>
      <trkpt lat="44.913185" lon="5.105403">
        <ele>396.600200</ele>
        <time>2021-07-04T08:43:06.170Z</time>
      </trkpt>
      <trkpt lat="44.913123" lon="5.105501">
        <ele>397.167417</ele>
        <time>2021-07-04T08:43:12.667Z</time>
      </trkpt>
      <trkpt lat="44.912913" lon="5.105052">
        <ele>398.970373</ele>
        <time>2021-07-04T08:43:27.018Z</time>
      </trkpt>
      <trkpt lat="44.912949" lon="5.104802">
        <ele>398.852601</ele>
        <time>2021-07-04T08:43:30.731Z</time>
      </trkpt>
      <trkpt lat="44.912801" lon="5.104193">
        <ele>398.555368</ele>
        <time>2021-07-04T08:43:43.208Z</time>
      </trkpt>
      <trkpt lat="44.912230" lon="5.103272">
        <ele>397.990284</ele>
        <time>2021-07-04T08:43:58.097Z</time>
      </trkpt>
      <trkpt lat="44.911756" lon="5.102308">
        <ele>395.943604</ele>
        <time>2021-07-04T08:44:11.536Z</time>
      </trkpt>
      <trkpt lat="44.911400" lon="5.101407">
        <ele>393.673473</ele>
        <time>2021-07-04T08:44:23.461Z</time>
      </trkpt>
      <trkpt lat="44.911029" lon="5.100841">
        <ele>392.043563</ele>
        <time>2021-07-04T08:44:32.453Z</time>
      </trkpt>
      <trkpt lat="44.910687" lon="5.100548">
        <ele>391.094651</ele>
        <time>2021-07-04T08:44:39.119Z</time>
      </trkpt>
      <trkpt lat="44.910539" lon="5.100297">
        <ele>390.545965</ele>
        <time>2021-07-04T08:44:43.018Z</time>
      </trkpt>
      <trkpt lat="44.910465" lon="5.099794">
        <ele>389.682906</ele>
        <time>2021-07-04T08:44:49.223Z</time>
      </trkpt>
      <trkpt lat="44.910316" lon="5.099375">
        <ele>388.895249</ele>
        <time>2021-07-04T08:44:55.033Z</time>
      </trkpt>
      <trkpt lat="44.910020" lon="5.098977">
        <ele>387.971113</ele>
        <time>2021-07-04T08:45:02.261Z</time>
      </trkpt>
      <trkpt lat="44.909530" lon="5.098411">
        <ele>387.478028</ele>
        <time>2021-07-04T08:45:13.925Z</time>
      </trkpt>
      <trkpt lat="44.909062" lon="5.098165">
        <ele>387.089075</ele>
        <time>2021-07-04T08:45:23.856Z</time>
      </trkpt>
      <trkpt lat="44.909011" lon="5.098139">
        <ele>387.046843</ele>
        <time>2021-07-04T08:45:24.785Z</time>
      </trkpt>
      <trkpt lat="44.908788" lon="5.097866">
        <ele>386.816959</ele>
        <time>2021-07-04T08:45:31.354Z</time>
      </trkpt>
      <trkpt lat="44.908345" lon="5.097635">
        <ele>386.845883</ele>
        <time>2021-07-04T08:45:41.872Z</time>
      </trkpt>
      <trkpt lat="44.907735" lon="5.097447">
        <ele>387.706268</ele>
        <time>2021-07-04T08:45:58.632Z</time>
      </trkpt>
      <trkpt lat="44.906967" lon="5.097463">
        <ele>388.764703</ele>
        <time>2021-07-04T08:46:21.462Z</time>
      </trkpt>
      <trkpt lat="44.906726" lon="5.097468">
        <ele>389.084371</ele>
        <time>2021-07-04T08:46:28.971Z</time>
      </trkpt>
      <trkpt lat="44.906632" lon="5.097500">
        <ele>389.153375</ele>
        <time>2021-07-04T08:46:32.154Z</time>
      </trkpt>
      <trkpt lat="44.906173" lon="5.097628">
        <ele>389.487258</ele>
        <time>2021-07-04T08:46:46.903Z</time>
      </trkpt>
      <trkpt lat="44.905905" lon="5.097702">
        <ele>389.682134</ele>
        <time>2021-07-04T08:46:54.627Z</time>
      </trkpt>
      <trkpt lat="44.905629" lon="5.097699">
        <ele>389.879101</ele>
        <time>2021-07-04T08:47:01.677Z</time>
      </trkpt>
      <trkpt lat="44.904947" lon="5.097461">
        <ele>390.288692</ele>
        <time>2021-07-04T08:47:16.286Z</time>
      </trkpt>
      <trkpt lat="44.904178" lon="5.097235">
        <ele>388.863732</ele>
        <time>2021-07-04T08:47:29.626Z</time>
      </trkpt>
      <trkpt lat="44.902984" lon="5.096908">
        <ele>387.456475</ele>
        <time>2021-07-04T08:47:50.792Z</time>
      </trkpt>
      <trkpt lat="44.902806" lon="5.096860">
        <ele>387.732690</ele>
        <time>2021-07-04T08:47:55.081Z</time>
      </trkpt>
      <trkpt lat="44.902504" lon="5.096773">
        <ele>388.202487</ele>
        <time>2021-07-04T08:48:03.594Z</time>
      </trkpt>
      <trkpt lat="44.902364" lon="5.096731">
        <ele>388.420642</ele>
        <time>2021-07-04T08:48:08.161Z</time>
      </trkpt>
      <trkpt lat="44.902219" lon="5.096683">
        <ele>388.647647</ele>
        <time>2021-07-04T08:48:13.114Z</time>
      </trkpt>
      <trkpt lat="44.900658" lon="5.096235">
        <ele>389.524922</ele>
        <time>2021-07-04T08:49:07.729Z</time>
      </trkpt>
      <trkpt lat="44.900536" lon="5.096198">
        <ele>389.477746</ele>
        <time>2021-07-04T08:49:10.116Z</time>
      </trkpt>
      <trkpt lat="44.900431" lon="5.096217">
        <ele>389.437726</ele>
        <time>2021-07-04T08:49:11.857Z</time>
      </trkpt>
      <trkpt lat="44.900412" lon="5.096230">
        <ele>389.429743</ele>
        <time>2021-07-04T08:49:12.889Z</time>
      </trkpt>
      <trkpt lat="44.900355" lon="5.096271">
        <ele>389.405558</ele>
        <time>2021-07-04T08:49:14.640Z</time>
      </trkpt>
      <trkpt lat="44.900216" lon="5.096262">
        <ele>389.352953</ele>
        <time>2021-07-04T08:49:16.881Z</time>
      </trkpt>
      <trkpt lat="44.900098" lon="5.096205">
        <ele>389.305803</ele>
        <time>2021-07-04T08:49:18.853Z</time>
      </trkpt>
      <trkpt lat="44.899895" lon="5.096043">
        <ele>389.217645</ele>
        <time>2021-07-04T08:49:22.882Z</time>
      </trkpt>
      <trkpt lat="44.899785" lon="5.095955">
        <ele>389.169845</ele>
        <time>2021-07-04T08:49:24.751Z</time>
      </trkpt>
      <trkpt lat="44.899646" lon="5.095857">
        <ele>388.395333</ele>
        <time>2021-07-04T08:49:27.450Z</time>
      </trkpt>
      <trkpt lat="44.899409" lon="5.095767">
        <ele>386.721615</ele>
        <time>2021-07-04T08:49:30.991Z</time>
      </trkpt>
      <trkpt lat="44.899430" lon="5.095529">
        <ele>385.563022</ele>
        <time>2021-07-04T08:49:33.458Z</time>
      </trkpt>
      <trkpt lat="44.899469" lon="5.095364">
        <ele>384.722753</ele>
        <time>2021-07-04T08:49:35.211Z</time>
      </trkpt>
      <trkpt lat="44.899482" lon="5.095334">
        <ele>384.552865</ele>
        <time>2021-07-04T08:49:35.529Z</time>
      </trkpt>
      <trkpt lat="44.899524" lon="5.095236">
        <ele>383.999552</ele>
        <time>2021-07-04T08:49:36.776Z</time>
      </trkpt>
      <trkpt lat="44.899581" lon="5.095168">
        <ele>383.490623</ele>
        <time>2021-07-04T08:49:37.841Z</time>
      </trkpt>
      <trkpt lat="44.899605" lon="5.095060">
        <ele>382.943838</ele>
        <time>2021-07-04T08:49:38.920Z</time>
      </trkpt>
      <trkpt lat="44.899607" lon="5.094449">
        <ele>379.992256</ele>
        <time>2021-07-04T08:49:44.954Z</time>
      </trkpt>
      <trkpt lat="44.899600" lon="5.094304">
        <ele>379.290182</ele>
        <time>2021-07-04T08:49:46.356Z</time>
      </trkpt>
      <trkpt lat="44.899579" lon="5.093818">
        <ele>376.938104</ele>
        <time>2021-07-04T08:49:51.320Z</time>
      </trkpt>
      <trkpt lat="44.899558" lon="5.093570">
        <ele>375.941989</ele>
        <time>2021-07-04T08:49:53.907Z</time>
      </trkpt>
      <trkpt lat="44.899557" lon="5.093373">
        <ele>375.163645</ele>
        <time>2021-07-04T08:49:55.957Z</time>
      </trkpt>
      <trkpt lat="44.899552" lon="5.093066">
        <ele>373.950402</ele>
        <time>2021-07-04T08:49:59.228Z</time>
      </trkpt>
      <trkpt lat="44.899551" lon="5.093003">
        <ele>373.701434</ele>
        <time>2021-07-04T08:49:59.930Z</time>
      </trkpt>
      <trkpt lat="44.899547" lon="5.092941">
        <ele>373.455465</ele>
        <time>2021-07-04T08:50:00.656Z</time>
      </trkpt>
      <trkpt lat="44.899464" lon="5.091719">
        <ele>368.605335</ele>
        <time>2021-07-04T08:50:13.777Z</time>
      </trkpt>
      <trkpt lat="44.899468" lon="5.090686">
        <ele>364.630531</ele>
        <time>2021-07-04T08:50:24.792Z</time>
      </trkpt>
      <trkpt lat="44.899455" lon="5.089798">
        <ele>361.281774</ele>
        <time>2021-07-04T08:50:34.219Z</time>
      </trkpt>
      <trkpt lat="44.899548" lon="5.089080">
        <ele>358.529803</ele>
        <time>2021-07-04T08:50:41.962Z</time>
      </trkpt>
      <trkpt lat="44.899494" lon="5.088462">
        <ele>356.393896</ele>
        <time>2021-07-04T08:50:48.553Z</time>
      </trkpt>
      <trkpt lat="44.899416" lon="5.088054">
        <ele>355.107631</ele>
        <time>2021-07-04T08:50:53.057Z</time>
      </trkpt>
      <trkpt lat="44.899394" lon="5.086938">
        <ele>351.709538</ele>
        <time>2021-07-04T08:51:05.115Z</time>
      </trkpt>
      <trkpt lat="44.899325" lon="5.086219">
        <ele>349.525176</ele>
        <time>2021-07-04T08:51:13.627Z</time>
      </trkpt>
      <trkpt lat="44.899051" lon="5.085810">
        <ele>348.613673</ele>
        <time>2021-07-04T08:51:20.769Z</time>
      </trkpt>
      <trkpt lat="44.898846" lon="5.085629">
        <ele>348.060977</ele>
        <time>2021-07-04T08:51:25.055Z</time>
      </trkpt>
      <trkpt lat="44.898664" lon="5.085479">
        <ele>347.579247</ele>
        <time>2021-07-04T08:51:28.668Z</time>
      </trkpt>
      <trkpt lat="44.898558" lon="5.085382">
        <ele>347.290496</ele>
        <time>2021-07-04T08:51:30.995Z</time>
      </trkpt>
      <trkpt lat="44.898094" lon="5.085017">
        <ele>346.076322</ele>
        <time>2021-07-04T08:51:40.180Z</time>
      </trkpt>
      <trkpt lat="44.897917" lon="5.084790">
        <ele>345.529701</ele>
        <time>2021-07-04T08:51:44.377Z</time>
      </trkpt>
      <trkpt lat="44.897992" lon="5.083974">
        <ele>343.240236</ele>
        <time>2021-07-04T08:51:54.666Z</time>
      </trkpt>
      <trkpt lat="44.897992" lon="5.083167">
        <ele>340.927992</ele>
        <time>2021-07-04T08:52:04.254Z</time>
      </trkpt>
      <trkpt lat="44.897670" lon="5.082498">
        <ele>338.610523</ele>
        <time>2021-07-04T08:52:13.279Z</time>
      </trkpt>
      <trkpt lat="44.897317" lon="5.080756">
        <ele>330.974558</ele>
        <time>2021-07-04T08:52:33.026Z</time>
      </trkpt>
      <trkpt lat="44.897074" lon="5.080283">
        <ele>328.438234</ele>
        <time>2021-07-04T08:52:39.327Z</time>
      </trkpt>
      <trkpt lat="44.896612" lon="5.079090">
        <ele>322.780701</ele>
        <time>2021-07-04T08:52:53.996Z</time>
      </trkpt>
      <trkpt lat="44.896405" lon="5.078738">
        <ele>320.900156</ele>
        <time>2021-07-04T08:52:58.986Z</time>
      </trkpt>
      <trkpt lat="44.896146" lon="5.078081">
        <ele>317.809451</ele>
        <time>2021-07-04T08:53:07.334Z</time>
      </trkpt>
      <trkpt lat="44.895772" lon="5.077157">
        <ele>314.663773</ele>
        <time>2021-07-04T08:53:19.509Z</time>
      </trkpt>
      <trkpt lat="44.895704" lon="5.076914">
        <ele>313.993132</ele>
        <time>2021-07-04T08:53:22.552Z</time>
      </trkpt>
      <trkpt lat="44.896619" lon="5.076392">
        <ele>310.417172</ele>
        <time>2021-07-04T08:53:39.505Z</time>
      </trkpt>
      <trkpt lat="44.897687" lon="5.075925">
        <ele>307.698703</ele>
        <time>2021-07-04T08:53:59.566Z</time>
      </trkpt>
      <trkpt lat="44.897448" lon="5.074756">
        <ele>305.805683</ele>
        <time>2021-07-04T08:54:15.230Z</time>
      </trkpt>
      <trkpt lat="44.897387" lon="5.074297">
        <ele>305.419641</ele>
        <time>2021-07-04T08:54:21.436Z</time>
      </trkpt>
      <trkpt lat="44.897571" lon="5.073930">
        <ele>305.047971</ele>
        <time>2021-07-04T08:54:27.546Z</time>
      </trkpt>
      <trkpt lat="44.897661" lon="5.073751">
        <ele>304.866521</ele>
        <time>2021-07-04T08:54:30.528Z</time>
      </trkpt>
      <trkpt lat="44.897683" lon="5.073525">
        <ele>304.677947</ele>
        <time>2021-07-04T08:54:33.774Z</time>
      </trkpt>
      <trkpt lat="44.897655" lon="5.073325">
        <ele>304.509424</ele>
        <time>2021-07-04T08:54:36.654Z</time>
      </trkpt>
      <trkpt lat="44.897574" lon="5.073094">
        <ele>304.296359</ele>
        <time>2021-07-04T08:54:40.396Z</time>
      </trkpt>
      <trkpt lat="44.897487" lon="5.072881">
        <ele>304.093115</ele>
        <time>2021-07-04T08:54:44.026Z</time>
      </trkpt>
      <trkpt lat="44.897422" lon="5.070852">
        <ele>304.499228</ele>
        <time>2021-07-04T08:55:18.490Z</time>
      </trkpt>
      <trkpt lat="44.897291" lon="5.070475">
        <ele>304.657923</ele>
        <time>2021-07-04T08:55:26.905Z</time>
      </trkpt>
      <trkpt lat="44.897072" lon="5.070255">
        <ele>304.801325</ele>
        <time>2021-07-04T08:55:34.635Z</time>
      </trkpt>
      <trkpt lat="44.897024" lon="5.069952">
        <ele>305.194326</ele>
        <time>2021-07-04T08:55:41.189Z</time>
      </trkpt>
      <trkpt lat="44.896672" lon="5.068180">
        <ele>307.571338</ele>
        <time>2021-07-04T08:56:21.150Z</time>
      </trkpt>
      <trkpt lat="44.894917" lon="5.068510">
        <ele>311.236341</ele>
        <time>2021-07-04T08:57:15.050Z</time>
      </trkpt>
      <trkpt lat="44.892518" lon="5.065167">
        <ele>319.808264</ele>
        <time>2021-07-04T08:59:05.955Z</time>
      </trkpt>
      <trkpt lat="44.892467" lon="5.065124">
        <ele>319.976674</ele>
        <time>2021-07-04T08:59:08.257Z</time>
      </trkpt>
      <trkpt lat="44.892109" lon="5.064702">
        <ele>321.298925</ele>
        <time>2021-07-04T08:59:25.553Z</time>
      </trkpt>
      <trkpt lat="44.891587" lon="5.063838">
        <ele>324.682862</ele>
        <time>2021-07-04T08:59:57.344Z</time>
      </trkpt>
      <trkpt lat="44.891377" lon="5.063249">
        <ele>326.655826</ele>
        <time>2021-07-04T09:00:16.656Z</time>
      </trkpt>
      <trkpt lat="44.891269" lon="5.062456">
        <ele>329.019743</ele>
        <time>2021-07-04T09:00:40.717Z</time>
      </trkpt>
      <trkpt lat="44.891077" lon="5.061978">
        <ele>330.085258</ele>
        <time>2021-07-04T09:00:56.547Z</time>
      </trkpt>
      <trkpt lat="44.890800" lon="5.061049">
        <ele>332.039755</ele>
        <time>2021-07-04T09:01:23.472Z</time>
      </trkpt>
      <trkpt lat="44.890631" lon="5.060106">
        <ele>333.769220</ele>
        <time>2021-07-04T09:01:42.991Z</time>
      </trkpt>
      <trkpt lat="44.890356" lon="5.059383">
        <ele>332.218795</ele>
        <time>2021-07-04T09:01:54.999Z</time>
      </trkpt>
      <trkpt lat="44.890270" lon="5.059231">
        <ele>331.851270</ele>
        <time>2021-07-04T09:01:57.664Z</time>
      </trkpt>
      <trkpt lat="44.890076" lon="5.058870">
        <ele>330.995187</ele>
        <time>2021-07-04T09:02:03.325Z</time>
      </trkpt>
      <trkpt lat="44.889076" lon="5.058424">
        <ele>326.546743</ele>
        <time>2021-07-04T09:02:20.164Z</time>
      </trkpt>
      <trkpt lat="44.888927" lon="5.058430">
        <ele>325.378141</ele>
        <time>2021-07-04T09:02:22.313Z</time>
      </trkpt>
      <trkpt lat="44.888453" lon="5.058664">
        <ele>321.441354</ele>
        <time>2021-07-04T09:02:29.638Z</time>
      </trkpt>
      <trkpt lat="44.887854" lon="5.059248">
        <ele>315.733940</ele>
        <time>2021-07-04T09:02:40.209Z</time>
      </trkpt>
      <trkpt lat="44.887731" lon="5.059304">
        <ele>314.676997</ele>
        <time>2021-07-04T09:02:42.064Z</time>
      </trkpt>
      <trkpt lat="44.887593" lon="5.059325">
        <ele>313.380309</ele>
        <time>2021-07-04T09:02:44.023Z</time>
      </trkpt>
      <trkpt lat="44.887162" lon="5.059195">
        <ele>309.262926</ele>
        <time>2021-07-04T09:02:50.431Z</time>
      </trkpt>
      <trkpt lat="44.886399" lon="5.059182">
        <ele>302.134341</ele>
        <time>2021-07-04T09:03:01.261Z</time>
      </trkpt>
      <trkpt lat="44.885606" lon="5.058922">
        <ele>295.763072</ele>
        <time>2021-07-04T09:03:13.075Z</time>
      </trkpt>
      <trkpt lat="44.885403" lon="5.058899">
        <ele>294.509784</ele>
        <time>2021-07-04T09:03:16.066Z</time>
      </trkpt>
      <trkpt lat="44.885203" lon="5.058926">
        <ele>293.273360</ele>
        <time>2021-07-04T09:03:19.079Z</time>
      </trkpt>
      <trkpt lat="44.885069" lon="5.058894">
        <ele>292.436999</ele>
        <time>2021-07-04T09:03:21.132Z</time>
      </trkpt>
      <trkpt lat="44.884618" lon="5.058583">
        <ele>289.347970</ele>
        <time>2021-07-04T09:03:28.943Z</time>
      </trkpt>
      <trkpt lat="44.884550" lon="5.058584">
        <ele>288.929473</ele>
        <time>2021-07-04T09:03:29.941Z</time>
      </trkpt>
      <trkpt lat="44.884450" lon="5.058653">
        <ele>288.244462</ele>
        <time>2021-07-04T09:03:31.684Z</time>
      </trkpt>
      <trkpt lat="44.884436" lon="5.058783">
        <ele>287.671110</ele>
        <time>2021-07-04T09:03:33.746Z</time>
      </trkpt>
      <trkpt lat="44.883894" lon="5.060034">
        <ele>287.105479</ele>
        <time>2021-07-04T09:03:54.005Z</time>
      </trkpt>
      <trkpt lat="44.883712" lon="5.060407">
        <ele>287.115254</ele>
        <time>2021-07-04T09:04:01.923Z</time>
      </trkpt>
      <trkpt lat="44.883662" lon="5.060494">
        <ele>287.117671</ele>
        <time>2021-07-04T09:04:05.538Z</time>
      </trkpt>
      <trkpt lat="44.883373" lon="5.061187">
        <ele>287.493334</ele>
        <time>2021-07-04T09:04:24.617Z</time>
      </trkpt>
      <trkpt lat="44.883312" lon="5.061770">
        <ele>288.821313</ele>
        <time>2021-07-04T09:04:39.765Z</time>
      </trkpt>
      <trkpt lat="44.883210" lon="5.061861">
        <ele>289.205083</ele>
        <time>2021-07-04T09:04:45.498Z</time>
      </trkpt>
      <trkpt lat="44.881916" lon="5.060269">
        <ele>294.914129</ele>
        <time>2021-07-04T09:05:46.317Z</time>
      </trkpt>
      <trkpt lat="44.881191" lon="5.060005">
        <ele>297.623219</ele>
        <time>2021-07-04T09:06:13.974Z</time>
      </trkpt>
      <trkpt lat="44.880641" lon="5.059953">
        <ele>299.756496</ele>
        <time>2021-07-04T09:06:35.985Z</time>
      </trkpt>
      <trkpt lat="44.880324" lon="5.059756">
        <ele>301.683928</ele>
        <time>2021-07-04T09:06:50.512Z</time>
      </trkpt>
      <trkpt lat="44.879789" lon="5.059678">
        <ele>304.676837</ele>
        <time>2021-07-04T09:07:14.386Z</time>
      </trkpt>
      <trkpt lat="44.878469" lon="5.060048">
        <ele>312.665602</ele>
        <time>2021-07-04T09:08:20.357Z</time>
      </trkpt>
      <trkpt lat="44.877946" lon="5.060365">
        <ele>316.399125</ele>
        <time>2021-07-04T09:08:48.882Z</time>
      </trkpt>
      <trkpt lat="44.877283" lon="5.060657">
        <ele>320.954783</ele>
        <time>2021-07-04T09:09:23.997Z</time>
      </trkpt>
      <trkpt lat="44.877052" lon="5.060846">
        <ele>321.667955</ele>
        <time>2021-07-04T09:09:36.778Z</time>
      </trkpt>
      <trkpt lat="44.876852" lon="5.061137">
        <ele>322.281907</ele>
        <time>2021-07-04T09:09:49.830Z</time>
      </trkpt>
      <trkpt lat="44.876736" lon="5.061189">
        <ele>322.542031</ele>
        <time>2021-07-04T09:09:55.064Z</time>
      </trkpt>
      <trkpt lat="44.876541" lon="5.061112">
        <ele>322.974796</ele>
        <time>2021-07-04T09:10:03.402Z</time>
      </trkpt>
      <trkpt lat="44.876377" lon="5.060966">
        <ele>323.389217</ele>
        <time>2021-07-04T09:10:09.125Z</time>
      </trkpt>
      <trkpt lat="44.876183" lon="5.060477">
        <ele>324.237970</ele>
        <time>2021-07-04T09:10:18.399Z</time>
      </trkpt>
      <trkpt lat="44.875915" lon="5.060116">
        <ele>324.948806</ele>
        <time>2021-07-04T09:10:25.315Z</time>
      </trkpt>
      <trkpt lat="44.875647" lon="5.059721">
        <ele>322.347221</ele>
        <time>2021-07-04T09:10:31.820Z</time>
      </trkpt>
      <trkpt lat="44.875544" lon="5.059678">
        <ele>321.626121</ele>
        <time>2021-07-04T09:10:33.697Z</time>
      </trkpt>
      <trkpt lat="44.875430" lon="5.059683">
        <ele>320.860429</ele>
        <time>2021-07-04T09:10:35.563Z</time>
      </trkpt>
      <trkpt lat="44.875370" lon="5.059534">
        <ele>320.045128</ele>
        <time>2021-07-04T09:10:37.257Z</time>
      </trkpt>
      <trkpt lat="44.875167" lon="5.059420">
        <ele>318.578367</ele>
        <time>2021-07-04T09:10:40.580Z</time>
      </trkpt>
      <trkpt lat="44.874826" lon="5.059443">
        <ele>316.286500</ele>
        <time>2021-07-04T09:10:45.353Z</time>
      </trkpt>
      <trkpt lat="44.874808" lon="5.059295">
        <ele>315.572108</ele>
        <time>2021-07-04T09:10:46.796Z</time>
      </trkpt>
      <trkpt lat="44.874892" lon="5.058556">
        <ele>311.642333</ele>
        <time>2021-07-04T09:10:53.955Z</time>
      </trkpt>
      <trkpt lat="44.874855" lon="5.058285">
        <ele>309.804806</ele>
        <time>2021-07-04T09:10:56.531Z</time>
      </trkpt>
      <trkpt lat="44.874670" lon="5.057644">
        <ele>305.196582</ele>
        <time>2021-07-04T09:11:03.257Z</time>
      </trkpt>
      <trkpt lat="44.874662" lon="5.057149">
        <ele>301.899956</ele>
        <time>2021-07-04T09:11:08.091Z</time>
      </trkpt>
      <trkpt lat="44.874663" lon="5.056959">
        <ele>300.634879</ele>
        <time>2021-07-04T09:11:09.934Z</time>
      </trkpt>
      <trkpt lat="44.874653" lon="5.056851">
        <ele>299.909690</ele>
        <time>2021-07-04T09:11:10.974Z</time>
      </trkpt>
      <trkpt lat="44.874469" lon="5.056097">
        <ele>295.328941</ele>
        <time>2021-07-04T09:11:18.994Z</time>
      </trkpt>
      <trkpt lat="44.873950" lon="5.055154">
        <ele>291.413660</ele>
        <time>2021-07-04T09:11:31.166Z</time>
      </trkpt>
      <trkpt lat="44.873329" lon="5.054699">
        <ele>288.175856</ele>
        <time>2021-07-04T09:11:43.450Z</time>
      </trkpt>
      <trkpt lat="44.873071" lon="5.054464">
        <ele>287.914706</ele>
        <time>2021-07-04T09:11:49.663Z</time>
      </trkpt>
      <trkpt lat="44.872991" lon="5.054391">
        <ele>288.007299</ele>
        <time>2021-07-04T09:11:51.620Z</time>
      </trkpt>
      <trkpt lat="44.872895" lon="5.054304">
        <ele>288.118186</ele>
        <time>2021-07-04T09:11:53.953Z</time>
      </trkpt>
      <trkpt lat="44.872823" lon="5.054252">
        <ele>288.196796</ele>
        <time>2021-07-04T09:11:56.452Z</time>
      </trkpt>
      <trkpt lat="44.872619" lon="5.054169">
        <ele>288.403141</ele>
        <time>2021-07-04T09:12:01.383Z</time>
      </trkpt>
      <trkpt lat="44.872105" lon="5.054171">
        <ele>288.902700</ele>
        <time>2021-07-04T09:12:16.723Z</time>
      </trkpt>
      <trkpt lat="44.870961" lon="5.054344">
        <ele>290.164018</ele>
        <time>2021-07-04T09:12:51.572Z</time>
      </trkpt>
      <trkpt lat="44.870843" lon="5.054321">
        <ele>290.309405</ele>
        <time>2021-07-04T09:12:56.017Z</time>
      </trkpt>
      <trkpt lat="44.870761" lon="5.054276">
        <ele>290.416789</ele>
        <time>2021-07-04T09:12:57.688Z</time>
      </trkpt>
      <trkpt lat="44.870401" lon="5.053925">
        <ele>290.950861</ele>
        <time>2021-07-04T09:13:09.415Z</time>
      </trkpt>
      <trkpt lat="44.869890" lon="5.053234">
        <ele>291.651406</ele>
        <time>2021-07-04T09:13:26.699Z</time>
      </trkpt>
      <trkpt lat="44.869741" lon="5.053027">
        <ele>291.642784</ele>
        <time>2021-07-04T09:13:32.174Z</time>
      </trkpt>
      <trkpt lat="44.869553" lon="5.052803">
        <ele>291.632637</ele>
        <time>2021-07-04T09:13:36.655Z</time>
      </trkpt>
      <trkpt lat="44.869397" lon="5.052588">
        <ele>291.623645</ele>
        <time>2021-07-04T09:13:40.744Z</time>
      </trkpt>
      <trkpt lat="44.869245" lon="5.052253">
        <ele>291.612021</ele>
        <time>2021-07-04T09:13:46.104Z</time>
      </trkpt>
      <trkpt lat="44.869267" lon="5.052018">
        <ele>291.605093</ele>
        <time>2021-07-04T09:13:49.475Z</time>
      </trkpt>
      <trkpt lat="44.869328" lon="5.051893">
        <ele>291.600658</ele>
        <time>2021-07-04T09:13:53.055Z</time>
      </trkpt>
      <trkpt lat="44.869384" lon="5.051806">
        <ele>291.597223</ele>
        <time>2021-07-04T09:13:54.530Z</time>
      </trkpt>
      <trkpt lat="44.869651" lon="5.051505">
        <ele>291.583131</ele>
        <time>2021-07-04T09:14:03.489Z</time>
      </trkpt>
      <trkpt lat="44.869739" lon="5.051334">
        <ele>291.822754</ele>
        <time>2021-07-04T09:14:06.796Z</time>
      </trkpt>
      <trkpt lat="44.869681" lon="5.050542">
        <ele>292.817190</ele>
        <time>2021-07-04T09:14:23.664Z</time>
      </trkpt>
      <trkpt lat="44.869624" lon="5.050314">
        <ele>293.119149</ele>
        <time>2021-07-04T09:14:27.773Z</time>
      </trkpt>
      <trkpt lat="44.869567" lon="5.050354">
        <ele>293.231336</ele>
        <time>2021-07-04T09:14:31.020Z</time>
      </trkpt>
      <trkpt lat="44.868926" lon="5.050463">
        <ele>294.369132</ele>
        <time>2021-07-04T09:14:50.455Z</time>
      </trkpt>
      <trkpt lat="44.868567" lon="5.050832">
        <ele>294.832791</ele>
        <time>2021-07-04T09:15:04.908Z</time>
      </trkpt>
      <trkpt lat="44.868207" lon="5.051105">
        <ele>294.977900</ele>
        <time>2021-07-04T09:15:16.284Z</time>
      </trkpt>
      <trkpt lat="44.867853" lon="5.051192">
        <ele>295.105480</ele>
        <time>2021-07-04T09:15:24.900Z</time>
      </trkpt>
      <trkpt lat="44.867750" lon="5.051173">
        <ele>295.142361</ele>
        <time>2021-07-04T09:15:27.838Z</time>
      </trkpt>
      <trkpt lat="44.867655" lon="5.051155">
        <ele>295.176394</ele>
        <time>2021-07-04T09:15:29.675Z</time>
      </trkpt>
      <trkpt lat="44.867610" lon="5.051128">
        <ele>295.193755</ele>
        <time>2021-07-04T09:15:30.605Z</time>
      </trkpt>
      <trkpt lat="44.867021" lon="5.050773">
        <ele>295.223958</ele>
        <time>2021-07-04T09:15:43.121Z</time>
      </trkpt>
      <trkpt lat="44.866132" lon="5.050210">
        <ele>293.315476</ele>
        <time>2021-07-04T09:15:59.798Z</time>
      </trkpt>
      <trkpt lat="44.865154" lon="5.049850">
        <ele>291.626330</ele>
        <time>2021-07-04T09:16:17.485Z</time>
      </trkpt>
      <trkpt lat="44.864733" lon="5.049720">
        <ele>291.242791</ele>
        <time>2021-07-04T09:16:25.656Z</time>
      </trkpt>
      <trkpt lat="44.864458" lon="5.049626">
        <ele>290.990973</ele>
        <time>2021-07-04T09:16:31.152Z</time>
      </trkpt>
      <trkpt lat="44.863519" lon="5.049449">
        <ele>290.232029</ele>
        <time>2021-07-04T09:16:51.213Z</time>
      </trkpt>
      <trkpt lat="44.862966" lon="5.049435">
        <ele>290.086104</ele>
        <time>2021-07-04T09:17:03.639Z</time>
      </trkpt>
      <trkpt lat="44.862553" lon="5.049444">
        <ele>289.977127</ele>
        <time>2021-07-04T09:17:13.175Z</time>
      </trkpt>
      <trkpt lat="44.862043" lon="5.049341">
        <ele>289.841199</ele>
        <time>2021-07-04T09:17:23.767Z</time>
      </trkpt>
      <trkpt lat="44.861485" lon="5.048941">
        <ele>289.427489</ele>
        <time>2021-07-04T09:17:36.037Z</time>
      </trkpt>
      <trkpt lat="44.861212" lon="5.048654">
        <ele>289.146620</ele>
        <time>2021-07-04T09:17:42.645Z</time>
      </trkpt>
      <trkpt lat="44.860775" lon="5.048177">
        <ele>288.690803</ele>
        <time>2021-07-04T09:17:53.380Z</time>
      </trkpt>
      <trkpt lat="44.860636" lon="5.048077">
        <ele>288.562083</ele>
        <time>2021-07-04T09:17:56.461Z</time>
      </trkpt>
      <trkpt lat="44.860092" lon="5.047826">
        <ele>288.475327</ele>
        <time>2021-07-04T09:18:07.889Z</time>
      </trkpt>
      <trkpt lat="44.859946" lon="5.047785">
        <ele>288.568444</ele>
        <time>2021-07-04T09:18:10.902Z</time>
      </trkpt>
      <trkpt lat="44.859787" lon="5.047702">
        <ele>288.674492</ele>
        <time>2021-07-04T09:18:14.379Z</time>
      </trkpt>
      <trkpt lat="44.859640" lon="5.047587">
        <ele>288.779634</ele>
        <time>2021-07-04T09:18:17.845Z</time>
      </trkpt>
      <trkpt lat="44.859490" lon="5.047437">
        <ele>288.894642</ele>
        <time>2021-07-04T09:18:22.068Z</time>
      </trkpt>
      <trkpt lat="44.859341" lon="5.047243">
        <ele>289.021471</ele>
        <time>2021-07-04T09:18:27.259Z</time>
      </trkpt>
      <trkpt lat="44.858755" lon="5.046611">
        <ele>289.587259</ele>
        <time>2021-07-04T09:18:49.406Z</time>
      </trkpt>
      <trkpt lat="44.858352" lon="5.046276">
        <ele>290.507412</ele>
        <time>2021-07-04T09:19:04.306Z</time>
      </trkpt>
      <trkpt lat="44.858109" lon="5.046128">
        <ele>291.028077</ele>
        <time>2021-07-04T09:19:12.793Z</time>
      </trkpt>
      <trkpt lat="44.857644" lon="5.045814">
        <ele>292.042196</ele>
        <time>2021-07-04T09:19:28.210Z</time>
      </trkpt>
      <trkpt lat="44.857297" lon="5.045624">
        <ele>292.774412</ele>
        <time>2021-07-04T09:19:39.163Z</time>
      </trkpt>
      <trkpt lat="44.857166" lon="5.045575">
        <ele>293.018056</ele>
        <time>2021-07-04T09:19:43.888Z</time>
      </trkpt>
      <trkpt lat="44.857109" lon="5.045541">
        <ele>293.099060</ele>
        <time>2021-07-04T09:19:45.048Z</time>
      </trkpt>
      <trkpt lat="44.855769" lon="5.043706">
        <ele>295.791177</ele>
        <time>2021-07-04T09:20:35.004Z</time>
      </trkpt>
      <trkpt lat="44.855528" lon="5.042892">
        <ele>297.544656</ele>
        <time>2021-07-04T09:20:54.920Z</time>
      </trkpt>
      <trkpt lat="44.855472" lon="5.042518">
        <ele>298.304479</ele>
        <time>2021-07-04T09:21:05.030Z</time>
      </trkpt>
      <trkpt lat="44.855403" lon="5.042041">
        <ele>299.272179</ele>
        <time>2021-07-04T09:21:18.100Z</time>
      </trkpt>
      <trkpt lat="44.855300" lon="5.041329">
        <ele>300.400657</ele>
        <time>2021-07-04T09:21:36.876Z</time>
      </trkpt>
      <trkpt lat="44.855274" lon="5.040843">
        <ele>300.485891</ele>
        <time>2021-07-04T09:21:48.268Z</time>
      </trkpt>
      <trkpt lat="44.855269" lon="5.040638">
        <ele>300.521762</ele>
        <time>2021-07-04T09:21:52.953Z</time>
      </trkpt>
      <trkpt lat="44.855264" lon="5.040472">
        <ele>300.550819</ele>
        <time>2021-07-04T09:21:55.939Z</time>
      </trkpt>
      <trkpt lat="44.855255" lon="5.040352">
        <ele>300.571922</ele>
        <time>2021-07-04T09:21:58.599Z</time>
      </trkpt>
      <trkpt lat="44.855221" lon="5.039879">
        <ele>300.655064</ele>
        <time>2021-07-04T09:22:06.529Z</time>
      </trkpt>
      <trkpt lat="44.855154" lon="5.039602">
        <ele>300.706249</ele>
        <time>2021-07-04T09:22:10.655Z</time>
      </trkpt>
      <trkpt lat="44.855099" lon="5.039376">
        <ele>300.748036</ele>
        <time>2021-07-04T09:22:13.749Z</time>
      </trkpt>
      <trkpt lat="44.856088" lon="5.037864">
        <ele>295.424318</ele>
        <time>2021-07-04T09:22:36.505Z</time>
      </trkpt>
      <trkpt lat="44.856055" lon="5.037739">
        <ele>294.996590</ele>
        <time>2021-07-04T09:22:37.838Z</time>
      </trkpt>
      <trkpt lat="44.855895" lon="5.037636">
        <ele>294.201020</ele>
        <time>2021-07-04T09:22:40.435Z</time>
      </trkpt>
      <trkpt lat="44.855443" lon="5.037553">
        <ele>292.206439</ele>
        <time>2021-07-04T09:22:47.257Z</time>
      </trkpt>
      <trkpt lat="44.855074" lon="5.037660">
        <ele>290.715377</ele>
        <time>2021-07-04T09:22:52.836Z</time>
      </trkpt>
      <trkpt lat="44.854823" lon="5.037819">
        <ele>289.626331</ele>
        <time>2021-07-04T09:22:56.977Z</time>
      </trkpt>
      <trkpt lat="44.854649" lon="5.037965">
        <ele>288.825002</ele>
        <time>2021-07-04T09:23:00.152Z</time>
      </trkpt>
      <trkpt lat="44.854521" lon="5.037953">
        <ele>288.317252</ele>
        <time>2021-07-04T09:23:02.194Z</time>
      </trkpt>
      <trkpt lat="44.854038" lon="5.038017">
        <ele>286.397093</ele>
        <time>2021-07-04T09:23:10.787Z</time>
      </trkpt>
      <trkpt lat="44.853941" lon="5.037976">
        <ele>285.996296</ele>
        <time>2021-07-04T09:23:12.752Z</time>
      </trkpt>
      <trkpt lat="44.853909" lon="5.037983">
        <ele>285.868124</ele>
        <time>2021-07-04T09:23:13.204Z</time>
      </trkpt>
      <trkpt lat="44.853878" lon="5.037990">
        <ele>285.743863</ele>
        <time>2021-07-04T09:23:13.757Z</time>
      </trkpt>
      <trkpt lat="44.853768" lon="5.038080">
        <ele>285.519985</ele>
        <time>2021-07-04T09:23:16.213Z</time>
      </trkpt>
      <trkpt lat="44.853704" lon="5.038167">
        <ele>285.477390</ele>
        <time>2021-07-04T09:23:17.953Z</time>
      </trkpt>
      <trkpt lat="44.853128" lon="5.037319">
        <ele>285.078392</ele>
        <time>2021-07-04T09:23:33.468Z</time>
      </trkpt>
      <trkpt lat="44.852313" lon="5.036389">
        <ele>284.739057</ele>
        <time>2021-07-04T09:24:01.044Z</time>
      </trkpt>
      <trkpt lat="44.851986" lon="5.035734">
        <ele>284.835186</ele>
        <time>2021-07-04T09:24:16.374Z</time>
      </trkpt>
      <trkpt lat="44.851239" lon="5.034489">
        <ele>284.538224</ele>
        <time>2021-07-04T09:24:40.858Z</time>
      </trkpt>
      <trkpt lat="44.850992" lon="5.034098">
        <ele>283.567668</ele>
        <time>2021-07-04T09:24:47.382Z</time>
      </trkpt>
      <trkpt lat="44.850740" lon="5.033857">
        <ele>282.771779</ele>
        <time>2021-07-04T09:24:52.485Z</time>
      </trkpt>
      <trkpt lat="44.849828" lon="5.033191">
        <ele>280.106160</ele>
        <time>2021-07-04T09:25:08.911Z</time>
      </trkpt>
      <trkpt lat="44.849606" lon="5.031996">
        <ele>278.021968</ele>
        <time>2021-07-04T09:25:23.101Z</time>
      </trkpt>
      <trkpt lat="44.849381" lon="5.032093">
        <ele>277.462076</ele>
        <time>2021-07-04T09:25:27.028Z</time>
      </trkpt>
      <trkpt lat="44.848193" lon="5.033137">
        <ele>276.770448</ele>
        <time>2021-07-04T09:25:54.969Z</time>
      </trkpt>
      <trkpt lat="44.847897" lon="5.033655">
        <ele>277.217400</ele>
        <time>2021-07-04T09:26:08.824Z</time>
      </trkpt>
      <trkpt lat="44.847878" lon="5.034055">
        <ele>277.486723</ele>
        <time>2021-07-04T09:26:17.836Z</time>
      </trkpt>
      <trkpt lat="44.848090" lon="5.034644">
        <ele>278.394821</ele>
        <time>2021-07-04T09:26:33.632Z</time>
      </trkpt>
      <trkpt lat="44.848223" lon="5.035222">
        <ele>279.717267</ele>
        <time>2021-07-04T09:26:48.783Z</time>
      </trkpt>
      <trkpt lat="44.848162" lon="5.035357">
        <ele>280.065651</ele>
        <time>2021-07-04T09:26:52.820Z</time>
      </trkpt>
      <trkpt lat="44.848051" lon="5.035405">
        <ele>280.422020</ele>
        <time>2021-07-04T09:26:56.952Z</time>
      </trkpt>
      <trkpt lat="44.847968" lon="5.035373">
        <ele>280.686136</ele>
        <time>2021-07-04T09:27:00.052Z</time>
      </trkpt>
      <trkpt lat="44.847772" lon="5.035056">
        <ele>281.601486</ele>
        <time>2021-07-04T09:27:10.772Z</time>
      </trkpt>
      <trkpt lat="44.847505" lon="5.034938">
        <ele>282.460336</ele>
        <time>2021-07-04T09:27:20.826Z</time>
      </trkpt>
      <trkpt lat="44.846646" lon="5.034080">
        <ele>284.624999</ele>
        <time>2021-07-04T09:27:55.330Z</time>
      </trkpt>
      <trkpt lat="44.846246" lon="5.033929">
        <ele>285.342224</ele>
        <time>2021-07-04T09:28:07.103Z</time>
      </trkpt>
      <trkpt lat="44.846071" lon="5.033770">
        <ele>285.702788</ele>
        <time>2021-07-04T09:28:12.645Z</time>
      </trkpt>
      <trkpt lat="44.845908" lon="5.033922">
        <ele>286.041248</ele>
        <time>2021-07-04T09:28:17.737Z</time>
      </trkpt>
      <trkpt lat="44.844933" lon="5.035731">
        <ele>286.306740</ele>
        <time>2021-07-04T09:28:53.997Z</time>
      </trkpt>
      <trkpt lat="44.844790" lon="5.035891">
        <ele>286.299990</ele>
        <time>2021-07-04T09:28:57.689Z</time>
      </trkpt>
      <trkpt lat="44.844558" lon="5.035961">
        <ele>286.278955</ele>
        <time>2021-07-04T09:29:02.479Z</time>
      </trkpt>
      <trkpt lat="44.843780" lon="5.036012">
        <ele>286.053256</ele>
        <time>2021-07-04T09:29:18.229Z</time>
      </trkpt>
      <trkpt lat="44.843516" lon="5.036030">
        <ele>285.976663</ele>
        <time>2021-07-04T09:29:23.595Z</time>
      </trkpt>
      <trkpt lat="44.842115" lon="5.036095">
        <ele>286.719588</ele>
        <time>2021-07-04T09:29:55.256Z</time>
      </trkpt>
      <trkpt lat="44.841471" lon="5.036313">
        <ele>287.623081</ele>
        <time>2021-07-04T09:30:14.136Z</time>
      </trkpt>
      <trkpt lat="44.841272" lon="5.036441">
        <ele>287.921457</ele>
        <time>2021-07-04T09:30:20.951Z</time>
      </trkpt>
      <trkpt lat="44.840404" lon="5.037408">
        <ele>291.878769</ele>
        <time>2021-07-04T09:31:00.449Z</time>
      </trkpt>
      <trkpt lat="44.838571" lon="5.038471">
        <ele>301.311864</ele>
        <time>2021-07-04T09:32:24.909Z</time>
      </trkpt>
      <trkpt lat="44.837665" lon="5.039833">
        <ele>308.274352</ele>
        <time>2021-07-04T09:33:24.112Z</time>
      </trkpt>
      <trkpt lat="44.837240" lon="5.040673">
        <ele>312.088168</ele>
        <time>2021-07-04T09:33:55.666Z</time>
      </trkpt>
      <trkpt lat="44.837141" lon="5.040786">
        <ele>312.752001</ele>
        <time>2021-07-04T09:34:01.501Z</time>
      </trkpt>
      <trkpt lat="44.836874" lon="5.041172">
        <ele>314.714307</ele>
        <time>2021-07-04T09:34:16.909Z</time>
      </trkpt>
      <trkpt lat="44.836236" lon="5.042519">
        <ele>319.694733</ele>
        <time>2021-07-04T09:35:02.989Z</time>
      </trkpt>
      <trkpt lat="44.835889" lon="5.043067">
        <ele>321.953625</ele>
        <time>2021-07-04T09:35:23.547Z</time>
      </trkpt>
      <trkpt lat="44.835790" lon="5.043253">
        <ele>322.728931</ele>
        <time>2021-07-04T09:35:29.353Z</time>
      </trkpt>
      <trkpt lat="44.835733" lon="5.043333">
        <ele>323.145946</ele>
        <time>2021-07-04T09:35:31.837Z</time>
      </trkpt>
      <trkpt lat="44.835659" lon="5.043410">
        <ele>323.622826</ele>
        <time>2021-07-04T09:35:36.275Z</time>
      </trkpt>
      <trkpt lat="44.835613" lon="5.043441">
        <ele>323.887197</ele>
        <time>2021-07-04T09:35:37.844Z</time>
      </trkpt>
      <trkpt lat="44.835574" lon="5.043442">
        <ele>324.089464</ele>
        <time>2021-07-04T09:35:39.151Z</time>
      </trkpt>
      <trkpt lat="44.835402" lon="5.043370">
        <ele>325.019833</ele>
        <time>2021-07-04T09:35:45.193Z</time>
      </trkpt>
      <trkpt lat="44.835348" lon="5.043345">
        <ele>325.314553</ele>
        <time>2021-07-04T09:35:48.588Z</time>
      </trkpt>
      <trkpt lat="44.835282" lon="5.043272">
        <ele>325.749509</ele>
        <time>2021-07-04T09:35:50.934Z</time>
      </trkpt>
      <trkpt lat="44.835247" lon="5.043041">
        <ele>326.618118</ele>
        <time>2021-07-04T09:35:56.341Z</time>
      </trkpt>
      <trkpt lat="44.835325" lon="5.042666">
        <ele>328.055166</ele>
        <time>2021-07-04T09:36:09.771Z</time>
      </trkpt>
      <trkpt lat="44.835258" lon="5.042338">
        <ele>329.310333</ele>
        <time>2021-07-04T09:36:21.477Z</time>
      </trkpt>
      <trkpt lat="44.835306" lon="5.041880">
        <ele>331.012789</ele>
        <time>2021-07-04T09:36:36.228Z</time>
      </trkpt>
      <trkpt lat="44.835278" lon="5.041753">
        <ele>331.501845</ele>
        <time>2021-07-04T09:36:42.094Z</time>
      </trkpt>
      <trkpt lat="44.835095" lon="5.041524">
        <ele>333.179689</ele>
        <time>2021-07-04T09:36:52.862Z</time>
      </trkpt>
      <trkpt lat="44.834958" lon="5.041392">
        <ele>334.365298</ele>
        <time>2021-07-04T09:37:02.583Z</time>
      </trkpt>
      <trkpt lat="44.834853" lon="5.041330">
        <ele>335.178689</ele>
        <time>2021-07-04T09:37:07.019Z</time>
      </trkpt>
      <trkpt lat="44.834765" lon="5.041327">
        <ele>335.807671</ele>
        <time>2021-07-04T09:37:10.379Z</time>
      </trkpt>
      <trkpt lat="44.834712" lon="5.041357">
        <ele>336.215750</ele>
        <time>2021-07-04T09:37:16.093Z</time>
      </trkpt>
      <trkpt lat="44.834455" lon="5.041864">
        <ele>339.373645</ele>
        <time>2021-07-04T09:37:38.238Z</time>
      </trkpt>
      <trkpt lat="44.834331" lon="5.041931">
        <ele>340.322496</ele>
        <time>2021-07-04T09:37:44.141Z</time>
      </trkpt>
      <trkpt lat="44.832702" lon="5.041929">
        <ele>350.411700</ele>
        <time>2021-07-04T09:39:09.844Z</time>
      </trkpt>
      <trkpt lat="44.831723" lon="5.041845">
        <ele>354.486580</ele>
        <time>2021-07-04T09:39:45.573Z</time>
      </trkpt>
      <trkpt lat="44.831430" lon="5.041720">
        <ele>354.181014</ele>
        <time>2021-07-04T09:39:53.534Z</time>
      </trkpt>
      <trkpt lat="44.831123" lon="5.041619">
        <ele>353.866336</ele>
        <time>2021-07-04T09:40:00.196Z</time>
      </trkpt>
      <trkpt lat="44.830463" lon="5.041431">
        <ele>353.194214</ele>
        <time>2021-07-04T09:40:12.068Z</time>
      </trkpt>
      <trkpt lat="44.829684" lon="5.041264">
        <ele>350.000568</ele>
        <time>2021-07-04T09:40:23.963Z</time>
      </trkpt>
      <trkpt lat="44.829003" lon="5.040980">
        <ele>345.906058</ele>
        <time>2021-07-04T09:40:34.147Z</time>
      </trkpt>
      <trkpt lat="44.828521" lon="5.040734">
        <ele>342.950586</ele>
        <time>2021-07-04T09:40:41.600Z</time>
      </trkpt>
      <trkpt lat="44.828022" lon="5.040552">
        <ele>341.050595</ele>
        <time>2021-07-04T09:40:49.274Z</time>
      </trkpt>
      <trkpt lat="44.827246" lon="5.040581">
        <ele>338.446780</ele>
        <time>2021-07-04T09:41:01.472Z</time>
      </trkpt>
      <trkpt lat="44.826724" lon="5.040485">
        <ele>336.681028</ele>
        <time>2021-07-04T09:41:11.672Z</time>
      </trkpt>
      <trkpt lat="44.826317" lon="5.040501">
        <ele>336.183639</ele>
        <time>2021-07-04T09:41:20.624Z</time>
      </trkpt>
      <trkpt lat="44.825821" lon="5.040968">
        <ele>335.639188</ele>
        <time>2021-07-04T09:41:32.394Z</time>
      </trkpt>
      <trkpt lat="44.825706" lon="5.041029">
        <ele>335.527026</ele>
        <time>2021-07-04T09:41:36.167Z</time>
      </trkpt>
      <trkpt lat="44.825617" lon="5.040992">
        <ele>335.442324</ele>
        <time>2021-07-04T09:41:37.701Z</time>
      </trkpt>
      <trkpt lat="44.825405" lon="5.040899">
        <ele>335.239647</ele>
        <time>2021-07-04T09:41:42.329Z</time>
      </trkpt>
      <trkpt lat="44.824832" lon="5.040644">
        <ele>334.265059</ele>
        <time>2021-07-04T09:41:53.276Z</time>
      </trkpt>
      <trkpt lat="44.824407" lon="5.040436">
        <ele>332.856003</ele>
        <time>2021-07-04T09:42:01.125Z</time>
      </trkpt>
      <trkpt lat="44.824176" lon="5.040292">
        <ele>332.064924</ele>
        <time>2021-07-04T09:42:05.134Z</time>
      </trkpt>
      <trkpt lat="44.823766" lon="5.040037">
        <ele>330.661368</ele>
        <time>2021-07-04T09:42:12.208Z</time>
      </trkpt>
      <trkpt lat="44.823577" lon="5.039880">
        <ele>329.974294</ele>
        <time>2021-07-04T09:42:15.659Z</time>
      </trkpt>
      <trkpt lat="44.823049" lon="5.039498">
        <ele>328.145420</ele>
        <time>2021-07-04T09:42:24.906Z</time>
      </trkpt>
      <trkpt lat="44.822959" lon="5.039297">
        <ele>327.631487</ele>
        <time>2021-07-04T09:42:27.477Z</time>
      </trkpt>
      <trkpt lat="44.822832" lon="5.039379">
        <ele>327.205689</ele>
        <time>2021-07-04T09:42:29.709Z</time>
      </trkpt>
      <trkpt lat="44.822654" lon="5.039567">
        <ele>326.527728</ele>
        <time>2021-07-04T09:42:33.274Z</time>
      </trkpt>
      <trkpt lat="44.822392" lon="5.039800">
        <ele>325.583466</ele>
        <time>2021-07-04T09:42:38.385Z</time>
      </trkpt>
      <trkpt lat="44.822125" lon="5.040004">
        <ele>324.657743</ele>
        <time>2021-07-04T09:42:43.559Z</time>
      </trkpt>
      <trkpt lat="44.821791" lon="5.040423">
        <ele>323.953924</ele>
        <time>2021-07-04T09:42:51.576Z</time>
      </trkpt>
      <trkpt lat="44.821412" lon="5.041250">
        <ele>324.907005</ele>
        <time>2021-07-04T09:43:05.631Z</time>
      </trkpt>
      <trkpt lat="44.821152" lon="5.041658">
        <ele>325.437927</ele>
        <time>2021-07-04T09:43:15.482Z</time>
      </trkpt>
      <trkpt lat="44.820805" lon="5.041900">
        <ele>325.966251</ele>
        <time>2021-07-04T09:43:31.206Z</time>
      </trkpt>
      <trkpt lat="44.820566" lon="5.042097">
        <ele>326.696915</ele>
        <time>2021-07-04T09:43:44.452Z</time>
      </trkpt>
      <trkpt lat="44.820189" lon="5.042594">
        <ele>329.185072</ele>
        <time>2021-07-04T09:44:07.014Z</time>
      </trkpt>
      <trkpt lat="44.820078" lon="5.042803">
        <ele>330.077848</ele>
        <time>2021-07-04T09:44:16.800Z</time>
      </trkpt>
      <trkpt lat="44.820040" lon="5.042803">
        <ele>330.261032</ele>
        <time>2021-07-04T09:44:18.322Z</time>
      </trkpt>
      <trkpt lat="44.819935" lon="5.042781">
        <ele>330.772758</ele>
        <time>2021-07-04T09:44:22.632Z</time>
      </trkpt>
      <trkpt lat="44.819873" lon="5.042702">
        <ele>331.175623</ele>
        <time>2021-07-04T09:44:26.590Z</time>
      </trkpt>
      <trkpt lat="44.819839" lon="5.042608">
        <ele>331.536424</ele>
        <time>2021-07-04T09:44:30.912Z</time>
      </trkpt>
      <trkpt lat="44.819767" lon="5.042170">
        <ele>333.073816</ele>
        <time>2021-07-04T09:44:43.550Z</time>
      </trkpt>
      <trkpt lat="44.819683" lon="5.041971">
        <ele>333.865650</ele>
        <time>2021-07-04T09:44:49.160Z</time>
      </trkpt>
      <trkpt lat="44.819361" lon="5.041821">
        <ele>334.792493</ele>
        <time>2021-07-04T09:45:01.111Z</time>
      </trkpt>
      <trkpt lat="44.819215" lon="5.041663">
        <ele>334.674902</ele>
        <time>2021-07-04T09:45:07.315Z</time>
      </trkpt>
      <trkpt lat="44.819080" lon="5.041377">
        <ele>334.519216</ele>
        <time>2021-07-04T09:45:14.257Z</time>
      </trkpt>
      <trkpt lat="44.819061" lon="5.041209">
        <ele>334.442119</ele>
        <time>2021-07-04T09:45:18.218Z</time>
      </trkpt>
      <trkpt lat="44.819034" lon="5.041064">
        <ele>334.374180</ele>
        <time>2021-07-04T09:45:20.899Z</time>
      </trkpt>
      <trkpt lat="44.818884" lon="5.040840">
        <ele>334.234577</ele>
        <time>2021-07-04T09:45:25.162Z</time>
      </trkpt>
      <trkpt lat="44.818626" lon="5.040609">
        <ele>334.039309</ele>
        <time>2021-07-04T09:45:30.201Z</time>
      </trkpt>
      <trkpt lat="44.818295" lon="5.040369">
        <ele>333.801506</ele>
        <time>2021-07-04T09:45:36.187Z</time>
      </trkpt>
      <trkpt lat="44.817898" lon="5.040083">
        <ele>332.365851</ele>
        <time>2021-07-04T09:45:43.089Z</time>
      </trkpt>
      <trkpt lat="44.817050" lon="5.039567">
        <ele>328.534872</ele>
        <time>2021-07-04T09:45:57.021Z</time>
      </trkpt>
      <trkpt lat="44.816496" lon="5.039364">
        <ele>326.203394</ele>
        <time>2021-07-04T09:46:06.298Z</time>
      </trkpt>
      <trkpt lat="44.815988" lon="5.039217">
        <ele>324.926401</ele>
        <time>2021-07-04T09:46:14.945Z</time>
      </trkpt>
      <trkpt lat="44.815529" lon="5.039010">
        <ele>323.739720</ele>
        <time>2021-07-04T09:46:22.924Z</time>
      </trkpt>
      <trkpt lat="44.814770" lon="5.038662">
        <ele>321.845603</ele>
        <time>2021-07-04T09:46:36.853Z</time>
      </trkpt>
      <trkpt lat="44.814609" lon="5.038589">
        <ele>321.904119</ele>
        <time>2021-07-04T09:46:40.055Z</time>
      </trkpt>
      <trkpt lat="44.814328" lon="5.038444">
        <ele>322.007653</ele>
        <time>2021-07-04T09:46:46.006Z</time>
      </trkpt>
      <trkpt lat="44.814123" lon="5.038210">
        <ele>322.098920</ele>
        <time>2021-07-04T09:46:51.411Z</time>
      </trkpt>
      <trkpt lat="44.813795" lon="5.037897">
        <ele>322.235964</ele>
        <time>2021-07-04T09:47:01.939Z</time>
      </trkpt>
      <trkpt lat="44.812726" lon="5.037694">
        <ele>323.046038</ele>
        <time>2021-07-04T09:47:32.688Z</time>
      </trkpt>
      <trkpt lat="44.812476" lon="5.037619">
        <ele>323.391993</ele>
        <time>2021-07-04T09:47:40.998Z</time>
      </trkpt>
      <trkpt lat="44.811657" lon="5.037110">
        <ele>324.603475</ele>
        <time>2021-07-04T09:48:06.264Z</time>
      </trkpt>
      <trkpt lat="44.811487" lon="5.037020">
        <ele>324.849265</ele>
        <time>2021-07-04T09:48:11.321Z</time>
      </trkpt>
      <trkpt lat="44.811330" lon="5.037042">
        <ele>324.776576</ele>
        <time>2021-07-04T09:48:15.099Z</time>
      </trkpt>
      <trkpt lat="44.810226" lon="5.037316">
        <ele>323.726941</ele>
        <time>2021-07-04T09:48:36.785Z</time>
      </trkpt>
      <trkpt lat="44.809767" lon="5.037320">
        <ele>323.297147</ele>
        <time>2021-07-04T09:48:45.019Z</time>
      </trkpt>
      <trkpt lat="44.809408" lon="5.037373">
        <ele>322.642253</ele>
        <time>2021-07-04T09:48:51.420Z</time>
      </trkpt>
      <trkpt lat="44.808635" lon="5.037669">
        <ele>320.942600</ele>
        <time>2021-07-04T09:49:05.083Z</time>
      </trkpt>
      <trkpt lat="44.808405" lon="5.037712">
        <ele>320.450296</ele>
        <time>2021-07-04T09:49:08.992Z</time>
      </trkpt>
      <trkpt lat="44.808064" lon="5.037644">
        <ele>319.719534</ele>
        <time>2021-07-04T09:49:14.726Z</time>
      </trkpt>
      <trkpt lat="44.807311" lon="5.037635">
        <ele>319.456079</ele>
        <time>2021-07-04T09:49:29.150Z</time>
      </trkpt>
      <trkpt lat="44.807218" lon="5.037561">
        <ele>319.467328</ele>
        <time>2021-07-04T09:49:31.023Z</time>
      </trkpt>
      <trkpt lat="44.807209" lon="5.037492">
        <ele>319.472570</ele>
        <time>2021-07-04T09:49:32.224Z</time>
      </trkpt>
      <trkpt lat="44.807183" lon="5.037159">
        <ele>319.497605</ele>
        <time>2021-07-04T09:49:38.375Z</time>
      </trkpt>
      <trkpt lat="44.807160" lon="5.037113">
        <ele>319.501810</ele>
        <time>2021-07-04T09:49:39.040Z</time>
      </trkpt>
      <trkpt lat="44.807098" lon="5.037047">
        <ele>319.509993</ele>
        <time>2021-07-04T09:49:41.549Z</time>
      </trkpt>
      <trkpt lat="44.806992" lon="5.037004">
        <ele>319.521611</ele>
        <time>2021-07-04T09:49:44.607Z</time>
      </trkpt>
      <trkpt lat="44.806474" lon="5.036952">
        <ele>319.576309</ele>
        <time>2021-07-04T09:49:58.407Z</time>
      </trkpt>
      <trkpt lat="44.806426" lon="5.036941">
        <ele>319.581431</ele>
        <time>2021-07-04T09:49:59.924Z</time>
      </trkpt>
      <trkpt lat="44.806278" lon="5.036964">
        <ele>319.738989</ele>
        <time>2021-07-04T09:50:04.473Z</time>
      </trkpt>
      <trkpt lat="44.806164" lon="5.037043">
        <ele>319.881565</ele>
        <time>2021-07-04T09:50:08.270Z</time>
      </trkpt>
      <trkpt lat="44.805852" lon="5.037346">
        <ele>320.306811</ele>
        <time>2021-07-04T09:50:19.142Z</time>
      </trkpt>
      <trkpt lat="44.805776" lon="5.037370">
        <ele>320.394224</ele>
        <time>2021-07-04T09:50:22.026Z</time>
      </trkpt>
      <trkpt lat="44.805662" lon="5.037376">
        <ele>320.522260</ele>
        <time>2021-07-04T09:50:25.677Z</time>
      </trkpt>
      <trkpt lat="44.805311" lon="5.037300">
        <ele>320.920824</ele>
        <time>2021-07-04T09:50:36.402Z</time>
      </trkpt>
      <trkpt lat="44.804781" lon="5.037310">
        <ele>321.515719</ele>
        <time>2021-07-04T09:50:50.160Z</time>
      </trkpt>
      <trkpt lat="44.802175" lon="5.037115">
        <ele>317.471362</ele>
        <time>2021-07-04T09:51:38.663Z</time>
      </trkpt>
      <trkpt lat="44.800648" lon="5.036895">
        <ele>315.214530</ele>
        <time>2021-07-04T09:52:07.416Z</time>
      </trkpt>
      <trkpt lat="44.800463" lon="5.036869">
        <ele>315.071875</ele>
        <time>2021-07-04T09:52:11.150Z</time>
      </trkpt>
      <trkpt lat="44.798881" lon="5.036916">
        <ele>314.421515</ele>
        <time>2021-07-04T09:52:46.172Z</time>
      </trkpt>
      <trkpt lat="44.797965" lon="5.036945">
        <ele>314.890122</ele>
        <time>2021-07-04T09:53:09.885Z</time>
      </trkpt>
      <trkpt lat="44.797302" lon="5.036981">
        <ele>315.588577</ele>
        <time>2021-07-04T09:53:27.738Z</time>
      </trkpt>
      <trkpt lat="44.797036" lon="5.037021">
        <ele>316.158201</ele>
        <time>2021-07-04T09:53:35.267Z</time>
      </trkpt>
      <trkpt lat="44.796754" lon="5.037003">
        <ele>316.759295</ele>
        <time>2021-07-04T09:53:43.255Z</time>
      </trkpt>
      <trkpt lat="44.796135" lon="5.036958">
        <ele>318.079119</ele>
        <time>2021-07-04T09:54:03.664Z</time>
      </trkpt>
      <trkpt lat="44.795290" lon="5.036626">
        <ele>321.187148</ele>
        <time>2021-07-04T09:54:35.142Z</time>
      </trkpt>
      <trkpt lat="44.795155" lon="5.036644">
        <ele>321.833555</ele>
        <time>2021-07-04T09:54:41.051Z</time>
      </trkpt>
      <trkpt lat="44.794233" lon="5.036891">
        <ele>326.307366</ele>
        <time>2021-07-04T09:55:21.354Z</time>
      </trkpt>
      <trkpt lat="44.793710" lon="5.037606">
        <ele>330.890333</ele>
        <time>2021-07-04T09:55:57.602Z</time>
      </trkpt>
      <trkpt lat="44.793123" lon="5.038209">
        <ele>336.052124</ele>
        <time>2021-07-04T09:56:36.487Z</time>
      </trkpt>
      <trkpt lat="44.792398" lon="5.038705">
        <ele>341.472110</ele>
        <time>2021-07-04T09:57:19.323Z</time>
      </trkpt>
      <trkpt lat="44.792013" lon="5.039058">
        <ele>344.058607</ele>
        <time>2021-07-04T09:57:42.681Z</time>
      </trkpt>
      <trkpt lat="44.791585" lon="5.039282">
        <ele>346.629568</ele>
        <time>2021-07-04T09:58:03.634Z</time>
      </trkpt>
      <trkpt lat="44.791285" lon="5.039406">
        <ele>348.390063</ele>
        <time>2021-07-04T09:58:17.311Z</time>
      </trkpt>
      <trkpt lat="44.791039" lon="5.039511">
        <ele>349.837460</ele>
        <time>2021-07-04T09:58:28.119Z</time>
      </trkpt>
      <trkpt lat="44.790269" lon="5.039773">
        <ele>352.085739</ele>
        <time>2021-07-04T09:58:55.319Z</time>
      </trkpt>
      <trkpt lat="44.789683" lon="5.040086">
        <ele>353.596887</ele>
        <time>2021-07-04T09:59:12.724Z</time>
      </trkpt>
      <trkpt lat="44.789534" lon="5.040026">
        <ele>353.970558</ele>
        <time>2021-07-04T09:59:17.920Z</time>
      </trkpt>
      <trkpt lat="44.789358" lon="5.040224">
        <ele>354.513625</ele>
        <time>2021-07-04T09:59:23.982Z</time>
      </trkpt>
      <trkpt lat="44.789187" lon="5.040335">
        <ele>355.017593</ele>
        <time>2021-07-04T09:59:31.039Z</time>
      </trkpt>
      <trkpt lat="44.789002" lon="5.040464">
        <ele>355.638741</ele>
        <time>2021-07-04T09:59:37.065Z</time>
      </trkpt>
      <trkpt lat="44.788906" lon="5.040575">
        <ele>356.012442</ele>
        <time>2021-07-04T09:59:42.827Z</time>
      </trkpt>
      <trkpt lat="44.788796" lon="5.040708">
        <ele>356.448622</ele>
        <time>2021-07-04T09:59:47.389Z</time>
      </trkpt>
      <trkpt lat="44.788696" lon="5.040855">
        <ele>356.883496</ele>
        <time>2021-07-04T09:59:53.804Z</time>
      </trkpt>
      <trkpt lat="44.788588" lon="5.041161">
        <ele>357.613366</ele>
        <time>2021-07-04T10:00:02.464Z</time>
      </trkpt>
      <trkpt lat="44.788520" lon="5.041282">
        <ele>357.942991</ele>
        <time>2021-07-04T10:00:07.569Z</time>
      </trkpt>
      <trkpt lat="44.788406" lon="5.041664">
        <ele>358.828016</ele>
        <time>2021-07-04T10:00:17.862Z</time>
      </trkpt>
      <trkpt lat="44.788238" lon="5.041662">
        <ele>359.333585</ele>
        <time>2021-07-04T10:00:24.816Z</time>
      </trkpt>
      <trkpt lat="44.788059" lon="5.041661">
        <ele>359.872241</ele>
        <time>2021-07-04T10:00:29.578Z</time>
      </trkpt>
      <trkpt lat="44.787930" lon="5.041618">
        <ele>360.154229</ele>
        <time>2021-07-04T10:00:34.667Z</time>
      </trkpt>
      <trkpt lat="44.787876" lon="5.041575">
        <ele>360.105144</ele>
        <time>2021-07-04T10:00:36.447Z</time>
      </trkpt>
      <trkpt lat="44.787829" lon="5.041525">
        <ele>360.058540</ele>
        <time>2021-07-04T10:00:37.884Z</time>
      </trkpt>
      <trkpt lat="44.787771" lon="5.041444">
        <ele>359.993915</ele>
        <time>2021-07-04T10:00:40.034Z</time>
      </trkpt>
      <trkpt lat="44.787752" lon="5.041412">
        <ele>359.970483</ele>
        <time>2021-07-04T10:00:41.195Z</time>
      </trkpt>
      <trkpt lat="44.787630" lon="5.041174">
        <ele>359.805592</ele>
        <time>2021-07-04T10:00:48.164Z</time>
      </trkpt>
      <trkpt lat="44.787450" lon="5.040886">
        <ele>359.590059</ele>
        <time>2021-07-04T10:00:56.127Z</time>
      </trkpt>
      <trkpt lat="44.787191" lon="5.040463">
        <ele>359.276289</ele>
        <time>2021-07-04T10:01:05.055Z</time>
      </trkpt>
      <trkpt lat="44.786996" lon="5.040239">
        <ele>359.077189</ele>
        <time>2021-07-04T10:01:09.805Z</time>
      </trkpt>
      <trkpt lat="44.786905" lon="5.040170">
        <ele>358.995410</ele>
        <time>2021-07-04T10:01:11.593Z</time>
      </trkpt>
      <trkpt lat="44.785587" lon="5.039685">
        <ele>351.845833</ele>
        <time>2021-07-04T10:01:32.531Z</time>
      </trkpt>
      <trkpt lat="44.785226" lon="5.039369">
        <ele>349.072116</ele>
        <time>2021-07-04T10:01:38.818Z</time>
      </trkpt>
      <trkpt lat="44.784563" lon="5.038424">
        <ele>342.348484</ele>
        <time>2021-07-04T10:01:52.731Z</time>
      </trkpt>
      <trkpt lat="44.784118" lon="5.037619">
        <ele>336.966458</ele>
        <time>2021-07-04T10:02:03.534Z</time>
      </trkpt>
      <trkpt lat="44.783944" lon="5.037348">
        <ele>335.038915</ele>
        <time>2021-07-04T10:02:07.444Z</time>
      </trkpt>
      <trkpt lat="44.783798" lon="5.036990">
        <ele>332.926066</ele>
        <time>2021-07-04T10:02:11.862Z</time>
      </trkpt>
      <trkpt lat="44.783742" lon="5.036482">
        <ele>330.437955</ele>
        <time>2021-07-04T10:02:17.348Z</time>
      </trkpt>
      <trkpt lat="44.783656" lon="5.036233">
        <ele>329.097730</ele>
        <time>2021-07-04T10:02:20.279Z</time>
      </trkpt>
      <trkpt lat="44.783409" lon="5.035846">
        <ele>326.578812</ele>
        <time>2021-07-04T10:02:25.839Z</time>
      </trkpt>
      <trkpt lat="44.783212" lon="5.035740">
        <ele>325.140863</ele>
        <time>2021-07-04T10:02:29.051Z</time>
      </trkpt>
      <trkpt lat="44.782612" lon="5.035482">
        <ele>320.914280</ele>
        <time>2021-07-04T10:02:38.605Z</time>
      </trkpt>
      <trkpt lat="44.782240" lon="5.035332">
        <ele>318.533978</ele>
        <time>2021-07-04T10:02:44.394Z</time>
      </trkpt>
      <trkpt lat="44.781870" lon="5.035065">
        <ele>315.976661</ele>
        <time>2021-07-04T10:02:50.677Z</time>
      </trkpt>
      <trkpt lat="44.781458" lon="5.034669">
        <ele>312.908528</ele>
        <time>2021-07-04T10:02:58.305Z</time>
      </trkpt>
      <trkpt lat="44.781293" lon="5.034592">
        <ele>311.839268</ele>
        <time>2021-07-04T10:03:00.946Z</time>
      </trkpt>
      <trkpt lat="44.781099" lon="5.034479">
        <ele>310.547868</ele>
        <time>2021-07-04T10:03:04.260Z</time>
      </trkpt>
      <trkpt lat="44.780516" lon="5.033698">
        <ele>307.530282</ele>
        <time>2021-07-04T10:03:17.303Z</time>
      </trkpt>
      <trkpt lat="44.780240" lon="5.033631">
        <ele>306.512175</ele>
        <time>2021-07-04T10:03:22.030Z</time>
      </trkpt>
      <trkpt lat="44.780033" lon="5.033659">
        <ele>305.756223</ele>
        <time>2021-07-04T10:03:25.523Z</time>
      </trkpt>
      <trkpt lat="44.779738" lon="5.033690">
        <ele>304.680852</ele>
        <time>2021-07-04T10:03:30.733Z</time>
      </trkpt>
      <trkpt lat="44.779401" lon="5.033764">
        <ele>303.649085</ele>
        <time>2021-07-04T10:03:37.038Z</time>
      </trkpt>
      <trkpt lat="44.778961" lon="5.034011">
        <ele>302.978477</ele>
        <time>2021-07-04T10:03:45.829Z</time>
      </trkpt>
      <trkpt lat="44.778729" lon="5.034071">
        <ele>302.644512</ele>
        <time>2021-07-04T10:03:50.128Z</time>
      </trkpt>
      <trkpt lat="44.778559" lon="5.034090">
        <ele>302.403063</ele>
        <time>2021-07-04T10:03:53.377Z</time>
      </trkpt>
      <trkpt lat="44.778410" lon="5.034139">
        <ele>302.186430</ele>
        <time>2021-07-04T10:03:56.184Z</time>
      </trkpt>
      <trkpt lat="44.778040" lon="5.034435">
        <ele>301.583993</ele>
        <time>2021-07-04T10:04:05.205Z</time>
      </trkpt>
      <trkpt lat="44.777747" lon="5.034658">
        <ele>301.264778</ele>
        <time>2021-07-04T10:04:12.433Z</time>
      </trkpt>
      <trkpt lat="44.777438" lon="5.034833">
        <ele>301.378239</ele>
        <time>2021-07-04T10:04:20.103Z</time>
      </trkpt>
      <trkpt lat="44.777343" lon="5.034896">
        <ele>301.414011</ele>
        <time>2021-07-04T10:04:22.583Z</time>
      </trkpt>
      <trkpt lat="44.777134" lon="5.035006">
        <ele>301.490022</ele>
        <time>2021-07-04T10:04:27.526Z</time>
      </trkpt>
      <trkpt lat="44.776929" lon="5.035094">
        <ele>301.563033</ele>
        <time>2021-07-04T10:04:32.733Z</time>
      </trkpt>
      <trkpt lat="44.776514" lon="5.035168">
        <ele>301.705546</ele>
        <time>2021-07-04T10:04:43.133Z</time>
      </trkpt>
      <trkpt lat="44.776303" lon="5.035133">
        <ele>301.777928</ele>
        <time>2021-07-04T10:04:48.536Z</time>
      </trkpt>
      <trkpt lat="44.776083" lon="5.035071">
        <ele>301.874165</ele>
        <time>2021-07-04T10:04:54.790Z</time>
      </trkpt>
      <trkpt lat="44.775596" lon="5.034774">
        <ele>302.618706</ele>
        <time>2021-07-04T10:05:10.294Z</time>
      </trkpt>
      <trkpt lat="44.775304" lon="5.034556">
        <ele>303.082360</ele>
        <time>2021-07-04T10:05:21.122Z</time>
      </trkpt>
      <trkpt lat="44.774891" lon="5.034495">
        <ele>303.664976</ele>
        <time>2021-07-04T10:05:34.338Z</time>
      </trkpt>
      <trkpt lat="44.774529" lon="5.034544">
        <ele>304.175201</ele>
        <time>2021-07-04T10:05:44.806Z</time>
      </trkpt>
      <trkpt lat="44.774073" lon="5.034726">
        <ele>303.949029</ele>
        <time>2021-07-04T10:05:55.699Z</time>
      </trkpt>
      <trkpt lat="44.773839" lon="5.034739">
        <ele>303.652832</ele>
        <time>2021-07-04T10:06:01.462Z</time>
      </trkpt>
      <trkpt lat="44.773560" lon="5.034658">
        <ele>303.292532</ele>
        <time>2021-07-04T10:06:07.375Z</time>
      </trkpt>
      <trkpt lat="44.773488" lon="5.034631">
        <ele>303.198294</ele>
        <time>2021-07-04T10:06:08.760Z</time>
      </trkpt>
      <trkpt lat="44.773301" lon="5.034586">
        <ele>302.958347</ele>
        <time>2021-07-04T10:06:12.284Z</time>
      </trkpt>
      <trkpt lat="44.773201" lon="5.034599">
        <ele>302.831328</ele>
        <time>2021-07-04T10:06:14.155Z</time>
      </trkpt>
      <trkpt lat="44.772869" lon="5.034375">
        <ele>302.365727</ele>
        <time>2021-07-04T10:06:20.782Z</time>
      </trkpt>
      <trkpt lat="44.772461" lon="5.034335">
        <ele>301.321307</ele>
        <time>2021-07-04T10:06:27.895Z</time>
      </trkpt>
      <trkpt lat="44.772227" lon="5.034386">
        <ele>300.385577</ele>
        <time>2021-07-04T10:06:31.843Z</time>
      </trkpt>
      <trkpt lat="44.772054" lon="5.034429">
        <ele>299.691351</ele>
        <time>2021-07-04T10:06:34.622Z</time>
      </trkpt>
      <trkpt lat="44.771835" lon="5.034472">
        <ele>298.817535</ele>
        <time>2021-07-04T10:06:38.230Z</time>
      </trkpt>
      <trkpt lat="44.771515" lon="5.034469">
        <ele>297.552924</ele>
        <time>2021-07-04T10:06:43.315Z</time>
      </trkpt>
      <trkpt lat="44.770410" lon="5.034243">
        <ele>292.871387</ele>
        <time>2021-07-04T10:07:01.676Z</time>
      </trkpt>
      <trkpt lat="44.770181" lon="5.034187">
        <ele>291.819211</ele>
        <time>2021-07-04T10:07:05.642Z</time>
      </trkpt>
      <trkpt lat="44.769946" lon="5.034112">
        <ele>290.728415</ele>
        <time>2021-07-04T10:07:09.707Z</time>
      </trkpt>
      <trkpt lat="44.769396" lon="5.033654">
        <ele>287.836040</ele>
        <time>2021-07-04T10:07:19.994Z</time>
      </trkpt>
      <trkpt lat="44.768877" lon="5.033338">
        <ele>284.343750</ele>
        <time>2021-07-04T10:07:28.606Z</time>
      </trkpt>
      <trkpt lat="44.768397" lon="5.032922">
        <ele>280.276614</ele>
        <time>2021-07-04T10:07:37.002Z</time>
      </trkpt>
      <trkpt lat="44.768312" lon="5.032947">
        <ele>279.649976</ele>
        <time>2021-07-04T10:07:38.265Z</time>
      </trkpt>
      <trkpt lat="44.767867" lon="5.032975">
        <ele>276.435405</ele>
        <time>2021-07-04T10:07:44.899Z</time>
      </trkpt>
      <trkpt lat="44.767785" lon="5.032776">
        <ele>275.256542</ele>
        <time>2021-07-04T10:07:47.289Z</time>
      </trkpt>
      <trkpt lat="44.767545" lon="5.032763">
        <ele>273.567664</ele>
        <time>2021-07-04T10:07:50.804Z</time>
      </trkpt>
      <trkpt lat="44.767319" lon="5.032769">
        <ele>272.147478</ele>
        <time>2021-07-04T10:07:54.107Z</time>
      </trkpt>
      <trkpt lat="44.767235" lon="5.032737">
        <ele>271.600752</ele>
        <time>2021-07-04T10:07:55.386Z</time>
      </trkpt>
      <trkpt lat="44.766787" lon="5.032412">
        <ele>268.434609</ele>
        <time>2021-07-04T10:08:02.868Z</time>
      </trkpt>
      <trkpt lat="44.766676" lon="5.032222">
        <ele>267.337026</ele>
        <time>2021-07-04T10:08:05.638Z</time>
      </trkpt>
      <trkpt lat="44.766640" lon="5.032082">
        <ele>266.672825</ele>
        <time>2021-07-04T10:08:07.217Z</time>
      </trkpt>
      <trkpt lat="44.766564" lon="5.031987">
        <ele>266.034399</ele>
        <time>2021-07-04T10:08:08.689Z</time>
      </trkpt>
      <trkpt lat="44.766486" lon="5.031858">
        <ele>265.278561</ele>
        <time>2021-07-04T10:08:10.567Z</time>
      </trkpt>
      <trkpt lat="44.766410" lon="5.031649">
        <ele>264.231096</ele>
        <time>2021-07-04T10:08:13.063Z</time>
      </trkpt>
      <trkpt lat="44.766336" lon="5.031347">
        <ele>262.805974</ele>
        <time>2021-07-04T10:08:16.571Z</time>
      </trkpt>
      <trkpt lat="44.766307" lon="5.030965">
        <ele>261.705656</ele>
        <time>2021-07-04T10:08:20.897Z</time>
      </trkpt>
      <trkpt lat="44.766311" lon="5.030139">
        <ele>259.555038</ele>
        <time>2021-07-04T10:08:30.409Z</time>
      </trkpt>
      <trkpt lat="44.766309" lon="5.029911">
        <ele>258.961374</ele>
        <time>2021-07-04T10:08:33.006Z</time>
      </trkpt>
      <trkpt lat="44.766220" lon="5.029785">
        <ele>258.498623</ele>
        <time>2021-07-04T10:08:35.101Z</time>
      </trkpt>
      <trkpt lat="44.766109" lon="5.029685">
        <ele>258.015429</ele>
        <time>2021-07-04T10:08:37.140Z</time>
      </trkpt>
      <trkpt lat="44.765761" lon="5.028999">
        <ele>255.816017</ele>
        <time>2021-07-04T10:08:46.949Z</time>
      </trkpt>
      <trkpt lat="44.765686" lon="5.028763">
        <ele>255.123575</ele>
        <time>2021-07-04T10:08:49.755Z</time>
      </trkpt>
      <trkpt lat="44.765662" lon="5.028472">
        <ele>254.339023</ele>
        <time>2021-07-04T10:08:53.149Z</time>
      </trkpt>
      <trkpt lat="44.765649" lon="5.027840">
        <ele>252.645789</ele>
        <time>2021-07-04T10:09:00.136Z</time>
      </trkpt>
      <trkpt lat="44.765632" lon="5.026928">
        <ele>250.202569</ele>
        <time>2021-07-04T10:09:10.400Z</time>
      </trkpt>
      <trkpt lat="44.765477" lon="5.026833">
        <ele>249.564963</ele>
        <time>2021-07-04T10:09:13.131Z</time>
      </trkpt>
      <trkpt lat="44.764704" lon="5.025929">
        <ele>247.092090</ele>
        <time>2021-07-04T10:09:30.364Z</time>
      </trkpt>
      <trkpt lat="44.764298" lon="5.025560">
        <ele>245.973329</ele>
        <time>2021-07-04T10:09:39.294Z</time>
      </trkpt>
      <trkpt lat="44.763354" lon="5.025024">
        <ele>244.750696</ele>
        <time>2021-07-04T10:10:00.522Z</time>
      </trkpt>
      <trkpt lat="44.762765" lon="5.024969">
        <ele>244.487675</ele>
        <time>2021-07-04T10:10:13.947Z</time>
      </trkpt>
      <trkpt lat="44.762542" lon="5.024877">
        <ele>244.384136</ele>
        <time>2021-07-04T10:10:19.214Z</time>
      </trkpt>
      <trkpt lat="44.762332" lon="5.024637">
        <ele>244.263633</ele>
        <time>2021-07-04T10:10:25.160Z</time>
      </trkpt>
      <trkpt lat="44.762083" lon="5.024175">
        <ele>244.101981</ele>
        <time>2021-07-04T10:10:34.184Z</time>
      </trkpt>
      <trkpt lat="44.761808" lon="5.023862">
        <ele>243.969137</ele>
        <time>2021-07-04T10:10:41.772Z</time>
      </trkpt>
      <trkpt lat="44.761569" lon="5.023654">
        <ele>243.863580</ele>
        <time>2021-07-04T10:10:47.646Z</time>
      </trkpt>
      <trkpt lat="44.760196" lon="5.022459">
        <ele>243.686745</ele>
        <time>2021-07-04T10:11:23.306Z</time>
      </trkpt>
      <trkpt lat="44.759843" lon="5.022035">
        <ele>243.773746</ele>
        <time>2021-07-04T10:11:36.265Z</time>
      </trkpt>
      <trkpt lat="44.759581" lon="5.021555">
        <ele>243.854360</ele>
        <time>2021-07-04T10:11:47.701Z</time>
      </trkpt>
      <trkpt lat="44.759017" lon="5.020245">
        <ele>241.813451</ele>
        <time>2021-07-04T10:12:10.880Z</time>
      </trkpt>
      <trkpt lat="44.758559" lon="5.019267">
        <ele>239.994770</ele>
        <time>2021-07-04T10:12:24.859Z</time>
      </trkpt>
      <trkpt lat="44.758152" lon="5.018602">
        <ele>236.511710</ele>
        <time>2021-07-04T10:12:34.467Z</time>
      </trkpt>
      <trkpt lat="44.757628" lon="5.018104">
        <ele>232.904625</ele>
        <time>2021-07-04T10:12:43.985Z</time>
      </trkpt>
      <trkpt lat="44.757235" lon="5.017218">
        <ele>229.058541</ele>
        <time>2021-07-04T10:12:55.597Z</time>
      </trkpt>
      <trkpt lat="44.757273" lon="5.017087">
        <ele>228.703821</ele>
        <time>2021-07-04T10:12:57.138Z</time>
      </trkpt>
      <trkpt lat="44.756518" lon="5.016533">
        <ele>225.698510</ele>
        <time>2021-07-04T10:13:10.848Z</time>
      </trkpt>
      <trkpt lat="44.755707" lon="5.016233">
        <ele>222.883950</ele>
        <time>2021-07-04T10:13:25.190Z</time>
      </trkpt>
      <trkpt lat="44.755134" lon="5.016102">
        <ele>221.333250</ele>
        <time>2021-07-04T10:13:35.128Z</time>
      </trkpt>
      <trkpt lat="44.754824" lon="5.016042">
        <ele>220.497360</ele>
        <time>2021-07-04T10:13:40.235Z</time>
      </trkpt>
      <trkpt lat="44.753391" lon="5.015778">
        <ele>217.233978</ele>
        <time>2021-07-04T10:14:04.289Z</time>
      </trkpt>
      <trkpt lat="44.751628" lon="5.015482">
        <ele>215.871024</ele>
        <time>2021-07-04T10:14:37.942Z</time>
      </trkpt>
      <trkpt lat="44.751209" lon="5.015349">
        <ele>216.265210</ele>
        <time>2021-07-04T10:14:49.300Z</time>
      </trkpt>
      <trkpt lat="44.750748" lon="5.015044">
        <ele>216.732667</ele>
        <time>2021-07-04T10:15:05.954Z</time>
      </trkpt>
      <trkpt lat="44.750519" lon="5.014779">
        <ele>217.348662</ele>
        <time>2021-07-04T10:15:16.107Z</time>
      </trkpt>
      <trkpt lat="44.750224" lon="5.014438">
        <ele>218.767646</ele>
        <time>2021-07-04T10:15:29.752Z</time>
      </trkpt>
      <trkpt lat="44.749880" lon="5.014017">
        <ele>220.462135</ele>
        <time>2021-07-04T10:15:46.652Z</time>
      </trkpt>
      <trkpt lat="44.749820" lon="5.014121">
        <ele>220.815920</ele>
        <time>2021-07-04T10:15:51.106Z</time>
      </trkpt>
      <trkpt lat="44.748601" lon="5.016128">
        <ele>227.419343</ele>
        <time>2021-07-04T10:17:04.043Z</time>
      </trkpt>
      <trkpt lat="44.748398" lon="5.016557">
        <ele>228.661019</ele>
        <time>2021-07-04T10:17:16.754Z</time>
      </trkpt>
      <trkpt lat="44.748190" lon="5.016879">
        <ele>229.699371</ele>
        <time>2021-07-04T10:17:26.814Z</time>
      </trkpt>
      <trkpt lat="44.747907" lon="5.017163">
        <ele>230.486058</ele>
        <time>2021-07-04T10:17:37.845Z</time>
      </trkpt>
      <trkpt lat="44.747763" lon="5.017193">
        <ele>230.815581</ele>
        <time>2021-07-04T10:17:42.552Z</time>
      </trkpt>
      <trkpt lat="44.747701" lon="5.017206">
        <ele>230.957478</ele>
        <time>2021-07-04T10:17:44.999Z</time>
      </trkpt>
      <trkpt lat="44.747347" lon="5.017206">
        <ele>231.758829</ele>
        <time>2021-07-04T10:17:55.760Z</time>
      </trkpt>
      <trkpt lat="44.747241" lon="5.017292">
        <ele>232.035766</ele>
        <time>2021-07-04T10:17:58.761Z</time>
      </trkpt>
      <trkpt lat="44.747119" lon="5.017474">
        <ele>232.438121</ele>
        <time>2021-07-04T10:18:04.404Z</time>
      </trkpt>
      <trkpt lat="44.747202" lon="5.017646">
        <ele>232.772441</ele>
        <time>2021-07-04T10:18:08.658Z</time>
      </trkpt>
      <trkpt lat="44.747222" lon="5.017909">
        <ele>233.197690</ele>
        <time>2021-07-04T10:18:14.478Z</time>
      </trkpt>
      <trkpt lat="44.747184" lon="5.018123">
        <ele>233.552334</ele>
        <time>2021-07-04T10:18:19.197Z</time>
      </trkpt>
      <trkpt lat="44.747007" lon="5.018606">
        <ele>235.159343</ele>
        <time>2021-07-04T10:18:33.625Z</time>
      </trkpt>
      <trkpt lat="44.746852" lon="5.020376">
        <ele>241.139223</ele>
        <time>2021-07-04T10:19:25.608Z</time>
      </trkpt>
      <trkpt lat="44.746845" lon="5.020553">
        <ele>241.733637</ele>
        <time>2021-07-04T10:19:31.795Z</time>
      </trkpt>
      <trkpt lat="44.746805" lon="5.020553">
        <ele>241.922483</ele>
        <time>2021-07-04T10:19:35.233Z</time>
      </trkpt>
      <trkpt lat="44.746154" lon="5.020617">
        <ele>247.152941</ele>
        <time>2021-07-04T10:20:09.326Z</time>
      </trkpt>
      <trkpt lat="44.743357" lon="5.021132">
        <ele>271.355736</ele>
        <time>2021-07-04T10:22:58.494Z</time>
      </trkpt>
      <trkpt lat="44.742896" lon="5.021256">
        <ele>274.189567</ele>
        <time>2021-07-04T10:23:23.076Z</time>
      </trkpt>
      <trkpt lat="44.742231" lon="5.021690">
        <ele>277.259111</ele>
        <time>2021-07-04T10:23:55.847Z</time>
      </trkpt>
      <trkpt lat="44.742045" lon="5.021917">
        <ele>278.289960</ele>
        <time>2021-07-04T10:24:04.386Z</time>
      </trkpt>
      <trkpt lat="44.741941" lon="5.022045">
        <ele>278.868449</ele>
        <time>2021-07-04T10:24:09.205Z</time>
      </trkpt>
      <trkpt lat="44.741719" lon="5.022329">
        <ele>280.124618</ele>
        <time>2021-07-04T10:24:17.666Z</time>
      </trkpt>
      <trkpt lat="44.741496" lon="5.022471">
        <ele>280.246309</ele>
        <time>2021-07-04T10:24:24.239Z</time>
      </trkpt>
      <trkpt lat="44.741369" lon="5.022140">
        <ele>279.653715</ele>
        <time>2021-07-04T10:24:30.218Z</time>
      </trkpt>
      <trkpt lat="44.740646" lon="5.020858">
        <ele>277.075190</ele>
        <time>2021-07-04T10:24:51.185Z</time>
      </trkpt>
      <trkpt lat="44.740289" lon="5.020012">
        <ele>273.260645</ele>
        <time>2021-07-04T10:25:01.983Z</time>
      </trkpt>
      <trkpt lat="44.739894" lon="5.019324">
        <ele>268.847807</ele>
        <time>2021-07-04T10:25:11.469Z</time>
      </trkpt>
      <trkpt lat="44.739814" lon="5.019017">
        <ele>267.216595</ele>
        <time>2021-07-04T10:25:14.902Z</time>
      </trkpt>
      <trkpt lat="44.739880" lon="5.018620">
        <ele>265.182720</ele>
        <time>2021-07-04T10:25:19.151Z</time>
      </trkpt>
      <trkpt lat="44.739831" lon="5.018328">
        <ele>263.569627</ele>
        <time>2021-07-04T10:25:22.248Z</time>
      </trkpt>
      <trkpt lat="44.739279" lon="5.017556">
        <ele>255.589645</ele>
        <time>2021-07-04T10:25:33.405Z</time>
      </trkpt>
      <trkpt lat="44.738531" lon="5.015701">
        <ele>239.609107</ele>
        <time>2021-07-04T10:25:54.760Z</time>
      </trkpt>
      <trkpt lat="44.737375" lon="5.015130">
        <ele>226.026165</ele>
        <time>2021-07-04T10:26:12.029Z</time>
      </trkpt>
      <trkpt lat="44.736861" lon="5.014774">
        <ele>219.666789</ele>
        <time>2021-07-04T10:26:19.994Z</time>
      </trkpt>
      <trkpt lat="44.736210" lon="5.014700">
        <ele>212.415445</ele>
        <time>2021-07-04T10:26:29.111Z</time>
      </trkpt>
      <trkpt lat="44.735991" lon="5.014562">
        <ele>209.751488</ele>
        <time>2021-07-04T10:26:32.527Z</time>
      </trkpt>
      <trkpt lat="44.735977" lon="5.014550">
        <ele>209.569506</ele>
        <time>2021-07-04T10:26:32.738Z</time>
      </trkpt>
      <trkpt lat="44.735662" lon="5.014215">
        <ele>205.318351</ele>
        <time>2021-07-04T10:26:38.367Z</time>
      </trkpt>
      <trkpt lat="44.735290" lon="5.013725">
        <ele>201.557834</ele>
        <time>2021-07-04T10:26:45.824Z</time>
      </trkpt>
      <trkpt lat="44.735216" lon="5.013527">
        <ele>200.384687</ele>
        <time>2021-07-04T10:26:48.148Z</time>
      </trkpt>
      <trkpt lat="44.735182" lon="5.013456">
        <ele>199.935701</ele>
        <time>2021-07-04T10:26:48.984Z</time>
      </trkpt>
      <trkpt lat="44.735072" lon="5.013344">
        <ele>198.933613</ele>
        <time>2021-07-04T10:26:51.109Z</time>
      </trkpt>
      <trkpt lat="44.735033" lon="5.013477">
        <ele>198.179137</ele>
        <time>2021-07-04T10:26:52.628Z</time>
      </trkpt>
      <trkpt lat="44.734702" lon="5.014607">
        <ele>192.084235</ele>
        <time>2021-07-04T10:27:05.957Z</time>
      </trkpt>
      <trkpt lat="44.734648" lon="5.014718">
        <ele>191.794319</ele>
        <time>2021-07-04T10:27:07.554Z</time>
      </trkpt>
      <trkpt lat="44.734371" lon="5.014983">
        <ele>190.778337</ele>
        <time>2021-07-04T10:27:12.944Z</time>
      </trkpt>
      <trkpt lat="44.733913" lon="5.015571">
        <ele>188.897916</ele>
        <time>2021-07-04T10:27:24.138Z</time>
      </trkpt>
      <trkpt lat="44.733874" lon="5.015512">
        <ele>188.724241</ele>
        <time>2021-07-04T10:27:25.078Z</time>
      </trkpt>
      <trkpt lat="44.733721" lon="5.015388">
        <ele>188.188678</ele>
        <time>2021-07-04T10:27:28.163Z</time>
      </trkpt>
      <trkpt lat="44.732687" lon="5.014555">
        <ele>186.237772</ele>
        <time>2021-07-04T10:27:49.793Z</time>
      </trkpt>
      <trkpt lat="44.732633" lon="5.014652">
        <ele>186.166550</ele>
        <time>2021-07-04T10:27:51.377Z</time>
      </trkpt>
      <trkpt lat="44.731969" lon="5.015706">
        <ele>185.413507</ele>
        <time>2021-07-04T10:28:12.705Z</time>
      </trkpt>
      <trkpt lat="44.731706" lon="5.016169">
        <ele>185.733722</ele>
        <time>2021-07-04T10:28:22.851Z</time>
      </trkpt>
      <trkpt lat="44.731343" lon="5.016768">
        <ele>186.159014</ele>
        <time>2021-07-04T10:28:37.012Z</time>
      </trkpt>
      <trkpt lat="44.731165" lon="5.017066">
        <ele>186.369322</ele>
        <time>2021-07-04T10:28:43.981Z</time>
      </trkpt>
      <trkpt lat="44.731141" lon="5.017106">
        <ele>186.397604</ele>
        <time>2021-07-04T10:28:44.937Z</time>
      </trkpt>
      <trkpt lat="44.730905" lon="5.017498">
        <ele>186.675160</ele>
        <time>2021-07-04T10:28:54.528Z</time>
      </trkpt>
      <trkpt lat="44.730760" lon="5.017727">
        <ele>187.026286</ele>
        <time>2021-07-04T10:29:00.553Z</time>
      </trkpt>
      <trkpt lat="44.730065" lon="5.018751">
        <ele>189.380284</ele>
        <time>2021-07-04T10:29:31.759Z</time>
      </trkpt>
      <trkpt lat="44.729787" lon="5.019172">
        <ele>190.335679</ele>
        <time>2021-07-04T10:29:45.969Z</time>
      </trkpt>
      <trkpt lat="44.729679" lon="5.019336">
        <ele>190.707384</ele>
        <time>2021-07-04T10:29:51.626Z</time>
      </trkpt>
      <trkpt lat="44.729493" lon="5.019643">
        <ele>191.200537</ele>
        <time>2021-07-04T10:30:01.532Z</time>
      </trkpt>
      <trkpt lat="44.729307" lon="5.019958">
        <ele>191.592345</ele>
        <time>2021-07-04T10:30:11.167Z</time>
      </trkpt>
      <trkpt lat="44.729050" lon="5.020426">
        <ele>192.158168</ele>
        <time>2021-07-04T10:30:24.232Z</time>
      </trkpt>
      <trkpt lat="44.729028" lon="5.020470">
        <ele>192.209636</ele>
        <time>2021-07-04T10:30:25.439Z</time>
      </trkpt>
      <trkpt lat="44.728950" lon="5.020626">
        <ele>192.392114</ele>
        <time>2021-07-04T10:30:29.752Z</time>
      </trkpt>
      <trkpt lat="44.728897" lon="5.020727">
        <ele>192.512225</ele>
        <time>2021-07-04T10:30:32.927Z</time>
      </trkpt>
      <trkpt lat="44.728817" lon="5.020882">
        <ele>192.695492</ele>
        <time>2021-07-04T10:30:37.702Z</time>
      </trkpt>
      <trkpt lat="44.728665" lon="5.021172">
        <ele>193.040225</ele>
        <time>2021-07-04T10:30:44.625Z</time>
      </trkpt>
      <trkpt lat="44.728652" lon="5.021204">
        <ele>193.075487</ele>
        <time>2021-07-04T10:30:45.382Z</time>
      </trkpt>
      <trkpt lat="44.728623" lon="5.021272">
        <ele>193.151354</ele>
        <time>2021-07-04T10:30:47.140Z</time>
      </trkpt>
      <trkpt lat="44.728549" lon="5.021442">
        <ele>193.342070</ele>
        <time>2021-07-04T10:30:50.806Z</time>
      </trkpt>
      <trkpt lat="44.728510" lon="5.021628">
        <ele>193.213356</ele>
        <time>2021-07-04T10:30:54.705Z</time>
      </trkpt>
      <trkpt lat="44.728477" lon="5.021841">
        <ele>192.972751</ele>
        <time>2021-07-04T10:30:58.634Z</time>
      </trkpt>
      <trkpt lat="44.728463" lon="5.021924">
        <ele>192.878600</ele>
        <time>2021-07-04T10:31:00.612Z</time>
      </trkpt>
      <trkpt lat="44.728210" lon="5.021856">
        <ele>192.478471</ele>
        <time>2021-07-04T10:31:06.135Z</time>
      </trkpt>
      <trkpt lat="44.728194" lon="5.021850">
        <ele>192.452748</ele>
        <time>2021-07-04T10:31:06.351Z</time>
      </trkpt>
      <trkpt lat="44.728189" lon="5.021936">
        <ele>192.357515</ele>
        <time>2021-07-04T10:31:07.751Z</time>
      </trkpt>
      <trkpt lat="44.728175" lon="5.022190">
        <ele>192.076341</ele>
        <time>2021-07-04T10:31:11.163Z</time>
      </trkpt>
      <trkpt lat="44.728191" lon="5.022194">
        <ele>192.051097</ele>
        <time>2021-07-04T10:31:12.232Z</time>
      </trkpt>
      <trkpt lat="44.728183" lon="5.022305">
        <ele>191.927961</ele>
        <time>2021-07-04T10:31:13.841Z</time>
      </trkpt>
      <trkpt lat="44.728168" lon="5.022307">
        <ele>191.904554</ele>
        <time>2021-07-04T10:31:14.043Z</time>
      </trkpt>
      <trkpt lat="44.728047" lon="5.022434">
        <ele>191.670078</ele>
        <time>2021-07-04T10:31:16.825Z</time>
      </trkpt>
      <trkpt lat="44.727926" lon="5.022484">
        <ele>191.474175</ele>
        <time>2021-07-04T10:31:18.971Z</time>
      </trkpt>
      <trkpt lat="44.727970" lon="5.022730">
        <ele>191.194199</ele>
        <time>2021-07-04T10:31:22.113Z</time>
      </trkpt>
      <trkpt lat="44.728044" lon="5.022911">
        <ele>190.963719</ele>
        <time>2021-07-04T10:31:24.814Z</time>
      </trkpt>
      <trkpt lat="44.728073" lon="5.023116">
        <ele>190.733025</ele>
        <time>2021-07-04T10:31:27.377Z</time>
      </trkpt>
      <trkpt lat="44.728099" lon="5.023437">
        <ele>190.408862</ele>
        <time>2021-07-04T10:31:43.408Z</time>
      </trkpt>
      <trkpt lat="44.728122" lon="5.023543">
        <ele>190.305319</ele>
        <time>2021-07-04T10:31:48.879Z</time>
      </trkpt>
      <trkpt lat="44.728099" lon="5.023437">
        <ele>190.201777</ele>
        <time>2021-07-04T10:31:54.355Z</time>
      </trkpt>
      <trkpt lat="44.728073" lon="5.023116">
        <ele>189.899951</ele>
        <time>2021-07-04T10:32:10.385Z</time>
      </trkpt>
      <trkpt lat="44.728044" lon="5.022911">
        <ele>189.704676</ele>
        <time>2021-07-04T10:32:13.169Z</time>
      </trkpt>
      <trkpt lat="44.727970" lon="5.022730">
        <ele>189.509584</ele>
        <time>2021-07-04T10:32:16.120Z</time>
      </trkpt>
      <trkpt lat="44.727926" lon="5.022484">
        <ele>189.272594</ele>
        <time>2021-07-04T10:32:19.818Z</time>
      </trkpt>
      <trkpt lat="44.727835" lon="5.022224">
        <ele>189.001822</ele>
        <time>2021-07-04T10:32:24.232Z</time>
      </trkpt>
      <trkpt lat="44.727865" lon="5.021960">
        <ele>188.752052</ele>
        <time>2021-07-04T10:32:28.080Z</time>
      </trkpt>
      <trkpt lat="44.727892" lon="5.021709">
        <ele>188.514890</ele>
        <time>2021-07-04T10:32:31.846Z</time>
      </trkpt>
      <trkpt lat="44.727794" lon="5.021658">
        <ele>188.377499</ele>
        <time>2021-07-04T10:32:33.841Z</time>
      </trkpt>
      <trkpt lat="44.727556" lon="5.021532">
        <ele>188.197719</ele>
        <time>2021-07-04T10:32:38.942Z</time>
      </trkpt>
      <trkpt lat="44.727435" lon="5.021474">
        <ele>188.174572</ele>
        <time>2021-07-04T10:32:41.288Z</time>
      </trkpt>
      <trkpt lat="44.726859" lon="5.021201">
        <ele>188.064515</ele>
        <time>2021-07-04T10:32:53.678Z</time>
      </trkpt>
      <trkpt lat="44.726799" lon="5.021173">
        <ele>188.053069</ele>
        <time>2021-07-04T10:32:54.998Z</time>
      </trkpt>
      <trkpt lat="44.726761" lon="5.021155">
        <ele>188.045809</ele>
        <time>2021-07-04T10:32:55.850Z</time>
      </trkpt>
      <trkpt lat="44.726690" lon="5.021090">
        <ele>188.030472</ele>
        <time>2021-07-04T10:32:57.695Z</time>
      </trkpt>
      <trkpt lat="44.726674" lon="5.021072">
        <ele>188.026763</ele>
        <time>2021-07-04T10:32:58.131Z</time>
      </trkpt>
      <trkpt lat="44.726581" lon="5.020866">
        <ele>187.995362</ele>
        <time>2021-07-04T10:33:01.858Z</time>
      </trkpt>
      <trkpt lat="44.726558" lon="5.020780">
        <ele>187.983540</ele>
        <time>2021-07-04T10:33:03.234Z</time>
      </trkpt>
      <trkpt lat="44.726523" lon="5.020712">
        <ele>187.972737</ele>
        <time>2021-07-04T10:33:04.531Z</time>
      </trkpt>
      <trkpt lat="44.726485" lon="5.020667">
        <ele>187.963745</ele>
        <time>2021-07-04T10:33:05.596Z</time>
      </trkpt>
      <trkpt lat="44.726455" lon="5.020650">
        <ele>187.957889</ele>
        <time>2021-07-04T10:33:06.314Z</time>
      </trkpt>
      <trkpt lat="44.726399" lon="5.020648">
        <ele>187.947745</ele>
        <time>2021-07-04T10:33:07.548Z</time>
      </trkpt>
      <trkpt lat="44.726339" lon="5.020521">
        <ele>187.928123</ele>
        <time>2021-07-04T10:33:10.037Z</time>
      </trkpt>
      <trkpt lat="44.726316" lon="5.020490">
        <ele>187.922357</ele>
        <time>2021-07-04T10:33:10.793Z</time>
      </trkpt>
      <trkpt lat="44.726281" lon="5.020425">
        <ele>187.911864</ele>
        <time>2021-07-04T10:33:12.204Z</time>
      </trkpt>
      <trkpt lat="44.726203" lon="5.020364">
        <ele>187.912924</ele>
        <time>2021-07-04T10:33:14.274Z</time>
      </trkpt>
      <trkpt lat="44.725242" lon="5.019434">
        <ele>191.334402</ele>
        <time>2021-07-04T10:33:48.943Z</time>
      </trkpt>
      <trkpt lat="44.725092" lon="5.019289">
        <ele>191.868263</ele>
        <time>2021-07-04T10:33:55.941Z</time>
      </trkpt>
      <trkpt lat="44.724836" lon="5.018996">
        <ele>192.836286</ele>
        <time>2021-07-04T10:34:09.905Z</time>
      </trkpt>
      <trkpt lat="44.724757" lon="5.018870">
        <ele>193.205065</ele>
        <time>2021-07-04T10:34:15.544Z</time>
      </trkpt>
      <trkpt lat="44.724434" lon="5.018126">
        <ele>197.599449</ele>
        <time>2021-07-04T10:34:45.580Z</time>
      </trkpt>
      <trkpt lat="44.724252" lon="5.018054">
        <ele>198.940523</ele>
        <time>2021-07-04T10:34:55.636Z</time>
      </trkpt>
      <trkpt lat="44.723988" lon="5.018060">
        <ele>200.813489</ele>
        <time>2021-07-04T10:35:09.414Z</time>
      </trkpt>
      <trkpt lat="44.723165" lon="5.018079">
        <ele>206.519443</ele>
        <time>2021-07-04T10:35:54.009Z</time>
      </trkpt>
      <trkpt lat="44.722878" lon="5.018037">
        <ele>208.188415</ele>
        <time>2021-07-04T10:36:09.535Z</time>
      </trkpt>
      <trkpt lat="44.722679" lon="5.018007">
        <ele>209.346025</ele>
        <time>2021-07-04T10:36:19.570Z</time>
      </trkpt>
      <trkpt lat="44.722233" lon="5.019000">
        <ele>214.173945</ele>
        <time>2021-07-04T10:36:56.806Z</time>
      </trkpt>
      <trkpt lat="44.722192" lon="5.019048">
        <ele>214.482413</ele>
        <time>2021-07-04T10:36:59.644Z</time>
      </trkpt>
      <trkpt lat="44.722136" lon="5.019111">
        <ele>214.897083</ele>
        <time>2021-07-04T10:37:02.330Z</time>
      </trkpt>
      <trkpt lat="44.722068" lon="5.019189">
        <ele>215.404483</ele>
        <time>2021-07-04T10:37:05.675Z</time>
      </trkpt>
      <trkpt lat="44.721902" lon="5.019305">
        <ele>216.425112</ele>
        <time>2021-07-04T10:37:12.808Z</time>
      </trkpt>
      <trkpt lat="44.721059" lon="5.019535">
        <ele>219.577171</ele>
        <time>2021-07-04T10:37:44.516Z</time>
      </trkpt>
      <trkpt lat="44.720407" lon="5.019758">
        <ele>222.040167</ele>
        <time>2021-07-04T10:38:09.023Z</time>
      </trkpt>
      <trkpt lat="44.719786" lon="5.020033">
        <ele>225.257302</ele>
        <time>2021-07-04T10:38:34.004Z</time>
      </trkpt>
      <trkpt lat="44.719252" lon="5.020233">
        <ele>228.410890</ele>
        <time>2021-07-04T10:38:58.361Z</time>
      </trkpt>
      <trkpt lat="44.718847" lon="5.020326">
        <ele>230.752774</ele>
        <time>2021-07-04T10:39:17.838Z</time>
      </trkpt>
      <trkpt lat="44.718743" lon="5.020326">
        <ele>231.346297</ele>
        <time>2021-07-04T10:39:22.864Z</time>
      </trkpt>
      <trkpt lat="44.717288" lon="5.020258">
        <ele>243.058145</ele>
        <time>2021-07-04T10:40:44.121Z</time>
      </trkpt>
      <trkpt lat="44.716558" lon="5.020235">
        <ele>249.499123</ele>
        <time>2021-07-04T10:41:29.709Z</time>
      </trkpt>
      <trkpt lat="44.714869" lon="5.020051">
        <ele>266.327154</ele>
        <time>2021-07-04T10:43:18.361Z</time>
      </trkpt>
      <trkpt lat="44.714767" lon="5.020055">
        <ele>267.164278</ele>
        <time>2021-07-04T10:43:25.904Z</time>
      </trkpt>
      <trkpt lat="44.714716" lon="5.020059">
        <ele>267.520009</ele>
        <time>2021-07-04T10:43:28.606Z</time>
      </trkpt>
      <trkpt lat="44.714666" lon="5.020066">
        <ele>267.869944</ele>
        <time>2021-07-04T10:43:31.524Z</time>
      </trkpt>
      <trkpt lat="44.714239" lon="5.020479">
        <ele>271.478394</ele>
        <time>2021-07-04T10:43:59.265Z</time>
      </trkpt>
      <trkpt lat="44.713731" lon="5.020690">
        <ele>275.167157</ele>
        <time>2021-07-04T10:44:26.964Z</time>
      </trkpt>
      <trkpt lat="44.713372" lon="5.020769">
        <ele>277.697730</ele>
        <time>2021-07-04T10:44:43.625Z</time>
      </trkpt>
      <trkpt lat="44.713280" lon="5.020939">
        <ele>278.755264</ele>
        <time>2021-07-04T10:44:49.639Z</time>
      </trkpt>
      <trkpt lat="44.713028" lon="5.021186">
        <ele>280.246897</ele>
        <time>2021-07-04T10:45:01.263Z</time>
      </trkpt>
      <trkpt lat="44.712723" lon="5.021375">
        <ele>281.639209</ele>
        <time>2021-07-04T10:45:14.366Z</time>
      </trkpt>
      <trkpt lat="44.712021" lon="5.021477">
        <ele>284.587627</ele>
        <time>2021-07-04T10:45:42.541Z</time>
      </trkpt>
      <trkpt lat="44.711685" lon="5.021579">
        <ele>286.023667</ele>
        <time>2021-07-04T10:45:55.720Z</time>
      </trkpt>
      <trkpt lat="44.711249" lon="5.021710">
        <ele>287.986724</ele>
        <time>2021-07-04T10:46:13.069Z</time>
      </trkpt>
      <trkpt lat="44.710847" lon="5.021894">
        <ele>289.914830</ele>
        <time>2021-07-04T10:46:30.225Z</time>
      </trkpt>
      <trkpt lat="44.710176" lon="5.021800">
        <ele>292.990429</ele>
        <time>2021-07-04T10:46:58.639Z</time>
      </trkpt>
      <trkpt lat="44.709538" lon="5.022060">
        <ele>295.986385</ele>
        <time>2021-07-04T10:47:27.135Z</time>
      </trkpt>
      <trkpt lat="44.709102" lon="5.021993">
        <ele>297.921303</ele>
        <time>2021-07-04T10:47:46.327Z</time>
      </trkpt>
      <trkpt lat="44.708492" lon="5.022142">
        <ele>300.652659</ele>
        <time>2021-07-04T10:48:11.584Z</time>
      </trkpt>
      <trkpt lat="44.708282" lon="5.022133">
        <ele>301.579536</ele>
        <time>2021-07-04T10:48:20.332Z</time>
      </trkpt>
      <trkpt lat="44.708156" lon="5.022127">
        <ele>302.135722</ele>
        <time>2021-07-04T10:48:24.877Z</time>
      </trkpt>
      <trkpt lat="44.707832" lon="5.022308">
        <ele>303.239251</ele>
        <time>2021-07-04T10:48:38.113Z</time>
      </trkpt>
      <trkpt lat="44.707653" lon="5.022670">
        <ele>303.814565</ele>
        <time>2021-07-04T10:48:49.393Z</time>
      </trkpt>
      <trkpt lat="44.707418" lon="5.022788">
        <ele>304.272577</ele>
        <time>2021-07-04T10:48:57.948Z</time>
      </trkpt>
      <trkpt lat="44.707105" lon="5.022791">
        <ele>304.847135</ele>
        <time>2021-07-04T10:49:07.883Z</time>
      </trkpt>
      <trkpt lat="44.706829" lon="5.022775">
        <ele>305.354192</ele>
        <time>2021-07-04T10:49:15.531Z</time>
      </trkpt>
      <trkpt lat="44.706786" lon="5.022772">
        <ele>305.433220</ele>
        <time>2021-07-04T10:49:16.752Z</time>
      </trkpt>
      <trkpt lat="44.705775" lon="5.022798">
        <ele>305.585676</ele>
        <time>2021-07-04T10:49:39.051Z</time>
      </trkpt>
      <trkpt lat="44.704330" lon="5.023150">
        <ele>303.729545</ele>
        <time>2021-07-04T10:50:07.092Z</time>
      </trkpt>
      <trkpt lat="44.703061" lon="5.023079">
        <ele>301.197299</ele>
        <time>2021-07-04T10:50:30.260Z</time>
      </trkpt>
      <trkpt lat="44.702289" lon="5.022929">
        <ele>299.782756</ele>
        <time>2021-07-04T10:50:44.649Z</time>
      </trkpt>
      <trkpt lat="44.701820" lon="5.022990">
        <ele>298.976250</ele>
        <time>2021-07-04T10:50:53.372Z</time>
      </trkpt>
      <trkpt lat="44.701500" lon="5.023032">
        <ele>298.425926</ele>
        <time>2021-07-04T10:50:59.475Z</time>
      </trkpt>
      <trkpt lat="44.701181" lon="5.023103">
        <ele>297.872900</ele>
        <time>2021-07-04T10:51:05.731Z</time>
      </trkpt>
      <trkpt lat="44.700886" lon="5.023073">
        <ele>297.459276</ele>
        <time>2021-07-04T10:51:11.509Z</time>
      </trkpt>
      <trkpt lat="44.700724" lon="5.023433">
        <ele>297.202457</ele>
        <time>2021-07-04T10:51:17.293Z</time>
      </trkpt>
      <trkpt lat="44.700573" lon="5.023547">
        <ele>297.057138</ele>
        <time>2021-07-04T10:51:20.724Z</time>
      </trkpt>
      <trkpt lat="44.699988" lon="5.023472">
        <ele>296.559005</ele>
        <time>2021-07-04T10:51:32.794Z</time>
      </trkpt>
      <trkpt lat="44.699443" lon="5.023561">
        <ele>296.093745</ele>
        <time>2021-07-04T10:51:44.359Z</time>
      </trkpt>
      <trkpt lat="44.699214" lon="5.023567">
        <ele>295.985311</ele>
        <time>2021-07-04T10:51:49.400Z</time>
      </trkpt>
      <trkpt lat="44.698314" lon="5.023686">
        <ele>295.742386</ele>
        <time>2021-07-04T10:52:09.619Z</time>
      </trkpt>
      <trkpt lat="44.697658" lon="5.023470">
        <ele>295.561333</ele>
        <time>2021-07-04T10:52:25.244Z</time>
      </trkpt>
      <trkpt lat="44.697619" lon="5.023459">
        <ele>295.550644</ele>
        <time>2021-07-04T10:52:26.033Z</time>
      </trkpt>
      <trkpt lat="44.697358" lon="5.023390">
        <ele>295.527604</ele>
        <time>2021-07-04T10:52:31.667Z</time>
      </trkpt>
      <trkpt lat="44.696892" lon="5.023128">
        <ele>295.497055</ele>
        <time>2021-07-04T10:52:42.186Z</time>
      </trkpt>
      <trkpt lat="44.696466" lon="5.022651">
        <ele>295.463910</ele>
        <time>2021-07-04T10:52:54.362Z</time>
      </trkpt>
      <trkpt lat="44.696360" lon="5.022586">
        <ele>295.456871</ele>
        <time>2021-07-04T10:52:57.282Z</time>
      </trkpt>
      <trkpt lat="44.696280" lon="5.022537">
        <ele>295.451560</ele>
        <time>2021-07-04T10:52:58.944Z</time>
      </trkpt>
      <trkpt lat="44.695677" lon="5.022279">
        <ele>296.346149</ele>
        <time>2021-07-04T10:53:15.480Z</time>
      </trkpt>
      <trkpt lat="44.695144" lon="5.022258">
        <ele>297.901391</ele>
        <time>2021-07-04T10:53:30.942Z</time>
      </trkpt>
      <trkpt lat="44.694934" lon="5.022141">
        <ele>298.560201</ele>
        <time>2021-07-04T10:53:39.120Z</time>
      </trkpt>
      <trkpt lat="44.694384" lon="5.021619">
        <ele>300.495387</ele>
        <time>2021-07-04T10:54:07.519Z</time>
      </trkpt>
      <trkpt lat="44.694190" lon="5.021502">
        <ele>301.520785</ele>
        <time>2021-07-04T10:54:16.772Z</time>
      </trkpt>
      <trkpt lat="44.693571" lon="5.021240">
        <ele>305.192116</ele>
        <time>2021-07-04T10:54:46.043Z</time>
      </trkpt>
      <trkpt lat="44.693426" lon="5.021186">
        <ele>306.044021</ele>
        <time>2021-07-04T10:54:53.775Z</time>
      </trkpt>
      <trkpt lat="44.693266" lon="5.021143">
        <ele>306.969183</ele>
        <time>2021-07-04T10:55:00.625Z</time>
      </trkpt>
      <trkpt lat="44.691635" lon="5.021367">
        <ele>316.732163</ele>
        <time>2021-07-04T10:56:17.960Z</time>
      </trkpt>
      <trkpt lat="44.691277" lon="5.021481">
        <ele>318.993344</ele>
        <time>2021-07-04T10:56:35.091Z</time>
      </trkpt>
      <trkpt lat="44.691047" lon="5.021562">
        <ele>320.453938</ele>
        <time>2021-07-04T10:56:47.015Z</time>
      </trkpt>
      <trkpt lat="44.690878" lon="5.021592">
        <ele>321.503282</ele>
        <time>2021-07-04T10:56:54.335Z</time>
      </trkpt>
      <trkpt lat="44.690829" lon="5.021601">
        <ele>321.807698</ele>
        <time>2021-07-04T10:56:58.457Z</time>
      </trkpt>
      <trkpt lat="44.690034" lon="5.021584">
        <ele>326.194195</ele>
        <time>2021-07-04T10:57:37.119Z</time>
      </trkpt>
      <trkpt lat="44.689856" lon="5.021522">
        <ele>327.201727</ele>
        <time>2021-07-04T10:57:45.106Z</time>
      </trkpt>
      <trkpt lat="44.688869" lon="5.020703">
        <ele>332.430701</ele>
        <time>2021-07-04T10:58:34.910Z</time>
      </trkpt>
      <trkpt lat="44.688172" lon="5.019876">
        <ele>334.183396</ele>
        <time>2021-07-04T10:59:02.366Z</time>
      </trkpt>
      <trkpt lat="44.687679" lon="5.019678">
        <ele>335.168867</ele>
        <time>2021-07-04T10:59:15.483Z</time>
      </trkpt>
      <trkpt lat="44.687562" lon="5.019639">
        <ele>335.305055</ele>
        <time>2021-07-04T10:59:17.988Z</time>
      </trkpt>
      <trkpt lat="44.685967" lon="5.018678">
        <ele>334.973436</ele>
        <time>2021-07-04T10:59:55.459Z</time>
      </trkpt>
      <trkpt lat="44.685265" lon="5.018050">
        <ele>335.876778</ele>
        <time>2021-07-04T11:00:17.149Z</time>
      </trkpt>
      <trkpt lat="44.684895" lon="5.017823">
        <ele>336.326833</ele>
        <time>2021-07-04T11:00:28.637Z</time>
      </trkpt>
      <trkpt lat="44.684628" lon="5.017798">
        <ele>336.625174</ele>
        <time>2021-07-04T11:00:36.599Z</time>
      </trkpt>
      <trkpt lat="44.684365" lon="5.017696">
        <ele>336.929339</ele>
        <time>2021-07-04T11:00:45.028Z</time>
      </trkpt>
      <trkpt lat="44.684151" lon="5.017465">
        <ele>337.154981</ele>
        <time>2021-07-04T11:00:53.383Z</time>
      </trkpt>
      <trkpt lat="44.683968" lon="5.017438">
        <ele>337.299669</ele>
        <time>2021-07-04T11:00:59.174Z</time>
      </trkpt>
      <trkpt lat="44.683587" lon="5.017712">
        <ele>337.636151</ele>
        <time>2021-07-04T11:01:12.752Z</time>
      </trkpt>
      <trkpt lat="44.683415" lon="5.017744">
        <ele>337.772577</ele>
        <time>2021-07-04T11:01:17.818Z</time>
      </trkpt>
      <trkpt lat="44.683296" lon="5.017696">
        <ele>337.869922</ele>
        <time>2021-07-04T11:01:21.263Z</time>
      </trkpt>
      <trkpt lat="44.683114" lon="5.017438">
        <ele>338.073114</ele>
        <time>2021-07-04T11:01:27.699Z</time>
      </trkpt>
      <trkpt lat="44.682851" lon="5.016891">
        <ele>338.070049</ele>
        <time>2021-07-04T11:01:37.688Z</time>
      </trkpt>
      <trkpt lat="44.682580" lon="5.016586">
        <ele>336.417042</ele>
        <time>2021-07-04T11:01:44.083Z</time>
      </trkpt>
      <trkpt lat="44.681515" lon="5.016081">
        <ele>331.064433</ele>
        <time>2021-07-04T11:02:01.838Z</time>
      </trkpt>
      <trkpt lat="44.681367" lon="5.016172">
        <ele>330.295163</ele>
        <time>2021-07-04T11:02:04.229Z</time>
      </trkpt>
      <trkpt lat="44.681256" lon="5.016156">
        <ele>329.699907</ele>
        <time>2021-07-04T11:02:05.870Z</time>
      </trkpt>
      <trkpt lat="44.680703" lon="5.015792">
        <ele>323.682312</ele>
        <time>2021-07-04T11:02:14.663Z</time>
      </trkpt>
      <trkpt lat="44.680139" lon="5.015625">
        <ele>318.001829</ele>
        <time>2021-07-04T11:02:22.897Z</time>
      </trkpt>
      <trkpt lat="44.679868" lon="5.015373">
        <ele>314.799894</ele>
        <time>2021-07-04T11:02:27.473Z</time>
      </trkpt>
      <trkpt lat="44.679349" lon="5.015143">
        <ele>309.109107</ele>
        <time>2021-07-04T11:02:35.065Z</time>
      </trkpt>
      <trkpt lat="44.679303" lon="5.015207">
        <ele>308.392797</ele>
        <time>2021-07-04T11:02:35.972Z</time>
      </trkpt>
      <trkpt lat="44.679315" lon="5.015309">
        <ele>307.578992</ele>
        <time>2021-07-04T11:02:36.974Z</time>
      </trkpt>
      <trkpt lat="44.679498" lon="5.015502">
        <ele>305.046808</ele>
        <time>2021-07-04T11:02:40.186Z</time>
      </trkpt>
      <trkpt lat="44.679498" lon="5.015652">
        <ele>303.866092</ele>
        <time>2021-07-04T11:02:41.666Z</time>
      </trkpt>
      <trkpt lat="44.679406" lon="5.015802">
        <ele>302.306816</ele>
        <time>2021-07-04T11:02:43.636Z</time>
      </trkpt>
      <trkpt lat="44.679250" lon="5.015894">
        <ele>300.434181</ele>
        <time>2021-07-04T11:02:46.022Z</time>
      </trkpt>
      <trkpt lat="44.679170" lon="5.015883">
        <ele>299.544347</ele>
        <time>2021-07-04T11:02:47.119Z</time>
      </trkpt>
      <trkpt lat="44.678548" lon="5.015405">
        <ele>291.985962</ele>
        <time>2021-07-04T11:02:57.118Z</time>
      </trkpt>
      <trkpt lat="44.678476" lon="5.015366">
        <ele>291.636751</ele>
        <time>2021-07-04T11:02:58.238Z</time>
      </trkpt>
      <trkpt lat="44.678251" lon="5.015473">
        <ele>290.561743</ele>
        <time>2021-07-04T11:03:01.704Z</time>
      </trkpt>
      <trkpt lat="44.677751" lon="5.015441">
        <ele>288.296376</ele>
        <time>2021-07-04T11:03:09.361Z</time>
      </trkpt>
      <trkpt lat="44.677652" lon="5.015393">
        <ele>287.822416</ele>
        <time>2021-07-04T11:03:11.001Z</time>
      </trkpt>
      <trkpt lat="44.677480" lon="5.015035">
        <ele>286.431900</ele>
        <time>2021-07-04T11:03:16.389Z</time>
      </trkpt>
      <trkpt lat="44.677464" lon="5.014917">
        <ele>286.045290</ele>
        <time>2021-07-04T11:03:17.745Z</time>
      </trkpt>
      <trkpt lat="44.677402" lon="5.014930">
        <ele>285.761574</ele>
        <time>2021-07-04T11:03:18.963Z</time>
      </trkpt>
      <trkpt lat="44.677288" lon="5.014913">
        <ele>285.242711</ele>
        <time>2021-07-04T11:03:21.546Z</time>
      </trkpt>
      <trkpt lat="44.677062" lon="5.014841">
        <ele>284.193906</ele>
        <time>2021-07-04T11:03:26.334Z</time>
      </trkpt>
      <trkpt lat="44.676832" lon="5.014763">
        <ele>284.535099</ele>
        <time>2021-07-04T11:03:33.449Z</time>
      </trkpt>
      <trkpt lat="44.676497" lon="5.014731">
        <ele>285.344130</ele>
        <time>2021-07-04T11:03:43.423Z</time>
      </trkpt>
      <trkpt lat="44.676210" lon="5.014843">
        <ele>286.061779</ele>
        <time>2021-07-04T11:03:53.256Z</time>
      </trkpt>
      <trkpt lat="44.674490" lon="5.015997">
        <ele>291.169478</ele>
        <time>2021-07-04T11:05:01.193Z</time>
      </trkpt>
      <trkpt lat="44.674207" lon="5.016029">
        <ele>292.008672</ele>
        <time>2021-07-04T11:05:10.241Z</time>
      </trkpt>
      <trkpt lat="44.673443" lon="5.015952">
        <ele>294.317221</ele>
        <time>2021-07-04T11:05:35.033Z</time>
      </trkpt>
      <trkpt lat="44.673204" lon="5.015904">
        <ele>295.085797</ele>
        <time>2021-07-04T11:05:42.910Z</time>
      </trkpt>
      <trkpt lat="44.672991" lon="5.015765">
        <ele>295.833341</ele>
        <time>2021-07-04T11:05:50.621Z</time>
      </trkpt>
      <trkpt lat="44.671174" lon="5.014202">
        <ele>303.781453</ele>
        <time>2021-07-04T11:07:08.452Z</time>
      </trkpt>
      <trkpt lat="44.670874" lon="5.013880">
        <ele>305.422074</ele>
        <time>2021-07-04T11:07:23.530Z</time>
      </trkpt>
      <trkpt lat="44.670583" lon="5.013558">
        <ele>307.031773</ele>
        <time>2021-07-04T11:07:40.642Z</time>
      </trkpt>
      <trkpt lat="44.670294" lon="5.013167">
        <ele>309.078528</ele>
        <time>2021-07-04T11:07:58.837Z</time>
      </trkpt>
      <trkpt lat="44.669994" lon="5.012821">
        <ele>311.098419</ele>
        <time>2021-07-04T11:08:16.610Z</time>
      </trkpt>
      <trkpt lat="44.669718" lon="5.012352">
        <ele>313.352160</ele>
        <time>2021-07-04T11:08:35.477Z</time>
      </trkpt>
      <trkpt lat="44.669695" lon="5.012289">
        <ele>313.614339</ele>
        <time>2021-07-04T11:08:38.615Z</time>
      </trkpt>
      <trkpt lat="44.669682" lon="5.012254">
        <ele>313.760526</ele>
        <time>2021-07-04T11:08:40.908Z</time>
      </trkpt>
      <trkpt lat="44.669552" lon="5.011538">
        <ele>316.496367</ele>
        <time>2021-07-04T11:09:01.219Z</time>
      </trkpt>
      <trkpt lat="44.669459" lon="5.010609">
        <ele>317.922639</ele>
        <time>2021-07-04T11:09:25.054Z</time>
      </trkpt>
      <trkpt lat="44.669452" lon="5.010462">
        <ele>318.136438</ele>
        <time>2021-07-04T11:09:27.347Z</time>
      </trkpt>
      <trkpt lat="44.669390" lon="5.009266">
        <ele>319.876638</ele>
        <time>2021-07-04T11:09:51.858Z</time>
      </trkpt>
      <trkpt lat="44.669317" lon="5.008894">
        <ele>320.279833</ele>
        <time>2021-07-04T11:09:58.259Z</time>
      </trkpt>
      <trkpt lat="44.668378" lon="5.006318">
        <ele>320.032530</ele>
        <time>2021-07-04T11:10:43.947Z</time>
      </trkpt>
      <trkpt lat="44.668309" lon="5.006152">
        <ele>319.875790</ele>
        <time>2021-07-04T11:10:46.716Z</time>
      </trkpt>
      <trkpt lat="44.668226" lon="5.005884">
        <ele>319.637501</ele>
        <time>2021-07-04T11:10:50.657Z</time>
      </trkpt>
      <trkpt lat="44.668042" lon="5.005631">
        <ele>319.342510</ele>
        <time>2021-07-04T11:10:55.589Z</time>
      </trkpt>
      <trkpt lat="44.667940" lon="5.005515">
        <ele>319.192138</ele>
        <time>2021-07-04T11:10:58.021Z</time>
      </trkpt>
      <trkpt lat="44.667831" lon="5.005405">
        <ele>319.038348</ele>
        <time>2021-07-04T11:11:00.544Z</time>
      </trkpt>
      <trkpt lat="44.667718" lon="5.005279">
        <ele>318.873039</ele>
        <time>2021-07-04T11:11:03.145Z</time>
      </trkpt>
      <trkpt lat="44.667613" lon="5.005105">
        <ele>318.687013</ele>
        <time>2021-07-04T11:11:06.113Z</time>
      </trkpt>
      <trkpt lat="44.667385" lon="5.004920">
        <ele>318.385276</ele>
        <time>2021-07-04T11:11:10.771Z</time>
      </trkpt>
      <trkpt lat="44.667077" lon="5.004560">
        <ele>317.415605</ele>
        <time>2021-07-04T11:11:17.756Z</time>
      </trkpt>
      <trkpt lat="44.666197" lon="5.003528">
        <ele>314.558620</ele>
        <time>2021-07-04T11:11:37.079Z</time>
      </trkpt>
      <trkpt lat="44.665921" lon="5.002949">
        <ele>313.162293</ele>
        <time>2021-07-04T11:11:45.408Z</time>
      </trkpt>
      <trkpt lat="44.665593" lon="5.001993">
        <ele>310.734976</ele>
        <time>2021-07-04T11:11:57.777Z</time>
      </trkpt>
      <trkpt lat="44.665338" lon="5.001526">
        <ele>309.388566</ele>
        <time>2021-07-04T11:12:04.513Z</time>
      </trkpt>
      <trkpt lat="44.664246" lon="4.999830">
        <ele>304.553536</ele>
        <time>2021-07-04T11:12:30.673Z</time>
      </trkpt>
      <trkpt lat="44.663617" lon="4.998885">
        <ele>302.965971</ele>
        <time>2021-07-04T11:12:47.039Z</time>
      </trkpt>
      <trkpt lat="44.663505" lon="4.998712">
        <ele>303.001252</ele>
        <time>2021-07-04T11:12:50.287Z</time>
      </trkpt>
      <trkpt lat="44.663256" lon="4.998326">
        <ele>303.079843</ele>
        <time>2021-07-04T11:12:58.253Z</time>
      </trkpt>
      <trkpt lat="44.663006" lon="4.997817">
        <ele>303.173133</ele>
        <time>2021-07-04T11:13:09.055Z</time>
      </trkpt>
      <trkpt lat="44.662868" lon="4.997481">
        <ele>303.231650</ele>
        <time>2021-07-04T11:13:16.413Z</time>
      </trkpt>
      <trkpt lat="44.662458" lon="4.996460">
        <ele>305.726244</ele>
        <time>2021-07-04T11:13:44.523Z</time>
      </trkpt>
      <trkpt lat="44.662039" lon="4.995381">
        <ele>309.106602</ele>
        <time>2021-07-04T11:14:18.505Z</time>
      </trkpt>
      <trkpt lat="44.661954" lon="4.995141">
        <ele>309.843831</ele>
        <time>2021-07-04T11:14:27.184Z</time>
      </trkpt>
      <trkpt lat="44.661868" lon="4.994900">
        <ele>310.867448</ele>
        <time>2021-07-04T11:14:34.821Z</time>
      </trkpt>
      <trkpt lat="44.661840" lon="4.994821">
        <ele>311.301622</ele>
        <time>2021-07-04T11:14:38.289Z</time>
      </trkpt>
      <trkpt lat="44.661783" lon="4.994202">
        <ele>314.371888</ele>
        <time>2021-07-04T11:14:58.426Z</time>
      </trkpt>
      <trkpt lat="44.661972" lon="4.992825">
        <ele>321.270293</ele>
        <time>2021-07-04T11:15:50.800Z</time>
      </trkpt>
      <trkpt lat="44.661972" lon="4.992337">
        <ele>323.694026</ele>
        <time>2021-07-04T11:16:09.915Z</time>
      </trkpt>
      <trkpt lat="44.661846" lon="4.991915">
        <ele>325.997493</ele>
        <time>2021-07-04T11:16:28.057Z</time>
      </trkpt>
      <trkpt lat="44.660965" lon="4.990650">
        <ele>334.908102</ele>
        <time>2021-07-04T11:17:32.334Z</time>
      </trkpt>
      <trkpt lat="44.660378" lon="4.989807">
        <ele>338.110960</ele>
        <time>2021-07-04T11:18:07.276Z</time>
      </trkpt>
      <trkpt lat="44.660062" lon="4.989518">
        <ele>339.440388</ele>
        <time>2021-07-04T11:18:20.299Z</time>
      </trkpt>
      <trkpt lat="44.657015" lon="4.988297">
        <ele>345.728898</ele>
        <time>2021-07-04T11:19:49.827Z</time>
      </trkpt>
      <trkpt lat="44.655199" lon="4.987831">
        <ele>349.550252</ele>
        <time>2021-07-04T11:20:45.418Z</time>
      </trkpt>
      <trkpt lat="44.654299" lon="4.987743">
        <ele>351.767276</ele>
        <time>2021-07-04T11:21:15.203Z</time>
      </trkpt>
      <trkpt lat="44.652578" lon="4.987743">
        <ele>356.977826</ele>
        <time>2021-07-04T11:22:14.869Z</time>
      </trkpt>
      <trkpt lat="44.650620" lon="4.986921">
        <ele>363.283660</ele>
        <time>2021-07-04T11:23:25.199Z</time>
      </trkpt>
      <trkpt lat="44.647668" lon="4.987087">
        <ele>373.100849</ele>
        <time>2021-07-04T11:25:11.160Z</time>
      </trkpt>
      <trkpt lat="44.645031" lon="4.987099">
        <ele>380.675358</ele>
        <time>2021-07-04T11:26:42.953Z</time>
      </trkpt>
      <trkpt lat="44.640577" lon="4.986455">
        <ele>382.327144</ele>
        <time>2021-07-04T11:28:34.471Z</time>
      </trkpt>
      <trkpt lat="44.640214" lon="4.986189">
        <ele>381.801674</ele>
        <time>2021-07-04T11:28:41.063Z</time>
      </trkpt>
      <trkpt lat="44.639440" lon="4.984990">
        <ele>377.433217</ele>
        <time>2021-07-04T11:28:58.401Z</time>
      </trkpt>
      <trkpt lat="44.639172" lon="4.984768">
        <ele>376.006335</ele>
        <time>2021-07-04T11:29:02.931Z</time>
      </trkpt>
      <trkpt lat="44.637973" lon="4.984236">
        <ele>371.405207</ele>
        <time>2021-07-04T11:29:23.150Z</time>
      </trkpt>
      <trkpt lat="44.637689" lon="4.984016">
        <ele>370.504294</ele>
        <time>2021-07-04T11:29:28.875Z</time>
      </trkpt>
      <trkpt lat="44.637646" lon="4.983917">
        <ele>370.275010</ele>
        <time>2021-07-04T11:29:30.117Z</time>
      </trkpt>
      <trkpt lat="44.637576" lon="4.983775">
        <ele>369.933519</ele>
        <time>2021-07-04T11:29:33.621Z</time>
      </trkpt>
      <trkpt lat="44.637450" lon="4.982957">
        <ele>368.279021</ele>
        <time>2021-07-04T11:29:43.453Z</time>
      </trkpt>
      <trkpt lat="44.637385" lon="4.982694">
        <ele>367.261453</ele>
        <time>2021-07-04T11:29:47.683Z</time>
      </trkpt>
      <trkpt lat="44.637330" lon="4.982579">
        <ele>366.715644</ele>
        <time>2021-07-04T11:29:49.155Z</time>
      </trkpt>
      <trkpt lat="44.637551" lon="4.982302">
        <ele>365.076343</ele>
        <time>2021-07-04T11:29:58.143Z</time>
      </trkpt>
      <trkpt lat="44.637618" lon="4.982141">
        <ele>364.341655</ele>
        <time>2021-07-04T11:30:01.680Z</time>
      </trkpt>
      <trkpt lat="44.637580" lon="4.981970">
        <ele>363.635987</ele>
        <time>2021-07-04T11:30:06.160Z</time>
      </trkpt>
      <trkpt lat="44.637233" lon="4.982008">
        <ele>361.709239</ele>
        <time>2021-07-04T11:30:15.525Z</time>
      </trkpt>
      <trkpt lat="44.636788" lon="4.981846">
        <ele>359.164493</ele>
        <time>2021-07-04T11:30:27.406Z</time>
      </trkpt>
      <trkpt lat="44.636216" lon="4.981446">
        <ele>352.029531</ele>
        <time>2021-07-04T11:30:42.915Z</time>
      </trkpt>
      <trkpt lat="44.635854" lon="4.981069">
        <ele>346.102941</ele>
        <time>2021-07-04T11:30:53.607Z</time>
      </trkpt>
      <trkpt lat="44.635611" lon="4.980639">
        <ele>340.963356</ele>
        <time>2021-07-04T11:31:02.715Z</time>
      </trkpt>
      <trkpt lat="44.635135" lon="4.980041">
        <ele>331.765210</ele>
        <time>2021-07-04T11:31:17.422Z</time>
      </trkpt>
      <trkpt lat="44.635284" lon="4.978990">
        <ele>317.759941</ele>
        <time>2021-07-04T11:31:34.774Z</time>
      </trkpt>
      <trkpt lat="44.635414" lon="4.978378">
        <ele>309.413094</ele>
        <time>2021-07-04T11:31:44.990Z</time>
      </trkpt>
      <trkpt lat="44.635544" lon="4.978185">
        <ele>305.940039</ele>
        <time>2021-07-04T11:31:49.233Z</time>
      </trkpt>
      <trkpt lat="44.635613" lon="4.977970">
        <ele>302.857717</ele>
        <time>2021-07-04T11:31:52.997Z</time>
      </trkpt>
      <trkpt lat="44.635467" lon="4.977466">
        <ele>296.029797</ele>
        <time>2021-07-04T11:32:01.714Z</time>
      </trkpt>
      <trkpt lat="44.635081" lon="4.976871">
        <ele>286.021520</ele>
        <time>2021-07-04T11:32:14.694Z</time>
      </trkpt>
      <trkpt lat="44.634703" lon="4.976772">
        <ele>279.304832</ele>
        <time>2021-07-04T11:32:23.442Z</time>
      </trkpt>
      <trkpt lat="44.634565" lon="4.976628">
        <ele>276.302316</ele>
        <time>2021-07-04T11:32:27.357Z</time>
      </trkpt>
      <trkpt lat="44.634253" lon="4.975888">
        <ele>267.182360</ele>
        <time>2021-07-04T11:32:41.496Z</time>
      </trkpt>
      <trkpt lat="44.634126" lon="4.975777">
        <ele>265.478167</ele>
        <time>2021-07-04T11:32:44.989Z</time>
      </trkpt>
      <trkpt lat="44.633624" lon="4.975575">
        <ele>259.528128</ele>
        <time>2021-07-04T11:32:57.427Z</time>
      </trkpt>
      <trkpt lat="44.633156" lon="4.975262">
        <ele>253.622240</ele>
        <time>2021-07-04T11:33:10.249Z</time>
      </trkpt>
      <trkpt lat="44.633062" lon="4.975231">
        <ele>252.522035</ele>
        <time>2021-07-04T11:33:11.628Z</time>
      </trkpt>
      <trkpt lat="44.632931" lon="4.975161">
        <ele>250.925050</ele>
        <time>2021-07-04T11:33:13.725Z</time>
      </trkpt>
      <trkpt lat="44.632640" lon="4.974767">
        <ele>247.437258</ele>
        <time>2021-07-04T11:33:19.663Z</time>
      </trkpt>
      <trkpt lat="44.632462" lon="4.974613">
        <ele>245.857569</ele>
        <time>2021-07-04T11:33:22.714Z</time>
      </trkpt>
      <trkpt lat="44.632298" lon="4.974570">
        <ele>244.596801</ele>
        <time>2021-07-04T11:33:25.223Z</time>
      </trkpt>
      <trkpt lat="44.631830" lon="4.974649">
        <ele>241.034611</ele>
        <time>2021-07-04T11:33:32.171Z</time>
      </trkpt>
      <trkpt lat="44.631653" lon="4.974519">
        <ele>239.525298</ele>
        <time>2021-07-04T11:33:35.242Z</time>
      </trkpt>
      <trkpt lat="44.631568" lon="4.974380">
        <ele>238.539680</ele>
        <time>2021-07-04T11:33:37.139Z</time>
      </trkpt>
      <trkpt lat="44.631448" lon="4.974130">
        <ele>236.917929</ele>
        <time>2021-07-04T11:33:40.485Z</time>
      </trkpt>
      <trkpt lat="44.631299" lon="4.974242">
        <ele>235.644081</ele>
        <time>2021-07-04T11:33:42.945Z</time>
      </trkpt>
      <trkpt lat="44.630787" lon="4.974510">
        <ele>231.547389</ele>
        <time>2021-07-04T11:33:51.203Z</time>
      </trkpt>
      <trkpt lat="44.630439" lon="4.974308">
        <ele>228.724209</ele>
        <time>2021-07-04T11:33:56.810Z</time>
      </trkpt>
      <trkpt lat="44.630095" lon="4.974287">
        <ele>226.142451</ele>
        <time>2021-07-04T11:34:01.788Z</time>
      </trkpt>
      <trkpt lat="44.629520" lon="4.973813">
        <ele>221.336227</ele>
        <time>2021-07-04T11:34:11.620Z</time>
      </trkpt>
      <trkpt lat="44.628988" lon="4.973701">
        <ele>217.851450</ele>
        <time>2021-07-04T11:34:19.803Z</time>
      </trkpt>
      <trkpt lat="44.628917" lon="4.973705">
        <ele>217.391140</ele>
        <time>2021-07-04T11:34:20.828Z</time>
      </trkpt>
      <trkpt lat="44.628808" lon="4.973733">
        <ele>216.673333</ele>
        <time>2021-07-04T11:34:22.510Z</time>
      </trkpt>
      <trkpt lat="44.628363" lon="4.973680">
        <ele>213.780273</ele>
        <time>2021-07-04T11:34:29.473Z</time>
      </trkpt>
      <trkpt lat="44.628251" lon="4.973667">
        <ele>213.052263</ele>
        <time>2021-07-04T11:34:31.247Z</time>
      </trkpt>
      <trkpt lat="44.628211" lon="4.973623">
        <ele>212.723184</ele>
        <time>2021-07-04T11:34:31.951Z</time>
      </trkpt>
      <trkpt lat="44.628092" lon="4.973419">
        <ele>211.507123</ele>
        <time>2021-07-04T11:34:34.717Z</time>
      </trkpt>
      <trkpt lat="44.627740" lon="4.972814">
        <ele>208.655568</ele>
        <time>2021-07-04T11:34:42.855Z</time>
      </trkpt>
      <trkpt lat="44.627720" lon="4.972732">
        <ele>208.355950</ele>
        <time>2021-07-04T11:34:43.734Z</time>
      </trkpt>
      <trkpt lat="44.627633" lon="4.972324">
        <ele>206.883742</ele>
        <time>2021-07-04T11:34:48.532Z</time>
      </trkpt>
      <trkpt lat="44.627595" lon="4.972184">
        <ele>206.365826</ele>
        <time>2021-07-04T11:34:50.131Z</time>
      </trkpt>
      <trkpt lat="44.627316" lon="4.971030">
        <ele>202.155528</ele>
        <time>2021-07-04T11:35:03.711Z</time>
      </trkpt>
      <trkpt lat="44.627271" lon="4.970874">
        <ele>201.656819</ele>
        <time>2021-07-04T11:35:05.560Z</time>
      </trkpt>
      <trkpt lat="44.627282" lon="4.970761">
        <ele>201.318912</ele>
        <time>2021-07-04T11:35:06.760Z</time>
      </trkpt>
      <trkpt lat="44.627302" lon="4.970535">
        <ele>200.644177</ele>
        <time>2021-07-04T11:35:09.283Z</time>
      </trkpt>
      <trkpt lat="44.627274" lon="4.970485">
        <ele>200.455680</ele>
        <time>2021-07-04T11:35:09.994Z</time>
      </trkpt>
      <trkpt lat="44.627210" lon="4.970470">
        <ele>200.185570</ele>
        <time>2021-07-04T11:35:10.995Z</time>
      </trkpt>
      <trkpt lat="44.627100" lon="4.970269">
        <ele>199.434351</ele>
        <time>2021-07-04T11:35:13.730Z</time>
      </trkpt>
      <trkpt lat="44.625913" lon="4.967754">
        <ele>191.368504</ele>
        <time>2021-07-04T11:35:47.545Z</time>
      </trkpt>
      <trkpt lat="44.625100" lon="4.966059">
        <ele>187.607153</ele>
        <time>2021-07-04T11:36:12.375Z</time>
      </trkpt>
      <trkpt lat="44.624773" lon="4.965355">
        <ele>186.566684</ele>
        <time>2021-07-04T11:36:23.389Z</time>
      </trkpt>
      <trkpt lat="44.624293" lon="4.964282">
        <ele>185.341956</ele>
        <time>2021-07-04T11:36:40.524Z</time>
      </trkpt>
      <trkpt lat="44.624232" lon="4.964154">
        <ele>185.254850</ele>
        <time>2021-07-04T11:36:42.635Z</time>
      </trkpt>
      <trkpt lat="44.624149" lon="4.964024">
        <ele>185.156097</ele>
        <time>2021-07-04T11:36:45.100Z</time>
      </trkpt>
      <trkpt lat="44.624095" lon="4.963976">
        <ele>185.105330</ele>
        <time>2021-07-04T11:36:46.334Z</time>
      </trkpt>
      <trkpt lat="44.624084" lon="4.963928">
        <ele>185.076816</ele>
        <time>2021-07-04T11:36:47.048Z</time>
      </trkpt>
      <trkpt lat="44.624039" lon="4.963849">
        <ele>185.019599</ele>
        <time>2021-07-04T11:36:48.511Z</time>
      </trkpt>
      <trkpt lat="44.624007" lon="4.963823">
        <ele>184.990231</ele>
        <time>2021-07-04T11:36:49.208Z</time>
      </trkpt>
      <trkpt lat="44.623976" lon="4.963764">
        <ele>184.948762</ele>
        <time>2021-07-04T11:36:50.212Z</time>
      </trkpt>
      <trkpt lat="44.623829" lon="4.963344">
        <ele>184.684105</ele>
        <time>2021-07-04T11:36:56.885Z</time>
      </trkpt>
      <trkpt lat="44.623781" lon="4.963235">
        <ele>184.611626</ele>
        <time>2021-07-04T11:36:58.748Z</time>
      </trkpt>
      <trkpt lat="44.623631" lon="4.962910">
        <ele>184.392592</ele>
        <time>2021-07-04T11:37:04.298Z</time>
      </trkpt>
      <trkpt lat="44.622262" lon="4.960004">
        <ele>183.147862</ele>
        <time>2021-07-04T11:37:55.901Z</time>
      </trkpt>
      <trkpt lat="44.621314" lon="4.958010">
        <ele>182.227105</ele>
        <time>2021-07-04T11:38:30.555Z</time>
      </trkpt>
      <trkpt lat="44.619356" lon="4.953865">
        <ele>180.551619</ele>
        <time>2021-07-04T11:39:43.273Z</time>
      </trkpt>
      <trkpt lat="44.618989" lon="4.953089">
        <ele>180.509193</ele>
        <time>2021-07-04T11:39:57.561Z</time>
      </trkpt>
      <trkpt lat="44.615319" lon="4.945371">
        <ele>182.478776</ele>
        <time>2021-07-04T11:42:32.661Z</time>
      </trkpt>
      <trkpt lat="44.615275" lon="4.945365">
        <ele>182.517635</ele>
        <time>2021-07-04T11:42:33.889Z</time>
      </trkpt>
      <trkpt lat="44.614206" lon="4.945370">
        <ele>183.457312</ele>
        <time>2021-07-04T11:43:02.677Z</time>
      </trkpt>
      <trkpt lat="44.612559" lon="4.945376">
        <ele>185.455090</ele>
        <time>2021-07-04T11:43:49.505Z</time>
      </trkpt>
      <trkpt lat="44.612086" lon="4.945397">
        <ele>186.066729</ele>
        <time>2021-07-04T11:44:03.072Z</time>
      </trkpt>
      <trkpt lat="44.608977" lon="4.945516">
        <ele>190.303373</ele>
        <time>2021-07-04T11:45:31.017Z</time>
      </trkpt>
      <trkpt lat="44.607320" lon="4.945462">
        <ele>192.905617</ele>
        <time>2021-07-04T11:46:21.324Z</time>
      </trkpt>
      <trkpt lat="44.606991" lon="4.945537">
        <ele>193.446599</ele>
        <time>2021-07-04T11:46:31.335Z</time>
      </trkpt>
      <trkpt lat="44.605677" lon="4.945591">
        <ele>194.784572</ele>
        <time>2021-07-04T11:47:08.129Z</time>
      </trkpt>
      <trkpt lat="44.604616" lon="4.945580">
        <ele>195.444674</ele>
        <time>2021-07-04T11:47:34.060Z</time>
      </trkpt>
      <trkpt lat="44.602332" lon="4.946063">
        <ele>195.680489</ele>
        <time>2021-07-04T11:48:27.037Z</time>
      </trkpt>
      <trkpt lat="44.602125" lon="4.946034">
        <ele>195.735139</ele>
        <time>2021-07-04T11:48:32.117Z</time>
      </trkpt>
      <trkpt lat="44.602065" lon="4.946032">
        <ele>195.750906</ele>
        <time>2021-07-04T11:48:33.557Z</time>
      </trkpt>
      <trkpt lat="44.601419" lon="4.946839">
        <ele>196.031013</ele>
        <time>2021-07-04T11:48:54.683Z</time>
      </trkpt>
      <trkpt lat="44.598481" lon="4.950572">
        <ele>198.622329</ele>
        <time>2021-07-04T11:50:33.762Z</time>
      </trkpt>
      <trkpt lat="44.598186" lon="4.950773">
        <ele>198.805702</ele>
        <time>2021-07-04T11:50:41.540Z</time>
      </trkpt>
      <trkpt lat="44.597877" lon="4.950827">
        <ele>198.979846</ele>
        <time>2021-07-04T11:50:48.847Z</time>
      </trkpt>
      <trkpt lat="44.597687" lon="4.950863">
        <ele>199.087068</ele>
        <time>2021-07-04T11:50:53.309Z</time>
      </trkpt>
      <trkpt lat="44.595336" lon="4.951313">
        <ele>201.634627</ele>
        <time>2021-07-04T11:51:53.119Z</time>
      </trkpt>
      <trkpt lat="44.594891" lon="4.951238">
        <ele>203.597161</ele>
        <time>2021-07-04T11:52:09.840Z</time>
      </trkpt>
      <trkpt lat="44.594811" lon="4.951166">
        <ele>204.013228</ele>
        <time>2021-07-04T11:52:13.127Z</time>
      </trkpt>
      <trkpt lat="44.594156" lon="4.950484">
        <ele>207.583678</ele>
        <time>2021-07-04T11:52:48.083Z</time>
      </trkpt>
      <trkpt lat="44.594028" lon="4.950382">
        <ele>208.228111</ele>
        <time>2021-07-04T11:52:55.347Z</time>
      </trkpt>
      <trkpt lat="44.593901" lon="4.950335">
        <ele>208.803201</ele>
        <time>2021-07-04T11:53:00.517Z</time>
      </trkpt>
      <trkpt lat="44.593677" lon="4.950368">
        <ele>209.826292</ele>
        <time>2021-07-04T11:53:11.928Z</time>
      </trkpt>
      <trkpt lat="44.593414" lon="4.950585">
        <ele>211.229243</ele>
        <time>2021-07-04T11:53:26.088Z</time>
      </trkpt>
      <trkpt lat="44.593280" lon="4.951059">
        <ele>212.899539</ele>
        <time>2021-07-04T11:53:42.377Z</time>
      </trkpt>
      <trkpt lat="44.593266" lon="4.951211">
        <ele>213.401514</ele>
        <time>2021-07-04T11:53:47.011Z</time>
      </trkpt>
      <trkpt lat="44.593238" lon="4.951502">
        <ele>214.363255</ele>
        <time>2021-07-04T11:53:55.567Z</time>
      </trkpt>
      <trkpt lat="44.593136" lon="4.951781">
        <ele>215.390422</ele>
        <time>2021-07-04T11:54:04.137Z</time>
      </trkpt>
      <trkpt lat="44.593006" lon="4.951956">
        <ele>216.218675</ele>
        <time>2021-07-04T11:54:10.488Z</time>
      </trkpt>
      <trkpt lat="44.592851" lon="4.952104">
        <ele>217.080751</ele>
        <time>2021-07-04T11:54:16.615Z</time>
      </trkpt>
      <trkpt lat="44.592674" lon="4.952278">
        <ele>217.631522</ele>
        <time>2021-07-04T11:54:23.751Z</time>
      </trkpt>
      <trkpt lat="44.592476" lon="4.952473">
        <ele>218.082131</ele>
        <time>2021-07-04T11:54:30.766Z</time>
      </trkpt>
      <trkpt lat="44.592201" lon="4.952742">
        <ele>218.706584</ele>
        <time>2021-07-04T11:54:40.527Z</time>
      </trkpt>
      <trkpt lat="44.592091" lon="4.952850">
        <ele>218.956669</ele>
        <time>2021-07-04T11:54:44.538Z</time>
      </trkpt>
      <trkpt lat="44.592069" lon="4.952812">
        <ele>219.021650</ele>
        <time>2021-07-04T11:54:45.375Z</time>
      </trkpt>
      <trkpt lat="44.592038" lon="4.952788">
        <ele>219.087608</ele>
        <time>2021-07-04T11:54:46.305Z</time>
      </trkpt>
      <trkpt lat="44.591999" lon="4.952786">
        <ele>219.160323</ele>
        <time>2021-07-04T11:54:47.277Z</time>
      </trkpt>
      <trkpt lat="44.591966" lon="4.952806">
        <ele>219.227292</ele>
        <time>2021-07-04T11:54:48.435Z</time>
      </trkpt>
      <trkpt lat="44.591931" lon="4.952905">
        <ele>219.373949</ele>
        <time>2021-07-04T11:54:50.638Z</time>
      </trkpt>
      <trkpt lat="44.591945" lon="4.952968">
        <ele>219.461517</ele>
        <time>2021-07-04T11:54:52.104Z</time>
      </trkpt>
      <trkpt lat="44.591795" lon="4.953100">
        <ele>219.791349</ele>
        <time>2021-07-04T11:54:56.955Z</time>
      </trkpt>
      <trkpt lat="44.591691" lon="4.953195">
        <ele>220.022517</ele>
        <time>2021-07-04T11:55:00.405Z</time>
      </trkpt>
      <trkpt lat="44.591467" lon="4.953417">
        <ele>220.533364</ele>
        <time>2021-07-04T11:55:08.163Z</time>
      </trkpt>
      <trkpt lat="44.590373" lon="4.954501">
        <ele>222.703899</ele>
        <time>2021-07-04T11:55:47.416Z</time>
      </trkpt>
      <trkpt lat="44.590285" lon="4.954588">
        <ele>222.876723</ele>
        <time>2021-07-04T11:55:50.929Z</time>
      </trkpt>
      <trkpt lat="44.590218" lon="4.954654">
        <ele>223.008148</ele>
        <time>2021-07-04T11:55:53.247Z</time>
      </trkpt>
      <trkpt lat="44.589213" lon="4.955649">
        <ele>224.096853</ele>
        <time>2021-07-04T11:56:26.529Z</time>
      </trkpt>
      <trkpt lat="44.588974" lon="4.955803">
        <ele>224.254414</ele>
        <time>2021-07-04T11:56:33.007Z</time>
      </trkpt>
      <trkpt lat="44.588685" lon="4.955937">
        <ele>224.436772</ele>
        <time>2021-07-04T11:56:39.607Z</time>
      </trkpt>
      <trkpt lat="44.588471" lon="4.956020">
        <ele>224.569798</ele>
        <time>2021-07-04T11:56:44.356Z</time>
      </trkpt>
      <trkpt lat="44.588378" lon="4.956050">
        <ele>224.626973</ele>
        <time>2021-07-04T11:56:46.322Z</time>
      </trkpt>
      <trkpt lat="44.588025" lon="4.956089">
        <ele>224.440879</ele>
        <time>2021-07-04T11:56:53.672Z</time>
      </trkpt>
      <trkpt lat="44.587460" lon="4.956010">
        <ele>224.075105</ele>
        <time>2021-07-04T11:57:05.124Z</time>
      </trkpt>
      <trkpt lat="44.586854" lon="4.955742">
        <ele>223.665814</ele>
        <time>2021-07-04T11:57:17.523Z</time>
      </trkpt>
      <trkpt lat="44.584172" lon="4.953941">
        <ele>221.477198</ele>
        <time>2021-07-04T11:58:16.436Z</time>
      </trkpt>
      <trkpt lat="44.582957" lon="4.953117">
        <ele>220.544980</ele>
        <time>2021-07-04T11:58:43.964Z</time>
      </trkpt>
      <trkpt lat="44.580748" lon="4.951664">
        <ele>218.545302</ele>
        <time>2021-07-04T11:59:32.404Z</time>
      </trkpt>
      <trkpt lat="44.577597" lon="4.949598">
        <ele>214.931529</ele>
        <time>2021-07-04T12:00:37.267Z</time>
      </trkpt>
      <trkpt lat="44.574688" lon="4.947699">
        <ele>215.445798</ele>
        <time>2021-07-04T12:01:52.937Z</time>
      </trkpt>
      <trkpt lat="44.569660" lon="4.944395">
        <ele>218.403110</ele>
        <time>2021-07-04T12:04:13.685Z</time>
      </trkpt>
      <trkpt lat="44.569182" lon="4.944105">
        <ele>217.981674</ele>
        <time>2021-07-04T12:04:23.547Z</time>
      </trkpt>
      <trkpt lat="44.565600" lon="4.942618">
        <ele>210.633175</ele>
        <time>2021-07-04T12:05:27.169Z</time>
      </trkpt>
      <trkpt lat="44.565301" lon="4.942555">
        <ele>210.077015</ele>
        <time>2021-07-04T12:05:33.002Z</time>
      </trkpt>
      <trkpt lat="44.564359" lon="4.942497">
        <ele>211.202555</ele>
        <time>2021-07-04T12:05:55.363Z</time>
      </trkpt>
      <trkpt lat="44.564330" lon="4.942496">
        <ele>211.247622</ele>
        <time>2021-07-04T12:05:56.192Z</time>
      </trkpt>
      <trkpt lat="44.564194" lon="4.942485">
        <ele>211.459258</ele>
        <time>2021-07-04T12:06:00.122Z</time>
      </trkpt>
      <trkpt lat="44.563731" lon="4.942450">
        <ele>212.179602</ele>
        <time>2021-07-04T12:06:14.755Z</time>
      </trkpt>
      <trkpt lat="44.561793" lon="4.942284">
        <ele>219.400354</ele>
        <time>2021-07-04T12:07:29.282Z</time>
      </trkpt>
      <trkpt lat="44.561103" lon="4.942077">
        <ele>222.957123</ele>
        <time>2021-07-04T12:07:59.070Z</time>
      </trkpt>
      <trkpt lat="44.559813" lon="4.941498">
        <ele>230.205326</ele>
        <time>2021-07-04T12:08:59.549Z</time>
      </trkpt>
      <trkpt lat="44.559079" lon="4.941118">
        <ele>234.385182</ele>
        <time>2021-07-04T12:09:35.257Z</time>
      </trkpt>
      <trkpt lat="44.558228" lon="4.940570">
        <ele>239.387591</ele>
        <time>2021-07-04T12:10:15.510Z</time>
      </trkpt>
      <trkpt lat="44.557629" lon="4.940300">
        <ele>242.220423</ele>
        <time>2021-07-04T12:10:40.406Z</time>
      </trkpt>
      <trkpt lat="44.556389" lon="4.939916">
        <ele>247.995711</ele>
        <time>2021-07-04T12:11:30.588Z</time>
      </trkpt>
      <trkpt lat="44.556120" lon="4.939753">
        <ele>249.499720</ele>
        <time>2021-07-04T12:11:42.589Z</time>
      </trkpt>
      <trkpt lat="44.555831" lon="4.939552">
        <ele>251.155361</ele>
        <time>2021-07-04T12:11:56.542Z</time>
      </trkpt>
      <trkpt lat="44.555029" lon="4.938947">
        <ele>255.829152</ele>
        <time>2021-07-04T12:12:37.064Z</time>
      </trkpt>
      <trkpt lat="44.554670" lon="4.938678">
        <ele>257.407361</ele>
        <time>2021-07-04T12:12:55.253Z</time>
      </trkpt>
      <trkpt lat="44.554319" lon="4.938384">
        <ele>258.606228</ele>
        <time>2021-07-04T12:13:11.537Z</time>
      </trkpt>
      <trkpt lat="44.553840" lon="4.937928">
        <ele>260.303825</ele>
        <time>2021-07-04T12:13:30.714Z</time>
      </trkpt>
      <trkpt lat="44.553713" lon="4.937787">
        <ele>260.778773</ele>
        <time>2021-07-04T12:13:36.692Z</time>
      </trkpt>
      <trkpt lat="44.553650" lon="4.937717">
        <ele>261.014450</ele>
        <time>2021-07-04T12:13:38.464Z</time>
      </trkpt>
      <trkpt lat="44.553269" lon="4.937151">
        <ele>261.539142</ele>
        <time>2021-07-04T12:13:52.493Z</time>
      </trkpt>
      <trkpt lat="44.552757" lon="4.936885">
        <ele>260.381946</ele>
        <time>2021-07-04T12:14:02.548Z</time>
      </trkpt>
      <trkpt lat="44.551508" lon="4.936550">
        <ele>257.388657</ele>
        <time>2021-07-04T12:14:23.061Z</time>
      </trkpt>
      <trkpt lat="44.550463" lon="4.936583">
        <ele>253.859511</ele>
        <time>2021-07-04T12:14:39.251Z</time>
      </trkpt>
      <trkpt lat="44.549908" lon="4.936441">
        <ele>252.068372</ele>
        <time>2021-07-04T12:14:48.864Z</time>
      </trkpt>
      <trkpt lat="44.549610" lon="4.936586">
        <ele>251.751210</ele>
        <time>2021-07-04T12:14:54.754Z</time>
      </trkpt>
      <trkpt lat="44.549570" lon="4.936648">
        <ele>251.691278</ele>
        <time>2021-07-04T12:14:55.886Z</time>
      </trkpt>
      <trkpt lat="44.549401" lon="4.936906">
        <ele>251.440155</ele>
        <time>2021-07-04T12:15:01.444Z</time>
      </trkpt>
      <trkpt lat="44.549071" lon="4.937452">
        <ele>250.927117</ele>
        <time>2021-07-04T12:15:13.687Z</time>
      </trkpt>
      <trkpt lat="44.548799" lon="4.937519">
        <ele>250.649421</ele>
        <time>2021-07-04T12:15:19.609Z</time>
      </trkpt>
      <trkpt lat="44.548646" lon="4.937469">
        <ele>250.491453</ele>
        <time>2021-07-04T12:15:22.317Z</time>
      </trkpt>
      <trkpt lat="44.547909" lon="4.936803">
        <ele>246.365751</ele>
        <time>2021-07-04T12:15:37.569Z</time>
      </trkpt>
      <trkpt lat="44.547813" lon="4.936714">
        <ele>245.712242</ele>
        <time>2021-07-04T12:15:39.253Z</time>
      </trkpt>
      <trkpt lat="44.547680" lon="4.936589">
        <ele>244.803053</ele>
        <time>2021-07-04T12:15:41.551Z</time>
      </trkpt>
      <trkpt lat="44.547553" lon="4.936428">
        <ele>243.830945</ele>
        <time>2021-07-04T12:15:44.142Z</time>
      </trkpt>
      <trkpt lat="44.547477" lon="4.936331">
        <ele>243.247434</ele>
        <time>2021-07-04T12:15:45.526Z</time>
      </trkpt>
      <trkpt lat="44.547411" lon="4.936267">
        <ele>242.791771</ele>
        <time>2021-07-04T12:15:46.674Z</time>
      </trkpt>
      <trkpt lat="44.547384" lon="4.936240">
        <ele>242.603461</ele>
        <time>2021-07-04T12:15:47.157Z</time>
      </trkpt>
      <trkpt lat="44.547256" lon="4.936115">
        <ele>241.717724</ele>
        <time>2021-07-04T12:15:49.377Z</time>
      </trkpt>
      <trkpt lat="44.546820" lon="4.935701">
        <ele>237.778207</ele>
        <time>2021-07-04T12:15:56.544Z</time>
      </trkpt>
      <trkpt lat="44.546663" lon="4.935627">
        <ele>236.183003</ele>
        <time>2021-07-04T12:15:58.840Z</time>
      </trkpt>
      <trkpt lat="44.546615" lon="4.935605">
        <ele>235.696645</ele>
        <time>2021-07-04T12:15:59.495Z</time>
      </trkpt>
      <trkpt lat="44.546412" lon="4.935510">
        <ele>233.635540</ele>
        <time>2021-07-04T12:16:02.361Z</time>
      </trkpt>
      <trkpt lat="44.545942" lon="4.935386">
        <ele>229.029337</ele>
        <time>2021-07-04T12:16:08.754Z</time>
      </trkpt>
      <trkpt lat="44.545558" lon="4.935292">
        <ele>225.274919</ele>
        <time>2021-07-04T12:16:14.129Z</time>
      </trkpt>
      <trkpt lat="44.545380" lon="4.935238">
        <ele>223.520870</ele>
        <time>2021-07-04T12:16:16.682Z</time>
      </trkpt>
      <trkpt lat="44.545290" lon="4.935213">
        <ele>222.713189</ele>
        <time>2021-07-04T12:16:18.005Z</time>
      </trkpt>
      <trkpt lat="44.545132" lon="4.935169">
        <ele>222.061090</ele>
        <time>2021-07-04T12:16:20.237Z</time>
      </trkpt>
      <trkpt lat="44.544978" lon="4.935127">
        <ele>221.425992</ele>
        <time>2021-07-04T12:16:22.430Z</time>
      </trkpt>
      <trkpt lat="44.544856" lon="4.935097">
        <ele>220.924578</ele>
        <time>2021-07-04T12:16:24.268Z</time>
      </trkpt>
      <trkpt lat="44.544731" lon="4.935069">
        <ele>220.412139</ele>
        <time>2021-07-04T12:16:26.223Z</time>
      </trkpt>
      <trkpt lat="44.544706" lon="4.935064">
        <ele>220.309910</ele>
        <time>2021-07-04T12:16:26.558Z</time>
      </trkpt>
      <trkpt lat="44.543500" lon="4.934846">
        <ele>215.510425</ele>
        <time>2021-07-04T12:16:46.882Z</time>
      </trkpt>
      <trkpt lat="44.543469" lon="4.934838">
        <ele>215.540536</ele>
        <time>2021-07-04T12:16:47.453Z</time>
      </trkpt>
      <trkpt lat="44.543246" lon="4.934783">
        <ele>215.756835</ele>
        <time>2021-07-04T12:16:52.010Z</time>
      </trkpt>
      <trkpt lat="44.543126" lon="4.934753">
        <ele>215.873276</ele>
        <time>2021-07-04T12:16:54.757Z</time>
      </trkpt>
      <trkpt lat="44.543108" lon="4.934749">
        <ele>215.890686</ele>
        <time>2021-07-04T12:16:55.447Z</time>
      </trkpt>
      <trkpt lat="44.542016" lon="4.934505">
        <ele>216.947020</ele>
        <time>2021-07-04T12:17:26.853Z</time>
      </trkpt>
      <trkpt lat="44.541552" lon="4.934409">
        <ele>217.717231</ele>
        <time>2021-07-04T12:17:42.060Z</time>
      </trkpt>
      <trkpt lat="44.541511" lon="4.934401">
        <ele>217.823862</ele>
        <time>2021-07-04T12:17:43.534Z</time>
      </trkpt>
      <trkpt lat="44.540441" lon="4.934180">
        <ele>220.609844</ele>
        <time>2021-07-04T12:18:18.647Z</time>
      </trkpt>
      <trkpt lat="44.538385" lon="4.933720">
        <ele>226.196561</ele>
        <time>2021-07-04T12:19:28.032Z</time>
      </trkpt>
      <trkpt lat="44.538089" lon="4.933653">
        <ele>226.979419</ele>
        <time>2021-07-04T12:19:37.780Z</time>
      </trkpt>
      <trkpt lat="44.537746" lon="4.933583">
        <ele>227.818567</ele>
        <time>2021-07-04T12:19:48.902Z</time>
      </trkpt>
      <trkpt lat="44.535442" lon="4.933096">
        <ele>233.919567</ele>
        <time>2021-07-04T12:21:02.622Z</time>
      </trkpt>
      <trkpt lat="44.533674" lon="4.932722">
        <ele>240.199177</ele>
        <time>2021-07-04T12:22:07.698Z</time>
      </trkpt>
      <trkpt lat="44.533604" lon="4.932707">
        <ele>240.484823</ele>
        <time>2021-07-04T12:22:11.326Z</time>
      </trkpt>
      <trkpt lat="44.533473" lon="4.932678">
        <ele>241.019800</ele>
        <time>2021-07-04T12:22:16.055Z</time>
      </trkpt>
      <trkpt lat="44.532672" lon="4.932504">
        <ele>244.412316</ele>
        <time>2021-07-04T12:22:48.403Z</time>
      </trkpt>
      <trkpt lat="44.532540" lon="4.932475">
        <ele>245.038196</ele>
        <time>2021-07-04T12:22:54.747Z</time>
      </trkpt>
      <trkpt lat="44.530452" lon="4.932021">
        <ele>255.328482</ele>
        <time>2021-07-04T12:24:20.939Z</time>
      </trkpt>
      <trkpt lat="44.530076" lon="4.932111">
        <ele>257.350344</ele>
        <time>2021-07-04T12:24:37.267Z</time>
      </trkpt>
      <trkpt lat="44.528357" lon="4.933498">
        <ele>268.522649</ele>
        <time>2021-07-04T12:26:08.893Z</time>
      </trkpt>
      <trkpt lat="44.527862" lon="4.933909">
        <ele>271.887645</ele>
        <time>2021-07-04T12:26:34.900Z</time>
      </trkpt>
      <trkpt lat="44.527323" lon="4.934356">
        <ele>275.458818</ele>
        <time>2021-07-04T12:27:02.247Z</time>
      </trkpt>
      <trkpt lat="44.526240" lon="4.934986">
        <ele>282.139722</ele>
        <time>2021-07-04T12:27:54.273Z</time>
      </trkpt>
      <trkpt lat="44.524570" lon="4.935927">
        <ele>295.152998</ele>
        <time>2021-07-04T12:29:24.772Z</time>
      </trkpt>
      <trkpt lat="44.523318" lon="4.936632">
        <ele>307.671549</ele>
        <time>2021-07-04T12:30:49.991Z</time>
      </trkpt>
      <trkpt lat="44.523164" lon="4.936777">
        <ele>309.398222</ele>
        <time>2021-07-04T12:31:01.751Z</time>
      </trkpt>
      <trkpt lat="44.523003" lon="4.937086">
        <ele>311.938376</ele>
        <time>2021-07-04T12:31:15.367Z</time>
      </trkpt>
      <trkpt lat="44.522935" lon="4.937137">
        <ele>312.328452</ele>
        <time>2021-07-04T12:31:21.748Z</time>
      </trkpt>
      <trkpt lat="44.522817" lon="4.937132">
        <ele>312.843013</ele>
        <time>2021-07-04T12:31:28.551Z</time>
      </trkpt>
      <trkpt lat="44.522450" lon="4.936952">
        <ele>314.537638</ele>
        <time>2021-07-04T12:31:47.770Z</time>
      </trkpt>
      <trkpt lat="44.521850" lon="4.936979">
        <ele>317.154202</ele>
        <time>2021-07-04T12:32:13.087Z</time>
      </trkpt>
      <trkpt lat="44.521379" lon="4.936519">
        <ele>319.655835</ele>
        <time>2021-07-04T12:32:29.995Z</time>
      </trkpt>
      <trkpt lat="44.521255" lon="4.936477">
        <ele>319.776558</ele>
        <time>2021-07-04T12:32:32.278Z</time>
      </trkpt>
      <trkpt lat="44.520065" lon="4.936650">
        <ele>318.159159</ele>
        <time>2021-07-04T12:32:52.830Z</time>
      </trkpt>
      <trkpt lat="44.518958" lon="4.937192">
        <ele>318.504898</ele>
        <time>2021-07-04T12:33:15.560Z</time>
      </trkpt>
      <trkpt lat="44.518815" lon="4.937346">
        <ele>318.799657</ele>
        <time>2021-07-04T12:33:20.223Z</time>
      </trkpt>
      <trkpt lat="44.518693" lon="4.937656">
        <ele>319.212414</ele>
        <time>2021-07-04T12:33:27.400Z</time>
      </trkpt>
      <trkpt lat="44.518347" lon="4.939254">
        <ele>322.814770</ele>
        <time>2021-07-04T12:34:13.837Z</time>
      </trkpt>
      <trkpt lat="44.518343" lon="4.939611">
        <ele>324.125107</ele>
        <time>2021-07-04T12:34:24.959Z</time>
      </trkpt>
      <trkpt lat="44.518413" lon="4.939881">
        <ele>325.179464</ele>
        <time>2021-07-04T12:34:33.295Z</time>
      </trkpt>
      <trkpt lat="44.518396" lon="4.940038">
        <ele>325.762253</ele>
        <time>2021-07-04T12:34:39.011Z</time>
      </trkpt>
      <trkpt lat="44.518302" lon="4.940161">
        <ele>326.423954</ele>
        <time>2021-07-04T12:34:44.181Z</time>
      </trkpt>
      <trkpt lat="44.517446" lon="4.940776">
        <ele>331.716663</ele>
        <time>2021-07-04T12:35:28.279Z</time>
      </trkpt>
      <trkpt lat="44.517326" lon="4.940769">
        <ele>332.457318</ele>
        <time>2021-07-04T12:35:33.574Z</time>
      </trkpt>
      <trkpt lat="44.517266" lon="4.940589">
        <ele>333.331023</ele>
        <time>2021-07-04T12:35:40.196Z</time>
      </trkpt>
      <trkpt lat="44.517290" lon="4.940429">
        <ele>334.049968</ele>
        <time>2021-07-04T12:35:46.222Z</time>
      </trkpt>
      <trkpt lat="44.517659" lon="4.940033">
        <ele>336.915300</ele>
        <time>2021-07-04T12:36:06.617Z</time>
      </trkpt>
      <trkpt lat="44.517725" lon="4.939807">
        <ele>337.989171</ele>
        <time>2021-07-04T12:36:14.659Z</time>
      </trkpt>
      <trkpt lat="44.517661" lon="4.938379">
        <ele>344.904069</ele>
        <time>2021-07-04T12:37:06.002Z</time>
      </trkpt>
      <trkpt lat="44.517579" lon="4.938181">
        <ele>346.088077</ele>
        <time>2021-07-04T12:37:14.543Z</time>
      </trkpt>
      <trkpt lat="44.517443" lon="4.938059">
        <ele>347.258846</ele>
        <time>2021-07-04T12:37:23.157Z</time>
      </trkpt>
      <trkpt lat="44.516353" lon="4.937814">
        <ele>355.070232</ele>
        <time>2021-07-04T12:38:20.835Z</time>
      </trkpt>
      <trkpt lat="44.515779" lon="4.937746">
        <ele>358.700642</ele>
        <time>2021-07-04T12:38:49.420Z</time>
      </trkpt>
      <trkpt lat="44.515173" lon="4.937461">
        <ele>362.728875</ele>
        <time>2021-07-04T12:39:19.130Z</time>
      </trkpt>
      <trkpt lat="44.514903" lon="4.937381">
        <ele>364.468063</ele>
        <time>2021-07-04T12:39:31.328Z</time>
      </trkpt>
      <trkpt lat="44.514499" lon="4.937363">
        <ele>366.598062</ele>
        <time>2021-07-04T12:39:48.585Z</time>
      </trkpt>
      <trkpt lat="44.512826" lon="4.937792">
        <ele>374.721711</ele>
        <time>2021-07-04T12:40:59.175Z</time>
      </trkpt>
      <trkpt lat="44.512141" lon="4.937821">
        <ele>377.289350</ele>
        <time>2021-07-04T12:41:26.589Z</time>
      </trkpt>
      <trkpt lat="44.511134" lon="4.937679">
        <ele>380.899275</ele>
        <time>2021-07-04T12:42:01.978Z</time>
      </trkpt>
      <trkpt lat="44.509673" lon="4.938105">
        <ele>383.828023</ele>
        <time>2021-07-04T12:42:45.758Z</time>
      </trkpt>
      <trkpt lat="44.509522" lon="4.938089">
        <ele>384.125226</ele>
        <time>2021-07-04T12:42:49.990Z</time>
      </trkpt>
      <trkpt lat="44.509429" lon="4.937914">
        <ele>384.577811</ele>
        <time>2021-07-04T12:42:54.259Z</time>
      </trkpt>
      <trkpt lat="44.509489" lon="4.937524">
        <ele>385.543834</ele>
        <time>2021-07-04T12:43:02.536Z</time>
      </trkpt>
      <trkpt lat="44.509455" lon="4.937372">
        <ele>385.929548</ele>
        <time>2021-07-04T12:43:05.964Z</time>
      </trkpt>
      <trkpt lat="44.509376" lon="4.937276">
        <ele>386.284477</ele>
        <time>2021-07-04T12:43:09.282Z</time>
      </trkpt>
      <trkpt lat="44.509151" lon="4.937170">
        <ele>387.090372</ele>
        <time>2021-07-04T12:43:16.970Z</time>
      </trkpt>
      <trkpt lat="44.508958" lon="4.937186">
        <ele>387.746801</ele>
        <time>2021-07-04T12:43:23.926Z</time>
      </trkpt>
      <trkpt lat="44.508830" lon="4.937260">
        <ele>388.216882</ele>
        <time>2021-07-04T12:43:28.960Z</time>
      </trkpt>
      <trkpt lat="44.508385" lon="4.937956">
        <ele>390.594532</ele>
        <time>2021-07-04T12:43:57.039Z</time>
      </trkpt>
      <trkpt lat="44.508071" lon="4.938245">
        <ele>392.880224</ele>
        <time>2021-07-04T12:44:14.217Z</time>
      </trkpt>
      <trkpt lat="44.507728" lon="4.938471">
        <ele>395.186500</ele>
        <time>2021-07-04T12:44:32.021Z</time>
      </trkpt>
      <trkpt lat="44.507336" lon="4.938582">
        <ele>397.620165</ele>
        <time>2021-07-04T12:44:51.100Z</time>
      </trkpt>
      <trkpt lat="44.507024" lon="4.938599">
        <ele>399.520269</ele>
        <time>2021-07-04T12:45:06.180Z</time>
      </trkpt>
      <trkpt lat="44.506750" lon="4.938715">
        <ele>401.262035</ele>
        <time>2021-07-04T12:45:20.251Z</time>
      </trkpt>
      <trkpt lat="44.505689" lon="4.939680">
        <ele>408.436339</ele>
        <time>2021-07-04T12:46:18.907Z</time>
      </trkpt>
      <trkpt lat="44.504836" lon="4.940746">
        <ele>414.205431</ele>
        <time>2021-07-04T12:47:05.937Z</time>
      </trkpt>
      <trkpt lat="44.504477" lon="4.941031">
        <ele>416.060351</ele>
        <time>2021-07-04T12:47:22.391Z</time>
      </trkpt>
      <trkpt lat="44.502928" lon="4.941582">
        <ele>423.116618</ele>
        <time>2021-07-04T12:48:25.591Z</time>
      </trkpt>
      <trkpt lat="44.502757" lon="4.941754">
        <ele>424.029630</ele>
        <time>2021-07-04T12:48:33.833Z</time>
      </trkpt>
      <trkpt lat="44.502486" lon="4.942172">
        <ele>425.777506</ele>
        <time>2021-07-04T12:48:49.928Z</time>
      </trkpt>
      <trkpt lat="44.502358" lon="4.942259">
        <ele>426.394624</ele>
        <time>2021-07-04T12:48:55.777Z</time>
      </trkpt>
      <trkpt lat="44.502212" lon="4.942259">
        <ele>427.028024</ele>
        <time>2021-07-04T12:49:01.126Z</time>
      </trkpt>
      <trkpt lat="44.501983" lon="4.942113">
        <ele>428.086058</ele>
        <time>2021-07-04T12:49:11.377Z</time>
      </trkpt>
      <trkpt lat="44.500928" lon="4.941439">
        <ele>432.890938</ele>
        <time>2021-07-04T12:49:56.172Z</time>
      </trkpt>
      <trkpt lat="44.499841" lon="4.940745">
        <ele>438.259630</ele>
        <time>2021-07-04T12:50:42.155Z</time>
      </trkpt>
      <trkpt lat="44.499683" lon="4.940537">
        <ele>439.282658</ele>
        <time>2021-07-04T12:50:51.479Z</time>
      </trkpt>
      <trkpt lat="44.499637" lon="4.940277">
        <ele>440.184528</ele>
        <time>2021-07-04T12:50:59.975Z</time>
      </trkpt>
      <trkpt lat="44.499694" lon="4.939435">
        <ele>443.032030</ele>
        <time>2021-07-04T12:51:25.532Z</time>
      </trkpt>
      <trkpt lat="44.499772" lon="4.938582">
        <ele>446.294695</ele>
        <time>2021-07-04T12:51:51.921Z</time>
      </trkpt>
      <trkpt lat="44.499794" lon="4.938332">
        <ele>447.262143</ele>
        <time>2021-07-04T12:52:00.117Z</time>
      </trkpt>
      <trkpt lat="44.499862" lon="4.937580">
        <ele>450.173445</ele>
        <time>2021-07-04T12:52:23.987Z</time>
      </trkpt>
      <trkpt lat="44.499949" lon="4.937339">
        <ele>451.210846</ele>
        <time>2021-07-04T12:52:32.656Z</time>
      </trkpt>
      <trkpt lat="44.500130" lon="4.937075">
        <ele>452.617250</ele>
        <time>2021-07-04T12:52:43.970Z</time>
      </trkpt>
      <trkpt lat="44.500355" lon="4.936756">
        <ele>454.470460</ele>
        <time>2021-07-04T12:52:58.116Z</time>
      </trkpt>
      <trkpt lat="44.500375" lon="4.936506">
        <ele>455.530681</ele>
        <time>2021-07-04T12:53:06.153Z</time>
      </trkpt>
      <trkpt lat="44.500273" lon="4.936295">
        <ele>456.604933</ele>
        <time>2021-07-04T12:53:14.017Z</time>
      </trkpt>
      <trkpt lat="44.500063" lon="4.936233">
        <ele>457.873002</ele>
        <time>2021-07-04T12:53:23.868Z</time>
      </trkpt>
      <trkpt lat="44.499550" lon="4.936265">
        <ele>460.907236</ele>
        <time>2021-07-04T12:53:47.782Z</time>
      </trkpt>
      <trkpt lat="44.499088" lon="4.936406">
        <ele>463.689886</ele>
        <time>2021-07-04T12:54:10.646Z</time>
      </trkpt>
      <trkpt lat="44.498635" lon="4.936559">
        <ele>466.004392</ele>
        <time>2021-07-04T12:54:32.322Z</time>
      </trkpt>
      <trkpt lat="44.497991" lon="4.937176">
        <ele>469.878839</ele>
        <time>2021-07-04T12:55:08.593Z</time>
      </trkpt>
      <trkpt lat="44.497795" lon="4.937243">
        <ele>470.880929</ele>
        <time>2021-07-04T12:55:16.512Z</time>
      </trkpt>
      <trkpt lat="44.497670" lon="4.937214">
        <ele>471.510271</ele>
        <time>2021-07-04T12:55:21.356Z</time>
      </trkpt>
      <trkpt lat="44.497572" lon="4.937120">
        <ele>472.100080</ele>
        <time>2021-07-04T12:55:24.962Z</time>
      </trkpt>
      <trkpt lat="44.497378" lon="4.936401">
        <ele>472.089931</ele>
        <time>2021-07-04T12:55:40.886Z</time>
      </trkpt>
      <trkpt lat="44.497211" lon="4.936148">
        <ele>471.832932</ele>
        <time>2021-07-04T12:55:45.743Z</time>
      </trkpt>
      <trkpt lat="44.497118" lon="4.936093">
        <ele>471.727430</ele>
        <time>2021-07-04T12:55:48.456Z</time>
      </trkpt>
      <trkpt lat="44.497163" lon="4.935410">
        <ele>471.216051</ele>
        <time>2021-07-04T12:55:57.490Z</time>
      </trkpt>
      <trkpt lat="44.497161" lon="4.934558">
        <ele>470.149880</ele>
        <time>2021-07-04T12:56:07.860Z</time>
      </trkpt>
      <trkpt lat="44.497115" lon="4.934258">
        <ele>468.976151</ele>
        <time>2021-07-04T12:56:11.290Z</time>
      </trkpt>
      <trkpt lat="44.496812" lon="4.933218">
        <ele>464.679043</ele>
        <time>2021-07-04T12:56:23.827Z</time>
      </trkpt>
      <trkpt lat="44.496712" lon="4.932979">
        <ele>463.619176</ele>
        <time>2021-07-04T12:56:26.805Z</time>
      </trkpt>
      <trkpt lat="44.496128" lon="4.932020">
        <ele>458.480980</ele>
        <time>2021-07-04T12:56:40.717Z</time>
      </trkpt>
      <trkpt lat="44.495961" lon="4.931818">
        <ele>457.132172</ele>
        <time>2021-07-04T12:56:44.097Z</time>
      </trkpt>
      <trkpt lat="44.495701" lon="4.931661">
        <ele>455.401010</ele>
        <time>2021-07-04T12:56:48.729Z</time>
      </trkpt>
      <trkpt lat="44.495680" lon="4.931688">
        <ele>455.226763</ele>
        <time>2021-07-04T12:56:49.125Z</time>
      </trkpt>
      <trkpt lat="44.495610" lon="4.931778">
        <ele>454.645940</ele>
        <time>2021-07-04T12:56:50.581Z</time>
      </trkpt>
      <trkpt lat="44.495502" lon="4.932486">
        <ele>451.487824</ele>
        <time>2021-07-04T12:56:58.517Z</time>
      </trkpt>
      <trkpt lat="44.495435" lon="4.932620">
        <ele>450.774019</ele>
        <time>2021-07-04T12:57:00.236Z</time>
      </trkpt>
      <trkpt lat="44.495344" lon="4.932600">
        <ele>450.210741</ele>
        <time>2021-07-04T12:57:01.611Z</time>
      </trkpt>
      <trkpt lat="44.495300" lon="4.932439">
        <ele>449.416618</ele>
        <time>2021-07-04T12:57:03.498Z</time>
      </trkpt>
      <trkpt lat="44.495277" lon="4.932014">
        <ele>447.423103</ele>
        <time>2021-07-04T12:57:08.059Z</time>
      </trkpt>
      <trkpt lat="44.495213" lon="4.931722">
        <ele>445.994346</ele>
        <time>2021-07-04T12:57:11.319Z</time>
      </trkpt>
      <trkpt lat="44.495055" lon="4.931363">
        <ele>444.021344</ele>
        <time>2021-07-04T12:57:15.915Z</time>
      </trkpt>
      <trkpt lat="44.494897" lon="4.930990">
        <ele>441.992319</ele>
        <time>2021-07-04T12:57:20.646Z</time>
      </trkpt>
      <trkpt lat="44.494776" lon="4.930816">
        <ele>440.855739</ele>
        <time>2021-07-04T12:57:23.240Z</time>
      </trkpt>
      <trkpt lat="44.494325" lon="4.930419">
        <ele>437.770040</ele>
        <time>2021-07-04T12:57:31.304Z</time>
      </trkpt>
      <trkpt lat="44.493805" lon="4.929714">
        <ele>435.208172</ele>
        <time>2021-07-04T12:57:42.714Z</time>
      </trkpt>
      <trkpt lat="44.493710" lon="4.929420">
        <ele>434.392817</ele>
        <time>2021-07-04T12:57:46.625Z</time>
      </trkpt>
      <trkpt lat="44.493547" lon="4.928860">
        <ele>432.864895</ele>
        <time>2021-07-04T12:57:54.790Z</time>
      </trkpt>
      <trkpt lat="44.493510" lon="4.928726">
        <ele>432.501906</ele>
        <time>2021-07-04T12:57:57.497Z</time>
      </trkpt>
      <trkpt lat="44.493447" lon="4.928341">
        <ele>431.872029</ele>
        <time>2021-07-04T12:58:03.084Z</time>
      </trkpt>
      <trkpt lat="44.493475" lon="4.927536">
        <ele>431.843667</ele>
        <time>2021-07-04T12:58:15.705Z</time>
      </trkpt>
      <trkpt lat="44.493447" lon="4.927082">
        <ele>431.827630</ele>
        <time>2021-07-04T12:58:24.377Z</time>
      </trkpt>
      <trkpt lat="44.493398" lon="4.926718">
        <ele>431.814595</ele>
        <time>2021-07-04T12:58:31.939Z</time>
      </trkpt>
      <trkpt lat="44.493275" lon="4.926015">
        <ele>431.789122</ele>
        <time>2021-07-04T12:58:44.218Z</time>
      </trkpt>
      <trkpt lat="44.493204" lon="4.924633">
        <ele>430.189740</ele>
        <time>2021-07-04T12:59:04.232Z</time>
      </trkpt>
      <trkpt lat="44.493231" lon="4.924319">
        <ele>429.820048</ele>
        <time>2021-07-04T12:59:08.254Z</time>
      </trkpt>
      <trkpt lat="44.493524" lon="4.922893">
        <ele>427.506070</ele>
        <time>2021-07-04T12:59:26.815Z</time>
      </trkpt>
      <trkpt lat="44.493547" lon="4.922701">
        <ele>427.104039</ele>
        <time>2021-07-04T12:59:29.224Z</time>
      </trkpt>
      <trkpt lat="44.493504" lon="4.922587">
        <ele>426.837744</ele>
        <time>2021-07-04T12:59:30.805Z</time>
      </trkpt>
      <trkpt lat="44.493273" lon="4.922199">
        <ele>425.794126</ele>
        <time>2021-07-04T12:59:37.131Z</time>
      </trkpt>
      <trkpt lat="44.492553" lon="4.921284">
        <ele>423.042779</ele>
        <time>2021-07-04T12:59:53.881Z</time>
      </trkpt>
      <trkpt lat="44.492487" lon="4.921150">
        <ele>422.738382</ele>
        <time>2021-07-04T12:59:55.841Z</time>
      </trkpt>
      <trkpt lat="44.492468" lon="4.920888">
        <ele>422.246095</ele>
        <time>2021-07-04T12:59:59.251Z</time>
      </trkpt>
      <trkpt lat="44.492422" lon="4.920816">
        <ele>422.065414</ele>
        <time>2021-07-04T13:00:00.464Z</time>
      </trkpt>
      <trkpt lat="44.492262" lon="4.920387">
        <ele>421.160480</ele>
        <time>2021-07-04T13:00:11.059Z</time>
      </trkpt>
      <trkpt lat="44.491758" lon="4.919758">
        <ele>419.392179</ele>
        <time>2021-07-04T13:00:31.638Z</time>
      </trkpt>
      <trkpt lat="44.491358" lon="4.918941">
        <ele>418.043098</ele>
        <time>2021-07-04T13:00:53.411Z</time>
      </trkpt>
      <trkpt lat="44.490762" lon="4.918279">
        <ele>416.776553</ele>
        <time>2021-07-04T13:01:18.296Z</time>
      </trkpt>
      <trkpt lat="44.490638" lon="4.918005">
        <ele>416.391006</ele>
        <time>2021-07-04T13:01:26.061Z</time>
      </trkpt>
      <trkpt lat="44.490404" lon="4.916948">
        <ele>414.641775</ele>
        <time>2021-07-04T13:01:52.919Z</time>
      </trkpt>
      <trkpt lat="44.490364" lon="4.915086">
        <ele>411.081274</ele>
        <time>2021-07-04T13:02:33.303Z</time>
      </trkpt>
      <trkpt lat="44.490419" lon="4.914659">
        <ele>408.638979</ele>
        <time>2021-07-04T13:02:41.743Z</time>
      </trkpt>
      <trkpt lat="44.490402" lon="4.914380">
        <ele>407.062870</ele>
        <time>2021-07-04T13:02:47.053Z</time>
      </trkpt>
      <trkpt lat="44.490282" lon="4.913934">
        <ele>404.379871</ele>
        <time>2021-07-04T13:02:55.934Z</time>
      </trkpt>
      <trkpt lat="44.489488" lon="4.911879">
        <ele>388.733781</ele>
        <time>2021-07-04T13:03:36.643Z</time>
      </trkpt>
      <trkpt lat="44.489327" lon="4.911091">
        <ele>382.197798</ele>
        <time>2021-07-04T13:03:50.734Z</time>
      </trkpt>
      <trkpt lat="44.489244" lon="4.911005">
        <ele>381.044135</ele>
        <time>2021-07-04T13:03:53.078Z</time>
      </trkpt>
      <trkpt lat="44.488675" lon="4.909852">
        <ele>370.683143</ele>
        <time>2021-07-04T13:04:17.196Z</time>
      </trkpt>
      <trkpt lat="44.488389" lon="4.908784">
        <ele>362.615406</ele>
        <time>2021-07-04T13:04:37.051Z</time>
      </trkpt>
      <trkpt lat="44.488168" lon="4.908539">
        <ele>359.822158</ele>
        <time>2021-07-04T13:04:44.160Z</time>
      </trkpt>
      <trkpt lat="44.487531" lon="4.908111">
        <ele>357.791860</ele>
        <time>2021-07-04T13:05:03.485Z</time>
      </trkpt>
      <trkpt lat="44.487311" lon="4.908001">
        <ele>357.261175</ele>
        <time>2021-07-04T13:05:10.421Z</time>
      </trkpt>
      <trkpt lat="44.487198" lon="4.908016">
        <ele>357.003291</ele>
        <time>2021-07-04T13:05:14.282Z</time>
      </trkpt>
      <trkpt lat="44.487063" lon="4.907843">
        <ele>356.587713</ele>
        <time>2021-07-04T13:05:19.760Z</time>
      </trkpt>
      <trkpt lat="44.486893" lon="4.907740">
        <ele>356.166937</ele>
        <time>2021-07-04T13:05:27.944Z</time>
      </trkpt>
      <trkpt lat="44.486780" lon="4.907542">
        <ele>355.755951</ele>
        <time>2021-07-04T13:05:34.001Z</time>
      </trkpt>
      <trkpt lat="44.486724" lon="4.907644">
        <ele>355.547333</ele>
        <time>2021-07-04T13:05:38.437Z</time>
      </trkpt>
      <trkpt lat="44.486712" lon="4.907782">
        <ele>355.321998</ele>
        <time>2021-07-04T13:05:41.158Z</time>
      </trkpt>
      <trkpt lat="44.486984" lon="4.908259">
        <ele>357.221494</ele>
        <time>2021-07-04T13:05:56.113Z</time>
      </trkpt>
      <trkpt lat="44.486971" lon="4.908360">
        <ele>357.619530</ele>
        <time>2021-07-04T13:05:58.419Z</time>
      </trkpt>
      <trkpt lat="44.486885" lon="4.908379">
        <ele>358.092827</ele>
        <time>2021-07-04T13:06:03.165Z</time>
      </trkpt>
      <trkpt lat="44.486662" lon="4.908307">
        <ele>359.336874</ele>
        <time>2021-07-04T13:06:12.491Z</time>
      </trkpt>
      <trkpt lat="44.485996" lon="4.907809">
        <ele>363.440431</ele>
        <time>2021-07-04T13:06:51.570Z</time>
      </trkpt>
      <trkpt lat="44.485196" lon="4.907545">
        <ele>368.933570</ele>
        <time>2021-07-04T13:07:34.094Z</time>
      </trkpt>
      <trkpt lat="44.484621" lon="4.906819">
        <ele>374.604418</ele>
        <time>2021-07-04T13:08:13.746Z</time>
      </trkpt>
      <trkpt lat="44.484462" lon="4.906742">
        <ele>375.837110</ele>
        <time>2021-07-04T13:08:22.301Z</time>
      </trkpt>
      <trkpt lat="44.484356" lon="4.906755">
        <ele>376.616819</ele>
        <time>2021-07-04T13:08:27.799Z</time>
      </trkpt>
      <trkpt lat="44.484283" lon="4.906800">
        <ele>377.201191</ele>
        <time>2021-07-04T13:08:31.814Z</time>
      </trkpt>
      <trkpt lat="44.484264" lon="4.906903">
        <ele>377.757376</ele>
        <time>2021-07-04T13:08:35.709Z</time>
      </trkpt>
      <trkpt lat="44.484268" lon="4.907467">
        <ele>381.321465</ele>
        <time>2021-07-04T13:08:59.349Z</time>
      </trkpt>
      <trkpt lat="44.484214" lon="4.907604">
        <ele>382.336107</ele>
        <time>2021-07-04T13:09:06.732Z</time>
      </trkpt>
      <trkpt lat="44.483747" lon="4.907730">
        <ele>386.657329</ele>
        <time>2021-07-04T13:09:35.346Z</time>
      </trkpt>
      <trkpt lat="44.483373" lon="4.908197">
        <ele>391.208546</ele>
        <time>2021-07-04T13:10:04.670Z</time>
      </trkpt>
      <trkpt lat="44.483269" lon="4.908266">
        <ele>392.254045</ele>
        <time>2021-07-04T13:10:12.491Z</time>
      </trkpt>
      <trkpt lat="44.483146" lon="4.908282">
        <ele>393.376468</ele>
        <time>2021-07-04T13:10:20.223Z</time>
      </trkpt>
      <trkpt lat="44.482810" lon="4.908494">
        <ele>396.745040</ele>
        <time>2021-07-04T13:10:42.831Z</time>
      </trkpt>
      <trkpt lat="44.482823" lon="4.908061">
        <ele>399.580251</ele>
        <time>2021-07-04T13:11:02.156Z</time>
      </trkpt>
      <trkpt lat="44.482707" lon="4.907685">
        <ele>402.260183</ele>
        <time>2021-07-04T13:11:20.455Z</time>
      </trkpt>
      <trkpt lat="44.482125" lon="4.907667">
        <ele>407.598102</ele>
        <time>2021-07-04T13:11:56.568Z</time>
      </trkpt>
      <trkpt lat="44.482021" lon="4.907573">
        <ele>408.732815</ele>
        <time>2021-07-04T13:12:03.378Z</time>
      </trkpt>
      <trkpt lat="44.481967" lon="4.907459">
        <ele>409.628022</ele>
        <time>2021-07-04T13:12:08.826Z</time>
      </trkpt>
      <trkpt lat="44.481834" lon="4.905301">
        <ele>420.573476</ele>
        <time>2021-07-04T13:13:29.397Z</time>
      </trkpt>
      <trkpt lat="44.481637" lon="4.904668">
        <ele>423.550556</ele>
        <time>2021-07-04T13:13:52.677Z</time>
      </trkpt>
      <trkpt lat="44.481132" lon="4.903872">
        <ele>425.436624</ele>
        <time>2021-07-04T13:14:23.301Z</time>
      </trkpt>
      <trkpt lat="44.480978" lon="4.903770">
        <ele>425.859338</ele>
        <time>2021-07-04T13:14:29.425Z</time>
      </trkpt>
      <trkpt lat="44.480890" lon="4.903771">
        <ele>426.077738</ele>
        <time>2021-07-04T13:14:32.006Z</time>
      </trkpt>
      <trkpt lat="44.480797" lon="4.903865">
        <ele>426.362295</ele>
        <time>2021-07-04T13:14:34.960Z</time>
      </trkpt>
      <trkpt lat="44.480745" lon="4.903887">
        <ele>426.497097</ele>
        <time>2021-07-04T13:14:36.996Z</time>
      </trkpt>
      <trkpt lat="44.480714" lon="4.903848">
        <ele>426.600478</ele>
        <time>2021-07-04T13:14:38.079Z</time>
      </trkpt>
      <trkpt lat="44.480693" lon="4.903786">
        <ele>426.722003</ele>
        <time>2021-07-04T13:14:39.380Z</time>
      </trkpt>
      <trkpt lat="44.480695" lon="4.903710">
        <ele>426.856666</ele>
        <time>2021-07-04T13:14:41.261Z</time>
      </trkpt>
      <trkpt lat="44.480703" lon="4.903402">
        <ele>427.402399</ele>
        <time>2021-07-04T13:14:48.002Z</time>
      </trkpt>
      <trkpt lat="44.480703" lon="4.903251">
        <ele>427.669772</ele>
        <time>2021-07-04T13:14:51.147Z</time>
      </trkpt>
      <trkpt lat="44.480010" lon="4.901288">
        <ele>423.129611</ele>
        <time>2021-07-04T13:15:26.589Z</time>
      </trkpt>
      <trkpt lat="44.479930" lon="4.901132">
        <ele>422.708702</ele>
        <time>2021-07-04T13:15:29.383Z</time>
      </trkpt>
      <trkpt lat="44.479765" lon="4.900982">
        <ele>422.065234</ele>
        <time>2021-07-04T13:15:33.547Z</time>
      </trkpt>
      <trkpt lat="44.479727" lon="4.900907">
        <ele>421.813032</ele>
        <time>2021-07-04T13:15:34.841Z</time>
      </trkpt>
      <trkpt lat="44.479600" lon="4.900659">
        <ele>420.976075</ele>
        <time>2021-07-04T13:15:38.324Z</time>
      </trkpt>
      <trkpt lat="44.478761" lon="4.900379">
        <ele>417.661936</ele>
        <time>2021-07-04T13:15:52.209Z</time>
      </trkpt>
      <trkpt lat="44.477913" lon="4.899273">
        <ele>414.782507</ele>
        <time>2021-07-04T13:16:12.768Z</time>
      </trkpt>
      <trkpt lat="44.477281" lon="4.898896">
        <ele>414.081896</ele>
        <time>2021-07-04T13:16:26.938Z</time>
      </trkpt>
      <trkpt lat="44.476779" lon="4.898415">
        <ele>413.588747</ele>
        <time>2021-07-04T13:16:41.130Z</time>
      </trkpt>
      <trkpt lat="44.475987" lon="4.898067">
        <ele>414.725366</ele>
        <time>2021-07-04T13:17:03.635Z</time>
      </trkpt>
      <trkpt lat="44.475117" lon="4.898078">
        <ele>415.916790</ele>
        <time>2021-07-04T13:17:30.709Z</time>
      </trkpt>
      <trkpt lat="44.474901" lon="4.897955">
        <ele>416.481085</ele>
        <time>2021-07-04T13:17:37.822Z</time>
      </trkpt>
      <trkpt lat="44.474862" lon="4.897899">
        <ele>416.630411</ele>
        <time>2021-07-04T13:17:40.198Z</time>
      </trkpt>
      <trkpt lat="44.474795" lon="4.897690">
        <ele>417.067648</ele>
        <time>2021-07-04T13:17:45.186Z</time>
      </trkpt>
      <trkpt lat="44.474763" lon="4.897566">
        <ele>417.319277</ele>
        <time>2021-07-04T13:17:48.004Z</time>
      </trkpt>
      <trkpt lat="44.474762" lon="4.897516">
        <ele>417.414730</ele>
        <time>2021-07-04T13:17:49.375Z</time>
      </trkpt>
      <trkpt lat="44.474743" lon="4.896517">
        <ele>419.321803</ele>
        <time>2021-07-04T13:18:14.013Z</time>
      </trkpt>
      <trkpt lat="44.474803" lon="4.895563">
        <ele>421.074757</ele>
        <time>2021-07-04T13:18:38.321Z</time>
      </trkpt>
      <trkpt lat="44.474782" lon="4.895323">
        <ele>421.440594</ele>
        <time>2021-07-04T13:18:44.570Z</time>
      </trkpt>
      <trkpt lat="44.475007" lon="4.894304">
        <ele>423.054453</ele>
        <time>2021-07-04T13:19:09.933Z</time>
      </trkpt>
      <trkpt lat="44.475028" lon="4.893807">
        <ele>423.807722</ele>
        <time>2021-07-04T13:19:20.957Z</time>
      </trkpt>
      <trkpt lat="44.474948" lon="4.893016">
        <ele>424.502490</ele>
        <time>2021-07-04T13:19:37.000Z</time>
      </trkpt>
      <trkpt lat="44.474992" lon="4.891606">
        <ele>423.984176</ele>
        <time>2021-07-04T13:19:59.378Z</time>
      </trkpt>
      <trkpt lat="44.475054" lon="4.890955">
        <ele>423.742977</ele>
        <time>2021-07-04T13:20:08.339Z</time>
      </trkpt>
      <trkpt lat="44.475187" lon="4.890215">
        <ele>422.525812</ele>
        <time>2021-07-04T13:20:18.257Z</time>
      </trkpt>
      <trkpt lat="44.475195" lon="4.889922">
        <ele>421.947653</ele>
        <time>2021-07-04T13:20:21.985Z</time>
      </trkpt>
      <trkpt lat="44.475316" lon="4.889344">
        <ele>420.759920</ele>
        <time>2021-07-04T13:20:29.531Z</time>
      </trkpt>
      <trkpt lat="44.475318" lon="4.888919">
        <ele>419.921890</ele>
        <time>2021-07-04T13:20:34.773Z</time>
      </trkpt>
      <trkpt lat="44.475072" lon="4.887891">
        <ele>417.346524</ele>
        <time>2021-07-04T13:20:47.912Z</time>
      </trkpt>
      <trkpt lat="44.474979" lon="4.887163">
        <ele>415.197114</ele>
        <time>2021-07-04T13:20:56.688Z</time>
      </trkpt>
      <trkpt lat="44.474833" lon="4.886713">
        <ele>413.760443</ele>
        <time>2021-07-04T13:21:02.465Z</time>
      </trkpt>
      <trkpt lat="44.474562" lon="4.886253">
        <ele>412.026777</ele>
        <time>2021-07-04T13:21:09.354Z</time>
      </trkpt>
      <trkpt lat="44.474120" lon="4.885752">
        <ele>409.381896</ele>
        <time>2021-07-04T13:21:18.423Z</time>
      </trkpt>
      <trkpt lat="44.473700" lon="4.885038">
        <ele>406.161875</ele>
        <time>2021-07-04T13:21:28.895Z</time>
      </trkpt>
      <trkpt lat="44.473260" lon="4.884806">
        <ele>403.869273</ele>
        <time>2021-07-04T13:21:36.324Z</time>
      </trkpt>
      <trkpt lat="44.473068" lon="4.884642">
        <ele>402.772728</ele>
        <time>2021-07-04T13:21:39.898Z</time>
      </trkpt>
      <trkpt lat="44.471717" lon="4.883037">
        <ele>394.457704</ele>
        <time>2021-07-04T13:22:08.314Z</time>
      </trkpt>
      <trkpt lat="44.471170" lon="4.882165">
        <ele>390.837740</ele>
        <time>2021-07-04T13:22:21.756Z</time>
      </trkpt>
      <trkpt lat="44.470283" lon="4.881573">
        <ele>386.570178</ele>
        <time>2021-07-04T13:22:37.739Z</time>
      </trkpt>
      <trkpt lat="44.469920" lon="4.880500">
        <ele>383.398508</ele>
        <time>2021-07-04T13:22:51.718Z</time>
      </trkpt>
      <trkpt lat="44.469618" lon="4.880092">
        <ele>381.843746</ele>
        <time>2021-07-04T13:22:58.777Z</time>
      </trkpt>
      <trkpt lat="44.469504" lon="4.879806">
        <ele>380.977310</ele>
        <time>2021-07-04T13:23:02.759Z</time>
      </trkpt>
      <trkpt lat="44.469371" lon="4.878906">
        <ele>378.814882</ele>
        <time>2021-07-04T13:23:13.887Z</time>
      </trkpt>
      <trkpt lat="44.469145" lon="4.878268">
        <ele>377.372193</ele>
        <time>2021-07-04T13:23:22.572Z</time>
      </trkpt>
      <trkpt lat="44.468954" lon="4.877923">
        <ele>376.487781</ele>
        <time>2021-07-04T13:23:28.007Z</time>
      </trkpt>
      <trkpt lat="44.468878" lon="4.877631">
        <ele>375.858234</ele>
        <time>2021-07-04T13:23:31.954Z</time>
      </trkpt>
      <trkpt lat="44.468836" lon="4.877470">
        <ele>375.511027</ele>
        <time>2021-07-04T13:23:34.097Z</time>
      </trkpt>
      <trkpt lat="44.468756" lon="4.877133">
        <ele>374.791666</ele>
        <time>2021-07-04T13:23:38.695Z</time>
      </trkpt>
      <trkpt lat="44.468634" lon="4.876964">
        <ele>374.480007</ele>
        <time>2021-07-04T13:23:41.707Z</time>
      </trkpt>
      <trkpt lat="44.468453" lon="4.876968">
        <ele>374.284431</ele>
        <time>2021-07-04T13:23:45.198Z</time>
      </trkpt>
      <trkpt lat="44.468362" lon="4.876892">
        <ele>374.169977</ele>
        <time>2021-07-04T13:23:47.268Z</time>
      </trkpt>
      <trkpt lat="44.468334" lon="4.876767">
        <ele>374.068965</ele>
        <time>2021-07-04T13:23:48.993Z</time>
      </trkpt>
      <trkpt lat="44.468028" lon="4.876893">
        <ele>373.724385</ele>
        <time>2021-07-04T13:23:57.219Z</time>
      </trkpt>
      <trkpt lat="44.467926" lon="4.876980">
        <ele>373.595375</ele>
        <time>2021-07-04T13:24:00.245Z</time>
      </trkpt>
      <trkpt lat="44.467850" lon="4.877142">
        <ele>373.445898</ele>
        <time>2021-07-04T13:24:03.841Z</time>
      </trkpt>
      <trkpt lat="44.467530" lon="4.878011">
        <ele>372.691943</ele>
        <time>2021-07-04T13:24:23.295Z</time>
      </trkpt>
      <trkpt lat="44.467461" lon="4.878071">
        <ele>372.606840</ele>
        <time>2021-07-04T13:24:25.901Z</time>
      </trkpt>
      <trkpt lat="44.467456" lon="4.878150">
        <ele>372.549688</ele>
        <time>2021-07-04T13:24:27.053Z</time>
      </trkpt>
      <trkpt lat="44.467305" lon="4.878351">
        <ele>372.339383</ele>
        <time>2021-07-04T13:24:31.311Z</time>
      </trkpt>
      <trkpt lat="44.467175" lon="4.878373">
        <ele>372.207160</ele>
        <time>2021-07-04T13:24:34.602Z</time>
      </trkpt>
      <trkpt lat="44.466621" lon="4.878008">
        <ele>371.589001</ele>
        <time>2021-07-04T13:24:47.000Z</time>
      </trkpt>
      <trkpt lat="44.466327" lon="4.877982">
        <ele>371.291540</ele>
        <time>2021-07-04T13:24:52.637Z</time>
      </trkpt>
      <trkpt lat="44.466063" lon="4.878074">
        <ele>371.016842</ele>
        <time>2021-07-04T13:24:57.706Z</time>
      </trkpt>
      <trkpt lat="44.465906" lon="4.878167">
        <ele>370.844725</ele>
        <time>2021-07-04T13:25:00.581Z</time>
      </trkpt>
      <trkpt lat="44.465676" lon="4.877696">
        <ele>369.383764</ele>
        <time>2021-07-04T13:25:12.979Z</time>
      </trkpt>
      <trkpt lat="44.465407" lon="4.877450">
        <ele>368.197027</ele>
        <time>2021-07-04T13:25:22.422Z</time>
      </trkpt>
      <trkpt lat="44.465260" lon="4.877324">
        <ele>367.560389</ele>
        <time>2021-07-04T13:25:27.482Z</time>
      </trkpt>
      <trkpt lat="44.464586" lon="4.875996">
        <ele>362.867411</ele>
        <time>2021-07-04T13:25:59.932Z</time>
      </trkpt>
      <trkpt lat="44.464376" lon="4.875690">
        <ele>361.265550</ele>
        <time>2021-07-04T13:26:08.272Z</time>
      </trkpt>
      <trkpt lat="44.463759" lon="4.875151">
        <ele>357.421306</ele>
        <time>2021-07-04T13:26:28.243Z</time>
      </trkpt>
      <trkpt lat="44.463225" lon="4.874395">
        <ele>353.352894</ele>
        <time>2021-07-04T13:26:48.383Z</time>
      </trkpt>
      <trkpt lat="44.463049" lon="4.873209">
        <ele>348.583998</ele>
        <time>2021-07-04T13:27:11.586Z</time>
      </trkpt>
      <trkpt lat="44.462938" lon="4.872922">
        <ele>347.298902</ele>
        <time>2021-07-04T13:27:17.876Z</time>
      </trkpt>
      <trkpt lat="44.462821" lon="4.872694">
        <ele>346.193379</ele>
        <time>2021-07-04T13:27:23.364Z</time>
      </trkpt>
      <trkpt lat="44.462460" lon="4.872115">
        <ele>343.725052</ele>
        <time>2021-07-04T13:27:38.721Z</time>
      </trkpt>
      <trkpt lat="44.462375" lon="4.871750">
        <ele>342.745840</ele>
        <time>2021-07-04T13:27:46.492Z</time>
      </trkpt>
      <trkpt lat="44.462339" lon="4.871007">
        <ele>340.846501</ele>
        <time>2021-07-04T13:28:01.817Z</time>
      </trkpt>
      <trkpt lat="44.462515" lon="4.870251">
        <ele>338.818386</ele>
        <time>2021-07-04T13:28:19.271Z</time>
      </trkpt>
      <trkpt lat="44.462557" lon="4.869891">
        <ele>337.964155</ele>
        <time>2021-07-04T13:28:27.122Z</time>
      </trkpt>
      <trkpt lat="44.462496" lon="4.869140">
        <ele>336.372339</ele>
        <time>2021-07-04T13:28:43.694Z</time>
      </trkpt>
      <trkpt lat="44.462475" lon="4.869109">
        <ele>336.282328</ele>
        <time>2021-07-04T13:28:44.588Z</time>
      </trkpt>
      <trkpt lat="44.462435" lon="4.869049">
        <ele>336.109416</ele>
        <time>2021-07-04T13:28:46.166Z</time>
      </trkpt>
      <trkpt lat="44.461998" lon="4.868738">
        <ele>334.663119</ele>
        <time>2021-07-04T13:29:00.901Z</time>
      </trkpt>
      <trkpt lat="44.461615" lon="4.868271">
        <ele>333.164939</ele>
        <time>2021-07-04T13:29:16.048Z</time>
      </trkpt>
      <trkpt lat="44.461280" lon="4.867694">
        <ele>331.644205</ele>
        <time>2021-07-04T13:29:31.298Z</time>
      </trkpt>
      <trkpt lat="44.461083" lon="4.867485">
        <ele>330.938557</ele>
        <time>2021-07-04T13:29:38.655Z</time>
      </trkpt>
      <trkpt lat="44.460612" lon="4.867145">
        <ele>329.425512</ele>
        <time>2021-07-04T13:29:54.601Z</time>
      </trkpt>
      <trkpt lat="44.460321" lon="4.866691">
        <ele>328.181802</ele>
        <time>2021-07-04T13:30:08.072Z</time>
      </trkpt>
      <trkpt lat="44.460187" lon="4.866294">
        <ele>327.412476</ele>
        <time>2021-07-04T13:30:17.757Z</time>
      </trkpt>
      <trkpt lat="44.459977" lon="4.865806">
        <ele>326.496781</ele>
        <time>2021-07-04T13:30:30.578Z</time>
      </trkpt>
      <trkpt lat="44.459389" lon="4.864900">
        <ele>324.528982</ele>
        <time>2021-07-04T13:30:57.957Z</time>
      </trkpt>
      <trkpt lat="44.459370" lon="4.864880">
        <ele>324.475477</ele>
        <time>2021-07-04T13:30:58.661Z</time>
      </trkpt>
      <trkpt lat="44.459257" lon="4.864763">
        <ele>324.159129</ele>
        <time>2021-07-04T13:31:02.933Z</time>
      </trkpt>
      <trkpt lat="44.458969" lon="4.864420">
        <ele>323.148107</ele>
        <time>2021-07-04T13:31:14.737Z</time>
      </trkpt>
      <trkpt lat="44.458128" lon="4.862746">
        <ele>318.852939</ele>
        <time>2021-07-04T13:31:58.357Z</time>
      </trkpt>
      <trkpt lat="44.457748" lon="4.861809">
        <ele>316.218307</ele>
        <time>2021-07-04T13:32:20.773Z</time>
      </trkpt>
      <trkpt lat="44.457344" lon="4.861029">
        <ele>313.809452</ele>
        <time>2021-07-04T13:32:40.783Z</time>
      </trkpt>
      <trkpt lat="44.457233" lon="4.860563">
        <ele>312.581521</ele>
        <time>2021-07-04T13:32:50.989Z</time>
      </trkpt>
      <trkpt lat="44.456914" lon="4.859972">
        <ele>310.527334</ele>
        <time>2021-07-04T13:33:06.254Z</time>
      </trkpt>
      <trkpt lat="44.456031" lon="4.859476">
        <ele>306.751750</ele>
        <time>2021-07-04T13:33:33.474Z</time>
      </trkpt>
      <trkpt lat="44.455774" lon="4.859412">
        <ele>305.715797</ele>
        <time>2021-07-04T13:33:40.925Z</time>
      </trkpt>
      <trkpt lat="44.455200" lon="4.859044">
        <ele>302.873465</ele>
        <time>2021-07-04T13:33:58.452Z</time>
      </trkpt>
      <trkpt lat="44.454488" lon="4.858266">
        <ele>298.652974</ele>
        <time>2021-07-04T13:34:23.555Z</time>
      </trkpt>
      <trkpt lat="44.454360" lon="4.858116">
        <ele>297.872980</ele>
        <time>2021-07-04T13:34:28.168Z</time>
      </trkpt>
      <trkpt lat="44.454341" lon="4.858041">
        <ele>297.607461</ele>
        <time>2021-07-04T13:34:29.027Z</time>
      </trkpt>
      <trkpt lat="44.454329" lon="4.857282">
        <ele>295.048336</ele>
        <time>2021-07-04T13:34:37.798Z</time>
      </trkpt>
      <trkpt lat="44.453781" lon="4.856628">
        <ele>291.629335</ele>
        <time>2021-07-04T13:34:49.250Z</time>
      </trkpt>
      <trkpt lat="44.453571" lon="4.856429">
        <ele>290.425225</ele>
        <time>2021-07-04T13:34:53.233Z</time>
      </trkpt>
      <trkpt lat="44.452995" lon="4.856247">
        <ele>287.626115</ele>
        <time>2021-07-04T13:35:02.829Z</time>
      </trkpt>
      <trkpt lat="44.452060" lon="4.855598">
        <ele>282.718616</ele>
        <time>2021-07-04T13:35:19.574Z</time>
      </trkpt>
      <trkpt lat="44.451670" lon="4.855179">
        <ele>280.407143</ele>
        <time>2021-07-04T13:35:27.447Z</time>
      </trkpt>
      <trkpt lat="44.451396" lon="4.854637">
        <ele>278.165266</ele>
        <time>2021-07-04T13:35:34.962Z</time>
      </trkpt>
      <trkpt lat="44.450808" lon="4.854047">
        <ele>274.736447</ele>
        <time>2021-07-04T13:35:46.457Z</time>
      </trkpt>
      <trkpt lat="44.450232" lon="4.853457">
        <ele>271.353703</ele>
        <time>2021-07-04T13:35:57.895Z</time>
      </trkpt>
      <trkpt lat="44.450084" lon="4.853385">
        <ele>270.740213</ele>
        <time>2021-07-04T13:36:00.401Z</time>
      </trkpt>
      <trkpt lat="44.449876" lon="4.853173">
        <ele>269.801635</ele>
        <time>2021-07-04T13:36:04.634Z</time>
      </trkpt>
      <trkpt lat="44.449452" lon="4.852567">
        <ele>267.591419</ele>
        <time>2021-07-04T13:36:14.758Z</time>
      </trkpt>
      <trkpt lat="44.449437" lon="4.852548">
        <ele>267.517630</ele>
        <time>2021-07-04T13:36:15.050Z</time>
      </trkpt>
      <trkpt lat="44.449285" lon="4.852360">
        <ele>266.777766</ele>
        <time>2021-07-04T13:36:18.424Z</time>
      </trkpt>
      <trkpt lat="44.449121" lon="4.852172">
        <ele>266.004535</ele>
        <time>2021-07-04T13:36:22.063Z</time>
      </trkpt>
      <trkpt lat="44.448786" lon="4.851443">
        <ele>263.905816</ele>
        <time>2021-07-04T13:36:32.944Z</time>
      </trkpt>
      <trkpt lat="44.448459" lon="4.850952">
        <ele>262.480142</ele>
        <time>2021-07-04T13:36:41.358Z</time>
      </trkpt>
      <trkpt lat="44.448274" lon="4.850711">
        <ele>261.728779</ele>
        <time>2021-07-04T13:36:45.893Z</time>
      </trkpt>
      <trkpt lat="44.447953" lon="4.850292">
        <ele>260.423857</ele>
        <time>2021-07-04T13:36:53.595Z</time>
      </trkpt>
      <trkpt lat="44.447148" lon="4.849516">
        <ele>256.918518</ele>
        <time>2021-07-04T13:37:09.887Z</time>
      </trkpt>
      <trkpt lat="44.447018" lon="4.849385">
        <ele>256.278475</ele>
        <time>2021-07-04T13:37:12.650Z</time>
      </trkpt>
      <trkpt lat="44.446816" lon="4.849177">
        <ele>255.276485</ele>
        <time>2021-07-04T13:37:16.667Z</time>
      </trkpt>
      <trkpt lat="44.446356" lon="4.848809">
        <ele>253.159306</ele>
        <time>2021-07-04T13:37:25.305Z</time>
      </trkpt>
      <trkpt lat="44.446318" lon="4.848756">
        <ele>252.944985</ele>
        <time>2021-07-04T13:37:26.095Z</time>
      </trkpt>
      <trkpt lat="44.446247" lon="4.848659">
        <ele>252.548600</ele>
        <time>2021-07-04T13:37:27.652Z</time>
      </trkpt>
      <trkpt lat="44.446159" lon="4.848522">
        <ele>252.052536</ele>
        <time>2021-07-04T13:37:29.906Z</time>
      </trkpt>
      <trkpt lat="44.446121" lon="4.848431">
        <ele>251.936251</ele>
        <time>2021-07-04T13:37:31.156Z</time>
      </trkpt>
      <trkpt lat="44.446060" lon="4.848284">
        <ele>251.748705</ele>
        <time>2021-07-04T13:37:33.097Z</time>
      </trkpt>
      <trkpt lat="44.446044" lon="4.848246">
        <ele>251.700043</ele>
        <time>2021-07-04T13:37:33.577Z</time>
      </trkpt>
      <trkpt lat="44.445910" lon="4.847645">
        <ele>251.005548</ele>
        <time>2021-07-04T13:37:41.436Z</time>
      </trkpt>
      <trkpt lat="44.445903" lon="4.847606">
        <ele>250.961191</ele>
        <time>2021-07-04T13:37:41.898Z</time>
      </trkpt>
      <trkpt lat="44.445890" lon="4.847533">
        <ele>250.878203</ele>
        <time>2021-07-04T13:37:42.916Z</time>
      </trkpt>
      <trkpt lat="44.445851" lon="4.847302">
        <ele>250.616376</ele>
        <time>2021-07-04T13:37:45.917Z</time>
      </trkpt>
      <trkpt lat="44.445787" lon="4.847087">
        <ele>250.359435</ele>
        <time>2021-07-04T13:37:49.322Z</time>
      </trkpt>
      <trkpt lat="44.445686" lon="4.846807">
        <ele>250.013402</ele>
        <time>2021-07-04T13:37:53.506Z</time>
      </trkpt>
      <trkpt lat="44.445671" lon="4.846765">
        <ele>249.961602</ele>
        <time>2021-07-04T13:37:54.524Z</time>
      </trkpt>
      <trkpt lat="44.445625" lon="4.846638">
        <ele>249.804519</ele>
        <time>2021-07-04T13:37:56.938Z</time>
      </trkpt>
      <trkpt lat="44.445607" lon="4.846588">
        <ele>249.742752</ele>
        <time>2021-07-04T13:37:57.856Z</time>
      </trkpt>
      <trkpt lat="44.445504" lon="4.846225">
        <ele>249.311885</ele>
        <time>2021-07-04T13:38:05.343Z</time>
      </trkpt>
      <trkpt lat="44.444732" lon="4.845348">
        <ele>251.999722</ele>
        <time>2021-07-04T13:38:40.233Z</time>
      </trkpt>
      <trkpt lat="44.444587" lon="4.845189">
        <ele>252.507782</ele>
        <time>2021-07-04T13:38:47.086Z</time>
      </trkpt>
      <trkpt lat="44.444480" lon="4.845081">
        <ele>252.871654</ele>
        <time>2021-07-04T13:38:52.216Z</time>
      </trkpt>
      <trkpt lat="44.444164" lon="4.844763">
        <ele>253.945171</ele>
        <time>2021-07-04T13:39:05.697Z</time>
      </trkpt>
      <trkpt lat="44.443976" lon="4.844690">
        <ele>254.256931</ele>
        <time>2021-07-04T13:39:11.918Z</time>
      </trkpt>
      <trkpt lat="44.443957" lon="4.844602">
        <ele>254.258681</ele>
        <time>2021-07-04T13:39:14.017Z</time>
      </trkpt>
      <trkpt lat="44.443975" lon="4.844232">
        <ele>254.265739</ele>
        <time>2021-07-04T13:39:21.880Z</time>
      </trkpt>
      <trkpt lat="44.443980" lon="4.844185">
        <ele>254.266644</ele>
        <time>2021-07-04T13:39:22.871Z</time>
      </trkpt>
      <trkpt lat="44.443685" lon="4.844110">
        <ele>254.274637</ele>
        <time>2021-07-04T13:39:33.245Z</time>
      </trkpt>
      <trkpt lat="44.443649" lon="4.844101">
        <ele>254.275611</ele>
        <time>2021-07-04T13:39:34.390Z</time>
      </trkpt>
      <trkpt lat="44.443493" lon="4.844060">
        <ele>254.279843</ele>
        <time>2021-07-04T13:39:38.921Z</time>
      </trkpt>
      <trkpt lat="44.443417" lon="4.844040">
        <ele>254.281904</ele>
        <time>2021-07-04T13:39:41.171Z</time>
      </trkpt>
      <trkpt lat="44.443264" lon="4.843927">
        <ele>254.286515</ele>
        <time>2021-07-04T13:39:45.980Z</time>
      </trkpt>
      <trkpt lat="44.443226" lon="4.843904">
        <ele>254.287619</ele>
        <time>2021-07-04T13:39:46.721Z</time>
      </trkpt>
      <trkpt lat="44.443023" lon="4.843782">
        <ele>254.293508</ele>
        <time>2021-07-04T13:39:50.865Z</time>
      </trkpt>
      <trkpt lat="44.442853" lon="4.843658">
        <ele>254.298617</ele>
        <time>2021-07-04T13:39:54.168Z</time>
      </trkpt>
      <trkpt lat="44.442419" lon="4.843156">
        <ele>253.019781</ele>
        <time>2021-07-04T13:40:04.014Z</time>
      </trkpt>
      <trkpt lat="44.442191" lon="4.843191">
        <ele>252.303513</ele>
        <time>2021-07-04T13:40:07.822Z</time>
      </trkpt>
      <trkpt lat="44.441446" lon="4.843307">
        <ele>249.962673</ele>
        <time>2021-07-04T13:40:20.532Z</time>
      </trkpt>
      <trkpt lat="44.441059" lon="4.843307">
        <ele>248.754137</ele>
        <time>2021-07-04T13:40:27.078Z</time>
      </trkpt>
      <trkpt lat="44.440274" lon="4.843028">
        <ele>245.627239</ele>
        <time>2021-07-04T13:40:40.940Z</time>
      </trkpt>
      <trkpt lat="44.440077" lon="4.843049">
        <ele>244.860385</ele>
        <time>2021-07-04T13:40:44.215Z</time>
      </trkpt>
      <trkpt lat="44.438763" lon="4.842808">
        <ele>239.568131</ele>
        <time>2021-07-04T13:41:05.580Z</time>
      </trkpt>
      <trkpt lat="44.438631" lon="4.842768">
        <ele>239.004765</ele>
        <time>2021-07-04T13:41:07.790Z</time>
      </trkpt>
      <trkpt lat="44.438585" lon="4.842754">
        <ele>238.808402</ele>
        <time>2021-07-04T13:41:08.466Z</time>
      </trkpt>
      <trkpt lat="44.438118" lon="4.842660">
        <ele>236.840342</ele>
        <time>2021-07-04T13:41:16.161Z</time>
      </trkpt>
      <trkpt lat="44.437754" lon="4.842333">
        <ele>235.036438</ele>
        <time>2021-07-04T13:41:23.391Z</time>
      </trkpt>
      <trkpt lat="44.437674" lon="4.842078">
        <ele>234.206857</ele>
        <time>2021-07-04T13:41:26.621Z</time>
      </trkpt>
      <trkpt lat="44.437618" lon="4.842003">
        <ele>234.030518</ele>
        <time>2021-07-04T13:41:27.874Z</time>
      </trkpt>
      <trkpt lat="44.437465" lon="4.841948">
        <ele>233.675946</ele>
        <time>2021-07-04T13:41:30.745Z</time>
      </trkpt>
      <trkpt lat="44.437388" lon="4.841942">
        <ele>233.502837</ele>
        <time>2021-07-04T13:41:31.966Z</time>
      </trkpt>
      <trkpt lat="44.437133" lon="4.841862">
        <ele>232.916253</ele>
        <time>2021-07-04T13:41:36.529Z</time>
      </trkpt>
      <trkpt lat="44.435915" lon="4.841371">
        <ele>230.103938</ele>
        <time>2021-07-04T13:42:00.352Z</time>
      </trkpt>
      <trkpt lat="44.435716" lon="4.841121">
        <ele>229.715048</ele>
        <time>2021-07-04T13:42:05.643Z</time>
      </trkpt>
      <trkpt lat="44.434795" lon="4.838667">
        <ele>227.108049</ele>
        <time>2021-07-04T13:42:43.891Z</time>
      </trkpt>
      <trkpt lat="44.434362" lon="4.837243">
        <ele>226.115763</ele>
        <time>2021-07-04T13:43:06.911Z</time>
      </trkpt>
      <trkpt lat="44.434073" lon="4.836849">
        <ele>225.833745</ele>
        <time>2021-07-04T13:43:15.902Z</time>
      </trkpt>
      <trkpt lat="44.434011" lon="4.836597">
        <ele>225.739276</ele>
        <time>2021-07-04T13:43:20.139Z</time>
      </trkpt>
      <trkpt lat="44.433966" lon="4.835840">
        <ele>225.470044</ele>
        <time>2021-07-04T13:43:32.260Z</time>
      </trkpt>
      <trkpt lat="44.433945" lon="4.835809">
        <ele>225.454899</ele>
        <time>2021-07-04T13:43:32.992Z</time>
      </trkpt>
      <trkpt lat="44.433916" lon="4.835765">
        <ele>225.433677</ele>
        <time>2021-07-04T13:43:33.903Z</time>
      </trkpt>
      <trkpt lat="44.433835" lon="4.835690">
        <ele>225.385478</ele>
        <time>2021-07-04T13:43:35.956Z</time>
      </trkpt>
      <trkpt lat="44.433661" lon="4.835588">
        <ele>225.291851</ele>
        <time>2021-07-04T13:43:40.103Z</time>
      </trkpt>
      <trkpt lat="44.433232" lon="4.835406">
        <ele>225.069356</ele>
        <time>2021-07-04T13:43:49.615Z</time>
      </trkpt>
      <trkpt lat="44.432792" lon="4.834990">
        <ele>224.261015</ele>
        <time>2021-07-04T13:44:00.255Z</time>
      </trkpt>
      <trkpt lat="44.432280" lon="4.834234">
        <ele>223.032457</ele>
        <time>2021-07-04T13:44:14.357Z</time>
      </trkpt>
      <trkpt lat="44.431675" lon="4.834250">
        <ele>221.995408</ele>
        <time>2021-07-04T13:44:25.411Z</time>
      </trkpt>
      <trkpt lat="44.430955" lon="4.834089">
        <ele>219.550570</ele>
        <time>2021-07-04T13:44:38.233Z</time>
      </trkpt>
      <trkpt lat="44.430171" lon="4.833791">
        <ele>216.826598</ele>
        <time>2021-07-04T13:44:51.873Z</time>
      </trkpt>
      <trkpt lat="44.429631" lon="4.833457">
        <ele>213.522562</ele>
        <time>2021-07-04T13:45:01.410Z</time>
      </trkpt>
      <trkpt lat="44.429516" lon="4.833296">
        <ele>212.371272</ele>
        <time>2021-07-04T13:45:03.944Z</time>
      </trkpt>
      <trkpt lat="44.429313" lon="4.833215">
        <ele>210.876853</ele>
        <time>2021-07-04T13:45:07.183Z</time>
      </trkpt>
      <trkpt lat="44.429057" lon="4.832915">
        <ele>208.513486</ele>
        <time>2021-07-04T13:45:12.208Z</time>
      </trkpt>
      <trkpt lat="44.429041" lon="4.832810">
        <ele>207.970670</ele>
        <time>2021-07-04T13:45:13.337Z</time>
      </trkpt>
      <trkpt lat="44.429089" lon="4.832676">
        <ele>207.212730</ele>
        <time>2021-07-04T13:45:14.913Z</time>
      </trkpt>
      <trkpt lat="44.429194" lon="4.832553">
        <ele>206.243533</ele>
        <time>2021-07-04T13:45:16.919Z</time>
      </trkpt>
      <trkpt lat="44.429225" lon="4.832274">
        <ele>204.815980</ele>
        <time>2021-07-04T13:45:19.838Z</time>
      </trkpt>
      <trkpt lat="44.429193" lon="4.832199">
        <ele>204.374266</ele>
        <time>2021-07-04T13:45:20.743Z</time>
      </trkpt>
      <trkpt lat="44.429143" lon="4.832172">
        <ele>203.994864</ele>
        <time>2021-07-04T13:45:21.512Z</time>
      </trkpt>
      <trkpt lat="44.428679" lon="4.832454">
        <ele>198.345694</ele>
        <time>2021-07-04T13:45:28.690Z</time>
      </trkpt>
      <trkpt lat="44.428493" lon="4.832504">
        <ele>196.045606</ele>
        <time>2021-07-04T13:45:31.353Z</time>
      </trkpt>
      <trkpt lat="44.428172" lon="4.832534">
        <ele>192.138608</ele>
        <time>2021-07-04T13:45:35.837Z</time>
      </trkpt>
      <trkpt lat="44.428018" lon="4.832478">
        <ele>190.206353</ele>
        <time>2021-07-04T13:45:38.028Z</time>
      </trkpt>
      <trkpt lat="44.427884" lon="4.832349">
        <ele>188.231542</ele>
        <time>2021-07-04T13:45:40.272Z</time>
      </trkpt>
      <trkpt lat="44.427737" lon="4.832070">
        <ele>185.224584</ele>
        <time>2021-07-04T13:45:43.676Z</time>
      </trkpt>
      <trkpt lat="44.427614" lon="4.831536">
        <ele>180.241585</ele>
        <time>2021-07-04T13:45:49.162Z</time>
      </trkpt>
      <trkpt lat="44.427239" lon="4.830517">
        <ele>169.246509</ele>
        <time>2021-07-04T13:46:00.385Z</time>
      </trkpt>
      <trkpt lat="44.427346" lon="4.829745">
        <ele>161.703730</ele>
        <time>2021-07-04T13:46:08.147Z</time>
      </trkpt>
      <trkpt lat="44.427210" lon="4.829342">
        <ele>157.428517</ele>
        <time>2021-07-04T13:46:12.567Z</time>
      </trkpt>
      <trkpt lat="44.426917" lon="4.829042">
        <ele>153.657159</ele>
        <time>2021-07-04T13:46:17.602Z</time>
      </trkpt>
      <trkpt lat="44.426723" lon="4.828460">
        <ele>148.927861</ele>
        <time>2021-07-04T13:46:24.036Z</time>
      </trkpt>
      <trkpt lat="44.426249" lon="4.828424">
        <ele>144.033409</ele>
        <time>2021-07-04T13:46:30.839Z</time>
      </trkpt>
      <trkpt lat="44.426145" lon="4.828344">
        <ele>142.809947</ele>
        <time>2021-07-04T13:46:32.554Z</time>
      </trkpt>
      <trkpt lat="44.426024" lon="4.828053">
        <ele>140.330452</ele>
        <time>2021-07-04T13:46:36.030Z</time>
      </trkpt>
      <trkpt lat="44.425854" lon="4.827610">
        <ele>137.473667</ele>
        <time>2021-07-04T13:46:41.315Z</time>
      </trkpt>
      <trkpt lat="44.425622" lon="4.826611">
        <ele>132.809484</ele>
        <time>2021-07-04T13:46:52.651Z</time>
      </trkpt>
      <trkpt lat="44.425573" lon="4.826404">
        <ele>131.841230</ele>
        <time>2021-07-04T13:46:55.002Z</time>
      </trkpt>
      <trkpt lat="44.425448" lon="4.825879">
        <ele>129.384089</ele>
        <time>2021-07-04T13:47:01.223Z</time>
      </trkpt>
      <trkpt lat="44.425284" lon="4.825190">
        <ele>126.826179</ele>
        <time>2021-07-04T13:47:09.909Z</time>
      </trkpt>
      <trkpt lat="44.425047" lon="4.823782">
        <ele>123.424899</ele>
        <time>2021-07-04T13:47:27.437Z</time>
      </trkpt>
      <trkpt lat="44.424901" lon="4.822795">
        <ele>121.161587</ele>
        <time>2021-07-04T13:47:40.280Z</time>
      </trkpt>
      <trkpt lat="44.422522" lon="4.822722">
        <ele>114.873104</ele>
        <time>2021-07-04T13:48:22.038Z</time>
      </trkpt>
      <trkpt lat="44.421928" lon="4.822694">
        <ele>113.383602</ele>
        <time>2021-07-04T13:48:32.563Z</time>
      </trkpt>
      <trkpt lat="44.421875" lon="4.822689">
        <ele>113.250474</ele>
        <time>2021-07-04T13:48:33.711Z</time>
      </trkpt>
      <trkpt lat="44.419829" lon="4.822660">
        <ele>109.211658</ele>
        <time>2021-07-04T13:49:22.969Z</time>
      </trkpt>
      <trkpt lat="44.419768" lon="4.822648">
        <ele>109.097739</ele>
        <time>2021-07-04T13:49:24.498Z</time>
      </trkpt>
      <trkpt lat="44.418735" lon="4.821663">
        <ele>108.137185</ele>
        <time>2021-07-04T13:49:57.776Z</time>
      </trkpt>
      <trkpt lat="44.418014" lon="4.821354">
        <ele>107.740108</ele>
        <time>2021-07-04T13:50:19.259Z</time>
      </trkpt>
      <trkpt lat="44.417931" lon="4.821586">
        <ele>107.798327</ele>
        <time>2021-07-04T13:50:24.648Z</time>
      </trkpt>
      <trkpt lat="44.418014" lon="4.821354">
        <ele>107.856545</ele>
        <time>2021-07-04T13:50:30.091Z</time>
      </trkpt>
      <trkpt lat="44.418735" lon="4.821663">
        <ele>108.093406</ele>
        <time>2021-07-04T13:50:52.775Z</time>
      </trkpt>
      <trkpt lat="44.419768" lon="4.822648">
        <ele>109.164714</ele>
        <time>2021-07-04T13:51:33.427Z</time>
      </trkpt>
      <trkpt lat="44.419829" lon="4.822660">
        <ele>109.243611</ele>
        <time>2021-07-04T13:51:35.629Z</time>
      </trkpt>
      <trkpt lat="44.421875" lon="4.822689">
        <ele>112.083844</ele>
        <time>2021-07-04T13:52:48.456Z</time>
      </trkpt>
      <trkpt lat="44.421928" lon="4.822694">
        <ele>112.163415</ele>
        <time>2021-07-04T13:52:50.656Z</time>
      </trkpt>
      <trkpt lat="44.421907" lon="4.823133">
        <ele>112.634129</ele>
        <time>2021-07-04T13:52:59.286Z</time>
      </trkpt>
      <trkpt lat="44.421740" lon="4.825945">
        <ele>115.407728</ele>
        <time>2021-07-04T13:53:54.708Z</time>
      </trkpt>
      <trkpt lat="44.421283" lon="4.829789">
        <ele>118.595019</ele>
        <time>2021-07-04T13:55:12.245Z</time>
      </trkpt>
      <trkpt lat="44.421166" lon="4.830773">
        <ele>119.019279</ele>
        <time>2021-07-04T13:55:29.177Z</time>
      </trkpt>
      <trkpt lat="44.420833" lon="4.833583">
        <ele>118.098531</ele>
        <time>2021-07-04T13:56:10.329Z</time>
      </trkpt>
      <trkpt lat="44.420691" lon="4.834182">
        <ele>117.817509</ele>
        <time>2021-07-04T13:56:19.060Z</time>
      </trkpt>
      <trkpt lat="44.420366" lon="4.834347">
        <ele>117.602871</ele>
        <time>2021-07-04T13:56:26.135Z</time>
      </trkpt>
      <trkpt lat="44.419470" lon="4.835159">
        <ele>116.940210</ele>
        <time>2021-07-04T13:56:48.929Z</time>
      </trkpt>
      <trkpt lat="44.419388" lon="4.835236">
        <ele>116.958751</ele>
        <time>2021-07-04T13:56:51.104Z</time>
      </trkpt>
      <trkpt lat="44.419317" lon="4.835342">
        <ele>116.981994</ele>
        <time>2021-07-04T13:56:53.375Z</time>
      </trkpt>
      <trkpt lat="44.419169" lon="4.835734">
        <ele>117.052914</ele>
        <time>2021-07-04T13:57:00.495Z</time>
      </trkpt>
      <trkpt lat="44.418881" lon="4.836707">
        <ele>117.221376</ele>
        <time>2021-07-04T13:57:18.473Z</time>
      </trkpt>
      <trkpt lat="44.417253" lon="4.837011">
        <ele>118.771464</ele>
        <time>2021-07-04T13:58:01.678Z</time>
      </trkpt>
      <trkpt lat="44.416107" lon="4.836661">
        <ele>121.378496</ele>
        <time>2021-07-04T13:58:38.360Z</time>
      </trkpt>
      <trkpt lat="44.415046" lon="4.836806">
        <ele>125.159390</ele>
        <time>2021-07-04T13:59:19.792Z</time>
      </trkpt>
      <trkpt lat="44.414640" lon="4.836678">
        <ele>126.953414</ele>
        <time>2021-07-04T13:59:37.039Z</time>
      </trkpt>
      <trkpt lat="44.413873" lon="4.836613">
        <ele>131.125416</ele>
        <time>2021-07-04T14:00:11.648Z</time>
      </trkpt>
      <trkpt lat="44.413659" lon="4.837483">
        <ele>134.693966</ele>
        <time>2021-07-04T14:00:42.621Z</time>
      </trkpt>
      <trkpt lat="44.412625" lon="4.837220">
        <ele>140.022666</ele>
        <time>2021-07-04T14:01:30.528Z</time>
      </trkpt>
      <trkpt lat="44.411168" lon="4.839065">
        <ele>148.915961</ele>
        <time>2021-07-04T14:02:50.518Z</time>
      </trkpt>
      <trkpt lat="44.410065" lon="4.839633">
        <ele>153.740974</ele>
        <time>2021-07-04T14:03:35.247Z</time>
      </trkpt>
      <trkpt lat="44.409842" lon="4.839780">
        <ele>154.757156</ele>
        <time>2021-07-04T14:03:44.585Z</time>
      </trkpt>
      <trkpt lat="44.409340" lon="4.839732">
        <ele>156.831549</ele>
        <time>2021-07-04T14:04:03.772Z</time>
      </trkpt>
      <trkpt lat="44.408010" lon="4.839885">
        <ele>163.608508</ele>
        <time>2021-07-04T14:04:59.836Z</time>
      </trkpt>
      <trkpt lat="44.406772" lon="4.839383">
        <ele>171.974372</ele>
        <time>2021-07-04T14:06:02.304Z</time>
      </trkpt>
      <trkpt lat="44.405485" lon="4.839515">
        <ele>184.550524</ele>
        <time>2021-07-04T14:07:25.248Z</time>
      </trkpt>
      <trkpt lat="44.405007" lon="4.839655">
        <ele>189.299841</ele>
        <time>2021-07-04T14:07:58.941Z</time>
      </trkpt>
      <trkpt lat="44.404741" lon="4.839660">
        <ele>191.874201</ele>
        <time>2021-07-04T14:08:16.722Z</time>
      </trkpt>
      <trkpt lat="44.403155" lon="4.838843">
        <ele>206.896353</ele>
        <time>2021-07-04T14:10:00.009Z</time>
      </trkpt>
      <trkpt lat="44.403139" lon="4.838479">
        <ele>208.271209</ele>
        <time>2021-07-04T14:10:12.728Z</time>
      </trkpt>
      <trkpt lat="44.403252" lon="4.838043">
        <ele>210.019720</ele>
        <time>2021-07-04T14:10:27.323Z</time>
      </trkpt>
      <trkpt lat="44.403043" lon="4.837809">
        <ele>211.431993</ele>
        <time>2021-07-04T14:10:37.703Z</time>
      </trkpt>
      <trkpt lat="44.402931" lon="4.837783">
        <ele>212.031071</ele>
        <time>2021-07-04T14:10:42.870Z</time>
      </trkpt>
      <trkpt lat="44.402921" lon="4.837960">
        <ele>212.700438</ele>
        <time>2021-07-04T14:10:47.143Z</time>
      </trkpt>
      <trkpt lat="44.402840" lon="4.838920">
        <ele>215.140035</ele>
        <time>2021-07-04T14:11:09.771Z</time>
      </trkpt>
      <trkpt lat="44.402799" lon="4.839613">
        <ele>215.730361</ele>
        <time>2021-07-04T14:11:23.547Z</time>
      </trkpt>
      <trkpt lat="44.402830" lon="4.840195">
        <ele>216.225814</ele>
        <time>2021-07-04T14:11:34.480Z</time>
      </trkpt>
      <trkpt lat="44.403105" lon="4.841330">
        <ele>216.961364</ele>
        <time>2021-07-04T14:11:54.157Z</time>
      </trkpt>
      <trkpt lat="44.403287" lon="4.841779">
        <ele>217.008788</ele>
        <time>2021-07-04T14:12:02.362Z</time>
      </trkpt>
      <trkpt lat="44.403651" lon="4.842438">
        <ele>217.085309</ele>
        <time>2021-07-04T14:12:15.437Z</time>
      </trkpt>
      <trkpt lat="44.404372" lon="4.844299">
        <ele>218.507825</ele>
        <time>2021-07-04T14:12:50.886Z</time>
      </trkpt>
      <trkpt lat="44.404520" lon="4.844650">
        <ele>218.924154</ele>
        <time>2021-07-04T14:12:59.153Z</time>
      </trkpt>
      <trkpt lat="44.404544" lon="4.845039">
        <ele>219.322989</ele>
        <time>2021-07-04T14:13:07.965Z</time>
      </trkpt>
      <trkpt lat="44.404412" lon="4.845736">
        <ele>220.960918</ele>
        <time>2021-07-04T14:13:26.259Z</time>
      </trkpt>
      <trkpt lat="44.404401" lon="4.846468">
        <ele>223.755300</ele>
        <time>2021-07-04T14:13:47.636Z</time>
      </trkpt>
      <trkpt lat="44.404730" lon="4.849076">
        <ele>233.752443</ele>
        <time>2021-07-04T14:15:18.795Z</time>
      </trkpt>
      <trkpt lat="44.404825" lon="4.849492">
        <ele>235.378554</ele>
        <time>2021-07-04T14:15:32.957Z</time>
      </trkpt>
      <trkpt lat="44.405027" lon="4.849878">
        <ele>237.160087</ele>
        <time>2021-07-04T14:15:46.915Z</time>
      </trkpt>
      <trkpt lat="44.405865" lon="4.850783">
        <ele>239.370670</ele>
        <time>2021-07-04T14:16:21.396Z</time>
      </trkpt>
      <trkpt lat="44.406300" lon="4.851155">
        <ele>239.811525</ele>
        <time>2021-07-04T14:16:33.109Z</time>
      </trkpt>
      <trkpt lat="44.406448" lon="4.851377">
        <ele>239.999130</ele>
        <time>2021-07-04T14:16:37.612Z</time>
      </trkpt>
      <trkpt lat="44.406565" lon="4.851645">
        <ele>240.193179</ele>
        <time>2021-07-04T14:16:41.917Z</time>
      </trkpt>
      <trkpt lat="44.406596" lon="4.852194">
        <ele>239.550956</ele>
        <time>2021-07-04T14:16:49.202Z</time>
      </trkpt>
      <trkpt lat="44.406647" lon="4.856118">
        <ele>231.662637</ele>
        <time>2021-07-04T14:17:36.262Z</time>
      </trkpt>
      <trkpt lat="44.406697" lon="4.861965">
        <ele>212.221478</ele>
        <time>2021-07-04T14:18:39.890Z</time>
      </trkpt>
      <trkpt lat="44.406702" lon="4.862204">
        <ele>211.502509</ele>
        <time>2021-07-04T14:18:42.486Z</time>
      </trkpt>
      <trkpt lat="44.406703" lon="4.862229">
        <ele>211.427218</ele>
        <time>2021-07-04T14:18:42.721Z</time>
      </trkpt>
      <trkpt lat="44.406704" lon="4.862253">
        <ele>211.354929</ele>
        <time>2021-07-04T14:18:42.996Z</time>
      </trkpt>
      <trkpt lat="44.406731" lon="4.862902">
        <ele>209.400113</ele>
        <time>2021-07-04T14:18:50.154Z</time>
      </trkpt>
      <trkpt lat="44.406742" lon="4.863458">
        <ele>207.727609</ele>
        <time>2021-07-04T14:18:56.352Z</time>
      </trkpt>
      <trkpt lat="44.406673" lon="4.863667">
        <ele>207.035294</ele>
        <time>2021-07-04T14:18:58.953Z</time>
      </trkpt>
      <trkpt lat="44.405887" lon="4.864325">
        <ele>203.900747</ele>
        <time>2021-07-04T14:19:13.734Z</time>
      </trkpt>
      <trkpt lat="44.404707" lon="4.864875">
        <ele>200.692116</ele>
        <time>2021-07-04T14:19:35.211Z</time>
      </trkpt>
      <trkpt lat="44.404410" lon="4.865104">
        <ele>199.836407</ele>
        <time>2021-07-04T14:19:41.134Z</time>
      </trkpt>
      <trkpt lat="44.403844" lon="4.866285">
        <ele>197.300927</ele>
        <time>2021-07-04T14:19:58.486Z</time>
      </trkpt>
      <trkpt lat="44.403681" lon="4.866419">
        <ele>196.829179</ele>
        <time>2021-07-04T14:20:01.638Z</time>
      </trkpt>
      <trkpt lat="44.403173" lon="4.866620">
        <ele>195.507562</ele>
        <time>2021-07-04T14:20:10.437Z</time>
      </trkpt>
      <trkpt lat="44.402837" lon="4.866889">
        <ele>194.531476</ele>
        <time>2021-07-04T14:20:16.867Z</time>
      </trkpt>
      <trkpt lat="44.402626" lon="4.867225">
        <ele>193.725545</ele>
        <time>2021-07-04T14:20:22.202Z</time>
      </trkpt>
      <trkpt lat="44.402482" lon="4.867641">
        <ele>192.892751</ele>
        <time>2021-07-04T14:20:27.748Z</time>
      </trkpt>
      <trkpt lat="44.401870" lon="4.868597">
        <ele>191.217622</ele>
        <time>2021-07-04T14:20:43.617Z</time>
      </trkpt>
      <trkpt lat="44.401817" lon="4.868783">
        <ele>191.145515</ele>
        <time>2021-07-04T14:20:46.229Z</time>
      </trkpt>
      <trkpt lat="44.401873" lon="4.869663">
        <ele>190.827380</ele>
        <time>2021-07-04T14:20:59.737Z</time>
      </trkpt>
      <trkpt lat="44.401749" lon="4.870033">
        <ele>190.680216</ele>
        <time>2021-07-04T14:21:06.479Z</time>
      </trkpt>
      <trkpt lat="44.401437" lon="4.870670">
        <ele>190.559265</ele>
        <time>2021-07-04T14:21:19.538Z</time>
      </trkpt>
      <trkpt lat="44.401423" lon="4.870759">
        <ele>190.602054</ele>
        <time>2021-07-04T14:21:21.706Z</time>
      </trkpt>
      <trkpt lat="44.401285" lon="4.870616">
        <ele>190.714896</ele>
        <time>2021-07-04T14:21:26.119Z</time>
      </trkpt>
      <trkpt lat="44.399759" lon="4.869196">
        <ele>191.523917</ele>
        <time>2021-07-04T14:22:14.084Z</time>
      </trkpt>
      <trkpt lat="44.399721" lon="4.869176">
        <ele>191.511072</ele>
        <time>2021-07-04T14:22:14.994Z</time>
      </trkpt>
      <trkpt lat="44.399264" lon="4.868926">
        <ele>191.355827</ele>
        <time>2021-07-04T14:22:25.726Z</time>
      </trkpt>
      <trkpt lat="44.398148" lon="4.868735">
        <ele>190.744385</ele>
        <time>2021-07-04T14:22:48.885Z</time>
      </trkpt>
      <trkpt lat="44.396653" lon="4.868842">
        <ele>188.814829</ele>
        <time>2021-07-04T14:23:18.069Z</time>
      </trkpt>
      <trkpt lat="44.395941" lon="4.868605">
        <ele>187.411135</ele>
        <time>2021-07-04T14:23:31.957Z</time>
      </trkpt>
      <trkpt lat="44.395912" lon="4.868569">
        <ele>187.335423</ele>
        <time>2021-07-04T14:23:32.652Z</time>
      </trkpt>
      <trkpt lat="44.395876" lon="4.868591">
        <ele>187.258698</ele>
        <time>2021-07-04T14:23:33.327Z</time>
      </trkpt>
      <trkpt lat="44.394418" lon="4.867938">
        <ele>183.768318</ele>
        <time>2021-07-04T14:24:01.182Z</time>
      </trkpt>
      <trkpt lat="44.393703" lon="4.867822">
        <ele>181.646860</ele>
        <time>2021-07-04T14:24:13.631Z</time>
      </trkpt>
      <trkpt lat="44.392505" lon="4.867837">
        <ele>177.626164</ele>
        <time>2021-07-04T14:24:33.629Z</time>
      </trkpt>
      <trkpt lat="44.392258" lon="4.867750">
        <ele>176.675131</ele>
        <time>2021-07-04T14:24:37.821Z</time>
      </trkpt>
      <trkpt lat="44.391501" lon="4.867111">
        <ele>173.374195</ele>
        <time>2021-07-04T14:24:52.429Z</time>
      </trkpt>
      <trkpt lat="44.391282" lon="4.866996">
        <ele>172.740664</ele>
        <time>2021-07-04T14:24:56.393Z</time>
      </trkpt>
      <trkpt lat="44.390495" lon="4.867192">
        <ele>170.731464</ele>
        <time>2021-07-04T14:25:10.304Z</time>
      </trkpt>
      <trkpt lat="44.388704" lon="4.867241">
        <ele>167.098721</ele>
        <time>2021-07-04T14:25:43.930Z</time>
      </trkpt>
      <trkpt lat="44.387251" lon="4.867051">
        <ele>164.704751</ele>
        <time>2021-07-04T14:26:12.096Z</time>
      </trkpt>
      <trkpt lat="44.385495" lon="4.866589">
        <ele>161.797298</ele>
        <time>2021-07-04T14:26:45.711Z</time>
      </trkpt>
      <trkpt lat="44.384401" lon="4.866395">
        <ele>160.046012</ele>
        <time>2021-07-04T14:27:06.701Z</time>
      </trkpt>
      <trkpt lat="44.383122" lon="4.865985">
        <ele>158.191538</ele>
        <time>2021-07-04T14:27:32.158Z</time>
      </trkpt>
      <trkpt lat="44.382227" lon="4.865586">
        <ele>157.080649</ele>
        <time>2021-07-04T14:27:50.338Z</time>
      </trkpt>
      <trkpt lat="44.381185" lon="4.865026">
        <ele>156.103833</ele>
        <time>2021-07-04T14:28:13.006Z</time>
      </trkpt>
      <trkpt lat="44.380918" lon="4.864739">
        <ele>155.861868</ele>
        <time>2021-07-04T14:28:20.196Z</time>
      </trkpt>
      <trkpt lat="44.378402" lon="4.862270">
        <ele>156.885873</ele>
        <time>2021-07-04T14:29:35.801Z</time>
      </trkpt>
      <trkpt lat="44.377961" lon="4.861674">
        <ele>157.173814</ele>
        <time>2021-07-04T14:29:52.623Z</time>
      </trkpt>
      <trkpt lat="44.377202" lon="4.860133">
        <ele>157.668833</ele>
        <time>2021-07-04T14:30:26.252Z</time>
      </trkpt>
      <trkpt lat="44.377144" lon="4.859971">
        <ele>157.716759</ele>
        <time>2021-07-04T14:30:29.508Z</time>
      </trkpt>
      <trkpt lat="44.376543" lon="4.860227">
        <ele>157.326116</ele>
        <time>2021-07-04T14:30:42.976Z</time>
      </trkpt>
      <trkpt lat="44.376015" lon="4.860457">
        <ele>156.737391</ele>
        <time>2021-07-04T14:30:54.179Z</time>
      </trkpt>
      <trkpt lat="44.375588" lon="4.860505">
        <ele>156.281342</ele>
        <time>2021-07-04T14:31:02.406Z</time>
      </trkpt>
      <trkpt lat="44.372283" lon="4.860318">
        <ele>150.865679</ele>
        <time>2021-07-04T14:32:04.218Z</time>
      </trkpt>
      <trkpt lat="44.372045" lon="4.860318">
        <ele>150.490110</ele>
        <time>2021-07-04T14:32:08.743Z</time>
      </trkpt>
      <trkpt lat="44.371776" lon="4.860238">
        <ele>150.056137</ele>
        <time>2021-07-04T14:32:14.156Z</time>
      </trkpt>
      <trkpt lat="44.370224" lon="4.859641">
        <ele>148.674875</ele>
        <time>2021-07-04T14:32:47.596Z</time>
      </trkpt>
      <trkpt lat="44.369246" lon="4.859396">
        <ele>148.085539</ele>
        <time>2021-07-04T14:33:08.572Z</time>
      </trkpt>
      <trkpt lat="44.369059" lon="4.859387">
        <ele>147.993339</ele>
        <time>2021-07-04T14:33:12.467Z</time>
      </trkpt>
      <trkpt lat="44.368921" lon="4.859376">
        <ele>147.925228</ele>
        <time>2021-07-04T14:33:15.657Z</time>
      </trkpt>
      <trkpt lat="44.368878" lon="4.859372">
        <ele>147.903993</ele>
        <time>2021-07-04T14:33:16.393Z</time>
      </trkpt>
      <trkpt lat="44.368098" lon="4.859330">
        <ele>147.519356</ele>
        <time>2021-07-04T14:33:33.203Z</time>
      </trkpt>
      <trkpt lat="44.368013" lon="4.859326">
        <ele>147.546605</ele>
        <time>2021-07-04T14:33:34.866Z</time>
      </trkpt>
      <trkpt lat="44.367928" lon="4.859321">
        <ele>147.577834</ele>
        <time>2021-07-04T14:33:37.056Z</time>
      </trkpt>
      <trkpt lat="44.366269" lon="4.858819">
        <ele>148.199436</ele>
        <time>2021-07-04T14:34:19.557Z</time>
      </trkpt>
      <trkpt lat="44.366241" lon="4.858830">
        <ele>148.209450</ele>
        <time>2021-07-04T14:34:20.672Z</time>
      </trkpt>
      <trkpt lat="44.366180" lon="4.858853">
        <ele>148.231204</ele>
        <time>2021-07-04T14:34:22.398Z</time>
      </trkpt>
      <trkpt lat="44.366136" lon="4.858870">
        <ele>148.246922</ele>
        <time>2021-07-04T14:34:23.920Z</time>
      </trkpt>
      <trkpt lat="44.365975" lon="4.858999">
        <ele>148.310810</ele>
        <time>2021-07-04T14:34:28.242Z</time>
      </trkpt>
      <trkpt lat="44.365814" lon="4.859155">
        <ele>148.378249</ele>
        <time>2021-07-04T14:34:33.976Z</time>
      </trkpt>
      <trkpt lat="44.365712" lon="4.859255">
        <ele>148.421138</ele>
        <time>2021-07-04T14:34:36.740Z</time>
      </trkpt>
      <trkpt lat="44.364275" lon="4.860291">
        <ele>148.586552</ele>
        <time>2021-07-04T14:35:14.918Z</time>
      </trkpt>
      <trkpt lat="44.364066" lon="4.860427">
        <ele>148.494495</ele>
        <time>2021-07-04T14:35:19.640Z</time>
      </trkpt>
      <trkpt lat="44.363966" lon="4.860502">
        <ele>148.449180</ele>
        <time>2021-07-04T14:35:22.035Z</time>
      </trkpt>
      <trkpt lat="44.363945" lon="4.860554">
        <ele>148.432128</ele>
        <time>2021-07-04T14:35:22.960Z</time>
      </trkpt>
      <trkpt lat="44.363927" lon="4.860636">
        <ele>148.407637</ele>
        <time>2021-07-04T14:35:24.211Z</time>
      </trkpt>
      <trkpt lat="44.363917" lon="4.860659">
        <ele>148.399952</ele>
        <time>2021-07-04T14:35:24.594Z</time>
      </trkpt>
      <trkpt lat="44.363760" lon="4.860627">
        <ele>148.336589</ele>
        <time>2021-07-04T14:35:27.705Z</time>
      </trkpt>
      <trkpt lat="44.363570" lon="4.860619">
        <ele>148.260675</ele>
        <time>2021-07-04T14:35:31.505Z</time>
      </trkpt>
      <trkpt lat="44.363513" lon="4.860648">
        <ele>148.236452</ele>
        <time>2021-07-04T14:35:32.708Z</time>
      </trkpt>
      <trkpt lat="44.363355" lon="4.860633">
        <ele>148.173208</ele>
        <time>2021-07-04T14:35:35.894Z</time>
      </trkpt>
      <trkpt lat="44.362968" lon="4.860581">
        <ele>147.994213</ele>
        <time>2021-07-04T14:35:44.080Z</time>
      </trkpt>
      <trkpt lat="44.362661" lon="4.860538">
        <ele>147.822583</ele>
        <time>2021-07-04T14:35:50.731Z</time>
      </trkpt>
      <trkpt lat="44.362630" lon="4.860533">
        <ele>147.805225</ele>
        <time>2021-07-04T14:35:51.446Z</time>
      </trkpt>
      <trkpt lat="44.362605" lon="4.860493">
        <ele>147.784095</ele>
        <time>2021-07-04T14:35:52.355Z</time>
      </trkpt>
      <trkpt lat="44.362544" lon="4.860486">
        <ele>147.750049</ele>
        <time>2021-07-04T14:35:53.794Z</time>
      </trkpt>
      <trkpt lat="44.362448" lon="4.860475">
        <ele>147.696468</ele>
        <time>2021-07-04T14:35:55.982Z</time>
      </trkpt>
      <trkpt lat="44.362412" lon="4.860495">
        <ele>147.674920</ele>
        <time>2021-07-04T14:35:56.806Z</time>
      </trkpt>
      <trkpt lat="44.362306" lon="4.860489">
        <ele>147.615907</ele>
        <time>2021-07-04T14:35:59.143Z</time>
      </trkpt>
      <trkpt lat="44.362178" lon="4.860463">
        <ele>147.543957</ele>
        <time>2021-07-04T14:36:02.117Z</time>
      </trkpt>
      <trkpt lat="44.362042" lon="4.860436">
        <ele>147.467546</ele>
        <time>2021-07-04T14:36:04.969Z</time>
      </trkpt>
      <trkpt lat="44.361710" lon="4.860366">
        <ele>147.280777</ele>
        <time>2021-07-04T14:36:11.620Z</time>
      </trkpt>
      <trkpt lat="44.361574" lon="4.860344">
        <ele>147.204619</ele>
        <time>2021-07-04T14:36:14.525Z</time>
      </trkpt>
      <trkpt lat="44.361472" lon="4.860336">
        <ele>147.147790</ele>
        <time>2021-07-04T14:36:16.678Z</time>
      </trkpt>
      <trkpt lat="44.361390" lon="4.860341">
        <ele>147.102133</ele>
        <time>2021-07-04T14:36:18.290Z</time>
      </trkpt>
      <trkpt lat="44.361052" lon="4.860296">
        <ele>146.118549</ele>
        <time>2021-07-04T14:36:24.401Z</time>
      </trkpt>
      <trkpt lat="44.360987" lon="4.860285">
        <ele>145.906212</ele>
        <time>2021-07-04T14:36:25.418Z</time>
      </trkpt>
      <trkpt lat="44.360956" lon="4.860283">
        <ele>145.805571</ele>
        <time>2021-07-04T14:36:25.975Z</time>
      </trkpt>
      <trkpt lat="44.360879" lon="4.860275">
        <ele>145.555167</ele>
        <time>2021-07-04T14:36:27.324Z</time>
      </trkpt>
      <trkpt lat="44.360735" lon="4.860262">
        <ele>145.087195</ele>
        <time>2021-07-04T14:36:29.868Z</time>
      </trkpt>
      <trkpt lat="44.360662" lon="4.860256">
        <ele>144.850043</ele>
        <time>2021-07-04T14:36:31.084Z</time>
      </trkpt>
      <trkpt lat="44.360632" lon="4.860260">
        <ele>144.752311</ele>
        <time>2021-07-04T14:36:31.525Z</time>
      </trkpt>
      <trkpt lat="44.360606" lon="4.860273">
        <ele>144.662765</ele>
        <time>2021-07-04T14:36:32.007Z</time>
      </trkpt>
      <trkpt lat="44.360573" lon="4.860298">
        <ele>144.541055</ele>
        <time>2021-07-04T14:36:32.681Z</time>
      </trkpt>
      <trkpt lat="44.360559" lon="4.860274">
        <ele>144.469235</ele>
        <time>2021-07-04T14:36:33.041Z</time>
      </trkpt>
      <trkpt lat="44.360468" lon="4.860252">
        <ele>144.169741</ele>
        <time>2021-07-04T14:36:34.628Z</time>
      </trkpt>
      <trkpt lat="44.360443" lon="4.860281">
        <ele>144.064409</ele>
        <time>2021-07-04T14:36:35.206Z</time>
      </trkpt>
      <trkpt lat="44.360431" lon="4.860314">
        <ele>143.978566</ele>
        <time>2021-07-04T14:36:35.608Z</time>
      </trkpt>
      <trkpt lat="44.360433" lon="4.860386">
        <ele>143.811498</ele>
        <time>2021-07-04T14:36:36.505Z</time>
      </trkpt>
      <trkpt lat="44.360447" lon="4.860417">
        <ele>143.726481</ele>
        <time>2021-07-04T14:36:36.906Z</time>
      </trkpt>
      <trkpt lat="44.360406" lon="4.860457">
        <ele>143.564365</ele>
        <time>2021-07-04T14:36:37.660Z</time>
      </trkpt>
      <trkpt lat="44.360235" lon="4.860606">
        <ele>142.910993</ele>
        <time>2021-07-04T14:36:40.980Z</time>
      </trkpt>
      <trkpt lat="44.360028" lon="4.860684">
        <ele>142.215745</ele>
        <time>2021-07-04T14:36:44.283Z</time>
      </trkpt>
      <trkpt lat="44.359981" lon="4.860707">
        <ele>142.054261</ele>
        <time>2021-07-04T14:36:45.051Z</time>
      </trkpt>
      <trkpt lat="44.359712" lon="4.860771">
        <ele>141.111723</ele>
        <time>2021-07-04T14:36:49.167Z</time>
      </trkpt>
      <trkpt lat="44.358446" lon="4.861271">
        <ele>133.582760</ele>
        <time>2021-07-04T14:37:08.318Z</time>
      </trkpt>
      <trkpt lat="44.357582" lon="4.861654">
        <ele>129.274078</ele>
        <time>2021-07-04T14:37:21.851Z</time>
      </trkpt>
      <trkpt lat="44.357444" lon="4.861668">
        <ele>128.754495</ele>
        <time>2021-07-04T14:37:23.976Z</time>
      </trkpt>
      <trkpt lat="44.355962" lon="4.862239">
        <ele>123.881453</ele>
        <time>2021-07-04T14:37:49.002Z</time>
      </trkpt>
      <trkpt lat="44.353461" lon="4.863205">
        <ele>122.552900</ele>
        <time>2021-07-04T14:38:43.910Z</time>
      </trkpt>
      <trkpt lat="44.352167" lon="4.863692">
        <ele>122.588643</ele>
        <time>2021-07-04T14:39:17.656Z</time>
      </trkpt>
      <trkpt lat="44.352063" lon="4.863737">
        <ele>122.583757</ele>
        <time>2021-07-04T14:39:20.646Z</time>
      </trkpt>
      <trkpt lat="44.347295" lon="4.865578">
        <ele>121.718243</ele>
        <time>2021-07-04T14:41:05.762Z</time>
      </trkpt>
      <trkpt lat="44.346954" lon="4.865645">
        <ele>121.464846</ele>
        <time>2021-07-04T14:41:12.760Z</time>
      </trkpt>
      <trkpt lat="44.346634" lon="4.865662">
        <ele>121.229197</ele>
        <time>2021-07-04T14:41:19.196Z</time>
      </trkpt>
      <trkpt lat="44.346221" lon="4.865628">
        <ele>120.924756</ele>
        <time>2021-07-04T14:41:27.320Z</time>
      </trkpt>
      <trkpt lat="44.345427" lon="4.865298">
        <ele>120.014847</ele>
        <time>2021-07-04T14:41:43.058Z</time>
      </trkpt>
      <trkpt lat="44.345300" lon="4.865235">
        <ele>119.821133</ele>
        <time>2021-07-04T14:41:45.550Z</time>
      </trkpt>
      <trkpt lat="44.344124" lon="4.864668">
        <ele>118.030973</ele>
        <time>2021-07-04T14:42:08.366Z</time>
      </trkpt>
      <trkpt lat="44.343646" lon="4.864469">
        <ele>117.194412</ele>
        <time>2021-07-04T14:42:17.165Z</time>
      </trkpt>
      <trkpt lat="44.343097" lon="4.864089">
        <ele>116.166892</ele>
        <time>2021-07-04T14:42:28.074Z</time>
      </trkpt>
      <trkpt lat="44.342556" lon="4.863715">
        <ele>115.154589</ele>
        <time>2021-07-04T14:42:39.035Z</time>
      </trkpt>
      <trkpt lat="44.342300" lon="4.863541">
        <ele>114.869227</ele>
        <time>2021-07-04T14:42:44.237Z</time>
      </trkpt>
      <trkpt lat="44.341286" lon="4.862828">
        <ele>114.008773</ele>
        <time>2021-07-04T14:43:06.214Z</time>
      </trkpt>
      <trkpt lat="44.341086" lon="4.862690">
        <ele>113.839694</ele>
        <time>2021-07-04T14:43:10.837Z</time>
      </trkpt>
      <trkpt lat="44.340769" lon="4.862471">
        <ele>113.877139</ele>
        <time>2021-07-04T14:43:18.811Z</time>
      </trkpt>
      <trkpt lat="44.340511" lon="4.862302">
        <ele>114.375027</ele>
        <time>2021-07-04T14:43:25.858Z</time>
      </trkpt>
      <trkpt lat="44.340245" lon="4.862095">
        <ele>114.907018</ele>
        <time>2021-07-04T14:43:33.868Z</time>
      </trkpt>
      <trkpt lat="44.340087" lon="4.862362">
        <ele>115.340144</ele>
        <time>2021-07-04T14:43:41.233Z</time>
      </trkpt>
      <trkpt lat="44.339465" lon="4.862780">
        <ele>116.546145</ele>
        <time>2021-07-04T14:44:04.023Z</time>
      </trkpt>
      <trkpt lat="44.338984" lon="4.863059">
        <ele>117.525953</ele>
        <time>2021-07-04T14:44:22.151Z</time>
      </trkpt>
      <trkpt lat="44.338600" lon="4.863302">
        <ele>118.341748</ele>
        <time>2021-07-04T14:44:36.522Z</time>
      </trkpt>
      <trkpt lat="44.338359" lon="4.863458">
        <ele>118.855757</ele>
        <time>2021-07-04T14:44:44.706Z</time>
      </trkpt>
      <trkpt lat="44.337755" lon="4.863813">
        <ele>120.123866</ele>
        <time>2021-07-04T14:45:02.696Z</time>
      </trkpt>
      <trkpt lat="44.337593" lon="4.863909">
        <ele>120.141886</ele>
        <time>2021-07-04T14:45:07.037Z</time>
      </trkpt>
      <trkpt lat="44.337518" lon="4.863953">
        <ele>120.010742</ele>
        <time>2021-07-04T14:45:08.733Z</time>
      </trkpt>
      <trkpt lat="44.337311" lon="4.864075">
        <ele>119.648534</ele>
        <time>2021-07-04T14:45:14.023Z</time>
      </trkpt>
      <trkpt lat="44.336758" lon="4.864414">
        <ele>118.674937</ele>
        <time>2021-07-04T14:45:24.990Z</time>
      </trkpt>
      <trkpt lat="44.336689" lon="4.864457">
        <ele>118.553130</ele>
        <time>2021-07-04T14:45:26.348Z</time>
      </trkpt>
      <trkpt lat="44.336587" lon="4.864485">
        <ele>118.385525</ele>
        <time>2021-07-04T14:45:27.945Z</time>
      </trkpt>
      <trkpt lat="44.336060" lon="4.864350">
        <ele>117.521648</ele>
        <time>2021-07-04T14:45:36.887Z</time>
      </trkpt>
      <trkpt lat="44.335928" lon="4.864386">
        <ele>117.270822</ele>
        <time>2021-07-04T14:45:39.009Z</time>
      </trkpt>
      <trkpt lat="44.335748" lon="4.864612">
        <ele>116.722081</ele>
        <time>2021-07-04T14:45:43.081Z</time>
      </trkpt>
      <trkpt lat="44.335682" lon="4.864813">
        <ele>116.363272</ele>
        <time>2021-07-04T14:45:45.583Z</time>
      </trkpt>
      <trkpt lat="44.335639" lon="4.864786">
        <ele>116.256355</ele>
        <time>2021-07-04T14:45:46.365Z</time>
      </trkpt>
      <trkpt lat="44.335540" lon="4.864803">
        <ele>116.030117</ele>
        <time>2021-07-04T14:45:48.179Z</time>
      </trkpt>
      <trkpt lat="44.335481" lon="4.864892">
        <ele>115.833251</ele>
        <time>2021-07-04T14:45:49.765Z</time>
      </trkpt>
      <trkpt lat="44.335469" lon="4.864955">
        <ele>115.727481</ele>
        <time>2021-07-04T14:45:50.515Z</time>
      </trkpt>
      <trkpt lat="44.335387" lon="4.864891">
        <ele>115.514471</ele>
        <time>2021-07-04T14:45:51.975Z</time>
      </trkpt>
      <trkpt lat="44.335056" lon="4.864734">
        <ele>114.721672</ele>
        <time>2021-07-04T14:45:58.231Z</time>
      </trkpt>
      <trkpt lat="44.334854" lon="4.864655">
        <ele>114.245910</ele>
        <time>2021-07-04T14:46:02.121Z</time>
      </trkpt>
      <trkpt lat="44.334111" lon="4.864363">
        <ele>112.940515</ele>
        <time>2021-07-04T14:46:15.937Z</time>
      </trkpt>
      <trkpt lat="44.333548" lon="4.864169">
        <ele>112.345176</ele>
        <time>2021-07-04T14:46:27.122Z</time>
      </trkpt>
      <trkpt lat="44.333251" lon="4.864147">
        <ele>112.039815</ele>
        <time>2021-07-04T14:46:32.990Z</time>
      </trkpt>
      <trkpt lat="44.332902" lon="4.864192">
        <ele>111.679971</ele>
        <time>2021-07-04T14:46:40.062Z</time>
      </trkpt>
      <trkpt lat="44.332877" lon="4.864195">
        <ele>111.654209</ele>
        <time>2021-07-04T14:46:40.662Z</time>
      </trkpt>
      <trkpt lat="44.331585" lon="4.864436">
        <ele>110.794444</ele>
        <time>2021-07-04T14:47:06.814Z</time>
      </trkpt>
      <trkpt lat="44.330311" lon="4.863998">
        <ele>110.003084</ele>
        <time>2021-07-04T14:47:33.782Z</time>
      </trkpt>
      <trkpt lat="44.328859" lon="4.863805">
        <ele>109.079724</ele>
        <time>2021-07-04T14:48:02.960Z</time>
      </trkpt>
      <trkpt lat="44.328601" lon="4.863757">
        <ele>108.889415</ele>
        <time>2021-07-04T14:48:08.128Z</time>
      </trkpt>
      <trkpt lat="44.327928" lon="4.863545">
        <ele>108.384988</ele>
        <time>2021-07-04T14:48:21.913Z</time>
      </trkpt>
      <trkpt lat="44.326657" lon="4.863045">
        <ele>107.308002</ele>
        <time>2021-07-04T14:48:48.193Z</time>
      </trkpt>
      <trkpt lat="44.326351" lon="4.862925">
        <ele>107.029055</ele>
        <time>2021-07-04T14:48:54.511Z</time>
      </trkpt>
      <trkpt lat="44.324604" lon="4.862302">
        <ele>105.364095</ele>
        <time>2021-07-04T14:49:28.826Z</time>
      </trkpt>
      <trkpt lat="44.323709" lon="4.862280">
        <ele>104.784221</ele>
        <time>2021-07-04T14:49:46.073Z</time>
      </trkpt>
      <trkpt lat="44.322670" lon="4.862300">
        <ele>105.374934</ele>
        <time>2021-07-04T14:50:10.930Z</time>
      </trkpt>
      <trkpt lat="44.322421" lon="4.862378">
        <ele>105.519998</ele>
        <time>2021-07-04T14:50:18.014Z</time>
      </trkpt>
      <trkpt lat="44.322217" lon="4.862496">
        <ele>105.645507</ele>
        <time>2021-07-04T14:50:24.369Z</time>
      </trkpt>
      <trkpt lat="44.322187" lon="4.862519">
        <ele>105.664959</ele>
        <time>2021-07-04T14:50:25.369Z</time>
      </trkpt>
      <trkpt lat="44.322100" lon="4.862595">
        <ele>105.749675</ele>
        <time>2021-07-04T14:50:28.387Z</time>
      </trkpt>
      <trkpt lat="44.321450" lon="4.863206">
        <ele>106.818198</ele>
        <time>2021-07-04T14:50:51.442Z</time>
      </trkpt>
      <trkpt lat="44.321239" lon="4.863405">
        <ele>107.165417</ele>
        <time>2021-07-04T14:50:58.740Z</time>
      </trkpt>
      <trkpt lat="44.319960" lon="4.864579">
        <ele>108.331129</ele>
        <time>2021-07-04T14:51:38.578Z</time>
      </trkpt>
      <trkpt lat="44.319850" lon="4.864658">
        <ele>108.357814</ele>
        <time>2021-07-04T14:51:41.157Z</time>
      </trkpt>
      <trkpt lat="44.319797" lon="4.864696">
        <ele>108.370667</ele>
        <time>2021-07-04T14:51:42.520Z</time>
      </trkpt>
      <trkpt lat="44.319603" lon="4.864782">
        <ele>108.414583</ele>
        <time>2021-07-04T14:51:46.785Z</time>
      </trkpt>
      <trkpt lat="44.319425" lon="4.864830">
        <ele>108.453699</ele>
        <time>2021-07-04T14:51:50.652Z</time>
      </trkpt>
      <trkpt lat="44.318354" lon="4.865117">
        <ele>108.341234</ele>
        <time>2021-07-04T14:52:12.980Z</time>
      </trkpt>
      <trkpt lat="44.317032" lon="4.865473">
        <ele>107.993617</ele>
        <time>2021-07-04T14:52:41.668Z</time>
      </trkpt>
      <trkpt lat="44.316744" lon="4.865546">
        <ele>107.998801</ele>
        <time>2021-07-04T14:52:48.453Z</time>
      </trkpt>
      <trkpt lat="44.316116" lon="4.865718">
        <ele>108.010134</ele>
        <time>2021-07-04T14:53:03.131Z</time>
      </trkpt>
      <trkpt lat="44.315416" lon="4.865881">
        <ele>107.998883</ele>
        <time>2021-07-04T14:53:19.144Z</time>
      </trkpt>
      <trkpt lat="44.314082" lon="4.866248">
        <ele>107.420417</ele>
        <time>2021-07-04T14:53:47.436Z</time>
      </trkpt>
      <trkpt lat="44.313829" lon="4.866316">
        <ele>107.310801</ele>
        <time>2021-07-04T14:53:52.453Z</time>
      </trkpt>
      <trkpt lat="44.313451" lon="4.866361">
        <ele>107.150068</ele>
        <time>2021-07-04T14:53:59.975Z</time>
      </trkpt>
      <trkpt lat="44.311318" lon="4.866647">
        <ele>106.254701</ele>
        <time>2021-07-04T14:54:44.957Z</time>
      </trkpt>
      <trkpt lat="44.311252" lon="4.866654">
        <ele>106.227891</ele>
        <time>2021-07-04T14:54:46.285Z</time>
      </trkpt>
      <trkpt lat="44.310580" lon="4.866747">
        <ele>105.954362</ele>
        <time>2021-07-04T14:55:00.427Z</time>
      </trkpt>
      <trkpt lat="44.309240" lon="4.867343">
        <ele>105.410372</ele>
        <time>2021-07-04T14:55:29.374Z</time>
      </trkpt>
      <trkpt lat="44.305533" lon="4.869512">
        <ele>104.350901</ele>
        <time>2021-07-04T14:56:54.857Z</time>
      </trkpt>
      <trkpt lat="44.305290" lon="4.869638">
        <ele>104.296063</ele>
        <time>2021-07-04T14:57:00.578Z</time>
      </trkpt>
      <trkpt lat="44.305282" lon="4.869622">
        <ele>104.293108</ele>
        <time>2021-07-04T14:57:00.873Z</time>
      </trkpt>
      <trkpt lat="44.305174" lon="4.869564">
        <ele>104.268629</ele>
        <time>2021-07-04T14:57:03.410Z</time>
      </trkpt>
      <trkpt lat="44.305131" lon="4.869593">
        <ele>104.259318</ele>
        <time>2021-07-04T14:57:04.436Z</time>
      </trkpt>
      <trkpt lat="44.305104" lon="4.869641">
        <ele>104.257873</ele>
        <time>2021-07-04T14:57:05.426Z</time>
      </trkpt>
      <trkpt lat="44.305093" lon="4.869696">
        <ele>104.256522</ele>
        <time>2021-07-04T14:57:06.321Z</time>
      </trkpt>
      <trkpt lat="44.305102" lon="4.869763">
        <ele>104.254909</ele>
        <time>2021-07-04T14:57:07.408Z</time>
      </trkpt>
      <trkpt lat="44.305078" lon="4.869771">
        <ele>104.254093</ele>
        <time>2021-07-04T14:57:07.996Z</time>
      </trkpt>
      <trkpt lat="44.302656" lon="4.870601">
        <ele>104.166971</ele>
        <time>2021-07-04T14:58:03.339Z</time>
      </trkpt>
      <trkpt lat="44.302426" lon="4.870675">
        <ele>104.157882</ele>
        <time>2021-07-04T14:58:08.445Z</time>
      </trkpt>
      <trkpt lat="44.302417" lon="4.870626">
        <ele>104.156488</ele>
        <time>2021-07-04T14:58:09.302Z</time>
      </trkpt>
      <trkpt lat="44.302340" lon="4.870544">
        <ele>104.152760</ele>
        <time>2021-07-04T14:58:11.434Z</time>
      </trkpt>
      <trkpt lat="44.302307" lon="4.870544">
        <ele>104.151489</ele>
        <time>2021-07-04T14:58:12.215Z</time>
      </trkpt>
      <trkpt lat="44.302270" lon="4.870564">
        <ele>104.149961</ele>
        <time>2021-07-04T14:58:13.026Z</time>
      </trkpt>
      <trkpt lat="44.302223" lon="4.870699">
        <ele>104.145824</ele>
        <time>2021-07-04T14:58:15.383Z</time>
      </trkpt>
      <trkpt lat="44.302233" lon="4.870748">
        <ele>104.144420</ele>
        <time>2021-07-04T14:58:16.127Z</time>
      </trkpt>
      <trkpt lat="44.302131" lon="4.870793">
        <ele>104.140301</ele>
        <time>2021-07-04T14:58:18.516Z</time>
      </trkpt>
      <trkpt lat="44.301112" lon="4.871146">
        <ele>103.839244</ele>
        <time>2021-07-04T14:58:41.373Z</time>
      </trkpt>
      <trkpt lat="44.301050" lon="4.871167">
        <ele>103.816039</ele>
        <time>2021-07-04T14:58:42.712Z</time>
      </trkpt>
      <trkpt lat="44.300960" lon="4.871196">
        <ele>103.782443</ele>
        <time>2021-07-04T14:58:44.688Z</time>
      </trkpt>
      <trkpt lat="44.300721" lon="4.871246">
        <ele>103.694540</ele>
        <time>2021-07-04T14:58:49.795Z</time>
      </trkpt>
      <trkpt lat="44.300612" lon="4.871244">
        <ele>103.654889</ele>
        <time>2021-07-04T14:58:52.106Z</time>
      </trkpt>
      <trkpt lat="44.300552" lon="4.871332">
        <ele>103.623249</ele>
        <time>2021-07-04T14:58:53.989Z</time>
      </trkpt>
      <trkpt lat="44.300473" lon="4.871395">
        <ele>103.590162</ele>
        <time>2021-07-04T14:58:55.920Z</time>
      </trkpt>
      <trkpt lat="44.300444" lon="4.871404">
        <ele>103.579357</ele>
        <time>2021-07-04T14:58:56.586Z</time>
      </trkpt>
      <trkpt lat="44.299669" lon="4.871676">
        <ele>102.824868</ele>
        <time>2021-07-04T14:59:12.106Z</time>
      </trkpt>
      <trkpt lat="44.298799" lon="4.871992">
        <ele>101.690293</ele>
        <time>2021-07-04T14:59:28.610Z</time>
      </trkpt>
      <trkpt lat="44.298769" lon="4.872007">
        <ele>101.650077</ele>
        <time>2021-07-04T14:59:29.154Z</time>
      </trkpt>
      <trkpt lat="44.298784" lon="4.872072">
        <ele>101.588383</ele>
        <time>2021-07-04T14:59:30.110Z</time>
      </trkpt>
      <trkpt lat="44.298753" lon="4.872094">
        <ele>101.544498</ele>
        <time>2021-07-04T14:59:30.610Z</time>
      </trkpt>
      <trkpt lat="44.298032" lon="4.872651">
        <ele>101.381047</ele>
        <time>2021-07-04T14:59:46.166Z</time>
      </trkpt>
      <trkpt lat="44.297761" lon="4.872817">
        <ele>101.474049</ele>
        <time>2021-07-04T14:59:52.324Z</time>
      </trkpt>
      <trkpt lat="44.297644" lon="4.872888">
        <ele>101.514140</ele>
        <time>2021-07-04T14:59:55.692Z</time>
      </trkpt>
      <trkpt lat="44.297497" lon="4.873002">
        <ele>101.566982</ele>
        <time>2021-07-04T14:59:59.711Z</time>
      </trkpt>
      <trkpt lat="44.297265" lon="4.873187">
        <ele>101.650940</ele>
        <time>2021-07-04T15:00:06.598Z</time>
      </trkpt>
      <trkpt lat="44.297191" lon="4.873267">
        <ele>101.680348</ele>
        <time>2021-07-04T15:00:09.281Z</time>
      </trkpt>
      <trkpt lat="44.297129" lon="4.873332">
        <ele>101.704710</ele>
        <time>2021-07-04T15:00:11.545Z</time>
      </trkpt>
      <trkpt lat="44.296888" lon="4.873562">
        <ele>102.033932</ele>
        <time>2021-07-04T15:00:20.473Z</time>
      </trkpt>
      <trkpt lat="44.296519" lon="4.873872">
        <ele>103.464717</ele>
        <time>2021-07-04T15:00:35.101Z</time>
      </trkpt>
      <trkpt lat="44.295818" lon="4.874551">
        <ele>106.299189</ele>
        <time>2021-07-04T15:01:07.587Z</time>
      </trkpt>
      <trkpt lat="44.295505" lon="4.874819">
        <ele>107.519069</ele>
        <time>2021-07-04T15:01:21.615Z</time>
      </trkpt>
      <trkpt lat="44.295462" lon="4.874914">
        <ele>107.771727</ele>
        <time>2021-07-04T15:01:25.137Z</time>
      </trkpt>
      <trkpt lat="44.294966" lon="4.874963">
        <ele>108.783703</ele>
        <time>2021-07-04T15:01:41.921Z</time>
      </trkpt>
      <trkpt lat="44.294000" lon="4.875006">
        <ele>110.750697</ele>
        <time>2021-07-04T15:02:10.807Z</time>
      </trkpt>
      <trkpt lat="44.293398" lon="4.875075">
        <ele>111.522258</ele>
        <time>2021-07-04T15:02:25.541Z</time>
      </trkpt>
      <trkpt lat="44.291443" lon="4.875225">
        <ele>112.508968</ele>
        <time>2021-07-04T15:03:10.782Z</time>
      </trkpt>
      <trkpt lat="44.290118" lon="4.875322">
        <ele>113.638285</ele>
        <time>2021-07-04T15:03:45.805Z</time>
      </trkpt>
      <trkpt lat="44.289930" lon="4.875290">
        <ele>113.791117</ele>
        <time>2021-07-04T15:03:50.938Z</time>
      </trkpt>
      <trkpt lat="44.289494" lon="4.875102">
        <ele>114.155233</ele>
        <time>2021-07-04T15:04:03.422Z</time>
      </trkpt>
      <trkpt lat="44.288807" lon="4.874758">
        <ele>114.737599</ele>
        <time>2021-07-04T15:04:22.392Z</time>
      </trkpt>
      <trkpt lat="44.286098" lon="4.873460">
        <ele>115.230190</ele>
        <time>2021-07-04T15:05:27.619Z</time>
      </trkpt>
      <trkpt lat="44.285791" lon="4.873316">
        <ele>115.179084</ele>
        <time>2021-07-04T15:05:34.399Z</time>
      </trkpt>
      <trkpt lat="44.285652" lon="4.873214">
        <ele>115.154307</ele>
        <time>2021-07-04T15:05:37.802Z</time>
      </trkpt>
      <trkpt lat="44.285559" lon="4.873121">
        <ele>115.136258</ele>
        <time>2021-07-04T15:05:40.127Z</time>
      </trkpt>
      <trkpt lat="44.285520" lon="4.873066">
        <ele>115.127512</ele>
        <time>2021-07-04T15:05:41.316Z</time>
      </trkpt>
      <trkpt lat="44.285505" lon="4.873014">
        <ele>115.121179</ele>
        <time>2021-07-04T15:05:42.138Z</time>
      </trkpt>
      <trkpt lat="44.285481" lon="4.872970">
        <ele>115.114930</ele>
        <time>2021-07-04T15:05:43.030Z</time>
      </trkpt>
      <trkpt lat="44.285446" lon="4.872933">
        <ele>115.108003</ele>
        <time>2021-07-04T15:05:44.041Z</time>
      </trkpt>
      <trkpt lat="44.285403" lon="4.872912">
        <ele>115.100815</ele>
        <time>2021-07-04T15:05:44.954Z</time>
      </trkpt>
      <trkpt lat="44.285359" lon="4.872909">
        <ele>115.093863</ele>
        <time>2021-07-04T15:05:45.881Z</time>
      </trkpt>
      <trkpt lat="44.285315" lon="4.872924">
        <ele>115.086716</ele>
        <time>2021-07-04T15:05:46.772Z</time>
      </trkpt>
      <trkpt lat="44.285279" lon="4.872956">
        <ele>115.079982</ele>
        <time>2021-07-04T15:05:47.661Z</time>
      </trkpt>
      <trkpt lat="44.285182" lon="4.872968">
        <ele>115.064615</ele>
        <time>2021-07-04T15:05:49.694Z</time>
      </trkpt>
      <trkpt lat="44.285101" lon="4.872953">
        <ele>115.051720</ele>
        <time>2021-07-04T15:05:51.525Z</time>
      </trkpt>
      <trkpt lat="44.284960" lon="4.872914">
        <ele>115.016073</ele>
        <time>2021-07-04T15:05:54.436Z</time>
      </trkpt>
      <trkpt lat="44.284628" lon="4.872760">
        <ele>114.908209</ele>
        <time>2021-07-04T15:06:01.766Z</time>
      </trkpt>
      <trkpt lat="44.283185" lon="4.872158">
        <ele>114.467045</ele>
        <time>2021-07-04T15:06:33.517Z</time>
      </trkpt>
      <trkpt lat="44.281943" lon="4.871650">
        <ele>114.277390</ele>
        <time>2021-07-04T15:07:01.929Z</time>
      </trkpt>
      <trkpt lat="44.278858" lon="4.870260">
        <ele>113.578494</ele>
        <time>2021-07-04T15:08:11.830Z</time>
      </trkpt>
      <trkpt lat="44.276191" lon="4.869042">
        <ele>112.347430</ele>
        <time>2021-07-04T15:09:09.691Z</time>
      </trkpt>
      <trkpt lat="44.276107" lon="4.869013">
        <ele>112.294105</ele>
        <time>2021-07-04T15:09:11.460Z</time>
      </trkpt>
      <trkpt lat="44.275958" lon="4.868983">
        <ele>112.201330</ele>
        <time>2021-07-04T15:09:14.517Z</time>
      </trkpt>
      <trkpt lat="44.275724" lon="4.868975">
        <ele>112.057078</ele>
        <time>2021-07-04T15:09:19.276Z</time>
      </trkpt>
      <trkpt lat="44.275531" lon="4.868935">
        <ele>111.936834</ele>
        <time>2021-07-04T15:09:23.160Z</time>
      </trkpt>
      <trkpt lat="44.275345" lon="4.868795">
        <ele>111.806620</ele>
        <time>2021-07-04T15:09:27.517Z</time>
      </trkpt>
      <trkpt lat="44.275305" lon="4.868669">
        <ele>111.745803</ele>
        <time>2021-07-04T15:09:29.442Z</time>
      </trkpt>
      <trkpt lat="44.275216" lon="4.868825">
        <ele>111.657788</ele>
        <time>2021-07-04T15:09:32.316Z</time>
      </trkpt>
      <trkpt lat="44.275088" lon="4.868978">
        <ele>111.553959</ele>
        <time>2021-07-04T15:09:35.761Z</time>
      </trkpt>
      <trkpt lat="44.275003" lon="4.869064">
        <ele>111.489275</ele>
        <time>2021-07-04T15:09:37.772Z</time>
      </trkpt>
      <trkpt lat="44.272895" lon="4.870906">
        <ele>109.752081</ele>
        <time>2021-07-04T15:10:27.222Z</time>
      </trkpt>
      <trkpt lat="44.272609" lon="4.871094">
        <ele>109.550542</ele>
        <time>2021-07-04T15:10:33.609Z</time>
      </trkpt>
      <trkpt lat="44.270424" lon="4.871740">
        <ele>108.330379</ele>
        <time>2021-07-04T15:11:19.147Z</time>
      </trkpt>
      <trkpt lat="44.270372" lon="4.871773">
        <ele>108.302762</ele>
        <time>2021-07-04T15:11:20.235Z</time>
      </trkpt>
      <trkpt lat="44.270196" lon="4.871885">
        <ele>108.209245</ele>
        <time>2021-07-04T15:11:24.292Z</time>
      </trkpt>
      <trkpt lat="44.268725" lon="4.873172">
        <ele>107.939293</ele>
        <time>2021-07-04T15:12:01.791Z</time>
      </trkpt>
      <trkpt lat="44.267163" lon="4.874208">
        <ele>108.197499</ele>
        <time>2021-07-04T15:12:41.920Z</time>
      </trkpt>
      <trkpt lat="44.265810" lon="4.875100">
        <ele>108.449864</ele>
        <time>2021-07-04T15:13:16.208Z</time>
      </trkpt>
      <trkpt lat="44.261572" lon="4.877867">
        <ele>109.053674</ele>
        <time>2021-07-04T15:15:01.832Z</time>
      </trkpt>
      <trkpt lat="44.261110" lon="4.878199">
        <ele>109.264169</ele>
        <time>2021-07-04T15:15:14.168Z</time>
      </trkpt>
      <trkpt lat="44.260386" lon="4.878877">
        <ele>109.620249</ele>
        <time>2021-07-04T15:15:35.624Z</time>
      </trkpt>
      <trkpt lat="44.259891" lon="4.879412">
        <ele>110.004158</ele>
        <time>2021-07-04T15:15:51.283Z</time>
      </trkpt>
      <trkpt lat="44.259729" lon="4.879607">
        <ele>110.135336</ele>
        <time>2021-07-04T15:15:56.711Z</time>
      </trkpt>
      <trkpt lat="44.258806" lon="4.880574">
        <ele>110.722846</ele>
        <time>2021-07-04T15:16:25.131Z</time>
      </trkpt>
      <trkpt lat="44.258305" lon="4.881008">
        <ele>110.745617</ele>
        <time>2021-07-04T15:16:38.716Z</time>
      </trkpt>
      <trkpt lat="44.258007" lon="4.881274">
        <ele>110.759277</ele>
        <time>2021-07-04T15:16:46.534Z</time>
      </trkpt>
      <trkpt lat="44.257643" lon="4.881564">
        <ele>110.775462</ele>
        <time>2021-07-04T15:16:55.545Z</time>
      </trkpt>
      <trkpt lat="44.257229" lon="4.881859">
        <ele>110.713018</ele>
        <time>2021-07-04T15:17:05.391Z</time>
      </trkpt>
      <trkpt lat="44.256187" lon="4.882561">
        <ele>110.366376</ele>
        <time>2021-07-04T15:17:29.499Z</time>
      </trkpt>
      <trkpt lat="44.255109" lon="4.883295">
        <ele>110.252969</ele>
        <time>2021-07-04T15:17:55.334Z</time>
      </trkpt>
      <trkpt lat="44.254859" lon="4.883426">
        <ele>110.255532</ele>
        <time>2021-07-04T15:18:01.332Z</time>
      </trkpt>
      <trkpt lat="44.254530" lon="4.883551">
        <ele>110.258804</ele>
        <time>2021-07-04T15:18:09.303Z</time>
      </trkpt>
      <trkpt lat="44.254319" lon="4.883587">
        <ele>110.260845</ele>
        <time>2021-07-04T15:18:14.288Z</time>
      </trkpt>
      <trkpt lat="44.254178" lon="4.883612">
        <ele>110.262209</ele>
        <time>2021-07-04T15:18:17.593Z</time>
      </trkpt>
      <trkpt lat="44.253806" lon="4.883676">
        <ele>110.242238</ele>
        <time>2021-07-04T15:18:26.168Z</time>
      </trkpt>
      <trkpt lat="44.253690" lon="4.883697">
        <ele>110.235112</ele>
        <time>2021-07-04T15:18:28.849Z</time>
      </trkpt>
      <trkpt lat="44.253499" lon="4.883730">
        <ele>110.223388</ele>
        <time>2021-07-04T15:18:33.097Z</time>
      </trkpt>
      <trkpt lat="44.252941" lon="4.883841">
        <ele>110.189052</ele>
        <time>2021-07-04T15:18:45.553Z</time>
      </trkpt>
      <trkpt lat="44.252515" lon="4.883912">
        <ele>110.162917</ele>
        <time>2021-07-04T15:18:54.723Z</time>
      </trkpt>
      <trkpt lat="44.252061" lon="4.884001">
        <ele>110.092445</ele>
        <time>2021-07-04T15:19:04.342Z</time>
      </trkpt>
      <trkpt lat="44.251815" lon="4.884050">
        <ele>110.041608</ele>
        <time>2021-07-04T15:19:09.572Z</time>
      </trkpt>
      <trkpt lat="44.250926" lon="4.884233">
        <ele>109.857769</ele>
        <time>2021-07-04T15:19:28.771Z</time>
      </trkpt>
      <trkpt lat="44.250380" lon="4.884359">
        <ele>109.867892</ele>
        <time>2021-07-04T15:19:40.827Z</time>
      </trkpt>
      <trkpt lat="44.250148" lon="4.884412">
        <ele>109.966242</ele>
        <time>2021-07-04T15:19:46.063Z</time>
      </trkpt>
      <trkpt lat="44.249852" lon="4.884490">
        <ele>110.092263</ele>
        <time>2021-07-04T15:19:53.038Z</time>
      </trkpt>
      <trkpt lat="44.249649" lon="4.884570">
        <ele>110.180508</ele>
        <time>2021-07-04T15:19:58.143Z</time>
      </trkpt>
      <trkpt lat="44.249567" lon="4.884602">
        <ele>110.216128</ele>
        <time>2021-07-04T15:20:00.143Z</time>
      </trkpt>
      <trkpt lat="44.249344" lon="4.884705">
        <ele>110.314396</ele>
        <time>2021-07-04T15:20:06.000Z</time>
      </trkpt>
      <trkpt lat="44.249292" lon="4.884738">
        <ele>110.338292</ele>
        <time>2021-07-04T15:20:07.471Z</time>
      </trkpt>
      <trkpt lat="44.249239" lon="4.884770">
        <ele>110.362450</ele>
        <time>2021-07-04T15:20:09.154Z</time>
      </trkpt>
      <trkpt lat="44.249219" lon="4.884783">
        <ele>110.371680</ele>
        <time>2021-07-04T15:20:09.775Z</time>
      </trkpt>
      <trkpt lat="44.248929" lon="4.884994">
        <ele>110.508492</ele>
        <time>2021-07-04T15:20:18.128Z</time>
      </trkpt>
      <trkpt lat="44.248727" lon="4.885133">
        <ele>110.637308</ele>
        <time>2021-07-04T15:20:23.855Z</time>
      </trkpt>
      <trkpt lat="44.247995" lon="4.885561">
        <ele>111.145574</ele>
        <time>2021-07-04T15:20:43.391Z</time>
      </trkpt>
      <trkpt lat="44.247907" lon="4.885575">
        <ele>111.202298</ele>
        <time>2021-07-04T15:20:45.773Z</time>
      </trkpt>
      <trkpt lat="44.247350" lon="4.885611">
        <ele>111.559409</ele>
        <time>2021-07-04T15:20:59.434Z</time>
      </trkpt>
      <trkpt lat="44.246685" lon="4.885671">
        <ele>111.685933</ele>
        <time>2021-07-04T15:21:15.626Z</time>
      </trkpt>
      <trkpt lat="44.246612" lon="4.885692">
        <ele>111.685364</ele>
        <time>2021-07-04T15:21:17.292Z</time>
      </trkpt>
      <trkpt lat="44.246573" lon="4.885699">
        <ele>111.685064</ele>
        <time>2021-07-04T15:21:18.254Z</time>
      </trkpt>
      <trkpt lat="44.246557" lon="4.885750">
        <ele>111.684759</ele>
        <time>2021-07-04T15:21:19.282Z</time>
      </trkpt>
      <trkpt lat="44.246519" lon="4.885794">
        <ele>111.684382</ele>
        <time>2021-07-04T15:21:20.636Z</time>
      </trkpt>
      <trkpt lat="44.246484" lon="4.885816">
        <ele>111.684089</ele>
        <time>2021-07-04T15:21:21.581Z</time>
      </trkpt>
      <trkpt lat="44.246099" lon="4.885843">
        <ele>111.681147</ele>
        <time>2021-07-04T15:21:30.259Z</time>
      </trkpt>
      <trkpt lat="44.246061" lon="4.885871">
        <ele>111.680819</ele>
        <time>2021-07-04T15:21:31.219Z</time>
      </trkpt>
      <trkpt lat="44.246023" lon="4.885968">
        <ele>111.680214</ele>
        <time>2021-07-04T15:21:32.868Z</time>
      </trkpt>
      <trkpt lat="44.245942" lon="4.886249">
        <ele>111.678558</ele>
        <time>2021-07-04T15:21:37.616Z</time>
      </trkpt>
      <trkpt lat="44.245880" lon="4.886471">
        <ele>111.677255</ele>
        <time>2021-07-04T15:21:41.019Z</time>
      </trkpt>
      <trkpt lat="44.245738" lon="4.887002">
        <ele>111.438253</ele>
        <time>2021-07-04T15:21:49.044Z</time>
      </trkpt>
      <trkpt lat="44.245704" lon="4.887109">
        <ele>111.342286</ele>
        <time>2021-07-04T15:21:50.669Z</time>
      </trkpt>
      <trkpt lat="44.245653" lon="4.887242">
        <ele>111.218607</ele>
        <time>2021-07-04T15:21:52.762Z</time>
      </trkpt>
      <trkpt lat="44.245584" lon="4.887403">
        <ele>111.064791</ele>
        <time>2021-07-04T15:21:55.301Z</time>
      </trkpt>
      <trkpt lat="44.245489" lon="4.887520">
        <ele>110.919800</ele>
        <time>2021-07-04T15:21:57.689Z</time>
      </trkpt>
      <trkpt lat="44.245405" lon="4.887607">
        <ele>110.800093</ele>
        <time>2021-07-04T15:21:59.663Z</time>
      </trkpt>
      <trkpt lat="44.245306" lon="4.887696">
        <ele>110.665327</ele>
        <time>2021-07-04T15:22:01.853Z</time>
      </trkpt>
      <trkpt lat="44.245201" lon="4.887823">
        <ele>110.506324</ele>
        <time>2021-07-04T15:22:04.418Z</time>
      </trkpt>
      <trkpt lat="44.245168" lon="4.887872">
        <ele>110.451185</ele>
        <time>2021-07-04T15:22:05.354Z</time>
      </trkpt>
      <trkpt lat="44.245154" lon="4.887918">
        <ele>110.410209</ele>
        <time>2021-07-04T15:22:05.980Z</time>
      </trkpt>
      <trkpt lat="44.245070" lon="4.887924">
        <ele>110.313947</ele>
        <time>2021-07-04T15:22:07.673Z</time>
      </trkpt>
      <trkpt lat="44.245030" lon="4.887929">
        <ele>110.267985</ele>
        <time>2021-07-04T15:22:08.438Z</time>
      </trkpt>
      <trkpt lat="44.244881" lon="4.887958">
        <ele>110.095808</ele>
        <time>2021-07-04T15:22:11.392Z</time>
      </trkpt>
      <trkpt lat="44.244245" lon="4.888038">
        <ele>109.403751</ele>
        <time>2021-07-04T15:22:23.888Z</time>
      </trkpt>
      <trkpt lat="44.243923" lon="4.888070">
        <ele>109.091093</ele>
        <time>2021-07-04T15:22:30.167Z</time>
      </trkpt>
      <trkpt lat="44.243688" lon="4.888092">
        <ele>108.862975</ele>
        <time>2021-07-04T15:22:34.777Z</time>
      </trkpt>
      <trkpt lat="44.242961" lon="4.888097">
        <ele>108.158840</ele>
        <time>2021-07-04T15:22:49.619Z</time>
      </trkpt>
      <trkpt lat="44.242920" lon="4.888097">
        <ele>108.119130</ele>
        <time>2021-07-04T15:22:50.493Z</time>
      </trkpt>
      <trkpt lat="44.242358" lon="4.888195">
        <ele>107.766305</ele>
        <time>2021-07-04T15:23:02.752Z</time>
      </trkpt>
      <trkpt lat="44.241950" lon="4.888286">
        <ele>107.623268</ele>
        <time>2021-07-04T15:23:11.960Z</time>
      </trkpt>
      <trkpt lat="44.241818" lon="4.888354">
        <ele>107.574559</ele>
        <time>2021-07-04T15:23:15.030Z</time>
      </trkpt>
      <trkpt lat="44.240525" lon="4.889224">
        <ele>107.141976</ele>
        <time>2021-07-04T15:23:46.896Z</time>
      </trkpt>
      <trkpt lat="44.240188" lon="4.889349">
        <ele>107.065672</ele>
        <time>2021-07-04T15:23:54.862Z</time>
      </trkpt>
      <trkpt lat="44.239988" lon="4.889400">
        <ele>107.021181</ele>
        <time>2021-07-04T15:23:59.314Z</time>
      </trkpt>
      <trkpt lat="44.239102" lon="4.889688">
        <ele>106.859060</ele>
        <time>2021-07-04T15:24:19.518Z</time>
      </trkpt>
      <trkpt lat="44.238896" lon="4.889776">
        <ele>106.859248</ele>
        <time>2021-07-04T15:24:24.310Z</time>
      </trkpt>
      <trkpt lat="44.238731" lon="4.889841">
        <ele>106.859397</ele>
        <time>2021-07-04T15:24:28.349Z</time>
      </trkpt>
      <trkpt lat="44.238538" lon="4.889966">
        <ele>106.859582</ele>
        <time>2021-07-04T15:24:33.154Z</time>
      </trkpt>
      <trkpt lat="44.237842" lon="4.890452">
        <ele>106.860259</ele>
        <time>2021-07-04T15:24:51.474Z</time>
      </trkpt>
      <trkpt lat="44.236964" lon="4.891008">
        <ele>106.905193</ele>
        <time>2021-07-04T15:25:14.565Z</time>
      </trkpt>
      <trkpt lat="44.236044" lon="4.891681">
        <ele>106.970466</ele>
        <time>2021-07-04T15:25:39.171Z</time>
      </trkpt>
      <trkpt lat="44.235225" lon="4.892304">
        <ele>106.618947</ele>
        <time>2021-07-04T15:25:59.131Z</time>
      </trkpt>
      <trkpt lat="44.235051" lon="4.892422">
        <ele>106.541388</ele>
        <time>2021-07-04T15:26:03.254Z</time>
      </trkpt>
      <trkpt lat="44.234905" lon="4.892489">
        <ele>106.479770</ele>
        <time>2021-07-04T15:26:06.611Z</time>
      </trkpt>
      <trkpt lat="44.234833" lon="4.892518">
        <ele>106.449725</ele>
        <time>2021-07-04T15:26:08.143Z</time>
      </trkpt>
      <trkpt lat="44.234499" lon="4.892658">
        <ele>106.309908</ele>
        <time>2021-07-04T15:26:15.725Z</time>
      </trkpt>
      <trkpt lat="44.234356" lon="4.892711">
        <ele>106.252109</ele>
        <time>2021-07-04T15:26:18.980Z</time>
      </trkpt>
      <trkpt lat="44.233988" lon="4.892837">
        <ele>106.228573</ele>
        <time>2021-07-04T15:26:27.298Z</time>
      </trkpt>
      <trkpt lat="44.233573" lon="4.892941">
        <ele>106.202383</ele>
        <time>2021-07-04T15:26:36.693Z</time>
      </trkpt>
      <trkpt lat="44.232963" lon="4.893050">
        <ele>106.164183</ele>
        <time>2021-07-04T15:26:51.103Z</time>
      </trkpt>
      <trkpt lat="44.232311" lon="4.893055">
        <ele>106.112428</ele>
        <time>2021-07-04T15:27:06.945Z</time>
      </trkpt>
      <trkpt lat="44.231442" lon="4.892991">
        <ele>106.022547</ele>
        <time>2021-07-04T15:27:27.125Z</time>
      </trkpt>
      <trkpt lat="44.230454" lon="4.892884">
        <ele>105.740931</ele>
        <time>2021-07-04T15:27:48.739Z</time>
      </trkpt>
      <trkpt lat="44.229681" lon="4.892892">
        <ele>105.248564</ele>
        <time>2021-07-04T15:28:04.874Z</time>
      </trkpt>
      <trkpt lat="44.229275" lon="4.892967">
        <ele>104.987711</ele>
        <time>2021-07-04T15:28:13.346Z</time>
      </trkpt>
      <trkpt lat="44.227048" lon="4.893755">
        <ele>103.495978</ele>
        <time>2021-07-04T15:29:01.305Z</time>
      </trkpt>
      <trkpt lat="44.226809" lon="4.893900">
        <ele>103.412192</ele>
        <time>2021-07-04T15:29:06.899Z</time>
      </trkpt>
      <trkpt lat="44.226514" lon="4.894101">
        <ele>103.306649</ele>
        <time>2021-07-04T15:29:14.086Z</time>
      </trkpt>
      <trkpt lat="44.224999" lon="4.895377">
        <ele>102.905591</ele>
        <time>2021-07-04T15:29:54.128Z</time>
      </trkpt>
      <trkpt lat="44.221595" lon="4.897887">
        <ele>102.483713</ele>
        <time>2021-07-04T15:31:21.995Z</time>
      </trkpt>
      <trkpt lat="44.220668" lon="4.898410">
        <ele>102.309998</ele>
        <time>2021-07-04T15:31:44.484Z</time>
      </trkpt>
      <trkpt lat="44.220159" lon="4.898769">
        <ele>102.109149</ele>
        <time>2021-07-04T15:31:57.020Z</time>
      </trkpt>
      <trkpt lat="44.219814" lon="4.899031">
        <ele>101.970823</ele>
        <time>2021-07-04T15:32:05.541Z</time>
      </trkpt>
      <trkpt lat="44.219401" lon="4.899372">
        <ele>101.801823</ele>
        <time>2021-07-04T15:32:15.819Z</time>
      </trkpt>
      <trkpt lat="44.218187" lon="4.900683">
        <ele>101.394298</ele>
        <time>2021-07-04T15:32:49.529Z</time>
      </trkpt>
      <trkpt lat="44.217652" lon="4.901335">
        <ele>101.204926</ele>
        <time>2021-07-04T15:33:06.224Z</time>
      </trkpt>
      <trkpt lat="44.217502" lon="4.901615">
        <ele>101.135532</ele>
        <time>2021-07-04T15:33:12.302Z</time>
      </trkpt>
      <trkpt lat="44.217025" lon="4.902984">
        <ele>100.833359</ele>
        <time>2021-07-04T15:33:36.456Z</time>
      </trkpt>
      <trkpt lat="44.216748" lon="4.903552">
        <ele>100.404869</ele>
        <time>2021-07-04T15:33:46.593Z</time>
      </trkpt>
      <trkpt lat="44.216709" lon="4.903587">
        <ele>100.354283</ele>
        <time>2021-07-04T15:33:47.451Z</time>
      </trkpt>
      <trkpt lat="44.216665" lon="4.903627">
        <ele>100.296994</ele>
        <time>2021-07-04T15:33:48.465Z</time>
      </trkpt>
      <trkpt lat="44.216560" lon="4.903722">
        <ele>100.160475</ele>
        <time>2021-07-04T15:33:51.119Z</time>
      </trkpt>
      <trkpt lat="44.216536" lon="4.903817">
        <ele>100.081720</ele>
        <time>2021-07-04T15:33:52.529Z</time>
      </trkpt>
      <trkpt lat="44.216395" lon="4.903754">
        <ele>99.920208</ele>
        <time>2021-07-04T15:33:55.407Z</time>
      </trkpt>
      <trkpt lat="44.216334" lon="4.903743">
        <ele>99.853110</ele>
        <time>2021-07-04T15:33:56.667Z</time>
      </trkpt>
      <trkpt lat="44.216059" lon="4.903678">
        <ele>99.548838</ele>
        <time>2021-07-04T15:34:02.092Z</time>
      </trkpt>
      <trkpt lat="44.214573" lon="4.902791">
        <ele>98.155808</ele>
        <time>2021-07-04T15:34:33.999Z</time>
      </trkpt>
      <trkpt lat="44.212980" lon="4.901498">
        <ele>97.635545</ele>
        <time>2021-07-04T15:35:15.777Z</time>
      </trkpt>
      <trkpt lat="44.212724" lon="4.901347">
        <ele>97.655111</ele>
        <time>2021-07-04T15:35:22.527Z</time>
      </trkpt>
      <trkpt lat="44.211625" lon="4.901188">
        <ele>97.840395</ele>
        <time>2021-07-04T15:35:49.580Z</time>
      </trkpt>
      <trkpt lat="44.211431" lon="4.901224">
        <ele>97.889847</ele>
        <time>2021-07-04T15:35:54.404Z</time>
      </trkpt>
      <trkpt lat="44.210763" lon="4.901530">
        <ele>98.067507</ele>
        <time>2021-07-04T15:36:11.498Z</time>
      </trkpt>
      <trkpt lat="44.210082" lon="4.901533">
        <ele>97.966606</ele>
        <time>2021-07-04T15:36:27.403Z</time>
      </trkpt>
      <trkpt lat="44.209507" lon="4.901407">
        <ele>97.685284</ele>
        <time>2021-07-04T15:36:40.196Z</time>
      </trkpt>
      <trkpt lat="44.208815" lon="4.901471">
        <ele>97.350085</ele>
        <time>2021-07-04T15:36:54.734Z</time>
      </trkpt>
      <trkpt lat="44.208500" lon="4.901484">
        <ele>97.086799</ele>
        <time>2021-07-04T15:37:01.128Z</time>
      </trkpt>
      <trkpt lat="44.205525" lon="4.900950">
        <ele>93.666081</ele>
        <time>2021-07-04T15:38:00.104Z</time>
      </trkpt>
      <trkpt lat="44.204986" lon="4.900867">
        <ele>93.120242</ele>
        <time>2021-07-04T15:38:11.253Z</time>
      </trkpt>
      <trkpt lat="44.204420" lon="4.900778">
        <ele>92.789290</ele>
        <time>2021-07-04T15:38:23.217Z</time>
      </trkpt>
      <trkpt lat="44.204184" lon="4.900688">
        <ele>92.647132</ele>
        <time>2021-07-04T15:38:28.409Z</time>
      </trkpt>
      <trkpt lat="44.203074" lon="4.899945">
        <ele>91.986864</ele>
        <time>2021-07-04T15:38:55.056Z</time>
      </trkpt>
      <trkpt lat="44.202985" lon="4.899852">
        <ele>91.939546</ele>
        <time>2021-07-04T15:38:57.451Z</time>
      </trkpt>
      <trkpt lat="44.202927" lon="4.899723">
        <ele>91.893097</ele>
        <time>2021-07-04T15:38:59.830Z</time>
      </trkpt>
      <trkpt lat="44.202381" lon="4.897251">
        <ele>91.107148</ele>
        <time>2021-07-04T15:39:40.227Z</time>
      </trkpt>
      <trkpt lat="44.200298" lon="4.895553">
        <ele>90.104711</ele>
        <time>2021-07-04T15:40:32.588Z</time>
      </trkpt>
      <trkpt lat="44.199435" lon="4.894903">
        <ele>89.729639</ele>
        <time>2021-07-04T15:40:53.793Z</time>
      </trkpt>
      <trkpt lat="44.198697" lon="4.894370">
        <ele>89.442373</ele>
        <time>2021-07-04T15:41:12.007Z</time>
      </trkpt>
      <trkpt lat="44.197724" lon="4.893590">
        <ele>89.023263</ele>
        <time>2021-07-04T15:41:36.812Z</time>
      </trkpt>
      <trkpt lat="44.197029" lon="4.892521">
        <ele>88.610102</ele>
        <time>2021-07-04T15:41:59.491Z</time>
      </trkpt>
      <trkpt lat="44.196416" lon="4.891868">
        <ele>88.084452</ele>
        <time>2021-07-04T15:42:15.779Z</time>
      </trkpt>
      <trkpt lat="44.195682" lon="4.890943">
        <ele>87.323503</ele>
        <time>2021-07-04T15:42:36.043Z</time>
      </trkpt>
      <trkpt lat="44.195627" lon="4.890808">
        <ele>87.237867</ele>
        <time>2021-07-04T15:42:38.317Z</time>
      </trkpt>
      <trkpt lat="44.195556" lon="4.890489">
        <ele>87.081562</ele>
        <time>2021-07-04T15:42:43.298Z</time>
      </trkpt>
      <trkpt lat="44.195505" lon="4.890311">
        <ele>87.005410</ele>
        <time>2021-07-04T15:42:46.142Z</time>
      </trkpt>
      <trkpt lat="44.195397" lon="4.890183">
        <ele>86.926879</ele>
        <time>2021-07-04T15:42:49.140Z</time>
      </trkpt>
      <trkpt lat="44.194870" lon="4.889848">
        <ele>86.605968</ele>
        <time>2021-07-04T15:43:01.290Z</time>
      </trkpt>
      <trkpt lat="44.194139" lon="4.888973">
        <ele>86.131263</ele>
        <time>2021-07-04T15:43:22.179Z</time>
      </trkpt>
      <trkpt lat="44.194032" lon="4.888848">
        <ele>86.107910</ele>
        <time>2021-07-04T15:43:25.301Z</time>
      </trkpt>
      <trkpt lat="44.194008" lon="4.888818">
        <ele>86.102518</ele>
        <time>2021-07-04T15:43:26.079Z</time>
      </trkpt>
      <trkpt lat="44.193788" lon="4.888968">
        <ele>86.061546</ele>
        <time>2021-07-04T15:43:31.321Z</time>
      </trkpt>
      <trkpt lat="44.192886" lon="4.889728">
        <ele>85.885227</ele>
        <time>2021-07-04T15:43:54.430Z</time>
      </trkpt>
      <trkpt lat="44.192525" lon="4.889890">
        <ele>85.798375</ele>
        <time>2021-07-04T15:44:02.678Z</time>
      </trkpt>
      <trkpt lat="44.192124" lon="4.889875">
        <ele>85.685192</ele>
        <time>2021-07-04T15:44:11.514Z</time>
      </trkpt>
      <trkpt lat="44.190489" lon="4.889512">
        <ele>85.212757</ele>
        <time>2021-07-04T15:44:46.130Z</time>
      </trkpt>
      <trkpt lat="44.190417" lon="4.889524">
        <ele>85.191464</ele>
        <time>2021-07-04T15:44:47.694Z</time>
      </trkpt>
      <trkpt lat="44.190299" lon="4.889607">
        <ele>85.152656</ele>
        <time>2021-07-04T15:44:50.249Z</time>
      </trkpt>
      <trkpt lat="44.190057" lon="4.889851">
        <ele>85.064968</ele>
        <time>2021-07-04T15:44:56.415Z</time>
      </trkpt>
      <trkpt lat="44.189506" lon="4.890428">
        <ele>84.862635</ele>
        <time>2021-07-04T15:45:11.112Z</time>
      </trkpt>
      <trkpt lat="44.188993" lon="4.890967">
        <ele>85.134372</ele>
        <time>2021-07-04T15:45:25.853Z</time>
      </trkpt>
      <trkpt lat="44.188465" lon="4.891516">
        <ele>85.549962</ele>
        <time>2021-07-04T15:45:42.422Z</time>
      </trkpt>
      <trkpt lat="44.187817" lon="4.892209">
        <ele>86.001127</ele>
        <time>2021-07-04T15:46:04.501Z</time>
      </trkpt>
      <trkpt lat="44.187833" lon="4.894292">
        <ele>86.394463</ele>
        <time>2021-07-04T15:46:40.960Z</time>
      </trkpt>
      <trkpt lat="44.187971" lon="4.894542">
        <ele>86.355768</ele>
        <time>2021-07-04T15:46:45.653Z</time>
      </trkpt>
      <trkpt lat="44.187949" lon="4.894572">
        <ele>86.332278</ele>
        <time>2021-07-04T15:46:46.160Z</time>
      </trkpt>
      <trkpt lat="44.187875" lon="4.894736">
        <ele>86.226204</ele>
        <time>2021-07-04T15:46:49.116Z</time>
      </trkpt>
      <trkpt lat="44.187847" lon="4.895101">
        <ele>86.025254</ele>
        <time>2021-07-04T15:46:54.442Z</time>
      </trkpt>
      <trkpt lat="44.187634" lon="4.895748">
        <ele>85.635524</ele>
        <time>2021-07-04T15:47:04.877Z</time>
      </trkpt>
      <trkpt lat="44.187484" lon="4.896134">
        <ele>85.395182</ele>
        <time>2021-07-04T15:47:11.137Z</time>
      </trkpt>
      <trkpt lat="44.187039" lon="4.897192">
        <ele>85.073518</ele>
        <time>2021-07-04T15:47:29.570Z</time>
      </trkpt>
      <trkpt lat="44.186778" lon="4.897612">
        <ele>85.089856</ele>
        <time>2021-07-04T15:47:38.524Z</time>
      </trkpt>
      <trkpt lat="44.185662" lon="4.900528">
        <ele>85.750732</ele>
        <time>2021-07-04T15:48:38.609Z</time>
      </trkpt>
      <trkpt lat="44.185478" lon="4.900840">
        <ele>85.878838</ele>
        <time>2021-07-04T15:48:45.561Z</time>
      </trkpt>
      <trkpt lat="44.185474" lon="4.901186">
        <ele>85.911260</ele>
        <time>2021-07-04T15:48:51.470Z</time>
      </trkpt>
      <trkpt lat="44.185261" lon="4.901207">
        <ele>85.891108</ele>
        <time>2021-07-04T15:48:56.344Z</time>
      </trkpt>
      <trkpt lat="44.184814" lon="4.901254">
        <ele>85.848803</ele>
        <time>2021-07-04T15:49:06.625Z</time>
      </trkpt>
      <trkpt lat="44.184334" lon="4.901313">
        <ele>85.803328</ele>
        <time>2021-07-04T15:49:17.814Z</time>
      </trkpt>
      <trkpt lat="44.183915" lon="4.901345">
        <ele>85.763726</ele>
        <time>2021-07-04T15:49:27.199Z</time>
      </trkpt>
      <trkpt lat="44.183267" lon="4.901446">
        <ele>85.454597</ele>
        <time>2021-07-04T15:49:40.920Z</time>
      </trkpt>
      <trkpt lat="44.183179" lon="4.901457">
        <ele>85.407249</ele>
        <time>2021-07-04T15:49:42.703Z</time>
      </trkpt>
      <trkpt lat="44.183185" lon="4.901519">
        <ele>85.383206</ele>
        <time>2021-07-04T15:49:43.927Z</time>
      </trkpt>
      <trkpt lat="44.183190" lon="4.901599">
        <ele>85.352345</ele>
        <time>2021-07-04T15:49:45.491Z</time>
      </trkpt>
      <trkpt lat="44.183203" lon="4.902005">
        <ele>85.196162</ele>
        <time>2021-07-04T15:49:53.435Z</time>
      </trkpt>
      <trkpt lat="44.183205" lon="4.902043">
        <ele>85.181519</ele>
        <time>2021-07-04T15:49:54.184Z</time>
      </trkpt>
      <trkpt lat="44.183213" lon="4.902165">
        <ele>85.134439</ele>
        <time>2021-07-04T15:49:56.610Z</time>
      </trkpt>
      <trkpt lat="44.183222" lon="4.902283">
        <ele>85.088835</ele>
        <time>2021-07-04T15:49:58.932Z</time>
      </trkpt>
      <trkpt lat="44.183233" lon="4.902478">
        <ele>85.013664</ele>
        <time>2021-07-04T15:50:02.779Z</time>
      </trkpt>
      <trkpt lat="44.183227" lon="4.902535">
        <ele>84.991524</ele>
        <time>2021-07-04T15:50:03.936Z</time>
      </trkpt>
      <trkpt lat="44.183194" lon="4.902610">
        <ele>84.957709</ele>
        <time>2021-07-04T15:50:05.704Z</time>
      </trkpt>
      <trkpt lat="44.183079" lon="4.902644">
        <ele>84.894710</ele>
        <time>2021-07-04T15:50:08.991Z</time>
      </trkpt>
      <trkpt lat="44.183034" lon="4.902687">
        <ele>84.865476</ele>
        <time>2021-07-04T15:50:10.511Z</time>
      </trkpt>
      <trkpt lat="44.182945" lon="4.902786">
        <ele>84.804464</ele>
        <time>2021-07-04T15:50:13.665Z</time>
      </trkpt>
      <trkpt lat="44.182901" lon="4.902733">
        <ele>84.783740</ele>
        <time>2021-07-04T15:50:14.887Z</time>
      </trkpt>
      <trkpt lat="44.182787" lon="4.902723">
        <ele>84.758192</ele>
        <time>2021-07-04T15:50:17.278Z</time>
      </trkpt>
      <trkpt lat="44.182739" lon="4.902768">
        <ele>84.745255</ele>
        <time>2021-07-04T15:50:18.508Z</time>
      </trkpt>
      <trkpt lat="44.182710" lon="4.902833">
        <ele>84.732976</ele>
        <time>2021-07-04T15:50:19.604Z</time>
      </trkpt>
      <trkpt lat="44.182702" lon="4.902909">
        <ele>84.720656</ele>
        <time>2021-07-04T15:50:20.784Z</time>
      </trkpt>
      <trkpt lat="44.182716" lon="4.902983">
        <ele>84.708380</ele>
        <time>2021-07-04T15:50:21.919Z</time>
      </trkpt>
      <trkpt lat="44.182589" lon="4.903012">
        <ele>84.679596</ele>
        <time>2021-07-04T15:50:24.765Z</time>
      </trkpt>
      <trkpt lat="44.182554" lon="4.903016">
        <ele>84.671742</ele>
        <time>2021-07-04T15:50:25.523Z</time>
      </trkpt>
      <trkpt lat="44.182338" lon="4.903027">
        <ele>84.623398</ele>
        <time>2021-07-04T15:50:30.172Z</time>
      </trkpt>
      <trkpt lat="44.182139" lon="4.903059">
        <ele>84.578593</ele>
        <time>2021-07-04T15:50:34.452Z</time>
      </trkpt>
      <trkpt lat="44.181128" lon="4.903405">
        <ele>84.423659</ele>
        <time>2021-07-04T15:50:58.430Z</time>
      </trkpt>
      <trkpt lat="44.180471" lon="4.903858">
        <ele>84.555601</ele>
        <time>2021-07-04T15:51:16.262Z</time>
      </trkpt>
      <trkpt lat="44.180014" lon="4.904134">
        <ele>84.645255</ele>
        <time>2021-07-04T15:51:28.277Z</time>
      </trkpt>
      <trkpt lat="44.179446" lon="4.904516">
        <ele>84.650455</ele>
        <time>2021-07-04T15:51:43.356Z</time>
      </trkpt>
      <trkpt lat="44.178625" lon="4.905076">
        <ele>84.428109</ele>
        <time>2021-07-04T15:52:03.674Z</time>
      </trkpt>
      <trkpt lat="44.177995" lon="4.905204">
        <ele>84.271563</ele>
        <time>2021-07-04T15:52:17.570Z</time>
      </trkpt>
      <trkpt lat="44.177601" lon="4.905251">
        <ele>84.091854</ele>
        <time>2021-07-04T15:52:26.009Z</time>
      </trkpt>
      <trkpt lat="44.177534" lon="4.905269">
        <ele>84.060846</ele>
        <time>2021-07-04T15:52:27.362Z</time>
      </trkpt>
      <trkpt lat="44.176933" lon="4.905468">
        <ele>83.780124</ele>
        <time>2021-07-04T15:52:40.486Z</time>
      </trkpt>
      <trkpt lat="44.176385" lon="4.905669">
        <ele>83.522611</ele>
        <time>2021-07-04T15:52:52.566Z</time>
      </trkpt>
      <trkpt lat="44.175811" lon="4.905859">
        <ele>83.590383</ele>
        <time>2021-07-04T15:53:06.125Z</time>
      </trkpt>
      <trkpt lat="44.175628" lon="4.905940">
        <ele>83.647327</ele>
        <time>2021-07-04T15:53:10.435Z</time>
      </trkpt>
      <trkpt lat="44.175539" lon="4.905995">
        <ele>83.676199</ele>
        <time>2021-07-04T15:53:13.059Z</time>
      </trkpt>
      <trkpt lat="44.174906" lon="4.906656">
        <ele>83.910751</ele>
        <time>2021-07-04T15:53:32.988Z</time>
      </trkpt>
      <trkpt lat="44.174346" lon="4.907088">
        <ele>84.114857</ele>
        <time>2021-07-04T15:53:49.567Z</time>
      </trkpt>
      <trkpt lat="44.173993" lon="4.907278">
        <ele>84.241747</ele>
        <time>2021-07-04T15:53:59.409Z</time>
      </trkpt>
      <trkpt lat="44.170843" lon="4.908839">
        <ele>84.591036</ele>
        <time>2021-07-04T15:55:17.914Z</time>
      </trkpt>
      <trkpt lat="44.170493" lon="4.908986">
        <ele>84.481311</ele>
        <time>2021-07-04T15:55:25.950Z</time>
      </trkpt>
      <trkpt lat="44.170269" lon="4.909038">
        <ele>84.413146</ele>
        <time>2021-07-04T15:55:30.890Z</time>
      </trkpt>
      <trkpt lat="44.169962" lon="4.909044">
        <ele>84.320984</ele>
        <time>2021-07-04T15:55:37.534Z</time>
      </trkpt>
      <trkpt lat="44.168981" lon="4.908994">
        <ele>83.882790</ele>
        <time>2021-07-04T15:55:58.432Z</time>
      </trkpt>
      <trkpt lat="44.167038" lon="4.908923">
        <ele>83.008574</ele>
        <time>2021-07-04T15:56:39.694Z</time>
      </trkpt>
      <trkpt lat="44.166225" lon="4.908727">
        <ele>82.777158</ele>
        <time>2021-07-04T15:56:58.284Z</time>
      </trkpt>
      <trkpt lat="44.165325" lon="4.908796">
        <ele>82.821865</ele>
        <time>2021-07-04T15:57:19.636Z</time>
      </trkpt>
      <trkpt lat="44.165180" lon="4.908807">
        <ele>82.847767</ele>
        <time>2021-07-04T15:57:23.100Z</time>
      </trkpt>
      <trkpt lat="44.165101" lon="4.908773">
        <ele>82.862515</ele>
        <time>2021-07-04T15:57:25.238Z</time>
      </trkpt>
      <trkpt lat="44.164799" lon="4.908714">
        <ele>82.916909</ele>
        <time>2021-07-04T15:57:32.519Z</time>
      </trkpt>
      <trkpt lat="44.164181" lon="4.908732">
        <ele>83.026786</ele>
        <time>2021-07-04T15:57:47.470Z</time>
      </trkpt>
      <trkpt lat="44.163081" lon="4.908807">
        <ele>82.662349</ele>
        <time>2021-07-04T15:58:13.236Z</time>
      </trkpt>
      <trkpt lat="44.162421" lon="4.908722">
        <ele>82.443018</ele>
        <time>2021-07-04T15:58:26.996Z</time>
      </trkpt>
      <trkpt lat="44.161734" lon="4.908588">
        <ele>81.399460</ele>
        <time>2021-07-04T15:58:40.578Z</time>
      </trkpt>
      <trkpt lat="44.161637" lon="4.908539">
        <ele>81.238056</ele>
        <time>2021-07-04T15:58:42.511Z</time>
      </trkpt>
      <trkpt lat="44.161567" lon="4.908466">
        <ele>81.101294</ele>
        <time>2021-07-04T15:58:44.263Z</time>
      </trkpt>
      <trkpt lat="44.161549" lon="4.908444">
        <ele>81.063844</ele>
        <time>2021-07-04T15:58:44.765Z</time>
      </trkpt>
      <trkpt lat="44.161398" lon="4.908280">
        <ele>80.764382</ele>
        <time>2021-07-04T15:58:48.184Z</time>
      </trkpt>
      <trkpt lat="44.161206" lon="4.908095">
        <ele>80.399243</ele>
        <time>2021-07-04T15:58:52.717Z</time>
      </trkpt>
      <trkpt lat="44.161182" lon="4.908088">
        <ele>80.360884</ele>
        <time>2021-07-04T15:58:53.111Z</time>
      </trkpt>
      <trkpt lat="44.161181" lon="4.908020">
        <ele>80.284554</ele>
        <time>2021-07-04T15:58:53.983Z</time>
      </trkpt>
      <trkpt lat="44.161157" lon="4.908015">
        <ele>80.246591</ele>
        <time>2021-07-04T15:58:54.377Z</time>
      </trkpt>
      <trkpt lat="44.160598" lon="4.907813">
        <ele>79.335180</ele>
        <time>2021-07-04T15:59:05.162Z</time>
      </trkpt>
      <trkpt lat="44.160499" lon="4.907779">
        <ele>79.171028</ele>
        <time>2021-07-04T15:59:06.907Z</time>
      </trkpt>
      <trkpt lat="44.157373" lon="4.907388">
        <ele>74.659980</ele>
        <time>2021-07-04T16:00:07.339Z</time>
      </trkpt>
      <trkpt lat="44.157259" lon="4.907359">
        <ele>74.512235</ele>
        <time>2021-07-04T16:00:09.832Z</time>
      </trkpt>
      <trkpt lat="44.155752" lon="4.907225">
        <ele>73.713438</ele>
        <time>2021-07-04T16:00:43.064Z</time>
      </trkpt>
      <trkpt lat="44.152288" lon="4.906902">
        <ele>71.681824</ele>
        <time>2021-07-04T16:01:55.829Z</time>
      </trkpt>
      <trkpt lat="44.151369" lon="4.906838">
        <ele>71.362081</ele>
        <time>2021-07-04T16:02:16.528Z</time>
      </trkpt>
      <trkpt lat="44.150696" lon="4.906956">
        <ele>71.257048</ele>
        <time>2021-07-04T16:02:32.204Z</time>
      </trkpt>
      <trkpt lat="44.149991" lon="4.906888">
        <ele>71.141242</ele>
        <time>2021-07-04T16:02:48.271Z</time>
      </trkpt>
      <trkpt lat="44.148410" lon="4.906727">
        <ele>70.523841</ele>
        <time>2021-07-04T16:03:22.750Z</time>
      </trkpt>
      <trkpt lat="44.148160" lon="4.906664">
        <ele>70.418838</ele>
        <time>2021-07-04T16:03:28.075Z</time>
      </trkpt>
      <trkpt lat="44.146583" lon="4.906224">
        <ele>69.648834</ele>
        <time>2021-07-04T16:04:02.633Z</time>
      </trkpt>
      <trkpt lat="44.145972" lon="4.905781">
        <ele>69.301527</ele>
        <time>2021-07-04T16:04:17.602Z</time>
      </trkpt>
      <trkpt lat="44.144254" lon="4.905654">
        <ele>68.311052</ele>
        <time>2021-07-04T16:04:54.107Z</time>
      </trkpt>
      <trkpt lat="44.143632" lon="4.905592">
        <ele>67.848186</ele>
        <time>2021-07-04T16:05:07.109Z</time>
      </trkpt>
      <trkpt lat="44.142817" lon="4.905465">
        <ele>67.254533</ele>
        <time>2021-07-04T16:05:23.988Z</time>
      </trkpt>
      <trkpt lat="44.142116" lon="4.905270">
        <ele>66.804891</ele>
        <time>2021-07-04T16:05:38.875Z</time>
      </trkpt>
      <trkpt lat="44.141716" lon="4.905098">
        <ele>66.541576</ele>
        <time>2021-07-04T16:05:47.699Z</time>
      </trkpt>
      <trkpt lat="44.140343" lon="4.904386">
        <ele>65.686546</ele>
        <time>2021-07-04T16:06:19.205Z</time>
      </trkpt>
      <trkpt lat="44.138054" lon="4.903200">
        <ele>64.167911</ele>
        <time>2021-07-04T16:07:10.814Z</time>
      </trkpt>
      <trkpt lat="44.137411" lon="4.902827">
        <ele>63.556621</ele>
        <time>2021-07-04T16:07:24.961Z</time>
      </trkpt>
      <trkpt lat="44.137132" lon="4.902665">
        <ele>63.260068</ele>
        <time>2021-07-04T16:07:31.034Z</time>
      </trkpt>
      <trkpt lat="44.136317" lon="4.902379">
        <ele>62.435475</ele>
        <time>2021-07-04T16:07:47.972Z</time>
      </trkpt>
      <trkpt lat="44.135589" lon="4.902347">
        <ele>61.822218</ele>
        <time>2021-07-04T16:08:02.748Z</time>
      </trkpt>
      <trkpt lat="44.134985" lon="4.902413">
        <ele>61.340159</ele>
        <time>2021-07-04T16:08:15.532Z</time>
      </trkpt>
      <trkpt lat="44.134152" lon="4.902542">
        <ele>60.692372</ele>
        <time>2021-07-04T16:08:32.718Z</time>
      </trkpt>
      <trkpt lat="44.133820" lon="4.902591">
        <ele>60.459941</ele>
        <time>2021-07-04T16:08:39.676Z</time>
      </trkpt>
      <trkpt lat="44.133605" lon="4.902588">
        <ele>60.310251</ele>
        <time>2021-07-04T16:08:44.224Z</time>
      </trkpt>
      <trkpt lat="44.133302" lon="4.902613">
        <ele>60.098934</ele>
        <time>2021-07-04T16:08:50.513Z</time>
      </trkpt>
      <trkpt lat="44.132430" lon="4.902688">
        <ele>59.507132</ele>
        <time>2021-07-04T16:09:09.084Z</time>
      </trkpt>
      <trkpt lat="44.131540" lon="4.902893">
        <ele>59.003400</ele>
        <time>2021-07-04T16:09:28.315Z</time>
      </trkpt>
      <trkpt lat="44.129974" lon="4.903493">
        <ele>58.146717</ele>
        <time>2021-07-04T16:10:02.727Z</time>
      </trkpt>
      <trkpt lat="44.129313" lon="4.903714">
        <ele>57.807465</ele>
        <time>2021-07-04T16:10:17.449Z</time>
      </trkpt>
      <trkpt lat="44.128916" lon="4.903795">
        <ele>57.636551</ele>
        <time>2021-07-04T16:10:26.162Z</time>
      </trkpt>
      <trkpt lat="44.128199" lon="4.903892">
        <ele>57.440535</ele>
        <time>2021-07-04T16:10:41.714Z</time>
      </trkpt>
      <trkpt lat="44.127925" lon="4.903901">
        <ele>57.365958</ele>
        <time>2021-07-04T16:10:47.826Z</time>
      </trkpt>
      <trkpt lat="44.127273" lon="4.903923">
        <ele>57.188494</ele>
        <time>2021-07-04T16:11:02.743Z</time>
      </trkpt>
      <trkpt lat="44.126237" lon="4.903875">
        <ele>57.088216</ele>
        <time>2021-07-04T16:11:26.256Z</time>
      </trkpt>
      <trkpt lat="44.125927" lon="4.903826">
        <ele>57.059264</ele>
        <time>2021-07-04T16:11:33.314Z</time>
      </trkpt>
      <trkpt lat="44.125858" lon="4.903810">
        <ele>57.052773</ele>
        <time>2021-07-04T16:11:34.813Z</time>
      </trkpt>
      <trkpt lat="44.125822" lon="4.903799">
        <ele>57.049352</ele>
        <time>2021-07-04T16:11:35.667Z</time>
      </trkpt>
      <trkpt lat="44.125343" lon="4.903622">
        <ele>57.008347</ele>
        <time>2021-07-04T16:11:47.142Z</time>
      </trkpt>
      <trkpt lat="44.124277" lon="4.903441">
        <ele>56.950008</ele>
        <time>2021-07-04T16:12:12.028Z</time>
      </trkpt>
      <trkpt lat="44.123310" lon="4.903204">
        <ele>56.830415</ele>
        <time>2021-07-04T16:12:34.269Z</time>
      </trkpt>
      <trkpt lat="44.123103" lon="4.903114">
        <ele>56.781473</ele>
        <time>2021-07-04T16:12:39.132Z</time>
      </trkpt>
      <trkpt lat="44.122605" lon="4.902644">
        <ele>56.645711</ele>
        <time>2021-07-04T16:12:52.541Z</time>
      </trkpt>
      <trkpt lat="44.122359" lon="4.902539">
        <ele>56.587642</ele>
        <time>2021-07-04T16:12:58.256Z</time>
      </trkpt>
      <trkpt lat="44.121269" lon="4.902454">
        <ele>56.307569</ele>
        <time>2021-07-04T16:13:22.310Z</time>
      </trkpt>
      <trkpt lat="44.120252" lon="4.902706">
        <ele>56.028375</ele>
        <time>2021-07-04T16:13:45.280Z</time>
      </trkpt>
      <trkpt lat="44.120129" lon="4.902692">
        <ele>56.001774</ele>
        <time>2021-07-04T16:13:48.054Z</time>
      </trkpt>
      <trkpt lat="44.119724" lon="4.902461">
        <ele>55.909631</ele>
        <time>2021-07-04T16:13:57.913Z</time>
      </trkpt>
      <trkpt lat="44.119363" lon="4.901966">
        <ele>55.802978</ele>
        <time>2021-07-04T16:14:09.146Z</time>
      </trkpt>
      <trkpt lat="44.119358" lon="4.901930">
        <ele>55.797435</ele>
        <time>2021-07-04T16:14:09.672Z</time>
      </trkpt>
      <trkpt lat="44.119228" lon="4.901916">
        <ele>55.769983</ele>
        <time>2021-07-04T16:14:12.430Z</time>
      </trkpt>
      <trkpt lat="44.119105" lon="4.901889">
        <ele>55.743766</ele>
        <time>2021-07-04T16:14:15.192Z</time>
      </trkpt>
      <trkpt lat="44.118958" lon="4.901837">
        <ele>55.711833</ele>
        <time>2021-07-04T16:14:18.362Z</time>
      </trkpt>
      <trkpt lat="44.118839" lon="4.901786">
        <ele>55.685619</ele>
        <time>2021-07-04T16:14:21.124Z</time>
      </trkpt>
      <trkpt lat="44.118724" lon="4.901724">
        <ele>55.659656</ele>
        <time>2021-07-04T16:14:23.904Z</time>
      </trkpt>
      <trkpt lat="44.118633" lon="4.901671">
        <ele>55.643430</ele>
        <time>2021-07-04T16:14:25.909Z</time>
      </trkpt>
      <trkpt lat="44.118499" lon="4.901570">
        <ele>55.629577</ele>
        <time>2021-07-04T16:14:29.280Z</time>
      </trkpt>
      <trkpt lat="44.118391" lon="4.901475">
        <ele>55.617963</ele>
        <time>2021-07-04T16:14:32.074Z</time>
      </trkpt>
      <trkpt lat="44.118242" lon="4.901318">
        <ele>55.600977</ele>
        <time>2021-07-04T16:14:36.000Z</time>
      </trkpt>
      <trkpt lat="44.118115" lon="4.901203">
        <ele>55.587204</ele>
        <time>2021-07-04T16:14:39.331Z</time>
      </trkpt>
      <trkpt lat="44.118033" lon="4.901146">
        <ele>55.578871</ele>
        <time>2021-07-04T16:14:41.158Z</time>
      </trkpt>
      <trkpt lat="44.117991" lon="4.901118">
        <ele>55.574638</ele>
        <time>2021-07-04T16:14:42.160Z</time>
      </trkpt>
      <trkpt lat="44.117793" lon="4.901014">
        <ele>55.555398</ele>
        <time>2021-07-04T16:14:46.896Z</time>
      </trkpt>
      <trkpt lat="44.117555" lon="4.900883">
        <ele>55.532130</ele>
        <time>2021-07-04T16:14:52.416Z</time>
      </trkpt>
      <trkpt lat="44.117546" lon="4.900931">
        <ele>55.528892</ele>
        <time>2021-07-04T16:14:53.252Z</time>
      </trkpt>
      <trkpt lat="44.117531" lon="4.901005">
        <ele>55.523873</ele>
        <time>2021-07-04T16:14:54.537Z</time>
      </trkpt>
      <trkpt lat="44.117525" lon="4.901037">
        <ele>55.521714</ele>
        <time>2021-07-04T16:14:55.008Z</time>
      </trkpt>
      <trkpt lat="44.117496" lon="4.901197">
        <ele>55.510942</ele>
        <time>2021-07-04T16:14:57.511Z</time>
      </trkpt>
      <trkpt lat="44.117366" lon="4.901944">
        <ele>55.536933</ele>
        <time>2021-07-04T16:15:10.148Z</time>
      </trkpt>
      <trkpt lat="44.117336" lon="4.902127">
        <ele>55.566019</ele>
        <time>2021-07-04T16:15:13.114Z</time>
      </trkpt>
      <trkpt lat="44.117234" lon="4.902736">
        <ele>55.662919</ele>
        <time>2021-07-04T16:15:23.705Z</time>
      </trkpt>
      <trkpt lat="44.117141" lon="4.903232">
        <ele>55.742353</ele>
        <time>2021-07-04T16:15:32.430Z</time>
      </trkpt>
      <trkpt lat="44.117057" lon="4.903682">
        <ele>55.814399</ele>
        <time>2021-07-04T16:15:40.226Z</time>
      </trkpt>
      <trkpt lat="44.116939" lon="4.904239">
        <ele>55.895303</ele>
        <time>2021-07-04T16:15:49.993Z</time>
      </trkpt>
      <trkpt lat="44.116824" lon="4.904688">
        <ele>55.948733</ele>
        <time>2021-07-04T16:15:57.992Z</time>
      </trkpt>
      <trkpt lat="44.116784" lon="4.904843">
        <ele>55.967194</ele>
        <time>2021-07-04T16:16:00.872Z</time>
      </trkpt>
      <trkpt lat="44.116632" lon="4.905345">
        <ele>56.028257</ele>
        <time>2021-07-04T16:16:09.689Z</time>
      </trkpt>
      <trkpt lat="44.116618" lon="4.905401">
        <ele>56.034904</ele>
        <time>2021-07-04T16:16:10.952Z</time>
      </trkpt>
      <trkpt lat="44.116582" lon="4.905437">
        <ele>56.041822</ele>
        <time>2021-07-04T16:16:11.947Z</time>
      </trkpt>
      <trkpt lat="44.116578" lon="4.905449">
        <ele>56.043305</ele>
        <time>2021-07-04T16:16:12.150Z</time>
      </trkpt>
      <trkpt lat="44.116598" lon="4.905462">
        <ele>56.046751</ele>
        <time>2021-07-04T16:16:12.636Z</time>
      </trkpt>
      <trkpt lat="44.116587" lon="4.905495">
        <ele>56.050829</ele>
        <time>2021-07-04T16:16:13.083Z</time>
      </trkpt>
      <trkpt lat="44.116184" lon="4.906557">
        <ele>56.140449</ele>
        <time>2021-07-04T16:16:32.497Z</time>
      </trkpt>
      <trkpt lat="44.115967" lon="4.907072">
        <ele>56.116385</ele>
        <time>2021-07-04T16:16:41.867Z</time>
      </trkpt>
      <trkpt lat="44.115942" lon="4.907126">
        <ele>56.113795</ele>
        <time>2021-07-04T16:16:43.201Z</time>
      </trkpt>
      <trkpt lat="44.115406" lon="4.908153">
        <ele>56.062629</ele>
        <time>2021-07-04T16:17:02.825Z</time>
      </trkpt>
      <trkpt lat="44.115264" lon="4.908402">
        <ele>56.050589</ele>
        <time>2021-07-04T16:17:07.958Z</time>
      </trkpt>
      <trkpt lat="44.115196" lon="4.908522">
        <ele>56.047453</ele>
        <time>2021-07-04T16:17:10.353Z</time>
      </trkpt>
      <trkpt lat="44.115127" lon="4.908633">
        <ele>56.044440</ele>
        <time>2021-07-04T16:17:12.622Z</time>
      </trkpt>
      <trkpt lat="44.115038" lon="4.908765">
        <ele>56.040725</ele>
        <time>2021-07-04T16:17:15.704Z</time>
      </trkpt>
      <trkpt lat="44.114826" lon="4.909077">
        <ele>56.031912</ele>
        <time>2021-07-04T16:17:22.494Z</time>
      </trkpt>
      <trkpt lat="44.114789" lon="4.909132">
        <ele>56.030365</ele>
        <time>2021-07-04T16:17:23.714Z</time>
      </trkpt>
      <trkpt lat="44.112827" lon="4.911733">
        <ele>55.963428</ele>
        <time>2021-07-04T16:18:23.687Z</time>
      </trkpt>
      <trkpt lat="44.112258" lon="4.912487">
        <ele>55.921574</ele>
        <time>2021-07-04T16:18:40.903Z</time>
      </trkpt>
      <trkpt lat="44.111824" lon="4.913064">
        <ele>55.885096</ele>
        <time>2021-07-04T16:18:53.978Z</time>
      </trkpt>
      <trkpt lat="44.110871" lon="4.914410">
        <ele>56.198400</ele>
        <time>2021-07-04T16:19:24.560Z</time>
      </trkpt>
      <trkpt lat="44.110639" lon="4.914797">
        <ele>56.357493</ele>
        <time>2021-07-04T16:19:33.411Z</time>
      </trkpt>
      <trkpt lat="44.110421" lon="4.915197">
        <ele>56.515964</ele>
        <time>2021-07-04T16:19:42.444Z</time>
      </trkpt>
      <trkpt lat="44.110212" lon="4.915609">
        <ele>56.689506</ele>
        <time>2021-07-04T16:19:51.679Z</time>
      </trkpt>
      <trkpt lat="44.110111" lon="4.915823">
        <ele>56.804478</ele>
        <time>2021-07-04T16:19:56.635Z</time>
      </trkpt>
      <trkpt lat="44.109660" lon="4.916917">
        <ele>57.370827</ele>
        <time>2021-07-04T16:20:19.258Z</time>
      </trkpt>
      <trkpt lat="44.109371" lon="4.917804">
        <ele>57.765730</ele>
        <time>2021-07-04T16:20:36.288Z</time>
      </trkpt>
      <trkpt lat="44.109301" lon="4.918045">
        <ele>57.765452</ele>
        <time>2021-07-04T16:20:40.943Z</time>
      </trkpt>
      <trkpt lat="44.109196" lon="4.918445">
        <ele>57.764997</ele>
        <time>2021-07-04T16:20:47.941Z</time>
      </trkpt>
      <trkpt lat="44.109138" lon="4.918678">
        <ele>57.764734</ele>
        <time>2021-07-04T16:20:51.821Z</time>
      </trkpt>
      <trkpt lat="44.109107" lon="4.918813">
        <ele>57.764582</ele>
        <time>2021-07-04T16:20:54.085Z</time>
      </trkpt>
      <trkpt lat="44.108845" lon="4.919927">
        <ele>57.763330</ele>
        <time>2021-07-04T16:21:12.343Z</time>
      </trkpt>
      <trkpt lat="44.108826" lon="4.920005">
        <ele>57.763242</ele>
        <time>2021-07-04T16:21:13.526Z</time>
      </trkpt>
      <trkpt lat="44.108785" lon="4.920174">
        <ele>57.733940</ele>
        <time>2021-07-04T16:21:16.097Z</time>
      </trkpt>
      <trkpt lat="44.108667" lon="4.920676">
        <ele>57.573852</ele>
        <time>2021-07-04T16:21:23.967Z</time>
      </trkpt>
      <trkpt lat="44.108448" lon="4.921564">
        <ele>57.289290</ele>
        <time>2021-07-04T16:21:38.511Z</time>
      </trkpt>
      <trkpt lat="44.107942" lon="4.923089">
        <ele>56.699141</ele>
        <time>2021-07-04T16:22:03.028Z</time>
      </trkpt>
      <trkpt lat="44.106688" lon="4.925992">
        <ele>55.453448</ele>
        <time>2021-07-04T16:22:52.584Z</time>
      </trkpt>
      <trkpt lat="44.106659" lon="4.926057">
        <ele>55.429067</ele>
        <time>2021-07-04T16:22:53.735Z</time>
      </trkpt>
      <trkpt lat="44.106624" lon="4.926138">
        <ele>55.398948</ele>
        <time>2021-07-04T16:22:55.159Z</time>
      </trkpt>
      <trkpt lat="44.105375" lon="4.928966">
        <ele>54.676017</ele>
        <time>2021-07-04T16:23:46.191Z</time>
      </trkpt>
      <trkpt lat="44.104170" lon="4.931732">
        <ele>53.808286</ele>
        <time>2021-07-04T16:24:34.961Z</time>
      </trkpt>
      <trkpt lat="44.104139" lon="4.931804">
        <ele>53.779710</ele>
        <time>2021-07-04T16:24:36.185Z</time>
      </trkpt>
      <trkpt lat="44.101649" lon="4.937490">
        <ele>51.486267</ele>
        <time>2021-07-04T16:26:14.792Z</time>
      </trkpt>
      <trkpt lat="44.101631" lon="4.937533">
        <ele>51.471446</ele>
        <time>2021-07-04T16:26:15.473Z</time>
      </trkpt>
      <trkpt lat="44.101609" lon="4.937583">
        <ele>51.453985</ele>
        <time>2021-07-04T16:26:16.295Z</time>
      </trkpt>
      <trkpt lat="44.097878" lon="4.946110">
        <ele>48.380325</ele>
        <time>2021-07-04T16:28:46.026Z</time>
      </trkpt>
      <trkpt lat="44.097851" lon="4.946171">
        <ele>48.336092</ele>
        <time>2021-07-04T16:28:47.119Z</time>
      </trkpt>
      <trkpt lat="44.097807" lon="4.946270">
        <ele>48.264221</ele>
        <time>2021-07-04T16:28:48.737Z</time>
      </trkpt>
      <trkpt lat="44.091629" lon="4.960278">
        <ele>38.196634</ele>
        <time>2021-07-04T16:32:40.368Z</time>
      </trkpt>
      <trkpt lat="44.091590" lon="4.960370">
        <ele>38.135635</ele>
        <time>2021-07-04T16:32:41.795Z</time>
      </trkpt>
      <trkpt lat="44.091553" lon="4.960458">
        <ele>38.077410</ele>
        <time>2021-07-04T16:32:43.266Z</time>
      </trkpt>
      <trkpt lat="44.089300" lon="4.965626">
        <ele>35.448466</ele>
        <time>2021-07-04T16:34:11.257Z</time>
      </trkpt>
      <trkpt lat="44.089264" lon="4.965688">
        <ele>35.435729</ele>
        <time>2021-07-04T16:34:12.322Z</time>
      </trkpt>
      <trkpt lat="44.089247" lon="4.965717">
        <ele>35.429748</ele>
        <time>2021-07-04T16:34:12.886Z</time>
      </trkpt>
      <trkpt lat="44.089170" lon="4.965847">
        <ele>35.402827</ele>
        <time>2021-07-04T16:34:15.544Z</time>
      </trkpt>
      <trkpt lat="44.089035" lon="4.966111">
        <ele>35.351051</ele>
        <time>2021-07-04T16:34:20.468Z</time>
      </trkpt>
      <trkpt lat="44.088693" lon="4.967060">
        <ele>35.181417</ele>
        <time>2021-07-04T16:34:37.263Z</time>
      </trkpt>
      <trkpt lat="44.087922" lon="4.968822">
        <ele>34.930889</ele>
        <time>2021-07-04T16:35:10.785Z</time>
      </trkpt>
      <trkpt lat="44.087609" lon="4.969513">
        <ele>34.827954</ele>
        <time>2021-07-04T16:35:22.768Z</time>
      </trkpt>
      <trkpt lat="44.087265" lon="4.970320">
        <ele>34.296057</ele>
        <time>2021-07-04T16:35:36.264Z</time>
      </trkpt>
      <trkpt lat="44.087133" lon="4.970639">
        <ele>34.087388</ele>
        <time>2021-07-04T16:35:41.516Z</time>
      </trkpt>
      <trkpt lat="44.087099" lon="4.970732">
        <ele>34.028240</ele>
        <time>2021-07-04T16:35:42.940Z</time>
      </trkpt>
      <trkpt lat="44.087033" lon="4.970905">
        <ele>33.917209</ele>
        <time>2021-07-04T16:35:45.606Z</time>
      </trkpt>
      <trkpt lat="44.086760" lon="4.971673">
        <ele>33.431509</ele>
        <time>2021-07-04T16:35:57.759Z</time>
      </trkpt>
      <trkpt lat="44.086503" lon="4.972761">
        <ele>33.034967</ele>
        <time>2021-07-04T16:36:14.089Z</time>
      </trkpt>
      <trkpt lat="44.086327" lon="4.974460">
        <ele>32.550653</ele>
        <time>2021-07-04T16:36:40.379Z</time>
      </trkpt>
      <trkpt lat="44.086303" lon="4.975017">
        <ele>32.530129</ele>
        <time>2021-07-04T16:36:49.075Z</time>
      </trkpt>
      <trkpt lat="44.086301" lon="4.975333">
        <ele>32.518505</ele>
        <time>2021-07-04T16:36:54.155Z</time>
      </trkpt>
      <trkpt lat="44.086304" lon="4.975746">
        <ele>32.503313</ele>
        <time>2021-07-04T16:37:00.776Z</time>
      </trkpt>
      <trkpt lat="44.086318" lon="4.976090">
        <ele>32.490640</ele>
        <time>2021-07-04T16:37:06.338Z</time>
      </trkpt>
      <trkpt lat="44.086330" lon="4.976302">
        <ele>32.482818</ele>
        <time>2021-07-04T16:37:09.823Z</time>
      </trkpt>
      <trkpt lat="44.086408" lon="4.977662">
        <ele>32.737076</ele>
        <time>2021-07-04T16:37:32.244Z</time>
      </trkpt>
      <trkpt lat="44.086429" lon="4.978013">
        <ele>32.826781</ele>
        <time>2021-07-04T16:37:38.097Z</time>
      </trkpt>
      <trkpt lat="44.086580" lon="4.980626">
        <ele>34.183985</ele>
        <time>2021-07-04T16:38:24.953Z</time>
      </trkpt>
      <trkpt lat="44.086591" lon="4.980867">
        <ele>34.355466</ele>
        <time>2021-07-04T16:38:29.512Z</time>
      </trkpt>
      <trkpt lat="44.086801" lon="4.984575">
        <ele>37.872391</ele>
        <time>2021-07-04T16:39:46.182Z</time>
      </trkpt>
      <trkpt lat="44.086864" lon="4.985679">
        <ele>38.317865</ele>
        <time>2021-07-04T16:40:06.526Z</time>
      </trkpt>
      <trkpt lat="44.086870" lon="4.985793">
        <ele>38.363844</ele>
        <time>2021-07-04T16:40:08.399Z</time>
      </trkpt>
      <trkpt lat="44.086889" lon="4.986096">
        <ele>38.486187</ele>
        <time>2021-07-04T16:40:13.419Z</time>
      </trkpt>
      <trkpt lat="44.087033" lon="4.988732">
        <ele>37.889958</ele>
        <time>2021-07-04T16:40:52.001Z</time>
      </trkpt>
      <trkpt lat="44.087069" lon="4.989420">
        <ele>37.745215</ele>
        <time>2021-07-04T16:41:02.144Z</time>
      </trkpt>
      <trkpt lat="44.087130" lon="4.990389">
        <ele>37.729956</ele>
        <time>2021-07-04T16:41:17.366Z</time>
      </trkpt>
      <trkpt lat="44.087146" lon="4.990663">
        <ele>37.725644</ele>
        <time>2021-07-04T16:41:21.866Z</time>
      </trkpt>
      <trkpt lat="44.087157" lon="4.990856">
        <ele>37.722607</ele>
        <time>2021-07-04T16:41:25.115Z</time>
      </trkpt>
      <trkpt lat="44.087253" lon="4.992532">
        <ele>38.580729</ele>
        <time>2021-07-04T16:41:53.559Z</time>
      </trkpt>
      <trkpt lat="44.087365" lon="4.994495">
        <ele>40.617579</ele>
        <time>2021-07-04T16:42:35.369Z</time>
      </trkpt>
      <trkpt lat="44.087370" lon="4.994608">
        <ele>40.781380</ele>
        <time>2021-07-04T16:42:38.203Z</time>
      </trkpt>
      <trkpt lat="44.087483" lon="4.996615">
        <ele>43.660819</ele>
        <time>2021-07-04T16:43:24.758Z</time>
      </trkpt>
      <trkpt lat="44.087771" lon="5.001682">
        <ele>43.637315</ele>
        <time>2021-07-04T16:44:42.322Z</time>
      </trkpt>
      <trkpt lat="44.087775" lon="5.001756">
        <ele>43.687953</ele>
        <time>2021-07-04T16:44:43.642Z</time>
      </trkpt>
      <trkpt lat="44.087960" lon="5.004911">
        <ele>45.835805</ele>
        <time>2021-07-04T16:45:45.046Z</time>
      </trkpt>
      <trkpt lat="44.088083" lon="5.007515">
        <ele>47.245641</ele>
        <time>2021-07-04T16:46:33.159Z</time>
      </trkpt>
      <trkpt lat="44.088061" lon="5.009261">
        <ele>47.827787</ele>
        <time>2021-07-04T16:47:01.955Z</time>
      </trkpt>
      <trkpt lat="44.088048" lon="5.009573">
        <ele>47.984952</ele>
        <time>2021-07-04T16:47:07.067Z</time>
      </trkpt>
      <trkpt lat="44.087962" lon="5.010790">
        <ele>48.599925</ele>
        <time>2021-07-04T16:47:28.675Z</time>
      </trkpt>
      <trkpt lat="44.087917" lon="5.011282">
        <ele>48.849345</ele>
        <time>2021-07-04T16:47:38.041Z</time>
      </trkpt>
      <trkpt lat="44.087856" lon="5.011803">
        <ele>49.263530</ele>
        <time>2021-07-04T16:47:48.390Z</time>
      </trkpt>
      <trkpt lat="44.087838" lon="5.011954">
        <ele>49.436573</ele>
        <time>2021-07-04T16:47:51.532Z</time>
      </trkpt>
      <trkpt lat="44.087756" lon="5.012566">
        <ele>50.140384</ele>
        <time>2021-07-04T16:48:04.386Z</time>
      </trkpt>
      <trkpt lat="44.087549" lon="5.013801">
        <ele>51.574085</ele>
        <time>2021-07-04T16:48:31.211Z</time>
      </trkpt>
      <trkpt lat="44.087149" lon="5.015566">
        <ele>53.545363</ele>
        <time>2021-07-04T16:49:09.234Z</time>
      </trkpt>
      <trkpt lat="44.086821" lon="5.016741">
        <ele>54.645139</ele>
        <time>2021-07-04T16:49:34.075Z</time>
      </trkpt>
      <trkpt lat="44.086625" lon="5.017392">
        <ele>54.964824</ele>
        <time>2021-07-04T16:49:47.097Z</time>
      </trkpt>
      <trkpt lat="44.086414" lon="5.018074">
        <ele>55.301130</ele>
        <time>2021-07-04T16:50:00.503Z</time>
      </trkpt>
      <trkpt lat="44.086290" lon="5.018382">
        <ele>55.461038</ele>
        <time>2021-07-04T16:50:06.017Z</time>
      </trkpt>
      <trkpt lat="44.086243" lon="5.018483">
        <ele>55.515541</ele>
        <time>2021-07-04T16:50:08.262Z</time>
      </trkpt>
      <trkpt lat="44.086204" lon="5.018574">
        <ele>55.563533</ele>
        <time>2021-07-04T16:50:09.888Z</time>
      </trkpt>
      <trkpt lat="44.085760" lon="5.019637">
        <ele>55.568573</ele>
        <time>2021-07-04T16:50:28.683Z</time>
      </trkpt>
      <trkpt lat="44.085182" lon="5.020918">
        <ele>55.630229</ele>
        <time>2021-07-04T16:50:52.557Z</time>
      </trkpt>
      <trkpt lat="44.084962" lon="5.021334">
        <ele>56.004391</ele>
        <time>2021-07-04T16:51:01.089Z</time>
      </trkpt>
      <trkpt lat="44.084089" lon="5.022830">
        <ele>57.442337</ele>
        <time>2021-07-04T16:51:39.105Z</time>
      </trkpt>
      <trkpt lat="44.083178" lon="5.024141">
        <ele>59.650202</ele>
        <time>2021-07-04T16:52:18.522Z</time>
      </trkpt>
      <trkpt lat="44.083140" lon="5.024197">
        <ele>59.743448</ele>
        <time>2021-07-04T16:52:20.850Z</time>
      </trkpt>
      <trkpt lat="44.083108" lon="5.024253">
        <ele>59.830064</ele>
        <time>2021-07-04T16:52:22.327Z</time>
      </trkpt>
      <trkpt lat="44.081625" lon="5.026024">
        <ele>61.921025</ele>
        <time>2021-07-04T16:53:13.663Z</time>
      </trkpt>
      <trkpt lat="44.080145" lon="5.027418">
        <ele>62.863916</ele>
        <time>2021-07-04T16:53:55.930Z</time>
      </trkpt>
      <trkpt lat="44.078900" lon="5.028318">
        <ele>63.950081</ele>
        <time>2021-07-04T16:54:30.933Z</time>
      </trkpt>
      <trkpt lat="44.077624" lon="5.029093">
        <ele>65.970957</ele>
        <time>2021-07-04T16:55:08.526Z</time>
      </trkpt>
      <trkpt lat="44.077105" lon="5.029371">
        <ele>67.024747</ele>
        <time>2021-07-04T16:55:25.135Z</time>
      </trkpt>
      <trkpt lat="44.077029" lon="5.029412">
        <ele>67.179202</ele>
        <time>2021-07-04T16:55:27.743Z</time>
      </trkpt>
      <trkpt lat="44.075889" lon="5.030035">
        <ele>70.428827</ele>
        <time>2021-07-04T16:56:10.965Z</time>
      </trkpt>
      <trkpt lat="44.074900" lon="5.030568">
        <ele>73.234384</ele>
        <time>2021-07-04T16:56:48.155Z</time>
      </trkpt>
      <trkpt lat="44.067445" lon="5.033823">
        <ele>78.194738</ele>
        <time>2021-07-04T17:00:01.114Z</time>
      </trkpt>
      <trkpt lat="44.067396" lon="5.033847">
        <ele>78.186340</ele>
        <time>2021-07-04T17:00:01.927Z</time>
      </trkpt>
      <trkpt lat="44.067336" lon="5.033874">
        <ele>78.176145</ele>
        <time>2021-07-04T17:00:03.127Z</time>
      </trkpt>
      <trkpt lat="44.062101" lon="5.036124">
        <ele>77.391523</ele>
        <time>2021-07-04T17:01:59.984Z</time>
      </trkpt>
      <trkpt lat="44.061862" lon="5.036219">
        <ele>77.377473</ele>
        <time>2021-07-04T17:02:05.664Z</time>
      </trkpt>
      <trkpt lat="44.061741" lon="5.036260">
        <ele>77.370434</ele>
        <time>2021-07-04T17:02:08.534Z</time>
      </trkpt>
      <trkpt lat="44.059877" lon="5.036750">
        <ele>77.501820</ele>
        <time>2021-07-04T17:02:51.334Z</time>
      </trkpt>
      <trkpt lat="44.059799" lon="5.036770">
        <ele>77.510535</ele>
        <time>2021-07-04T17:02:53.039Z</time>
      </trkpt>
      <trkpt lat="44.059279" lon="5.036919">
        <ele>77.854659</ele>
        <time>2021-07-04T17:03:04.992Z</time>
      </trkpt>
      <trkpt lat="44.058989" lon="5.037032">
        <ele>78.238389</ele>
        <time>2021-07-04T17:03:12.294Z</time>
      </trkpt>
      <trkpt lat="44.058895" lon="5.037074">
        <ele>78.364186</ele>
        <time>2021-07-04T17:03:14.816Z</time>
      </trkpt>
      <trkpt lat="44.058668" lon="5.037183">
        <ele>78.670164</ele>
        <time>2021-07-04T17:03:21.090Z</time>
      </trkpt>
      <trkpt lat="44.058425" lon="5.037286">
        <ele>78.993839</ele>
        <time>2021-07-04T17:03:27.997Z</time>
      </trkpt>
      <trkpt lat="44.058389" lon="5.037303">
        <ele>79.042279</ele>
        <time>2021-07-04T17:03:29.048Z</time>
      </trkpt>
      <trkpt lat="44.058237" lon="5.037376">
        <ele>79.247168</ele>
        <time>2021-07-04T17:03:33.730Z</time>
      </trkpt>
      <trkpt lat="44.058068" lon="5.037483">
        <ele>79.483748</ele>
        <time>2021-07-04T17:03:39.147Z</time>
      </trkpt>
      <trkpt lat="44.057811" lon="5.037644">
        <ele>79.858494</ele>
        <time>2021-07-04T17:03:47.911Z</time>
      </trkpt>
      <trkpt lat="44.056648" lon="5.038501">
        <ele>84.398834</ele>
        <time>2021-07-04T17:04:35.094Z</time>
      </trkpt>
      <trkpt lat="44.056556" lon="5.038584">
        <ele>84.777117</ele>
        <time>2021-07-04T17:04:39.362Z</time>
      </trkpt>
      <trkpt lat="44.055620" lon="5.039412">
        <ele>88.836397</ele>
        <time>2021-07-04T17:05:22.691Z</time>
      </trkpt>
      <trkpt lat="44.055311" lon="5.039688">
        <ele>90.218148</ele>
        <time>2021-07-04T17:05:36.252Z</time>
      </trkpt>
      <trkpt lat="44.055214" lon="5.039781">
        <ele>90.661429</ele>
        <time>2021-07-04T17:05:41.148Z</time>
      </trkpt>
      <trkpt lat="44.055269" lon="5.039872">
        <ele>90.982993</ele>
        <time>2021-07-04T17:05:44.173Z</time>
      </trkpt>
      <trkpt lat="44.055256" lon="5.039934">
        <ele>91.157658</ele>
        <time>2021-07-04T17:05:45.797Z</time>
      </trkpt>
      <trkpt lat="44.055279" lon="5.039946">
        <ele>91.250093</ele>
        <time>2021-07-04T17:05:46.791Z</time>
      </trkpt>
      <trkpt lat="44.055288" lon="5.039950">
        <ele>91.285647</ele>
        <time>2021-07-04T17:05:47.154Z</time>
      </trkpt>
      <trkpt lat="44.055277" lon="5.040027">
        <ele>91.497961</ele>
        <time>2021-07-04T17:05:49.337Z</time>
      </trkpt>
      <trkpt lat="44.055325" lon="5.040237">
        <ele>92.093922</ele>
        <time>2021-07-04T17:05:55.770Z</time>
      </trkpt>
      <trkpt lat="44.055502" lon="5.040777">
        <ele>93.415050</ele>
        <time>2021-07-04T17:06:10.729Z</time>
      </trkpt>
      <trkpt lat="44.055656" lon="5.041434">
        <ele>94.688549</ele>
        <time>2021-07-04T17:06:27.128Z</time>
      </trkpt>
      <trkpt lat="44.055702" lon="5.041563">
        <ele>94.953926</ele>
        <time>2021-07-04T17:06:30.792Z</time>
      </trkpt>
      <trkpt lat="44.055735" lon="5.041612">
        <ele>95.077676</ele>
        <time>2021-07-04T17:06:32.647Z</time>
      </trkpt>
      <trkpt lat="44.055741" lon="5.041700">
        <ele>95.240571</ele>
        <time>2021-07-04T17:06:34.376Z</time>
      </trkpt>
      <trkpt lat="44.055774" lon="5.041770">
        <ele>95.394845</ele>
        <time>2021-07-04T17:06:36.217Z</time>
      </trkpt>
      <trkpt lat="44.055810" lon="5.042019">
        <ele>95.862896</ele>
        <time>2021-07-04T17:06:42.136Z</time>
      </trkpt>
      <trkpt lat="44.055966" lon="5.043203">
        <ele>97.957228</ele>
        <time>2021-07-04T17:07:09.890Z</time>
      </trkpt>
      <trkpt lat="44.056037" lon="5.043700">
        <ele>98.716066</ele>
        <time>2021-07-04T17:07:21.787Z</time>
      </trkpt>
      <trkpt lat="44.056053" lon="5.043815">
        <ele>98.891481</ele>
        <time>2021-07-04T17:07:25.222Z</time>
      </trkpt>
      <trkpt lat="44.056085" lon="5.044034">
        <ele>99.226151</ele>
        <time>2021-07-04T17:07:30.260Z</time>
      </trkpt>
      <trkpt lat="44.056052" lon="5.044128">
        <ele>99.382818</ele>
        <time>2021-07-04T17:07:32.369Z</time>
      </trkpt>
      <trkpt lat="44.055764" lon="5.044232">
        <ele>100.002829</ele>
        <time>2021-07-04T17:07:41.752Z</time>
      </trkpt>
      <trkpt lat="44.055686" lon="5.044137">
        <ele>100.218833</ele>
        <time>2021-07-04T17:07:44.529Z</time>
      </trkpt>
      <trkpt lat="44.055586" lon="5.044159">
        <ele>100.429800</ele>
        <time>2021-07-04T17:07:48.292Z</time>
      </trkpt>
      <trkpt lat="44.055389" lon="5.044200">
        <ele>100.844874</ele>
        <time>2021-07-04T17:07:53.995Z</time>
      </trkpt>
      <trkpt lat="44.055017" lon="5.044292">
        <ele>101.331289</ele>
        <time>2021-07-04T17:08:05.347Z</time>
      </trkpt>
      <trkpt lat="44.054824" lon="5.044424">
        <ele>101.489073</ele>
        <time>2021-07-04T17:08:11.953Z</time>
      </trkpt>
      <trkpt lat="44.054824" lon="5.044516">
        <ele>101.537584</ele>
        <time>2021-07-04T17:08:13.973Z</time>
      </trkpt>
      <trkpt lat="44.054823" lon="5.044626">
        <ele>101.595590</ele>
        <time>2021-07-04T17:08:16.049Z</time>
      </trkpt>
      <trkpt lat="44.054748" lon="5.044645">
        <ele>101.651522</ele>
        <time>2021-07-04T17:08:19.130Z</time>
      </trkpt>
      <trkpt lat="44.054542" lon="5.044811">
        <ele>101.826180</ele>
        <time>2021-07-04T17:08:29.104Z</time>
      </trkpt>
      <trkpt lat="44.054250" lon="5.045030">
        <ele>102.069559</ele>
        <time>2021-07-04T17:08:42.611Z</time>
      </trkpt>
      <trkpt lat="44.053980" lon="5.045246">
        <ele>102.298066</ele>
        <time>2021-07-04T17:08:53.734Z</time>
      </trkpt>
      <trkpt lat="44.053717" lon="5.045460">
        <ele>102.425612</ele>
        <time>2021-07-04T17:09:04.471Z</time>
      </trkpt>
      <trkpt lat="44.053593" lon="5.045556">
        <ele>102.237309</ele>
        <time>2021-07-04T17:09:09.796Z</time>
      </trkpt>
      <trkpt lat="44.053306" lon="5.045778">
        <ele>101.801568</ele>
        <time>2021-07-04T17:09:20.609Z</time>
      </trkpt>
      <trkpt lat="44.052897" lon="5.046094">
        <ele>101.180770</ele>
        <time>2021-07-04T17:09:36.634Z</time>
      </trkpt>
      <trkpt lat="44.052818" lon="5.046188">
        <ele>101.042833</ele>
        <time>2021-07-04T17:09:39.775Z</time>
      </trkpt>
      <trkpt lat="44.052472" lon="5.046921">
        <ele>100.206468</ele>
        <time>2021-07-04T17:10:00.458Z</time>
      </trkpt>
      <trkpt lat="44.052456" lon="5.046941">
        <ele>100.177926</ele>
        <time>2021-07-04T17:10:01.005Z</time>
      </trkpt>
      <trkpt lat="44.052417" lon="5.047013">
        <ele>100.077367</ele>
        <time>2021-07-04T17:10:02.954Z</time>
      </trkpt>
      <trkpt lat="44.052360" lon="5.047168">
        <ele>99.633139</ele>
        <time>2021-07-04T17:10:07.129Z</time>
      </trkpt>
      <trkpt lat="44.052341" lon="5.047231">
        <ele>99.458823</ele>
        <time>2021-07-04T17:10:08.727Z</time>
      </trkpt>
      <trkpt lat="44.052323" lon="5.047319">
        <ele>99.225385</ele>
        <time>2021-07-04T17:10:10.821Z</time>
      </trkpt>
      <trkpt lat="44.052317" lon="5.047378">
        <ele>99.073353</ele>
        <time>2021-07-04T17:10:12.065Z</time>
      </trkpt>
      <trkpt lat="44.052271" lon="5.047382">
        <ele>98.909735</ele>
        <time>2021-07-04T17:10:13.295Z</time>
      </trkpt>
      <trkpt lat="44.052179" lon="5.047632">
        <ele>98.193132</ele>
        <time>2021-07-04T17:10:19.431Z</time>
      </trkpt>
      <trkpt lat="44.052141" lon="5.047904">
        <ele>97.486162</ele>
        <time>2021-07-04T17:10:25.016Z</time>
      </trkpt>
      <trkpt lat="44.052102" lon="5.047901">
        <ele>97.347501</ele>
        <time>2021-07-04T17:10:26.258Z</time>
      </trkpt>
      <trkpt lat="44.052045" lon="5.047899">
        <ele>97.145087</ele>
        <time>2021-07-04T17:10:28.061Z</time>
      </trkpt>
      <trkpt lat="44.052016" lon="5.047902">
        <ele>97.041853</ele>
        <time>2021-07-04T17:10:28.971Z</time>
      </trkpt>
      <trkpt lat="44.052005" lon="5.047917">
        <ele>96.987176</ele>
        <time>2021-07-04T17:10:29.451Z</time>
      </trkpt>
      <trkpt lat="44.051995" lon="5.047936">
        <ele>96.927091</ele>
        <time>2021-07-04T17:10:29.887Z</time>
      </trkpt>
      <trkpt lat="44.051976" lon="5.047984">
        <ele>96.787277</ele>
        <time>2021-07-04T17:10:30.945Z</time>
      </trkpt>
      <trkpt lat="44.051950" lon="5.048072">
        <ele>96.544522</ele>
        <time>2021-07-04T17:10:32.966Z</time>
      </trkpt>
      <trkpt lat="44.051933" lon="5.048353">
        <ele>95.825040</ele>
        <time>2021-07-04T17:10:38.665Z</time>
      </trkpt>
      <trkpt lat="44.051942" lon="5.048388">
        <ele>95.730197</ele>
        <time>2021-07-04T17:10:39.523Z</time>
      </trkpt>
      <trkpt lat="44.051982" lon="5.048404">
        <ele>95.582446</ele>
        <time>2021-07-04T17:10:40.590Z</time>
      </trkpt>
      <trkpt lat="44.051981" lon="5.048627">
        <ele>95.013471</ele>
        <time>2021-07-04T17:10:45.044Z</time>
      </trkpt>
      <trkpt lat="44.052032" lon="5.049073">
        <ele>93.861230</ele>
        <time>2021-07-04T17:10:54.454Z</time>
      </trkpt>
      <trkpt lat="44.052070" lon="5.049113">
        <ele>93.690146</ele>
        <time>2021-07-04T17:10:55.699Z</time>
      </trkpt>
      <trkpt lat="44.052188" lon="5.049587">
        <ele>92.304807</ele>
        <time>2021-07-04T17:11:01.342Z</time>
      </trkpt>
      <trkpt lat="44.052214" lon="5.049789">
        <ele>91.738073</ele>
        <time>2021-07-04T17:11:03.664Z</time>
      </trkpt>
      <trkpt lat="44.052214" lon="5.049847">
        <ele>91.577896</ele>
        <time>2021-07-04T17:11:04.252Z</time>
      </trkpt>
      <trkpt lat="44.052211" lon="5.049949">
        <ele>91.295970</ele>
        <time>2021-07-04T17:11:05.400Z</time>
      </trkpt>
      <trkpt lat="44.052207" lon="5.050086">
        <ele>90.917308</ele>
        <time>2021-07-04T17:11:06.896Z</time>
      </trkpt>
      <trkpt lat="44.052205" lon="5.050151">
        <ele>90.737635</ele>
        <time>2021-07-04T17:11:07.580Z</time>
      </trkpt>
      <trkpt lat="44.052098" lon="5.051583">
        <ele>86.787451</ele>
        <time>2021-07-04T17:11:24.170Z</time>
      </trkpt>
      <trkpt lat="44.052088" lon="5.051717">
        <ele>86.641794</ele>
        <time>2021-07-04T17:11:25.732Z</time>
      </trkpt>
      <trkpt lat="44.052058" lon="5.052078">
        <ele>86.248889</ele>
        <time>2021-07-04T17:11:30.291Z</time>
      </trkpt>
      <trkpt lat="44.052045" lon="5.052232">
        <ele>86.081243</ele>
        <time>2021-07-04T17:11:32.107Z</time>
      </trkpt>
      <trkpt lat="44.052027" lon="5.052352">
        <ele>85.948706</ele>
        <time>2021-07-04T17:11:33.766Z</time>
      </trkpt>
      <trkpt lat="44.052006" lon="5.052437">
        <ele>85.851528</ele>
        <time>2021-07-04T17:11:35.102Z</time>
      </trkpt>
      <trkpt lat="44.051836" lon="5.052853">
        <ele>85.334136</ele>
        <time>2021-07-04T17:11:41.629Z</time>
      </trkpt>
      <trkpt lat="44.051747" lon="5.053040">
        <ele>85.091643</ele>
        <time>2021-07-04T17:11:44.760Z</time>
      </trkpt>
      <trkpt lat="44.051693" lon="5.053059">
        <ele>85.007852</ele>
        <time>2021-07-04T17:11:45.755Z</time>
      </trkpt>
      <trkpt lat="44.051566" lon="5.053104">
        <ele>84.810704</ele>
        <time>2021-07-04T17:11:48.358Z</time>
      </trkpt>
      <trkpt lat="44.051146" lon="5.053225">
        <ele>84.165482</ele>
        <time>2021-07-04T17:11:56.937Z</time>
      </trkpt>
      <trkpt lat="44.050911" lon="5.053270">
        <ele>84.037596</ele>
        <time>2021-07-04T17:12:01.915Z</time>
      </trkpt>
      <trkpt lat="44.050788" lon="5.053293">
        <ele>83.998459</ele>
        <time>2021-07-04T17:12:04.650Z</time>
      </trkpt>
      <trkpt lat="44.050710" lon="5.053301">
        <ele>83.973795</ele>
        <time>2021-07-04T17:12:06.363Z</time>
      </trkpt>
      <trkpt lat="44.050618" lon="5.053303">
        <ele>83.944779</ele>
        <time>2021-07-04T17:12:08.302Z</time>
      </trkpt>
      <trkpt lat="44.050353" lon="5.053289">
        <ele>83.861150</ele>
        <time>2021-07-04T17:12:14.029Z</time>
      </trkpt>
      <trkpt lat="44.049937" lon="5.053273">
        <ele>83.729914</ele>
        <time>2021-07-04T17:12:22.732Z</time>
      </trkpt>
      <trkpt lat="44.049832" lon="5.053268">
        <ele>83.696782</ele>
        <time>2021-07-04T17:12:24.968Z</time>
      </trkpt>
      <trkpt lat="44.049646" lon="5.053258">
        <ele>83.638083</ele>
        <time>2021-07-04T17:12:28.943Z</time>
      </trkpt>
      <trkpt lat="44.049500" lon="5.053257">
        <ele>83.592041</ele>
        <time>2021-07-04T17:12:31.877Z</time>
      </trkpt>
      <trkpt lat="44.048614" lon="5.053354">
        <ele>83.522415</ele>
        <time>2021-07-04T17:12:51.284Z</time>
      </trkpt>
      <trkpt lat="44.048566" lon="5.053361">
        <ele>83.521811</ele>
        <time>2021-07-04T17:12:52.293Z</time>
      </trkpt>
      <trkpt lat="44.048509" lon="5.053369">
        <ele>83.521094</ele>
        <time>2021-07-04T17:12:53.496Z</time>
      </trkpt>
      <trkpt lat="44.048278" lon="5.053358">
        <ele>83.518202</ele>
        <time>2021-07-04T17:12:58.920Z</time>
      </trkpt>
      <trkpt lat="44.048162" lon="5.053301">
        <ele>83.516663</ele>
        <time>2021-07-04T17:13:01.477Z</time>
      </trkpt>
      <trkpt lat="44.047901" lon="5.053173">
        <ele>83.513201</ele>
        <time>2021-07-04T17:13:07.894Z</time>
      </trkpt>
      <trkpt lat="44.047838" lon="5.053142">
        <ele>83.512364</ele>
        <time>2021-07-04T17:13:09.280Z</time>
      </trkpt>
      <trkpt lat="44.047680" lon="5.053064">
        <ele>83.510267</ele>
        <time>2021-07-04T17:13:13.449Z</time>
      </trkpt>
      <trkpt lat="44.047507" lon="5.053024">
        <ele>83.508927</ele>
        <time>2021-07-04T17:13:17.054Z</time>
      </trkpt>
      <trkpt lat="44.047421" lon="5.053027">
        <ele>83.509552</ele>
        <time>2021-07-04T17:13:19.104Z</time>
      </trkpt>
      <trkpt lat="44.047334" lon="5.053051">
        <ele>83.510197</ele>
        <time>2021-07-04T17:13:21.369Z</time>
      </trkpt>
      <trkpt lat="44.046778" lon="5.053303">
        <ele>83.514448</ele>
        <time>2021-07-04T17:13:33.998Z</time>
      </trkpt>
      <trkpt lat="44.046701" lon="5.053318">
        <ele>83.515013</ele>
        <time>2021-07-04T17:13:35.990Z</time>
      </trkpt>
      <trkpt lat="44.046617" lon="5.053318">
        <ele>83.515623</ele>
        <time>2021-07-04T17:13:37.917Z</time>
      </trkpt>
      <trkpt lat="44.046559" lon="5.053316">
        <ele>83.516045</ele>
        <time>2021-07-04T17:13:39.210Z</time>
      </trkpt>
      <trkpt lat="44.046501" lon="5.053311">
        <ele>83.516467</ele>
        <time>2021-07-04T17:13:40.411Z</time>
      </trkpt>
      <trkpt lat="44.045742" lon="5.053241">
        <ele>83.524050</ele>
        <time>2021-07-04T17:13:58.409Z</time>
      </trkpt>
      <trkpt lat="44.045574" lon="5.053263">
        <ele>83.533412</ele>
        <time>2021-07-04T17:14:02.268Z</time>
      </trkpt>
      <trkpt lat="44.045446" lon="5.053291">
        <ele>83.540601</ele>
        <time>2021-07-04T17:14:05.085Z</time>
      </trkpt>
      <trkpt lat="44.044946" lon="5.053444">
        <ele>83.569005</ele>
        <time>2021-07-04T17:14:16.574Z</time>
      </trkpt>
      <trkpt lat="44.044839" lon="5.053475">
        <ele>83.575069</ele>
        <time>2021-07-04T17:14:19.143Z</time>
      </trkpt>
      <trkpt lat="44.044621" lon="5.053536">
        <ele>83.587406</ele>
        <time>2021-07-04T17:14:24.430Z</time>
      </trkpt>
      <trkpt lat="44.044118" lon="5.053676">
        <ele>83.615867</ele>
        <time>2021-07-04T17:14:36.587Z</time>
      </trkpt>
      <trkpt lat="44.044010" lon="5.053706">
        <ele>83.623602</ele>
        <time>2021-07-04T17:14:39.278Z</time>
      </trkpt>
      <trkpt lat="44.043528" lon="5.053853">
        <ele>83.740353</ele>
        <time>2021-07-04T17:14:51.211Z</time>
      </trkpt>
      <trkpt lat="44.043294" lon="5.053948">
        <ele>83.798027</ele>
        <time>2021-07-04T17:14:57.289Z</time>
      </trkpt>
      <trkpt lat="44.040124" lon="5.055689">
        <ele>84.690043</ele>
        <time>2021-07-04T17:16:19.417Z</time>
      </trkpt>
      <trkpt lat="44.039417" lon="5.055928">
        <ele>84.970901</ele>
        <time>2021-07-04T17:16:37.351Z</time>
      </trkpt>
      <trkpt lat="44.038888" lon="5.056060">
        <ele>85.183365</ele>
        <time>2021-07-04T17:16:50.812Z</time>
      </trkpt>
      <trkpt lat="44.038704" lon="5.056112">
        <ele>85.296028</ele>
        <time>2021-07-04T17:16:55.546Z</time>
      </trkpt>
      <trkpt lat="44.038034" lon="5.056340">
        <ele>85.709912</ele>
        <time>2021-07-04T17:17:13.239Z</time>
      </trkpt>
      <trkpt lat="44.037767" lon="5.056374">
        <ele>85.870793</ele>
        <time>2021-07-04T17:17:20.218Z</time>
      </trkpt>
      <trkpt lat="44.036881" lon="5.056753">
        <ele>86.439888</ele>
        <time>2021-07-04T17:17:43.917Z</time>
      </trkpt>
      <trkpt lat="44.033948" lon="5.058291">
        <ele>88.411235</ele>
        <time>2021-07-04T17:19:04.695Z</time>
      </trkpt>
      <trkpt lat="44.033853" lon="5.058292">
        <ele>88.469721</ele>
        <time>2021-07-04T17:19:07.003Z</time>
      </trkpt>
      <trkpt lat="44.033620" lon="5.058300">
        <ele>88.591679</ele>
        <time>2021-07-04T17:19:12.865Z</time>
      </trkpt>
      <trkpt lat="44.033155" lon="5.058240">
        <ele>88.817342</ele>
        <time>2021-07-04T17:19:24.336Z</time>
      </trkpt>
      <trkpt lat="44.032563" lon="5.058061">
        <ele>89.110091</ele>
        <time>2021-07-04T17:19:39.457Z</time>
      </trkpt>
      <trkpt lat="44.031788" lon="5.057807">
        <ele>89.512840</ele>
        <time>2021-07-04T17:19:59.479Z</time>
      </trkpt>
      <trkpt lat="44.031645" lon="5.057684">
        <ele>89.607074</ele>
        <time>2021-07-04T17:20:03.658Z</time>
      </trkpt>
      <trkpt lat="44.031617" lon="5.057627">
        <ele>89.634891</ele>
        <time>2021-07-04T17:20:05.132Z</time>
      </trkpt>
      <trkpt lat="44.031583" lon="5.057703">
        <ele>89.670960</ele>
        <time>2021-07-04T17:20:06.788Z</time>
      </trkpt>
      <trkpt lat="44.031572" lon="5.057754">
        <ele>89.692416</ele>
        <time>2021-07-04T17:20:07.745Z</time>
      </trkpt>
      <trkpt lat="44.031566" lon="5.057789">
        <ele>89.706914</ele>
        <time>2021-07-04T17:20:08.379Z</time>
      </trkpt>
      <trkpt lat="44.031556" lon="5.057892">
        <ele>89.748795</ele>
        <time>2021-07-04T17:20:10.248Z</time>
      </trkpt>
      <trkpt lat="44.031552" lon="5.057932">
        <ele>89.765068</ele>
        <time>2021-07-04T17:20:10.976Z</time>
      </trkpt>
      <trkpt lat="44.031553" lon="5.058041">
        <ele>89.808994</ele>
        <time>2021-07-04T17:20:12.918Z</time>
      </trkpt>
      <trkpt lat="44.031555" lon="5.058197">
        <ele>89.871864</ele>
        <time>2021-07-04T17:20:16.002Z</time>
      </trkpt>
      <trkpt lat="44.031585" lon="5.058851">
        <ele>90.135930</ele>
        <time>2021-07-04T17:20:28.026Z</time>
      </trkpt>
      <trkpt lat="44.031586" lon="5.059053">
        <ele>90.217328</ele>
        <time>2021-07-04T17:20:31.659Z</time>
      </trkpt>
      <trkpt lat="44.031552" lon="5.059064">
        <ele>90.236893</ele>
        <time>2021-07-04T17:20:32.763Z</time>
      </trkpt>
      <trkpt lat="44.031258" lon="5.059235">
        <ele>90.413515</ele>
        <time>2021-07-04T17:20:40.734Z</time>
      </trkpt>
      <trkpt lat="44.030425" lon="5.060041">
        <ele>90.937427</ele>
        <time>2021-07-04T17:21:06.451Z</time>
      </trkpt>
      <trkpt lat="44.030075" lon="5.060273">
        <ele>91.137606</ele>
        <time>2021-07-04T17:21:16.167Z</time>
      </trkpt>
      <trkpt lat="44.029808" lon="5.060378">
        <ele>91.280863</ele>
        <time>2021-07-04T17:21:22.912Z</time>
      </trkpt>
      <trkpt lat="44.029651" lon="5.060477">
        <ele>91.378605</ele>
        <time>2021-07-04T17:21:27.193Z</time>
      </trkpt>
      <trkpt lat="44.027997" lon="5.061744">
        <ele>92.520917</ele>
        <time>2021-07-04T17:22:15.528Z</time>
      </trkpt>
      <trkpt lat="44.027483" lon="5.062181">
        <ele>92.885072</ele>
        <time>2021-07-04T17:22:31.650Z</time>
      </trkpt>
      <trkpt lat="44.026969" lon="5.062643">
        <ele>93.255011</ele>
        <time>2021-07-04T17:22:47.267Z</time>
      </trkpt>
      <trkpt lat="44.026732" lon="5.062829">
        <ele>93.419507</ele>
        <time>2021-07-04T17:22:54.053Z</time>
      </trkpt>
      <trkpt lat="44.026554" lon="5.062966">
        <ele>93.491876</ele>
        <time>2021-07-04T17:22:59.176Z</time>
      </trkpt>
      <trkpt lat="44.026172" lon="5.062802">
        <ele>93.479116</ele>
        <time>2021-07-04T17:23:08.784Z</time>
      </trkpt>
      <trkpt lat="44.024293" lon="5.061774">
        <ele>93.198004</ele>
        <time>2021-07-04T17:23:53.994Z</time>
      </trkpt>
      <trkpt lat="44.023721" lon="5.061639">
        <ele>92.999861</ele>
        <time>2021-07-04T17:24:06.972Z</time>
      </trkpt>
      <trkpt lat="44.023366" lon="5.061554">
        <ele>92.876837</ele>
        <time>2021-07-04T17:24:14.778Z</time>
      </trkpt>
      <trkpt lat="44.022986" lon="5.061441">
        <ele>92.576620</ele>
        <time>2021-07-04T17:24:23.053Z</time>
      </trkpt>
      <trkpt lat="44.022701" lon="5.061327">
        <ele>92.259523</ele>
        <time>2021-07-04T17:24:29.161Z</time>
      </trkpt>
      <trkpt lat="44.022608" lon="5.061265">
        <ele>92.149246</ele>
        <time>2021-07-04T17:24:31.354Z</time>
      </trkpt>
      <trkpt lat="44.022555" lon="5.061219">
        <ele>92.082444</ele>
        <time>2021-07-04T17:24:32.497Z</time>
      </trkpt>
      <trkpt lat="44.021907" lon="5.060734">
        <ele>91.295583</ele>
        <time>2021-07-04T17:24:47.109Z</time>
      </trkpt>
      <trkpt lat="44.021580" lon="5.060413">
        <ele>90.863559</ele>
        <time>2021-07-04T17:24:54.769Z</time>
      </trkpt>
      <trkpt lat="44.020871" lon="5.059512">
        <ele>89.706598</ele>
        <time>2021-07-04T17:25:13.164Z</time>
      </trkpt>
      <trkpt lat="44.020108" lon="5.059409">
        <ele>88.783156</ele>
        <time>2021-07-04T17:25:28.570Z</time>
      </trkpt>
      <trkpt lat="44.019253" lon="5.059002">
        <ele>88.424677</ele>
        <time>2021-07-04T17:25:48.424Z</time>
      </trkpt>
      <trkpt lat="44.018416" lon="5.058712">
        <ele>88.116287</ele>
        <time>2021-07-04T17:26:07.757Z</time>
      </trkpt>
      <trkpt lat="44.018398" lon="5.058690">
        <ele>88.107720</ele>
        <time>2021-07-04T17:26:08.544Z</time>
      </trkpt>
      <trkpt lat="44.018387" lon="5.058655">
        <ele>88.097899</ele>
        <time>2021-07-04T17:26:09.150Z</time>
      </trkpt>
      <trkpt lat="44.018381" lon="5.058608">
        <ele>88.083977</ele>
        <time>2021-07-04T17:26:09.910Z</time>
      </trkpt>
      <trkpt lat="44.018366" lon="5.058498">
        <ele>88.043775</ele>
        <time>2021-07-04T17:26:11.696Z</time>
      </trkpt>
      <trkpt lat="44.018358" lon="5.058460">
        <ele>88.029558</ele>
        <time>2021-07-04T17:26:12.309Z</time>
      </trkpt>
      <trkpt lat="44.018339" lon="5.058411">
        <ele>88.009568</ele>
        <time>2021-07-04T17:26:13.165Z</time>
      </trkpt>
      <trkpt lat="44.018053" lon="5.058416">
        <ele>87.866748</ele>
        <time>2021-07-04T17:26:19.594Z</time>
      </trkpt>
      <trkpt lat="44.017967" lon="5.058400">
        <ele>87.823423</ele>
        <time>2021-07-04T17:26:21.455Z</time>
      </trkpt>
      <trkpt lat="44.017913" lon="5.058382">
        <ele>87.795696</ele>
        <time>2021-07-04T17:26:22.590Z</time>
      </trkpt>
      <trkpt lat="44.017325" lon="5.058074">
        <ele>87.481951</ele>
        <time>2021-07-04T17:26:36.296Z</time>
      </trkpt>
      <trkpt lat="44.016735" lon="5.057662">
        <ele>87.113058</ele>
        <time>2021-07-04T17:26:49.918Z</time>
      </trkpt>
      <trkpt lat="44.015086" lon="5.056362">
        <ele>85.267693</ele>
        <time>2021-07-04T17:27:28.022Z</time>
      </trkpt>
      <trkpt lat="44.015011" lon="5.056298">
        <ele>85.201973</ele>
        <time>2021-07-04T17:27:29.799Z</time>
      </trkpt>
      <trkpt lat="44.014916" lon="5.056216">
        <ele>85.118465</ele>
        <time>2021-07-04T17:27:31.984Z</time>
      </trkpt>
      <trkpt lat="44.014351" lon="5.055760">
        <ele>84.630573</ele>
        <time>2021-07-04T17:27:45.480Z</time>
      </trkpt>
      <trkpt lat="44.013750" lon="5.055384">
        <ele>84.138383</ele>
        <time>2021-07-04T17:27:59.532Z</time>
      </trkpt>
      <trkpt lat="44.013531" lon="5.055251">
        <ele>84.019146</ele>
        <time>2021-07-04T17:28:04.610Z</time>
      </trkpt>
      <trkpt lat="44.013479" lon="5.055193">
        <ele>84.000149</ele>
        <time>2021-07-04T17:28:06.132Z</time>
      </trkpt>
      <trkpt lat="44.013458" lon="5.055142">
        <ele>83.988105</ele>
        <time>2021-07-04T17:28:07.086Z</time>
      </trkpt>
      <trkpt lat="44.012999" lon="5.055172">
        <ele>83.857162</ele>
        <time>2021-07-04T17:28:16.888Z</time>
      </trkpt>
      <trkpt lat="44.012454" lon="5.055163">
        <ele>83.701845</ele>
        <time>2021-07-04T17:28:28.547Z</time>
      </trkpt>
      <trkpt lat="44.012236" lon="5.055158">
        <ele>83.639714</ele>
        <time>2021-07-04T17:28:33.111Z</time>
      </trkpt>
      <trkpt lat="44.012147" lon="5.055155">
        <ele>83.614344</ele>
        <time>2021-07-04T17:28:34.992Z</time>
      </trkpt>
      <trkpt lat="44.011658" lon="5.055128">
        <ele>83.489440</ele>
        <time>2021-07-04T17:28:45.436Z</time>
      </trkpt>
      <trkpt lat="44.011355" lon="5.055099">
        <ele>83.421345</ele>
        <time>2021-07-04T17:28:51.928Z</time>
      </trkpt>
      <trkpt lat="44.010983" lon="5.055034">
        <ele>83.337285</ele>
        <time>2021-07-04T17:28:59.925Z</time>
      </trkpt>
      <trkpt lat="44.010797" lon="5.055005">
        <ele>83.295321</ele>
        <time>2021-07-04T17:29:03.838Z</time>
      </trkpt>
      <trkpt lat="44.010477" lon="5.054935">
        <ele>83.222693</ele>
        <time>2021-07-04T17:29:10.789Z</time>
      </trkpt>
      <trkpt lat="44.010350" lon="5.054919">
        <ele>83.194102</ele>
        <time>2021-07-04T17:29:13.529Z</time>
      </trkpt>
      <trkpt lat="44.010221" lon="5.054919">
        <ele>83.165180</ele>
        <time>2021-07-04T17:29:16.371Z</time>
      </trkpt>
      <trkpt lat="44.010116" lon="5.054931">
        <ele>83.141559</ele>
        <time>2021-07-04T17:29:18.591Z</time>
      </trkpt>
      <trkpt lat="44.009973" lon="5.054962">
        <ele>83.149815</ele>
        <time>2021-07-04T17:29:21.777Z</time>
      </trkpt>
      <trkpt lat="44.009306" lon="5.055118">
        <ele>83.198786</ele>
        <time>2021-07-04T17:29:37.007Z</time>
      </trkpt>
      <trkpt lat="44.008635" lon="5.055293">
        <ele>83.248216</ele>
        <time>2021-07-04T17:29:52.697Z</time>
      </trkpt>
      <trkpt lat="44.008185" lon="5.055430">
        <ele>83.247673</ele>
        <time>2021-07-04T17:30:02.970Z</time>
      </trkpt>
      <trkpt lat="44.007919" lon="5.055512">
        <ele>83.209068</ele>
        <time>2021-07-04T17:30:09.051Z</time>
      </trkpt>
      <trkpt lat="44.007520" lon="5.055636">
        <ele>83.151139</ele>
        <time>2021-07-04T17:30:17.995Z</time>
      </trkpt>
      <trkpt lat="44.007408" lon="5.055670">
        <ele>83.134896</ele>
        <time>2021-07-04T17:30:20.464Z</time>
      </trkpt>
      <trkpt lat="44.006961" lon="5.055837">
        <ele>83.069314</ele>
        <time>2021-07-04T17:30:30.562Z</time>
      </trkpt>
      <trkpt lat="44.006667" lon="5.055947">
        <ele>83.026175</ele>
        <time>2021-07-04T17:30:37.046Z</time>
      </trkpt>
      <trkpt lat="44.006560" lon="5.055985">
        <ele>83.011109</ele>
        <time>2021-07-04T17:30:39.383Z</time>
      </trkpt>
      <trkpt lat="44.006314" lon="5.056072">
        <ele>82.979567</ele>
        <time>2021-07-04T17:30:44.571Z</time>
      </trkpt>
      <trkpt lat="44.006125" lon="5.056132">
        <ele>82.955477</ele>
        <time>2021-07-04T17:30:48.536Z</time>
      </trkpt>
      <trkpt lat="44.005718" lon="5.056177">
        <ele>82.904742</ele>
        <time>2021-07-04T17:30:57.076Z</time>
      </trkpt>
      <trkpt lat="44.005035" lon="5.056195">
        <ele>82.819856</ele>
        <time>2021-07-04T17:31:12.434Z</time>
      </trkpt>
      <trkpt lat="44.004588" lon="5.056231">
        <ele>82.888877</ele>
        <time>2021-07-04T17:31:22.751Z</time>
      </trkpt>
      <trkpt lat="44.004228" lon="5.056312">
        <ele>83.048717</ele>
        <time>2021-07-04T17:31:31.343Z</time>
      </trkpt>
      <trkpt lat="44.004053" lon="5.056390">
        <ele>83.129265</ele>
        <time>2021-07-04T17:31:35.766Z</time>
      </trkpt>
      <trkpt lat="44.003581" lon="5.056686">
        <ele>83.356215</ele>
        <time>2021-07-04T17:31:48.152Z</time>
      </trkpt>
      <trkpt lat="44.003562" lon="5.056698">
        <ele>83.365362</ele>
        <time>2021-07-04T17:31:48.674Z</time>
      </trkpt>
      <trkpt lat="44.003139" lon="5.056964">
        <ele>83.568847</ele>
        <time>2021-07-04T17:32:00.243Z</time>
      </trkpt>
      <trkpt lat="44.002671" lon="5.057244">
        <ele>83.692643</ele>
        <time>2021-07-04T17:32:12.823Z</time>
      </trkpt>
      <trkpt lat="44.002035" lon="5.057652">
        <ele>83.855578</ele>
        <time>2021-07-04T17:32:29.106Z</time>
      </trkpt>
      <trkpt lat="44.001789" lon="5.057813">
        <ele>83.918825</ele>
        <time>2021-07-04T17:32:35.264Z</time>
      </trkpt>
      <trkpt lat="44.001454" lon="5.058023">
        <ele>83.982344</ele>
        <time>2021-07-04T17:32:43.361Z</time>
      </trkpt>
      <trkpt lat="44.001164" lon="5.058205">
        <ele>83.777002</ele>
        <time>2021-07-04T17:32:50.230Z</time>
      </trkpt>
      <trkpt lat="44.000595" lon="5.058554">
        <ele>83.375638</ele>
        <time>2021-07-04T17:33:02.713Z</time>
      </trkpt>
      <trkpt lat="44.000504" lon="5.058619">
        <ele>83.309612</ele>
        <time>2021-07-04T17:33:04.737Z</time>
      </trkpt>
      <trkpt lat="44.000433" lon="5.058495">
        <ele>83.236037</ele>
        <time>2021-07-04T17:33:06.917Z</time>
      </trkpt>
      <trkpt lat="44.000102" lon="5.057918">
        <ele>82.893427</ele>
        <time>2021-07-04T17:33:17.402Z</time>
      </trkpt>
      <trkpt lat="44.000075" lon="5.057868">
        <ele>82.864403</ele>
        <time>2021-07-04T17:33:18.269Z</time>
      </trkpt>
      <trkpt lat="43.999769" lon="5.057316">
        <ele>82.432892</ele>
        <time>2021-07-04T17:33:27.962Z</time>
      </trkpt>
      <trkpt lat="43.999547" lon="5.056908">
        <ele>82.109000</ele>
        <time>2021-07-04T17:33:34.949Z</time>
      </trkpt>
      <trkpt lat="43.999334" lon="5.056545">
        <ele>81.812410</ele>
        <time>2021-07-04T17:33:41.276Z</time>
      </trkpt>
      <trkpt lat="43.998856" lon="5.055708">
        <ele>81.176367</ele>
        <time>2021-07-04T17:33:56.747Z</time>
      </trkpt>
      <trkpt lat="43.998809" lon="5.055624">
        <ele>81.131998</ele>
        <time>2021-07-04T17:33:58.490Z</time>
      </trkpt>
      <trkpt lat="43.998588" lon="5.055245">
        <ele>80.928582</ele>
        <time>2021-07-04T17:34:06.072Z</time>
      </trkpt>
      <trkpt lat="43.998558" lon="5.055189">
        <ele>80.899470</ele>
        <time>2021-07-04T17:34:07.396Z</time>
      </trkpt>
      <trkpt lat="43.998532" lon="5.055132">
        <ele>80.871330</ele>
        <time>2021-07-04T17:34:08.602Z</time>
      </trkpt>
      <trkpt lat="43.998494" lon="5.055023">
        <ele>80.820827</ele>
        <time>2021-07-04T17:34:10.546Z</time>
      </trkpt>
      <trkpt lat="43.998485" lon="5.054993">
        <ele>80.807275</ele>
        <time>2021-07-04T17:34:11.056Z</time>
      </trkpt>
      <trkpt lat="43.998487" lon="5.054976">
        <ele>80.800093</ele>
        <time>2021-07-04T17:34:11.280Z</time>
      </trkpt>
      <trkpt lat="43.998487" lon="5.054958">
        <ele>80.792588</ele>
        <time>2021-07-04T17:34:11.473Z</time>
      </trkpt>
      <trkpt lat="43.998482" lon="5.054934">
        <ele>80.782170</ele>
        <time>2021-07-04T17:34:11.758Z</time>
      </trkpt>
      <trkpt lat="43.998456" lon="5.054901">
        <ele>80.761764</ele>
        <time>2021-07-04T17:34:12.527Z</time>
      </trkpt>
      <trkpt lat="43.998439" lon="5.054895">
        <ele>80.751598</ele>
        <time>2021-07-04T17:34:12.901Z</time>
      </trkpt>
      <trkpt lat="43.998425" lon="5.054896">
        <ele>80.743473</ele>
        <time>2021-07-04T17:34:13.243Z</time>
      </trkpt>
      <trkpt lat="43.998390" lon="5.054928">
        <ele>80.719193</ele>
        <time>2021-07-04T17:34:14.149Z</time>
      </trkpt>
      <trkpt lat="43.998384" lon="5.054946">
        <ele>80.710921</ele>
        <time>2021-07-04T17:34:14.519Z</time>
      </trkpt>
      <trkpt lat="43.998360" lon="5.054966">
        <ele>80.694703</ele>
        <time>2021-07-04T17:34:15.256Z</time>
      </trkpt>
      <trkpt lat="43.998293" lon="5.055045">
        <ele>80.643782</ele>
        <time>2021-07-04T17:34:17.328Z</time>
      </trkpt>
      <trkpt lat="43.998169" lon="5.055169">
        <ele>80.555247</ele>
        <time>2021-07-04T17:34:19.999Z</time>
      </trkpt>
      <trkpt lat="43.998104" lon="5.055230">
        <ele>80.509792</ele>
        <time>2021-07-04T17:34:21.686Z</time>
      </trkpt>
      <trkpt lat="43.998005" lon="5.055330">
        <ele>80.438862</ele>
        <time>2021-07-04T17:34:24.680Z</time>
      </trkpt>
      <trkpt lat="43.997892" lon="5.055446">
        <ele>80.357445</ele>
        <time>2021-07-04T17:34:27.098Z</time>
      </trkpt>
      <trkpt lat="43.997760" lon="5.055570">
        <ele>80.265106</ele>
        <time>2021-07-04T17:34:30.682Z</time>
      </trkpt>
      <trkpt lat="43.997714" lon="5.055611">
        <ele>80.233435</ele>
        <time>2021-07-04T17:34:31.962Z</time>
      </trkpt>
      <trkpt lat="43.997650" lon="5.055647">
        <ele>80.168193</ele>
        <time>2021-07-04T17:34:33.174Z</time>
      </trkpt>
      <trkpt lat="43.997623" lon="5.055645">
        <ele>80.131409</ele>
        <time>2021-07-04T17:34:33.666Z</time>
      </trkpt>
      <trkpt lat="43.997595" lon="5.055636">
        <ele>80.092312</ele>
        <time>2021-07-04T17:34:34.081Z</time>
      </trkpt>
      <trkpt lat="43.997172" lon="5.055052">
        <ele>79.281260</ele>
        <time>2021-07-04T17:34:46.244Z</time>
      </trkpt>
      <trkpt lat="43.997052" lon="5.054886">
        <ele>79.050949</ele>
        <time>2021-07-04T17:34:49.140Z</time>
      </trkpt>
      <trkpt lat="43.996669" lon="5.054298">
        <ele>78.274654</ele>
        <time>2021-07-04T17:34:59.987Z</time>
      </trkpt>
      <trkpt lat="43.996631" lon="5.054239">
        <ele>78.197152</ele>
        <time>2021-07-04T17:35:00.939Z</time>
      </trkpt>
      <trkpt lat="43.996267" lon="5.053647">
        <ele>77.399643</ele>
        <time>2021-07-04T17:35:10.736Z</time>
      </trkpt>
      <trkpt lat="43.996088" lon="5.053370">
        <ele>76.996231</ele>
        <time>2021-07-04T17:35:15.420Z</time>
      </trkpt>
      <trkpt lat="43.995908" lon="5.053092">
        <ele>76.591007</ele>
        <time>2021-07-04T17:35:20.344Z</time>
      </trkpt>
      <trkpt lat="43.995836" lon="5.052977">
        <ele>76.425834</ele>
        <time>2021-07-04T17:35:22.384Z</time>
      </trkpt>
      <trkpt lat="43.995768" lon="5.052886">
        <ele>76.283677</ele>
        <time>2021-07-04T17:35:24.151Z</time>
      </trkpt>
      <trkpt lat="43.995681" lon="5.052778">
        <ele>76.108008</ele>
        <time>2021-07-04T17:35:26.250Z</time>
      </trkpt>
      <trkpt lat="43.995353" lon="5.052401">
        <ele>75.467026</ele>
        <time>2021-07-04T17:35:34.219Z</time>
      </trkpt>
      <trkpt lat="43.994962" lon="5.051948">
        <ele>74.832570</ele>
        <time>2021-07-04T17:35:43.972Z</time>
      </trkpt>
      <trkpt lat="43.994620" lon="5.051587">
        <ele>74.425905</ele>
        <time>2021-07-04T17:35:52.268Z</time>
      </trkpt>
      <trkpt lat="43.994529" lon="5.051496">
        <ele>74.319746</ele>
        <time>2021-07-04T17:35:54.369Z</time>
      </trkpt>
      <trkpt lat="43.994453" lon="5.051415">
        <ele>74.229055</ele>
        <time>2021-07-04T17:35:56.261Z</time>
      </trkpt>
      <trkpt lat="43.994287" lon="5.051254">
        <ele>74.037371</ele>
        <time>2021-07-04T17:36:00.220Z</time>
      </trkpt>
      <trkpt lat="43.994228" lon="5.051198">
        <ele>73.969716</ele>
        <time>2021-07-04T17:36:01.590Z</time>
      </trkpt>
      <trkpt lat="43.994083" lon="5.051056">
        <ele>73.801747</ele>
        <time>2021-07-04T17:36:05.150Z</time>
      </trkpt>
      <trkpt lat="43.993946" lon="5.050916">
        <ele>73.640723</ele>
        <time>2021-07-04T17:36:08.474Z</time>
      </trkpt>
      <trkpt lat="43.993233" lon="5.050165">
        <ele>72.904641</ele>
        <time>2021-07-04T17:36:26.214Z</time>
      </trkpt>
      <trkpt lat="43.992815" lon="5.049731">
        <ele>72.508644</ele>
        <time>2021-07-04T17:36:36.639Z</time>
      </trkpt>
      <trkpt lat="43.992589" lon="5.049481">
        <ele>72.289421</ele>
        <time>2021-07-04T17:36:42.441Z</time>
      </trkpt>
      <trkpt lat="43.992502" lon="5.049385">
        <ele>72.205111</ele>
        <time>2021-07-04T17:36:44.578Z</time>
      </trkpt>
      <trkpt lat="43.992449" lon="5.049336">
        <ele>72.156799</ele>
        <time>2021-07-04T17:36:45.865Z</time>
      </trkpt>
      <trkpt lat="43.992362" lon="5.049194">
        <ele>72.054954</ele>
        <time>2021-07-04T17:36:48.605Z</time>
      </trkpt>
      <trkpt lat="43.992331" lon="5.049124">
        <ele>72.010069</ele>
        <time>2021-07-04T17:36:49.754Z</time>
      </trkpt>
      <trkpt lat="43.992308" lon="5.049048">
        <ele>71.964540</ele>
        <time>2021-07-04T17:36:50.883Z</time>
      </trkpt>
      <trkpt lat="43.992274" lon="5.048983">
        <ele>71.919683</ele>
        <time>2021-07-04T17:36:51.985Z</time>
      </trkpt>
      <trkpt lat="43.992234" lon="5.048948">
        <ele>71.883012</ele>
        <time>2021-07-04T17:36:52.971Z</time>
      </trkpt>
      <trkpt lat="43.992187" lon="5.048940">
        <ele>71.846275</ele>
        <time>2021-07-04T17:36:53.919Z</time>
      </trkpt>
      <trkpt lat="43.992162" lon="5.048951">
        <ele>71.825930</ele>
        <time>2021-07-04T17:36:54.453Z</time>
      </trkpt>
      <trkpt lat="43.992145" lon="5.048975">
        <ele>71.807131</ele>
        <time>2021-07-04T17:36:54.970Z</time>
      </trkpt>
      <trkpt lat="43.992085" lon="5.048963">
        <ele>71.760101</ele>
        <time>2021-07-04T17:36:56.161Z</time>
      </trkpt>
      <trkpt lat="43.992044" lon="5.048945">
        <ele>71.726743</ele>
        <time>2021-07-04T17:36:56.979Z</time>
      </trkpt>
      <trkpt lat="43.991887" lon="5.048843">
        <ele>71.592287</ele>
        <time>2021-07-04T17:37:00.370Z</time>
      </trkpt>
      <trkpt lat="43.991488" lon="5.048497">
        <ele>71.227421</ele>
        <time>2021-07-04T17:37:09.655Z</time>
      </trkpt>
      <trkpt lat="43.989709" lon="5.047167">
        <ele>69.693896</ele>
        <time>2021-07-04T17:37:49.780Z</time>
      </trkpt>
      <trkpt lat="43.989295" lon="5.046912">
        <ele>69.355266</ele>
        <time>2021-07-04T17:37:58.782Z</time>
      </trkpt>
      <trkpt lat="43.988624" lon="5.046615">
        <ele>69.201952</ele>
        <time>2021-07-04T17:38:12.742Z</time>
      </trkpt>
      <trkpt lat="43.987642" lon="5.046351">
        <ele>69.120739</ele>
        <time>2021-07-04T17:38:35.195Z</time>
      </trkpt>
      <trkpt lat="43.987466" lon="5.046286">
        <ele>69.105953</ele>
        <time>2021-07-04T17:38:39.492Z</time>
      </trkpt>
      <trkpt lat="43.987315" lon="5.046215">
        <ele>69.132941</ele>
        <time>2021-07-04T17:38:43.470Z</time>
      </trkpt>
      <trkpt lat="43.987189" lon="5.046146">
        <ele>69.174417</ele>
        <time>2021-07-04T17:38:46.879Z</time>
      </trkpt>
      <trkpt lat="43.986881" lon="5.045974">
        <ele>69.276074</ele>
        <time>2021-07-04T17:38:55.588Z</time>
      </trkpt>
      <trkpt lat="43.986502" lon="5.045717">
        <ele>69.405224</ele>
        <time>2021-07-04T17:39:05.953Z</time>
      </trkpt>
      <trkpt lat="43.986046" lon="5.045295">
        <ele>69.573004</ele>
        <time>2021-07-04T17:39:18.499Z</time>
      </trkpt>
      <trkpt lat="43.985760" lon="5.044979">
        <ele>69.518517</ele>
        <time>2021-07-04T17:39:26.660Z</time>
      </trkpt>
      <trkpt lat="43.985620" lon="5.044822">
        <ele>69.293055</ele>
        <time>2021-07-04T17:39:30.475Z</time>
      </trkpt>
      <trkpt lat="43.985309" lon="5.044476">
        <ele>68.793766</ele>
        <time>2021-07-04T17:39:38.273Z</time>
      </trkpt>
      <trkpt lat="43.984962" lon="5.044144">
        <ele>68.265770</ele>
        <time>2021-07-04T17:39:46.118Z</time>
      </trkpt>
      <trkpt lat="43.984233" lon="5.043627">
        <ele>67.163601</ele>
        <time>2021-07-04T17:40:00.463Z</time>
      </trkpt>
      <trkpt lat="43.983831" lon="5.043417">
        <ele>66.364911</ele>
        <time>2021-07-04T17:40:07.909Z</time>
      </trkpt>
      <trkpt lat="43.983229" lon="5.043116">
        <ele>65.175087</ele>
        <time>2021-07-04T17:40:19.361Z</time>
      </trkpt>
      <trkpt lat="43.981707" lon="5.042369">
        <ele>62.392254</ele>
        <time>2021-07-04T17:40:48.330Z</time>
      </trkpt>
      <trkpt lat="43.980048" lon="5.041283">
        <ele>59.975010</ele>
        <time>2021-07-04T17:41:21.977Z</time>
      </trkpt>
      <trkpt lat="43.978400" lon="5.040369">
        <ele>58.902817</ele>
        <time>2021-07-04T17:41:58.486Z</time>
      </trkpt>
      <trkpt lat="43.977311" lon="5.039827">
        <ele>58.684497</ele>
        <time>2021-07-04T17:42:24.492Z</time>
      </trkpt>
      <trkpt lat="43.977286" lon="5.039813">
        <ele>58.683264</ele>
        <time>2021-07-04T17:42:25.088Z</time>
      </trkpt>
      <trkpt lat="43.976164" lon="5.039242">
        <ele>58.628601</ele>
        <time>2021-07-04T17:42:51.427Z</time>
      </trkpt>
      <trkpt lat="43.975944" lon="5.039136">
        <ele>58.616983</ele>
        <time>2021-07-04T17:42:56.419Z</time>
      </trkpt>
      <trkpt lat="43.975784" lon="5.039051">
        <ele>58.604527</ele>
        <time>2021-07-04T17:43:00.129Z</time>
      </trkpt>
      <trkpt lat="43.975636" lon="5.038987">
        <ele>58.593256</ele>
        <time>2021-07-04T17:43:03.427Z</time>
      </trkpt>
      <trkpt lat="43.975497" lon="5.038945">
        <ele>58.582912</ele>
        <time>2021-07-04T17:43:06.511Z</time>
      </trkpt>
      <trkpt lat="43.975340" lon="5.038923">
        <ele>58.571437</ele>
        <time>2021-07-04T17:43:09.949Z</time>
      </trkpt>
      <trkpt lat="43.975118" lon="5.038901">
        <ele>58.555253</ele>
        <time>2021-07-04T17:43:14.747Z</time>
      </trkpt>
      <trkpt lat="43.974559" lon="5.038937">
        <ele>58.514560</ele>
        <time>2021-07-04T17:43:26.918Z</time>
      </trkpt>
      <trkpt lat="43.974393" lon="5.038977">
        <ele>58.502309</ele>
        <time>2021-07-04T17:43:30.646Z</time>
      </trkpt>
      <trkpt lat="43.974319" lon="5.038999">
        <ele>58.496806</ele>
        <time>2021-07-04T17:43:32.452Z</time>
      </trkpt>
      <trkpt lat="43.974248" lon="5.039026">
        <ele>58.491453</ele>
        <time>2021-07-04T17:43:34.154Z</time>
      </trkpt>
      <trkpt lat="43.974143" lon="5.039066">
        <ele>58.480576</ele>
        <time>2021-07-04T17:43:36.717Z</time>
      </trkpt>
      <trkpt lat="43.974024" lon="5.039121">
        <ele>58.466322</ele>
        <time>2021-07-04T17:43:39.688Z</time>
      </trkpt>
      <trkpt lat="43.973859" lon="5.039212">
        <ele>58.446144</ele>
        <time>2021-07-04T17:43:44.013Z</time>
      </trkpt>
      <trkpt lat="43.973793" lon="5.039262">
        <ele>58.437599</ele>
        <time>2021-07-04T17:43:45.406Z</time>
      </trkpt>
      <trkpt lat="43.973572" lon="5.039424">
        <ele>58.409199</ele>
        <time>2021-07-04T17:43:51.310Z</time>
      </trkpt>
      <trkpt lat="43.973259" lon="5.039740">
        <ele>58.365223</ele>
        <time>2021-07-04T17:43:59.767Z</time>
      </trkpt>
      <trkpt lat="43.973139" lon="5.039907">
        <ele>58.345919</ele>
        <time>2021-07-04T17:44:03.136Z</time>
      </trkpt>
      <trkpt lat="43.972883" lon="5.040212">
        <ele>58.307589</ele>
        <time>2021-07-04T17:44:10.296Z</time>
      </trkpt>
      <trkpt lat="43.972683" lon="5.040423">
        <ele>58.282289</ele>
        <time>2021-07-04T17:44:15.913Z</time>
      </trkpt>
      <trkpt lat="43.972657" lon="5.040373">
        <ele>58.280328</ele>
        <time>2021-07-04T17:44:16.670Z</time>
      </trkpt>
      <trkpt lat="43.972472" lon="5.040147">
        <ele>58.269445</ele>
        <time>2021-07-04T17:44:22.446Z</time>
      </trkpt>
      <trkpt lat="43.972284" lon="5.040036">
        <ele>58.260420</ele>
        <time>2021-07-04T17:44:26.801Z</time>
      </trkpt>
      <trkpt lat="43.971308" lon="5.039638">
        <ele>58.215480</ele>
        <time>2021-07-04T17:44:49.939Z</time>
      </trkpt>
      <trkpt lat="43.969441" lon="5.039518">
        <ele>59.000761</ele>
        <time>2021-07-04T17:45:37.144Z</time>
      </trkpt>
      <trkpt lat="43.968720" lon="5.039356">
        <ele>59.244019</ele>
        <time>2021-07-04T17:45:55.517Z</time>
      </trkpt>
      <trkpt lat="43.967806" lon="5.038761">
        <ele>59.532794</ele>
        <time>2021-07-04T17:46:19.687Z</time>
      </trkpt>
      <trkpt lat="43.967724" lon="5.038701">
        <ele>59.559308</ele>
        <time>2021-07-04T17:46:21.776Z</time>
      </trkpt>
      <trkpt lat="43.967129" lon="5.038262">
        <ele>59.685933</ele>
        <time>2021-07-04T17:46:37.913Z</time>
      </trkpt>
      <trkpt lat="43.965845" lon="5.037737">
        <ele>59.900755</ele>
        <time>2021-07-04T17:47:09.711Z</time>
      </trkpt>
      <trkpt lat="43.965676" lon="5.037705">
        <ele>59.920674</ele>
        <time>2021-07-04T17:47:13.875Z</time>
      </trkpt>
      <trkpt lat="43.965498" lon="5.037692">
        <ele>59.941491</ele>
        <time>2021-07-04T17:47:18.110Z</time>
      </trkpt>
      <trkpt lat="43.965257" lon="5.037193">
        <ele>59.992003</ele>
        <time>2021-07-04T17:47:28.074Z</time>
      </trkpt>
      <trkpt lat="43.964683" lon="5.036192">
        <ele>60.099584</ele>
        <time>2021-07-04T17:47:49.370Z</time>
      </trkpt>
      <trkpt lat="43.963989" lon="5.035373">
        <ele>59.679686</ele>
        <time>2021-07-04T17:48:08.643Z</time>
      </trkpt>
      <trkpt lat="43.963636" lon="5.034749">
        <ele>59.409467</ele>
        <time>2021-07-04T17:48:20.243Z</time>
      </trkpt>
      <trkpt lat="43.963520" lon="5.034520">
        <ele>59.314127</ele>
        <time>2021-07-04T17:48:24.304Z</time>
      </trkpt>
      <trkpt lat="43.963482" lon="5.034445">
        <ele>59.282899</ele>
        <time>2021-07-04T17:48:25.598Z</time>
      </trkpt>
      <trkpt lat="43.963317" lon="5.034033">
        <ele>58.897029</ele>
        <time>2021-07-04T17:48:32.213Z</time>
      </trkpt>
      <trkpt lat="43.962340" lon="5.032189">
        <ele>56.787408</ele>
        <time>2021-07-04T17:49:02.592Z</time>
      </trkpt>
      <trkpt lat="43.962038" lon="5.031713">
        <ele>56.330225</ele>
        <time>2021-07-04T17:49:11.158Z</time>
      </trkpt>
      <trkpt lat="43.961809" lon="5.031461">
        <ele>56.037794</ele>
        <time>2021-07-04T17:49:16.716Z</time>
      </trkpt>
      <trkpt lat="43.961621" lon="5.031353">
        <ele>55.834150</ele>
        <time>2021-07-04T17:49:20.668Z</time>
      </trkpt>
      <trkpt lat="43.961571" lon="5.031443">
        <ele>55.752233</ele>
        <time>2021-07-04T17:49:22.301Z</time>
      </trkpt>
      <trkpt lat="43.961495" lon="5.031561">
        <ele>55.638143</ele>
        <time>2021-07-04T17:49:24.722Z</time>
      </trkpt>
      <trkpt lat="43.961328" lon="5.031682">
        <ele>55.449605</ele>
        <time>2021-07-04T17:49:28.581Z</time>
      </trkpt>
      <trkpt lat="43.959991" lon="5.032652">
        <ele>54.605829</ele>
        <time>2021-07-04T17:50:00.761Z</time>
      </trkpt>
      <trkpt lat="43.959948" lon="5.032672">
        <ele>54.586310</ele>
        <time>2021-07-04T17:50:01.811Z</time>
      </trkpt>
      <trkpt lat="43.959906" lon="5.032645">
        <ele>54.566391</ele>
        <time>2021-07-04T17:50:02.879Z</time>
      </trkpt>
      <trkpt lat="43.959541" lon="5.032202">
        <ele>54.357772</ele>
        <time>2021-07-04T17:50:13.764Z</time>
      </trkpt>
      <trkpt lat="43.959486" lon="5.032107">
        <ele>54.337879</ele>
        <time>2021-07-04T17:50:15.659Z</time>
      </trkpt>
      <trkpt lat="43.959494" lon="5.032081">
        <ele>54.340216</ele>
        <time>2021-07-04T17:50:16.130Z</time>
      </trkpt>
      <trkpt lat="43.959496" lon="5.032053">
        <ele>54.342541</ele>
        <time>2021-07-04T17:50:16.598Z</time>
      </trkpt>
      <trkpt lat="43.959492" lon="5.032026">
        <ele>54.344819</ele>
        <time>2021-07-04T17:50:17.070Z</time>
      </trkpt>
      <trkpt lat="43.959471" lon="5.031989">
        <ele>54.348713</ele>
        <time>2021-07-04T17:50:17.842Z</time>
      </trkpt>
      <trkpt lat="43.959408" lon="5.031977">
        <ele>54.356013</ele>
        <time>2021-07-04T17:50:19.305Z</time>
      </trkpt>
      <trkpt lat="43.959381" lon="5.032005">
        <ele>54.359881</ele>
        <time>2021-07-04T17:50:20.062Z</time>
      </trkpt>
      <trkpt lat="43.959371" lon="5.032033">
        <ele>54.362464</ele>
        <time>2021-07-04T17:50:20.561Z</time>
      </trkpt>
      <trkpt lat="43.959369" lon="5.032064">
        <ele>54.365036</ele>
        <time>2021-07-04T17:50:21.057Z</time>
      </trkpt>
      <trkpt lat="43.959295" lon="5.032079">
        <ele>54.373622</ele>
        <time>2021-07-04T17:50:22.620Z</time>
      </trkpt>
      <trkpt lat="43.958582" lon="5.032446">
        <ele>54.460914</ele>
        <time>2021-07-04T17:50:39.457Z</time>
      </trkpt>
      <trkpt lat="43.957996" lon="5.032755">
        <ele>54.532873</ele>
        <time>2021-07-04T17:50:54.413Z</time>
      </trkpt>
      <trkpt lat="43.957944" lon="5.032753">
        <ele>54.538845</ele>
        <time>2021-07-04T17:50:55.627Z</time>
      </trkpt>
      <trkpt lat="43.957902" lon="5.032751">
        <ele>54.550644</ele>
        <time>2021-07-04T17:50:56.641Z</time>
      </trkpt>
      <trkpt lat="43.957893" lon="5.032743">
        <ele>54.554662</ele>
        <time>2021-07-04T17:50:56.900Z</time>
      </trkpt>
      <trkpt lat="43.957883" lon="5.032739">
        <ele>54.558575</ele>
        <time>2021-07-04T17:50:57.152Z</time>
      </trkpt>
      <trkpt lat="43.957873" lon="5.032739">
        <ele>54.562336</ele>
        <time>2021-07-04T17:50:57.411Z</time>
      </trkpt>
      <trkpt lat="43.957791" lon="5.032676">
        <ele>54.597575</ele>
        <time>2021-07-04T17:50:59.725Z</time>
      </trkpt>
      <trkpt lat="43.957684" lon="5.032549">
        <ele>54.650500</ele>
        <time>2021-07-04T17:51:03.116Z</time>
      </trkpt>
      <trkpt lat="43.957630" lon="5.032454">
        <ele>54.683268</ele>
        <time>2021-07-04T17:51:05.181Z</time>
      </trkpt>
      <trkpt lat="43.957613" lon="5.032424">
        <ele>54.693604</ele>
        <time>2021-07-04T17:51:05.865Z</time>
      </trkpt>
      <trkpt lat="43.957608" lon="5.032400">
        <ele>54.700367</ele>
        <time>2021-07-04T17:51:06.307Z</time>
      </trkpt>
      <trkpt lat="43.957598" lon="5.032381">
        <ele>54.706739</ele>
        <time>2021-07-04T17:51:06.737Z</time>
      </trkpt>
      <trkpt lat="43.957583" lon="5.032368">
        <ele>54.713387</ele>
        <time>2021-07-04T17:51:07.174Z</time>
      </trkpt>
      <trkpt lat="43.957563" lon="5.032365">
        <ele>54.720952</ele>
        <time>2021-07-04T17:51:07.676Z</time>
      </trkpt>
      <trkpt lat="43.957530" lon="5.032390">
        <ele>54.735088</ele>
        <time>2021-07-04T17:51:08.596Z</time>
      </trkpt>
      <trkpt lat="43.957521" lon="5.032415">
        <ele>54.742654</ele>
        <time>2021-07-04T17:51:09.076Z</time>
      </trkpt>
      <trkpt lat="43.957520" lon="5.032434">
        <ele>54.747812</ele>
        <time>2021-07-04T17:51:09.391Z</time>
      </trkpt>
      <trkpt lat="43.957523" lon="5.032452">
        <ele>54.752813</ele>
        <time>2021-07-04T17:51:09.699Z</time>
      </trkpt>
      <trkpt lat="43.957530" lon="5.032468">
        <ele>54.757882</ele>
        <time>2021-07-04T17:51:10.016Z</time>
      </trkpt>
      <trkpt lat="43.957516" lon="5.032481">
        <ele>54.764214</ele>
        <time>2021-07-04T17:51:10.459Z</time>
      </trkpt>
      <trkpt lat="43.957402" lon="5.032583">
        <ele>54.815208</ele>
        <time>2021-07-04T17:51:13.666Z</time>
      </trkpt>
      <trkpt lat="43.957283" lon="5.032689">
        <ele>54.868369</ele>
        <time>2021-07-04T17:51:17.198Z</time>
      </trkpt>
      <trkpt lat="43.956989" lon="5.032909">
        <ele>54.993950</ele>
        <time>2021-07-04T17:51:25.449Z</time>
      </trkpt>
      <trkpt lat="43.956612" lon="5.031896">
        <ele>55.140459</ele>
        <time>2021-07-04T17:51:44.279Z</time>
      </trkpt>
      <trkpt lat="43.956386" lon="5.031305">
        <ele>54.978582</ele>
        <time>2021-07-04T17:51:54.652Z</time>
      </trkpt>
      <trkpt lat="43.956292" lon="5.030941">
        <ele>54.885039</ele>
        <time>2021-07-04T17:52:00.404Z</time>
      </trkpt>
      <trkpt lat="43.956189" lon="5.030941">
        <ele>54.850429</ele>
        <time>2021-07-04T17:52:02.521Z</time>
      </trkpt>
      <trkpt lat="43.956091" lon="5.030922">
        <ele>54.817179</ele>
        <time>2021-07-04T17:52:04.601Z</time>
      </trkpt>
      <trkpt lat="43.956059" lon="5.030990">
        <ele>54.797528</ele>
        <time>2021-07-04T17:52:05.638Z</time>
      </trkpt>
      <trkpt lat="43.955773" lon="5.031314">
        <ele>54.673519</ele>
        <time>2021-07-04T17:52:13.138Z</time>
      </trkpt>
      <trkpt lat="43.955453" lon="5.031501">
        <ele>54.547602</ele>
        <time>2021-07-04T17:52:20.198Z</time>
      </trkpt>
      <trkpt lat="43.954600" lon="5.032756">
        <ele>54.060721</ele>
        <time>2021-07-04T17:52:46.016Z</time>
      </trkpt>
      <trkpt lat="43.954175" lon="5.033345">
        <ele>53.885301</ele>
        <time>2021-07-04T17:52:59.101Z</time>
      </trkpt>
      <trkpt lat="43.953897" lon="5.033760">
        <ele>53.841579</ele>
        <time>2021-07-04T17:53:08.029Z</time>
      </trkpt>
      <trkpt lat="43.953464" lon="5.034311">
        <ele>53.778666</ele>
        <time>2021-07-04T17:53:20.939Z</time>
      </trkpt>
      <trkpt lat="43.952210" lon="5.035350">
        <ele>53.574930</ele>
        <time>2021-07-04T17:53:52.647Z</time>
      </trkpt>
      <trkpt lat="43.952043" lon="5.035678">
        <ele>53.528164</ele>
        <time>2021-07-04T17:53:58.942Z</time>
      </trkpt>
      <trkpt lat="43.951363" lon="5.037706">
        <ele>53.271510</ele>
        <time>2021-07-04T17:54:33.856Z</time>
      </trkpt>
      <trkpt lat="43.951251" lon="5.037933">
        <ele>53.240247</ele>
        <time>2021-07-04T17:54:38.131Z</time>
      </trkpt>
      <trkpt lat="43.950575" lon="5.038794">
        <ele>53.124863</ele>
        <time>2021-07-04T17:54:57.940Z</time>
      </trkpt>
      <trkpt lat="43.949873" lon="5.040007">
        <ele>53.063511</ele>
        <time>2021-07-04T17:55:22.383Z</time>
      </trkpt>
      <trkpt lat="43.948824" lon="5.041083">
        <ele>53.173044</ele>
        <time>2021-07-04T17:55:52.060Z</time>
      </trkpt>
      <trkpt lat="43.948384" lon="5.041712">
        <ele>53.263929</ele>
        <time>2021-07-04T17:56:06.795Z</time>
      </trkpt>
      <trkpt lat="43.948209" lon="5.041893">
        <ele>53.295335</ele>
        <time>2021-07-04T17:56:11.882Z</time>
      </trkpt>
      <trkpt lat="43.947050" lon="5.042750">
        <ele>53.412193</ele>
        <time>2021-07-04T17:56:41.854Z</time>
      </trkpt>
      <trkpt lat="43.945717" lon="5.043880">
        <ele>53.425308</ele>
        <time>2021-07-04T17:57:16.075Z</time>
      </trkpt>
      <trkpt lat="43.944350" lon="5.044894">
        <ele>53.537297</ele>
        <time>2021-07-04T17:57:50.424Z</time>
      </trkpt>
      <trkpt lat="43.943711" lon="5.045159">
        <ele>53.652239</ele>
        <time>2021-07-04T17:58:06.041Z</time>
      </trkpt>
      <trkpt lat="43.943154" lon="5.045735">
        <ele>53.797909</ele>
        <time>2021-07-04T17:58:22.322Z</time>
      </trkpt>
      <trkpt lat="43.943018" lon="5.045841">
        <ele>53.836316</ele>
        <time>2021-07-04T17:58:26.170Z</time>
      </trkpt>
      <trkpt lat="43.942680" lon="5.046050">
        <ele>53.927436</ele>
        <time>2021-07-04T17:58:34.853Z</time>
      </trkpt>
      <trkpt lat="43.942550" lon="5.046190">
        <ele>53.967950</ele>
        <time>2021-07-04T17:58:38.589Z</time>
      </trkpt>
      <trkpt lat="43.942199" lon="5.046753">
        <ele>54.100010</ele>
        <time>2021-07-04T17:58:51.231Z</time>
      </trkpt>
      <trkpt lat="43.942052" lon="5.046908">
        <ele>54.145465</ele>
        <time>2021-07-04T17:58:55.337Z</time>
      </trkpt>
      <trkpt lat="43.941267" lon="5.047323">
        <ele>54.174742</ele>
        <time>2021-07-04T17:59:14.228Z</time>
      </trkpt>
      <trkpt lat="43.940614" lon="5.047350">
        <ele>54.191327</ele>
        <time>2021-07-04T17:59:28.749Z</time>
      </trkpt>
      <trkpt lat="43.940529" lon="5.047362">
        <ele>54.193496</ele>
        <time>2021-07-04T17:59:30.616Z</time>
      </trkpt>
      <trkpt lat="43.940402" lon="5.047409">
        <ele>54.196832</ele>
        <time>2021-07-04T17:59:33.548Z</time>
      </trkpt>
      <trkpt lat="43.940114" lon="5.047632">
        <ele>54.200158</ele>
        <time>2021-07-04T17:59:40.815Z</time>
      </trkpt>
      <trkpt lat="43.939862" lon="5.047948">
        <ele>54.200429</ele>
        <time>2021-07-04T17:59:48.317Z</time>
      </trkpt>
      <trkpt lat="43.939537" lon="5.048471">
        <ele>54.200826</ele>
        <time>2021-07-04T17:59:59.358Z</time>
      </trkpt>
      <trkpt lat="43.939430" lon="5.048655">
        <ele>54.200962</ele>
        <time>2021-07-04T18:00:03.128Z</time>
      </trkpt>
      <trkpt lat="43.939154" lon="5.049016">
        <ele>54.201265</ele>
        <time>2021-07-04T18:00:11.615Z</time>
      </trkpt>
      <trkpt lat="43.939054" lon="5.049251">
        <ele>54.201422</ele>
        <time>2021-07-04T18:00:16.040Z</time>
      </trkpt>
      <trkpt lat="43.938949" lon="5.049968">
        <ele>54.328724</ele>
        <time>2021-07-04T18:00:27.813Z</time>
      </trkpt>
      <trkpt lat="43.938838" lon="5.050317">
        <ele>54.396446</ele>
        <time>2021-07-04T18:00:33.970Z</time>
      </trkpt>
      <trkpt lat="43.936967" lon="5.053055">
        <ele>55.554361</ele>
        <time>2021-07-04T18:01:39.100Z</time>
      </trkpt>
      <trkpt lat="43.936937" lon="5.053166">
        <ele>55.599758</ele>
        <time>2021-07-04T18:01:41.313Z</time>
      </trkpt>
      <trkpt lat="43.936935" lon="5.053298">
        <ele>55.678772</ele>
        <time>2021-07-04T18:01:44.172Z</time>
      </trkpt>
      <trkpt lat="43.937275" lon="5.055031">
        <ele>56.765094</ele>
        <time>2021-07-04T18:02:18.094Z</time>
      </trkpt>
      <trkpt lat="43.937363" lon="5.055598">
        <ele>57.112625</ele>
        <time>2021-07-04T18:02:28.767Z</time>
      </trkpt>
      <trkpt lat="43.937334" lon="5.055607">
        <ele>57.117421</ele>
        <time>2021-07-04T18:02:29.500Z</time>
      </trkpt>
      <trkpt lat="43.936789" lon="5.055766">
        <ele>57.207308</ele>
        <time>2021-07-04T18:02:42.917Z</time>
      </trkpt>
      <trkpt lat="43.935660" lon="5.056070">
        <ele>57.392931</ele>
        <time>2021-07-04T18:03:09.761Z</time>
      </trkpt>
      <trkpt lat="43.935567" lon="5.056171">
        <ele>57.410645</ele>
        <time>2021-07-04T18:03:12.339Z</time>
      </trkpt>
      <trkpt lat="43.935519" lon="5.056270">
        <ele>57.422621</ele>
        <time>2021-07-04T18:03:14.504Z</time>
      </trkpt>
      <trkpt lat="43.935343" lon="5.057067">
        <ele>57.506274</ele>
        <time>2021-07-04T18:03:28.366Z</time>
      </trkpt>
      <trkpt lat="43.935166" lon="5.057398">
        <ele>57.547645</ele>
        <time>2021-07-04T18:03:35.431Z</time>
      </trkpt>
      <trkpt lat="43.935065" lon="5.057489">
        <ele>57.564422</ele>
        <time>2021-07-04T18:03:38.291Z</time>
      </trkpt>
      <trkpt lat="43.934932" lon="5.057491">
        <ele>57.582957</ele>
        <time>2021-07-04T18:03:41.539Z</time>
      </trkpt>
      <trkpt lat="43.934652" lon="5.057495">
        <ele>57.621976</ele>
        <time>2021-07-04T18:03:48.298Z</time>
      </trkpt>
      <trkpt lat="43.933948" lon="5.057690">
        <ele>57.659152</ele>
        <time>2021-07-04T18:04:05.561Z</time>
      </trkpt>
      <trkpt lat="43.933319" lon="5.057976">
        <ele>57.667617</ele>
        <time>2021-07-04T18:04:20.950Z</time>
      </trkpt>
      <trkpt lat="43.933200" lon="5.058025">
        <ele>57.669205</ele>
        <time>2021-07-04T18:04:23.857Z</time>
      </trkpt>
      <trkpt lat="43.933129" lon="5.058010">
        <ele>57.670123</ele>
        <time>2021-07-04T18:04:25.455Z</time>
      </trkpt>
      <trkpt lat="43.933058" lon="5.057997">
        <ele>57.671039</ele>
        <time>2021-07-04T18:04:27.080Z</time>
      </trkpt>
      <trkpt lat="43.933021" lon="5.057972">
        <ele>57.671565</ele>
        <time>2021-07-04T18:04:28.039Z</time>
      </trkpt>
      <trkpt lat="43.933019" lon="5.057958">
        <ele>57.671697</ele>
        <time>2021-07-04T18:04:28.247Z</time>
      </trkpt>
      <trkpt lat="43.932910" lon="5.057850">
        <ele>57.673409</ele>
        <time>2021-07-04T18:04:31.347Z</time>
      </trkpt>
      <trkpt lat="43.932864" lon="5.057865">
        <ele>57.674014</ele>
        <time>2021-07-04T18:04:32.377Z</time>
      </trkpt>
      <trkpt lat="43.932837" lon="5.057891">
        <ele>57.674434</ele>
        <time>2021-07-04T18:04:33.097Z</time>
      </trkpt>
      <trkpt lat="43.932817" lon="5.057925">
        <ele>57.674838</ele>
        <time>2021-07-04T18:04:33.823Z</time>
      </trkpt>
      <trkpt lat="43.932802" lon="5.057985">
        <ele>57.675423</ele>
        <time>2021-07-04T18:04:34.842Z</time>
      </trkpt>
      <trkpt lat="43.932805" lon="5.058047">
        <ele>57.675940</ele>
        <time>2021-07-04T18:04:35.868Z</time>
      </trkpt>
      <trkpt lat="43.932770" lon="5.058158">
        <ele>57.676735</ele>
        <time>2021-07-04T18:04:37.788Z</time>
      </trkpt>
      <trkpt lat="43.932736" lon="5.058259">
        <ele>57.677466</ele>
        <time>2021-07-04T18:04:39.627Z</time>
      </trkpt>
      <trkpt lat="43.932677" lon="5.058302">
        <ele>57.678073</ele>
        <time>2021-07-04T18:04:41.056Z</time>
      </trkpt>
      <trkpt lat="43.932065" lon="5.058610">
        <ele>57.684002</ele>
        <time>2021-07-04T18:04:55.835Z</time>
      </trkpt>
      <trkpt lat="43.931960" lon="5.058659">
        <ele>57.685011</ele>
        <time>2021-07-04T18:04:58.359Z</time>
      </trkpt>
      <trkpt lat="43.931091" lon="5.059099">
        <ele>57.752069</ele>
        <time>2021-07-04T18:05:20.504Z</time>
      </trkpt>
      <trkpt lat="43.931035" lon="5.059097">
        <ele>57.776515</ele>
        <time>2021-07-04T18:05:21.865Z</time>
      </trkpt>
      <trkpt lat="43.930943" lon="5.059092">
        <ele>57.816693</ele>
        <time>2021-07-04T18:05:23.998Z</time>
      </trkpt>
      <trkpt lat="43.930890" lon="5.059089">
        <ele>57.839840</ele>
        <time>2021-07-04T18:05:25.160Z</time>
      </trkpt>
      <trkpt lat="43.930870" lon="5.059066">
        <ele>57.851173</ele>
        <time>2021-07-04T18:05:25.750Z</time>
      </trkpt>
      <trkpt lat="43.930853" lon="5.059054">
        <ele>57.859495</ele>
        <time>2021-07-04T18:05:26.227Z</time>
      </trkpt>
      <trkpt lat="43.930821" lon="5.059042">
        <ele>57.873959</ele>
        <time>2021-07-04T18:05:27.087Z</time>
      </trkpt>
      <trkpt lat="43.930769" lon="5.059051">
        <ele>57.896827</ele>
        <time>2021-07-04T18:05:28.210Z</time>
      </trkpt>
      <trkpt lat="43.930732" lon="5.059083">
        <ele>57.915849</ele>
        <time>2021-07-04T18:05:29.226Z</time>
      </trkpt>
      <trkpt lat="43.930714" lon="5.059111">
        <ele>57.927645</ele>
        <time>2021-07-04T18:05:29.907Z</time>
      </trkpt>
      <trkpt lat="43.930700" lon="5.059153">
        <ele>57.942190</ele>
        <time>2021-07-04T18:05:30.679Z</time>
      </trkpt>
      <trkpt lat="43.930695" lon="5.059197">
        <ele>57.956189</ele>
        <time>2021-07-04T18:05:31.461Z</time>
      </trkpt>
      <trkpt lat="43.930699" lon="5.059237">
        <ele>57.968880</ele>
        <time>2021-07-04T18:05:32.134Z</time>
      </trkpt>
      <trkpt lat="43.930723" lon="5.059303">
        <ele>57.992117</ele>
        <time>2021-07-04T18:05:33.321Z</time>
      </trkpt>
      <trkpt lat="43.930745" lon="5.059329">
        <ele>58.004724</ele>
        <time>2021-07-04T18:05:33.957Z</time>
      </trkpt>
      <trkpt lat="43.930693" lon="5.059353">
        <ele>58.028636</ele>
        <time>2021-07-04T18:05:35.359Z</time>
      </trkpt>
      <trkpt lat="43.930073" lon="5.059679">
        <ele>58.317944</ele>
        <time>2021-07-04T18:05:51.452Z</time>
      </trkpt>
      <trkpt lat="43.929860" lon="5.059909">
        <ele>58.435693</ele>
        <time>2021-07-04T18:05:58.334Z</time>
      </trkpt>
      <trkpt lat="43.929659" lon="5.060106">
        <ele>58.542883</ele>
        <time>2021-07-04T18:06:04.451Z</time>
      </trkpt>
      <trkpt lat="43.929328" lon="5.060439">
        <ele>58.720787</ele>
        <time>2021-07-04T18:06:14.354Z</time>
      </trkpt>
      <trkpt lat="43.928990" lon="5.060748">
        <ele>58.896921</ele>
        <time>2021-07-04T18:06:23.858Z</time>
      </trkpt>
      <trkpt lat="43.928393" lon="5.061300">
        <ele>59.209099</ele>
        <time>2021-07-04T18:06:40.610Z</time>
      </trkpt>
      <trkpt lat="43.928056" lon="5.061588">
        <ele>59.393318</ele>
        <time>2021-07-04T18:06:50.107Z</time>
      </trkpt>
      <trkpt lat="43.927655" lon="5.062045">
        <ele>59.641407</ele>
        <time>2021-07-04T18:07:02.774Z</time>
      </trkpt>
      <trkpt lat="43.927427" lon="5.062303">
        <ele>59.782065</ele>
        <time>2021-07-04T18:07:10.021Z</time>
      </trkpt>
      <trkpt lat="43.927278" lon="5.062471">
        <ele>59.873854</ele>
        <time>2021-07-04T18:07:14.941Z</time>
      </trkpt>
      <trkpt lat="43.927076" lon="5.062709">
        <ele>60.000546</ele>
        <time>2021-07-04T18:07:21.170Z</time>
      </trkpt>
      <trkpt lat="43.926770" lon="5.062947">
        <ele>60.132034</ele>
        <time>2021-07-04T18:07:29.520Z</time>
      </trkpt>
      <trkpt lat="43.926710" lon="5.062996">
        <ele>60.140298</ele>
        <time>2021-07-04T18:07:31.374Z</time>
      </trkpt>
      <trkpt lat="43.926687" lon="5.063015">
        <ele>60.143475</ele>
        <time>2021-07-04T18:07:32.035Z</time>
      </trkpt>
      <trkpt lat="43.926670" lon="5.063065">
        <ele>60.148202</ele>
        <time>2021-07-04T18:07:32.975Z</time>
      </trkpt>
      <trkpt lat="43.926655" lon="5.063059">
        <ele>60.150055</ele>
        <time>2021-07-04T18:07:33.336Z</time>
      </trkpt>
      <trkpt lat="43.926608" lon="5.063068">
        <ele>60.155687</ele>
        <time>2021-07-04T18:07:34.362Z</time>
      </trkpt>
      <trkpt lat="43.926595" lon="5.063080">
        <ele>60.157540</ele>
        <time>2021-07-04T18:07:34.728Z</time>
      </trkpt>
      <trkpt lat="43.926491" lon="5.063083">
        <ele>60.169888</ele>
        <time>2021-07-04T18:07:37.079Z</time>
      </trkpt>
      <trkpt lat="43.926298" lon="5.063074">
        <ele>60.192812</ele>
        <time>2021-07-04T18:07:41.861Z</time>
      </trkpt>
      <trkpt lat="43.926242" lon="5.063065">
        <ele>60.199504</ele>
        <time>2021-07-04T18:07:43.073Z</time>
      </trkpt>
      <trkpt lat="43.926093" lon="5.063036">
        <ele>60.217364</ele>
        <time>2021-07-04T18:07:46.461Z</time>
      </trkpt>
      <trkpt lat="43.926024" lon="5.063021">
        <ele>60.225655</ele>
        <time>2021-07-04T18:07:48.304Z</time>
      </trkpt>
      <trkpt lat="43.925889" lon="5.062998">
        <ele>60.241801</ele>
        <time>2021-07-04T18:07:51.329Z</time>
      </trkpt>
      <trkpt lat="43.925843" lon="5.062985">
        <ele>60.247373</ele>
        <time>2021-07-04T18:07:52.332Z</time>
      </trkpt>
      <trkpt lat="43.925837" lon="5.062984">
        <ele>60.248091</ele>
        <time>2021-07-04T18:07:52.454Z</time>
      </trkpt>
      <trkpt lat="43.925787" lon="5.062934">
        <ele>60.255405</ele>
        <time>2021-07-04T18:07:53.778Z</time>
      </trkpt>
      <trkpt lat="43.925743" lon="5.062884">
        <ele>60.262155</ele>
        <time>2021-07-04T18:07:55.015Z</time>
      </trkpt>
      <trkpt lat="43.925726" lon="5.062836">
        <ele>60.266728</ele>
        <time>2021-07-04T18:07:55.954Z</time>
      </trkpt>
      <trkpt lat="43.925709" lon="5.062810">
        <ele>60.269730</ele>
        <time>2021-07-04T18:07:56.531Z</time>
      </trkpt>
      <trkpt lat="43.925664" lon="5.062779">
        <ele>60.275694</ele>
        <time>2021-07-04T18:07:57.635Z</time>
      </trkpt>
      <trkpt lat="43.925639" lon="5.062776">
        <ele>60.278672</ele>
        <time>2021-07-04T18:07:58.186Z</time>
      </trkpt>
      <trkpt lat="43.925550" lon="5.062718">
        <ele>60.290343</ele>
        <time>2021-07-04T18:08:00.326Z</time>
      </trkpt>
      <trkpt lat="43.925500" lon="5.062652">
        <ele>60.298533</ele>
        <time>2021-07-04T18:08:01.861Z</time>
      </trkpt>
      <trkpt lat="43.925366" lon="5.062470">
        <ele>60.320785</ele>
        <time>2021-07-04T18:08:06.202Z</time>
      </trkpt>
      <trkpt lat="43.925203" lon="5.062245">
        <ele>60.315597</ele>
        <time>2021-07-04T18:08:11.280Z</time>
      </trkpt>
      <trkpt lat="43.925102" lon="5.062116">
        <ele>60.295376</ele>
        <time>2021-07-04T18:08:14.258Z</time>
      </trkpt>
      <trkpt lat="43.924915" lon="5.061874">
        <ele>60.257711</ele>
        <time>2021-07-04T18:08:19.858Z</time>
      </trkpt>
      <trkpt lat="43.924602" lon="5.061451">
        <ele>60.193353</ele>
        <time>2021-07-04T18:08:29.516Z</time>
      </trkpt>
      <trkpt lat="43.924279" lon="5.061025">
        <ele>60.127713</ele>
        <time>2021-07-04T18:08:39.692Z</time>
      </trkpt>
      <trkpt lat="43.924253" lon="5.060991">
        <ele>60.122451</ele>
        <time>2021-07-04T18:08:40.584Z</time>
      </trkpt>
      <trkpt lat="43.923957" lon="5.060587">
        <ele>60.072085</ele>
        <time>2021-07-04T18:08:50.266Z</time>
      </trkpt>
      <trkpt lat="43.923695" lon="5.060233">
        <ele>60.098115</ele>
        <time>2021-07-04T18:08:58.877Z</time>
      </trkpt>
      <trkpt lat="43.923414" lon="5.059852">
        <ele>60.126081</ele>
        <time>2021-07-04T18:09:08.371Z</time>
      </trkpt>
      <trkpt lat="43.922189" lon="5.058193">
        <ele>60.061926</ele>
        <time>2021-07-04T18:09:48.301Z</time>
      </trkpt>
      <trkpt lat="43.921641" lon="5.057393">
        <ele>59.913225</ele>
        <time>2021-07-04T18:10:05.481Z</time>
      </trkpt>
      <trkpt lat="43.920968" lon="5.056547">
        <ele>60.093608</ele>
        <time>2021-07-04T18:10:25.944Z</time>
      </trkpt>
      <trkpt lat="43.920806" lon="5.056347">
        <ele>60.174559</ele>
        <time>2021-07-04T18:10:31.099Z</time>
      </trkpt>
      <trkpt lat="43.920743" lon="5.056350">
        <ele>60.198097</ele>
        <time>2021-07-04T18:10:32.670Z</time>
      </trkpt>
      <trkpt lat="43.920622" lon="5.056190">
        <ele>60.260495</ele>
        <time>2021-07-04T18:10:36.698Z</time>
      </trkpt>
      <trkpt lat="43.920591" lon="5.056152">
        <ele>60.275937</ele>
        <time>2021-07-04T18:10:37.729Z</time>
      </trkpt>
      <trkpt lat="43.920537" lon="5.056024">
        <ele>60.315836</ele>
        <time>2021-07-04T18:10:40.435Z</time>
      </trkpt>
      <trkpt lat="43.920511" lon="5.055968">
        <ele>60.333756</ele>
        <time>2021-07-04T18:10:41.757Z</time>
      </trkpt>
      <trkpt lat="43.920509" lon="5.055944">
        <ele>60.340254</ele>
        <time>2021-07-04T18:10:42.223Z</time>
      </trkpt>
      <trkpt lat="43.920503" lon="5.055921">
        <ele>60.346833</ele>
        <time>2021-07-04T18:10:42.639Z</time>
      </trkpt>
      <trkpt lat="43.920492" lon="5.055898">
        <ele>60.354259</ele>
        <time>2021-07-04T18:10:43.143Z</time>
      </trkpt>
      <trkpt lat="43.920421" lon="5.055856">
        <ele>60.383078</ele>
        <time>2021-07-04T18:10:45.067Z</time>
      </trkpt>
      <trkpt lat="43.920402" lon="5.055861">
        <ele>60.390299</ele>
        <time>2021-07-04T18:10:45.701Z</time>
      </trkpt>
      <trkpt lat="43.920394" lon="5.055865">
        <ele>60.393474</ele>
        <time>2021-07-04T18:10:45.894Z</time>
      </trkpt>
      <trkpt lat="43.920387" lon="5.055870">
        <ele>60.396414</ele>
        <time>2021-07-04T18:10:46.104Z</time>
      </trkpt>
      <trkpt lat="43.920301" lon="5.055866">
        <ele>60.428545</ele>
        <time>2021-07-04T18:10:48.239Z</time>
      </trkpt>
      <trkpt lat="43.920173" lon="5.055853">
        <ele>60.476469</ele>
        <time>2021-07-04T18:10:51.725Z</time>
      </trkpt>
      <trkpt lat="43.919894" lon="5.055786">
        <ele>60.611635</ele>
        <time>2021-07-04T18:10:59.112Z</time>
      </trkpt>
      <trkpt lat="43.919873" lon="5.055779">
        <ele>60.624422</ele>
        <time>2021-07-04T18:10:59.701Z</time>
      </trkpt>
      <trkpt lat="43.919680" lon="5.055739">
        <ele>60.739956</ele>
        <time>2021-07-04T18:11:05.199Z</time>
      </trkpt>
      <trkpt lat="43.919556" lon="5.055715">
        <ele>60.814081</ele>
        <time>2021-07-04T18:11:08.091Z</time>
      </trkpt>
      <trkpt lat="43.919501" lon="5.055693">
        <ele>60.847969</ele>
        <time>2021-07-04T18:11:09.652Z</time>
      </trkpt>
      <trkpt lat="43.919469" lon="5.055682">
        <ele>60.867487</ele>
        <time>2021-07-04T18:11:10.616Z</time>
      </trkpt>
      <trkpt lat="43.919392" lon="5.055627">
        <ele>60.918756</ele>
        <time>2021-07-04T18:11:12.790Z</time>
      </trkpt>
      <trkpt lat="43.919355" lon="5.055590">
        <ele>60.945754</ele>
        <time>2021-07-04T18:11:14.196Z</time>
      </trkpt>
      <trkpt lat="43.919343" lon="5.055546">
        <ele>60.965818</ele>
        <time>2021-07-04T18:11:15.032Z</time>
      </trkpt>
      <trkpt lat="43.919262" lon="5.055464">
        <ele>61.025172</ele>
        <time>2021-07-04T18:11:17.293Z</time>
      </trkpt>
      <trkpt lat="43.919228" lon="5.055461">
        <ele>61.045342</ele>
        <time>2021-07-04T18:11:18.196Z</time>
      </trkpt>
      <trkpt lat="43.919199" lon="5.055470">
        <ele>61.062936</ele>
        <time>2021-07-04T18:11:19.045Z</time>
      </trkpt>
      <trkpt lat="43.919150" lon="5.055514">
        <ele>61.097486</ele>
        <time>2021-07-04T18:11:20.615Z</time>
      </trkpt>
      <trkpt lat="43.919132" lon="5.055548">
        <ele>61.115481</ele>
        <time>2021-07-04T18:11:21.362Z</time>
      </trkpt>
      <trkpt lat="43.919123" lon="5.055577">
        <ele>61.128948</ele>
        <time>2021-07-04T18:11:21.889Z</time>
      </trkpt>
      <trkpt lat="43.919119" lon="5.055607">
        <ele>61.141960</ele>
        <time>2021-07-04T18:11:22.451Z</time>
      </trkpt>
      <trkpt lat="43.919102" lon="5.055638">
        <ele>61.158576</ele>
        <time>2021-07-04T18:11:23.367Z</time>
      </trkpt>
      <trkpt lat="43.918975" lon="5.055798">
        <ele>61.260113</ele>
        <time>2021-07-04T18:11:27.169Z</time>
      </trkpt>
      <trkpt lat="43.918904" lon="5.055849">
        <ele>61.307443</ele>
        <time>2021-07-04T18:11:29.203Z</time>
      </trkpt>
      <trkpt lat="43.918805" lon="5.055873">
        <ele>61.366944</ele>
        <time>2021-07-04T18:11:31.737Z</time>
      </trkpt>
      <trkpt lat="43.918786" lon="5.055875">
        <ele>61.378225</ele>
        <time>2021-07-04T18:11:32.303Z</time>
      </trkpt>
      <trkpt lat="43.918700" lon="5.055882">
        <ele>61.429230</ele>
        <time>2021-07-04T18:11:34.051Z</time>
      </trkpt>
      <trkpt lat="43.918441" lon="5.055844">
        <ele>61.583427</ele>
        <time>2021-07-04T18:11:40.274Z</time>
      </trkpt>
      <trkpt lat="43.918399" lon="5.055847">
        <ele>61.585380</ele>
        <time>2021-07-04T18:11:41.173Z</time>
      </trkpt>
      <trkpt lat="43.918304" lon="5.055847">
        <ele>61.529386</ele>
        <time>2021-07-04T18:11:43.015Z</time>
      </trkpt>
      <trkpt lat="43.917620" lon="5.055837">
        <ele>61.126204</ele>
        <time>2021-07-04T18:11:57.838Z</time>
      </trkpt>
      <trkpt lat="43.917566" lon="5.055794">
        <ele>61.089511</ele>
        <time>2021-07-04T18:11:59.065Z</time>
      </trkpt>
      <trkpt lat="43.917514" lon="5.055739">
        <ele>61.050979</ele>
        <time>2021-07-04T18:12:00.436Z</time>
      </trkpt>
      <trkpt lat="43.917499" lon="5.055707">
        <ele>61.034769</ele>
        <time>2021-07-04T18:12:01.000Z</time>
      </trkpt>
      <trkpt lat="43.917483" lon="5.055685">
        <ele>61.021496</ele>
        <time>2021-07-04T18:12:01.448Z</time>
      </trkpt>
      <trkpt lat="43.917446" lon="5.055580">
        <ele>60.971867</ele>
        <time>2021-07-04T18:12:03.235Z</time>
      </trkpt>
      <trkpt lat="43.917442" lon="5.055492">
        <ele>60.934429</ele>
        <time>2021-07-04T18:12:04.466Z</time>
      </trkpt>
      <trkpt lat="43.917450" lon="5.055386">
        <ele>60.889178</ele>
        <time>2021-07-04T18:12:05.972Z</time>
      </trkpt>
      <trkpt lat="43.917450" lon="5.055386">
        <ele>60.889178</ele>
        <time>2021-07-04T18:12:06.002Z</time>
      </trkpt>
      <trkpt lat="43.917450" lon="5.055386">
        <ele>60.889178</ele>
        <time>2021-07-04T18:12:06.033Z</time>
      </trkpt>
      <trkpt lat="43.917391" lon="5.055581">
        <ele>60.799378</ele>
        <time>2021-07-04T18:12:09.114Z</time>
      </trkpt>
      <trkpt lat="43.917369" lon="5.055626">
        <ele>60.776287</ele>
        <time>2021-07-04T18:12:09.929Z</time>
      </trkpt>
      <trkpt lat="43.917354" lon="5.055665">
        <ele>60.757516</ele>
        <time>2021-07-04T18:12:10.557Z</time>
      </trkpt>
      <trkpt lat="43.917333" lon="5.055683">
        <ele>60.742969</ele>
        <time>2021-07-04T18:12:11.004Z</time>
      </trkpt>
      <trkpt lat="43.917317" lon="5.055705">
        <ele>60.729695</ele>
        <time>2021-07-04T18:12:11.441Z</time>
      </trkpt>
      <trkpt lat="43.917260" lon="5.055726">
        <ele>60.694936</ele>
        <time>2021-07-04T18:12:12.625Z</time>
      </trkpt>
      <trkpt lat="43.917154" lon="5.055742">
        <ele>60.632090</ele>
        <time>2021-07-04T18:12:14.783Z</time>
      </trkpt>
      <trkpt lat="43.916862" lon="5.055724">
        <ele>60.537163</ele>
        <time>2021-07-04T18:12:20.851Z</time>
      </trkpt>
      <trkpt lat="43.916707" lon="5.055718">
        <ele>60.537736</ele>
        <time>2021-07-04T18:12:24.157Z</time>
      </trkpt>
      <trkpt lat="43.916671" lon="5.055714">
        <ele>60.537869</ele>
        <time>2021-07-04T18:12:24.949Z</time>
      </trkpt>
      <trkpt lat="43.916248" lon="5.055671">
        <ele>60.539437</ele>
        <time>2021-07-04T18:12:34.509Z</time>
      </trkpt>
      <trkpt lat="43.916222" lon="5.055669">
        <ele>60.539533</ele>
        <time>2021-07-04T18:12:35.139Z</time>
      </trkpt>
      <trkpt lat="43.916013" lon="5.055656">
        <ele>60.540306</ele>
        <time>2021-07-04T18:12:40.051Z</time>
      </trkpt>
      <trkpt lat="43.915845" lon="5.055652">
        <ele>60.540927</ele>
        <time>2021-07-04T18:12:44.027Z</time>
      </trkpt>
      <trkpt lat="43.915838" lon="5.055652">
        <ele>60.540953</ele>
        <time>2021-07-04T18:12:44.233Z</time>
      </trkpt>
      <trkpt lat="43.915564" lon="5.055673">
        <ele>60.541967</ele>
        <time>2021-07-04T18:12:50.895Z</time>
      </trkpt>
      <trkpt lat="43.915260" lon="5.055710">
        <ele>60.543095</ele>
        <time>2021-07-04T18:12:58.585Z</time>
      </trkpt>
      <trkpt lat="43.914966" lon="5.055772">
        <ele>60.657296</ele>
        <time>2021-07-04T18:13:06.131Z</time>
      </trkpt>
      <trkpt lat="43.914755" lon="5.055811">
        <ele>60.760831</ele>
        <time>2021-07-04T18:13:11.714Z</time>
      </trkpt>
      <trkpt lat="43.914254" lon="5.055871">
        <ele>61.005420</ele>
        <time>2021-07-04T18:13:24.650Z</time>
      </trkpt>
      <trkpt lat="43.914182" lon="5.055877">
        <ele>61.040503</ele>
        <time>2021-07-04T18:13:26.574Z</time>
      </trkpt>
      <trkpt lat="43.913512" lon="5.055956">
        <ele>61.367560</ele>
        <time>2021-07-04T18:13:43.330Z</time>
      </trkpt>
      <trkpt lat="43.913180" lon="5.055990">
        <ele>61.412313</ele>
        <time>2021-07-04T18:13:51.286Z</time>
      </trkpt>
      <trkpt lat="43.912794" lon="5.056031">
        <ele>61.402393</ele>
        <time>2021-07-04T18:14:00.281Z</time>
      </trkpt>
      <trkpt lat="43.912600" lon="5.056054">
        <ele>61.397403</ele>
        <time>2021-07-04T18:14:04.784Z</time>
      </trkpt>
      <trkpt lat="43.912310" lon="5.056090">
        <ele>61.389943</ele>
        <time>2021-07-04T18:14:11.331Z</time>
      </trkpt>
      <trkpt lat="43.911496" lon="5.056210">
        <ele>61.357859</ele>
        <time>2021-07-04T18:14:29.817Z</time>
      </trkpt>
      <trkpt lat="43.911291" lon="5.056231">
        <ele>61.333839</ele>
        <time>2021-07-04T18:14:34.302Z</time>
      </trkpt>
      <trkpt lat="43.911186" lon="5.056199">
        <ele>61.321277</ele>
        <time>2021-07-04T18:14:36.699Z</time>
      </trkpt>
      <trkpt lat="43.911142" lon="5.056163">
        <ele>61.315309</ele>
        <time>2021-07-04T18:14:37.830Z</time>
      </trkpt>
      <trkpt lat="43.911130" lon="5.056140">
        <ele>61.312918</ele>
        <time>2021-07-04T18:14:38.284Z</time>
      </trkpt>
      <trkpt lat="43.911119" lon="5.056124">
        <ele>61.311056</ele>
        <time>2021-07-04T18:14:38.629Z</time>
      </trkpt>
      <trkpt lat="43.911105" lon="5.056109">
        <ele>61.308990</ele>
        <time>2021-07-04T18:14:39.035Z</time>
      </trkpt>
      <trkpt lat="43.911086" lon="5.056095">
        <ele>61.306476</ele>
        <time>2021-07-04T18:14:39.488Z</time>
      </trkpt>
      <trkpt lat="43.910977" lon="5.056121">
        <ele>61.293552</ele>
        <time>2021-07-04T18:14:41.857Z</time>
      </trkpt>
      <trkpt lat="43.910963" lon="5.056142">
        <ele>61.291144</ele>
        <time>2021-07-04T18:14:42.327Z</time>
      </trkpt>
      <trkpt lat="43.910952" lon="5.056167">
        <ele>61.288678</ele>
        <time>2021-07-04T18:14:42.806Z</time>
      </trkpt>
      <trkpt lat="43.910943" lon="5.056269">
        <ele>61.280027</ele>
        <time>2021-07-04T18:14:44.531Z</time>
      </trkpt>
      <trkpt lat="43.910950" lon="5.056298">
        <ele>61.277452</ele>
        <time>2021-07-04T18:14:45.040Z</time>
      </trkpt>
      <trkpt lat="43.910958" lon="5.056446">
        <ele>61.264958</ele>
        <time>2021-07-04T18:14:47.464Z</time>
      </trkpt>
      <trkpt lat="43.910923" lon="5.056593">
        <ele>61.251925</ele>
        <time>2021-07-04T18:14:49.906Z</time>
      </trkpt>
      <trkpt lat="43.910879" lon="5.056673">
        <ele>61.243452</ele>
        <time>2021-07-04T18:14:51.634Z</time>
      </trkpt>
      <trkpt lat="43.910786" lon="5.056722">
        <ele>61.231828</ele>
        <time>2021-07-04T18:14:53.938Z</time>
      </trkpt>
      <trkpt lat="43.910749" lon="5.056735">
        <ele>61.227368</ele>
        <time>2021-07-04T18:14:54.803Z</time>
      </trkpt>
      <trkpt lat="43.910582" lon="5.056796">
        <ele>61.207189</ele>
        <time>2021-07-04T18:14:58.697Z</time>
      </trkpt>
      <trkpt lat="43.910311" lon="5.056893">
        <ele>61.174486</ele>
        <time>2021-07-04T18:15:05.196Z</time>
      </trkpt>
      <trkpt lat="43.909922" lon="5.056983">
        <ele>61.313984</ele>
        <time>2021-07-04T18:15:14.523Z</time>
      </trkpt>
      <trkpt lat="43.909735" lon="5.057026">
        <ele>61.414509</ele>
        <time>2021-07-04T18:15:19.198Z</time>
      </trkpt>
      <trkpt lat="43.908374" lon="5.057239">
        <ele>62.164402</ele>
        <time>2021-07-04T18:15:54.122Z</time>
      </trkpt>
      <trkpt lat="43.908202" lon="5.057266">
        <ele>62.342343</ele>
        <time>2021-07-04T18:15:59.295Z</time>
      </trkpt>
      <trkpt lat="43.907973" lon="5.057301">
        <ele>62.579174</ele>
        <time>2021-07-04T18:16:05.562Z</time>
      </trkpt>
      <trkpt lat="43.907188" lon="5.057404">
        <ele>63.389739</ele>
        <time>2021-07-04T18:16:27.731Z</time>
      </trkpt>
      <trkpt lat="43.906927" lon="5.057456">
        <ele>63.660793</ele>
        <time>2021-07-04T18:16:34.833Z</time>
      </trkpt>
      <trkpt lat="43.906677" lon="5.057528">
        <ele>63.923263</ele>
        <time>2021-07-04T18:16:41.911Z</time>
      </trkpt>
      <trkpt lat="43.905774" lon="5.057803">
        <ele>64.158449</ele>
        <time>2021-07-04T18:17:05.034Z</time>
      </trkpt>
      <trkpt lat="43.905517" lon="5.057925">
        <ele>64.217949</ele>
        <time>2021-07-04T18:17:11.429Z</time>
      </trkpt>
      <trkpt lat="43.904654" lon="5.058434">
        <ele>64.333824</ele>
        <time>2021-07-04T18:17:32.483Z</time>
      </trkpt>
      <trkpt lat="43.904272" lon="5.058687">
        <ele>64.297974</ele>
        <time>2021-07-04T18:17:41.853Z</time>
      </trkpt>
      <trkpt lat="43.902984" lon="5.059444">
        <ele>64.238217</ele>
        <time>2021-07-04T18:18:14.043Z</time>
      </trkpt>
      <trkpt lat="43.901556" lon="5.059836">
        <ele>64.383608</ele>
        <time>2021-07-04T18:18:48.418Z</time>
      </trkpt>
      <trkpt lat="43.901315" lon="5.059824">
        <ele>64.508779</ele>
        <time>2021-07-04T18:18:54.373Z</time>
      </trkpt>
      <trkpt lat="43.901250" lon="5.059793">
        <ele>64.547768</ele>
        <time>2021-07-04T18:18:55.925Z</time>
      </trkpt>
      <trkpt lat="43.900975" lon="5.059534">
        <ele>64.736295</ele>
        <time>2021-07-04T18:19:04.172Z</time>
      </trkpt>
      <trkpt lat="43.900948" lon="5.059515">
        <ele>64.753468</ele>
        <time>2021-07-04T18:19:04.826Z</time>
      </trkpt>
      <trkpt lat="43.900936" lon="5.059572">
        <ele>64.777740</ele>
        <time>2021-07-04T18:19:05.912Z</time>
      </trkpt>
      <trkpt lat="43.900908" lon="5.059549">
        <ele>64.796197</ele>
        <time>2021-07-04T18:19:06.760Z</time>
      </trkpt>
      <trkpt lat="43.899660" lon="5.058678">
        <ele>65.727134</ele>
        <time>2021-07-04T18:19:43.079Z</time>
      </trkpt>
      <trkpt lat="43.898461" lon="5.058121">
        <ele>66.989586</ele>
        <time>2021-07-04T18:20:18.127Z</time>
      </trkpt>
      <trkpt lat="43.898004" lon="5.057816">
        <ele>67.424335</ele>
        <time>2021-07-04T18:20:31.953Z</time>
      </trkpt>
      <trkpt lat="43.897689" lon="5.057542">
        <ele>67.705045</ele>
        <time>2021-07-04T18:20:41.937Z</time>
      </trkpt>
      <trkpt lat="43.897356" lon="5.057242">
        <ele>68.004823</ele>
        <time>2021-07-04T18:20:52.663Z</time>
      </trkpt>
      <trkpt lat="43.896604" lon="5.056644">
        <ele>68.533060</ele>
        <time>2021-07-04T18:21:14.346Z</time>
      </trkpt>
      <trkpt lat="43.896565" lon="5.056462">
        <ele>68.504477</ele>
        <time>2021-07-04T18:21:17.898Z</time>
      </trkpt>
      <trkpt lat="43.896651" lon="5.056270">
        <ele>68.470446</ele>
        <time>2021-07-04T18:21:21.408Z</time>
      </trkpt>
      <trkpt lat="43.896648" lon="5.056123">
        <ele>68.448309</ele>
        <time>2021-07-04T18:21:23.900Z</time>
      </trkpt>
      <trkpt lat="43.896631" lon="5.056079">
        <ele>68.440793</ele>
        <time>2021-07-04T18:21:24.914Z</time>
      </trkpt>
      <trkpt lat="43.896550" lon="5.056164">
        <ele>68.419579</ele>
        <time>2021-07-04T18:21:26.961Z</time>
      </trkpt>
      <trkpt lat="43.896466" lon="5.056267">
        <ele>68.396162</ele>
        <time>2021-07-04T18:21:29.347Z</time>
      </trkpt>
      <trkpt lat="43.896323" lon="5.056475">
        <ele>68.352886</ele>
        <time>2021-07-04T18:21:34.069Z</time>
      </trkpt>
      <trkpt lat="43.896294" lon="5.056453">
        <ele>68.345982</ele>
        <time>2021-07-04T18:21:34.646Z</time>
      </trkpt>
      <trkpt lat="43.895608" lon="5.056213">
        <ele>68.198190</ele>
        <time>2021-07-04T18:21:49.970Z</time>
      </trkpt>
      <trkpt lat="43.894765" lon="5.055771">
        <ele>67.810055</ele>
        <time>2021-07-04T18:22:08.792Z</time>
      </trkpt>
      <trkpt lat="43.894435" lon="5.055685">
        <ele>67.659673</ele>
        <time>2021-07-04T18:22:15.936Z</time>
      </trkpt>
      <trkpt lat="43.894246" lon="5.055706">
        <ele>67.574755</ele>
        <time>2021-07-04T18:22:20.002Z</time>
      </trkpt>
      <trkpt lat="43.891271" lon="5.056094">
        <ele>67.358924</ele>
        <time>2021-07-04T18:23:28.400Z</time>
      </trkpt>
      <trkpt lat="43.886241" lon="5.056725">
        <ele>68.103221</ele>
        <time>2021-07-04T18:25:29.545Z</time>
      </trkpt>
      <trkpt lat="43.886237" lon="5.056591">
        <ele>68.102552</ele>
        <time>2021-07-04T18:25:31.612Z</time>
      </trkpt>
      <trkpt lat="43.886235" lon="5.056533">
        <ele>68.102263</ele>
        <time>2021-07-04T18:25:32.576Z</time>
      </trkpt>
      <trkpt lat="43.886217" lon="5.056124">
        <ele>68.100220</ele>
        <time>2021-07-04T18:25:39.132Z</time>
      </trkpt>
      <trkpt lat="43.886210" lon="5.055950">
        <ele>68.099352</ele>
        <time>2021-07-04T18:25:41.952Z</time>
      </trkpt>
      <trkpt lat="43.886180" lon="5.055094">
        <ele>68.095080</ele>
        <time>2021-07-04T18:25:55.513Z</time>
      </trkpt>
      <trkpt lat="43.885974" lon="5.055121">
        <ele>68.093649</ele>
        <time>2021-07-04T18:26:00.269Z</time>
      </trkpt>
      <trkpt lat="43.885144" lon="5.055008">
        <ele>68.026212</ele>
        <time>2021-07-04T18:26:19.222Z</time>
      </trkpt>
      <trkpt lat="43.883362" lon="5.054422">
        <ele>67.948449</ele>
        <time>2021-07-04T18:27:01.126Z</time>
      </trkpt>
      <trkpt lat="43.881711" lon="5.053187">
        <ele>68.014478</ele>
        <time>2021-07-04T18:27:44.922Z</time>
      </trkpt>
      <trkpt lat="43.881048" lon="5.052410">
        <ele>68.074154</ele>
        <time>2021-07-04T18:28:05.257Z</time>
      </trkpt>
      <trkpt lat="43.880418" lon="5.051788">
        <ele>68.124768</ele>
        <time>2021-07-04T18:28:23.291Z</time>
      </trkpt>
      <trkpt lat="43.880218" lon="5.051605">
        <ele>68.140450</ele>
        <time>2021-07-04T18:28:28.890Z</time>
      </trkpt>
      <trkpt lat="43.879787" lon="5.051230">
        <ele>68.173751</ele>
        <time>2021-07-04T18:28:40.804Z</time>
      </trkpt>
      <trkpt lat="43.878751" lon="5.050262">
        <ele>68.505117</ele>
        <time>2021-07-04T18:29:10.768Z</time>
      </trkpt>
      <trkpt lat="43.875385" lon="5.048619">
        <ele>69.615631</ele>
        <time>2021-07-04T18:30:39.870Z</time>
      </trkpt>
      <trkpt lat="43.875176" lon="5.048523">
        <ele>69.625135</ele>
        <time>2021-07-04T18:30:44.800Z</time>
      </trkpt>
      <trkpt lat="43.874979" lon="5.048345">
        <ele>69.635285</ele>
        <time>2021-07-04T18:30:50.014Z</time>
      </trkpt>
      <trkpt lat="43.874943" lon="5.048316">
        <ele>69.637082</ele>
        <time>2021-07-04T18:30:50.888Z</time>
      </trkpt>
      <trkpt lat="43.874674" lon="5.048279">
        <ele>69.648751</ele>
        <time>2021-07-04T18:30:56.779Z</time>
      </trkpt>
      <trkpt lat="43.874444" lon="5.048178">
        <ele>69.549565</ele>
        <time>2021-07-04T18:31:01.845Z</time>
      </trkpt>
      <trkpt lat="43.872915" lon="5.047314">
        <ele>68.480748</ele>
        <time>2021-07-04T18:31:36.160Z</time>
      </trkpt>
      <trkpt lat="43.871405" lon="5.046587">
        <ele>67.858170</ele>
        <time>2021-07-04T18:32:11.267Z</time>
      </trkpt>
      <trkpt lat="43.870100" lon="5.045713">
        <ele>67.705683</ele>
        <time>2021-07-04T18:32:43.665Z</time>
      </trkpt>
      <trkpt lat="43.868800" lon="5.045030">
        <ele>68.066924</ele>
        <time>2021-07-04T18:33:17.329Z</time>
      </trkpt>
      <trkpt lat="43.868725" lon="5.044971">
        <ele>68.106933</ele>
        <time>2021-07-04T18:33:19.172Z</time>
      </trkpt>
      <trkpt lat="43.868560" lon="5.044890">
        <ele>68.188152</ele>
        <time>2021-07-04T18:33:23.985Z</time>
      </trkpt>
      <trkpt lat="43.867460" lon="5.044300">
        <ele>68.774462</ele>
        <time>2021-07-04T18:33:54.788Z</time>
      </trkpt>
      <trkpt lat="43.865835" lon="5.043670">
        <ele>69.522960</ele>
        <time>2021-07-04T18:34:37.085Z</time>
      </trkpt>
      <trkpt lat="43.865700" lon="5.043583">
        <ele>69.538265</ele>
        <time>2021-07-04T18:34:40.592Z</time>
      </trkpt>
      <trkpt lat="43.865662" lon="5.043541">
        <ele>69.543260</ele>
        <time>2021-07-04T18:34:41.649Z</time>
      </trkpt>
      <trkpt lat="43.865616" lon="5.043368">
        <ele>69.556928</ele>
        <time>2021-07-04T18:34:44.854Z</time>
      </trkpt>
      <trkpt lat="43.865613" lon="5.043326">
        <ele>69.560057</ele>
        <time>2021-07-04T18:34:45.485Z</time>
      </trkpt>
      <trkpt lat="43.865488" lon="5.043346">
        <ele>69.572994</ele>
        <time>2021-07-04T18:34:48.255Z</time>
      </trkpt>
      <trkpt lat="43.864884" lon="5.043377">
        <ele>69.635135</ele>
        <time>2021-07-04T18:35:01.531Z</time>
      </trkpt>
      <trkpt lat="43.864011" lon="5.043226">
        <ele>69.836047</ele>
        <time>2021-07-04T18:35:20.901Z</time>
      </trkpt>
      <trkpt lat="43.863870" lon="5.043181">
        <ele>69.879780</ele>
        <time>2021-07-04T18:35:24.238Z</time>
      </trkpt>
      <trkpt lat="43.863811" lon="5.043162">
        <ele>69.898088</ele>
        <time>2021-07-04T18:35:25.659Z</time>
      </trkpt>
      <trkpt lat="43.863626" lon="5.043087">
        <ele>69.956347</ele>
        <time>2021-07-04T18:35:30.359Z</time>
      </trkpt>
      <trkpt lat="43.863153" lon="5.042876">
        <ele>70.106531</ele>
        <time>2021-07-04T18:35:42.456Z</time>
      </trkpt>
      <trkpt lat="43.862451" lon="5.042559">
        <ele>70.392203</ele>
        <time>2021-07-04T18:36:00.527Z</time>
      </trkpt>
      <trkpt lat="43.862048" lon="5.042377">
        <ele>70.588549</ele>
        <time>2021-07-04T18:36:10.925Z</time>
      </trkpt>
      <trkpt lat="43.861684" lon="5.042214">
        <ele>70.765751</ele>
        <time>2021-07-04T18:36:20.054Z</time>
      </trkpt>
      <trkpt lat="43.861357" lon="5.042067">
        <ele>70.924999</ele>
        <time>2021-07-04T18:36:28.166Z</time>
      </trkpt>
      <trkpt lat="43.860336" lon="5.041606">
        <ele>71.341367</ele>
        <time>2021-07-04T18:36:53.171Z</time>
      </trkpt>
      <trkpt lat="43.860016" lon="5.041461">
        <ele>71.463777</ele>
        <time>2021-07-04T18:37:01.003Z</time>
      </trkpt>
      <trkpt lat="43.856527" lon="5.039897">
        <ele>73.239983</ele>
        <time>2021-07-04T18:38:31.130Z</time>
      </trkpt>
      <trkpt lat="43.856338" lon="5.039815">
        <ele>73.316580</ele>
        <time>2021-07-04T18:38:35.772Z</time>
      </trkpt>
      <trkpt lat="43.856023" lon="5.039674">
        <ele>73.444608</ele>
        <time>2021-07-04T18:38:43.281Z</time>
      </trkpt>
      <trkpt lat="43.855747" lon="5.039552">
        <ele>73.377820</ele>
        <time>2021-07-04T18:38:49.430Z</time>
      </trkpt>
      <trkpt lat="43.855669" lon="5.039513">
        <ele>73.348015</ele>
        <time>2021-07-04T18:38:51.206Z</time>
      </trkpt>
      <trkpt lat="43.855420" lon="5.039360">
        <ele>73.250115</ele>
        <time>2021-07-04T18:38:56.889Z</time>
      </trkpt>
      <trkpt lat="43.855251" lon="5.039241">
        <ele>73.181983</ele>
        <time>2021-07-04T18:39:00.918Z</time>
      </trkpt>
      <trkpt lat="43.855156" lon="5.039170">
        <ele>73.143191</ele>
        <time>2021-07-04T18:39:03.152Z</time>
      </trkpt>
      <trkpt lat="43.855113" lon="5.039139">
        <ele>73.125770</ele>
        <time>2021-07-04T18:39:04.095Z</time>
      </trkpt>
      <trkpt lat="43.854953" lon="5.039005">
        <ele>73.058581</ele>
        <time>2021-07-04T18:39:08.119Z</time>
      </trkpt>
      <trkpt lat="43.854766" lon="5.038834">
        <ele>72.978062</ele>
        <time>2021-07-04T18:39:12.765Z</time>
      </trkpt>
      <trkpt lat="43.854652" lon="5.038709">
        <ele>72.925821</ele>
        <time>2021-07-04T18:39:15.895Z</time>
      </trkpt>
      <trkpt lat="43.854570" lon="5.038631">
        <ele>72.890077</ele>
        <time>2021-07-04T18:39:17.872Z</time>
      </trkpt>
      <trkpt lat="43.854553" lon="5.038604">
        <ele>72.880786</ele>
        <time>2021-07-04T18:39:18.380Z</time>
      </trkpt>
      <trkpt lat="43.854423" lon="5.038423">
        <ele>72.814139</ele>
        <time>2021-07-04T18:39:22.260Z</time>
      </trkpt>
      <trkpt lat="43.853987" lon="5.037821">
        <ele>72.559724</ele>
        <time>2021-07-04T18:39:34.257Z</time>
      </trkpt>
      <trkpt lat="43.853962" lon="5.037789">
        <ele>72.545656</ele>
        <time>2021-07-04T18:39:34.958Z</time>
      </trkpt>
      <trkpt lat="43.853640" lon="5.037338">
        <ele>72.356409</ele>
        <time>2021-07-04T18:39:44.416Z</time>
      </trkpt>
      <trkpt lat="43.853549" lon="5.037177">
        <ele>72.295411</ele>
        <time>2021-07-04T18:39:47.443Z</time>
      </trkpt>
      <trkpt lat="43.853371" lon="5.036903">
        <ele>72.185443</ele>
        <time>2021-07-04T18:39:53.235Z</time>
      </trkpt>
      <trkpt lat="43.853348" lon="5.036862">
        <ele>72.169953</ele>
        <time>2021-07-04T18:39:53.986Z</time>
      </trkpt>
      <trkpt lat="43.853314" lon="5.036777">
        <ele>72.140969</ele>
        <time>2021-07-04T18:39:55.623Z</time>
      </trkpt>
      <trkpt lat="43.853289" lon="5.036709">
        <ele>72.118209</ele>
        <time>2021-07-04T18:39:56.846Z</time>
      </trkpt>
      <trkpt lat="43.853293" lon="5.036651">
        <ele>72.100835</ele>
        <time>2021-07-04T18:39:57.806Z</time>
      </trkpt>
      <trkpt lat="43.853288" lon="5.036593">
        <ele>72.083417</ele>
        <time>2021-07-04T18:39:58.844Z</time>
      </trkpt>
      <trkpt lat="43.853273" lon="5.036538">
        <ele>72.078010</ele>
        <time>2021-07-04T18:39:59.803Z</time>
      </trkpt>
      <trkpt lat="43.853235" lon="5.036465">
        <ele>72.093041</ele>
        <time>2021-07-04T18:40:01.273Z</time>
      </trkpt>
      <trkpt lat="43.853181" lon="5.036414">
        <ele>72.108167</ele>
        <time>2021-07-04T18:40:02.678Z</time>
      </trkpt>
      <trkpt lat="43.853118" lon="5.036392">
        <ele>72.123208</ele>
        <time>2021-07-04T18:40:04.164Z</time>
      </trkpt>
      <trkpt lat="43.853072" lon="5.036394">
        <ele>72.133863</ele>
        <time>2021-07-04T18:40:05.211Z</time>
      </trkpt>
      <trkpt lat="43.853028" lon="5.036412">
        <ele>72.144483</ele>
        <time>2021-07-04T18:40:06.258Z</time>
      </trkpt>
      <trkpt lat="43.852989" lon="5.036444">
        <ele>72.154975</ele>
        <time>2021-07-04T18:40:07.347Z</time>
      </trkpt>
      <trkpt lat="43.852923" lon="5.036447">
        <ele>72.170263</ele>
        <time>2021-07-04T18:40:08.821Z</time>
      </trkpt>
      <trkpt lat="43.852874" lon="5.036438">
        <ele>72.181706</ele>
        <time>2021-07-04T18:40:09.841Z</time>
      </trkpt>
      <trkpt lat="43.852802" lon="5.036410">
        <ele>72.199019</ele>
        <time>2021-07-04T18:40:11.544Z</time>
      </trkpt>
      <trkpt lat="43.852052" lon="5.036094">
        <ele>72.380495</ele>
        <time>2021-07-04T18:40:29.257Z</time>
      </trkpt>
      <trkpt lat="43.851660" lon="5.035997">
        <ele>72.472683</ele>
        <time>2021-07-04T18:40:39.105Z</time>
      </trkpt>
      <trkpt lat="43.851338" lon="5.035891">
        <ele>72.620129</ele>
        <time>2021-07-04T18:40:47.640Z</time>
      </trkpt>
      <trkpt lat="43.851132" lon="5.035822">
        <ele>72.727864</ele>
        <time>2021-07-04T18:40:52.788Z</time>
      </trkpt>
      <trkpt lat="43.851115" lon="5.035817">
        <ele>72.736699</ele>
        <time>2021-07-04T18:40:53.235Z</time>
      </trkpt>
      <trkpt lat="43.851087" lon="5.035810">
        <ele>72.751163</ele>
        <time>2021-07-04T18:40:53.923Z</time>
      </trkpt>
      <trkpt lat="43.850984" lon="5.035760">
        <ele>72.806640</ele>
        <time>2021-07-04T18:40:56.652Z</time>
      </trkpt>
      <trkpt lat="43.850838" lon="5.035684">
        <ele>72.885918</ele>
        <time>2021-07-04T18:41:00.320Z</time>
      </trkpt>
      <trkpt lat="43.850788" lon="5.035639">
        <ele>72.916221</ele>
        <time>2021-07-04T18:41:01.882Z</time>
      </trkpt>
      <trkpt lat="43.850752" lon="5.035588">
        <ele>72.942384</ele>
        <time>2021-07-04T18:41:03.131Z</time>
      </trkpt>
      <trkpt lat="43.850727" lon="5.035554">
        <ele>72.960185</ele>
        <time>2021-07-04T18:41:04.016Z</time>
      </trkpt>
      <trkpt lat="43.850726" lon="5.035515">
        <ele>72.974492</ele>
        <time>2021-07-04T18:41:04.727Z</time>
      </trkpt>
      <trkpt lat="43.850705" lon="5.035451">
        <ele>73.000269</ele>
        <time>2021-07-04T18:41:05.917Z</time>
      </trkpt>
      <trkpt lat="43.850685" lon="5.035422">
        <ele>73.014980</ele>
        <time>2021-07-04T18:41:06.592Z</time>
      </trkpt>
      <trkpt lat="43.850660" lon="5.035398">
        <ele>73.030438</ele>
        <time>2021-07-04T18:41:07.363Z</time>
      </trkpt>
      <trkpt lat="43.850570" lon="5.035384">
        <ele>73.076478</ele>
        <time>2021-07-04T18:41:09.447Z</time>
      </trkpt>
      <trkpt lat="43.850553" lon="5.035392">
        <ele>73.085604</ele>
        <time>2021-07-04T18:41:09.944Z</time>
      </trkpt>
      <trkpt lat="43.850528" lon="5.035412">
        <ele>73.100276</ele>
        <time>2021-07-04T18:41:10.661Z</time>
      </trkpt>
      <trkpt lat="43.850474" lon="5.035531">
        <ele>73.151821</ele>
        <time>2021-07-04T18:41:13.154Z</time>
      </trkpt>
      <trkpt lat="43.850473" lon="5.035573">
        <ele>73.167227</ele>
        <time>2021-07-04T18:41:13.882Z</time>
      </trkpt>
      <trkpt lat="43.850431" lon="5.035643">
        <ele>73.200610</ele>
        <time>2021-07-04T18:41:15.400Z</time>
      </trkpt>
      <trkpt lat="43.850381" lon="5.035735">
        <ele>73.242844</ele>
        <time>2021-07-04T18:41:17.318Z</time>
      </trkpt>
      <trkpt lat="43.850300" lon="5.035884">
        <ele>73.311250</ele>
        <time>2021-07-04T18:41:20.649Z</time>
      </trkpt>
      <trkpt lat="43.849800" lon="5.036772">
        <ele>73.457368</ele>
        <time>2021-07-04T18:41:39.759Z</time>
      </trkpt>
      <trkpt lat="43.849449" lon="5.037375">
        <ele>73.504381</ele>
        <time>2021-07-04T18:41:52.187Z</time>
      </trkpt>
      <trkpt lat="43.849384" lon="5.037469">
        <ele>73.512282</ele>
        <time>2021-07-04T18:41:54.255Z</time>
      </trkpt>
      <trkpt lat="43.849239" lon="5.037698">
        <ele>73.530770</ele>
        <time>2021-07-04T18:41:59.045Z</time>
      </trkpt>
      <trkpt lat="43.849157" lon="5.037827">
        <ele>73.541202</ele>
        <time>2021-07-04T18:42:01.795Z</time>
      </trkpt>
      <trkpt lat="43.849048" lon="5.037988">
        <ele>73.554600</ele>
        <time>2021-07-04T18:42:05.193Z</time>
      </trkpt>
      <trkpt lat="43.848936" lon="5.038121">
        <ele>73.532679</ele>
        <time>2021-07-04T18:42:08.546Z</time>
      </trkpt>
      <trkpt lat="43.848836" lon="5.038263">
        <ele>73.507987</ele>
        <time>2021-07-04T18:42:11.652Z</time>
      </trkpt>
      <trkpt lat="43.848779" lon="5.038327">
        <ele>73.495335</ele>
        <time>2021-07-04T18:42:13.214Z</time>
      </trkpt>
      <trkpt lat="43.848714" lon="5.038397">
        <ele>73.481137</ele>
        <time>2021-07-04T18:42:15.115Z</time>
      </trkpt>
      <trkpt lat="43.848625" lon="5.038466">
        <ele>73.463547</ele>
        <time>2021-07-04T18:42:17.370Z</time>
      </trkpt>
      <trkpt lat="43.848486" lon="5.038555">
        <ele>73.437135</ele>
        <time>2021-07-04T18:42:20.684Z</time>
      </trkpt>
      <trkpt lat="43.848287" lon="5.038686">
        <ele>73.399134</ele>
        <time>2021-07-04T18:42:25.189Z</time>
      </trkpt>
      <trkpt lat="43.848047" lon="5.038842">
        <ele>73.353408</ele>
        <time>2021-07-04T18:42:30.874Z</time>
      </trkpt>
      <trkpt lat="43.847471" lon="5.039213">
        <ele>73.247404</ele>
        <time>2021-07-04T18:42:44.317Z</time>
      </trkpt>
      <trkpt lat="43.847346" lon="5.039270">
        <ele>73.274439</ele>
        <time>2021-07-04T18:42:47.289Z</time>
      </trkpt>
      <trkpt lat="43.847252" lon="5.039295">
        <ele>73.294104</ele>
        <time>2021-07-04T18:42:49.449Z</time>
      </trkpt>
      <trkpt lat="43.847205" lon="5.039286">
        <ele>73.303852</ele>
        <time>2021-07-04T18:42:50.600Z</time>
      </trkpt>
      <trkpt lat="43.847157" lon="5.039295">
        <ele>73.313804</ele>
        <time>2021-07-04T18:42:51.738Z</time>
      </trkpt>
      <trkpt lat="43.847115" lon="5.039319">
        <ele>73.323137</ele>
        <time>2021-07-04T18:42:52.638Z</time>
      </trkpt>
      <trkpt lat="43.847051" lon="5.039406">
        <ele>73.341551</ele>
        <time>2021-07-04T18:42:54.722Z</time>
      </trkpt>
      <trkpt lat="43.847032" lon="5.039463">
        <ele>73.350855</ele>
        <time>2021-07-04T18:42:55.695Z</time>
      </trkpt>
      <trkpt lat="43.847025" lon="5.039506">
        <ele>73.357387</ele>
        <time>2021-07-04T18:42:56.434Z</time>
      </trkpt>
      <trkpt lat="43.847025" lon="5.039550">
        <ele>73.363907</ele>
        <time>2021-07-04T18:42:57.159Z</time>
      </trkpt>
      <trkpt lat="43.846989" lon="5.039621">
        <ele>73.376767</ele>
        <time>2021-07-04T18:42:58.656Z</time>
      </trkpt>
      <trkpt lat="43.846932" lon="5.039678">
        <ele>73.391205</ele>
        <time>2021-07-04T18:43:00.254Z</time>
      </trkpt>
      <trkpt lat="43.846874" lon="5.039710">
        <ele>73.404031</ele>
        <time>2021-07-04T18:43:01.632Z</time>
      </trkpt>
      <trkpt lat="43.846792" lon="5.039736">
        <ele>73.421313</ele>
        <time>2021-07-04T18:43:03.583Z</time>
      </trkpt>
      <trkpt lat="43.846718" lon="5.039770">
        <ele>73.437329</ele>
        <time>2021-07-04T18:43:05.411Z</time>
      </trkpt>
      <trkpt lat="43.846161" lon="5.040043">
        <ele>73.558707</ele>
        <time>2021-07-04T18:43:19.338Z</time>
      </trkpt>
      <trkpt lat="43.846036" lon="5.040066">
        <ele>73.584614</ele>
        <time>2021-07-04T18:43:22.302Z</time>
      </trkpt>
      <trkpt lat="43.846033" lon="5.040117">
        <ele>73.592196</ele>
        <time>2021-07-04T18:43:23.173Z</time>
      </trkpt>
      <trkpt lat="43.846027" lon="5.040208">
        <ele>73.605736</ele>
        <time>2021-07-04T18:43:24.794Z</time>
      </trkpt>
      <trkpt lat="43.846019" lon="5.040399">
        <ele>73.648325</ele>
        <time>2021-07-04T18:43:28.105Z</time>
      </trkpt>
      <trkpt lat="43.846003" lon="5.040730">
        <ele>73.734178</ele>
        <time>2021-07-04T18:43:33.657Z</time>
      </trkpt>
      <trkpt lat="43.845994" lon="5.041042">
        <ele>73.814986</ele>
        <time>2021-07-04T18:43:39.400Z</time>
      </trkpt>
      <trkpt lat="43.845990" lon="5.041173">
        <ele>73.848919</ele>
        <time>2021-07-04T18:43:41.669Z</time>
      </trkpt>
      <trkpt lat="43.845988" lon="5.041269">
        <ele>73.873773</ele>
        <time>2021-07-04T18:43:43.335Z</time>
      </trkpt>
      <trkpt lat="43.845984" lon="5.041382">
        <ele>73.903052</ele>
        <time>2021-07-04T18:43:45.453Z</time>
      </trkpt>
      <trkpt lat="43.845947" lon="5.042116">
        <ele>74.093470</ele>
        <time>2021-07-04T18:43:58.495Z</time>
      </trkpt>
      <trkpt lat="43.845896" lon="5.042189">
        <ele>74.119773</ele>
        <time>2021-07-04T18:44:00.263Z</time>
      </trkpt>
      <trkpt lat="43.845785" lon="5.042189">
        <ele>74.159603</ele>
        <time>2021-07-04T18:44:03.135Z</time>
      </trkpt>
      <trkpt lat="43.845735" lon="5.042189">
        <ele>74.177545</ele>
        <time>2021-07-04T18:44:04.213Z</time>
      </trkpt>
      <trkpt lat="43.845619" lon="5.042180">
        <ele>74.219235</ele>
        <time>2021-07-04T18:44:07.005Z</time>
      </trkpt>
      <trkpt lat="43.845555" lon="5.042257">
        <ele>74.249641</ele>
        <time>2021-07-04T18:44:09.065Z</time>
      </trkpt>
      <trkpt lat="43.845528" lon="5.042885">
        <ele>74.216305</ele>
        <time>2021-07-04T18:44:19.956Z</time>
      </trkpt>
      <trkpt lat="43.845503" lon="5.043190">
        <ele>74.193249</ele>
        <time>2021-07-04T18:44:24.838Z</time>
      </trkpt>
      <trkpt lat="43.845495" lon="5.043241">
        <ele>74.189329</ele>
        <time>2021-07-04T18:44:25.703Z</time>
      </trkpt>
      <trkpt lat="43.845476" lon="5.043329">
        <ele>74.182429</ele>
        <time>2021-07-04T18:44:27.245Z</time>
      </trkpt>
      <trkpt lat="43.845267" lon="5.043476">
        <ele>74.158022</ele>
        <time>2021-07-04T18:44:32.414Z</time>
      </trkpt>
      <trkpt lat="43.845232" lon="5.043529">
        <ele>74.152625</ele>
        <time>2021-07-04T18:44:33.573Z</time>
      </trkpt>
      <trkpt lat="43.844467" lon="5.043829">
        <ele>74.078314</ele>
        <time>2021-07-04T18:44:51.046Z</time>
      </trkpt>
      <trkpt lat="43.844337" lon="5.043940">
        <ele>74.103564</ele>
        <time>2021-07-04T18:44:54.676Z</time>
      </trkpt>
      <trkpt lat="43.844118" lon="5.044277">
        <ele>74.157671</ele>
        <time>2021-07-04T18:45:02.452Z</time>
      </trkpt>
      <trkpt lat="43.843830" lon="5.044433">
        <ele>74.208807</ele>
        <time>2021-07-04T18:45:09.810Z</time>
      </trkpt>
      <trkpt lat="43.843740" lon="5.044515">
        <ele>74.226617</ele>
        <time>2021-07-04T18:45:12.416Z</time>
      </trkpt>
      <trkpt lat="43.843719" lon="5.044536">
        <ele>74.230899</ele>
        <time>2021-07-04T18:45:13.063Z</time>
      </trkpt>
      <trkpt lat="43.843650" lon="5.044601">
        <ele>74.244696</ele>
        <time>2021-07-04T18:45:15.085Z</time>
      </trkpt>
      <trkpt lat="43.843286" lon="5.044917">
        <ele>74.315721</ele>
        <time>2021-07-04T18:45:25.486Z</time>
      </trkpt>
      <trkpt lat="43.843202" lon="5.044977">
        <ele>74.331349</ele>
        <time>2021-07-04T18:45:27.827Z</time>
      </trkpt>
      <trkpt lat="43.843160" lon="5.044997">
        <ele>74.338693</ele>
        <time>2021-07-04T18:45:28.956Z</time>
      </trkpt>
      <trkpt lat="43.842612" lon="5.045484">
        <ele>74.535132</ele>
        <time>2021-07-04T18:45:44.363Z</time>
      </trkpt>
      <trkpt lat="43.842477" lon="5.045596">
        <ele>74.591640</ele>
        <time>2021-07-04T18:45:48.177Z</time>
      </trkpt>
      <trkpt lat="43.842402" lon="5.045622">
        <ele>74.619409</ele>
        <time>2021-07-04T18:45:50.076Z</time>
      </trkpt>
      <trkpt lat="43.842325" lon="5.045663">
        <ele>74.649035</ele>
        <time>2021-07-04T18:45:52.099Z</time>
      </trkpt>
      <trkpt lat="43.842258" lon="5.045702">
        <ele>74.675136</ele>
        <time>2021-07-04T18:45:53.953Z</time>
      </trkpt>
      <trkpt lat="43.842118" lon="5.045790">
        <ele>74.730348</ele>
        <time>2021-07-04T18:45:57.873Z</time>
      </trkpt>
      <trkpt lat="43.842079" lon="5.045814">
        <ele>74.745675</ele>
        <time>2021-07-04T18:45:58.896Z</time>
      </trkpt>
      <trkpt lat="43.841569" lon="5.046211">
        <ele>74.955757</ele>
        <time>2021-07-04T18:46:12.679Z</time>
      </trkpt>
      <trkpt lat="43.841479" lon="5.046279">
        <ele>74.992573</ele>
        <time>2021-07-04T18:46:15.053Z</time>
      </trkpt>
      <trkpt lat="43.841425" lon="5.046322">
        <ele>75.014940</ele>
        <time>2021-07-04T18:46:16.454Z</time>
      </trkpt>
      <trkpt lat="43.841212" lon="5.046521">
        <ele>74.936652</ele>
        <time>2021-07-04T18:46:22.171Z</time>
      </trkpt>
      <trkpt lat="43.840928" lon="5.046822">
        <ele>74.823287</ele>
        <time>2021-07-04T18:46:29.759Z</time>
      </trkpt>
      <trkpt lat="43.840661" lon="5.047121">
        <ele>74.714443</ele>
        <time>2021-07-04T18:46:36.879Z</time>
      </trkpt>
      <trkpt lat="43.840658" lon="5.047125">
        <ele>74.713123</ele>
        <time>2021-07-04T18:46:36.966Z</time>
      </trkpt>
      <trkpt lat="43.840538" lon="5.047253">
        <ele>74.665108</ele>
        <time>2021-07-04T18:46:40.124Z</time>
      </trkpt>
      <trkpt lat="43.840488" lon="5.047307">
        <ele>74.645009</ele>
        <time>2021-07-04T18:46:41.409Z</time>
      </trkpt>
      <trkpt lat="43.840411" lon="5.047389">
        <ele>74.614218</ele>
        <time>2021-07-04T18:46:43.422Z</time>
      </trkpt>
      <trkpt lat="43.840363" lon="5.047441">
        <ele>74.594900</ele>
        <time>2021-07-04T18:46:44.697Z</time>
      </trkpt>
      <trkpt lat="43.840228" lon="5.047598">
        <ele>74.539020</ele>
        <time>2021-07-04T18:46:48.259Z</time>
      </trkpt>
      <trkpt lat="43.840124" lon="5.047694">
        <ele>74.499398</ele>
        <time>2021-07-04T18:46:50.810Z</time>
      </trkpt>
      <trkpt lat="43.840032" lon="5.047764">
        <ele>74.466117</ele>
        <time>2021-07-04T18:46:52.902Z</time>
      </trkpt>
      <trkpt lat="43.839766" lon="5.047954">
        <ele>74.354598</ele>
        <time>2021-07-04T18:46:58.963Z</time>
      </trkpt>
      <trkpt lat="43.839277" lon="5.048305">
        <ele>74.141259</ele>
        <time>2021-07-04T18:47:10.194Z</time>
      </trkpt>
      <trkpt lat="43.838996" lon="5.048497">
        <ele>74.019887</ele>
        <time>2021-07-04T18:47:16.738Z</time>
      </trkpt>
      <trkpt lat="43.838976" lon="5.048509">
        <ele>74.011444</ele>
        <time>2021-07-04T18:47:17.163Z</time>
      </trkpt>
      <trkpt lat="43.838822" lon="5.048580">
        <ele>73.948567</ele>
        <time>2021-07-04T18:47:20.593Z</time>
      </trkpt>
      <trkpt lat="43.838790" lon="5.048594">
        <ele>73.935567</ele>
        <time>2021-07-04T18:47:21.278Z</time>
      </trkpt>
      <trkpt lat="43.838767" lon="5.048606">
        <ele>73.926046</ele>
        <time>2021-07-04T18:47:21.783Z</time>
      </trkpt>
      <trkpt lat="43.838636" lon="5.048672">
        <ele>73.872045</ele>
        <time>2021-07-04T18:47:24.768Z</time>
      </trkpt>
      <trkpt lat="43.838335" lon="5.048907">
        <ele>73.754606</ele>
        <time>2021-07-04T18:47:32.294Z</time>
      </trkpt>
      <trkpt lat="43.838166" lon="5.049055">
        <ele>73.790928</ele>
        <time>2021-07-04T18:47:36.637Z</time>
      </trkpt>
      <trkpt lat="43.837935" lon="5.049254">
        <ele>73.840346</ele>
        <time>2021-07-04T18:47:42.733Z</time>
      </trkpt>
      <trkpt lat="43.837638" lon="5.049509">
        <ele>73.903824</ele>
        <time>2021-07-04T18:47:50.732Z</time>
      </trkpt>
      <trkpt lat="43.837314" lon="5.049760">
        <ele>73.971265</ele>
        <time>2021-07-04T18:47:59.545Z</time>
      </trkpt>
      <trkpt lat="43.837178" lon="5.049845">
        <ele>73.998373</ele>
        <time>2021-07-04T18:48:03.110Z</time>
      </trkpt>
      <trkpt lat="43.836895" lon="5.049969">
        <ele>74.052303</ele>
        <time>2021-07-04T18:48:10.131Z</time>
      </trkpt>
      <trkpt lat="43.836707" lon="5.050043">
        <ele>74.098312</ele>
        <time>2021-07-04T18:48:14.658Z</time>
      </trkpt>
      <trkpt lat="43.836691" lon="5.050049">
        <ele>74.104046</ele>
        <time>2021-07-04T18:48:15.040Z</time>
      </trkpt>
      <trkpt lat="43.836593" lon="5.050090">
        <ele>74.139456</ele>
        <time>2021-07-04T18:48:17.460Z</time>
      </trkpt>
      <trkpt lat="43.836569" lon="5.050102">
        <ele>74.148281</ele>
        <time>2021-07-04T18:48:18.073Z</time>
      </trkpt>
      <trkpt lat="43.836538" lon="5.050116">
        <ele>74.159559</ele>
        <time>2021-07-04T18:48:18.836Z</time>
      </trkpt>
      <trkpt lat="43.836446" lon="5.050154">
        <ele>74.192766</ele>
        <time>2021-07-04T18:48:21.063Z</time>
      </trkpt>
      <trkpt lat="43.836395" lon="5.050175">
        <ele>74.211169</ele>
        <time>2021-07-04T18:48:22.250Z</time>
      </trkpt>
      <trkpt lat="43.836116" lon="5.050287">
        <ele>74.311645</ele>
        <time>2021-07-04T18:48:29.032Z</time>
      </trkpt>
      <trkpt lat="43.835671" lon="5.050476">
        <ele>74.472640</ele>
        <time>2021-07-04T18:48:39.971Z</time>
      </trkpt>
      <trkpt lat="43.835452" lon="5.050567">
        <ele>74.551726</ele>
        <time>2021-07-04T18:48:45.436Z</time>
      </trkpt>
      <trkpt lat="43.835045" lon="5.050744">
        <ele>74.699564</ele>
        <time>2021-07-04T18:48:55.632Z</time>
      </trkpt>
      <trkpt lat="43.834805" lon="5.050874">
        <ele>74.816928</ele>
        <time>2021-07-04T18:49:01.872Z</time>
      </trkpt>
      <trkpt lat="43.834622" lon="5.050960">
        <ele>74.904941</ele>
        <time>2021-07-04T18:49:06.563Z</time>
      </trkpt>
      <trkpt lat="43.832971" lon="5.051588">
        <ele>75.578189</ele>
        <time>2021-07-04T18:49:47.668Z</time>
      </trkpt>
      <trkpt lat="43.832812" lon="5.051622">
        <ele>75.604743</ele>
        <time>2021-07-04T18:49:51.638Z</time>
      </trkpt>
      <trkpt lat="43.832660" lon="5.051611">
        <ele>75.629866</ele>
        <time>2021-07-04T18:49:55.035Z</time>
      </trkpt>
      <trkpt lat="43.832572" lon="5.051627">
        <ele>75.644515</ele>
        <time>2021-07-04T18:49:57.041Z</time>
      </trkpt>
      <trkpt lat="43.832487" lon="5.051648">
        <ele>75.658766</ele>
        <time>2021-07-04T18:49:59.138Z</time>
      </trkpt>
      <trkpt lat="43.832419" lon="5.051675">
        <ele>75.670442</ele>
        <time>2021-07-04T18:50:00.801Z</time>
      </trkpt>
      <trkpt lat="43.832364" lon="5.051706">
        <ele>75.680242</ele>
        <time>2021-07-04T18:50:02.114Z</time>
      </trkpt>
      <trkpt lat="43.832322" lon="5.051696">
        <ele>75.687275</ele>
        <time>2021-07-04T18:50:03.056Z</time>
      </trkpt>
      <trkpt lat="43.832279" lon="5.051697">
        <ele>75.694374</ele>
        <time>2021-07-04T18:50:03.970Z</time>
      </trkpt>
      <trkpt lat="43.832230" lon="5.051711">
        <ele>75.702632</ele>
        <time>2021-07-04T18:50:05.091Z</time>
      </trkpt>
      <trkpt lat="43.832145" lon="5.051779">
        <ele>75.718830</ele>
        <time>2021-07-04T18:50:07.473Z</time>
      </trkpt>
      <trkpt lat="43.832112" lon="5.051830">
        <ele>75.726988</ele>
        <time>2021-07-04T18:50:08.621Z</time>
      </trkpt>
      <trkpt lat="43.832080" lon="5.051911">
        <ele>75.737984</ele>
        <time>2021-07-04T18:50:10.075Z</time>
      </trkpt>
      <trkpt lat="43.832072" lon="5.052092">
        <ele>75.759576</ele>
        <time>2021-07-04T18:50:12.931Z</time>
      </trkpt>
      <trkpt lat="43.832095" lon="5.052178">
        <ele>75.770496</ele>
        <time>2021-07-04T18:50:14.518Z</time>
      </trkpt>
      <trkpt lat="43.832120" lon="5.052230">
        <ele>75.777937</ele>
        <time>2021-07-04T18:50:15.557Z</time>
      </trkpt>
      <trkpt lat="43.832151" lon="5.052274">
        <ele>75.785260</ele>
        <time>2021-07-04T18:50:16.577Z</time>
      </trkpt>
      <trkpt lat="43.832188" lon="5.052309">
        <ele>75.792654</ele>
        <time>2021-07-04T18:50:17.519Z</time>
      </trkpt>
      <trkpt lat="43.832224" lon="5.052332">
        <ele>75.799196</ele>
        <time>2021-07-04T18:50:18.373Z</time>
      </trkpt>
      <trkpt lat="43.832263" lon="5.052346">
        <ele>75.805846</ele>
        <time>2021-07-04T18:50:19.227Z</time>
      </trkpt>
      <trkpt lat="43.832306" lon="5.052427">
        <ele>75.811376</ele>
        <time>2021-07-04T18:50:20.748Z</time>
      </trkpt>
      <trkpt lat="43.832323" lon="5.052472">
        <ele>75.805641</ele>
        <time>2021-07-04T18:50:21.580Z</time>
      </trkpt>
      <trkpt lat="43.832337" lon="5.052544">
        <ele>75.797223</ele>
        <time>2021-07-04T18:50:22.806Z</time>
      </trkpt>
      <trkpt lat="43.832342" lon="5.052668">
        <ele>75.783202</ele>
        <time>2021-07-04T18:50:24.774Z</time>
      </trkpt>
      <trkpt lat="43.832291" lon="5.053170">
        <ele>75.725969</ele>
        <time>2021-07-04T18:50:32.278Z</time>
      </trkpt>
      <trkpt lat="43.832075" lon="5.053620">
        <ele>75.664948</ele>
        <time>2021-07-04T18:50:40.482Z</time>
      </trkpt>
      <trkpt lat="43.831905" lon="5.053799">
        <ele>75.631538</ele>
        <time>2021-07-04T18:50:45.205Z</time>
      </trkpt>
      <trkpt lat="43.831689" lon="5.053987">
        <ele>75.591623</ele>
        <time>2021-07-04T18:50:50.736Z</time>
      </trkpt>
      <trkpt lat="43.831548" lon="5.054109">
        <ele>75.565611</ele>
        <time>2021-07-04T18:50:54.342Z</time>
      </trkpt>
      <trkpt lat="43.831365" lon="5.054265">
        <ele>75.534401</ele>
        <time>2021-07-04T18:50:59.238Z</time>
      </trkpt>
      <trkpt lat="43.831314" lon="5.054308">
        <ele>75.546838</ele>
        <time>2021-07-04T18:51:00.605Z</time>
      </trkpt>
      <trkpt lat="43.831201" lon="5.054405">
        <ele>75.574530</ele>
        <time>2021-07-04T18:51:03.554Z</time>
      </trkpt>
      <trkpt lat="43.830827" lon="5.054720">
        <ele>75.665709</ele>
        <time>2021-07-04T18:51:13.735Z</time>
      </trkpt>
      <trkpt lat="43.830547" lon="5.054960">
        <ele>75.734298</ele>
        <time>2021-07-04T18:51:21.459Z</time>
      </trkpt>
      <trkpt lat="43.830317" lon="5.055163">
        <ele>75.791108</ele>
        <time>2021-07-04T18:51:27.826Z</time>
      </trkpt>
      <trkpt lat="43.830154" lon="5.055352">
        <ele>75.835384</ele>
        <time>2021-07-04T18:51:32.953Z</time>
      </trkpt>
      <trkpt lat="43.830019" lon="5.055480">
        <ele>75.869461</ele>
        <time>2021-07-04T18:51:36.623Z</time>
      </trkpt>
      <trkpt lat="43.829575" lon="5.055988">
        <ele>75.929419</ele>
        <time>2021-07-04T18:51:49.794Z</time>
      </trkpt>
      <trkpt lat="43.829255" lon="5.056353">
        <ele>75.952312</ele>
        <time>2021-07-04T18:51:59.031Z</time>
      </trkpt>
      <trkpt lat="43.829040" lon="5.056616">
        <ele>75.968153</ele>
        <time>2021-07-04T18:52:05.627Z</time>
      </trkpt>
      <trkpt lat="43.828638" lon="5.057028">
        <ele>75.995773</ele>
        <time>2021-07-04T18:52:16.651Z</time>
      </trkpt>
      <trkpt lat="43.828596" lon="5.057079">
        <ele>75.998857</ele>
        <time>2021-07-04T18:52:17.875Z</time>
      </trkpt>
      <trkpt lat="43.828545" lon="5.057120">
        <ele>76.002114</ele>
        <time>2021-07-04T18:52:19.239Z</time>
      </trkpt>
      <trkpt lat="43.828500" lon="5.057132">
        <ele>76.004646</ele>
        <time>2021-07-04T18:52:20.375Z</time>
      </trkpt>
      <trkpt lat="43.828459" lon="5.057161">
        <ele>76.007291</ele>
        <time>2021-07-04T18:52:21.402Z</time>
      </trkpt>
      <trkpt lat="43.828430" lon="5.057199">
        <ele>76.013877</ele>
        <time>2021-07-04T18:52:22.262Z</time>
      </trkpt>
      <trkpt lat="43.828409" lon="5.057245">
        <ele>76.020358</ele>
        <time>2021-07-04T18:52:23.102Z</time>
      </trkpt>
      <trkpt lat="43.828395" lon="5.057323">
        <ele>76.029928</ele>
        <time>2021-07-04T18:52:24.322Z</time>
      </trkpt>
      <trkpt lat="43.828402" lon="5.057403">
        <ele>76.039523</ele>
        <time>2021-07-04T18:52:25.576Z</time>
      </trkpt>
      <trkpt lat="43.828429" lon="5.057475">
        <ele>76.049185</ele>
        <time>2021-07-04T18:52:26.875Z</time>
      </trkpt>
      <trkpt lat="43.828450" lon="5.057504">
        <ele>76.054077</ele>
        <time>2021-07-04T18:52:27.594Z</time>
      </trkpt>
      <trkpt lat="43.828480" lon="5.057592">
        <ele>76.065665</ele>
        <time>2021-07-04T18:52:29.198Z</time>
      </trkpt>
      <trkpt lat="43.828490" lon="5.057671">
        <ele>76.075215</ele>
        <time>2021-07-04T18:52:30.444Z</time>
      </trkpt>
      <trkpt lat="43.828489" lon="5.057760">
        <ele>76.085813</ele>
        <time>2021-07-04T18:52:31.800Z</time>
      </trkpt>
      <trkpt lat="43.828464" lon="5.057926">
        <ele>76.106004</ele>
        <time>2021-07-04T18:52:34.439Z</time>
      </trkpt>
      <trkpt lat="43.828425" lon="5.058010">
        <ele>76.117897</ele>
        <time>2021-07-04T18:52:36.201Z</time>
      </trkpt>
      <trkpt lat="43.828229" lon="5.058477">
        <ele>76.182225</ele>
        <time>2021-07-04T18:52:44.837Z</time>
      </trkpt>
      <trkpt lat="43.828095" lon="5.058852">
        <ele>76.232051</ele>
        <time>2021-07-04T18:52:51.838Z</time>
      </trkpt>
      <trkpt lat="43.827174" lon="5.061336">
        <ele>77.027502</ele>
        <time>2021-07-04T18:53:40.327Z</time>
      </trkpt>
      <trkpt lat="43.827053" lon="5.061481">
        <ele>77.100793</ele>
        <time>2021-07-04T18:53:44.139Z</time>
      </trkpt>
      <trkpt lat="43.827008" lon="5.061505">
        <ele>77.122887</ele>
        <time>2021-07-04T18:53:45.311Z</time>
      </trkpt>
      <trkpt lat="43.826944" lon="5.061529">
        <ele>77.169995</ele>
        <time>2021-07-04T18:53:47.068Z</time>
      </trkpt>
      <trkpt lat="43.826894" lon="5.061531">
        <ele>77.208186</ele>
        <time>2021-07-04T18:53:48.282Z</time>
      </trkpt>
      <trkpt lat="43.826847" lon="5.061553">
        <ele>77.246062</ele>
        <time>2021-07-04T18:53:49.477Z</time>
      </trkpt>
      <trkpt lat="43.826781" lon="5.061631">
        <ele>77.312282</ele>
        <time>2021-07-04T18:53:51.566Z</time>
      </trkpt>
      <trkpt lat="43.826750" lon="5.061742">
        <ele>77.377845</ele>
        <time>2021-07-04T18:53:53.658Z</time>
      </trkpt>
      <trkpt lat="43.826753" lon="5.061822">
        <ele>77.421970</ele>
        <time>2021-07-04T18:53:55.186Z</time>
      </trkpt>
      <trkpt lat="43.826716" lon="5.061913">
        <ele>77.479507</ele>
        <time>2021-07-04T18:53:57.171Z</time>
      </trkpt>
      <trkpt lat="43.826651" lon="5.062011">
        <ele>77.552833</ele>
        <time>2021-07-04T18:53:59.619Z</time>
      </trkpt>
      <trkpt lat="43.826532" lon="5.062119">
        <ele>77.661433</ele>
        <time>2021-07-04T18:54:03.239Z</time>
      </trkpt>
      <trkpt lat="43.826461" lon="5.062183">
        <ele>77.726096</ele>
        <time>2021-07-04T18:54:05.625Z</time>
      </trkpt>
      <trkpt lat="43.823992" lon="5.064061">
        <ele>80.086228</ele>
        <time>2021-07-04T18:55:20.954Z</time>
      </trkpt>
      <trkpt lat="43.823608" lon="5.064361">
        <ele>80.393086</ele>
        <time>2021-07-04T18:55:32.452Z</time>
      </trkpt>
      <trkpt lat="43.821913" lon="5.065828">
        <ele>81.999479</ele>
        <time>2021-07-04T18:56:23.890Z</time>
      </trkpt>
      <trkpt lat="43.821903" lon="5.065839">
        <ele>82.012643</ele>
        <time>2021-07-04T18:56:24.237Z</time>
      </trkpt>
      <trkpt lat="43.820546" lon="5.067184">
        <ele>84.013482</ele>
        <time>2021-07-04T18:57:11.103Z</time>
      </trkpt>
      <trkpt lat="43.820006" lon="5.067782">
        <ele>85.095621</ele>
        <time>2021-07-04T18:57:31.878Z</time>
      </trkpt>
      <trkpt lat="43.819878" lon="5.067937">
        <ele>85.361730</ele>
        <time>2021-07-04T18:57:37.060Z</time>
      </trkpt>
      <trkpt lat="43.819649" lon="5.068257">
        <ele>85.870846</ele>
        <time>2021-07-04T18:57:46.803Z</time>
      </trkpt>
      <trkpt lat="43.819660" lon="5.068297">
        <ele>85.919200</ele>
        <time>2021-07-04T18:57:47.760Z</time>
      </trkpt>
      <trkpt lat="43.819659" lon="5.068340">
        <ele>85.967799</ele>
        <time>2021-07-04T18:57:48.657Z</time>
      </trkpt>
      <trkpt lat="43.819595" lon="5.068541">
        <ele>86.188795</ele>
        <time>2021-07-04T18:57:53.345Z</time>
      </trkpt>
      <trkpt lat="43.819544" lon="5.068701">
        <ele>86.360638</ele>
        <time>2021-07-04T18:57:57.221Z</time>
      </trkpt>
      <trkpt lat="43.819197" lon="5.069457">
        <ele>87.240896</ele>
        <time>2021-07-04T18:58:16.315Z</time>
      </trkpt>
      <trkpt lat="43.818135" lon="5.071258">
        <ele>89.168697</ele>
        <time>2021-07-04T18:59:02.565Z</time>
      </trkpt>
      <trkpt lat="43.817090" lon="5.073290">
        <ele>90.648262</ele>
        <time>2021-07-04T18:59:49.836Z</time>
      </trkpt>
      <trkpt lat="43.816062" lon="5.075107">
        <ele>91.821822</ele>
        <time>2021-07-04T19:00:33.006Z</time>
      </trkpt>
      <trkpt lat="43.815630" lon="5.075860">
        <ele>92.302214</ele>
        <time>2021-07-04T19:00:51.054Z</time>
      </trkpt>
      <trkpt lat="43.814111" lon="5.078738">
        <ele>94.076220</ele>
        <time>2021-07-04T19:01:58.161Z</time>
      </trkpt>
      <trkpt lat="43.812978" lon="5.081118">
        <ele>95.281920</ele>
        <time>2021-07-04T19:02:51.026Z</time>
      </trkpt>
      <trkpt lat="43.812648" lon="5.081811">
        <ele>95.542965</ele>
        <time>2021-07-04T19:03:05.908Z</time>
      </trkpt>
      <trkpt lat="43.812383" lon="5.082293">
        <ele>95.733480</ele>
        <time>2021-07-04T19:03:16.581Z</time>
      </trkpt>
      <trkpt lat="43.812064" lon="5.082936">
        <ele>95.914233</ele>
        <time>2021-07-04T19:03:29.866Z</time>
      </trkpt>
      <trkpt lat="43.812015" lon="5.083004">
        <ele>95.932792</ele>
        <time>2021-07-04T19:03:31.584Z</time>
      </trkpt>
      <trkpt lat="43.811944" lon="5.083060">
        <ele>95.954657</ele>
        <time>2021-07-04T19:03:33.547Z</time>
      </trkpt>
      <trkpt lat="43.811889" lon="5.083105">
        <ele>95.971751</ele>
        <time>2021-07-04T19:03:35.185Z</time>
      </trkpt>
      <trkpt lat="43.811870" lon="5.083082">
        <ele>95.978503</ele>
        <time>2021-07-04T19:03:35.642Z</time>
      </trkpt>
      <trkpt lat="43.806430" lon="5.083250">
        <ele>97.899828</ele>
        <time>2021-07-04T19:05:48.038Z</time>
      </trkpt>
      <trkpt lat="43.805314" lon="5.082841">
        <ele>98.954752</ele>
        <time>2021-07-04T19:06:19.054Z</time>
      </trkpt>
      <trkpt lat="43.804110" lon="5.083710">
        <ele>102.431418</ele>
        <time>2021-07-04T19:07:03.759Z</time>
      </trkpt>
      <trkpt lat="43.803998" lon="5.083788">
        <ele>102.752440</ele>
        <time>2021-07-04T19:07:08.433Z</time>
      </trkpt>
      <trkpt lat="43.803875" lon="5.083832">
        <ele>103.077770</ele>
        <time>2021-07-04T19:07:13.103Z</time>
      </trkpt>
      <trkpt lat="43.803758" lon="5.084019">
        <ele>103.566576</ele>
        <time>2021-07-04T19:07:19.631Z</time>
      </trkpt>
      <trkpt lat="43.803724" lon="5.084096">
        <ele>103.865691</ele>
        <time>2021-07-04T19:07:22.230Z</time>
      </trkpt>
      <trkpt lat="43.803717" lon="5.084114">
        <ele>103.933444</ele>
        <time>2021-07-04T19:07:22.787Z</time>
      </trkpt>
      <trkpt lat="43.803656" lon="5.084252">
        <ele>104.469676</ele>
        <time>2021-07-04T19:07:27.125Z</time>
      </trkpt>
      <trkpt lat="43.803638" lon="5.084284">
        <ele>104.604114</ele>
        <time>2021-07-04T19:07:28.192Z</time>
      </trkpt>
      <trkpt lat="43.802982" lon="5.084799">
        <ele>108.065877</ele>
        <time>2021-07-04T19:07:58.133Z</time>
      </trkpt>
      <trkpt lat="43.802277" lon="5.085375">
        <ele>111.835048</ele>
        <time>2021-07-04T19:08:35.242Z</time>
      </trkpt>
      <trkpt lat="43.802002" lon="5.085677">
        <ele>113.710396</ele>
        <time>2021-07-04T19:08:50.777Z</time>
      </trkpt>
      <trkpt lat="43.801964" lon="5.085771">
        <ele>114.125975</ele>
        <time>2021-07-04T19:08:54.670Z</time>
      </trkpt>
      <trkpt lat="43.801945" lon="5.085876">
        <ele>114.543517</ele>
        <time>2021-07-04T19:08:58.710Z</time>
      </trkpt>
      <trkpt lat="43.801884" lon="5.086571">
        <ele>117.244028</ele>
        <time>2021-07-04T19:09:21.114Z</time>
      </trkpt>
      <trkpt lat="43.801819" lon="5.087776">
        <ele>121.732073</ele>
        <time>2021-07-04T19:09:59.634Z</time>
      </trkpt>
      <trkpt lat="43.801785" lon="5.087884">
        <ele>122.040693</ele>
        <time>2021-07-04T19:10:04.162Z</time>
      </trkpt>
      <trkpt lat="43.801693" lon="5.088071">
        <ele>122.633468</ele>
        <time>2021-07-04T19:10:10.410Z</time>
      </trkpt>
      <trkpt lat="43.801559" lon="5.088375">
        <ele>123.566482</ele>
        <time>2021-07-04T19:10:20.833Z</time>
      </trkpt>
      <trkpt lat="43.801199" lon="5.088917">
        <ele>125.495808</ele>
        <time>2021-07-04T19:10:39.432Z</time>
      </trkpt>
      <trkpt lat="43.800486" lon="5.089523">
        <ele>128.218284</ele>
        <time>2021-07-04T19:11:07.599Z</time>
      </trkpt>
      <trkpt lat="43.800129" lon="5.089961">
        <ele>129.098956</ele>
        <time>2021-07-04T19:11:22.380Z</time>
      </trkpt>
      <trkpt lat="43.798871" lon="5.091937">
        <ele>131.518190</ele>
        <time>2021-07-04T19:12:15.539Z</time>
      </trkpt>
      <trkpt lat="43.798401" lon="5.092203">
        <ele>131.721477</ele>
        <time>2021-07-04T19:12:26.092Z</time>
      </trkpt>
      <trkpt lat="43.797903" lon="5.092295">
        <ele>131.922645</ele>
        <time>2021-07-04T19:12:36.737Z</time>
      </trkpt>
      <trkpt lat="43.797600" lon="5.092276">
        <ele>131.903699</ele>
        <time>2021-07-04T19:12:43.173Z</time>
      </trkpt>
      <trkpt lat="43.797530" lon="5.092263">
        <ele>131.895313</ele>
        <time>2021-07-04T19:12:45.470Z</time>
      </trkpt>
      <trkpt lat="43.797315" lon="5.092223">
        <ele>131.869554</ele>
        <time>2021-07-04T19:12:49.669Z</time>
      </trkpt>
      <trkpt lat="43.797141" lon="5.092149">
        <ele>131.847940</ele>
        <time>2021-07-04T19:12:54.279Z</time>
      </trkpt>
      <trkpt lat="43.796943" lon="5.092045">
        <ele>131.822796</ele>
        <time>2021-07-04T19:12:58.371Z</time>
      </trkpt>
      <trkpt lat="43.796824" lon="5.091983">
        <ele>131.807699</ele>
        <time>2021-07-04T19:13:01.912Z</time>
      </trkpt>
      <trkpt lat="43.796738" lon="5.091957">
        <ele>131.797247</ele>
        <time>2021-07-04T19:13:03.532Z</time>
      </trkpt>
      <trkpt lat="43.796654" lon="5.091952">
        <ele>131.787263</ele>
        <time>2021-07-04T19:13:05.271Z</time>
      </trkpt>
      <trkpt lat="43.796508" lon="5.091995">
        <ele>131.769539</ele>
        <time>2021-07-04T19:13:08.968Z</time>
      </trkpt>
      <trkpt lat="43.796393" lon="5.092055">
        <ele>131.754947</ele>
        <time>2021-07-04T19:13:11.381Z</time>
      </trkpt>
      <trkpt lat="43.796310" lon="5.092104">
        <ele>131.744234</ele>
        <time>2021-07-04T19:13:13.229Z</time>
      </trkpt>
      <trkpt lat="43.796166" lon="5.092188">
        <ele>131.725681</ele>
        <time>2021-07-04T19:13:17.186Z</time>
      </trkpt>
      <trkpt lat="43.795643" lon="5.092483">
        <ele>131.942311</ele>
        <time>2021-07-04T19:13:28.913Z</time>
      </trkpt>
      <trkpt lat="43.795212" lon="5.092983">
        <ele>132.173282</ele>
        <time>2021-07-04T19:13:42.494Z</time>
      </trkpt>
      <trkpt lat="43.794383" lon="5.093622">
        <ele>133.173735</ele>
        <time>2021-07-04T19:14:06.110Z</time>
      </trkpt>
      <trkpt lat="43.794147" lon="5.093982">
        <ele>134.182932</ele>
        <time>2021-07-04T19:14:16.626Z</time>
      </trkpt>
      <trkpt lat="43.793718" lon="5.094463">
        <ele>135.769610</ele>
        <time>2021-07-04T19:14:34.868Z</time>
      </trkpt>
      <trkpt lat="43.793655" lon="5.094527">
        <ele>135.994210</ele>
        <time>2021-07-04T19:14:37.438Z</time>
      </trkpt>
      <trkpt lat="43.793479" lon="5.094707">
        <ele>136.623148</ele>
        <time>2021-07-04T19:14:45.996Z</time>
      </trkpt>
      <trkpt lat="43.792591" lon="5.095427">
        <ele>140.481353</ele>
        <time>2021-07-04T19:15:29.890Z</time>
      </trkpt>
      <trkpt lat="43.791802" lon="5.096386">
        <ele>144.892722</ele>
        <time>2021-07-04T19:16:12.770Z</time>
      </trkpt>
      <trkpt lat="43.791605" lon="5.096553">
        <ele>144.976713</ele>
        <time>2021-07-04T19:16:20.373Z</time>
      </trkpt>
      <trkpt lat="43.791452" lon="5.096683">
        <ele>144.735571</ele>
        <time>2021-07-04T19:16:24.119Z</time>
      </trkpt>
      <trkpt lat="43.790745" lon="5.097127">
        <ele>143.692662</ele>
        <time>2021-07-04T19:16:39.547Z</time>
      </trkpt>
      <trkpt lat="43.790554" lon="5.097306">
        <ele>143.382844</ele>
        <time>2021-07-04T19:16:43.346Z</time>
      </trkpt>
      <trkpt lat="43.790161" lon="5.097793">
        <ele>142.424764</ele>
        <time>2021-07-04T19:16:51.413Z</time>
      </trkpt>
      <trkpt lat="43.789703" lon="5.098307">
        <ele>139.667199</ele>
        <time>2021-07-04T19:17:00.259Z</time>
      </trkpt>
      <trkpt lat="43.789592" lon="5.098478">
        <ele>138.890563</ele>
        <time>2021-07-04T19:17:02.661Z</time>
      </trkpt>
      <trkpt lat="43.789238" lon="5.099029">
        <ele>136.399500</ele>
        <time>2021-07-04T19:17:10.775Z</time>
      </trkpt>
      <trkpt lat="43.789009" lon="5.099296">
        <ele>134.999205</ele>
        <time>2021-07-04T19:17:15.431Z</time>
      </trkpt>
      <trkpt lat="43.788406" lon="5.099820">
        <ele>132.562914</ele>
        <time>2021-07-04T19:17:26.759Z</time>
      </trkpt>
      <trkpt lat="43.788227" lon="5.100427">
        <ele>131.083919</ele>
        <time>2021-07-04T19:17:34.734Z</time>
      </trkpt>
      <trkpt lat="43.788067" lon="5.100779">
        <ele>130.145655</ele>
        <time>2021-07-04T19:17:39.834Z</time>
      </trkpt>
      <trkpt lat="43.787922" lon="5.100989">
        <ele>129.490185</ele>
        <time>2021-07-04T19:17:43.370Z</time>
      </trkpt>
      <trkpt lat="43.787575" lon="5.101289">
        <ele>128.113484</ele>
        <time>2021-07-04T19:17:50.213Z</time>
      </trkpt>
      <trkpt lat="43.787094" lon="5.101464">
        <ele>126.269516</ele>
        <time>2021-07-04T19:17:58.375Z</time>
      </trkpt>
      <trkpt lat="43.786339" lon="5.101410">
        <ele>123.466358</ele>
        <time>2021-07-04T19:18:10.078Z</time>
      </trkpt>
      <trkpt lat="43.785709" lon="5.101493">
        <ele>121.028432</ele>
        <time>2021-07-04T19:18:19.934Z</time>
      </trkpt>
      <trkpt lat="43.785458" lon="5.101662">
        <ele>119.894195</ele>
        <time>2021-07-04T19:18:24.345Z</time>
      </trkpt>
      <trkpt lat="43.785401" lon="5.101632">
        <ele>119.646379</ele>
        <time>2021-07-04T19:18:25.254Z</time>
      </trkpt>
      <trkpt lat="43.785029" lon="5.101414">
        <ele>118.004769</ele>
        <time>2021-07-04T19:18:31.669Z</time>
      </trkpt>
      <trkpt lat="43.783882" lon="5.101000">
        <ele>113.007564</ele>
        <time>2021-07-04T19:18:50.134Z</time>
      </trkpt>
      <trkpt lat="43.783554" lon="5.100562">
        <ele>110.944211</ele>
        <time>2021-07-04T19:18:57.482Z</time>
      </trkpt>
      <trkpt lat="43.783432" lon="5.100484">
        <ele>110.335678</ele>
        <time>2021-07-04T19:18:59.666Z</time>
      </trkpt>
      <trkpt lat="43.783321" lon="5.100461">
        <ele>109.827387</ele>
        <time>2021-07-04T19:19:01.295Z</time>
      </trkpt>
      <trkpt lat="43.782764" lon="5.100594">
        <ele>107.267633</ele>
        <time>2021-07-04T19:19:09.817Z</time>
      </trkpt>
      <trkpt lat="43.782261" lon="5.100919">
        <ele>104.627476</ele>
        <time>2021-07-04T19:19:17.985Z</time>
      </trkpt>
      <trkpt lat="43.782112" lon="5.101137">
        <ele>103.579241</ele>
        <time>2021-07-04T19:19:21.257Z</time>
      </trkpt>
      <trkpt lat="43.782047" lon="5.101215">
        <ele>103.163290</ele>
        <time>2021-07-04T19:19:22.452Z</time>
      </trkpt>
      <trkpt lat="43.781924" lon="5.101248">
        <ele>102.557338</ele>
        <time>2021-07-04T19:19:24.322Z</time>
      </trkpt>
      <trkpt lat="43.781882" lon="5.101273">
        <ele>102.336239</ele>
        <time>2021-07-04T19:19:25.003Z</time>
      </trkpt>
      <trkpt lat="43.781857" lon="5.101303">
        <ele>102.176258</ele>
        <time>2021-07-04T19:19:25.465Z</time>
      </trkpt>
      <trkpt lat="43.781513" lon="5.101737">
        <ele>99.925741</ele>
        <time>2021-07-04T19:19:32.672Z</time>
      </trkpt>
      <trkpt lat="43.781427" lon="5.101775">
        <ele>99.489145</ele>
        <time>2021-07-04T19:19:33.999Z</time>
      </trkpt>
      <trkpt lat="43.780730" lon="5.101439">
        <ele>97.577869</ele>
        <time>2021-07-04T19:19:55.650Z</time>
      </trkpt>
      <trkpt lat="43.780709" lon="5.101411">
        <ele>97.553963</ele>
        <time>2021-07-04T19:19:56.585Z</time>
      </trkpt>
      <trkpt lat="43.780676" lon="5.101355">
        <ele>97.511160</ele>
        <time>2021-07-04T19:19:58.259Z</time>
      </trkpt>
      <trkpt lat="43.780645" lon="5.101344">
        <ele>97.484915</ele>
        <time>2021-07-04T19:19:59.245Z</time>
      </trkpt>
      <trkpt lat="43.780631" lon="5.101429">
        <ele>97.433290</ele>
        <time>2021-07-04T19:20:00.267Z</time>
      </trkpt>
      <trkpt lat="43.780618" lon="5.101507">
        <ele>97.385889</ele>
        <time>2021-07-04T19:20:01.733Z</time>
      </trkpt>
      <trkpt lat="43.780178" lon="5.104102">
        <ele>97.110902</ele>
        <time>2021-07-04T19:20:48.108Z</time>
      </trkpt>
      <trkpt lat="43.780041" lon="5.104713">
        <ele>97.511114</ele>
        <time>2021-07-04T19:21:00.629Z</time>
      </trkpt>
      <trkpt lat="43.779924" lon="5.105382">
        <ele>97.941703</ele>
        <time>2021-07-04T19:21:13.905Z</time>
      </trkpt>
      <trkpt lat="43.779892" lon="5.105567">
        <ele>98.089815</ele>
        <time>2021-07-04T19:21:17.752Z</time>
      </trkpt>
      <trkpt lat="43.779702" lon="5.106456">
        <ele>98.946366</ele>
        <time>2021-07-04T19:21:36.119Z</time>
      </trkpt>
      <trkpt lat="43.779405" lon="5.107255">
        <ele>99.776628</ele>
        <time>2021-07-04T19:21:53.879Z</time>
      </trkpt>
      <trkpt lat="43.779235" lon="5.107631">
        <ele>100.186496</ele>
        <time>2021-07-04T19:22:02.773Z</time>
      </trkpt>
      <trkpt lat="43.778830" lon="5.108357">
        <ele>100.931423</ele>
        <time>2021-07-04T19:22:21.259Z</time>
      </trkpt>
      <trkpt lat="43.778163" lon="5.109434">
        <ele>102.058671</ele>
        <time>2021-07-04T19:22:48.899Z</time>
      </trkpt>
      <trkpt lat="43.777705" lon="5.109895">
        <ele>102.208081</ele>
        <time>2021-07-04T19:23:02.866Z</time>
      </trkpt>
      <trkpt lat="43.774852" lon="5.111721">
        <ele>100.899811</ele>
        <time>2021-07-04T19:24:07.313Z</time>
      </trkpt>
      <trkpt lat="43.774662" lon="5.111873">
        <ele>100.745072</ele>
        <time>2021-07-04T19:24:11.424Z</time>
      </trkpt>
      <trkpt lat="43.774313" lon="5.112192">
        <ele>100.419696</ele>
        <time>2021-07-04T19:24:19.634Z</time>
      </trkpt>
      <trkpt lat="43.773290" lon="5.113197">
        <ele>99.447972</ele>
        <time>2021-07-04T19:24:44.106Z</time>
      </trkpt>
      <trkpt lat="43.772907" lon="5.113656">
        <ele>99.644948</ele>
        <time>2021-07-04T19:24:54.957Z</time>
      </trkpt>
      <trkpt lat="43.772833" lon="5.113769">
        <ele>99.687787</ele>
        <time>2021-07-04T19:24:57.308Z</time>
      </trkpt>
      <trkpt lat="43.772740" lon="5.113949">
        <ele>99.749941</ele>
        <time>2021-07-04T19:25:00.725Z</time>
      </trkpt>
      <trkpt lat="43.769342" lon="5.120866">
        <ele>102.426466</ele>
        <time>2021-07-04T19:27:28.188Z</time>
      </trkpt>
      <trkpt lat="43.768701" lon="5.122158">
        <ele>103.302846</ele>
        <time>2021-07-04T19:27:57.294Z</time>
      </trkpt>
      <trkpt lat="43.768461" lon="5.122641">
        <ele>103.663096</ele>
        <time>2021-07-04T19:28:08.257Z</time>
      </trkpt>
      <trkpt lat="43.768079" lon="5.123408">
        <ele>104.218709</ele>
        <time>2021-07-04T19:28:25.630Z</time>
      </trkpt>
      <trkpt lat="43.767853" lon="5.123818">
        <ele>104.423650</ele>
        <time>2021-07-04T19:28:34.804Z</time>
      </trkpt>
      <trkpt lat="43.767347" lon="5.124544">
        <ele>104.824553</ele>
        <time>2021-07-04T19:28:52.895Z</time>
      </trkpt>
      <trkpt lat="43.766792" lon="5.125255">
        <ele>105.181983</ele>
        <time>2021-07-04T19:29:10.923Z</time>
      </trkpt>
      <trkpt lat="43.766685" lon="5.125392">
        <ele>105.187758</ele>
        <time>2021-07-04T19:29:14.334Z</time>
      </trkpt>
      <trkpt lat="43.764512" lon="5.128255">
        <ele>105.130186</ele>
        <time>2021-07-04T19:30:20.621Z</time>
      </trkpt>
      <trkpt lat="43.764067" lon="5.128954">
        <ele>105.083637</ele>
        <time>2021-07-04T19:30:35.091Z</time>
      </trkpt>
      <trkpt lat="43.763974" lon="5.129114">
        <ele>105.075157</ele>
        <time>2021-07-04T19:30:38.181Z</time>
      </trkpt>
      <trkpt lat="43.762214" lon="5.132144">
        <ele>105.090456</ele>
        <time>2021-07-04T19:31:40.628Z</time>
      </trkpt>
      <trkpt lat="43.761046" lon="5.134132">
        <ele>105.385338</ele>
        <time>2021-07-04T19:32:23.824Z</time>
      </trkpt>
      <trkpt lat="43.760899" lon="5.134436">
        <ele>105.427329</ele>
        <time>2021-07-04T19:32:29.761Z</time>
      </trkpt>
      <trkpt lat="43.760805" lon="5.134643">
        <ele>105.376819</ele>
        <time>2021-07-04T19:32:33.616Z</time>
      </trkpt>
      <trkpt lat="43.760747" lon="5.134788">
        <ele>105.342579</ele>
        <time>2021-07-04T19:32:36.309Z</time>
      </trkpt>
      <trkpt lat="43.760589" lon="5.135132">
        <ele>105.258366</ele>
        <time>2021-07-04T19:32:42.713Z</time>
      </trkpt>
      <trkpt lat="43.760390" lon="5.135739">
        <ele>105.120663</ele>
        <time>2021-07-04T19:32:52.976Z</time>
      </trkpt>
      <trkpt lat="43.760303" lon="5.136040">
        <ele>105.053690</ele>
        <time>2021-07-04T19:32:57.879Z</time>
      </trkpt>
      <trkpt lat="43.760067" lon="5.136849">
        <ele>104.855302</ele>
        <time>2021-07-04T19:33:10.740Z</time>
      </trkpt>
      <trkpt lat="43.760037" lon="5.136963">
        <ele>104.819574</ele>
        <time>2021-07-04T19:33:12.519Z</time>
      </trkpt>
      <trkpt lat="43.759991" lon="5.137132">
        <ele>104.766393</ele>
        <time>2021-07-04T19:33:15.180Z</time>
      </trkpt>
      <trkpt lat="43.759823" lon="5.137762">
        <ele>104.568638</ele>
        <time>2021-07-04T19:33:25.215Z</time>
      </trkpt>
      <trkpt lat="43.759683" lon="5.138341">
        <ele>104.388840</ele>
        <time>2021-07-04T19:33:34.405Z</time>
      </trkpt>
      <trkpt lat="43.758653" lon="5.141957">
        <ele>103.809100</ele>
        <time>2021-07-04T19:34:34.333Z</time>
      </trkpt>
      <trkpt lat="43.757197" lon="5.146977">
        <ele>104.940823</ele>
        <time>2021-07-04T19:36:05.822Z</time>
      </trkpt>
      <trkpt lat="43.757023" lon="5.147562">
        <ele>105.204342</ele>
        <time>2021-07-04T19:36:17.342Z</time>
      </trkpt>
      <trkpt lat="43.756658" lon="5.148766">
        <ele>105.879913</ele>
        <time>2021-07-04T19:36:41.784Z</time>
      </trkpt>
      <trkpt lat="43.756495" lon="5.149208">
        <ele>106.200436</ele>
        <time>2021-07-04T19:36:51.101Z</time>
      </trkpt>
      <trkpt lat="43.756376" lon="5.149552">
        <ele>106.446776</ele>
        <time>2021-07-04T19:36:58.257Z</time>
      </trkpt>
      <trkpt lat="43.756316" lon="5.149726">
        <ele>106.571305</ele>
        <time>2021-07-04T19:37:02.044Z</time>
      </trkpt>
      <trkpt lat="43.756158" lon="5.150182">
        <ele>106.897950</ele>
        <time>2021-07-04T19:37:11.653Z</time>
      </trkpt>
      <trkpt lat="43.756147" lon="5.150213">
        <ele>106.920257</ele>
        <time>2021-07-04T19:37:12.323Z</time>
      </trkpt>
      <trkpt lat="43.755964" lon="5.150752">
        <ele>107.210048</ele>
        <time>2021-07-04T19:37:23.217Z</time>
      </trkpt>
      <trkpt lat="43.755828" lon="5.151307">
        <ele>107.397130</ele>
        <time>2021-07-04T19:37:33.644Z</time>
      </trkpt>
      <trkpt lat="43.755809" lon="5.151573">
        <ele>107.482456</ele>
        <time>2021-07-04T19:37:38.506Z</time>
      </trkpt>
      <trkpt lat="43.755794" lon="5.151765">
        <ele>107.544103</ele>
        <time>2021-07-04T19:37:41.826Z</time>
      </trkpt>
      <trkpt lat="43.755790" lon="5.151850">
        <ele>107.571294</ele>
        <time>2021-07-04T19:37:43.219Z</time>
      </trkpt>
      <trkpt lat="43.755749" lon="5.151847">
        <ele>107.589439</ele>
        <time>2021-07-04T19:37:44.264Z</time>
      </trkpt>
      <trkpt lat="43.755678" lon="5.151784">
        <ele>107.626708</ele>
        <time>2021-07-04T19:37:46.274Z</time>
      </trkpt>
      <trkpt lat="43.755520" lon="5.151100">
        <ele>107.855946</ele>
        <time>2021-07-04T19:37:58.788Z</time>
      </trkpt>
      <trkpt lat="43.755440" lon="5.150310">
        <ele>107.990093</ele>
        <time>2021-07-04T19:38:12.249Z</time>
      </trkpt>
      <trkpt lat="43.755399" lon="5.150185">
        <ele>108.007293</ele>
        <time>2021-07-04T19:38:14.715Z</time>
      </trkpt>
      <trkpt lat="43.755366" lon="5.150111">
        <ele>108.018189</ele>
        <time>2021-07-04T19:38:16.089Z</time>
      </trkpt>
      <trkpt lat="43.755350" lon="5.150070">
        <ele>108.024028</ele>
        <time>2021-07-04T19:38:16.876Z</time>
      </trkpt>
      <trkpt lat="43.755319" lon="5.149932">
        <ele>108.042135</ele>
        <time>2021-07-04T19:38:19.307Z</time>
      </trkpt>
      <trkpt lat="43.754950" lon="5.151403">
        <ele>108.279076</ele>
        <time>2021-07-04T19:38:45.809Z</time>
      </trkpt>
      <trkpt lat="43.754272" lon="5.153505">
        <ele>109.495795</ele>
        <time>2021-07-04T19:39:29.708Z</time>
      </trkpt>
      <trkpt lat="43.753112" lon="5.157030">
        <ele>111.565186</ele>
        <time>2021-07-04T19:40:47.311Z</time>
      </trkpt>
      <trkpt lat="43.753106" lon="5.157095">
        <ele>111.567126</ele>
        <time>2021-07-04T19:40:48.389Z</time>
      </trkpt>
      <trkpt lat="43.753111" lon="5.157149">
        <ele>111.568738</ele>
        <time>2021-07-04T19:40:49.269Z</time>
      </trkpt>
      <trkpt lat="43.753130" lon="5.157188">
        <ele>111.570130</ele>
        <time>2021-07-04T19:40:49.945Z</time>
      </trkpt>
      <trkpt lat="43.753182" lon="5.157225">
        <ele>111.572527</ele>
        <time>2021-07-04T19:40:51.152Z</time>
      </trkpt>
      <trkpt lat="43.753240" lon="5.157257">
        <ele>111.575085</ele>
        <time>2021-07-04T19:40:52.395Z</time>
      </trkpt>
      <trkpt lat="43.753297" lon="5.157295">
        <ele>111.577678</ele>
        <time>2021-07-04T19:40:53.678Z</time>
      </trkpt>
      <trkpt lat="43.752695" lon="5.159338">
        <ele>110.603059</ele>
        <time>2021-07-04T19:41:24.941Z</time>
      </trkpt>
      <trkpt lat="43.752087" lon="5.161364">
        <ele>109.656075</ele>
        <time>2021-07-04T19:41:58.900Z</time>
      </trkpt>
      <trkpt lat="43.751130" lon="5.164384">
        <ele>109.411412</ele>
        <time>2021-07-04T19:42:54.305Z</time>
      </trkpt>
      <trkpt lat="43.750879" lon="5.165212">
        <ele>109.440674</ele>
        <time>2021-07-04T19:43:09.251Z</time>
      </trkpt>
      <trkpt lat="43.749647" lon="5.169204">
        <ele>109.846068</ele>
        <time>2021-07-04T19:44:23.723Z</time>
      </trkpt>
      <trkpt lat="43.749603" lon="5.169503">
        <ele>109.884350</ele>
        <time>2021-07-04T19:44:28.941Z</time>
      </trkpt>
      <trkpt lat="43.749595" lon="5.169958">
        <ele>110.009575</ele>
        <time>2021-07-04T19:44:36.887Z</time>
      </trkpt>
      <trkpt lat="43.749305" lon="5.171686">
        <ele>110.497677</ele>
        <time>2021-07-04T19:45:08.947Z</time>
      </trkpt>
      <trkpt lat="43.749265" lon="5.171784">
        <ele>110.528647</ele>
        <time>2021-07-04T19:45:10.853Z</time>
      </trkpt>
      <trkpt lat="43.749175" lon="5.171896">
        <ele>110.572946</ele>
        <time>2021-07-04T19:45:14.118Z</time>
      </trkpt>
      <trkpt lat="43.748999" lon="5.172214">
        <ele>110.666348</ele>
        <time>2021-07-04T19:45:21.164Z</time>
      </trkpt>
      <trkpt lat="43.748710" lon="5.172712">
        <ele>110.815285</ele>
        <time>2021-07-04T19:45:32.812Z</time>
      </trkpt>
      <trkpt lat="43.748384" lon="5.173378">
        <ele>111.002857</ele>
        <time>2021-07-04T19:45:47.090Z</time>
      </trkpt>
      <trkpt lat="43.747453" lon="5.176320">
        <ele>111.575714</ele>
        <time>2021-07-04T19:46:42.150Z</time>
      </trkpt>
      <trkpt lat="43.747433" lon="5.176700">
        <ele>111.814322</ele>
        <time>2021-07-04T19:46:49.208Z</time>
      </trkpt>
      <trkpt lat="43.747689" lon="5.177737">
        <ele>112.500624</ele>
        <time>2021-07-04T19:47:09.967Z</time>
      </trkpt>
      <trkpt lat="43.747692" lon="5.177843">
        <ele>112.567058</ele>
        <time>2021-07-04T19:47:11.856Z</time>
      </trkpt>
      <trkpt lat="43.747693" lon="5.177888">
        <ele>112.595252</ele>
        <time>2021-07-04T19:47:13.215Z</time>
      </trkpt>
      <trkpt lat="43.747467" lon="5.179401">
        <ele>113.536946</ele>
        <time>2021-07-04T19:47:44.619Z</time>
      </trkpt>
      <trkpt lat="43.747308" lon="5.180458">
        <ele>114.178264</ele>
        <time>2021-07-04T19:48:06.068Z</time>
      </trkpt>
      <trkpt lat="43.747282" lon="5.180647">
        <ele>114.292546</ele>
        <time>2021-07-04T19:48:09.476Z</time>
      </trkpt>
      <trkpt lat="43.746248" lon="5.179862">
        <ele>114.173021</ele>
        <time>2021-07-04T19:48:35.434Z</time>
      </trkpt>
      <trkpt lat="43.746039" lon="5.179704">
        <ele>114.073722</ele>
        <time>2021-07-04T19:48:40.017Z</time>
      </trkpt>
      <trkpt lat="43.744992" lon="5.178929">
        <ele>113.551233</ele>
        <time>2021-07-04T19:49:03.479Z</time>
      </trkpt>
      <trkpt lat="43.744739" lon="5.178734">
        <ele>113.414791</ele>
        <time>2021-07-04T19:49:09.268Z</time>
      </trkpt>
      <trkpt lat="43.744715" lon="5.178716">
        <ele>113.401929</ele>
        <time>2021-07-04T19:49:09.824Z</time>
      </trkpt>
      <trkpt lat="43.743613" lon="5.177907">
        <ele>112.983986</ele>
        <time>2021-07-04T19:49:36.465Z</time>
      </trkpt>
      <trkpt lat="43.743030" lon="5.177502">
        <ele>113.084835</ele>
        <time>2021-07-04T19:49:51.804Z</time>
      </trkpt>
      <trkpt lat="43.742494" lon="5.177141">
        <ele>113.176991</ele>
        <time>2021-07-04T19:50:05.780Z</time>
      </trkpt>
      <trkpt lat="43.742164" lon="5.176925">
        <ele>113.183606</ele>
        <time>2021-07-04T19:50:14.034Z</time>
      </trkpt>
      <trkpt lat="43.741781" lon="5.176687">
        <ele>113.005647</ele>
        <time>2021-07-04T19:50:23.274Z</time>
      </trkpt>
      <trkpt lat="43.741526" lon="5.176549">
        <ele>112.889588</ele>
        <time>2021-07-04T19:50:29.217Z</time>
      </trkpt>
      <trkpt lat="43.740665" lon="5.176053">
        <ele>112.494272</ele>
        <time>2021-07-04T19:50:47.764Z</time>
      </trkpt>
      <trkpt lat="43.740153" lon="5.175747">
        <ele>112.316571</ele>
        <time>2021-07-04T19:50:58.876Z</time>
      </trkpt>
      <trkpt lat="43.739562" lon="5.175332">
        <ele>112.118178</ele>
        <time>2021-07-04T19:51:12.418Z</time>
      </trkpt>
      <trkpt lat="43.738364" lon="5.174474">
        <ele>112.394585</ele>
        <time>2021-07-04T19:51:43.353Z</time>
      </trkpt>
      <trkpt lat="43.738195" lon="5.174348">
        <ele>112.527923</ele>
        <time>2021-07-04T19:51:48.430Z</time>
      </trkpt>
      <trkpt lat="43.737365" lon="5.173711">
        <ele>113.184644</ele>
        <time>2021-07-04T19:52:13.985Z</time>
      </trkpt>
      <trkpt lat="43.736890" lon="5.173333">
        <ele>113.513650</ele>
        <time>2021-07-04T19:52:27.756Z</time>
      </trkpt>
      <trkpt lat="43.736667" lon="5.173168">
        <ele>113.665488</ele>
        <time>2021-07-04T19:52:33.845Z</time>
      </trkpt>
      <trkpt lat="43.736496" lon="5.173051">
        <ele>113.780029</ele>
        <time>2021-07-04T19:52:38.283Z</time>
      </trkpt>
      <trkpt lat="43.736325" lon="5.172946">
        <ele>113.892360</ele>
        <time>2021-07-04T19:52:42.934Z</time>
      </trkpt>
      <trkpt lat="43.736087" lon="5.172829">
        <ele>114.044018</ele>
        <time>2021-07-04T19:52:48.993Z</time>
      </trkpt>
      <trkpt lat="43.735461" lon="5.172560">
        <ele>114.379718</ele>
        <time>2021-07-04T19:53:04.924Z</time>
      </trkpt>
      <trkpt lat="43.735178" lon="5.172432">
        <ele>114.503729</ele>
        <time>2021-07-04T19:53:11.599Z</time>
      </trkpt>
      <trkpt lat="43.734770" lon="5.172166">
        <ele>114.691583</ele>
        <time>2021-07-04T19:53:22.520Z</time>
      </trkpt>
      <trkpt lat="43.734224" lon="5.171802">
        <ele>114.944016</ele>
        <time>2021-07-04T19:53:37.022Z</time>
      </trkpt>
      <trkpt lat="43.734189" lon="5.171728">
        <ele>114.970634</ele>
        <time>2021-07-04T19:53:38.816Z</time>
      </trkpt>
      <trkpt lat="43.734186" lon="5.171695">
        <ele>114.980644</ele>
        <time>2021-07-04T19:53:39.451Z</time>
      </trkpt>
      <trkpt lat="43.734177" lon="5.171645">
        <ele>114.996152</ele>
        <time>2021-07-04T19:53:40.234Z</time>
      </trkpt>
      <trkpt lat="43.734127" lon="5.171538">
        <ele>115.022037</ele>
        <time>2021-07-04T19:53:42.334Z</time>
      </trkpt>
      <trkpt lat="43.734103" lon="5.171511">
        <ele>115.030544</ele>
        <time>2021-07-04T19:53:43.058Z</time>
      </trkpt>
      <trkpt lat="43.734079" lon="5.171490">
        <ele>115.038354</ele>
        <time>2021-07-04T19:53:43.731Z</time>
      </trkpt>
      <trkpt lat="43.733986" lon="5.171456">
        <ele>115.064810</ele>
        <time>2021-07-04T19:53:46.032Z</time>
      </trkpt>
      <trkpt lat="43.733948" lon="5.171459">
        <ele>115.075279</ele>
        <time>2021-07-04T19:53:47.055Z</time>
      </trkpt>
      <trkpt lat="43.733914" lon="5.171471">
        <ele>115.084930</ele>
        <time>2021-07-04T19:53:48.043Z</time>
      </trkpt>
      <trkpt lat="43.733807" lon="5.171586">
        <ele>115.122191</ele>
        <time>2021-07-04T19:53:50.950Z</time>
      </trkpt>
      <trkpt lat="43.733792" lon="5.171625">
        <ele>115.130972</ele>
        <time>2021-07-04T19:53:51.731Z</time>
      </trkpt>
      <trkpt lat="43.733780" lon="5.171673">
        <ele>115.141066</ele>
        <time>2021-07-04T19:53:52.613Z</time>
      </trkpt>
      <trkpt lat="43.733776" lon="5.171701">
        <ele>115.146738</ele>
        <time>2021-07-04T19:53:53.118Z</time>
      </trkpt>
      <trkpt lat="43.733745" lon="5.171783">
        <ele>115.165130</ele>
        <time>2021-07-04T19:53:54.786Z</time>
      </trkpt>
      <trkpt lat="43.733700" lon="5.171877">
        <ele>115.187540</ele>
        <time>2021-07-04T19:53:56.892Z</time>
      </trkpt>
      <trkpt lat="43.733694" lon="5.171889">
        <ele>115.190440</ele>
        <time>2021-07-04T19:53:57.099Z</time>
      </trkpt>
      <trkpt lat="43.733604" lon="5.172079">
        <ele>115.235590</ele>
        <time>2021-07-04T19:54:00.635Z</time>
      </trkpt>
      <trkpt lat="43.733560" lon="5.172183">
        <ele>115.259541</ele>
        <time>2021-07-04T19:54:02.637Z</time>
      </trkpt>
      <trkpt lat="43.733475" lon="5.172445">
        <ele>115.316618</ele>
        <time>2021-07-04T19:54:07.293Z</time>
      </trkpt>
      <trkpt lat="43.733214" lon="5.173276">
        <ele>115.502730</ele>
        <time>2021-07-04T19:54:22.472Z</time>
      </trkpt>
      <trkpt lat="43.733208" lon="5.173293">
        <ele>115.511910</ele>
        <time>2021-07-04T19:54:22.703Z</time>
      </trkpt>
      <trkpt lat="43.733181" lon="5.173366">
        <ele>115.551705</ele>
        <time>2021-07-04T19:54:24.067Z</time>
      </trkpt>
      <trkpt lat="43.733124" lon="5.173497">
        <ele>115.625910</ele>
        <time>2021-07-04T19:54:27.080Z</time>
      </trkpt>
      <trkpt lat="43.733001" lon="5.173781">
        <ele>115.786582</ele>
        <time>2021-07-04T19:54:32.572Z</time>
      </trkpt>
      <trkpt lat="43.732867" lon="5.174090">
        <ele>115.961459</ele>
        <time>2021-07-04T19:54:38.813Z</time>
      </trkpt>
      <trkpt lat="43.732720" lon="5.174409">
        <ele>116.145057</ele>
        <time>2021-07-04T19:54:45.366Z</time>
      </trkpt>
      <trkpt lat="43.732703" lon="5.174444">
        <ele>116.165521</ele>
        <time>2021-07-04T19:54:46.087Z</time>
      </trkpt>
      <trkpt lat="43.732598" lon="5.174695">
        <ele>116.306261</ele>
        <time>2021-07-04T19:54:51.005Z</time>
      </trkpt>
      <trkpt lat="43.732628" lon="5.174795">
        <ele>116.358803</ele>
        <time>2021-07-04T19:54:53.243Z</time>
      </trkpt>
      <trkpt lat="43.732675" lon="5.175019">
        <ele>116.471992</ele>
        <time>2021-07-04T19:54:57.283Z</time>
      </trkpt>
      <trkpt lat="43.732892" lon="5.175715">
        <ele>117.271099</ele>
        <time>2021-07-04T19:55:12.844Z</time>
      </trkpt>
      <trkpt lat="43.733132" lon="5.176481">
        <ele>118.929644</ele>
        <time>2021-07-04T19:55:30.209Z</time>
      </trkpt>
      <trkpt lat="43.733275" lon="5.176941">
        <ele>119.924408</ele>
        <time>2021-07-04T19:55:41.632Z</time>
      </trkpt>
      <trkpt lat="43.733305" lon="5.177033">
        <ele>120.124913</ele>
        <time>2021-07-04T19:55:44.381Z</time>
      </trkpt>
      <trkpt lat="43.733413" lon="5.177372">
        <ele>120.860880</ele>
        <time>2021-07-04T19:55:53.495Z</time>
      </trkpt>
      <trkpt lat="43.733458" lon="5.177512">
        <ele>121.165263</ele>
        <time>2021-07-04T19:55:58.582Z</time>
      </trkpt>
      <trkpt lat="43.733839" lon="5.178604">
        <ele>125.757424</ele>
        <time>2021-07-04T19:56:36.406Z</time>
      </trkpt>
      <trkpt lat="43.733925" lon="5.178995">
        <ele>127.488302</ele>
        <time>2021-07-04T19:56:50.917Z</time>
      </trkpt>
      <trkpt lat="43.733812" lon="5.179070">
        <ele>128.222822</ele>
        <time>2021-07-04T19:56:56.025Z</time>
      </trkpt>
      <trkpt lat="43.733764" lon="5.179175">
        <ele>128.749012</ele>
        <time>2021-07-04T19:57:01.563Z</time>
      </trkpt>
      <trkpt lat="43.733710" lon="5.179384">
        <ele>129.689001</ele>
        <time>2021-07-04T19:57:08.699Z</time>
      </trkpt>
      <trkpt lat="43.733564" lon="5.179987">
        <ele>132.298070</ele>
        <time>2021-07-04T19:57:30.279Z</time>
      </trkpt>
      <trkpt lat="43.733565" lon="5.180035">
        <ele>132.413688</ele>
        <time>2021-07-04T19:57:33.532Z</time>
      </trkpt>
      <trkpt lat="43.733553" lon="5.180070">
        <ele>132.506963</ele>
        <time>2021-07-04T19:57:35.661Z</time>
      </trkpt>
      <trkpt lat="43.733292" lon="5.180614">
        <ele>134.079199</ele>
        <time>2021-07-04T19:57:59.469Z</time>
      </trkpt>
      <trkpt lat="43.733131" lon="5.181175">
        <ele>135.532566</ele>
        <time>2021-07-04T19:58:18.047Z</time>
      </trkpt>
      <trkpt lat="43.733109" lon="5.181217">
        <ele>135.657466</ele>
        <time>2021-07-04T19:58:19.212Z</time>
      </trkpt>
      <trkpt lat="43.733047" lon="5.181283">
        <ele>135.918107</ele>
        <time>2021-07-04T19:58:22.389Z</time>
      </trkpt>
      <trkpt lat="43.732880" lon="5.181361">
        <ele>136.505415</ele>
        <time>2021-07-04T19:58:26.683Z</time>
      </trkpt>
      <trkpt lat="43.732689" lon="5.181360">
        <ele>137.141864</ele>
        <time>2021-07-04T19:58:32.762Z</time>
      </trkpt>
      <trkpt lat="43.732650" lon="5.181362">
        <ele>137.271908</ele>
        <time>2021-07-04T19:58:34.702Z</time>
      </trkpt>
      <trkpt lat="43.732467" lon="5.181437">
        <ele>137.907872</ele>
        <time>2021-07-04T19:58:38.124Z</time>
      </trkpt>
      <trkpt lat="43.732272" lon="5.181636">
        <ele>137.382946</ele>
        <time>2021-07-04T19:58:42.472Z</time>
      </trkpt>
      <trkpt lat="43.732200" lon="5.181642">
        <ele>137.024380</ele>
        <time>2021-07-04T19:58:43.924Z</time>
      </trkpt>
      <trkpt lat="43.732140" lon="5.181651">
        <ele>136.724369</ele>
        <time>2021-07-04T19:58:45.109Z</time>
      </trkpt>
      <trkpt lat="43.732099" lon="5.181673">
        <ele>136.505771</ele>
        <time>2021-07-04T19:58:45.978Z</time>
      </trkpt>
      <trkpt lat="43.732032" lon="5.181727">
        <ele>136.120345</ele>
        <time>2021-07-04T19:58:47.821Z</time>
      </trkpt>
      <trkpt lat="43.732001" lon="5.181892">
        <ele>135.507958</ele>
        <time>2021-07-04T19:58:49.676Z</time>
      </trkpt>
      <trkpt lat="43.731988" lon="5.182962">
        <ele>131.663971</ele>
        <time>2021-07-04T19:59:01.828Z</time>
      </trkpt>
      <trkpt lat="43.731662" lon="5.183505">
        <ele>129.110516</ele>
        <time>2021-07-04T19:59:09.353Z</time>
      </trkpt>
      <trkpt lat="43.731593" lon="5.183667">
        <ele>128.328175</ele>
        <time>2021-07-04T19:59:11.294Z</time>
      </trkpt>
      <trkpt lat="43.731587" lon="5.183820">
        <ele>127.690711</ele>
        <time>2021-07-04T19:59:12.995Z</time>
      </trkpt>
      <trkpt lat="43.731590" lon="5.183874">
        <ele>127.465391</ele>
        <time>2021-07-04T19:59:13.510Z</time>
      </trkpt>
      <trkpt lat="43.731592" lon="5.183911">
        <ele>127.311029</ele>
        <time>2021-07-04T19:59:13.941Z</time>
      </trkpt>
      <trkpt lat="43.731604" lon="5.183968">
        <ele>127.064032</ele>
        <time>2021-07-04T19:59:14.613Z</time>
      </trkpt>
      <trkpt lat="43.731619" lon="5.184029">
        <ele>126.795961</ele>
        <time>2021-07-04T19:59:15.350Z</time>
      </trkpt>
      <trkpt lat="43.731647" lon="5.184088">
        <ele>126.502296</ele>
        <time>2021-07-04T19:59:16.161Z</time>
      </trkpt>
      <trkpt lat="43.731680" lon="5.184147">
        <ele>126.191895</ele>
        <time>2021-07-04T19:59:17.004Z</time>
      </trkpt>
      <trkpt lat="43.731503" lon="5.184454">
        <ele>124.557941</ele>
        <time>2021-07-04T19:59:21.107Z</time>
      </trkpt>
      <trkpt lat="43.731397" lon="5.184759">
        <ele>123.149905</ele>
        <time>2021-07-04T19:59:24.641Z</time>
      </trkpt>
      <trkpt lat="43.731369" lon="5.184869">
        <ele>122.664705</ele>
        <time>2021-07-04T19:59:25.977Z</time>
      </trkpt>
      <trkpt lat="43.731347" lon="5.184952">
        <ele>122.296899</ele>
        <time>2021-07-04T19:59:26.997Z</time>
      </trkpt>
      <trkpt lat="43.731310" lon="5.185121">
        <ele>121.562240</ele>
        <time>2021-07-04T19:59:29.035Z</time>
      </trkpt>
      <trkpt lat="43.731184" lon="5.185695">
        <ele>119.066449</ele>
        <time>2021-07-04T19:59:35.444Z</time>
      </trkpt>
      <trkpt lat="43.731145" lon="5.185862">
        <ele>118.724459</ele>
        <time>2021-07-04T19:59:37.612Z</time>
      </trkpt>
      <trkpt lat="43.731114" lon="5.186011">
        <ele>118.536865</ele>
        <time>2021-07-04T19:59:39.529Z</time>
      </trkpt>
      <trkpt lat="43.730651" lon="5.188049">
        <ele>115.952154</ele>
        <time>2021-07-04T20:00:08.636Z</time>
      </trkpt>
      <trkpt lat="43.730518" lon="5.188638">
        <ele>115.875734</ele>
        <time>2021-07-04T20:00:18.019Z</time>
      </trkpt>
      <trkpt lat="43.730512" lon="5.188665">
        <ele>115.875921</ele>
        <time>2021-07-04T20:00:18.503Z</time>
      </trkpt>
      <trkpt lat="43.730468" lon="5.188960">
        <ele>115.877915</ele>
        <time>2021-07-04T20:00:23.241Z</time>
      </trkpt>
      <trkpt lat="43.730461" lon="5.189010">
        <ele>115.878253</ele>
        <time>2021-07-04T20:00:24.079Z</time>
      </trkpt>
      <trkpt lat="43.730210" lon="5.190710">
        <ele>115.929128</ele>
        <time>2021-07-04T20:00:53.748Z</time>
      </trkpt>
      <trkpt lat="43.730164" lon="5.191118">
        <ele>116.023592</ele>
        <time>2021-07-04T20:01:00.981Z</time>
      </trkpt>
      <trkpt lat="43.730090" lon="5.191770">
        <ele>116.174573</ele>
        <time>2021-07-04T20:01:12.213Z</time>
      </trkpt>
      <trkpt lat="43.730060" lon="5.192670">
        <ele>116.380678</ele>
        <time>2021-07-04T20:01:27.319Z</time>
      </trkpt>
      <trkpt lat="43.730069" lon="5.192770">
        <ele>116.403731</ele>
        <time>2021-07-04T20:01:29.122Z</time>
      </trkpt>
      <trkpt lat="43.730120" lon="5.193330">
        <ele>116.557382</ele>
        <time>2021-07-04T20:01:38.600Z</time>
      </trkpt>
      <trkpt lat="43.730160" lon="5.193480">
        <ele>116.605942</ele>
        <time>2021-07-04T20:01:41.159Z</time>
      </trkpt>
      <trkpt lat="43.730410" lon="5.194410">
        <ele>116.907309</ele>
        <time>2021-07-04T20:01:58.496Z</time>
      </trkpt>
      <trkpt lat="43.730840" lon="5.195670">
        <ele>117.271271</ele>
        <time>2021-07-04T20:02:22.598Z</time>
      </trkpt>
      <trkpt lat="43.730859" lon="5.195778">
        <ele>117.287869</ele>
        <time>2021-07-04T20:02:24.877Z</time>
      </trkpt>
      <trkpt lat="43.730960" lon="5.196370">
        <ele>117.378700</ele>
        <time>2021-07-04T20:02:35.427Z</time>
      </trkpt>
      <trkpt lat="43.731102" lon="5.198384">
        <ele>117.527173</ele>
        <time>2021-07-04T20:03:08.307Z</time>
      </trkpt>
      <trkpt lat="43.731237" lon="5.199921">
        <ele>117.385160</ele>
        <time>2021-07-04T20:03:32.125Z</time>
      </trkpt>
      <trkpt lat="43.731278" lon="5.200428">
        <ele>117.392838</ele>
        <time>2021-07-04T20:03:40.246Z</time>
      </trkpt>
      <trkpt lat="43.731262" lon="5.201384">
        <ele>117.556843</ele>
        <time>2021-07-04T20:03:56.011Z</time>
      </trkpt>
      <trkpt lat="43.731067" lon="5.203433">
        <ele>118.018870</ele>
        <time>2021-07-04T20:04:31.699Z</time>
      </trkpt>
      <trkpt lat="43.731027" lon="5.203794">
        <ele>118.134549</ele>
        <time>2021-07-04T20:04:38.009Z</time>
      </trkpt>
      <trkpt lat="43.730958" lon="5.204426">
        <ele>118.336998</ele>
        <time>2021-07-04T20:04:49.236Z</time>
      </trkpt>
      <trkpt lat="43.730939" lon="5.204558">
        <ele>118.379628</ele>
        <time>2021-07-04T20:04:51.568Z</time>
      </trkpt>
      <trkpt lat="43.730808" lon="5.205490">
        <ele>118.701986</ele>
        <time>2021-07-04T20:05:08.000Z</time>
      </trkpt>
      <trkpt lat="43.730797" lon="5.205571">
        <ele>118.733332</ele>
        <time>2021-07-04T20:05:09.330Z</time>
      </trkpt>
      <trkpt lat="43.730749" lon="5.205912">
        <ele>118.865464</ele>
        <time>2021-07-04T20:05:15.390Z</time>
      </trkpt>
      <trkpt lat="43.730335" lon="5.208722">
        <ele>119.993415</ele>
        <time>2021-07-04T20:06:06.441Z</time>
      </trkpt>
      <trkpt lat="43.730227" lon="5.209457">
        <ele>120.302988</ele>
        <time>2021-07-04T20:06:19.854Z</time>
      </trkpt>
      <trkpt lat="43.730204" lon="5.209612">
        <ele>120.368298</ele>
        <time>2021-07-04T20:06:22.636Z</time>
      </trkpt>
      <trkpt lat="43.730179" lon="5.209826">
        <ele>120.457771</ele>
        <time>2021-07-04T20:06:26.544Z</time>
      </trkpt>
      <trkpt lat="43.730156" lon="5.210023">
        <ele>120.540136</ele>
        <time>2021-07-04T20:06:30.026Z</time>
      </trkpt>
      <trkpt lat="43.730148" lon="5.210093">
        <ele>120.559743</ele>
        <time>2021-07-04T20:06:31.301Z</time>
      </trkpt>
      <trkpt lat="43.730119" lon="5.210590">
        <ele>120.677937</ele>
        <time>2021-07-04T20:06:40.089Z</time>
      </trkpt>
      <trkpt lat="43.730110" lon="5.211013">
        <ele>120.778250</ele>
        <time>2021-07-04T20:06:47.487Z</time>
      </trkpt>
      <trkpt lat="43.730101" lon="5.211424">
        <ele>120.875719</ele>
        <time>2021-07-04T20:06:54.567Z</time>
      </trkpt>
      <trkpt lat="43.730090" lon="5.211726">
        <ele>120.947397</ele>
        <time>2021-07-04T20:06:59.595Z</time>
      </trkpt>
      <trkpt lat="43.729939" lon="5.213330">
        <ele>121.133745</ele>
        <time>2021-07-04T20:07:26.241Z</time>
      </trkpt>
      <trkpt lat="43.729821" lon="5.214188">
        <ele>121.130530</ele>
        <time>2021-07-04T20:07:40.225Z</time>
      </trkpt>
      <trkpt lat="43.729691" lon="5.215229">
        <ele>121.121225</ele>
        <time>2021-07-04T20:07:56.983Z</time>
      </trkpt>
      <trkpt lat="43.729484" lon="5.216885">
        <ele>121.079951</ele>
        <time>2021-07-04T20:08:23.614Z</time>
      </trkpt>
      <trkpt lat="43.729399" lon="5.217447">
        <ele>121.069351</ele>
        <time>2021-07-04T20:08:33.101Z</time>
      </trkpt>
      <trkpt lat="43.729351" lon="5.217752">
        <ele>121.105198</ele>
        <time>2021-07-04T20:08:38.455Z</time>
      </trkpt>
      <trkpt lat="43.729162" lon="5.218572">
        <ele>121.204040</ele>
        <time>2021-07-04T20:08:52.333Z</time>
      </trkpt>
      <trkpt lat="43.729110" lon="5.218824">
        <ele>121.234137</ele>
        <time>2021-07-04T20:08:56.589Z</time>
      </trkpt>
      <trkpt lat="43.728921" lon="5.219532">
        <ele>121.320814</ele>
        <time>2021-07-04T20:09:08.852Z</time>
      </trkpt>
      <trkpt lat="43.728915" lon="5.219562">
        <ele>121.324389</ele>
        <time>2021-07-04T20:09:09.548Z</time>
      </trkpt>
      <trkpt lat="43.728909" lon="5.219588">
        <ele>121.327523</ele>
        <time>2021-07-04T20:09:09.979Z</time>
      </trkpt>
      <trkpt lat="43.728894" lon="5.219659">
        <ele>121.336018</ele>
        <time>2021-07-04T20:09:11.155Z</time>
      </trkpt>
      <trkpt lat="43.728868" lon="5.219777">
        <ele>121.350185</ele>
        <time>2021-07-04T20:09:13.238Z</time>
      </trkpt>
      <trkpt lat="43.728836" lon="5.219953">
        <ele>121.409831</ele>
        <time>2021-07-04T20:09:16.351Z</time>
      </trkpt>
      <trkpt lat="43.728814" lon="5.220071">
        <ele>121.452841</ele>
        <time>2021-07-04T20:09:18.571Z</time>
      </trkpt>
      <trkpt lat="43.728752" lon="5.220618">
        <ele>121.648256</ele>
        <time>2021-07-04T20:09:28.253Z</time>
      </trkpt>
      <trkpt lat="43.728695" lon="5.221125">
        <ele>121.829346</ele>
        <time>2021-07-04T20:09:37.394Z</time>
      </trkpt>
      <trkpt lat="43.728462" lon="5.222973">
        <ele>122.571443</ele>
        <time>2021-07-04T20:10:10.597Z</time>
      </trkpt>
      <trkpt lat="43.728455" lon="5.223029">
        <ele>122.597659</ele>
        <time>2021-07-04T20:10:11.626Z</time>
      </trkpt>
      <trkpt lat="43.728415" lon="5.223819">
        <ele>122.962972</ele>
        <time>2021-07-04T20:10:26.312Z</time>
      </trkpt>
      <trkpt lat="43.728360" lon="5.225680">
        <ele>123.666916</ele>
        <time>2021-07-04T20:10:59.274Z</time>
      </trkpt>
      <trkpt lat="43.728353" lon="5.226648">
        <ele>123.957056</ele>
        <time>2021-07-04T20:11:15.885Z</time>
      </trkpt>
      <trkpt lat="43.728353" lon="5.226719">
        <ele>123.978336</ele>
        <time>2021-07-04T20:11:17.080Z</time>
      </trkpt>
      <trkpt lat="43.728350" lon="5.227000">
        <ele>124.062565</ele>
        <time>2021-07-04T20:11:21.859Z</time>
      </trkpt>
      <trkpt lat="43.728390" lon="5.228581">
        <ele>124.439487</ele>
        <time>2021-07-04T20:11:48.568Z</time>
      </trkpt>
      <trkpt lat="43.728530" lon="5.233120">
        <ele>125.563995</ele>
        <time>2021-07-04T20:13:06.590Z</time>
      </trkpt>
      <trkpt lat="43.728520" lon="5.233830">
        <ele>125.724087</ele>
        <time>2021-07-04T20:13:18.710Z</time>
      </trkpt>
      <trkpt lat="43.728438" lon="5.235366">
        <ele>126.091002</ele>
        <time>2021-07-04T20:13:44.358Z</time>
      </trkpt>
      <trkpt lat="43.728364" lon="5.236754">
        <ele>126.443916</ele>
        <time>2021-07-04T20:14:08.343Z</time>
      </trkpt>
      <trkpt lat="43.728272" lon="5.238495">
        <ele>127.085946</ele>
        <time>2021-07-04T20:14:39.211Z</time>
      </trkpt>
      <trkpt lat="43.728230" lon="5.239250">
        <ele>127.389922</ele>
        <time>2021-07-04T20:14:53.025Z</time>
      </trkpt>
      <trkpt lat="43.728157" lon="5.241505">
        <ele>127.980852</ele>
        <time>2021-07-04T20:15:31.906Z</time>
      </trkpt>
      <trkpt lat="43.727848" lon="5.241584">
        <ele>128.082269</ele>
        <time>2021-07-04T20:15:39.030Z</time>
      </trkpt>
      <trkpt lat="43.725984" lon="5.242349">
        <ele>128.583829</ele>
        <time>2021-07-04T20:16:23.443Z</time>
      </trkpt>
      <trkpt lat="43.725632" lon="5.242507">
        <ele>128.987053</ele>
        <time>2021-07-04T20:16:32.636Z</time>
      </trkpt>
      <trkpt lat="43.724428" lon="5.243085">
        <ele>130.375679</ele>
        <time>2021-07-04T20:17:07.290Z</time>
      </trkpt>
      <trkpt lat="43.724180" lon="5.243160">
        <ele>130.790010</ele>
        <time>2021-07-04T20:17:14.475Z</time>
      </trkpt>
      <trkpt lat="43.723981" lon="5.243077">
        <ele>131.265366</ele>
        <time>2021-07-04T20:17:20.378Z</time>
      </trkpt>
      <trkpt lat="43.723813" lon="5.242963">
        <ele>131.693310</ele>
        <time>2021-07-04T20:17:26.070Z</time>
      </trkpt>
      <trkpt lat="43.723738" lon="5.242938">
        <ele>131.869748</ele>
        <time>2021-07-04T20:17:28.313Z</time>
      </trkpt>
      <trkpt lat="43.723632" lon="5.242933">
        <ele>132.112320</ele>
        <time>2021-07-04T20:17:31.509Z</time>
      </trkpt>
      <trkpt lat="43.723488" lon="5.242958">
        <ele>132.444243</ele>
        <time>2021-07-04T20:17:36.041Z</time>
      </trkpt>
      <trkpt lat="43.722680" lon="5.243305">
        <ele>134.379165</ele>
        <time>2021-07-04T20:18:03.172Z</time>
      </trkpt>
      <trkpt lat="43.721042" lon="5.244009">
        <ele>140.033679</ele>
        <time>2021-07-04T20:19:04.495Z</time>
      </trkpt>
      <trkpt lat="43.720895" lon="5.244124">
        <ele>140.602564</ele>
        <time>2021-07-04T20:19:10.478Z</time>
      </trkpt>
      <trkpt lat="43.720830" lon="5.244250">
        <ele>141.013790</ele>
        <time>2021-07-04T20:19:15.181Z</time>
      </trkpt>
      <trkpt lat="43.720818" lon="5.244390">
        <ele>141.399173</ele>
        <time>2021-07-04T20:19:18.827Z</time>
      </trkpt>
      <trkpt lat="43.720814" lon="5.244480">
        <ele>141.645660</ele>
        <time>2021-07-04T20:19:21.183Z</time>
      </trkpt>
      <trkpt lat="43.720801" lon="5.244536">
        <ele>141.806444</ele>
        <time>2021-07-04T20:19:22.710Z</time>
      </trkpt>
      <trkpt lat="43.720750" lon="5.244629">
        <ele>142.125568</ele>
        <time>2021-07-04T20:19:26.043Z</time>
      </trkpt>
      <trkpt lat="43.720696" lon="5.244657">
        <ele>142.343686</ele>
        <time>2021-07-04T20:19:28.500Z</time>
      </trkpt>
      <trkpt lat="43.720496" lon="5.244747">
        <ele>143.139161</ele>
        <time>2021-07-04T20:19:36.187Z</time>
      </trkpt>
      <trkpt lat="43.720295" lon="5.244836">
        <ele>143.937396</ele>
        <time>2021-07-04T20:19:44.497Z</time>
      </trkpt>
      <trkpt lat="43.720084" lon="5.244922">
        <ele>144.769381</ele>
        <time>2021-07-04T20:19:52.596Z</time>
      </trkpt>
      <trkpt lat="43.719883" lon="5.244990">
        <ele>145.552032</ele>
        <time>2021-07-04T20:20:00.582Z</time>
      </trkpt>
      <trkpt lat="43.719696" lon="5.245074">
        <ele>146.295675</ele>
        <time>2021-07-04T20:20:07.864Z</time>
      </trkpt>
      <trkpt lat="43.719633" lon="5.245102">
        <ele>146.545956</ele>
        <time>2021-07-04T20:20:10.460Z</time>
      </trkpt>
      <trkpt lat="43.719381" lon="5.245215">
        <ele>147.550647</ele>
        <time>2021-07-04T20:20:19.698Z</time>
      </trkpt>
      <trkpt lat="43.719141" lon="5.245322">
        <ele>148.562351</ele>
        <time>2021-07-04T20:20:28.917Z</time>
      </trkpt>
      <trkpt lat="43.718536" lon="5.245593">
        <ele>151.113823</ele>
        <time>2021-07-04T20:20:53.036Z</time>
      </trkpt>
      <trkpt lat="43.718226" lon="5.245734">
        <ele>152.423115</ele>
        <time>2021-07-04T20:21:05.972Z</time>
      </trkpt>
      <trkpt lat="43.718092" lon="5.245737">
        <ele>152.960833</ele>
        <time>2021-07-04T20:21:11.428Z</time>
      </trkpt>
      <trkpt lat="43.718016" lon="5.245764">
        <ele>153.275658</ele>
        <time>2021-07-04T20:21:14.364Z</time>
      </trkpt>
      <trkpt lat="43.717908" lon="5.245846">
        <ele>153.769942</ele>
        <time>2021-07-04T20:21:19.199Z</time>
      </trkpt>
      <trkpt lat="43.717871" lon="5.245862">
        <ele>153.925479</ele>
        <time>2021-07-04T20:21:20.761Z</time>
      </trkpt>
      <trkpt lat="43.716778" lon="5.246327">
        <ele>159.320138</ele>
        <time>2021-07-04T20:22:05.294Z</time>
      </trkpt>
      <trkpt lat="43.716532" lon="5.246432">
        <ele>160.572667</ele>
        <time>2021-07-04T20:22:16.232Z</time>
      </trkpt>
      <trkpt lat="43.715731" lon="5.246783">
        <ele>164.862641</ele>
        <time>2021-07-04T20:22:54.559Z</time>
      </trkpt>
      <trkpt lat="43.714885" lon="5.247154">
        <ele>169.913735</ele>
        <time>2021-07-04T20:23:34.221Z</time>
      </trkpt>
      <trkpt lat="43.714651" lon="5.247254">
        <ele>171.307632</ele>
        <time>2021-07-04T20:23:45.558Z</time>
      </trkpt>
      <trkpt lat="43.714576" lon="5.247201">
        <ele>171.786953</ele>
        <time>2021-07-04T20:23:49.252Z</time>
      </trkpt>
      <trkpt lat="43.714388" lon="5.246969">
        <ele>173.220750</ele>
        <time>2021-07-04T20:24:00.633Z</time>
      </trkpt>
      <trkpt lat="43.714229" lon="5.246768">
        <ele>174.404573</ele>
        <time>2021-07-04T20:24:10.093Z</time>
      </trkpt>
      <trkpt lat="43.714094" lon="5.246637">
        <ele>175.289728</ele>
        <time>2021-07-04T20:24:18.061Z</time>
      </trkpt>
      <trkpt lat="43.713984" lon="5.246556">
        <ele>175.958633</ele>
        <time>2021-07-04T20:24:23.203Z</time>
      </trkpt>
      <trkpt lat="43.713730" lon="5.246418">
        <ele>177.423466</ele>
        <time>2021-07-04T20:24:35.302Z</time>
      </trkpt>
      <trkpt lat="43.712926" lon="5.245982">
        <ele>182.059025</ele>
        <time>2021-07-04T20:25:10.106Z</time>
      </trkpt>
      <trkpt lat="43.712682" lon="5.245792">
        <ele>183.667477</ele>
        <time>2021-07-04T20:25:22.117Z</time>
      </trkpt>
      <trkpt lat="43.712628" lon="5.245749">
        <ele>184.178907</ele>
        <time>2021-07-04T20:25:24.988Z</time>
      </trkpt>
      <trkpt lat="43.712484" lon="5.245640">
        <ele>185.526265</ele>
        <time>2021-07-04T20:25:34.914Z</time>
      </trkpt>
      <trkpt lat="43.712036" lon="5.245331">
        <ele>189.635286</ele>
        <time>2021-07-04T20:26:00.332Z</time>
      </trkpt>
      <trkpt lat="43.711834" lon="5.245335">
        <ele>191.293546</ele>
        <time>2021-07-04T20:26:12.595Z</time>
      </trkpt>
      <trkpt lat="43.711743" lon="5.245333">
        <ele>192.040602</ele>
        <time>2021-07-04T20:26:17.218Z</time>
      </trkpt>
      <trkpt lat="43.711346" lon="5.245299">
        <ele>195.305562</ele>
        <time>2021-07-04T20:26:39.664Z</time>
      </trkpt>
      <trkpt lat="43.711262" lon="5.245319">
        <ele>196.005202</ele>
        <time>2021-07-04T20:26:44.384Z</time>
      </trkpt>
      <trkpt lat="43.711228" lon="5.245328">
        <ele>196.289349</ele>
        <time>2021-07-04T20:26:46.131Z</time>
      </trkpt>
      <trkpt lat="43.711178" lon="5.245340">
        <ele>196.705897</ele>
        <time>2021-07-04T20:26:51.496Z</time>
      </trkpt>
      <trkpt lat="43.710743" lon="5.245566">
        <ele>201.091848</ele>
        <time>2021-07-04T20:27:19.289Z</time>
      </trkpt>
      <trkpt lat="43.710148" lon="5.246029">
        <ele>208.034239</ele>
        <time>2021-07-04T20:28:04.817Z</time>
      </trkpt>
      <trkpt lat="43.709423" lon="5.246091">
        <ele>215.421221</ele>
        <time>2021-07-04T20:28:50.914Z</time>
      </trkpt>
      <trkpt lat="43.709164" lon="5.246260">
        <ele>217.990071</ele>
        <time>2021-07-04T20:29:07.654Z</time>
      </trkpt>
      <trkpt lat="43.708702" lon="5.246725">
        <ele>222.758795</ele>
        <time>2021-07-04T20:29:40.532Z</time>
      </trkpt>
      <trkpt lat="43.708420" lon="5.247591">
        <ele>228.489446</ele>
        <time>2021-07-04T20:30:18.582Z</time>
      </trkpt>
      <trkpt lat="43.708275" lon="5.247769">
        <ele>230.107501</ele>
        <time>2021-07-04T20:30:28.702Z</time>
      </trkpt>
      <trkpt lat="43.708183" lon="5.247799">
        <ele>230.896432</ele>
        <time>2021-07-04T20:30:33.587Z</time>
      </trkpt>
      <trkpt lat="43.707993" lon="5.247757">
        <ele>232.236165</ele>
        <time>2021-07-04T20:30:43.206Z</time>
      </trkpt>
      <trkpt lat="43.707733" lon="5.247564">
        <ele>234.087224</ele>
        <time>2021-07-04T20:30:57.547Z</time>
      </trkpt>
      <trkpt lat="43.707214" lon="5.246992">
        <ele>238.250068</ele>
        <time>2021-07-04T20:31:28.203Z</time>
      </trkpt>
      <trkpt lat="43.706955" lon="5.246789">
        <ele>240.117541</ele>
        <time>2021-07-04T20:31:41.544Z</time>
      </trkpt>
      <trkpt lat="43.706306" lon="5.246647">
        <ele>244.311450</ele>
        <time>2021-07-04T20:32:11.772Z</time>
      </trkpt>
      <trkpt lat="43.705681" lon="5.245873">
        <ele>249.821921</ele>
        <time>2021-07-04T20:32:51.572Z</time>
      </trkpt>
      <trkpt lat="43.704689" lon="5.245746">
        <ele>256.706200</ele>
        <time>2021-07-04T20:33:42.087Z</time>
      </trkpt>
      <trkpt lat="43.704498" lon="5.245779">
        <ele>258.204668</ele>
        <time>2021-07-04T20:33:52.273Z</time>
      </trkpt>
      <trkpt lat="43.704014" lon="5.246082">
        <ele>262.340463</ele>
        <time>2021-07-04T20:34:20.945Z</time>
      </trkpt>
      <trkpt lat="43.703449" lon="5.246610">
        <ele>267.648608</ele>
        <time>2021-07-04T20:34:58.160Z</time>
      </trkpt>
      <trkpt lat="43.702034" lon="5.246982">
        <ele>279.631743</ele>
        <time>2021-07-04T20:36:17.070Z</time>
      </trkpt>
      <trkpt lat="43.701717" lon="5.247177">
        <ele>282.533991</ele>
        <time>2021-07-04T20:36:35.484Z</time>
      </trkpt>
      <trkpt lat="43.701481" lon="5.247491">
        <ele>285.540974</ele>
        <time>2021-07-04T20:36:56.029Z</time>
      </trkpt>
      <trkpt lat="43.701298" lon="5.247856">
        <ele>288.651460</ele>
        <time>2021-07-04T20:37:15.673Z</time>
      </trkpt>
      <trkpt lat="43.701107" lon="5.248892">
        <ele>296.138459</ele>
        <time>2021-07-04T20:38:03.604Z</time>
      </trkpt>
      <trkpt lat="43.701004" lon="5.249089">
        <ele>297.840959</ele>
        <time>2021-07-04T20:38:12.284Z</time>
      </trkpt>
      <trkpt lat="43.700924" lon="5.249159">
        <ele>298.757890</ele>
        <time>2021-07-04T20:38:19.047Z</time>
      </trkpt>
      <trkpt lat="43.700840" lon="5.249211">
        <ele>299.649306</ele>
        <time>2021-07-04T20:38:25.341Z</time>
      </trkpt>
      <trkpt lat="43.700577" lon="5.249298">
        <ele>302.158490</ele>
        <time>2021-07-04T20:38:41.867Z</time>
      </trkpt>
      <trkpt lat="43.700336" lon="5.249277">
        <ele>304.294403</ele>
        <time>2021-07-04T20:38:57.449Z</time>
      </trkpt>
      <trkpt lat="43.700211" lon="5.249356">
        <ele>305.509995</ele>
        <time>2021-07-04T20:39:08.066Z</time>
      </trkpt>
      <trkpt lat="43.699913" lon="5.250704">
        <ele>314.524126</ele>
        <time>2021-07-04T20:40:07.238Z</time>
      </trkpt>
      <trkpt lat="43.699875" lon="5.250781">
        <ele>315.120306</ele>
        <time>2021-07-04T20:40:12.092Z</time>
      </trkpt>
      <trkpt lat="43.699738" lon="5.250988">
        <ele>316.912338</ele>
        <time>2021-07-04T20:40:20.725Z</time>
      </trkpt>
      <trkpt lat="43.699438" lon="5.251227">
        <ele>318.511482</ele>
        <time>2021-07-04T20:40:35.959Z</time>
      </trkpt>
      <trkpt lat="43.699514" lon="5.251626">
        <ele>319.889405</ele>
        <time>2021-07-04T20:40:48.820Z</time>
      </trkpt>
      <trkpt lat="43.699514" lon="5.251861">
        <ele>320.674182</ele>
        <time>2021-07-04T20:40:54.790Z</time>
      </trkpt>
      <trkpt lat="43.699342" lon="5.252521">
        <ele>323.017062</ele>
        <time>2021-07-04T20:41:16.444Z</time>
      </trkpt>
      <trkpt lat="43.699377" lon="5.253001">
        <ele>324.628149</ele>
        <time>2021-07-04T20:41:27.433Z</time>
      </trkpt>
      <trkpt lat="43.699277" lon="5.253143">
        <ele>325.290450</ele>
        <time>2021-07-04T20:41:31.736Z</time>
      </trkpt>
      <trkpt lat="43.698534" lon="5.252543">
        <ele>329.281438</ele>
        <time>2021-07-04T20:42:02.498Z</time>
      </trkpt>
      <trkpt lat="43.697973" lon="5.251688">
        <ele>333.153704</ele>
        <time>2021-07-04T20:42:39.784Z</time>
      </trkpt>
      <trkpt lat="43.697763" lon="5.251206">
        <ele>336.021301</ele>
        <time>2021-07-04T20:42:59.893Z</time>
      </trkpt>
      <trkpt lat="43.697544" lon="5.251139">
        <ele>337.750851</ele>
        <time>2021-07-04T20:43:11.233Z</time>
      </trkpt>
      <trkpt lat="43.697221" lon="5.251432">
        <ele>340.729421</ele>
        <time>2021-07-04T20:43:31.397Z</time>
      </trkpt>
      <trkpt lat="43.697077" lon="5.251478">
        <ele>341.869051</ele>
        <time>2021-07-04T20:43:39.212Z</time>
      </trkpt>
      <trkpt lat="43.696522" lon="5.251253">
        <ele>346.328769</ele>
        <time>2021-07-04T20:44:11.475Z</time>
      </trkpt>
      <trkpt lat="43.695835" lon="5.250517">
        <ele>355.041332</ele>
        <time>2021-07-04T20:45:03.572Z</time>
      </trkpt>
      <trkpt lat="43.695505" lon="5.250514">
        <ele>358.500355</ele>
        <time>2021-07-04T20:45:23.445Z</time>
      </trkpt>
      <trkpt lat="43.694933" lon="5.250241">
        <ele>364.842801</ele>
        <time>2021-07-04T20:46:05.581Z</time>
      </trkpt>
      <trkpt lat="43.694584" lon="5.250275">
        <ele>368.741218</ele>
        <time>2021-07-04T20:46:30.986Z</time>
      </trkpt>
      <trkpt lat="43.694156" lon="5.250204">
        <ele>373.728788</ele>
        <time>2021-07-04T20:47:03.265Z</time>
      </trkpt>
      <trkpt lat="43.693890" lon="5.250249">
        <ele>376.829419</ele>
        <time>2021-07-04T20:47:21.434Z</time>
      </trkpt>
      <trkpt lat="43.693792" lon="5.250245">
        <ele>377.963799</ele>
        <time>2021-07-04T20:47:29.528Z</time>
      </trkpt>
      <trkpt lat="43.693657" lon="5.250196">
        <ele>379.578680</ele>
        <time>2021-07-04T20:47:39.698Z</time>
      </trkpt>
      <trkpt lat="43.693449" lon="5.250190">
        <ele>381.985820</ele>
        <time>2021-07-04T20:47:53.235Z</time>
      </trkpt>
      <trkpt lat="43.692766" lon="5.250447">
        <ele>387.993348</ele>
        <time>2021-07-04T20:48:38.033Z</time>
      </trkpt>
      <trkpt lat="43.692493" lon="5.250467">
        <ele>388.916396</ele>
        <time>2021-07-04T20:48:53.569Z</time>
      </trkpt>
      <trkpt lat="43.692183" lon="5.250079">
        <ele>390.328063</ele>
        <time>2021-07-04T20:49:12.832Z</time>
      </trkpt>
      <trkpt lat="43.691548" lon="5.249671">
        <ele>392.692157</ele>
        <time>2021-07-04T20:49:26.226Z</time>
      </trkpt>
      <trkpt lat="43.691219" lon="5.249387">
        <ele>391.845189</ele>
        <time>2021-07-04T20:49:32.489Z</time>
      </trkpt>
      <trkpt lat="43.691154" lon="5.249285">
        <ele>391.319439</ele>
        <time>2021-07-04T20:49:33.991Z</time>
      </trkpt>
      <trkpt lat="43.690983" lon="5.248705">
        <ele>388.897319</ele>
        <time>2021-07-04T20:49:40.674Z</time>
      </trkpt>
      <trkpt lat="43.690856" lon="5.248462">
        <ele>387.737882</ele>
        <time>2021-07-04T20:49:43.868Z</time>
      </trkpt>
      <trkpt lat="43.690582" lon="5.248221">
        <ele>386.001292</ele>
        <time>2021-07-04T20:49:48.535Z</time>
      </trkpt>
      <trkpt lat="43.690375" lon="5.248121">
        <ele>384.828667</ele>
        <time>2021-07-04T20:49:51.638Z</time>
      </trkpt>
      <trkpt lat="43.690189" lon="5.248189">
        <ele>383.799777</ele>
        <time>2021-07-04T20:49:54.407Z</time>
      </trkpt>
      <trkpt lat="43.690006" lon="5.248555">
        <ele>382.789209</ele>
        <time>2021-07-04T20:49:59.023Z</time>
      </trkpt>
      <trkpt lat="43.689879" lon="5.249728">
        <ele>380.420025</ele>
        <time>2021-07-04T20:50:13.454Z</time>
      </trkpt>
      <trkpt lat="43.689047" lon="5.251199">
        <ele>377.123895</ele>
        <time>2021-07-04T20:50:41.473Z</time>
      </trkpt>
      <trkpt lat="43.688803" lon="5.251517">
        <ele>376.410573</ele>
        <time>2021-07-04T20:50:47.917Z</time>
      </trkpt>
      <trkpt lat="43.688615" lon="5.251551">
        <ele>376.007187</ele>
        <time>2021-07-04T20:50:51.300Z</time>
      </trkpt>
      <trkpt lat="43.688233" lon="5.251451">
        <ele>375.180029</ele>
        <time>2021-07-04T20:50:57.842Z</time>
      </trkpt>
      <trkpt lat="43.687815" lon="5.251472">
        <ele>373.292600</ele>
        <time>2021-07-04T20:51:04.104Z</time>
      </trkpt>
      <trkpt lat="43.687606" lon="5.251419">
        <ele>371.865478</ele>
        <time>2021-07-04T20:51:07.068Z</time>
      </trkpt>
      <trkpt lat="43.687308" lon="5.251145">
        <ele>369.461990</ele>
        <time>2021-07-04T20:51:12.140Z</time>
      </trkpt>
      <trkpt lat="43.687106" lon="5.250692">
        <ele>366.877211</ele>
        <time>2021-07-04T20:51:17.583Z</time>
      </trkpt>
      <trkpt lat="43.686937" lon="5.250518">
        <ele>365.462108</ele>
        <time>2021-07-04T20:51:20.771Z</time>
      </trkpt>
      <trkpt lat="43.686819" lon="5.250484">
        <ele>364.652559</ele>
        <time>2021-07-04T20:51:22.398Z</time>
      </trkpt>
      <trkpt lat="43.686553" lon="5.250405">
        <ele>362.825274</ele>
        <time>2021-07-04T20:51:26.376Z</time>
      </trkpt>
      <trkpt lat="43.686496" lon="5.250400">
        <ele>362.460843</ele>
        <time>2021-07-04T20:51:27.171Z</time>
      </trkpt>
      <trkpt lat="43.686440" lon="5.250426">
        <ele>362.097072</ele>
        <time>2021-07-04T20:51:27.955Z</time>
      </trkpt>
      <trkpt lat="43.686407" lon="5.250488">
        <ele>361.754254</ele>
        <time>2021-07-04T20:51:28.787Z</time>
      </trkpt>
      <trkpt lat="43.686372" lon="5.251117">
        <ele>358.944966</ele>
        <time>2021-07-04T20:51:35.380Z</time>
      </trkpt>
      <trkpt lat="43.686439" lon="5.251504">
        <ele>357.172910</ele>
        <time>2021-07-04T20:51:39.476Z</time>
      </trkpt>
      <trkpt lat="43.686384" lon="5.251706">
        <ele>356.211730</ele>
        <time>2021-07-04T20:51:41.815Z</time>
      </trkpt>
      <trkpt lat="43.686228" lon="5.251908">
        <ele>354.895665</ele>
        <time>2021-07-04T20:51:44.903Z</time>
      </trkpt>
      <trkpt lat="43.686043" lon="5.252120">
        <ele>353.416090</ele>
        <time>2021-07-04T20:51:48.553Z</time>
      </trkpt>
      <trkpt lat="43.685857" lon="5.252273">
        <ele>352.083360</ele>
        <time>2021-07-04T20:51:51.958Z</time>
      </trkpt>
      <trkpt lat="43.685781" lon="5.252314">
        <ele>351.579540</ele>
        <time>2021-07-04T20:51:53.186Z</time>
      </trkpt>
      <trkpt lat="43.685641" lon="5.252343">
        <ele>350.623940</ele>
        <time>2021-07-04T20:51:55.422Z</time>
      </trkpt>
      <trkpt lat="43.685459" lon="5.252328">
        <ele>349.393186</ele>
        <time>2021-07-04T20:51:58.186Z</time>
      </trkpt>
      <trkpt lat="43.685352" lon="5.252289">
        <ele>348.646225</ele>
        <time>2021-07-04T20:51:59.830Z</time>
      </trkpt>
      <trkpt lat="43.684877" lon="5.251964">
        <ele>345.068761</ele>
        <time>2021-07-04T20:52:07.616Z</time>
      </trkpt>
      <trkpt lat="43.684732" lon="5.251913">
        <ele>344.058787</ele>
        <time>2021-07-04T20:52:09.729Z</time>
      </trkpt>
      <trkpt lat="43.683826" lon="5.251703">
        <ele>336.871431</ele>
        <time>2021-07-04T20:52:22.567Z</time>
      </trkpt>
      <trkpt lat="43.683257" lon="5.251926">
        <ele>330.413758</ele>
        <time>2021-07-04T20:52:30.569Z</time>
      </trkpt>
      <trkpt lat="43.682793" lon="5.251833">
        <ele>325.294358</ele>
        <time>2021-07-04T20:52:36.822Z</time>
      </trkpt>
      <trkpt lat="43.682252" lon="5.251867">
        <ele>319.280533</ele>
        <time>2021-07-04T20:52:44.040Z</time>
      </trkpt>
      <trkpt lat="43.681399" lon="5.251338">
        <ele>306.708538</ele>
        <time>2021-07-04T20:52:56.243Z</time>
      </trkpt>
      <trkpt lat="43.680829" lon="5.251221">
        <ele>298.959192</ele>
        <time>2021-07-04T20:53:03.784Z</time>
      </trkpt>
      <trkpt lat="43.680580" lon="5.251129">
        <ele>295.522204</ele>
        <time>2021-07-04T20:53:07.165Z</time>
      </trkpt>
      <trkpt lat="43.680472" lon="5.251114">
        <ele>294.379569</ele>
        <time>2021-07-04T20:53:08.588Z</time>
      </trkpt>
      <trkpt lat="43.680178" lon="5.251163">
        <ele>291.262237</ele>
        <time>2021-07-04T20:53:12.518Z</time>
      </trkpt>
      <trkpt lat="43.679784" lon="5.251376">
        <ele>286.808872</ele>
        <time>2021-07-04T20:53:18.162Z</time>
      </trkpt>
      <trkpt lat="43.679625" lon="5.251547">
        <ele>284.688396</ele>
        <time>2021-07-04T20:53:20.885Z</time>
      </trkpt>
      <trkpt lat="43.679525" lon="5.251666">
        <ele>283.299524</ele>
        <time>2021-07-04T20:53:22.671Z</time>
      </trkpt>
      <trkpt lat="43.679293" lon="5.252126">
        <ele>279.029937</ele>
        <time>2021-07-04T20:53:28.197Z</time>
      </trkpt>
      <trkpt lat="43.679226" lon="5.252270">
        <ele>277.726341</ele>
        <time>2021-07-04T20:53:29.956Z</time>
      </trkpt>
      <trkpt lat="43.678975" lon="5.252905">
        <ele>274.276875</ele>
        <time>2021-07-04T20:53:37.616Z</time>
      </trkpt>
      <trkpt lat="43.678890" lon="5.253042">
        <ele>273.535130</ele>
        <time>2021-07-04T20:53:39.499Z</time>
      </trkpt>
      <trkpt lat="43.678677" lon="5.253207">
        <ele>272.147899</ele>
        <time>2021-07-04T20:53:43.075Z</time>
      </trkpt>
      <trkpt lat="43.678508" lon="5.253227">
        <ele>271.184150</ele>
        <time>2021-07-04T20:53:45.630Z</time>
      </trkpt>
      <trkpt lat="43.678087" lon="5.253253">
        <ele>268.789691</ele>
        <time>2021-07-04T20:53:52.139Z</time>
      </trkpt>
      <trkpt lat="43.676735" lon="5.253348">
        <ele>261.691808</ele>
        <time>2021-07-04T20:54:12.657Z</time>
      </trkpt>
      <trkpt lat="43.676037" lon="5.253729">
        <ele>257.899134</ele>
        <time>2021-07-04T20:54:23.905Z</time>
      </trkpt>
      <trkpt lat="43.675941" lon="5.253757">
        <ele>257.403269</ele>
        <time>2021-07-04T20:54:25.334Z</time>
      </trkpt>
      <trkpt lat="43.675858" lon="5.253782">
        <ele>257.016781</ele>
        <time>2021-07-04T20:54:26.587Z</time>
      </trkpt>
      <trkpt lat="43.675491" lon="5.253819">
        <ele>255.352022</ele>
        <time>2021-07-04T20:54:32.130Z</time>
      </trkpt>
      <trkpt lat="43.675027" lon="5.253871">
        <ele>253.245947</ele>
        <time>2021-07-04T20:54:39.224Z</time>
      </trkpt>
      <trkpt lat="43.674784" lon="5.253925">
        <ele>252.132477</ele>
        <time>2021-07-04T20:54:42.893Z</time>
      </trkpt>
      <trkpt lat="43.674298" lon="5.254186">
        <ele>249.773715</ele>
        <time>2021-07-04T20:54:51.011Z</time>
      </trkpt>
      <trkpt lat="43.674046" lon="5.254382">
        <ele>248.799099</ele>
        <time>2021-07-04T20:54:55.781Z</time>
      </trkpt>
      <trkpt lat="43.673480" lon="5.254843">
        <ele>247.098431</ele>
        <time>2021-07-04T20:55:07.089Z</time>
      </trkpt>
      <trkpt lat="43.673315" lon="5.255172">
        <ele>246.348768</ele>
        <time>2021-07-04T20:55:12.047Z</time>
      </trkpt>
      <trkpt lat="43.673223" lon="5.255838">
        <ele>245.079135</ele>
        <time>2021-07-04T20:55:20.315Z</time>
      </trkpt>
      <trkpt lat="43.673063" lon="5.256080">
        <ele>244.476428</ele>
        <time>2021-07-04T20:55:24.461Z</time>
      </trkpt>
      <trkpt lat="43.672864" lon="5.256296">
        <ele>243.880996</ele>
        <time>2021-07-04T20:55:28.900Z</time>
      </trkpt>
      <trkpt lat="43.672414" lon="5.256789">
        <ele>242.529733</ele>
        <time>2021-07-04T20:55:38.921Z</time>
      </trkpt>
      <trkpt lat="43.672145" lon="5.257088">
        <ele>241.717415</ele>
        <time>2021-07-04T20:55:44.913Z</time>
      </trkpt>
      <trkpt lat="43.671635" lon="5.257864">
        <ele>239.821803</ele>
        <time>2021-07-04T20:55:57.779Z</time>
      </trkpt>
      <trkpt lat="43.671438" lon="5.258081">
        <ele>239.073788</ele>
        <time>2021-07-04T20:56:01.936Z</time>
      </trkpt>
      <trkpt lat="43.670474" lon="5.258644">
        <ele>235.966046</ele>
        <time>2021-07-04T20:56:19.137Z</time>
      </trkpt>
      <trkpt lat="43.670223" lon="5.258728">
        <ele>235.199124</ele>
        <time>2021-07-04T20:56:23.306Z</time>
      </trkpt>
      <trkpt lat="43.669610" lon="5.258878">
        <ele>233.277876</ele>
        <time>2021-07-04T20:56:33.557Z</time>
      </trkpt>
      <trkpt lat="43.669326" lon="5.258983">
        <ele>232.366787</ele>
        <time>2021-07-04T20:56:38.375Z</time>
      </trkpt>
      <trkpt lat="43.669161" lon="5.259118">
        <ele>231.772585</ele>
        <time>2021-07-04T20:56:41.370Z</time>
      </trkpt>
      <trkpt lat="43.668801" lon="5.259414">
        <ele>230.474479</ele>
        <time>2021-07-04T20:56:48.173Z</time>
      </trkpt>
      <trkpt lat="43.668396" lon="5.259695">
        <ele>229.205871</ele>
        <time>2021-07-04T20:56:55.740Z</time>
      </trkpt>
      <trkpt lat="43.668275" lon="5.259778">
        <ele>228.940903</ele>
        <time>2021-07-04T20:56:57.944Z</time>
      </trkpt>
      <trkpt lat="43.667905" lon="5.259920">
        <ele>228.187655</ele>
        <time>2021-07-04T20:57:04.563Z</time>
      </trkpt>
      <trkpt lat="43.667415" lon="5.260108">
        <ele>227.190130</ele>
        <time>2021-07-04T20:57:13.751Z</time>
      </trkpt>
      <trkpt lat="43.667071" lon="5.260293">
        <ele>226.466071</ele>
        <time>2021-07-04T20:57:20.402Z</time>
      </trkpt>
      <trkpt lat="43.666145" lon="5.261169">
        <ele>225.027051</ele>
        <time>2021-07-04T20:57:41.483Z</time>
      </trkpt>
      <trkpt lat="43.666020" lon="5.261267">
        <ele>224.875609</ele>
        <time>2021-07-04T20:57:44.421Z</time>
      </trkpt>
      <trkpt lat="43.665845" lon="5.261348">
        <ele>224.681122</ele>
        <time>2021-07-04T20:57:47.961Z</time>
      </trkpt>
      <trkpt lat="43.665537" lon="5.261450">
        <ele>224.347351</ele>
        <time>2021-07-04T20:57:54.411Z</time>
      </trkpt>
      <trkpt lat="43.663659" lon="5.261908">
        <ele>222.318338</ele>
        <time>2021-07-04T20:58:30.817Z</time>
      </trkpt>
      <trkpt lat="43.663535" lon="5.261939">
        <ele>222.184013</ele>
        <time>2021-07-04T20:58:33.264Z</time>
      </trkpt>
      <trkpt lat="43.663384" lon="5.261932">
        <ele>222.029335</ele>
        <time>2021-07-04T20:58:36.048Z</time>
      </trkpt>
      <trkpt lat="43.663153" lon="5.261807">
        <ele>221.787100</ele>
        <time>2021-07-04T20:58:40.886Z</time>
      </trkpt>
      <trkpt lat="43.662529" lon="5.261173">
        <ele>221.030889</ele>
        <time>2021-07-04T20:58:56.269Z</time>
      </trkpt>
      <trkpt lat="43.662441" lon="5.261139">
        <ele>220.941665</ele>
        <time>2021-07-04T20:58:57.980Z</time>
      </trkpt>
      <trkpt lat="43.662356" lon="5.261106">
        <ele>220.855452</ele>
        <time>2021-07-04T20:58:59.884Z</time>
      </trkpt>
      <trkpt lat="43.662115" lon="5.261048">
        <ele>220.616580</ele>
        <time>2021-07-04T20:59:04.795Z</time>
      </trkpt>
      <trkpt lat="43.661727" lon="5.261051">
        <ele>220.098386</ele>
        <time>2021-07-04T20:59:12.028Z</time>
      </trkpt>
      <trkpt lat="43.661224" lon="5.261186">
        <ele>218.933261</ele>
        <time>2021-07-04T20:59:21.324Z</time>
      </trkpt>
      <trkpt lat="43.661007" lon="5.261244">
        <ele>218.430688</ele>
        <time>2021-07-04T20:59:25.309Z</time>
      </trkpt>
      <trkpt lat="43.660861" lon="5.261345">
        <ele>218.059446</ele>
        <time>2021-07-04T20:59:28.177Z</time>
      </trkpt>
      <trkpt lat="43.660721" lon="5.261424">
        <ele>217.715598</ele>
        <time>2021-07-04T20:59:30.892Z</time>
      </trkpt>
      <trkpt lat="43.660597" lon="5.261416">
        <ele>217.433329</ele>
        <time>2021-07-04T20:59:32.958Z</time>
      </trkpt>
      <trkpt lat="43.660479" lon="5.261436">
        <ele>217.163000</ele>
        <time>2021-07-04T20:59:35.085Z</time>
      </trkpt>
      <trkpt lat="43.659444" lon="5.262009">
        <ele>213.583402</ele>
        <time>2021-07-04T20:59:53.701Z</time>
      </trkpt>
      <trkpt lat="43.659129" lon="5.262233">
        <ele>212.260162</ele>
        <time>2021-07-04T20:59:59.418Z</time>
      </trkpt>
      <trkpt lat="43.658470" lon="5.261943">
        <ele>209.676774</ele>
        <time>2021-07-04T21:00:10.535Z</time>
      </trkpt>
      <trkpt lat="43.658329" lon="5.261889">
        <ele>209.269167</ele>
        <time>2021-07-04T21:00:12.771Z</time>
      </trkpt>
      <trkpt lat="43.658141" lon="5.261856">
        <ele>208.804881</ele>
        <time>2021-07-04T21:00:15.940Z</time>
      </trkpt>
      <trkpt lat="43.657963" lon="5.261878">
        <ele>208.367054</ele>
        <time>2021-07-04T21:00:18.673Z</time>
      </trkpt>
      <trkpt lat="43.657780" lon="5.261900">
        <ele>207.917024</ele>
        <time>2021-07-04T21:00:21.713Z</time>
      </trkpt>
      <trkpt lat="43.657211" lon="5.262310">
        <ele>206.344964</ele>
        <time>2021-07-04T21:00:32.618Z</time>
      </trkpt>
      <trkpt lat="43.657090" lon="5.262340">
        <ele>206.043791</ele>
        <time>2021-07-04T21:00:34.938Z</time>
      </trkpt>
      <trkpt lat="43.656968" lon="5.262367">
        <ele>205.741093</ele>
        <time>2021-07-04T21:00:36.990Z</time>
      </trkpt>
      <trkpt lat="43.656757" lon="5.262345">
        <ele>205.222689</ele>
        <time>2021-07-04T21:00:41.454Z</time>
      </trkpt>
      <trkpt lat="43.656342" lon="5.262322">
        <ele>205.123264</ele>
        <time>2021-07-04T21:00:49.425Z</time>
      </trkpt>
      <trkpt lat="43.655244" lon="5.262175">
        <ele>205.111152</ele>
        <time>2021-07-04T21:01:13.335Z</time>
      </trkpt>
      <trkpt lat="43.655139" lon="5.262475">
        <ele>205.108505</ele>
        <time>2021-07-04T21:01:19.993Z</time>
      </trkpt>
      <trkpt lat="43.655130" lon="5.262506">
        <ele>205.108240</ele>
        <time>2021-07-04T21:01:20.654Z</time>
      </trkpt>
      <trkpt lat="43.655076" lon="5.262664">
        <ele>205.298975</ele>
        <time>2021-07-04T21:01:24.250Z</time>
      </trkpt>
      <trkpt lat="43.655057" lon="5.262716">
        <ele>205.409984</ele>
        <time>2021-07-04T21:01:25.474Z</time>
      </trkpt>
      <trkpt lat="43.654978" lon="5.262900">
        <ele>205.817698</ele>
        <time>2021-07-04T21:01:30.223Z</time>
      </trkpt>
      <trkpt lat="43.654887" lon="5.263074">
        <ele>206.226823</ele>
        <time>2021-07-04T21:01:34.839Z</time>
      </trkpt>
      <trkpt lat="43.654700" lon="5.263397">
        <ele>207.015124</ele>
        <time>2021-07-04T21:01:44.345Z</time>
      </trkpt>
      <trkpt lat="43.654596" lon="5.263541">
        <ele>207.402844</ele>
        <time>2021-07-04T21:01:48.842Z</time>
      </trkpt>
      <trkpt lat="43.654408" lon="5.263712">
        <ele>207.995599</ele>
        <time>2021-07-04T21:01:56.671Z</time>
      </trkpt>
      <trkpt lat="43.654359" lon="5.263793">
        <ele>208.196796</ele>
        <time>2021-07-04T21:01:58.918Z</time>
      </trkpt>
      <trkpt lat="43.654245" lon="5.264118">
        <ele>208.885060</ele>
        <time>2021-07-04T21:02:07.668Z</time>
      </trkpt>
      <trkpt lat="43.654073" lon="5.264457">
        <ele>209.674068</ele>
        <time>2021-07-04T21:02:18.419Z</time>
      </trkpt>
      <trkpt lat="43.653829" lon="5.264547">
        <ele>210.954386</ele>
        <time>2021-07-04T21:02:28.050Z</time>
      </trkpt>
      <trkpt lat="43.653704" lon="5.264589">
        <ele>211.714865</ele>
        <time>2021-07-04T21:02:33.525Z</time>
      </trkpt>
      <trkpt lat="43.653591" lon="5.264584">
        <ele>212.383224</ele>
        <time>2021-07-04T21:02:38.302Z</time>
      </trkpt>
      <trkpt lat="43.653469" lon="5.264585">
        <ele>213.104459</ele>
        <time>2021-07-04T21:02:43.377Z</time>
      </trkpt>
      <trkpt lat="43.653444" lon="5.264592">
        <ele>213.255252</ele>
        <time>2021-07-04T21:02:44.585Z</time>
      </trkpt>
      <trkpt lat="43.653373" lon="5.264625">
        <ele>213.698078</ele>
        <time>2021-07-04T21:02:48.006Z</time>
      </trkpt>
      <trkpt lat="43.653321" lon="5.264720">
        <ele>214.207597</ele>
        <time>2021-07-04T21:02:52.108Z</time>
      </trkpt>
      <trkpt lat="43.653263" lon="5.265179">
        <ele>216.200576</ele>
        <time>2021-07-04T21:03:07.950Z</time>
      </trkpt>
      <trkpt lat="43.653264" lon="5.265329">
        <ele>216.842192</ele>
        <time>2021-07-04T21:03:13.163Z</time>
      </trkpt>
      <trkpt lat="43.652745" lon="5.265413">
        <ele>219.931307</ele>
        <time>2021-07-04T21:03:40.173Z</time>
      </trkpt>
      <trkpt lat="43.652378" lon="5.265477">
        <ele>222.246227</ele>
        <time>2021-07-04T21:04:00.007Z</time>
      </trkpt>
      <trkpt lat="43.652085" lon="5.265526">
        <ele>224.127283</ele>
        <time>2021-07-04T21:04:15.460Z</time>
      </trkpt>
      <trkpt lat="43.651829" lon="5.265576">
        <ele>225.775110</ele>
        <time>2021-07-04T21:04:28.981Z</time>
      </trkpt>
      <trkpt lat="43.651680" lon="5.265591">
        <ele>226.727277</ele>
        <time>2021-07-04T21:04:36.734Z</time>
      </trkpt>
      <trkpt lat="43.651504" lon="5.265609">
        <ele>227.852079</ele>
        <time>2021-07-04T21:04:45.882Z</time>
      </trkpt>
      <trkpt lat="43.650943" lon="5.265667">
        <ele>231.437601</ele>
        <time>2021-07-04T21:05:12.243Z</time>
      </trkpt>
      <trkpt lat="43.650662" lon="5.265737">
        <ele>232.188723</ele>
        <time>2021-07-04T21:05:23.266Z</time>
      </trkpt>
      <trkpt lat="43.650494" lon="5.265814">
        <ele>232.400657</ele>
        <time>2021-07-04T21:05:29.959Z</time>
      </trkpt>
      <trkpt lat="43.650185" lon="5.265983">
        <ele>232.798566</ele>
        <time>2021-07-04T21:05:40.175Z</time>
      </trkpt>
      <trkpt lat="43.649925" lon="5.266091">
        <ele>233.123642</ele>
        <time>2021-07-04T21:05:47.064Z</time>
      </trkpt>
      <trkpt lat="43.649693" lon="5.266202">
        <ele>233.417610</ele>
        <time>2021-07-04T21:05:52.830Z</time>
      </trkpt>
      <trkpt lat="43.649372" lon="5.266116">
        <ele>233.809125</ele>
        <time>2021-07-04T21:05:59.917Z</time>
      </trkpt>
      <trkpt lat="43.649299" lon="5.266068">
        <ele>233.905922</ele>
        <time>2021-07-04T21:06:01.395Z</time>
      </trkpt>
      <trkpt lat="43.649133" lon="5.265816">
        <ele>233.877696</ele>
        <time>2021-07-04T21:06:06.543Z</time>
      </trkpt>
      <trkpt lat="43.649031" lon="5.265524">
        <ele>233.301420</ele>
        <time>2021-07-04T21:06:10.957Z</time>
      </trkpt>
      <trkpt lat="43.648982" lon="5.265276">
        <ele>232.844518</ele>
        <time>2021-07-04T21:06:14.464Z</time>
      </trkpt>
      <trkpt lat="43.648983" lon="5.265067">
        <ele>232.473057</ele>
        <time>2021-07-04T21:06:16.988Z</time>
      </trkpt>
      <trkpt lat="43.649012" lon="5.264867">
        <ele>232.110534</ele>
        <time>2021-07-04T21:06:19.766Z</time>
      </trkpt>
      <trkpt lat="43.649029" lon="5.264814">
        <ele>232.007498</ele>
        <time>2021-07-04T21:06:20.451Z</time>
      </trkpt>
      <trkpt lat="43.649034" lon="5.264726">
        <ele>231.850615</ele>
        <time>2021-07-04T21:06:21.500Z</time>
      </trkpt>
      <trkpt lat="43.649012" lon="5.264642">
        <ele>231.691845</ele>
        <time>2021-07-04T21:06:22.515Z</time>
      </trkpt>
      <trkpt lat="43.648996" lon="5.264613">
        <ele>231.627030</ele>
        <time>2021-07-04T21:06:22.917Z</time>
      </trkpt>
      <trkpt lat="43.648931" lon="5.264554">
        <ele>231.436019</ele>
        <time>2021-07-04T21:06:24.229Z</time>
      </trkpt>
      <trkpt lat="43.648854" lon="5.264547">
        <ele>231.246480</ele>
        <time>2021-07-04T21:06:25.600Z</time>
      </trkpt>
      <trkpt lat="43.648834" lon="5.264554">
        <ele>231.195805</ele>
        <time>2021-07-04T21:06:25.924Z</time>
      </trkpt>
      <trkpt lat="43.648771" lon="5.264610">
        <ele>231.011818</ele>
        <time>2021-07-04T21:06:27.156Z</time>
      </trkpt>
      <trkpt lat="43.648735" lon="5.264701">
        <ele>230.827491</ele>
        <time>2021-07-04T21:06:28.364Z</time>
      </trkpt>
      <trkpt lat="43.648732" lon="5.264721">
        <ele>230.791189</ele>
        <time>2021-07-04T21:06:28.592Z</time>
      </trkpt>
      <trkpt lat="43.648623" lon="5.264875">
        <ele>230.408316</ele>
        <time>2021-07-04T21:06:31.238Z</time>
      </trkpt>
      <trkpt lat="43.648583" lon="5.264823">
        <ele>230.273430</ele>
        <time>2021-07-04T21:06:32.445Z</time>
      </trkpt>
      <trkpt lat="43.648402" lon="5.264879">
        <ele>229.817847</ele>
        <time>2021-07-04T21:06:36.544Z</time>
      </trkpt>
      <trkpt lat="43.648192" lon="5.265056">
        <ele>229.066626</ele>
        <time>2021-07-04T21:06:42.360Z</time>
      </trkpt>
      <trkpt lat="43.648152" lon="5.265110">
        <ele>228.885715</ele>
        <time>2021-07-04T21:06:43.621Z</time>
      </trkpt>
      <trkpt lat="43.648098" lon="5.265164">
        <ele>228.670067</ele>
        <time>2021-07-04T21:06:44.669Z</time>
      </trkpt>
      <trkpt lat="43.647576" lon="5.265780">
        <ele>226.449295</ele>
        <time>2021-07-04T21:06:56.562Z</time>
      </trkpt>
      <trkpt lat="43.647200" lon="5.266247">
        <ele>224.813720</ele>
        <time>2021-07-04T21:07:05.049Z</time>
      </trkpt>
      <trkpt lat="43.647072" lon="5.266407">
        <ele>224.255326</ele>
        <time>2021-07-04T21:07:08.050Z</time>
      </trkpt>
      <trkpt lat="43.646897" lon="5.266618">
        <ele>223.458702</ele>
        <time>2021-07-04T21:07:11.842Z</time>
      </trkpt>
      <trkpt lat="43.646369" lon="5.267268">
        <ele>220.878679</ele>
        <time>2021-07-04T21:07:23.794Z</time>
      </trkpt>
      <trkpt lat="43.645691" lon="5.268140">
        <ele>217.499300</ele>
        <time>2021-07-04T21:07:39.242Z</time>
      </trkpt>
      <trkpt lat="43.645445" lon="5.268422">
        <ele>216.214032</ele>
        <time>2021-07-04T21:07:44.546Z</time>
      </trkpt>
      <trkpt lat="43.645489" lon="5.268545">
        <ele>215.806937</ele>
        <time>2021-07-04T21:07:46.257Z</time>
      </trkpt>
      <trkpt lat="43.644909" lon="5.269288">
        <ele>212.564251</ele>
        <time>2021-07-04T21:07:58.615Z</time>
      </trkpt>
      <trkpt lat="43.644482" lon="5.269859">
        <ele>210.127989</ele>
        <time>2021-07-04T21:08:07.779Z</time>
      </trkpt>
      <trkpt lat="43.644189" lon="5.270438">
        <ele>208.314068</ele>
        <time>2021-07-04T21:08:15.686Z</time>
      </trkpt>
      <trkpt lat="43.643983" lon="5.270901">
        <ele>206.942499</ele>
        <time>2021-07-04T21:08:21.829Z</time>
      </trkpt>
      <trkpt lat="43.643899" lon="5.271052">
        <ele>206.461864</ele>
        <time>2021-07-04T21:08:23.937Z</time>
      </trkpt>
      <trkpt lat="43.643758" lon="5.271276">
        <ele>205.712661</ele>
        <time>2021-07-04T21:08:27.379Z</time>
      </trkpt>
      <trkpt lat="43.643718" lon="5.271331">
        <ele>205.515883</ele>
        <time>2021-07-04T21:08:28.321Z</time>
      </trkpt>
      <trkpt lat="43.643667" lon="5.271400">
        <ele>205.266986</ele>
        <time>2021-07-04T21:08:29.431Z</time>
      </trkpt>
      <trkpt lat="43.643293" lon="5.271905">
        <ele>203.717388</ele>
        <time>2021-07-04T21:08:38.220Z</time>
      </trkpt>
      <trkpt lat="43.642964" lon="5.272338">
        <ele>204.251043</ele>
        <time>2021-07-04T21:08:47.619Z</time>
      </trkpt>
      <trkpt lat="43.642823" lon="5.272511">
        <ele>204.472518</ele>
        <time>2021-07-04T21:08:52.183Z</time>
      </trkpt>
      <trkpt lat="43.642729" lon="5.272612">
        <ele>204.612376</ele>
        <time>2021-07-04T21:08:56.176Z</time>
      </trkpt>
      <trkpt lat="43.642454" lon="5.272877">
        <ele>205.006166</ele>
        <time>2021-07-04T21:09:07.139Z</time>
      </trkpt>
      <trkpt lat="43.642163" lon="5.273083">
        <ele>205.390207</ele>
        <time>2021-07-04T21:09:17.812Z</time>
      </trkpt>
      <trkpt lat="43.641936" lon="5.273238">
        <ele>205.687610</ele>
        <time>2021-07-04T21:09:26.065Z</time>
      </trkpt>
      <trkpt lat="43.641750" lon="5.273349">
        <ele>205.820962</ele>
        <time>2021-07-04T21:09:33.365Z</time>
      </trkpt>
      <trkpt lat="43.641509" lon="5.273525">
        <ele>205.937586</ele>
        <time>2021-07-04T21:09:41.963Z</time>
      </trkpt>
      <trkpt lat="43.641201" lon="5.273874">
        <ele>206.108000</ele>
        <time>2021-07-04T21:09:54.932Z</time>
      </trkpt>
      <trkpt lat="43.640863" lon="5.274229">
        <ele>206.289641</ele>
        <time>2021-07-04T21:10:05.750Z</time>
      </trkpt>
      <trkpt lat="43.640357" lon="5.274851">
        <ele>205.856550</ele>
        <time>2021-07-04T21:10:17.992Z</time>
      </trkpt>
      <trkpt lat="43.640045" lon="5.275222">
        <ele>203.426172</ele>
        <time>2021-07-04T21:10:24.125Z</time>
      </trkpt>
      <trkpt lat="43.639428" lon="5.275954">
        <ele>198.624596</ele>
        <time>2021-07-04T21:10:35.721Z</time>
      </trkpt>
      <trkpt lat="43.639041" lon="5.276410">
        <ele>195.677738</ele>
        <time>2021-07-04T21:10:42.990Z</time>
      </trkpt>
      <trkpt lat="43.638711" lon="5.276790">
        <ele>193.634119</ele>
        <time>2021-07-04T21:10:49.209Z</time>
      </trkpt>
      <trkpt lat="43.638671" lon="5.276846">
        <ele>193.363220</ele>
        <time>2021-07-04T21:10:50.054Z</time>
      </trkpt>
      <trkpt lat="43.638516" lon="5.277028">
        <ele>192.395544</ele>
        <time>2021-07-04T21:10:53.069Z</time>
      </trkpt>
      <trkpt lat="43.638488" lon="5.277121">
        <ele>192.048747</ele>
        <time>2021-07-04T21:10:54.151Z</time>
      </trkpt>
      <trkpt lat="43.638481" lon="5.277256">
        <ele>191.582756</ele>
        <time>2021-07-04T21:10:55.640Z</time>
      </trkpt>
      <trkpt lat="43.638497" lon="5.277431">
        <ele>190.975451</ele>
        <time>2021-07-04T21:10:57.589Z</time>
      </trkpt>
      <trkpt lat="43.638310" lon="5.277534">
        <ele>190.017745</ele>
        <time>2021-07-04T21:11:00.657Z</time>
      </trkpt>
      <trkpt lat="43.637874" lon="5.277878">
        <ele>187.629203</ele>
        <time>2021-07-04T21:11:08.742Z</time>
      </trkpt>
      <trkpt lat="43.637035" lon="5.278831">
        <ele>186.362039</ele>
        <time>2021-07-04T21:11:29.462Z</time>
      </trkpt>
      <trkpt lat="43.636870" lon="5.279057">
        <ele>186.137954</ele>
        <time>2021-07-04T21:11:34.336Z</time>
      </trkpt>
      <trkpt lat="43.636272" lon="5.279802">
        <ele>185.610934</ele>
        <time>2021-07-04T21:11:52.130Z</time>
      </trkpt>
      <trkpt lat="43.635844" lon="5.280315">
        <ele>185.593950</ele>
        <time>2021-07-04T21:12:04.647Z</time>
      </trkpt>
      <trkpt lat="43.635433" lon="5.280803">
        <ele>185.577705</ele>
        <time>2021-07-04T21:12:17.015Z</time>
      </trkpt>
      <trkpt lat="43.632748" lon="5.284006">
        <ele>185.646140</ele>
        <time>2021-07-04T21:13:32.868Z</time>
      </trkpt>
      <trkpt lat="43.632671" lon="5.284092">
        <ele>185.684221</ele>
        <time>2021-07-04T21:13:35.360Z</time>
      </trkpt>
      <trkpt lat="43.629799" lon="5.287591">
        <ele>193.126712</ele>
        <time>2021-07-04T21:15:32.535Z</time>
      </trkpt>
      <trkpt lat="43.629034" lon="5.288549">
        <ele>196.255531</ele>
        <time>2021-07-04T21:16:07.760Z</time>
      </trkpt>
      <trkpt lat="43.627664" lon="5.290227">
        <ele>202.403969</ele>
        <time>2021-07-04T21:17:14.432Z</time>
      </trkpt>
      <trkpt lat="43.626975" lon="5.291060">
        <ele>205.618258</ele>
        <time>2021-07-04T21:17:48.455Z</time>
      </trkpt>
      <trkpt lat="43.626134" lon="5.292067">
        <ele>208.442089</ele>
        <time>2021-07-04T21:18:26.597Z</time>
      </trkpt>
      <trkpt lat="43.625616" lon="5.292703">
        <ele>210.093390</ele>
        <time>2021-07-04T21:18:47.242Z</time>
      </trkpt>
      <trkpt lat="43.625562" lon="5.292766">
        <ele>210.110873</ele>
        <time>2021-07-04T21:18:49.191Z</time>
      </trkpt>
      <trkpt lat="43.624505" lon="5.294051">
        <ele>210.459151</ele>
        <time>2021-07-04T21:19:21.586Z</time>
      </trkpt>
      <trkpt lat="43.623501" lon="5.295265">
        <ele>210.174261</ele>
        <time>2021-07-04T21:19:48.357Z</time>
      </trkpt>
      <trkpt lat="43.623197" lon="5.295633">
        <ele>210.039994</ele>
        <time>2021-07-04T21:19:56.942Z</time>
      </trkpt>
      <trkpt lat="43.623154" lon="5.295686">
        <ele>210.020851</ele>
        <time>2021-07-04T21:19:58.205Z</time>
      </trkpt>
      <trkpt lat="43.623095" lon="5.295758">
        <ele>209.994701</ele>
        <time>2021-07-04T21:19:59.818Z</time>
      </trkpt>
      <trkpt lat="43.622986" lon="5.295888">
        <ele>209.946866</ele>
        <time>2021-07-04T21:20:03.169Z</time>
      </trkpt>
      <trkpt lat="43.621895" lon="5.297213">
        <ele>210.109824</ele>
        <time>2021-07-04T21:20:37.798Z</time>
      </trkpt>
      <trkpt lat="43.621326" lon="5.297741">
        <ele>209.704852</ele>
        <time>2021-07-04T21:20:52.352Z</time>
      </trkpt>
      <trkpt lat="43.621249" lon="5.297822">
        <ele>209.550657</ele>
        <time>2021-07-04T21:20:54.473Z</time>
      </trkpt>
      <trkpt lat="43.621167" lon="5.297968">
        <ele>209.337536</ele>
        <time>2021-07-04T21:20:56.995Z</time>
      </trkpt>
      <trkpt lat="43.621163" lon="5.297974">
        <ele>209.328129</ele>
        <time>2021-07-04T21:20:57.077Z</time>
      </trkpt>
      <trkpt lat="43.621160" lon="5.297979">
        <ele>209.320639</ele>
        <time>2021-07-04T21:20:57.158Z</time>
      </trkpt>
      <trkpt lat="43.621101" lon="5.298095">
        <ele>209.157134</ele>
        <time>2021-07-04T21:20:59.094Z</time>
      </trkpt>
      <trkpt lat="43.621026" lon="5.298225">
        <ele>208.965413</ele>
        <time>2021-07-04T21:21:01.485Z</time>
      </trkpt>
      <trkpt lat="43.620997" lon="5.298274">
        <ele>208.892418</ele>
        <time>2021-07-04T21:21:02.292Z</time>
      </trkpt>
      <trkpt lat="43.620773" lon="5.298240">
        <ele>208.533400</ele>
        <time>2021-07-04T21:21:06.279Z</time>
      </trkpt>
      <trkpt lat="43.620525" lon="5.298212">
        <ele>208.136976</ele>
        <time>2021-07-04T21:21:10.576Z</time>
      </trkpt>
      <trkpt lat="43.620471" lon="5.298199">
        <ele>208.049648</ele>
        <time>2021-07-04T21:21:11.521Z</time>
      </trkpt>
      <trkpt lat="43.620395" lon="5.298200">
        <ele>207.928562</ele>
        <time>2021-07-04T21:21:12.835Z</time>
      </trkpt>
      <trkpt lat="43.620320" lon="5.298217">
        <ele>207.807476</ele>
        <time>2021-07-04T21:21:14.149Z</time>
      </trkpt>
      <trkpt lat="43.619607" lon="5.298595">
        <ele>206.642830</ele>
        <time>2021-07-04T21:21:26.872Z</time>
      </trkpt>
      <trkpt lat="43.619172" lon="5.298561">
        <ele>205.999962</ele>
        <time>2021-07-04T21:21:34.370Z</time>
      </trkpt>
      <trkpt lat="43.619084" lon="5.298552">
        <ele>205.869763</ele>
        <time>2021-07-04T21:21:35.974Z</time>
      </trkpt>
      <trkpt lat="43.618926" lon="5.298543">
        <ele>205.636437</ele>
        <time>2021-07-04T21:21:38.948Z</time>
      </trkpt>
      <trkpt lat="43.618861" lon="5.298535">
        <ele>205.540150</ele>
        <time>2021-07-04T21:21:40.174Z</time>
      </trkpt>
      <trkpt lat="43.618342" lon="5.298490">
        <ele>204.772860</ele>
        <time>2021-07-04T21:21:50.715Z</time>
      </trkpt>
      <trkpt lat="43.618260" lon="5.298479">
        <ele>204.651300</ele>
        <time>2021-07-04T21:21:52.582Z</time>
      </trkpt>
      <trkpt lat="43.618247" lon="5.298478">
        <ele>204.654176</ele>
        <time>2021-07-04T21:21:52.920Z</time>
      </trkpt>
      <trkpt lat="43.618047" lon="5.298457">
        <ele>205.027446</ele>
        <time>2021-07-04T21:21:57.517Z</time>
      </trkpt>
      <trkpt lat="43.617674" lon="5.298424">
        <ele>205.723014</ele>
        <time>2021-07-04T21:22:07.127Z</time>
      </trkpt>
      <trkpt lat="43.617377" lon="5.298503">
        <ele>206.285879</ele>
        <time>2021-07-04T21:22:15.859Z</time>
      </trkpt>
      <trkpt lat="43.615902" lon="5.299135">
        <ele>210.093968</ele>
        <time>2021-07-04T21:23:08.804Z</time>
      </trkpt>
      <trkpt lat="43.615697" lon="5.299456">
        <ele>211.130805</ele>
        <time>2021-07-04T21:23:19.754Z</time>
      </trkpt>
      <trkpt lat="43.615313" lon="5.300637">
        <ele>214.301337</ele>
        <time>2021-07-04T21:23:53.943Z</time>
      </trkpt>
      <trkpt lat="43.614994" lon="5.301220">
        <ele>216.306779</ele>
        <time>2021-07-04T21:24:14.126Z</time>
      </trkpt>
      <trkpt lat="43.613817" lon="5.302669">
        <ele>222.216518</ele>
        <time>2021-07-04T21:25:13.330Z</time>
      </trkpt>
      <trkpt lat="43.612896" lon="5.304117">
        <ele>227.264438</ele>
        <time>2021-07-04T21:26:04.480Z</time>
      </trkpt>
      <trkpt lat="43.612474" lon="5.304542">
        <ele>228.815542</ele>
        <time>2021-07-04T21:26:22.761Z</time>
      </trkpt>
      <trkpt lat="43.611995" lon="5.304904">
        <ele>230.424243</ele>
        <time>2021-07-04T21:26:41.511Z</time>
      </trkpt>
      <trkpt lat="43.611681" lon="5.305142">
        <ele>231.479514</ele>
        <time>2021-07-04T21:26:53.420Z</time>
      </trkpt>
      <trkpt lat="43.610584" lon="5.306316">
        <ele>234.973917</ele>
        <time>2021-07-04T21:27:38.218Z</time>
      </trkpt>
      <trkpt lat="43.608746" lon="5.308282">
        <ele>239.937930</ele>
        <time>2021-07-04T21:28:50.399Z</time>
      </trkpt>
      <trkpt lat="43.608652" lon="5.308416">
        <ele>240.211109</ele>
        <time>2021-07-04T21:28:54.681Z</time>
      </trkpt>
      <trkpt lat="43.607221" lon="5.310541">
        <ele>242.316316</ele>
        <time>2021-07-04T21:29:49.644Z</time>
      </trkpt>
      <trkpt lat="43.606274" lon="5.311496">
        <ele>242.514501</ele>
        <time>2021-07-04T21:30:15.202Z</time>
      </trkpt>
      <trkpt lat="43.606254" lon="5.311513">
        <ele>242.518470</ele>
        <time>2021-07-04T21:30:15.618Z</time>
      </trkpt>
      <trkpt lat="43.605459" lon="5.312163">
        <ele>242.846634</ele>
        <time>2021-07-04T21:30:37.149Z</time>
      </trkpt>
      <trkpt lat="43.604975" lon="5.312554">
        <ele>243.140820</ele>
        <time>2021-07-04T21:30:50.656Z</time>
      </trkpt>
      <trkpt lat="43.604363" lon="5.312985">
        <ele>243.501244</ele>
        <time>2021-07-04T21:31:08.030Z</time>
      </trkpt>
      <trkpt lat="43.602954" lon="5.314235">
        <ele>244.527267</ele>
        <time>2021-07-04T21:31:50.578Z</time>
      </trkpt>
      <trkpt lat="43.602451" lon="5.314743">
        <ele>244.329641</ele>
        <time>2021-07-04T21:32:04.665Z</time>
      </trkpt>
      <trkpt lat="43.601829" lon="5.315394">
        <ele>243.759670</ele>
        <time>2021-07-04T21:32:20.045Z</time>
      </trkpt>
      <trkpt lat="43.601320" lon="5.315938">
        <ele>243.230668</ele>
        <time>2021-07-04T21:32:32.056Z</time>
      </trkpt>
      <trkpt lat="43.601096" lon="5.316131">
        <ele>242.766799</ele>
        <time>2021-07-04T21:32:36.859Z</time>
      </trkpt>
      <trkpt lat="43.600920" lon="5.316195">
        <ele>242.447042</ele>
        <time>2021-07-04T21:32:40.162Z</time>
      </trkpt>
      <trkpt lat="43.600595" lon="5.316212">
        <ele>241.875637</ele>
        <time>2021-07-04T21:32:46.107Z</time>
      </trkpt>
      <trkpt lat="43.600467" lon="5.316172">
        <ele>241.645066</ele>
        <time>2021-07-04T21:32:48.353Z</time>
      </trkpt>
      <trkpt lat="43.599932" lon="5.315896">
        <ele>240.641667</ele>
        <time>2021-07-04T21:32:58.573Z</time>
      </trkpt>
      <trkpt lat="43.599256" lon="5.315641">
        <ele>238.908091</ele>
        <time>2021-07-04T21:33:10.815Z</time>
      </trkpt>
      <trkpt lat="43.599008" lon="5.315630">
        <ele>238.184369</ele>
        <time>2021-07-04T21:33:15.011Z</time>
      </trkpt>
      <trkpt lat="43.598794" lon="5.315762">
        <ele>237.500747</ele>
        <time>2021-07-04T21:33:19.041Z</time>
      </trkpt>
      <trkpt lat="43.598363" lon="5.316348">
        <ele>235.736538</ele>
        <time>2021-07-04T21:33:29.037Z</time>
      </trkpt>
      <trkpt lat="43.597118" lon="5.317565">
        <ele>230.169827</ele>
        <time>2021-07-04T21:33:52.399Z</time>
      </trkpt>
      <trkpt lat="43.597089" lon="5.317593">
        <ele>230.034908</ele>
        <time>2021-07-04T21:33:52.878Z</time>
      </trkpt>
      <trkpt lat="43.596913" lon="5.317735">
        <ele>229.257711</ele>
        <time>2021-07-04T21:33:56.282Z</time>
      </trkpt>
      <trkpt lat="43.596791" lon="5.317754">
        <ele>228.789607</ele>
        <time>2021-07-04T21:33:58.450Z</time>
      </trkpt>
      <trkpt lat="43.596717" lon="5.317747">
        <ele>228.506803</ele>
        <time>2021-07-04T21:33:59.530Z</time>
      </trkpt>
      <trkpt lat="43.596674" lon="5.317742">
        <ele>228.342275</ele>
        <time>2021-07-04T21:34:00.257Z</time>
      </trkpt>
      <trkpt lat="43.596507" lon="5.317700">
        <ele>228.175828</ele>
        <time>2021-07-04T21:34:03.812Z</time>
      </trkpt>
      <trkpt lat="43.596408" lon="5.317673">
        <ele>228.287620</ele>
        <time>2021-07-04T21:34:05.466Z</time>
      </trkpt>
      <trkpt lat="43.595976" lon="5.317515">
        <ele>228.782697</ele>
        <time>2021-07-04T21:34:14.755Z</time>
      </trkpt>
      <trkpt lat="43.595692" lon="5.317452">
        <ele>229.101349</ele>
        <time>2021-07-04T21:34:21.967Z</time>
      </trkpt>
      <trkpt lat="43.595548" lon="5.317461">
        <ele>229.261037</ele>
        <time>2021-07-04T21:34:26.234Z</time>
      </trkpt>
      <trkpt lat="43.594475" lon="5.317639">
        <ele>231.657489</ele>
        <time>2021-07-04T21:35:04.893Z</time>
      </trkpt>
      <trkpt lat="43.593546" lon="5.317792">
        <ele>235.815953</ele>
        <time>2021-07-04T21:35:45.021Z</time>
      </trkpt>
      <trkpt lat="43.593403" lon="5.317833">
        <ele>236.465115</ele>
        <time>2021-07-04T21:35:50.684Z</time>
      </trkpt>
      <trkpt lat="43.593282" lon="5.317911">
        <ele>237.058659</ele>
        <time>2021-07-04T21:35:56.741Z</time>
      </trkpt>
      <trkpt lat="43.593162" lon="5.318075">
        <ele>237.809130</ele>
        <time>2021-07-04T21:36:02.972Z</time>
      </trkpt>
      <trkpt lat="43.592997" lon="5.318478">
        <ele>239.130648</ele>
        <time>2021-07-04T21:36:15.958Z</time>
      </trkpt>
      <trkpt lat="43.592680" lon="5.320135">
        <ele>243.899778</ele>
        <time>2021-07-04T21:37:04.164Z</time>
      </trkpt>
      <trkpt lat="43.591960" lon="5.321294">
        <ele>246.562703</ele>
        <time>2021-07-04T21:37:40.181Z</time>
      </trkpt>
      <trkpt lat="43.590905" lon="5.323449">
        <ele>249.256808</ele>
        <time>2021-07-04T21:38:31.136Z</time>
      </trkpt>
      <trkpt lat="43.589689" lon="5.324849">
        <ele>250.337608</ele>
        <time>2021-07-04T21:39:10.132Z</time>
      </trkpt>
      <trkpt lat="43.588411" lon="5.326865">
        <ele>250.987932</ele>
        <time>2021-07-04T21:39:55.386Z</time>
      </trkpt>
      <trkpt lat="43.588006" lon="5.327788">
        <ele>251.178235</ele>
        <time>2021-07-04T21:40:13.247Z</time>
      </trkpt>
      <trkpt lat="43.586952" lon="5.329020">
        <ele>251.919931</ele>
        <time>2021-07-04T21:40:46.209Z</time>
      </trkpt>
      <trkpt lat="43.584052" lon="5.334003">
        <ele>255.140072</ele>
        <time>2021-07-04T21:42:46.536Z</time>
      </trkpt>
      <trkpt lat="43.583683" lon="5.334858">
        <ele>254.566818</ele>
        <time>2021-07-04T21:43:00.782Z</time>
      </trkpt>
      <trkpt lat="43.583545" lon="5.335179">
        <ele>254.351814</ele>
        <time>2021-07-04T21:43:05.681Z</time>
      </trkpt>
      <trkpt lat="43.582673" lon="5.336018">
        <ele>252.581663</ele>
        <time>2021-07-04T21:43:24.155Z</time>
      </trkpt>
      <trkpt lat="43.579449" lon="5.340161">
        <ele>244.573836</ele>
        <time>2021-07-04T21:44:40.881Z</time>
      </trkpt>
      <trkpt lat="43.577253" lon="5.342771">
        <ele>249.328635</ele>
        <time>2021-07-04T21:46:08.533Z</time>
      </trkpt>
      <trkpt lat="43.576864" lon="5.343339">
        <ele>250.692151</ele>
        <time>2021-07-04T21:46:28.264Z</time>
      </trkpt>
      <trkpt lat="43.576510" lon="5.343984">
        <ele>252.012637</ele>
        <time>2021-07-04T21:46:47.194Z</time>
      </trkpt>
      <trkpt lat="43.576406" lon="5.344031">
        <ele>252.212181</ele>
        <time>2021-07-04T21:46:50.552Z</time>
      </trkpt>
      <trkpt lat="43.576305" lon="5.343980">
        <ele>252.408285</ele>
        <time>2021-07-04T21:46:54.150Z</time>
      </trkpt>
      <trkpt lat="43.576253" lon="5.344154">
        <ele>252.656930</ele>
        <time>2021-07-04T21:46:58.137Z</time>
      </trkpt>
      <trkpt lat="43.576168" lon="5.344439">
        <ele>253.064074</ele>
        <time>2021-07-04T21:47:05.153Z</time>
      </trkpt>
      <trkpt lat="43.575938" lon="5.345247">
        <ele>254.210891</ele>
        <time>2021-07-04T21:47:23.524Z</time>
      </trkpt>
      <trkpt lat="43.575760" lon="5.345858">
        <ele>255.059384</ele>
        <time>2021-07-04T21:47:36.452Z</time>
      </trkpt>
      <trkpt lat="43.575507" lon="5.346496">
        <ele>255.736647</ele>
        <time>2021-07-04T21:47:49.714Z</time>
      </trkpt>
      <trkpt lat="43.574995" lon="5.347080">
        <ele>256.590345</ele>
        <time>2021-07-04T21:48:08.135Z</time>
      </trkpt>
      <trkpt lat="43.574857" lon="5.347159">
        <ele>256.782369</ele>
        <time>2021-07-04T21:48:12.366Z</time>
      </trkpt>
      <trkpt lat="43.574760" lon="5.347225">
        <ele>256.921370</ele>
        <time>2021-07-04T21:48:15.388Z</time>
      </trkpt>
      <trkpt lat="43.574673" lon="5.347294">
        <ele>257.050338</ele>
        <time>2021-07-04T21:48:18.235Z</time>
      </trkpt>
      <trkpt lat="43.574650" lon="5.347288">
        <ele>257.080424</ele>
        <time>2021-07-04T21:48:18.890Z</time>
      </trkpt>
      <trkpt lat="43.574626" lon="5.347294">
        <ele>257.111773</ele>
        <time>2021-07-04T21:48:19.554Z</time>
      </trkpt>
      <trkpt lat="43.574605" lon="5.347308">
        <ele>257.141748</ele>
        <time>2021-07-04T21:48:20.223Z</time>
      </trkpt>
      <trkpt lat="43.574591" lon="5.347326">
        <ele>257.166340</ele>
        <time>2021-07-04T21:48:20.769Z</time>
      </trkpt>
      <trkpt lat="43.574578" lon="5.347359">
        <ele>257.201318</ele>
        <time>2021-07-04T21:48:21.539Z</time>
      </trkpt>
      <trkpt lat="43.574574" lon="5.347389">
        <ele>257.229723</ele>
        <time>2021-07-04T21:48:22.171Z</time>
      </trkpt>
      <trkpt lat="43.574576" lon="5.347419">
        <ele>257.257777</ele>
        <time>2021-07-04T21:48:22.740Z</time>
      </trkpt>
      <trkpt lat="43.574489" lon="5.347597">
        <ele>257.431667</ele>
        <time>2021-07-04T21:48:27.292Z</time>
      </trkpt>
      <trkpt lat="43.574468" lon="5.347556">
        <ele>257.469582</ele>
        <time>2021-07-04T21:48:28.124Z</time>
      </trkpt>
      <trkpt lat="43.574506" lon="5.347338">
        <ele>257.638891</ele>
        <time>2021-07-04T21:48:32.919Z</time>
      </trkpt>
      <trkpt lat="43.574212" lon="5.346454">
        <ele>258.373372</ele>
        <time>2021-07-04T21:48:52.686Z</time>
      </trkpt>
      <trkpt lat="43.574047" lon="5.346114">
        <ele>258.682382</ele>
        <time>2021-07-04T21:49:00.386Z</time>
      </trkpt>
      <trkpt lat="43.573762" lon="5.345723">
        <ele>259.101197</ele>
        <time>2021-07-04T21:49:10.010Z</time>
      </trkpt>
      <trkpt lat="43.573722" lon="5.345712">
        <ele>259.143707</ele>
        <time>2021-07-04T21:49:11.262Z</time>
      </trkpt>
      <trkpt lat="43.573609" lon="5.345761">
        <ele>259.068243</ele>
        <time>2021-07-04T21:49:13.589Z</time>
      </trkpt>
      <trkpt lat="43.573551" lon="5.345674">
        <ele>258.912758</ele>
        <time>2021-07-04T21:49:16.125Z</time>
      </trkpt>
      <trkpt lat="43.573521" lon="5.345630">
        <ele>258.833298</ele>
        <time>2021-07-04T21:49:16.986Z</time>
      </trkpt>
      <trkpt lat="43.573513" lon="5.345374">
        <ele>258.496316</ele>
        <time>2021-07-04T21:49:21.437Z</time>
      </trkpt>
      <trkpt lat="43.573505" lon="5.345351">
        <ele>258.462763</ele>
        <time>2021-07-04T21:49:21.739Z</time>
      </trkpt>
      <trkpt lat="43.573540" lon="5.345312">
        <ele>258.381111</ele>
        <time>2021-07-04T21:49:22.633Z</time>
      </trkpt>
      <trkpt lat="43.573495" lon="5.345210">
        <ele>258.224055</ele>
        <time>2021-07-04T21:49:25.168Z</time>
      </trkpt>
      <trkpt lat="43.573398" lon="5.345033">
        <ele>257.932186</ele>
        <time>2021-07-04T21:49:28.724Z</time>
      </trkpt>
      <trkpt lat="43.572891" lon="5.344445">
        <ele>256.730117</ele>
        <time>2021-07-04T21:49:40.039Z</time>
      </trkpt>
      <trkpt lat="43.572567" lon="5.343800">
        <ele>255.002799</ele>
        <time>2021-07-04T21:49:49.254Z</time>
      </trkpt>
      <trkpt lat="43.572368" lon="5.343644">
        <ele>253.341318</ele>
        <time>2021-07-04T21:49:52.671Z</time>
      </trkpt>
      <trkpt lat="43.572369" lon="5.343611">
        <ele>253.167591</ele>
        <time>2021-07-04T21:49:53.021Z</time>
      </trkpt>
      <trkpt lat="43.572312" lon="5.343527">
        <ele>252.562234</ele>
        <time>2021-07-04T21:49:54.350Z</time>
      </trkpt>
      <trkpt lat="43.572290" lon="5.343526">
        <ele>252.402429</ele>
        <time>2021-07-04T21:49:54.673Z</time>
      </trkpt>
      <trkpt lat="43.572257" lon="5.343377">
        <ele>251.582907</ele>
        <time>2021-07-04T21:49:56.236Z</time>
      </trkpt>
      <trkpt lat="43.571943" lon="5.343017">
        <ele>248.619423</ele>
        <time>2021-07-04T21:50:02.119Z</time>
      </trkpt>
      <trkpt lat="43.571639" lon="5.342851">
        <ele>246.245959</ele>
        <time>2021-07-04T21:50:06.666Z</time>
      </trkpt>
      <trkpt lat="43.570776" lon="5.342711">
        <ele>238.571788</ele>
        <time>2021-07-04T21:50:18.478Z</time>
      </trkpt>
      <trkpt lat="43.570309" lon="5.342802">
        <ele>233.554028</ele>
        <time>2021-07-04T21:50:24.853Z</time>
      </trkpt>
      <trkpt lat="43.569867" lon="5.342599">
        <ele>228.598000</ele>
        <time>2021-07-04T21:50:31.106Z</time>
      </trkpt>
      <trkpt lat="43.569608" lon="5.342819">
        <ele>225.362423</ele>
        <time>2021-07-04T21:50:35.193Z</time>
      </trkpt>
      <trkpt lat="43.568912" lon="5.343663">
        <ele>215.335905</ele>
        <time>2021-07-04T21:50:47.587Z</time>
      </trkpt>
      <trkpt lat="43.567907" lon="5.343933">
        <ele>204.218447</ele>
        <time>2021-07-04T21:51:01.415Z</time>
      </trkpt>
      <trkpt lat="43.567822" lon="5.343990">
        <ele>203.437777</ele>
        <time>2021-07-04T21:51:02.641Z</time>
      </trkpt>
      <trkpt lat="43.567738" lon="5.344114">
        <ele>202.425873</ele>
        <time>2021-07-04T21:51:04.330Z</time>
      </trkpt>
      <trkpt lat="43.567668" lon="5.344183">
        <ele>201.718178</ele>
        <time>2021-07-04T21:51:05.576Z</time>
      </trkpt>
      <trkpt lat="43.567503" lon="5.344160">
        <ele>200.353804</ele>
        <time>2021-07-04T21:51:07.812Z</time>
      </trkpt>
      <trkpt lat="43.567399" lon="5.344159">
        <ele>199.498167</ele>
        <time>2021-07-04T21:51:09.237Z</time>
      </trkpt>
      <trkpt lat="43.566917" lon="5.344311">
        <ele>195.430514</ele>
        <time>2021-07-04T21:51:16.240Z</time>
      </trkpt>
      <trkpt lat="43.566800" lon="5.344311">
        <ele>194.467946</ele>
        <time>2021-07-04T21:51:17.800Z</time>
      </trkpt>
      <trkpt lat="43.566668" lon="5.344338">
        <ele>193.370109</ele>
        <time>2021-07-04T21:51:19.680Z</time>
      </trkpt>
      <trkpt lat="43.565515" lon="5.344591">
        <ele>185.726822</ele>
        <time>2021-07-04T21:51:36.729Z</time>
      </trkpt>
      <trkpt lat="43.565124" lon="5.344620">
        <ele>183.625350</ele>
        <time>2021-07-04T21:51:42.512Z</time>
      </trkpt>
      <trkpt lat="43.563757" lon="5.344637">
        <ele>177.304320</ele>
        <time>2021-07-04T21:52:03.706Z</time>
      </trkpt>
      <trkpt lat="43.563522" lon="5.344605">
        <ele>176.408390</ele>
        <time>2021-07-04T21:52:07.386Z</time>
      </trkpt>
      <trkpt lat="43.563032" lon="5.344506">
        <ele>174.529491</ele>
        <time>2021-07-04T21:52:15.288Z</time>
      </trkpt>
      <trkpt lat="43.562610" lon="5.344433">
        <ele>172.919621</ele>
        <time>2021-07-04T21:52:22.194Z</time>
      </trkpt>
      <trkpt lat="43.562433" lon="5.344434">
        <ele>172.420232</ele>
        <time>2021-07-04T21:52:25.049Z</time>
      </trkpt>
      <trkpt lat="43.562226" lon="5.344467">
        <ele>171.832321</ele>
        <time>2021-07-04T21:52:28.557Z</time>
      </trkpt>
      <trkpt lat="43.560819" lon="5.345020">
        <ele>167.702333</ele>
        <time>2021-07-04T21:52:53.031Z</time>
      </trkpt>
      <trkpt lat="43.560402" lon="5.345040">
        <ele>166.506109</ele>
        <time>2021-07-04T21:53:00.025Z</time>
      </trkpt>
      <trkpt lat="43.559247" lon="5.344830">
        <ele>163.166210</ele>
        <time>2021-07-04T21:53:19.371Z</time>
      </trkpt>
      <trkpt lat="43.558977" lon="5.344796">
        <ele>162.392303</ele>
        <time>2021-07-04T21:53:23.726Z</time>
      </trkpt>
      <trkpt lat="43.558544" lon="5.344848">
        <ele>161.159786</ele>
        <time>2021-07-04T21:53:30.892Z</time>
      </trkpt>
      <trkpt lat="43.557756" lon="5.344976">
        <ele>158.909795</ele>
        <time>2021-07-04T21:53:44.088Z</time>
      </trkpt>
      <trkpt lat="43.557707" lon="5.345021">
        <ele>158.742885</ele>
        <time>2021-07-04T21:53:44.972Z</time>
      </trkpt>
      <trkpt lat="43.557640" lon="5.344933">
        <ele>158.480585</ele>
        <time>2021-07-04T21:53:46.544Z</time>
      </trkpt>
      <trkpt lat="43.557589" lon="5.344956">
        <ele>158.328434</ele>
        <time>2021-07-04T21:53:47.430Z</time>
      </trkpt>
      <trkpt lat="43.556373" lon="5.345053">
        <ele>155.616697</ele>
        <time>2021-07-04T21:54:09.384Z</time>
      </trkpt>
      <trkpt lat="43.555976" lon="5.345085">
        <ele>154.796243</ele>
        <time>2021-07-04T21:54:16.636Z</time>
      </trkpt>
      <trkpt lat="43.555436" lon="5.345274">
        <ele>153.761774</ele>
        <time>2021-07-04T21:54:27.375Z</time>
      </trkpt>
      <trkpt lat="43.553377" lon="5.345557">
        <ele>151.761080</ele>
        <time>2021-07-04T21:55:09.126Z</time>
      </trkpt>
      <trkpt lat="43.553190" lon="5.345977">
        <ele>151.590968</ele>
        <time>2021-07-04T21:55:16.811Z</time>
      </trkpt>
      <trkpt lat="43.552985" lon="5.346089">
        <ele>151.485977</ele>
        <time>2021-07-04T21:55:21.611Z</time>
      </trkpt>
      <trkpt lat="43.551884" lon="5.346196">
        <ele>151.166264</ele>
        <time>2021-07-04T21:55:46.076Z</time>
      </trkpt>
      <trkpt lat="43.551651" lon="5.346270">
        <ele>151.234563</ele>
        <time>2021-07-04T21:55:51.430Z</time>
      </trkpt>
      <trkpt lat="43.551040" lon="5.346272">
        <ele>151.409101</ele>
        <time>2021-07-04T21:56:06.060Z</time>
      </trkpt>
      <trkpt lat="43.550969" lon="5.346346">
        <ele>151.434519</ele>
        <time>2021-07-04T21:56:08.269Z</time>
      </trkpt>
      <trkpt lat="43.550846" lon="5.347117">
        <ele>151.597963</ele>
        <time>2021-07-04T21:56:23.406Z</time>
      </trkpt>
      <trkpt lat="43.550795" lon="5.347436">
        <ele>151.716012</ele>
        <time>2021-07-04T21:56:29.962Z</time>
      </trkpt>
      <trkpt lat="43.550514" lon="5.349503">
        <ele>152.501392</ele>
        <time>2021-07-04T21:57:09.371Z</time>
      </trkpt>
      <trkpt lat="43.549086" lon="5.349213">
        <ele>151.608794</ele>
        <time>2021-07-04T21:57:38.670Z</time>
      </trkpt>
      <trkpt lat="43.548228" lon="5.349044">
        <ele>150.709589</ele>
        <time>2021-07-04T21:57:54.522Z</time>
      </trkpt>
      <trkpt lat="43.547098" lon="5.348825">
        <ele>149.142049</ele>
        <time>2021-07-04T21:58:15.997Z</time>
      </trkpt>
      <trkpt lat="43.545822" lon="5.348570">
        <ele>146.646095</ele>
        <time>2021-07-04T21:58:39.059Z</time>
      </trkpt>
      <trkpt lat="43.545203" lon="5.348455">
        <ele>145.372141</ele>
        <time>2021-07-04T21:58:49.672Z</time>
      </trkpt>
      <trkpt lat="43.544814" lon="5.348361">
        <ele>144.496603</ele>
        <time>2021-07-04T21:58:56.392Z</time>
      </trkpt>
      <trkpt lat="43.544709" lon="5.348316">
        <ele>144.247442</ele>
        <time>2021-07-04T21:58:58.268Z</time>
      </trkpt>
      <trkpt lat="43.544630" lon="5.348276">
        <ele>144.056742</ele>
        <time>2021-07-04T21:58:59.660Z</time>
      </trkpt>
      <trkpt lat="43.544609" lon="5.348209">
        <ele>143.936840</ele>
        <time>2021-07-04T21:59:00.558Z</time>
      </trkpt>
      <trkpt lat="43.544517" lon="5.348130">
        <ele>143.691271</ele>
        <time>2021-07-04T21:59:02.413Z</time>
      </trkpt>
      <trkpt lat="43.544445" lon="5.348085">
        <ele>143.512147</ele>
        <time>2021-07-04T21:59:03.776Z</time>
      </trkpt>
      <trkpt lat="43.544400" lon="5.348072">
        <ele>143.407959</ele>
        <time>2021-07-04T21:59:04.561Z</time>
      </trkpt>
      <trkpt lat="43.544301" lon="5.348066">
        <ele>143.183395</ele>
        <time>2021-07-04T21:59:06.190Z</time>
      </trkpt>
      <trkpt lat="43.544187" lon="5.348094">
        <ele>142.920994</ele>
        <time>2021-07-04T21:59:08.181Z</time>
      </trkpt>
      <trkpt lat="43.544162" lon="5.348134">
        <ele>142.834238</ele>
        <time>2021-07-04T21:59:08.871Z</time>
      </trkpt>
      <trkpt lat="43.544011" lon="5.348191">
        <ele>142.479474</ele>
        <time>2021-07-04T21:59:11.522Z</time>
      </trkpt>
      <trkpt lat="43.543908" lon="5.348199">
        <ele>142.245692</ele>
        <time>2021-07-04T21:59:13.305Z</time>
      </trkpt>
      <trkpt lat="43.543695" lon="5.348190">
        <ele>141.762779</ele>
        <time>2021-07-04T21:59:17.034Z</time>
      </trkpt>
      <trkpt lat="43.542525" lon="5.348060">
        <ele>139.513723</ele>
        <time>2021-07-04T21:59:38.053Z</time>
      </trkpt>
      <trkpt lat="43.541746" lon="5.348096">
        <ele>138.106971</ele>
        <time>2021-07-04T21:59:52.204Z</time>
      </trkpt>
      <trkpt lat="43.540965" lon="5.348215">
        <ele>136.462410</ele>
        <time>2021-07-04T22:00:05.978Z</time>
      </trkpt>
      <trkpt lat="43.540240" lon="5.348354">
        <ele>134.889191</ele>
        <time>2021-07-04T22:00:18.578Z</time>
      </trkpt>
      <trkpt lat="43.539339" lon="5.348512">
        <ele>133.150761</ele>
        <time>2021-07-04T22:00:34.148Z</time>
      </trkpt>
      <trkpt lat="43.538802" lon="5.348534">
        <ele>132.226185</ele>
        <time>2021-07-04T22:00:43.548Z</time>
      </trkpt>
      <trkpt lat="43.537991" lon="5.348496">
        <ele>130.897349</ele>
        <time>2021-07-04T22:00:58.713Z</time>
      </trkpt>
      <trkpt lat="43.537431" lon="5.348448">
        <ele>130.707899</ele>
        <time>2021-07-04T22:01:10.209Z</time>
      </trkpt>
      <trkpt lat="43.536738" lon="5.348395">
        <ele>130.473547</ele>
        <time>2021-07-04T22:01:25.114Z</time>
      </trkpt>
      <trkpt lat="43.536367" lon="5.348401">
        <ele>130.348270</ele>
        <time>2021-07-04T22:01:33.422Z</time>
      </trkpt>
      <trkpt lat="43.536025" lon="5.348410">
        <ele>130.256396</ele>
        <time>2021-07-04T22:01:41.208Z</time>
      </trkpt>
      <trkpt lat="43.535138" lon="5.348586">
        <ele>130.050697</ele>
        <time>2021-07-04T22:02:01.148Z</time>
      </trkpt>
      <trkpt lat="43.533947" lon="5.349024">
        <ele>129.440877</ele>
        <time>2021-07-04T22:02:26.153Z</time>
      </trkpt>
      <trkpt lat="43.533424" lon="5.349339">
        <ele>128.969841</ele>
        <time>2021-07-04T22:02:37.357Z</time>
      </trkpt>
      <trkpt lat="43.530766" lon="5.351129">
        <ele>125.996517</ele>
        <time>2021-07-04T22:03:34.359Z</time>
      </trkpt>
      <trkpt lat="43.530360" lon="5.351314">
        <ele>125.477408</ele>
        <time>2021-07-04T22:03:42.438Z</time>
      </trkpt>
      <trkpt lat="43.529542" lon="5.351531">
        <ele>124.466107</ele>
        <time>2021-07-04T22:03:57.847Z</time>
      </trkpt>
      <trkpt lat="43.528402" lon="5.351750">
        <ele>123.400869</ele>
        <time>2021-07-04T22:04:19.613Z</time>
      </trkpt>
      <trkpt lat="43.527998" lon="5.351743">
        <ele>123.033151</ele>
        <time>2021-07-04T22:04:27.694Z</time>
      </trkpt>
      <trkpt lat="43.527385" lon="5.351733">
        <ele>122.658016</ele>
        <time>2021-07-04T22:04:40.692Z</time>
      </trkpt>
      <trkpt lat="43.525439" lon="5.351698">
        <ele>121.376020</ele>
        <time>2021-07-04T22:05:22.340Z</time>
      </trkpt>
      <trkpt lat="43.521461" lon="5.351633">
        <ele>113.136681</ele>
        <time>2021-07-04T22:06:30.382Z</time>
      </trkpt>
      <trkpt lat="43.521143" lon="5.351586">
        <ele>112.509158</ele>
        <time>2021-07-04T22:06:36.034Z</time>
      </trkpt>
      <trkpt lat="43.520973" lon="5.351552">
        <ele>112.172111</ele>
        <time>2021-07-04T22:06:39.182Z</time>
      </trkpt>
      <trkpt lat="43.520856" lon="5.351502">
        <ele>111.931775</ele>
        <time>2021-07-04T22:06:41.353Z</time>
      </trkpt>
      <trkpt lat="43.520824" lon="5.351456">
        <ele>111.841080</ele>
        <time>2021-07-04T22:06:42.206Z</time>
      </trkpt>
      <trkpt lat="43.520770" lon="5.351417">
        <ele>111.721475</ele>
        <time>2021-07-04T22:06:43.323Z</time>
      </trkpt>
      <trkpt lat="43.520690" lon="5.351409">
        <ele>111.564095</ele>
        <time>2021-07-04T22:06:44.848Z</time>
      </trkpt>
      <trkpt lat="43.520633" lon="5.351435">
        <ele>111.446296</ele>
        <time>2021-07-04T22:06:45.976Z</time>
      </trkpt>
      <trkpt lat="43.520586" lon="5.351487">
        <ele>111.328067</ele>
        <time>2021-07-04T22:06:47.042Z</time>
      </trkpt>
      <trkpt lat="43.520474" lon="5.351558">
        <ele>111.183247</ele>
        <time>2021-07-04T22:06:49.309Z</time>
      </trkpt>
      <trkpt lat="43.520348" lon="5.351601">
        <ele>111.074753</ele>
        <time>2021-07-04T22:06:51.854Z</time>
      </trkpt>
      <trkpt lat="43.519895" lon="5.351642">
        <ele>110.695298</ele>
        <time>2021-07-04T22:07:00.562Z</time>
      </trkpt>
      <trkpt lat="43.519242" lon="5.351618">
        <ele>110.149294</ele>
        <time>2021-07-04T22:07:13.632Z</time>
      </trkpt>
      <trkpt lat="43.519163" lon="5.351614">
        <ele>110.083217</ele>
        <time>2021-07-04T22:07:15.188Z</time>
      </trkpt>
      <trkpt lat="43.518031" lon="5.351558">
        <ele>109.439411</ele>
        <time>2021-07-04T22:07:38.638Z</time>
      </trkpt>
      <trkpt lat="43.517599" lon="5.351541">
        <ele>109.256014</ele>
        <time>2021-07-04T22:07:47.721Z</time>
      </trkpt>
      <trkpt lat="43.515144" lon="5.351178">
        <ele>107.938860</ele>
        <time>2021-07-04T22:08:38.611Z</time>
      </trkpt>
      <trkpt lat="43.514658" lon="5.351048">
        <ele>107.288256</ele>
        <time>2021-07-04T22:08:48.131Z</time>
      </trkpt>
      <trkpt lat="43.512577" lon="5.350161">
        <ele>104.199360</ele>
        <time>2021-07-04T22:09:27.749Z</time>
      </trkpt>
      <trkpt lat="43.512274" lon="5.350032">
        <ele>103.704139</ele>
        <time>2021-07-04T22:09:33.472Z</time>
      </trkpt>
      <trkpt lat="43.512100" lon="5.349997">
        <ele>103.429536</ele>
        <time>2021-07-04T22:09:36.761Z</time>
      </trkpt>
      <trkpt lat="43.511984" lon="5.350009">
        <ele>103.247876</ele>
        <time>2021-07-04T22:09:38.829Z</time>
      </trkpt>
      <trkpt lat="43.511839" lon="5.350023">
        <ele>103.020882</ele>
        <time>2021-07-04T22:09:41.457Z</time>
      </trkpt>
      <trkpt lat="43.511028" lon="5.350158">
        <ele>102.304623</ele>
        <time>2021-07-04T22:09:56.715Z</time>
      </trkpt>
      <trkpt lat="43.510904" lon="5.350161">
        <ele>102.211834</ele>
        <time>2021-07-04T22:09:58.989Z</time>
      </trkpt>
      <trkpt lat="43.510790" lon="5.350164">
        <ele>102.126525</ele>
        <time>2021-07-04T22:10:01.101Z</time>
      </trkpt>
      <trkpt lat="43.507560" lon="5.349708">
        <ele>102.075651</ele>
        <time>2021-07-04T22:11:12.856Z</time>
      </trkpt>
      <trkpt lat="43.507471" lon="5.349670">
        <ele>102.172865</ele>
        <time>2021-07-04T22:11:15.579Z</time>
      </trkpt>
      <trkpt lat="43.507375" lon="5.349576">
        <ele>102.295722</ele>
        <time>2021-07-04T22:11:19.133Z</time>
      </trkpt>
      <trkpt lat="43.507126" lon="5.349201">
        <ele>102.680476</ele>
        <time>2021-07-04T22:11:30.027Z</time>
      </trkpt>
      <trkpt lat="43.506304" lon="5.347618">
        <ele>103.415837</ele>
        <time>2021-07-04T22:12:08.861Z</time>
      </trkpt>
      <trkpt lat="43.506259" lon="5.347591">
        <ele>103.419912</ele>
        <time>2021-07-04T22:12:10.665Z</time>
      </trkpt>
      <trkpt lat="43.506153" lon="5.347562">
        <ele>103.428885</ele>
        <time>2021-07-04T22:12:12.518Z</time>
      </trkpt>
      <trkpt lat="43.505903" lon="5.347622">
        <ele>103.449956</ele>
        <time>2021-07-04T22:12:18.449Z</time>
      </trkpt>
      <trkpt lat="43.505891" lon="5.347666">
        <ele>103.452787</ele>
        <time>2021-07-04T22:12:18.940Z</time>
      </trkpt>
      <trkpt lat="43.505890" lon="5.347892">
        <ele>103.466397</ele>
        <time>2021-07-04T22:12:22.180Z</time>
      </trkpt>
      <trkpt lat="43.505888" lon="5.348119">
        <ele>103.480069</ele>
        <time>2021-07-04T22:12:25.985Z</time>
      </trkpt>
      <trkpt lat="43.505878" lon="5.348165">
        <ele>103.482961</ele>
        <time>2021-07-04T22:12:26.486Z</time>
      </trkpt>
      <trkpt lat="43.505729" lon="5.348233">
        <ele>103.495994</ele>
        <time>2021-07-04T22:12:29.545Z</time>
      </trkpt>
      <trkpt lat="43.505027" lon="5.348049">
        <ele>102.699279</ele>
        <time>2021-07-04T22:12:42.849Z</time>
      </trkpt>
      <trkpt lat="43.504772" lon="5.347983">
        <ele>102.378978</ele>
        <time>2021-07-04T22:12:47.351Z</time>
      </trkpt>
      <trkpt lat="43.503366" lon="5.347566">
        <ele>101.325710</ele>
        <time>2021-07-04T22:13:15.144Z</time>
      </trkpt>
      <trkpt lat="43.503140" lon="5.347721">
        <ele>101.346314</ele>
        <time>2021-07-04T22:13:20.971Z</time>
      </trkpt>
      <trkpt lat="43.502736" lon="5.348199">
        <ele>101.389769</ele>
        <time>2021-07-04T22:13:33.796Z</time>
      </trkpt>
      <trkpt lat="43.502453" lon="5.348560">
        <ele>101.421240</ele>
        <time>2021-07-04T22:13:43.502Z</time>
      </trkpt>
      <trkpt lat="43.502275" lon="5.348608">
        <ele>101.549179</ele>
        <time>2021-07-04T22:13:48.151Z</time>
      </trkpt>
      <trkpt lat="43.502218" lon="5.348581">
        <ele>101.621088</ele>
        <time>2021-07-04T22:13:49.690Z</time>
      </trkpt>
      <trkpt lat="43.502158" lon="5.348579">
        <ele>101.692696</ele>
        <time>2021-07-04T22:13:51.255Z</time>
      </trkpt>
      <trkpt lat="43.502100" lon="5.348601">
        <ele>101.764468</ele>
        <time>2021-07-04T22:13:52.860Z</time>
      </trkpt>
      <trkpt lat="43.502050" lon="5.348646">
        <ele>101.835710</ele>
        <time>2021-07-04T22:13:54.431Z</time>
      </trkpt>
      <trkpt lat="43.502007" lon="5.348719">
        <ele>101.917093</ele>
        <time>2021-07-04T22:13:56.209Z</time>
      </trkpt>
      <trkpt lat="43.501985" lon="5.348807">
        <ele>101.997647</ele>
        <time>2021-07-04T22:13:57.933Z</time>
      </trkpt>
      <trkpt lat="43.501985" lon="5.348900">
        <ele>102.078131</ele>
        <time>2021-07-04T22:13:59.720Z</time>
      </trkpt>
      <trkpt lat="43.501883" lon="5.349031">
        <ele>102.244454</ele>
        <time>2021-07-04T22:14:03.449Z</time>
      </trkpt>
      <trkpt lat="43.500987" lon="5.349483">
        <ele>103.382802</ele>
        <time>2021-07-04T22:14:28.888Z</time>
      </trkpt>
      <trkpt lat="43.500648" lon="5.349774">
        <ele>104.286860</ele>
        <time>2021-07-04T22:14:40.495Z</time>
      </trkpt>
      <trkpt lat="43.500205" lon="5.350643">
        <ele>106.582585</ele>
        <time>2021-07-04T22:15:05.870Z</time>
      </trkpt>
      <trkpt lat="43.500143" lon="5.350694">
        <ele>106.797717</ele>
        <time>2021-07-04T22:15:08.308Z</time>
      </trkpt>
      <trkpt lat="43.500080" lon="5.350703">
        <ele>106.986446</ele>
        <time>2021-07-04T22:15:10.553Z</time>
      </trkpt>
      <trkpt lat="43.500023" lon="5.350668">
        <ele>107.172377</ele>
        <time>2021-07-04T22:15:13.003Z</time>
      </trkpt>
      <trkpt lat="43.499925" lon="5.350567">
        <ele>107.536971</ele>
        <time>2021-07-04T22:15:17.216Z</time>
      </trkpt>
      <trkpt lat="43.499707" lon="5.350343">
        <ele>108.347139</ele>
        <time>2021-07-04T22:15:27.112Z</time>
      </trkpt>
      <trkpt lat="43.499620" lon="5.350254">
        <ele>108.669954</ele>
        <time>2021-07-04T22:15:30.914Z</time>
      </trkpt>
      <trkpt lat="43.499540" lon="5.350172">
        <ele>108.982426</ele>
        <time>2021-07-04T22:15:34.665Z</time>
      </trkpt>
      <trkpt lat="43.499499" lon="5.350130">
        <ele>109.204093</ele>
        <time>2021-07-04T22:15:37.141Z</time>
      </trkpt>
      <trkpt lat="43.499126" lon="5.349829">
        <ele>111.079696</ele>
        <time>2021-07-04T22:15:55.962Z</time>
      </trkpt>
      <trkpt lat="43.498536" lon="5.349380">
        <ele>114.004285</ele>
        <time>2021-07-04T22:16:23.597Z</time>
      </trkpt>
      <trkpt lat="43.498283" lon="5.349274">
        <ele>115.151792</ele>
        <time>2021-07-04T22:16:33.563Z</time>
      </trkpt>
      <trkpt lat="43.498143" lon="5.349270">
        <ele>115.759468</ele>
        <time>2021-07-04T22:16:40.072Z</time>
      </trkpt>
      <trkpt lat="43.498074" lon="5.349267">
        <ele>116.059050</ele>
        <time>2021-07-04T22:16:42.721Z</time>
      </trkpt>
      <trkpt lat="43.497591" lon="5.349438">
        <ele>117.542853</ele>
        <time>2021-07-04T22:17:00.145Z</time>
      </trkpt>
      <trkpt lat="43.496852" lon="5.349693">
        <ele>119.333866</ele>
        <time>2021-07-04T22:17:24.944Z</time>
      </trkpt>
      <trkpt lat="43.496312" lon="5.349808">
        <ele>120.618483</ele>
        <time>2021-07-04T22:17:40.279Z</time>
      </trkpt>
      <trkpt lat="43.496263" lon="5.349817">
        <ele>120.734702</ele>
        <time>2021-07-04T22:17:41.640Z</time>
      </trkpt>
      <trkpt lat="43.495938" lon="5.349879">
        <ele>121.113331</ele>
        <time>2021-07-04T22:17:50.270Z</time>
      </trkpt>
      <trkpt lat="43.495762" lon="5.349885">
        <ele>121.225529</ele>
        <time>2021-07-04T22:17:55.007Z</time>
      </trkpt>
      <trkpt lat="43.495742" lon="5.349886">
        <ele>121.238283</ele>
        <time>2021-07-04T22:17:55.540Z</time>
      </trkpt>
      <trkpt lat="43.495638" lon="5.349866">
        <ele>121.305203</ele>
        <time>2021-07-04T22:17:58.245Z</time>
      </trkpt>
      <trkpt lat="43.495605" lon="5.349831">
        <ele>121.331738</ele>
        <time>2021-07-04T22:17:59.321Z</time>
      </trkpt>
      <trkpt lat="43.495552" lon="5.349791">
        <ele>121.370245</ele>
        <time>2021-07-04T22:18:01.008Z</time>
      </trkpt>
      <trkpt lat="43.495457" lon="5.349753">
        <ele>121.433285</ele>
        <time>2021-07-04T22:18:03.655Z</time>
      </trkpt>
      <trkpt lat="43.495263" lon="5.349791">
        <ele>121.558161</ele>
        <time>2021-07-04T22:18:08.853Z</time>
      </trkpt>
      <trkpt lat="43.495179" lon="5.349865">
        <ele>121.621692</ele>
        <time>2021-07-04T22:18:11.666Z</time>
      </trkpt>
      <trkpt lat="43.495114" lon="5.349968">
        <ele>121.684806</ele>
        <time>2021-07-04T22:18:14.361Z</time>
      </trkpt>
      <trkpt lat="43.495072" lon="5.350093">
        <ele>121.748493</ele>
        <time>2021-07-04T22:18:16.781Z</time>
      </trkpt>
      <trkpt lat="43.494856" lon="5.350241">
        <ele>121.902215</ele>
        <time>2021-07-04T22:18:22.549Z</time>
      </trkpt>
      <trkpt lat="43.494650" lon="5.350384">
        <ele>122.049203</ele>
        <time>2021-07-04T22:18:27.393Z</time>
      </trkpt>
      <trkpt lat="43.494158" lon="5.350578">
        <ele>121.587772</ele>
        <time>2021-07-04T22:18:37.625Z</time>
      </trkpt>
      <trkpt lat="43.493777" lon="5.350674">
        <ele>121.092033</ele>
        <time>2021-07-04T22:18:44.910Z</time>
      </trkpt>
      <trkpt lat="43.493542" lon="5.350672">
        <ele>120.791241</ele>
        <time>2021-07-04T22:18:49.043Z</time>
      </trkpt>
      <trkpt lat="43.492976" lon="5.350583">
        <ele>120.062095</ele>
        <time>2021-07-04T22:18:59.354Z</time>
      </trkpt>
      <trkpt lat="43.492392" lon="5.350561">
        <ele>119.658328</ele>
        <time>2021-07-04T22:19:09.977Z</time>
      </trkpt>
      <trkpt lat="43.492206" lon="5.350598">
        <ele>119.584261</ele>
        <time>2021-07-04T22:19:13.260Z</time>
      </trkpt>
      <trkpt lat="43.492098" lon="5.350619">
        <ele>119.541275</ele>
        <time>2021-07-04T22:19:15.303Z</time>
      </trkpt>
      <trkpt lat="43.491980" lon="5.350642">
        <ele>119.494305</ele>
        <time>2021-07-04T22:19:17.472Z</time>
      </trkpt>
      <trkpt lat="43.491907" lon="5.350656">
        <ele>119.465257</ele>
        <time>2021-07-04T22:19:18.939Z</time>
      </trkpt>
      <trkpt lat="43.488488" lon="5.351908">
        <ele>120.551512</ele>
        <time>2021-07-04T22:20:48.227Z</time>
      </trkpt>
      <trkpt lat="43.487670" lon="5.352236">
        <ele>120.632967</ele>
        <time>2021-07-04T22:21:06.168Z</time>
      </trkpt>
      <trkpt lat="43.487518" lon="5.352298">
        <ele>120.627552</ele>
        <time>2021-07-04T22:21:09.358Z</time>
      </trkpt>
      <trkpt lat="43.487335" lon="5.352365">
        <ele>120.517136</ele>
        <time>2021-07-04T22:21:13.165Z</time>
      </trkpt>
      <trkpt lat="43.486817" lon="5.352555">
        <ele>120.204555</ele>
        <time>2021-07-04T22:21:23.640Z</time>
      </trkpt>
      <trkpt lat="43.484866" lon="5.353512">
        <ele>119.516694</ele>
        <time>2021-07-04T22:22:06.261Z</time>
      </trkpt>
      <trkpt lat="43.484445" lon="5.353627">
        <ele>119.483430</ele>
        <time>2021-07-04T22:22:16.133Z</time>
      </trkpt>
      <trkpt lat="43.483753" lon="5.353686">
        <ele>119.902837</ele>
        <time>2021-07-04T22:22:32.856Z</time>
      </trkpt>
      <trkpt lat="43.482284" lon="5.353593">
        <ele>121.768197</ele>
        <time>2021-07-04T22:23:14.284Z</time>
      </trkpt>
      <trkpt lat="43.482098" lon="5.353579">
        <ele>122.015839</ele>
        <time>2021-07-04T22:23:20.089Z</time>
      </trkpt>
      <trkpt lat="43.481431" lon="5.353661">
        <ele>122.906087</ele>
        <time>2021-07-04T22:23:39.279Z</time>
      </trkpt>
      <trkpt lat="43.481082" lon="5.353794">
        <ele>123.387468</ele>
        <time>2021-07-04T22:23:49.546Z</time>
      </trkpt>
      <trkpt lat="43.479793" lon="5.354490">
        <ele>124.141709</ele>
        <time>2021-07-04T22:24:24.029Z</time>
      </trkpt>
      <trkpt lat="43.479503" lon="5.354695">
        <ele>124.147160</ele>
        <time>2021-07-04T22:24:31.042Z</time>
      </trkpt>
      <trkpt lat="43.479469" lon="5.354719">
        <ele>124.147799</ele>
        <time>2021-07-04T22:24:31.789Z</time>
      </trkpt>
      <trkpt lat="43.479430" lon="5.354721">
        <ele>124.148452</ele>
        <time>2021-07-04T22:24:32.569Z</time>
      </trkpt>
      <trkpt lat="43.479313" lon="5.354633">
        <ele>124.150681</ele>
        <time>2021-07-04T22:24:35.452Z</time>
      </trkpt>
      <trkpt lat="43.479240" lon="5.354602">
        <ele>124.151959</ele>
        <time>2021-07-04T22:24:36.993Z</time>
      </trkpt>
      <trkpt lat="43.479146" lon="5.354571">
        <ele>124.153575</ele>
        <time>2021-07-04T22:24:38.859Z</time>
      </trkpt>
      <trkpt lat="43.479046" lon="5.354557">
        <ele>124.155257</ele>
        <time>2021-07-04T22:24:40.842Z</time>
      </trkpt>
      <trkpt lat="43.478932" lon="5.354588">
        <ele>124.157200</ele>
        <time>2021-07-04T22:24:43.280Z</time>
      </trkpt>
      <trkpt lat="43.478831" lon="5.354630">
        <ele>124.112603</ele>
        <time>2021-07-04T22:24:45.293Z</time>
      </trkpt>
      <trkpt lat="43.478759" lon="5.354677">
        <ele>124.052906</ele>
        <time>2021-07-04T22:24:46.755Z</time>
      </trkpt>
      <trkpt lat="43.478373" lon="5.355143">
        <ele>123.668385</ele>
        <time>2021-07-04T22:24:57.009Z</time>
      </trkpt>
      <trkpt lat="43.478324" lon="5.355276">
        <ele>123.587282</ele>
        <time>2021-07-04T22:24:59.060Z</time>
      </trkpt>
      <trkpt lat="43.478306" lon="5.355461">
        <ele>123.485792</ele>
        <time>2021-07-04T22:25:01.652Z</time>
      </trkpt>
      <trkpt lat="43.478307" lon="5.355535">
        <ele>123.445549</ele>
        <time>2021-07-04T22:25:02.780Z</time>
      </trkpt>
      <trkpt lat="43.478333" lon="5.355774">
        <ele>123.314146</ele>
        <time>2021-07-04T22:25:06.295Z</time>
      </trkpt>
      <trkpt lat="43.478305" lon="5.355891">
        <ele>123.247159</ele>
        <time>2021-07-04T22:25:07.929Z</time>
      </trkpt>
      <trkpt lat="43.478146" lon="5.356093">
        <ele>123.085116</ele>
        <time>2021-07-04T22:25:12.463Z</time>
      </trkpt>
      <trkpt lat="43.478076" lon="5.356107">
        <ele>123.032115</ele>
        <time>2021-07-04T22:25:13.779Z</time>
      </trkpt>
      <trkpt lat="43.477887" lon="5.356023">
        <ele>122.883312</ele>
        <time>2021-07-04T22:25:17.757Z</time>
      </trkpt>
      <trkpt lat="43.477050" lon="5.355700">
        <ele>122.963935</ele>
        <time>2021-07-04T22:25:35.731Z</time>
      </trkpt>
      <trkpt lat="43.475609" lon="5.355458">
        <ele>123.819071</ele>
        <time>2021-07-04T22:26:11.877Z</time>
      </trkpt>
      <trkpt lat="43.470419" lon="5.354587">
        <ele>131.963513</ele>
        <time>2021-07-04T22:28:43.119Z</time>
      </trkpt>
      <trkpt lat="43.469546" lon="5.354444">
        <ele>133.121542</ele>
        <time>2021-07-04T22:29:07.642Z</time>
      </trkpt>
      <trkpt lat="43.469528" lon="5.354441">
        <ele>133.145425</ele>
        <time>2021-07-04T22:29:08.125Z</time>
      </trkpt>
      <trkpt lat="43.469304" lon="5.354318">
        <ele>133.463048</ele>
        <time>2021-07-04T22:29:15.049Z</time>
      </trkpt>
      <trkpt lat="43.468681" lon="5.354210">
        <ele>134.220638</ele>
        <time>2021-07-04T22:29:32.564Z</time>
      </trkpt>
      <trkpt lat="43.468581" lon="5.354191">
        <ele>134.322388</ele>
        <time>2021-07-04T22:29:35.301Z</time>
      </trkpt>
      <trkpt lat="43.468457" lon="5.354172">
        <ele>134.448145</ele>
        <time>2021-07-04T22:29:38.634Z</time>
      </trkpt>
      <trkpt lat="43.468390" lon="5.354169">
        <ele>134.515713</ele>
        <time>2021-07-04T22:29:40.768Z</time>
      </trkpt>
      <trkpt lat="43.467988" lon="5.354151">
        <ele>134.921125</ele>
        <time>2021-07-04T22:29:51.795Z</time>
      </trkpt>
      <trkpt lat="43.467303" lon="5.354033">
        <ele>135.616949</ele>
        <time>2021-07-04T22:30:10.496Z</time>
      </trkpt>
      <trkpt lat="43.466668" lon="5.353925">
        <ele>136.115300</ele>
        <time>2021-07-04T22:30:26.144Z</time>
      </trkpt>
      <trkpt lat="43.466155" lon="5.353789">
        <ele>136.472182</ele>
        <time>2021-07-04T22:30:38.562Z</time>
      </trkpt>
      <trkpt lat="43.466095" lon="5.353787">
        <ele>136.513183</ele>
        <time>2021-07-04T22:30:39.886Z</time>
      </trkpt>
      <trkpt lat="43.465855" lon="5.353779">
        <ele>136.677186</ele>
        <time>2021-07-04T22:30:45.911Z</time>
      </trkpt>
      <trkpt lat="43.465729" lon="5.353759">
        <ele>136.763832</ele>
        <time>2021-07-04T22:30:48.869Z</time>
      </trkpt>
      <trkpt lat="43.465600" lon="5.353740">
        <ele>136.852460</ele>
        <time>2021-07-04T22:30:51.970Z</time>
      </trkpt>
      <trkpt lat="43.465527" lon="5.353712">
        <ele>136.904226</ele>
        <time>2021-07-04T22:30:54.122Z</time>
      </trkpt>
      <trkpt lat="43.465445" lon="5.353668">
        <ele>136.964342</ele>
        <time>2021-07-04T22:30:56.372Z</time>
      </trkpt>
      <trkpt lat="43.465375" lon="5.353627">
        <ele>137.016304</ele>
        <time>2021-07-04T22:30:58.208Z</time>
      </trkpt>
      <trkpt lat="43.465352" lon="5.353565">
        <ele>137.083431</ele>
        <time>2021-07-04T22:30:59.534Z</time>
      </trkpt>
      <trkpt lat="43.465313" lon="5.353525">
        <ele>137.188663</ele>
        <time>2021-07-04T22:31:00.740Z</time>
      </trkpt>
      <trkpt lat="43.465219" lon="5.353528">
        <ele>137.392173</ele>
        <time>2021-07-04T22:31:03.463Z</time>
      </trkpt>
      <trkpt lat="43.465181" lon="5.353570">
        <ele>137.497614</ele>
        <time>2021-07-04T22:31:04.761Z</time>
      </trkpt>
      <trkpt lat="43.465105" lon="5.353594">
        <ele>137.666375</ele>
        <time>2021-07-04T22:31:06.803Z</time>
      </trkpt>
      <trkpt lat="43.465015" lon="5.353591">
        <ele>137.861229</ele>
        <time>2021-07-04T22:31:09.228Z</time>
      </trkpt>
      <trkpt lat="43.465003" lon="5.353693">
        <ele>138.023554</ele>
        <time>2021-07-04T22:31:11.734Z</time>
      </trkpt>
      <trkpt lat="43.464984" lon="5.353724">
        <ele>138.087294</ele>
        <time>2021-07-04T22:31:12.803Z</time>
      </trkpt>
      <trkpt lat="43.461864" lon="5.353241">
        <ele>145.723161</ele>
        <time>2021-07-04T22:32:55.387Z</time>
      </trkpt>
      <trkpt lat="43.461460" lon="5.353159">
        <ele>146.837574</ele>
        <time>2021-07-04T22:33:09.190Z</time>
      </trkpt>
      <trkpt lat="43.461447" lon="5.353109">
        <ele>146.942777</ele>
        <time>2021-07-04T22:33:10.954Z</time>
      </trkpt>
      <trkpt lat="43.461289" lon="5.353072">
        <ele>147.380142</ele>
        <time>2021-07-04T22:33:16.232Z</time>
      </trkpt>
      <trkpt lat="43.461270" lon="5.353068">
        <ele>147.432595</ele>
        <time>2021-07-04T22:33:16.858Z</time>
      </trkpt>
      <trkpt lat="43.461138" lon="5.353036">
        <ele>147.798356</ele>
        <time>2021-07-04T22:33:21.372Z</time>
      </trkpt>
      <trkpt lat="43.460888" lon="5.353083">
        <ele>148.486927</ele>
        <time>2021-07-04T22:33:29.488Z</time>
      </trkpt>
      <trkpt lat="43.460626" lon="5.353131">
        <ele>149.208218</ele>
        <time>2021-07-04T22:33:38.457Z</time>
      </trkpt>
      <trkpt lat="43.460547" lon="5.353149">
        <ele>149.426737</ele>
        <time>2021-07-04T22:33:41.286Z</time>
      </trkpt>
      <trkpt lat="43.460527" lon="5.353153">
        <ele>149.481889</ele>
        <time>2021-07-04T22:33:41.969Z</time>
      </trkpt>
      <trkpt lat="43.460218" lon="5.353228">
        <ele>150.338135</ele>
        <time>2021-07-04T22:33:52.952Z</time>
      </trkpt>
      <trkpt lat="43.460131" lon="5.353248">
        <ele>150.572928</ele>
        <time>2021-07-04T22:33:55.969Z</time>
      </trkpt>
      <trkpt lat="43.459926" lon="5.353297">
        <ele>151.001111</ele>
        <time>2021-07-04T22:34:02.626Z</time>
      </trkpt>
      <trkpt lat="43.459841" lon="5.353317">
        <ele>151.178570</ele>
        <time>2021-07-04T22:34:05.355Z</time>
      </trkpt>
      <trkpt lat="43.459782" lon="5.353323">
        <ele>151.300320</ele>
        <time>2021-07-04T22:34:07.148Z</time>
      </trkpt>
      <trkpt lat="43.459549" lon="5.353344">
        <ele>151.780848</ele>
        <time>2021-07-04T22:34:14.229Z</time>
      </trkpt>
      <trkpt lat="43.459518" lon="5.353347">
        <ele>151.844802</ele>
        <time>2021-07-04T22:34:15.168Z</time>
      </trkpt>
      <trkpt lat="43.459421" lon="5.353356">
        <ele>152.044876</ele>
        <time>2021-07-04T22:34:18.086Z</time>
      </trkpt>
      <trkpt lat="43.459454" lon="5.353986">
        <ele>152.988411</ele>
        <time>2021-07-04T22:34:32.427Z</time>
      </trkpt>
      <trkpt lat="43.459186" lon="5.353964">
        <ele>153.540921</ele>
        <time>2021-07-04T22:34:40.577Z</time>
      </trkpt>
      <trkpt lat="43.458789" lon="5.354036">
        <ele>154.298261</ele>
        <time>2021-07-04T22:34:52.870Z</time>
      </trkpt>
      <trkpt lat="43.458248" lon="5.354401">
        <ele>154.776746</ele>
        <time>2021-07-04T22:35:09.983Z</time>
      </trkpt>
      <trkpt lat="43.457851" lon="5.354556">
        <ele>155.104506</ele>
        <time>2021-07-04T22:35:20.599Z</time>
      </trkpt>
      <trkpt lat="43.457498" lon="5.354699">
        <ele>155.396768</ele>
        <time>2021-07-04T22:35:29.422Z</time>
      </trkpt>
      <trkpt lat="43.457399" lon="5.354403">
        <ele>155.584679</ele>
        <time>2021-07-04T22:35:34.955Z</time>
      </trkpt>
      <trkpt lat="43.457253" lon="5.354359">
        <ele>155.699218</ele>
        <time>2021-07-04T22:35:38.737Z</time>
      </trkpt>
      <trkpt lat="43.456493" lon="5.354645">
        <ele>156.183013</ele>
        <time>2021-07-04T22:35:57.915Z</time>
      </trkpt>
      <trkpt lat="43.455214" lon="5.356141">
        <ele>157.704262</ele>
        <time>2021-07-04T22:36:42.534Z</time>
      </trkpt>
      <trkpt lat="43.454813" lon="5.356526">
        <ele>158.352083</ele>
        <time>2021-07-04T22:36:56.632Z</time>
      </trkpt>
      <trkpt lat="43.454282" lon="5.356850">
        <ele>159.121805</ele>
        <time>2021-07-04T22:37:13.604Z</time>
      </trkpt>
      <trkpt lat="43.452780" lon="5.358450">
        <ele>163.021858</ele>
        <time>2021-07-04T22:38:13.028Z</time>
      </trkpt>
      <trkpt lat="43.452629" lon="5.358739">
        <ele>163.856719</ele>
        <time>2021-07-04T22:38:21.798Z</time>
      </trkpt>
      <trkpt lat="43.452586" lon="5.358923">
        <ele>164.309937</ele>
        <time>2021-07-04T22:38:26.696Z</time>
      </trkpt>
      <trkpt lat="43.452585" lon="5.359093">
        <ele>164.708540</ele>
        <time>2021-07-04T22:38:30.930Z</time>
      </trkpt>
      <trkpt lat="43.452480" lon="5.359126">
        <ele>165.056383</ele>
        <time>2021-07-04T22:38:35.254Z</time>
      </trkpt>
      <trkpt lat="43.452387" lon="5.359093">
        <ele>165.366558</ele>
        <time>2021-07-04T22:38:39.224Z</time>
      </trkpt>
      <trkpt lat="43.452322" lon="5.359088">
        <ele>165.576822</ele>
        <time>2021-07-04T22:38:41.898Z</time>
      </trkpt>
      <trkpt lat="43.452104" lon="5.359138">
        <ele>166.290609</ele>
        <time>2021-07-04T22:38:49.537Z</time>
      </trkpt>
      <trkpt lat="43.451288" lon="5.359658">
        <ele>169.408439</ele>
        <time>2021-07-04T22:39:24.173Z</time>
      </trkpt>
      <trkpt lat="43.449659" lon="5.360535">
        <ele>177.241182</ele>
        <time>2021-07-04T22:40:36.599Z</time>
      </trkpt>
      <trkpt lat="43.447316" lon="5.361310">
        <ele>186.975580</ele>
        <time>2021-07-04T22:42:18.042Z</time>
      </trkpt>
      <trkpt lat="43.446981" lon="5.361304">
        <ele>187.829193</ele>
        <time>2021-07-04T22:42:28.571Z</time>
      </trkpt>
      <trkpt lat="43.446478" lon="5.361153">
        <ele>189.140864</ele>
        <time>2021-07-04T22:42:42.883Z</time>
      </trkpt>
      <trkpt lat="43.446255" lon="5.361038">
        <ele>189.662452</ele>
        <time>2021-07-04T22:42:48.980Z</time>
      </trkpt>
      <trkpt lat="43.446180" lon="5.361003">
        <ele>189.586705</ele>
        <time>2021-07-04T22:42:50.745Z</time>
      </trkpt>
      <trkpt lat="43.446020" lon="5.361030">
        <ele>189.432512</ele>
        <time>2021-07-04T22:42:54.439Z</time>
      </trkpt>
      <trkpt lat="43.445985" lon="5.361055">
        <ele>189.394799</ele>
        <time>2021-07-04T22:42:55.226Z</time>
      </trkpt>
      <trkpt lat="43.445930" lon="5.361059">
        <ele>189.342116</ele>
        <time>2021-07-04T22:42:56.480Z</time>
      </trkpt>
      <trkpt lat="43.445894" lon="5.361036">
        <ele>189.304156</ele>
        <time>2021-07-04T22:42:57.370Z</time>
      </trkpt>
      <trkpt lat="43.445846" lon="5.360916">
        <ele>189.209007</ele>
        <time>2021-07-04T22:42:59.319Z</time>
      </trkpt>
      <trkpt lat="43.445729" lon="5.360765">
        <ele>189.055638</ele>
        <time>2021-07-04T22:43:02.586Z</time>
      </trkpt>
      <trkpt lat="43.445519" lon="5.360689">
        <ele>188.847944</ele>
        <time>2021-07-04T22:43:06.819Z</time>
      </trkpt>
      <trkpt lat="43.445084" lon="5.360637">
        <ele>188.430281</ele>
        <time>2021-07-04T22:43:15.167Z</time>
      </trkpt>
      <trkpt lat="43.444580" lon="5.360658">
        <ele>187.955336</ele>
        <time>2021-07-04T22:43:24.570Z</time>
      </trkpt>
      <trkpt lat="43.443988" lon="5.360852">
        <ele>187.622398</ele>
        <time>2021-07-04T22:43:36.733Z</time>
      </trkpt>
      <trkpt lat="43.443787" lon="5.360866">
        <ele>187.512285</ele>
        <time>2021-07-04T22:43:40.911Z</time>
      </trkpt>
      <trkpt lat="43.442669" lon="5.361270">
        <ele>187.172975</ele>
        <time>2021-07-04T22:44:07.684Z</time>
      </trkpt>
      <trkpt lat="43.442243" lon="5.361330">
        <ele>187.617097</ele>
        <time>2021-07-04T22:44:18.371Z</time>
      </trkpt>
      <trkpt lat="43.442232" lon="5.361353">
        <ele>187.637836</ele>
        <time>2021-07-04T22:44:19.090Z</time>
      </trkpt>
      <trkpt lat="43.442179" lon="5.361365">
        <ele>187.693542</ele>
        <time>2021-07-04T22:44:20.414Z</time>
      </trkpt>
      <trkpt lat="43.442168" lon="5.361366">
        <ele>187.704975</ele>
        <time>2021-07-04T22:44:20.721Z</time>
      </trkpt>
      <trkpt lat="43.442168" lon="5.361314">
        <ele>187.744133</ele>
        <time>2021-07-04T22:44:21.684Z</time>
      </trkpt>
      <trkpt lat="43.442167" lon="5.361267">
        <ele>187.779540</ele>
        <time>2021-07-04T22:44:22.580Z</time>
      </trkpt>
      <trkpt lat="43.442165" lon="5.361195">
        <ele>187.833798</ele>
        <time>2021-07-04T22:44:23.743Z</time>
      </trkpt>
      <trkpt lat="43.442075" lon="5.361201">
        <ele>187.927249</ele>
        <time>2021-07-04T22:44:25.965Z</time>
      </trkpt>
      <trkpt lat="43.441987" lon="5.361207">
        <ele>188.018628</ele>
        <time>2021-07-04T22:44:28.243Z</time>
      </trkpt>
      <trkpt lat="43.440448" lon="5.361456">
        <ele>191.076021</ele>
        <time>2021-07-04T22:45:13.637Z</time>
      </trkpt>
      <trkpt lat="43.440317" lon="5.361520">
        <ele>191.488491</ele>
        <time>2021-07-04T22:45:18.170Z</time>
      </trkpt>
      <trkpt lat="43.440066" lon="5.361651">
        <ele>192.285011</ele>
        <time>2021-07-04T22:45:27.121Z</time>
      </trkpt>
      <trkpt lat="43.439933" lon="5.361696">
        <ele>192.691418</ele>
        <time>2021-07-04T22:45:32.758Z</time>
      </trkpt>
      <trkpt lat="43.439799" lon="5.361752">
        <ele>193.106961</ele>
        <time>2021-07-04T22:45:37.853Z</time>
      </trkpt>
      <trkpt lat="43.439383" lon="5.361919">
        <ele>194.561042</ele>
        <time>2021-07-04T22:45:54.914Z</time>
      </trkpt>
      <trkpt lat="43.439068" lon="5.362082">
        <ele>196.363963</ele>
        <time>2021-07-04T22:46:09.096Z</time>
      </trkpt>
      <trkpt lat="43.438713" lon="5.362285">
        <ele>198.423439</ele>
        <time>2021-07-04T22:46:26.125Z</time>
      </trkpt>
      <trkpt lat="43.438538" lon="5.362370">
        <ele>199.417667</ele>
        <time>2021-07-04T22:46:35.007Z</time>
      </trkpt>
      <trkpt lat="43.437940" lon="5.362610">
        <ele>202.754937</ele>
        <time>2021-07-04T22:47:02.775Z</time>
      </trkpt>
      <trkpt lat="43.436410" lon="5.362910">
        <ele>211.081751</ele>
        <time>2021-07-04T22:48:12.000Z</time>
      </trkpt>
      <trkpt lat="43.435550" lon="5.363290">
        <ele>215.247436</ele>
        <time>2021-07-04T22:48:49.604Z</time>
      </trkpt>
      <trkpt lat="43.435214" lon="5.363478">
        <ele>216.636498</ele>
        <time>2021-07-04T22:49:03.726Z</time>
      </trkpt>
      <trkpt lat="43.435040" lon="5.363630">
        <ele>217.425700</ele>
        <time>2021-07-04T22:49:11.676Z</time>
      </trkpt>
      <trkpt lat="43.433500" lon="5.365320">
        <ele>223.586906</ele>
        <time>2021-07-04T22:50:18.108Z</time>
      </trkpt>
      <trkpt lat="43.432950" lon="5.365840">
        <ele>225.358791</ele>
        <time>2021-07-04T22:50:38.796Z</time>
      </trkpt>
      <trkpt lat="43.430829" lon="5.367270">
        <ele>231.523127</ele>
        <time>2021-07-04T22:51:55.338Z</time>
      </trkpt>
      <trkpt lat="43.430687" lon="5.367314">
        <ele>231.943756</ele>
        <time>2021-07-04T22:52:00.303Z</time>
      </trkpt>
      <trkpt lat="43.429677" lon="5.367313">
        <ele>234.862570</ele>
        <time>2021-07-04T22:52:35.054Z</time>
      </trkpt>
      <trkpt lat="43.429460" lon="5.367353">
        <ele>235.556721</ele>
        <time>2021-07-04T22:52:42.731Z</time>
      </trkpt>
      <trkpt lat="43.428817" lon="5.367637">
        <ele>237.718191</ele>
        <time>2021-07-04T22:53:06.794Z</time>
      </trkpt>
      <trkpt lat="43.428595" lon="5.367824">
        <ele>238.551208</ele>
        <time>2021-07-04T22:53:16.385Z</time>
      </trkpt>
      <trkpt lat="43.428485" lon="5.368224">
        <ele>239.545480</ele>
        <time>2021-07-04T22:53:27.434Z</time>
      </trkpt>
      <trkpt lat="43.428406" lon="5.369184">
        <ele>241.200773</ele>
        <time>2021-07-04T22:53:51.249Z</time>
      </trkpt>
      <trkpt lat="43.428358" lon="5.369772">
        <ele>241.844266</ele>
        <time>2021-07-04T22:54:04.976Z</time>
      </trkpt>
      <trkpt lat="43.428261" lon="5.370269">
        <ele>242.403945</ele>
        <time>2021-07-04T22:54:15.889Z</time>
      </trkpt>
      <trkpt lat="43.428071" lon="5.370470">
        <ele>242.762743</ele>
        <time>2021-07-04T22:54:22.117Z</time>
      </trkpt>
      <trkpt lat="43.427865" lon="5.370583">
        <ele>243.094802</ele>
        <time>2021-07-04T22:54:27.715Z</time>
      </trkpt>
      <trkpt lat="43.427581" lon="5.370573">
        <ele>243.146320</ele>
        <time>2021-07-04T22:54:34.003Z</time>
      </trkpt>
      <trkpt lat="43.427038" lon="5.370239">
        <ele>241.743833</ele>
        <time>2021-07-04T22:54:44.646Z</time>
      </trkpt>
      <trkpt lat="43.426782" lon="5.370173">
        <ele>241.129631</ele>
        <time>2021-07-04T22:54:48.939Z</time>
      </trkpt>
      <trkpt lat="43.426659" lon="5.370105">
        <ele>240.817060</ele>
        <time>2021-07-04T22:54:51.120Z</time>
      </trkpt>
      <trkpt lat="43.426585" lon="5.370064">
        <ele>240.628952</ele>
        <time>2021-07-04T22:54:52.409Z</time>
      </trkpt>
      <trkpt lat="43.426581" lon="5.370034">
        <ele>240.576712</ele>
        <time>2021-07-04T22:54:52.806Z</time>
      </trkpt>
      <trkpt lat="43.426528" lon="5.369928">
        <ele>240.356303</ele>
        <time>2021-07-04T22:54:54.378Z</time>
      </trkpt>
      <trkpt lat="43.426470" lon="5.369881">
        <ele>240.197595</ele>
        <time>2021-07-04T22:54:55.457Z</time>
      </trkpt>
      <trkpt lat="43.426407" lon="5.369865">
        <ele>240.046520</ele>
        <time>2021-07-04T22:54:56.518Z</time>
      </trkpt>
      <trkpt lat="43.426385" lon="5.369869">
        <ele>239.994188</ele>
        <time>2021-07-04T22:54:56.866Z</time>
      </trkpt>
      <trkpt lat="43.426349" lon="5.369876">
        <ele>239.908449</ele>
        <time>2021-07-04T22:54:57.407Z</time>
      </trkpt>
      <trkpt lat="43.426296" lon="5.369912">
        <ele>239.769081</ele>
        <time>2021-07-04T22:54:58.388Z</time>
      </trkpt>
      <trkpt lat="43.426263" lon="5.369956">
        <ele>239.660752</ele>
        <time>2021-07-04T22:54:59.148Z</time>
      </trkpt>
      <trkpt lat="43.426255" lon="5.369968">
        <ele>239.632854</ele>
        <time>2021-07-04T22:54:59.317Z</time>
      </trkpt>
      <trkpt lat="43.426227" lon="5.370038">
        <ele>239.495984</ele>
        <time>2021-07-04T22:55:00.339Z</time>
      </trkpt>
      <trkpt lat="43.426225" lon="5.370061">
        <ele>239.456310</ele>
        <time>2021-07-04T22:55:00.597Z</time>
      </trkpt>
      <trkpt lat="43.426110" lon="5.370120">
        <ele>239.166898</ele>
        <time>2021-07-04T22:55:02.573Z</time>
      </trkpt>
      <trkpt lat="43.425885" lon="5.370174">
        <ele>238.384276</ele>
        <time>2021-07-04T22:55:06.205Z</time>
      </trkpt>
      <trkpt lat="43.425678" lon="5.370156">
        <ele>237.658833</ele>
        <time>2021-07-04T22:55:09.433Z</time>
      </trkpt>
      <trkpt lat="43.425277" lon="5.369979">
        <ele>236.185997</ele>
        <time>2021-07-04T22:55:16.096Z</time>
      </trkpt>
      <trkpt lat="43.424799" lon="5.369533">
        <ele>234.166441</ele>
        <time>2021-07-04T22:55:25.240Z</time>
      </trkpt>
      <trkpt lat="43.423874" lon="5.368474">
        <ele>230.700834</ele>
        <time>2021-07-04T22:55:45.392Z</time>
      </trkpt>
      <trkpt lat="43.422677" lon="5.367538">
        <ele>227.742933</ele>
        <time>2021-07-04T22:56:08.725Z</time>
      </trkpt>
      <trkpt lat="43.422428" lon="5.367516">
        <ele>227.477968</ele>
        <time>2021-07-04T22:56:13.538Z</time>
      </trkpt>
      <trkpt lat="43.422284" lon="5.367528">
        <ele>227.324770</ele>
        <time>2021-07-04T22:56:16.070Z</time>
      </trkpt>
      <trkpt lat="43.422124" lon="5.367549">
        <ele>227.154090</ele>
        <time>2021-07-04T22:56:19.361Z</time>
      </trkpt>
      <trkpt lat="43.422038" lon="5.367552">
        <ele>227.062735</ele>
        <time>2021-07-04T22:56:21.101Z</time>
      </trkpt>
      <trkpt lat="43.421931" lon="5.367536">
        <ele>226.948440</ele>
        <time>2021-07-04T22:56:23.037Z</time>
      </trkpt>
      <trkpt lat="43.421883" lon="5.367459">
        <ele>226.870175</ele>
        <time>2021-07-04T22:56:24.543Z</time>
      </trkpt>
      <trkpt lat="43.421812" lon="5.367421">
        <ele>226.789281</ele>
        <time>2021-07-04T22:56:26.232Z</time>
      </trkpt>
      <trkpt lat="43.421735" lon="5.367434">
        <ele>226.706900</ele>
        <time>2021-07-04T22:56:28.004Z</time>
      </trkpt>
      <trkpt lat="43.421683" lon="5.367482">
        <ele>226.640417</ele>
        <time>2021-07-04T22:56:29.234Z</time>
      </trkpt>
      <trkpt lat="43.421586" lon="5.367483">
        <ele>226.537407</ele>
        <time>2021-07-04T22:56:31.231Z</time>
      </trkpt>
      <trkpt lat="43.421487" lon="5.367452">
        <ele>226.429591</ele>
        <time>2021-07-04T22:56:33.490Z</time>
      </trkpt>
      <trkpt lat="43.421458" lon="5.367438">
        <ele>226.396956</ele>
        <time>2021-07-04T22:56:34.264Z</time>
      </trkpt>
      <trkpt lat="43.421329" lon="5.367374">
        <ele>226.264533</ele>
        <time>2021-07-04T22:56:37.283Z</time>
      </trkpt>
      <trkpt lat="43.421168" lon="5.367287">
        <ele>226.354524</ele>
        <time>2021-07-04T22:56:41.201Z</time>
      </trkpt>
      <trkpt lat="43.421079" lon="5.367240">
        <ele>226.404122</ele>
        <time>2021-07-04T22:56:43.705Z</time>
      </trkpt>
      <trkpt lat="43.420398" lon="5.366814">
        <ele>226.793313</ele>
        <time>2021-07-04T22:57:02.360Z</time>
      </trkpt>
      <trkpt lat="43.420300" lon="5.366659">
        <ele>226.870974</ele>
        <time>2021-07-04T22:57:06.193Z</time>
      </trkpt>
      <trkpt lat="43.420241" lon="5.366582">
        <ele>226.913273</ele>
        <time>2021-07-04T22:57:08.140Z</time>
      </trkpt>
      <trkpt lat="43.420175" lon="5.366555">
        <ele>226.949098</ele>
        <time>2021-07-04T22:57:09.988Z</time>
      </trkpt>
      <trkpt lat="43.420106" lon="5.366567">
        <ele>226.985284</ele>
        <time>2021-07-04T22:57:11.754Z</time>
      </trkpt>
      <trkpt lat="43.420047" lon="5.366618">
        <ele>227.021532</ele>
        <time>2021-07-04T22:57:13.534Z</time>
      </trkpt>
      <trkpt lat="43.420010" lon="5.366693">
        <ele>227.055795</ele>
        <time>2021-07-04T22:57:15.195Z</time>
      </trkpt>
      <trkpt lat="43.419938" lon="5.366763">
        <ele>227.101657</ele>
        <time>2021-07-04T22:57:17.295Z</time>
      </trkpt>
      <trkpt lat="43.419823" lon="5.366790">
        <ele>227.162357</ele>
        <time>2021-07-04T22:57:20.288Z</time>
      </trkpt>
      <trkpt lat="43.419756" lon="5.366776">
        <ele>227.196728</ele>
        <time>2021-07-04T22:57:21.993Z</time>
      </trkpt>
      <trkpt lat="43.419714" lon="5.366769">
        <ele>227.206248</ele>
        <time>2021-07-04T22:57:23.024Z</time>
      </trkpt>
      <trkpt lat="43.419425" lon="5.366708">
        <ele>227.272043</ele>
        <time>2021-07-04T22:57:29.847Z</time>
      </trkpt>
      <trkpt lat="43.419269" lon="5.366702">
        <ele>227.307162</ele>
        <time>2021-07-04T22:57:33.555Z</time>
      </trkpt>
      <trkpt lat="43.418691" lon="5.366852">
        <ele>227.439521</ele>
        <time>2021-07-04T22:57:47.169Z</time>
      </trkpt>
      <trkpt lat="43.418096" lon="5.366902">
        <ele>227.573665</ele>
        <time>2021-07-04T22:58:00.460Z</time>
      </trkpt>
      <trkpt lat="43.417795" lon="5.366858">
        <ele>227.657382</ele>
        <time>2021-07-04T22:58:07.034Z</time>
      </trkpt>
      <trkpt lat="43.417763" lon="5.366865">
        <ele>227.667450</ele>
        <time>2021-07-04T22:58:07.772Z</time>
      </trkpt>
      <trkpt lat="43.417749" lon="5.366833">
        <ele>227.675880</ele>
        <time>2021-07-04T22:58:08.388Z</time>
      </trkpt>
      <trkpt lat="43.417731" lon="5.366803">
        <ele>227.684662</ele>
        <time>2021-07-04T22:58:09.026Z</time>
      </trkpt>
      <trkpt lat="43.417635" lon="5.366726">
        <ele>227.719184</ele>
        <time>2021-07-04T22:58:11.432Z</time>
      </trkpt>
      <trkpt lat="43.417523" lon="5.366736">
        <ele>227.754056</ele>
        <time>2021-07-04T22:58:13.957Z</time>
      </trkpt>
      <trkpt lat="43.417441" lon="5.366817">
        <ele>227.785415</ele>
        <time>2021-07-04T22:58:16.215Z</time>
      </trkpt>
      <trkpt lat="43.417399" lon="5.366989">
        <ele>227.826368</ele>
        <time>2021-07-04T22:58:19.276Z</time>
      </trkpt>
      <trkpt lat="43.417405" lon="5.367050">
        <ele>227.840261</ele>
        <time>2021-07-04T22:58:20.323Z</time>
      </trkpt>
      <trkpt lat="43.417385" lon="5.367097">
        <ele>227.852554</ele>
        <time>2021-07-04T22:58:21.313Z</time>
      </trkpt>
      <trkpt lat="43.417335" lon="5.367204">
        <ele>227.881269</ele>
        <time>2021-07-04T22:58:23.447Z</time>
      </trkpt>
      <trkpt lat="43.417074" lon="5.367378">
        <ele>227.971373</ele>
        <time>2021-07-04T22:58:30.632Z</time>
      </trkpt>
      <trkpt lat="43.416684" lon="5.367434">
        <ele>228.093207</ele>
        <time>2021-07-04T22:58:40.277Z</time>
      </trkpt>
      <trkpt lat="43.416272" lon="5.367492">
        <ele>228.215841</ele>
        <time>2021-07-04T22:58:50.416Z</time>
      </trkpt>
      <trkpt lat="43.415987" lon="5.367531">
        <ele>228.296183</ele>
        <time>2021-07-04T22:58:57.216Z</time>
      </trkpt>
      <trkpt lat="43.415805" lon="5.367534">
        <ele>228.347241</ele>
        <time>2021-07-04T22:59:01.499Z</time>
      </trkpt>
      <trkpt lat="43.415745" lon="5.367534">
        <ele>228.364072</ele>
        <time>2021-07-04T22:59:02.856Z</time>
      </trkpt>
      <trkpt lat="43.415505" lon="5.367505">
        <ele>228.431655</ele>
        <time>2021-07-04T22:59:08.300Z</time>
      </trkpt>
      <trkpt lat="43.415255" lon="5.367429">
        <ele>228.503474</ele>
        <time>2021-07-04T22:59:13.868Z</time>
      </trkpt>
      <trkpt lat="43.414816" lon="5.367214">
        <ele>228.634182</ele>
        <time>2021-07-04T22:59:24.617Z</time>
      </trkpt>
      <trkpt lat="43.414629" lon="5.367122">
        <ele>228.728168</ele>
        <time>2021-07-04T22:59:29.330Z</time>
      </trkpt>
      <trkpt lat="43.414247" lon="5.366934">
        <ele>229.011654</ele>
        <time>2021-07-04T22:59:39.090Z</time>
      </trkpt>
      <trkpt lat="43.414055" lon="5.366832">
        <ele>229.155467</ele>
        <time>2021-07-04T22:59:44.089Z</time>
      </trkpt>
      <trkpt lat="43.413975" lon="5.366790">
        <ele>229.215298</ele>
        <time>2021-07-04T22:59:46.192Z</time>
      </trkpt>
      <trkpt lat="43.413862" lon="5.366741">
        <ele>229.298087</ele>
        <time>2021-07-04T22:59:49.102Z</time>
      </trkpt>
      <trkpt lat="43.413644" lon="5.366642">
        <ele>229.458500</ele>
        <time>2021-07-04T22:59:54.835Z</time>
      </trkpt>
      <trkpt lat="43.413586" lon="5.366615">
        <ele>229.501285</ele>
        <time>2021-07-04T22:59:56.431Z</time>
      </trkpt>
      <trkpt lat="43.413530" lon="5.366588">
        <ele>229.542748</ele>
        <time>2021-07-04T22:59:57.919Z</time>
      </trkpt>
      <trkpt lat="43.412936" lon="5.366329">
        <ele>229.976580</ele>
        <time>2021-07-04T23:00:14.415Z</time>
      </trkpt>
      <trkpt lat="43.412743" lon="5.366274">
        <ele>230.110498</ele>
        <time>2021-07-04T23:00:19.884Z</time>
      </trkpt>
      <trkpt lat="43.412619" lon="5.366239">
        <ele>230.196505</ele>
        <time>2021-07-04T23:00:23.439Z</time>
      </trkpt>
      <trkpt lat="43.412573" lon="5.366232">
        <ele>230.227951</ele>
        <time>2021-07-04T23:00:24.784Z</time>
      </trkpt>
      <trkpt lat="43.411160" lon="5.366004">
        <ele>231.095109</ele>
        <time>2021-07-04T23:00:59.991Z</time>
      </trkpt>
      <trkpt lat="43.411039" lon="5.365977">
        <ele>231.017116</ele>
        <time>2021-07-04T23:01:02.519Z</time>
      </trkpt>
      <trkpt lat="43.410774" lon="5.365791">
        <ele>230.827852</ele>
        <time>2021-07-04T23:01:08.705Z</time>
      </trkpt>
      <trkpt lat="43.410581" lon="5.365767">
        <ele>230.704553</ele>
        <time>2021-07-04T23:01:12.656Z</time>
      </trkpt>
      <trkpt lat="43.410363" lon="5.365808">
        <ele>230.564558</ele>
        <time>2021-07-04T23:01:16.978Z</time>
      </trkpt>
      <trkpt lat="43.409985" lon="5.365765">
        <ele>230.323230</ele>
        <time>2021-07-04T23:01:24.328Z</time>
      </trkpt>
      <trkpt lat="43.409843" lon="5.365760">
        <ele>230.232850</ele>
        <time>2021-07-04T23:01:27.057Z</time>
      </trkpt>
      <trkpt lat="43.409713" lon="5.365756">
        <ele>230.150115</ele>
        <time>2021-07-04T23:01:29.466Z</time>
      </trkpt>
      <trkpt lat="43.409666" lon="5.365756">
        <ele>230.120211</ele>
        <time>2021-07-04T23:01:30.372Z</time>
      </trkpt>
      <trkpt lat="43.409507" lon="5.365764">
        <ele>230.018977</ele>
        <time>2021-07-04T23:01:33.305Z</time>
      </trkpt>
      <trkpt lat="43.409283" lon="5.365777">
        <ele>229.716197</ele>
        <time>2021-07-04T23:01:37.540Z</time>
      </trkpt>
      <trkpt lat="43.409212" lon="5.365786">
        <ele>229.611523</ele>
        <time>2021-07-04T23:01:38.984Z</time>
      </trkpt>
      <trkpt lat="43.408795" lon="5.365830">
        <ele>228.997541</ele>
        <time>2021-07-04T23:01:47.089Z</time>
      </trkpt>
      <trkpt lat="43.408398" lon="5.365864">
        <ele>228.413589</ele>
        <time>2021-07-04T23:01:54.777Z</time>
      </trkpt>
      <trkpt lat="43.408295" lon="5.365850">
        <ele>228.261642</ele>
        <time>2021-07-04T23:01:56.618Z</time>
      </trkpt>
      <trkpt lat="43.408142" lon="5.365773">
        <ele>228.022486</ele>
        <time>2021-07-04T23:01:59.574Z</time>
      </trkpt>
      <trkpt lat="43.408039" lon="5.365669">
        <ele>227.834955</ele>
        <time>2021-07-04T23:02:01.803Z</time>
      </trkpt>
      <trkpt lat="43.407474" lon="5.364782">
        <ele>226.168456</ele>
        <time>2021-07-04T23:02:16.538Z</time>
      </trkpt>
      <trkpt lat="43.407366" lon="5.364492">
        <ele>225.639273</ele>
        <time>2021-07-04T23:02:20.707Z</time>
      </trkpt>
      <trkpt lat="43.407324" lon="5.364360">
        <ele>225.405269</ele>
        <time>2021-07-04T23:02:22.479Z</time>
      </trkpt>
      <trkpt lat="43.407240" lon="5.364164">
        <ele>225.035741</ele>
        <time>2021-07-04T23:02:25.383Z</time>
      </trkpt>
      <trkpt lat="43.407223" lon="5.364123">
        <ele>224.959083</ele>
        <time>2021-07-04T23:02:25.958Z</time>
      </trkpt>
      <trkpt lat="43.407198" lon="5.363996">
        <ele>224.745418</ele>
        <time>2021-07-04T23:02:27.556Z</time>
      </trkpt>
      <trkpt lat="43.407188" lon="5.363917">
        <ele>224.615201</ele>
        <time>2021-07-04T23:02:28.531Z</time>
      </trkpt>
      <trkpt lat="43.407153" lon="5.363854">
        <ele>224.486414</ele>
        <time>2021-07-04T23:02:29.536Z</time>
      </trkpt>
      <trkpt lat="43.407125" lon="5.363709">
        <ele>224.242781</ele>
        <time>2021-07-04T23:02:31.467Z</time>
      </trkpt>
      <trkpt lat="43.407000" lon="5.363153">
        <ele>223.320541</ele>
        <time>2021-07-04T23:02:38.843Z</time>
      </trkpt>
      <trkpt lat="43.406825" lon="5.362471">
        <ele>222.812894</ele>
        <time>2021-07-04T23:02:47.880Z</time>
      </trkpt>
      <trkpt lat="43.406695" lon="5.362209">
        <ele>222.590210</ele>
        <time>2021-07-04T23:02:52.081Z</time>
      </trkpt>
      <trkpt lat="43.406686" lon="5.362198">
        <ele>222.578582</ele>
        <time>2021-07-04T23:02:52.252Z</time>
      </trkpt>
      <trkpt lat="43.405249" lon="5.360505">
        <ele>222.722572</ele>
        <time>2021-07-04T23:03:34.125Z</time>
      </trkpt>
      <trkpt lat="43.404793" lon="5.359992">
        <ele>223.474609</ele>
        <time>2021-07-04T23:03:53.359Z</time>
      </trkpt>
      <trkpt lat="43.404747" lon="5.359941">
        <ele>223.550034</ele>
        <time>2021-07-04T23:03:55.333Z</time>
      </trkpt>
      <trkpt lat="43.404703" lon="5.359894">
        <ele>223.621154</ele>
        <time>2021-07-04T23:03:57.139Z</time>
      </trkpt>
      <trkpt lat="43.404692" lon="5.359882">
        <ele>223.639077</ele>
        <time>2021-07-04T23:03:57.583Z</time>
      </trkpt>
      <trkpt lat="43.404205" lon="5.359431">
        <ele>224.443141</ele>
        <time>2021-07-04T23:04:16.576Z</time>
      </trkpt>
      <trkpt lat="43.404141" lon="5.359349">
        <ele>224.567181</ele>
        <time>2021-07-04T23:04:19.183Z</time>
      </trkpt>
      <trkpt lat="43.403970" lon="5.359125">
        <ele>224.902067</ele>
        <time>2021-07-04T23:04:26.419Z</time>
      </trkpt>
      <trkpt lat="43.403743" lon="5.358855">
        <ele>225.327676</ele>
        <time>2021-07-04T23:04:35.184Z</time>
      </trkpt>
      <trkpt lat="43.403634" lon="5.358680">
        <ele>225.565254</ele>
        <time>2021-07-04T23:04:39.581Z</time>
      </trkpt>
      <trkpt lat="43.403349" lon="5.358160">
        <ele>226.236604</ele>
        <time>2021-07-04T23:04:51.843Z</time>
      </trkpt>
      <trkpt lat="43.403244" lon="5.357962">
        <ele>226.423888</ele>
        <time>2021-07-04T23:04:55.792Z</time>
      </trkpt>
      <trkpt lat="43.403204" lon="5.357885">
        <ele>226.364334</ele>
        <time>2021-07-04T23:04:57.267Z</time>
      </trkpt>
      <trkpt lat="43.403101" lon="5.357666">
        <ele>226.200199</ele>
        <time>2021-07-04T23:05:01.469Z</time>
      </trkpt>
      <trkpt lat="43.403061" lon="5.357516">
        <ele>226.099670</ele>
        <time>2021-07-04T23:05:03.772Z</time>
      </trkpt>
      <trkpt lat="43.403062" lon="5.357469">
        <ele>226.070087</ele>
        <time>2021-07-04T23:05:04.458Z</time>
      </trkpt>
      <trkpt lat="43.403054" lon="5.357423">
        <ele>226.040328</ele>
        <time>2021-07-04T23:05:05.107Z</time>
      </trkpt>
      <trkpt lat="43.403039" lon="5.357384">
        <ele>226.012565</ele>
        <time>2021-07-04T23:05:05.702Z</time>
      </trkpt>
      <trkpt lat="43.402989" lon="5.357330">
        <ele>225.957529</ele>
        <time>2021-07-04T23:05:06.997Z</time>
      </trkpt>
      <trkpt lat="43.402959" lon="5.357317">
        <ele>225.930293</ele>
        <time>2021-07-04T23:05:07.651Z</time>
      </trkpt>
      <trkpt lat="43.402931" lon="5.357316">
        <ele>225.906038</ele>
        <time>2021-07-04T23:05:08.279Z</time>
      </trkpt>
      <trkpt lat="43.402904" lon="5.357322">
        <ele>225.882354</ele>
        <time>2021-07-04T23:05:08.749Z</time>
      </trkpt>
      <trkpt lat="43.402869" lon="5.357311">
        <ele>225.851266</ele>
        <time>2021-07-04T23:05:09.360Z</time>
      </trkpt>
      <trkpt lat="43.402829" lon="5.357287">
        <ele>225.813479</ele>
        <time>2021-07-04T23:05:10.245Z</time>
      </trkpt>
      <trkpt lat="43.402764" lon="5.357240">
        <ele>225.749897</ele>
        <time>2021-07-04T23:05:11.610Z</time>
      </trkpt>
      <trkpt lat="43.402680" lon="5.357171">
        <ele>225.665187</ele>
        <time>2021-07-04T23:05:13.355Z</time>
      </trkpt>
      <trkpt lat="43.402235" lon="5.357059">
        <ele>225.273444</ele>
        <time>2021-07-04T23:05:21.789Z</time>
      </trkpt>
      <trkpt lat="43.402211" lon="5.357061">
        <ele>225.252623</ele>
        <time>2021-07-04T23:05:22.149Z</time>
      </trkpt>
      <trkpt lat="43.402166" lon="5.357065">
        <ele>225.213573</ele>
        <time>2021-07-04T23:05:22.982Z</time>
      </trkpt>
      <trkpt lat="43.401939" lon="5.357091">
        <ele>225.016321</ele>
        <time>2021-07-04T23:05:27.330Z</time>
      </trkpt>
      <trkpt lat="43.401783" lon="5.357109">
        <ele>224.876878</ele>
        <time>2021-07-04T23:05:30.367Z</time>
      </trkpt>
      <trkpt lat="43.401516" lon="5.357053">
        <ele>224.555368</ele>
        <time>2021-07-04T23:05:35.656Z</time>
      </trkpt>
      <trkpt lat="43.401295" lon="5.356971">
        <ele>224.282895</ele>
        <time>2021-07-04T23:05:39.982Z</time>
      </trkpt>
      <trkpt lat="43.401217" lon="5.356928">
        <ele>224.182871</ele>
        <time>2021-07-04T23:05:41.755Z</time>
      </trkpt>
      <trkpt lat="43.401140" lon="5.356885">
        <ele>224.083952</ele>
        <time>2021-07-04T23:05:43.322Z</time>
      </trkpt>
      <trkpt lat="43.400655" lon="5.356459">
        <ele>223.399050</ele>
        <time>2021-07-04T23:05:55.043Z</time>
      </trkpt>
      <trkpt lat="43.400528" lon="5.356346">
        <ele>223.219027</ele>
        <time>2021-07-04T23:05:57.822Z</time>
      </trkpt>
      <trkpt lat="43.400124" lon="5.355992">
        <ele>222.514764</ele>
        <time>2021-07-04T23:06:06.429Z</time>
      </trkpt>
      <trkpt lat="43.399459" lon="5.355347">
        <ele>220.261046</ele>
        <time>2021-07-04T23:06:20.367Z</time>
      </trkpt>
      <trkpt lat="43.399395" lon="5.355256">
        <ele>220.006127</ele>
        <time>2021-07-04T23:06:21.817Z</time>
      </trkpt>
      <trkpt lat="43.399243" lon="5.354955">
        <ele>219.268312</ele>
        <time>2021-07-04T23:06:26.250Z</time>
      </trkpt>
      <trkpt lat="43.398979" lon="5.354327">
        <ele>217.807935</ele>
        <time>2021-07-04T23:06:34.704Z</time>
      </trkpt>
      <trkpt lat="43.398573" lon="5.353869">
        <ele>216.312008</ele>
        <time>2021-07-04T23:06:43.077Z</time>
      </trkpt>
      <trkpt lat="43.397012" lon="5.352886">
        <ele>211.821460</ele>
        <time>2021-07-04T23:07:12.066Z</time>
      </trkpt>
      <trkpt lat="43.396899" lon="5.352816">
        <ele>211.585287</ele>
        <time>2021-07-04T23:07:14.219Z</time>
      </trkpt>
      <trkpt lat="43.396471" lon="5.352549">
        <ele>210.689690</ele>
        <time>2021-07-04T23:07:22.745Z</time>
      </trkpt>
      <trkpt lat="43.396069" lon="5.352298">
        <ele>209.848372</ele>
        <time>2021-07-04T23:07:30.825Z</time>
      </trkpt>
      <trkpt lat="43.395742" lon="5.352079">
        <ele>209.132996</ele>
        <time>2021-07-04T23:07:37.490Z</time>
      </trkpt>
      <trkpt lat="43.395665" lon="5.352031">
        <ele>208.905981</ele>
        <time>2021-07-04T23:07:38.853Z</time>
      </trkpt>
      <trkpt lat="43.395105" lon="5.351722">
        <ele>207.285674</ele>
        <time>2021-07-04T23:07:49.760Z</time>
      </trkpt>
      <trkpt lat="43.394427" lon="5.351624">
        <ele>205.454832</ele>
        <time>2021-07-04T23:08:00.917Z</time>
      </trkpt>
      <trkpt lat="43.393486" lon="5.351675">
        <ele>202.534692</ele>
        <time>2021-07-04T23:08:16.014Z</time>
      </trkpt>
      <trkpt lat="43.393430" lon="5.351675">
        <ele>202.343840</ele>
        <time>2021-07-04T23:08:16.901Z</time>
      </trkpt>
      <trkpt lat="43.392344" lon="5.351731">
        <ele>198.640090</ele>
        <time>2021-07-04T23:08:34.380Z</time>
      </trkpt>
      <trkpt lat="43.390035" lon="5.352131">
        <ele>190.523032</ele>
        <time>2021-07-04T23:09:12.121Z</time>
      </trkpt>
      <trkpt lat="43.389598" lon="5.352179">
        <ele>188.644792</ele>
        <time>2021-07-04T23:09:18.958Z</time>
      </trkpt>
      <trkpt lat="43.389308" lon="5.352189">
        <ele>187.401924</ele>
        <time>2021-07-04T23:09:23.460Z</time>
      </trkpt>
      <trkpt lat="43.388963" lon="5.352194">
        <ele>185.923721</ele>
        <time>2021-07-04T23:09:28.738Z</time>
      </trkpt>
      <trkpt lat="43.388913" lon="5.352182">
        <ele>185.706267</ele>
        <time>2021-07-04T23:09:29.454Z</time>
      </trkpt>
      <trkpt lat="43.388859" lon="5.352121">
        <ele>185.406938</ele>
        <time>2021-07-04T23:09:30.495Z</time>
      </trkpt>
      <trkpt lat="43.388803" lon="5.352102">
        <ele>185.159826</ele>
        <time>2021-07-04T23:09:31.402Z</time>
      </trkpt>
      <trkpt lat="43.388747" lon="5.352114">
        <ele>184.917008</ele>
        <time>2021-07-04T23:09:32.317Z</time>
      </trkpt>
      <trkpt lat="43.388711" lon="5.352135">
        <ele>184.749483</ele>
        <time>2021-07-04T23:09:32.917Z</time>
      </trkpt>
      <trkpt lat="43.388681" lon="5.352181">
        <ele>184.549798</ele>
        <time>2021-07-04T23:09:33.600Z</time>
      </trkpt>
      <trkpt lat="43.388575" lon="5.352180">
        <ele>183.997248</ele>
        <time>2021-07-04T23:09:35.124Z</time>
      </trkpt>
      <trkpt lat="43.388436" lon="5.352144">
        <ele>183.259973</ele>
        <time>2021-07-04T23:09:37.244Z</time>
      </trkpt>
      <trkpt lat="43.388030" lon="5.352025">
        <ele>181.096174</ele>
        <time>2021-07-04T23:09:43.433Z</time>
      </trkpt>
      <trkpt lat="43.387897" lon="5.351997">
        <ele>180.394829</ele>
        <time>2021-07-04T23:09:45.406Z</time>
      </trkpt>
      <trkpt lat="43.387812" lon="5.351990">
        <ele>179.950964</ele>
        <time>2021-07-04T23:09:46.613Z</time>
      </trkpt>
      <trkpt lat="43.387687" lon="5.351985">
        <ele>179.299112</ele>
        <time>2021-07-04T23:09:48.549Z</time>
      </trkpt>
      <trkpt lat="43.387505" lon="5.352024">
        <ele>178.338982</ele>
        <time>2021-07-04T23:09:51.271Z</time>
      </trkpt>
      <trkpt lat="43.387229" lon="5.352052">
        <ele>176.896395</ele>
        <time>2021-07-04T23:09:55.427Z</time>
      </trkpt>
      <trkpt lat="43.387147" lon="5.352065">
        <ele>176.466133</ele>
        <time>2021-07-04T23:09:56.671Z</time>
      </trkpt>
      <trkpt lat="43.387138" lon="5.352067">
        <ele>176.418611</ele>
        <time>2021-07-04T23:09:56.785Z</time>
      </trkpt>
      <trkpt lat="43.386720" lon="5.352126">
        <ele>174.570448</ele>
        <time>2021-07-04T23:10:03.247Z</time>
      </trkpt>
      <trkpt lat="43.386675" lon="5.352133">
        <ele>174.416255</ele>
        <time>2021-07-04T23:10:03.916Z</time>
      </trkpt>
      <trkpt lat="43.386513" lon="5.352156">
        <ele>173.861745</ele>
        <time>2021-07-04T23:10:06.500Z</time>
      </trkpt>
      <trkpt lat="43.385906" lon="5.352245">
        <ele>171.783316</ele>
        <time>2021-07-04T23:10:16.246Z</time>
      </trkpt>
      <trkpt lat="43.385471" lon="5.352153">
        <ele>170.284824</ele>
        <time>2021-07-04T23:10:23.662Z</time>
      </trkpt>
      <trkpt lat="43.384958" lon="5.351844">
        <ele>168.429855</ele>
        <time>2021-07-04T23:10:33.287Z</time>
      </trkpt>
      <trkpt lat="43.383868" lon="5.350980">
        <ele>164.457725</ele>
        <time>2021-07-04T23:10:53.815Z</time>
      </trkpt>
      <trkpt lat="43.383749" lon="5.350894">
        <ele>164.033285</ele>
        <time>2021-07-04T23:10:55.997Z</time>
      </trkpt>
      <trkpt lat="43.383567" lon="5.350760">
        <ele>163.384045</ele>
        <time>2021-07-04T23:10:59.227Z</time>
      </trkpt>
      <trkpt lat="43.382820" lon="5.350414">
        <ele>161.109175</ele>
        <time>2021-07-04T23:11:11.788Z</time>
      </trkpt>
      <trkpt lat="43.382356" lon="5.350400">
        <ele>159.769658</ele>
        <time>2021-07-04T23:11:19.336Z</time>
      </trkpt>
      <trkpt lat="43.382047" lon="5.350535">
        <ele>158.833944</ele>
        <time>2021-07-04T23:11:24.832Z</time>
      </trkpt>
      <trkpt lat="43.381921" lon="5.350566">
        <ele>158.464516</ele>
        <time>2021-07-04T23:11:27.303Z</time>
      </trkpt>
      <trkpt lat="43.381838" lon="5.350560">
        <ele>158.224631</ele>
        <time>2021-07-04T23:11:28.996Z</time>
      </trkpt>
      <trkpt lat="43.381784" lon="5.350550">
        <ele>158.182369</ele>
        <time>2021-07-04T23:11:29.972Z</time>
      </trkpt>
      <trkpt lat="43.381747" lon="5.350514">
        <ele>158.150109</ele>
        <time>2021-07-04T23:11:30.785Z</time>
      </trkpt>
      <trkpt lat="43.381703" lon="5.350501">
        <ele>158.118073</ele>
        <time>2021-07-04T23:11:31.604Z</time>
      </trkpt>
      <trkpt lat="43.381659" lon="5.350514">
        <ele>158.086036</ele>
        <time>2021-07-04T23:11:32.441Z</time>
      </trkpt>
      <trkpt lat="43.381619" lon="5.350553">
        <ele>158.051137</ele>
        <time>2021-07-04T23:11:33.467Z</time>
      </trkpt>
      <trkpt lat="43.381595" lon="5.350613">
        <ele>158.015703</ele>
        <time>2021-07-04T23:11:34.497Z</time>
      </trkpt>
      <trkpt lat="43.381591" lon="5.350657">
        <ele>157.992761</ele>
        <time>2021-07-04T23:11:35.176Z</time>
      </trkpt>
      <trkpt lat="43.381595" lon="5.350701">
        <ele>157.969818</ele>
        <time>2021-07-04T23:11:35.857Z</time>
      </trkpt>
      <trkpt lat="43.381561" lon="5.350791">
        <ele>157.917339</ele>
        <time>2021-07-04T23:11:37.230Z</time>
      </trkpt>
      <trkpt lat="43.381520" lon="5.350858">
        <ele>157.872023</ele>
        <time>2021-07-04T23:11:38.399Z</time>
      </trkpt>
      <trkpt lat="43.381464" lon="5.350855">
        <ele>157.832128</ele>
        <time>2021-07-04T23:11:39.457Z</time>
      </trkpt>
      <trkpt lat="43.381413" lon="5.351084">
        <ele>157.708209</ele>
        <time>2021-07-04T23:11:43.364Z</time>
      </trkpt>
      <trkpt lat="43.381323" lon="5.351327">
        <ele>157.567101</ele>
        <time>2021-07-04T23:11:47.329Z</time>
      </trkpt>
      <trkpt lat="43.381050" lon="5.351621">
        <ele>157.320308</ele>
        <time>2021-07-04T23:11:54.767Z</time>
      </trkpt>
      <trkpt lat="43.380902" lon="5.351717">
        <ele>157.203830</ele>
        <time>2021-07-04T23:11:58.984Z</time>
      </trkpt>
      <trkpt lat="43.379987" lon="5.352307">
        <ele>156.356751</ele>
        <time>2021-07-04T23:12:21.392Z</time>
      </trkpt>
      <trkpt lat="43.379265" lon="5.352794">
        <ele>155.623688</ele>
        <time>2021-07-04T23:12:37.551Z</time>
      </trkpt>
      <trkpt lat="43.377808" lon="5.353776">
        <ele>153.320313</ele>
        <time>2021-07-04T23:13:08.087Z</time>
      </trkpt>
      <trkpt lat="43.377729" lon="5.353816">
        <ele>153.188815</ele>
        <time>2021-07-04T23:13:13.915Z</time>
      </trkpt>
      <trkpt lat="43.377700" lon="5.353746">
        <ele>153.097332</ele>
        <time>2021-07-04T23:13:17.995Z</time>
      </trkpt>
      <trkpt lat="43.377676" lon="5.353690">
        <ele>153.023520</ele>
        <time>2021-07-04T23:13:21.269Z</time>
      </trkpt>
      <trkpt lat="43.377599" lon="5.353747">
        <ele>152.886932</ele>
        <time>2021-07-04T23:13:22.903Z</time>
      </trkpt>
      <trkpt lat="43.377446" lon="5.353603">
        <ele>152.597356</ele>
        <time>2021-07-04T23:13:26.595Z</time>
      </trkpt>
      <trkpt lat="43.376961" lon="5.353431">
        <ele>152.314101</ele>
        <time>2021-07-04T23:13:36.553Z</time>
      </trkpt>
      <trkpt lat="43.376633" lon="5.353264">
        <ele>152.171625</ele>
        <time>2021-07-04T23:13:44.054Z</time>
      </trkpt>
      <trkpt lat="43.376097" lon="5.353516">
        <ele>151.940873</ele>
        <time>2021-07-04T23:13:56.389Z</time>
      </trkpt>
      <trkpt lat="43.375653" lon="5.353683">
        <ele>151.755841</ele>
        <time>2021-07-04T23:14:06.836Z</time>
      </trkpt>
      <trkpt lat="43.375331" lon="5.353808">
        <ele>151.701933</ele>
        <time>2021-07-04T23:14:14.484Z</time>
      </trkpt>
      <trkpt lat="43.375240" lon="5.353848">
        <ele>151.686540</ele>
        <time>2021-07-04T23:14:16.820Z</time>
      </trkpt>
      <trkpt lat="43.374979" lon="5.354029">
        <ele>151.639446</ele>
        <time>2021-07-04T23:14:23.505Z</time>
      </trkpt>
      <trkpt lat="43.374959" lon="5.354044">
        <ele>151.635775</ele>
        <time>2021-07-04T23:14:24.146Z</time>
      </trkpt>
      <trkpt lat="43.374864" lon="5.354118">
        <ele>151.618185</ele>
        <time>2021-07-04T23:14:26.620Z</time>
      </trkpt>
      <trkpt lat="43.374444" lon="5.354436">
        <ele>151.540941</ele>
        <time>2021-07-04T23:14:36.788Z</time>
      </trkpt>
      <trkpt lat="43.374394" lon="5.354478">
        <ele>151.531501</ele>
        <time>2021-07-04T23:14:37.978Z</time>
      </trkpt>
      <trkpt lat="43.374350" lon="5.354511">
        <ele>151.523427</ele>
        <time>2021-07-04T23:14:39.050Z</time>
      </trkpt>
      <trkpt lat="43.374294" lon="5.354552">
        <ele>151.513206</ele>
        <time>2021-07-04T23:14:40.322Z</time>
      </trkpt>
      <trkpt lat="43.374024" lon="5.354618">
        <ele>151.469020</ele>
        <time>2021-07-04T23:14:46.040Z</time>
      </trkpt>
      <trkpt lat="43.373901" lon="5.354617">
        <ele>151.359095</ele>
        <time>2021-07-04T23:14:48.479Z</time>
      </trkpt>
      <trkpt lat="43.373769" lon="5.354611">
        <ele>151.233916</ele>
        <time>2021-07-04T23:14:51.097Z</time>
      </trkpt>
      <trkpt lat="43.373722" lon="5.354544">
        <ele>151.169766</ele>
        <time>2021-07-04T23:14:52.396Z</time>
      </trkpt>
      <trkpt lat="43.373659" lon="5.354508">
        <ele>151.105108</ele>
        <time>2021-07-04T23:14:53.742Z</time>
      </trkpt>
      <trkpt lat="43.373605" lon="5.354506">
        <ele>151.053908</ele>
        <time>2021-07-04T23:14:54.702Z</time>
      </trkpt>
      <trkpt lat="43.373510" lon="5.354569">
        <ele>150.953950</ele>
        <time>2021-07-04T23:14:56.861Z</time>
      </trkpt>
      <trkpt lat="43.373478" lon="5.354629">
        <ele>150.902680</ele>
        <time>2021-07-04T23:14:57.895Z</time>
      </trkpt>
      <trkpt lat="43.373459" lon="5.354717">
        <ele>150.839433</ele>
        <time>2021-07-04T23:14:59.153Z</time>
      </trkpt>
      <trkpt lat="43.373468" lon="5.354808">
        <ele>150.776161</ele>
        <time>2021-07-04T23:15:00.456Z</time>
      </trkpt>
      <trkpt lat="43.373501" lon="5.354888">
        <ele>150.712788</ele>
        <time>2021-07-04T23:15:01.621Z</time>
      </trkpt>
      <trkpt lat="43.373184" lon="5.355094">
        <ele>150.380498</ele>
        <time>2021-07-04T23:15:08.255Z</time>
      </trkpt>
      <trkpt lat="43.373005" lon="5.355204">
        <ele>150.194683</ele>
        <time>2021-07-04T23:15:12.087Z</time>
      </trkpt>
      <trkpt lat="43.372973" lon="5.355224">
        <ele>150.161370</ele>
        <time>2021-07-04T23:15:12.784Z</time>
      </trkpt>
      <trkpt lat="43.372744" lon="5.355375">
        <ele>149.920677</ele>
        <time>2021-07-04T23:15:17.760Z</time>
      </trkpt>
      <trkpt lat="43.372196" lon="5.355803">
        <ele>149.359834</ele>
        <time>2021-07-04T23:15:29.981Z</time>
      </trkpt>
      <trkpt lat="43.372176" lon="5.355829">
        <ele>149.335915</ele>
        <time>2021-07-04T23:15:30.453Z</time>
      </trkpt>
      <trkpt lat="43.372130" lon="5.355892">
        <ele>149.279492</ele>
        <time>2021-07-04T23:15:31.736Z</time>
      </trkpt>
      <trkpt lat="43.372112" lon="5.355943">
        <ele>149.243670</ele>
        <time>2021-07-04T23:15:32.634Z</time>
      </trkpt>
      <trkpt lat="43.372099" lon="5.356025">
        <ele>149.190639</ele>
        <time>2021-07-04T23:15:33.887Z</time>
      </trkpt>
      <trkpt lat="43.371986" lon="5.356043">
        <ele>149.091757</ele>
        <time>2021-07-04T23:15:36.154Z</time>
      </trkpt>
      <trkpt lat="43.371848" lon="5.356066">
        <ele>148.970923</ele>
        <time>2021-07-04T23:15:38.806Z</time>
      </trkpt>
      <trkpt lat="43.371807" lon="5.356072">
        <ele>148.935083</ele>
        <time>2021-07-04T23:15:39.703Z</time>
      </trkpt>
      <trkpt lat="43.371489" lon="5.356115">
        <ele>148.657328</ele>
        <time>2021-07-04T23:15:45.941Z</time>
      </trkpt>
      <trkpt lat="43.371303" lon="5.356140">
        <ele>148.494878</ele>
        <time>2021-07-04T23:15:49.813Z</time>
      </trkpt>
      <trkpt lat="43.371267" lon="5.356146">
        <ele>148.463356</ele>
        <time>2021-07-04T23:15:50.461Z</time>
      </trkpt>
      <trkpt lat="43.370936" lon="5.356182">
        <ele>148.167553</ele>
        <time>2021-07-04T23:15:56.999Z</time>
      </trkpt>
      <trkpt lat="43.370374" lon="5.356250">
        <ele>147.534402</ele>
        <time>2021-07-04T23:16:07.891Z</time>
      </trkpt>
      <trkpt lat="43.370130" lon="5.356287">
        <ele>147.258909</ele>
        <time>2021-07-04T23:16:12.637Z</time>
      </trkpt>
      <trkpt lat="43.369897" lon="5.356317">
        <ele>146.996276</ele>
        <time>2021-07-04T23:16:17.191Z</time>
      </trkpt>
      <trkpt lat="43.369614" lon="5.356348">
        <ele>146.677668</ele>
        <time>2021-07-04T23:16:22.497Z</time>
      </trkpt>
      <trkpt lat="43.369514" lon="5.356364">
        <ele>146.564684</ele>
        <time>2021-07-04T23:16:24.378Z</time>
      </trkpt>
      <trkpt lat="43.369370" lon="5.356383">
        <ele>146.402335</ele>
        <time>2021-07-04T23:16:27.055Z</time>
      </trkpt>
      <trkpt lat="43.369111" lon="5.356416">
        <ele>146.046517</ele>
        <time>2021-07-04T23:16:31.847Z</time>
      </trkpt>
      <trkpt lat="43.369040" lon="5.356425">
        <ele>145.893884</ele>
        <time>2021-07-04T23:16:33.127Z</time>
      </trkpt>
      <trkpt lat="43.368515" lon="5.356487">
        <ele>144.765884</ele>
        <time>2021-07-04T23:16:42.763Z</time>
      </trkpt>
      <trkpt lat="43.368362" lon="5.356510">
        <ele>144.436407</ele>
        <time>2021-07-04T23:16:45.593Z</time>
      </trkpt>
      <trkpt lat="43.368142" lon="5.356546">
        <ele>143.962134</ele>
        <time>2021-07-04T23:16:49.482Z</time>
      </trkpt>
      <trkpt lat="43.367490" lon="5.356633">
        <ele>142.559848</ele>
        <time>2021-07-04T23:17:00.672Z</time>
      </trkpt>
      <trkpt lat="43.367416" lon="5.356643">
        <ele>142.400673</ele>
        <time>2021-07-04T23:17:01.827Z</time>
      </trkpt>
      <trkpt lat="43.367305" lon="5.356655">
        <ele>142.015346</ele>
        <time>2021-07-04T23:17:03.715Z</time>
      </trkpt>
      <trkpt lat="43.367175" lon="5.356604">
        <ele>141.473039</ele>
        <time>2021-07-04T23:17:05.912Z</time>
      </trkpt>
      <trkpt lat="43.367120" lon="5.356570">
        <ele>141.231144</ele>
        <time>2021-07-04T23:17:06.822Z</time>
      </trkpt>
      <trkpt lat="43.367052" lon="5.356532">
        <ele>140.936702</ele>
        <time>2021-07-04T23:17:07.917Z</time>
      </trkpt>
      <trkpt lat="43.367033" lon="5.356485">
        <ele>140.779867</ele>
        <time>2021-07-04T23:17:08.566Z</time>
      </trkpt>
      <trkpt lat="43.367002" lon="5.356450">
        <ele>140.618981</ele>
        <time>2021-07-04T23:17:09.231Z</time>
      </trkpt>
      <trkpt lat="43.366964" lon="5.356433">
        <ele>140.458680</ele>
        <time>2021-07-04T23:17:09.855Z</time>
      </trkpt>
      <trkpt lat="43.366888" lon="5.356459">
        <ele>140.144509</ele>
        <time>2021-07-04T23:17:11.123Z</time>
      </trkpt>
      <trkpt lat="43.366860" lon="5.356498">
        <ele>139.984655</ele>
        <time>2021-07-04T23:17:11.724Z</time>
      </trkpt>
      <trkpt lat="43.366844" lon="5.356548">
        <ele>139.825336</ele>
        <time>2021-07-04T23:17:12.319Z</time>
      </trkpt>
      <trkpt lat="43.366774" lon="5.356636">
        <ele>139.444915</ele>
        <time>2021-07-04T23:17:13.747Z</time>
      </trkpt>
      <trkpt lat="43.366623" lon="5.356717">
        <ele>138.794729</ele>
        <time>2021-07-04T23:17:16.361Z</time>
      </trkpt>
      <trkpt lat="43.366494" lon="5.356752">
        <ele>138.267258</ele>
        <time>2021-07-04T23:17:18.305Z</time>
      </trkpt>
      <trkpt lat="43.366309" lon="5.356778">
        <ele>137.521243</ele>
        <time>2021-07-04T23:17:21.201Z</time>
      </trkpt>
      <trkpt lat="43.366117" lon="5.356805">
        <ele>136.746996</ele>
        <time>2021-07-04T23:17:24.120Z</time>
      </trkpt>
      <trkpt lat="43.365919" lon="5.356794">
        <ele>135.952046</ele>
        <time>2021-07-04T23:17:27.280Z</time>
      </trkpt>
      <trkpt lat="43.365802" lon="5.356812">
        <ele>135.479759</ele>
        <time>2021-07-04T23:17:29.075Z</time>
      </trkpt>
      <trkpt lat="43.365576" lon="5.356845">
        <ele>134.791064</ele>
        <time>2021-07-04T23:17:32.657Z</time>
      </trkpt>
      <trkpt lat="43.365184" lon="5.356909">
        <ele>133.853183</ele>
        <time>2021-07-04T23:17:38.820Z</time>
      </trkpt>
      <trkpt lat="43.364938" lon="5.356945">
        <ele>133.265419</ele>
        <time>2021-07-04T23:17:42.776Z</time>
      </trkpt>
      <trkpt lat="43.364582" lon="5.356990">
        <ele>132.416044</ele>
        <time>2021-07-04T23:17:48.785Z</time>
      </trkpt>
      <trkpt lat="43.364156" lon="5.357041">
        <ele>131.400094</ele>
        <time>2021-07-04T23:17:56.540Z</time>
      </trkpt>
      <trkpt lat="43.363876" lon="5.357078">
        <ele>130.907290</ele>
        <time>2021-07-04T23:18:02.607Z</time>
      </trkpt>
      <trkpt lat="43.363715" lon="5.357115">
        <ele>131.138995</ele>
        <time>2021-07-04T23:18:06.668Z</time>
      </trkpt>
      <trkpt lat="43.362857" lon="5.357223">
        <ele>132.362008</ele>
        <time>2021-07-04T23:18:30.768Z</time>
      </trkpt>
      <trkpt lat="43.362651" lon="5.357238">
        <ele>132.654832</ele>
        <time>2021-07-04T23:18:37.012Z</time>
      </trkpt>
      <trkpt lat="43.362565" lon="5.357247">
        <ele>132.777261</ele>
        <time>2021-07-04T23:18:39.733Z</time>
      </trkpt>
      <trkpt lat="43.362332" lon="5.357273">
        <ele>133.109089</ele>
        <time>2021-07-04T23:18:47.048Z</time>
      </trkpt>
      <trkpt lat="43.362167" lon="5.357298">
        <ele>133.344722</ele>
        <time>2021-07-04T23:18:52.524Z</time>
      </trkpt>
      <trkpt lat="43.361271" lon="5.357421">
        <ele>134.648942</ele>
        <time>2021-07-04T23:19:21.311Z</time>
      </trkpt>
      <trkpt lat="43.360543" lon="5.357511">
        <ele>135.708495</ele>
        <time>2021-07-04T23:19:41.217Z</time>
      </trkpt>
      <trkpt lat="43.360303" lon="5.357544">
        <ele>135.882541</ele>
        <time>2021-07-04T23:19:46.660Z</time>
      </trkpt>
      <trkpt lat="43.359903" lon="5.357589">
        <ele>134.641250</ele>
        <time>2021-07-04T23:19:54.551Z</time>
      </trkpt>
      <trkpt lat="43.359721" lon="5.357619">
        <ele>134.074315</ele>
        <time>2021-07-04T23:19:57.834Z</time>
      </trkpt>
      <trkpt lat="43.359511" lon="5.357656">
        <ele>133.419499</ele>
        <time>2021-07-04T23:20:01.387Z</time>
      </trkpt>
      <trkpt lat="43.359252" lon="5.357683">
        <ele>132.616140</ele>
        <time>2021-07-04T23:20:05.614Z</time>
      </trkpt>
      <trkpt lat="43.358820" lon="5.357666">
        <ele>131.279462</ele>
        <time>2021-07-04T23:20:12.245Z</time>
      </trkpt>
      <trkpt lat="43.358646" lon="5.357653">
        <ele>130.740504</ele>
        <time>2021-07-04T23:20:14.835Z</time>
      </trkpt>
      <trkpt lat="43.358512" lon="5.357635">
        <ele>130.148996</ele>
        <time>2021-07-04T23:20:16.781Z</time>
      </trkpt>
      <trkpt lat="43.358417" lon="5.357619">
        <ele>129.402258</ele>
        <time>2021-07-04T23:20:18.175Z</time>
      </trkpt>
      <trkpt lat="43.358284" lon="5.357612">
        <ele>128.363816</ele>
        <time>2021-07-04T23:20:20.102Z</time>
      </trkpt>
      <trkpt lat="43.358126" lon="5.357597">
        <ele>127.128148</ele>
        <time>2021-07-04T23:20:22.365Z</time>
      </trkpt>
      <trkpt lat="43.357757" lon="5.357560">
        <ele>124.241524</ele>
        <time>2021-07-04T23:20:27.602Z</time>
      </trkpt>
      <trkpt lat="43.357558" lon="5.357540">
        <ele>122.684761</ele>
        <time>2021-07-04T23:20:30.410Z</time>
      </trkpt>
      <trkpt lat="43.357418" lon="5.357526">
        <ele>121.589581</ele>
        <time>2021-07-04T23:20:32.360Z</time>
      </trkpt>
      <trkpt lat="43.357240" lon="5.357507">
        <ele>120.196627</ele>
        <time>2021-07-04T23:20:34.837Z</time>
      </trkpt>
      <trkpt lat="43.357150" lon="5.357497">
        <ele>119.492148</ele>
        <time>2021-07-04T23:20:36.069Z</time>
      </trkpt>
      <trkpt lat="43.357092" lon="5.357491">
        <ele>119.038347</ele>
        <time>2021-07-04T23:20:36.867Z</time>
      </trkpt>
      <trkpt lat="43.356940" lon="5.357475">
        <ele>117.848956</ele>
        <time>2021-07-04T23:20:38.971Z</time>
      </trkpt>
      <trkpt lat="43.356847" lon="5.357466">
        <ele>117.121564</ele>
        <time>2021-07-04T23:20:40.243Z</time>
      </trkpt>
      <trkpt lat="43.356775" lon="5.357459">
        <ele>116.558410</ele>
        <time>2021-07-04T23:20:41.235Z</time>
      </trkpt>
      <trkpt lat="43.356377" lon="5.357423">
        <ele>113.186726</ele>
        <time>2021-07-04T23:20:46.707Z</time>
      </trkpt>
      <trkpt lat="43.356354" lon="5.357421">
        <ele>112.991138</ele>
        <time>2021-07-04T23:20:47.030Z</time>
      </trkpt>
      <trkpt lat="43.355951" lon="5.357367">
        <ele>109.554733</ele>
        <time>2021-07-04T23:20:52.606Z</time>
      </trkpt>
      <trkpt lat="43.355770" lon="5.357359">
        <ele>108.017816</ele>
        <time>2021-07-04T23:20:55.090Z</time>
      </trkpt>
      <trkpt lat="43.355683" lon="5.357349">
        <ele>107.276884</ele>
        <time>2021-07-04T23:20:56.290Z</time>
      </trkpt>
      <trkpt lat="43.355527" lon="5.357334">
        <ele>105.949699</ele>
        <time>2021-07-04T23:20:58.475Z</time>
      </trkpt>
      <trkpt lat="43.355414" lon="5.357325">
        <ele>104.989076</ele>
        <time>2021-07-04T23:21:00.049Z</time>
      </trkpt>
      <trkpt lat="43.355334" lon="5.357317">
        <ele>104.308333</ele>
        <time>2021-07-04T23:21:01.153Z</time>
      </trkpt>
      <trkpt lat="43.355118" lon="5.357299">
        <ele>102.471806</ele>
        <time>2021-07-04T23:21:04.213Z</time>
      </trkpt>
      <trkpt lat="43.354250" lon="5.357212">
        <ele>97.103427</ele>
        <time>2021-07-04T23:21:16.709Z</time>
      </trkpt>
      <trkpt lat="43.354227" lon="5.357211">
        <ele>96.973208</ele>
        <time>2021-07-04T23:21:17.050Z</time>
      </trkpt>
      <trkpt lat="43.354100" lon="5.357188">
        <ele>96.248328</ele>
        <time>2021-07-04T23:21:18.988Z</time>
      </trkpt>
      <trkpt lat="43.354000" lon="5.357180">
        <ele>95.681486</ele>
        <time>2021-07-04T23:21:20.476Z</time>
      </trkpt>
      <trkpt lat="43.353919" lon="5.357188">
        <ele>95.221937</ele>
        <time>2021-07-04T23:21:21.684Z</time>
      </trkpt>
      <trkpt lat="43.353729" lon="5.357227">
        <ele>94.134844</ele>
        <time>2021-07-04T23:21:24.673Z</time>
      </trkpt>
      <trkpt lat="43.353495" lon="5.357305">
        <ele>92.772330</ele>
        <time>2021-07-04T23:21:28.352Z</time>
      </trkpt>
      <trkpt lat="43.353218" lon="5.357430">
        <ele>91.122597</ele>
        <time>2021-07-04T23:21:32.837Z</time>
      </trkpt>
      <trkpt lat="43.352949" lon="5.357582">
        <ele>89.624482</ele>
        <time>2021-07-04T23:21:37.336Z</time>
      </trkpt>
      <trkpt lat="43.352754" lon="5.357672">
        <ele>88.576146</ele>
        <time>2021-07-04T23:21:40.471Z</time>
      </trkpt>
      <trkpt lat="43.352615" lon="5.357745">
        <ele>87.817803</ele>
        <time>2021-07-04T23:21:42.796Z</time>
      </trkpt>
      <trkpt lat="43.352553" lon="5.357774">
        <ele>87.484029</ele>
        <time>2021-07-04T23:21:43.772Z</time>
      </trkpt>
      <trkpt lat="43.352321" lon="5.357890">
        <ele>86.225865</ele>
        <time>2021-07-04T23:21:47.618Z</time>
      </trkpt>
      <trkpt lat="43.352241" lon="5.357927">
        <ele>85.795687</ele>
        <time>2021-07-04T23:21:48.919Z</time>
      </trkpt>
      <trkpt lat="43.351376" lon="5.358366">
        <ele>80.974328</ele>
        <time>2021-07-04T23:22:02.484Z</time>
      </trkpt>
      <trkpt lat="43.350732" lon="5.358667">
        <ele>76.902375</ele>
        <time>2021-07-04T23:22:12.353Z</time>
      </trkpt>
      <trkpt lat="43.350561" lon="5.358708">
        <ele>75.863224</ele>
        <time>2021-07-04T23:22:14.822Z</time>
      </trkpt>
      <trkpt lat="43.350313" lon="5.358734">
        <ele>74.374240</ele>
        <time>2021-07-04T23:22:18.457Z</time>
      </trkpt>
      <trkpt lat="43.350108" lon="5.358761">
        <ele>73.141372</ele>
        <time>2021-07-04T23:22:21.528Z</time>
      </trkpt>
      <trkpt lat="43.350064" lon="5.358767">
        <ele>72.876670</ele>
        <time>2021-07-04T23:22:22.153Z</time>
      </trkpt>
      <trkpt lat="43.350027" lon="5.358772">
        <ele>72.654099</ele>
        <time>2021-07-04T23:22:22.710Z</time>
      </trkpt>
      <trkpt lat="43.349906" lon="5.358791">
        <ele>71.925014</ele>
        <time>2021-07-04T23:22:24.502Z</time>
      </trkpt>
      <trkpt lat="43.349723" lon="5.358812">
        <ele>70.891932</ele>
        <time>2021-07-04T23:22:27.294Z</time>
      </trkpt>
      <trkpt lat="43.349448" lon="5.358853">
        <ele>69.778940</ele>
        <time>2021-07-04T23:22:31.462Z</time>
      </trkpt>
      <trkpt lat="43.349426" lon="5.358856">
        <ele>69.689985</ele>
        <time>2021-07-04T23:22:31.820Z</time>
      </trkpt>
      <trkpt lat="43.349299" lon="5.358870">
        <ele>69.177341</ele>
        <time>2021-07-04T23:22:33.769Z</time>
      </trkpt>
      <trkpt lat="43.349255" lon="5.358873">
        <ele>69.000082</ele>
        <time>2021-07-04T23:22:34.413Z</time>
      </trkpt>
      <trkpt lat="43.349107" lon="5.358887">
        <ele>68.403173</ele>
        <time>2021-07-04T23:22:36.614Z</time>
      </trkpt>
      <trkpt lat="43.349085" lon="5.358890">
        <ele>68.314218</ele>
        <time>2021-07-04T23:22:36.968Z</time>
      </trkpt>
      <trkpt lat="43.349063" lon="5.358894">
        <ele>68.224927</ele>
        <time>2021-07-04T23:22:37.308Z</time>
      </trkpt>
      <trkpt lat="43.348883" lon="5.358911">
        <ele>67.498961</ele>
        <time>2021-07-04T23:22:40.154Z</time>
      </trkpt>
      <trkpt lat="43.348442" lon="5.358966">
        <ele>65.717242</ele>
        <time>2021-07-04T23:22:47.264Z</time>
      </trkpt>
      <trkpt lat="43.347834" lon="5.359035">
        <ele>63.488560</ele>
        <time>2021-07-04T23:22:57.317Z</time>
      </trkpt>
      <trkpt lat="43.347711" lon="5.359052">
        <ele>63.204038</ele>
        <time>2021-07-04T23:22:59.347Z</time>
      </trkpt>
      <trkpt lat="43.347622" lon="5.359068">
        <ele>62.997453</ele>
        <time>2021-07-04T23:23:00.773Z</time>
      </trkpt>
      <trkpt lat="43.347600" lon="5.359070">
        <ele>62.946708</ele>
        <time>2021-07-04T23:23:01.170Z</time>
      </trkpt>
      <trkpt lat="43.347015" lon="5.359150">
        <ele>61.593637</ele>
        <time>2021-07-04T23:23:11.004Z</time>
      </trkpt>
      <trkpt lat="43.346439" lon="5.359212">
        <ele>60.263867</ele>
        <time>2021-07-04T23:23:21.159Z</time>
      </trkpt>
      <trkpt lat="43.346344" lon="5.359223">
        <ele>60.044442</ele>
        <time>2021-07-04T23:23:22.849Z</time>
      </trkpt>
      <trkpt lat="43.346114" lon="5.359249">
        <ele>59.586160</ele>
        <time>2021-07-04T23:23:27.092Z</time>
      </trkpt>
      <trkpt lat="43.345993" lon="5.359263">
        <ele>59.454672</ele>
        <time>2021-07-04T23:23:29.411Z</time>
      </trkpt>
      <trkpt lat="43.345950" lon="5.359268">
        <ele>59.407942</ele>
        <time>2021-07-04T23:23:30.328Z</time>
      </trkpt>
      <trkpt lat="43.345919" lon="5.359271">
        <ele>59.374291</ele>
        <time>2021-07-04T23:23:30.949Z</time>
      </trkpt>
      <trkpt lat="43.345778" lon="5.359288">
        <ele>59.221022</ele>
        <time>2021-07-04T23:23:33.897Z</time>
      </trkpt>
      <trkpt lat="43.345669" lon="5.359301">
        <ele>59.102547</ele>
        <time>2021-07-04T23:23:36.053Z</time>
      </trkpt>
      <trkpt lat="43.344445" lon="5.359457">
        <ele>57.771447</ele>
        <time>2021-07-04T23:24:00.221Z</time>
      </trkpt>
      <trkpt lat="43.344174" lon="5.359486">
        <ele>57.053670</ele>
        <time>2021-07-04T23:24:05.201Z</time>
      </trkpt>
      <trkpt lat="43.344058" lon="5.359498">
        <ele>56.691822</ele>
        <time>2021-07-04T23:24:07.251Z</time>
      </trkpt>
      <trkpt lat="43.343879" lon="5.359519">
        <ele>56.133003</ele>
        <time>2021-07-04T23:24:10.586Z</time>
      </trkpt>
      <trkpt lat="43.343741" lon="5.359531">
        <ele>55.702884</ele>
        <time>2021-07-04T23:24:12.812Z</time>
      </trkpt>
      <trkpt lat="43.343546" lon="5.359547">
        <ele>55.095239</ele>
        <time>2021-07-04T23:24:16.219Z</time>
      </trkpt>
      <trkpt lat="43.343148" lon="5.359596">
        <ele>53.852270</ele>
        <time>2021-07-04T23:24:22.563Z</time>
      </trkpt>
      <trkpt lat="43.342853" lon="5.359629">
        <ele>52.931614</ele>
        <time>2021-07-04T23:24:27.149Z</time>
      </trkpt>
      <trkpt lat="43.342710" lon="5.359648">
        <ele>52.484727</ele>
        <time>2021-07-04T23:24:29.295Z</time>
      </trkpt>
      <trkpt lat="43.342691" lon="5.359651">
        <ele>52.425237</ele>
        <time>2021-07-04T23:24:29.584Z</time>
      </trkpt>
      <trkpt lat="43.342555" lon="5.359676">
        <ele>51.970539</ele>
        <time>2021-07-04T23:24:31.684Z</time>
      </trkpt>
      <trkpt lat="43.342396" lon="5.359733">
        <ele>51.329752</ele>
        <time>2021-07-04T23:24:34.181Z</time>
      </trkpt>
      <trkpt lat="43.342262" lon="5.359784">
        <ele>50.787537</ele>
        <time>2021-07-04T23:24:36.241Z</time>
      </trkpt>
      <trkpt lat="43.342172" lon="5.359848">
        <ele>50.392401</ele>
        <time>2021-07-04T23:24:37.803Z</time>
      </trkpt>
      <trkpt lat="43.342063" lon="5.359935">
        <ele>49.900903</ele>
        <time>2021-07-04T23:24:39.717Z</time>
      </trkpt>
      <trkpt lat="43.341990" lon="5.360000">
        <ele>49.561744</ele>
        <time>2021-07-04T23:24:41.042Z</time>
      </trkpt>
      <trkpt lat="43.341863" lon="5.360099">
        <ele>48.992421</ele>
        <time>2021-07-04T23:24:43.267Z</time>
      </trkpt>
      <trkpt lat="43.341492" lon="5.360359">
        <ele>47.368531</ele>
        <time>2021-07-04T23:24:49.761Z</time>
      </trkpt>
      <trkpt lat="43.341291" lon="5.360505">
        <ele>46.482029</ele>
        <time>2021-07-04T23:24:53.435Z</time>
      </trkpt>
      <trkpt lat="43.341239" lon="5.360543">
        <ele>46.252381</ele>
        <time>2021-07-04T23:24:54.443Z</time>
      </trkpt>
      <trkpt lat="43.341207" lon="5.360566">
        <ele>46.111568</ele>
        <time>2021-07-04T23:24:55.014Z</time>
      </trkpt>
      <trkpt lat="43.341021" lon="5.360706">
        <ele>45.284645</ele>
        <time>2021-07-04T23:24:58.574Z</time>
      </trkpt>
      <trkpt lat="43.340906" lon="5.360789">
        <ele>45.002825</ele>
        <time>2021-07-04T23:25:00.826Z</time>
      </trkpt>
      <trkpt lat="43.340756" lon="5.360914">
        <ele>44.805182</ele>
        <time>2021-07-04T23:25:03.896Z</time>
      </trkpt>
      <trkpt lat="43.340737" lon="5.360928">
        <ele>44.780892</ele>
        <time>2021-07-04T23:25:04.282Z</time>
      </trkpt>
      <trkpt lat="43.340695" lon="5.360960">
        <ele>44.726786</ele>
        <time>2021-07-04T23:25:05.093Z</time>
      </trkpt>
      <trkpt lat="43.340677" lon="5.360974">
        <ele>44.703483</ele>
        <time>2021-07-04T23:25:05.468Z</time>
      </trkpt>
      <trkpt lat="43.340420" lon="5.361151">
        <ele>44.379593</ele>
        <time>2021-07-04T23:25:10.750Z</time>
      </trkpt>
      <trkpt lat="43.340101" lon="5.361383">
        <ele>43.972951</ele>
        <time>2021-07-04T23:25:17.762Z</time>
      </trkpt>
      <trkpt lat="43.339607" lon="5.361752">
        <ele>43.339463</ele>
        <time>2021-07-04T23:25:29.373Z</time>
      </trkpt>
      <trkpt lat="43.339557" lon="5.361787">
        <ele>43.276240</ele>
        <time>2021-07-04T23:25:30.567Z</time>
      </trkpt>
      <trkpt lat="43.339344" lon="5.361940">
        <ele>43.017997</ele>
        <time>2021-07-04T23:25:35.598Z</time>
      </trkpt>
      <trkpt lat="43.339103" lon="5.362107">
        <ele>42.775514</ele>
        <time>2021-07-04T23:25:41.471Z</time>
      </trkpt>
      <trkpt lat="43.339059" lon="5.362134">
        <ele>42.732221</ele>
        <time>2021-07-04T23:25:42.600Z</time>
      </trkpt>
      <trkpt lat="43.339041" lon="5.362146">
        <ele>42.714247</ele>
        <time>2021-07-04T23:25:43.035Z</time>
      </trkpt>
      <trkpt lat="43.338881" lon="5.362214">
        <ele>42.563776</ele>
        <time>2021-07-04T23:25:46.765Z</time>
      </trkpt>
      <trkpt lat="43.338681" lon="5.362288">
        <ele>42.377683</ele>
        <time>2021-07-04T23:25:51.092Z</time>
      </trkpt>
      <trkpt lat="43.338660" lon="5.362295">
        <ele>42.358268</ele>
        <time>2021-07-04T23:25:51.532Z</time>
      </trkpt>
      <trkpt lat="43.338476" lon="5.362356">
        <ele>42.188207</ele>
        <time>2021-07-04T23:25:55.349Z</time>
      </trkpt>
      <trkpt lat="43.338457" lon="5.362364">
        <ele>42.170353</ele>
        <time>2021-07-04T23:25:55.760Z</time>
      </trkpt>
      <trkpt lat="43.338137" lon="5.362475">
        <ele>41.873824</ele>
        <time>2021-07-04T23:26:02.103Z</time>
      </trkpt>
      <trkpt lat="43.337397" lon="5.362731">
        <ele>40.627864</ele>
        <time>2021-07-04T23:26:15.810Z</time>
      </trkpt>
      <trkpt lat="43.336457" lon="5.363063">
        <ele>37.898596</ele>
        <time>2021-07-04T23:26:31.985Z</time>
      </trkpt>
      <trkpt lat="43.336227" lon="5.363131">
        <ele>37.237011</ele>
        <time>2021-07-04T23:26:35.768Z</time>
      </trkpt>
      <trkpt lat="43.335529" lon="5.363371">
        <ele>34.731132</ele>
        <time>2021-07-04T23:26:47.165Z</time>
      </trkpt>
      <trkpt lat="43.335151" lon="5.363503">
        <ele>33.185718</ele>
        <time>2021-07-04T23:26:53.257Z</time>
      </trkpt>
      <trkpt lat="43.334926" lon="5.363581">
        <ele>32.266233</ele>
        <time>2021-07-04T23:26:56.882Z</time>
      </trkpt>
      <trkpt lat="43.334327" lon="5.363796">
        <ele>29.813094</ele>
        <time>2021-07-04T23:27:06.582Z</time>
      </trkpt>
      <trkpt lat="43.333981" lon="5.363912">
        <ele>28.552479</ele>
        <time>2021-07-04T23:27:12.175Z</time>
      </trkpt>
      <trkpt lat="43.333899" lon="5.363908">
        <ele>28.284015</ele>
        <time>2021-07-04T23:27:13.464Z</time>
      </trkpt>
      <trkpt lat="43.333769" lon="5.363956">
        <ele>27.843597</ele>
        <time>2021-07-04T23:27:15.595Z</time>
      </trkpt>
      <trkpt lat="43.333557" lon="5.364030">
        <ele>27.127949</ele>
        <time>2021-07-04T23:27:18.966Z</time>
      </trkpt>
      <trkpt lat="43.333531" lon="5.364039">
        <ele>27.040225</ele>
        <time>2021-07-04T23:27:19.402Z</time>
      </trkpt>
      <trkpt lat="43.333449" lon="5.364068">
        <ele>26.763195</ele>
        <time>2021-07-04T23:27:20.726Z</time>
      </trkpt>
      <trkpt lat="43.333343" lon="5.364106">
        <ele>26.404778</ele>
        <time>2021-07-04T23:27:22.436Z</time>
      </trkpt>
      <trkpt lat="43.333003" lon="5.364225">
        <ele>25.256853</ele>
        <time>2021-07-04T23:27:28.102Z</time>
      </trkpt>
      <trkpt lat="43.332927" lon="5.364281">
        <ele>24.974726</ele>
        <time>2021-07-04T23:27:29.472Z</time>
      </trkpt>
      <trkpt lat="43.332573" lon="5.364406">
        <ele>23.778883</ele>
        <time>2021-07-04T23:27:35.561Z</time>
      </trkpt>
      <trkpt lat="43.332395" lon="5.364466">
        <ele>23.348921</ele>
        <time>2021-07-04T23:27:39.097Z</time>
      </trkpt>
      <trkpt lat="43.332347" lon="5.364480">
        <ele>23.323399</ele>
        <time>2021-07-04T23:27:39.896Z</time>
      </trkpt>
      <trkpt lat="43.332301" lon="5.364495">
        <ele>23.298809</ele>
        <time>2021-07-04T23:27:40.736Z</time>
      </trkpt>
      <trkpt lat="43.332278" lon="5.364503">
        <ele>23.286470</ele>
        <time>2021-07-04T23:27:41.133Z</time>
      </trkpt>
      <trkpt lat="43.332180" lon="5.364539">
        <ele>23.233709</ele>
        <time>2021-07-04T23:27:43.028Z</time>
      </trkpt>
      <trkpt lat="43.332103" lon="5.364562">
        <ele>23.192724</ele>
        <time>2021-07-04T23:27:44.818Z</time>
      </trkpt>
      <trkpt lat="43.331824" lon="5.364656">
        <ele>23.043314</ele>
        <time>2021-07-04T23:27:50.448Z</time>
      </trkpt>
      <trkpt lat="43.331717" lon="5.364694">
        <ele>22.985833</ele>
        <time>2021-07-04T23:27:53.180Z</time>
      </trkpt>
      <trkpt lat="43.331170" lon="5.364890">
        <ele>22.691817</ele>
        <time>2021-07-04T23:28:05.169Z</time>
      </trkpt>
      <trkpt lat="43.331050" lon="5.364933">
        <ele>22.627316</ele>
        <time>2021-07-04T23:28:08.762Z</time>
      </trkpt>
      <trkpt lat="43.330515" lon="5.365125">
        <ele>22.306660</ele>
        <time>2021-07-04T23:28:21.067Z</time>
      </trkpt>
      <trkpt lat="43.330474" lon="5.365139">
        <ele>22.277816</ele>
        <time>2021-07-04T23:28:21.936Z</time>
      </trkpt>
      <trkpt lat="43.330440" lon="5.365151">
        <ele>22.253850</ele>
        <time>2021-07-04T23:28:23.056Z</time>
      </trkpt>
      <trkpt lat="43.330395" lon="5.365166">
        <ele>22.222236</ele>
        <time>2021-07-04T23:28:24.222Z</time>
      </trkpt>
      <trkpt lat="43.329769" lon="5.365383">
        <ele>21.781456</ele>
        <time>2021-07-04T23:28:37.603Z</time>
      </trkpt>
      <trkpt lat="43.329633" lon="5.365434">
        <ele>21.685209</ele>
        <time>2021-07-04T23:28:40.645Z</time>
      </trkpt>
      <trkpt lat="43.329339" lon="5.365533">
        <ele>21.478547</ele>
        <time>2021-07-04T23:28:46.433Z</time>
      </trkpt>
      <trkpt lat="43.329317" lon="5.365540">
        <ele>21.463129</ele>
        <time>2021-07-04T23:28:46.865Z</time>
      </trkpt>
      <trkpt lat="43.329209" lon="5.365582">
        <ele>21.386498</ele>
        <time>2021-07-04T23:28:48.804Z</time>
      </trkpt>
      <trkpt lat="43.329093" lon="5.365612">
        <ele>21.305910</ele>
        <time>2021-07-04T23:28:51.032Z</time>
      </trkpt>
      <trkpt lat="43.329037" lon="5.365627">
        <ele>21.266957</ele>
        <time>2021-07-04T23:28:52.242Z</time>
      </trkpt>
      <trkpt lat="43.328919" lon="5.365606">
        <ele>21.150431</ele>
        <time>2021-07-04T23:28:54.322Z</time>
      </trkpt>
      <trkpt lat="43.328779" lon="5.365592">
        <ele>20.947980</ele>
        <time>2021-07-04T23:28:56.768Z</time>
      </trkpt>
      <trkpt lat="43.328741" lon="5.365567">
        <ele>20.887221</ele>
        <time>2021-07-04T23:28:57.558Z</time>
      </trkpt>
      <trkpt lat="43.328689" lon="5.365564">
        <ele>20.812157</ele>
        <time>2021-07-04T23:28:58.494Z</time>
      </trkpt>
      <trkpt lat="43.328641" lon="5.365595">
        <ele>20.735669</ele>
        <time>2021-07-04T23:28:59.444Z</time>
      </trkpt>
      <trkpt lat="43.328609" lon="5.365652">
        <ele>20.660129</ele>
        <time>2021-07-04T23:29:00.363Z</time>
      </trkpt>
      <trkpt lat="43.328600" lon="5.365699">
        <ele>20.609139</ele>
        <time>2021-07-04T23:29:00.938Z</time>
      </trkpt>
      <trkpt lat="43.328542" lon="5.365728">
        <ele>20.520126</ele>
        <time>2021-07-04T23:29:01.974Z</time>
      </trkpt>
      <trkpt lat="43.328396" lon="5.365800">
        <ele>20.296415</ele>
        <time>2021-07-04T23:29:04.834Z</time>
      </trkpt>
      <trkpt lat="43.328322" lon="5.365823">
        <ele>20.186993</ele>
        <time>2021-07-04T23:29:06.201Z</time>
      </trkpt>
      <trkpt lat="43.328097" lon="5.365952">
        <ele>19.835391</ele>
        <time>2021-07-04T23:29:10.470Z</time>
      </trkpt>
      <trkpt lat="43.327715" lon="5.366085">
        <ele>19.267048</ele>
        <time>2021-07-04T23:29:17.591Z</time>
      </trkpt>
      <trkpt lat="43.327619" lon="5.366118">
        <ele>19.124327</ele>
        <time>2021-07-04T23:29:19.454Z</time>
      </trkpt>
      <trkpt lat="43.327517" lon="5.366123">
        <ele>18.977122</ele>
        <time>2021-07-04T23:29:21.325Z</time>
      </trkpt>
      <trkpt lat="43.327260" lon="5.366209">
        <ele>18.618173</ele>
        <time>2021-07-04T23:29:26.772Z</time>
      </trkpt>
      <trkpt lat="43.327204" lon="5.366261">
        <ele>18.600066</ele>
        <time>2021-07-04T23:29:28.054Z</time>
      </trkpt>
      <trkpt lat="43.327113" lon="5.366293">
        <ele>18.574898</ele>
        <time>2021-07-04T23:29:30.039Z</time>
      </trkpt>
      <trkpt lat="43.326972" lon="5.366344">
        <ele>18.535832</ele>
        <time>2021-07-04T23:29:33.226Z</time>
      </trkpt>
      <trkpt lat="43.326398" lon="5.366544">
        <ele>18.377171</ele>
        <time>2021-07-04T23:29:46.518Z</time>
      </trkpt>
      <trkpt lat="43.326098" lon="5.366649">
        <ele>18.294225</ele>
        <time>2021-07-04T23:29:53.294Z</time>
      </trkpt>
      <trkpt lat="43.325272" lon="5.366939">
        <ele>17.893269</ele>
        <time>2021-07-04T23:30:11.496Z</time>
      </trkpt>
      <trkpt lat="43.325244" lon="5.366945">
        <ele>17.868344</ele>
        <time>2021-07-04T23:30:12.377Z</time>
      </trkpt>
      <trkpt lat="43.325056" lon="5.367009">
        <ele>17.697993</ele>
        <time>2021-07-04T23:30:16.028Z</time>
      </trkpt>
      <trkpt lat="43.324987" lon="5.367035">
        <ele>17.635065</ele>
        <time>2021-07-04T23:30:17.513Z</time>
      </trkpt>
      <trkpt lat="43.324815" lon="5.367096">
        <ele>17.478828</ele>
        <time>2021-07-04T23:30:21.254Z</time>
      </trkpt>
      <trkpt lat="43.324795" lon="5.367104">
        <ele>17.460508</ele>
        <time>2021-07-04T23:30:21.567Z</time>
      </trkpt>
      <trkpt lat="43.324198" lon="5.367318">
        <ele>16.917855</ele>
        <time>2021-07-04T23:30:33.820Z</time>
      </trkpt>
      <trkpt lat="43.324064" lon="5.367362">
        <ele>16.796678</ele>
        <time>2021-07-04T23:30:36.210Z</time>
      </trkpt>
      <trkpt lat="43.323997" lon="5.367385">
        <ele>16.735939</ele>
        <time>2021-07-04T23:30:37.525Z</time>
      </trkpt>
      <trkpt lat="43.323254" lon="5.367656">
        <ele>15.538472</ele>
        <time>2021-07-04T23:30:51.506Z</time>
      </trkpt>
      <trkpt lat="43.323182" lon="5.367680">
        <ele>15.405305</ele>
        <time>2021-07-04T23:30:52.878Z</time>
      </trkpt>
      <trkpt lat="43.323166" lon="5.367686">
        <ele>15.375495</ele>
        <time>2021-07-04T23:30:53.182Z</time>
      </trkpt>
      <trkpt lat="43.322969" lon="5.367738">
        <ele>15.014929</ele>
        <time>2021-07-04T23:30:56.710Z</time>
      </trkpt>
      <trkpt lat="43.322957" lon="5.367740">
        <ele>14.993201</ele>
        <time>2021-07-04T23:30:56.915Z</time>
      </trkpt>
      <trkpt lat="43.322766" lon="5.367777">
        <ele>14.646497</ele>
        <time>2021-07-04T23:31:00.380Z</time>
      </trkpt>
      <trkpt lat="43.322322" lon="5.367737">
        <ele>13.846719</ele>
        <time>2021-07-04T23:31:08.192Z</time>
      </trkpt>
      <trkpt lat="43.322206" lon="5.367729">
        <ele>13.637953</ele>
        <time>2021-07-04T23:31:10.201Z</time>
      </trkpt>
      <trkpt lat="43.322084" lon="5.367720">
        <ele>13.418349</ele>
        <time>2021-07-04T23:31:12.360Z</time>
      </trkpt>
      <trkpt lat="43.321946" lon="5.367704">
        <ele>13.158710</ele>
        <time>2021-07-04T23:31:14.805Z</time>
      </trkpt>
      <trkpt lat="43.321874" lon="5.367695">
        <ele>13.019895</ele>
        <time>2021-07-04T23:31:16.044Z</time>
      </trkpt>
      <trkpt lat="43.320728" lon="5.367576">
        <ele>10.813230</ele>
        <time>2021-07-04T23:31:36.280Z</time>
      </trkpt>
      <trkpt lat="43.319885" lon="5.367476">
        <ele>9.430497</ele>
        <time>2021-07-04T23:31:51.415Z</time>
      </trkpt>
      <trkpt lat="43.319459" lon="5.367435">
        <ele>8.900394</ele>
        <time>2021-07-04T23:31:59.260Z</time>
      </trkpt>
      <trkpt lat="43.319157" lon="5.367411">
        <ele>8.524885</ele>
        <time>2021-07-04T23:32:04.993Z</time>
      </trkpt>
      <trkpt lat="43.319065" lon="5.367419">
        <ele>8.410453</ele>
        <time>2021-07-04T23:32:06.777Z</time>
      </trkpt>
      <trkpt lat="43.319036" lon="5.367307">
        <ele>8.303088</ele>
        <time>2021-07-04T23:32:08.381Z</time>
      </trkpt>
      <trkpt lat="43.318875" lon="5.366695">
        <ele>7.715351</ele>
        <time>2021-07-04T23:32:17.827Z</time>
      </trkpt>
      <trkpt lat="43.318827" lon="5.366515">
        <ele>7.624699</ele>
        <time>2021-07-04T23:32:20.517Z</time>
      </trkpt>
      <trkpt lat="43.318641" lon="5.366676">
        <ele>7.581558</ele>
        <time>2021-07-04T23:32:25.023Z</time>
      </trkpt>
      <trkpt lat="43.318404" lon="5.366872">
        <ele>7.527272</ele>
        <time>2021-07-04T23:32:30.366Z</time>
      </trkpt>
      <trkpt lat="43.318008" lon="5.367199">
        <ele>7.436604</ele>
        <time>2021-07-04T23:32:39.687Z</time>
      </trkpt>
      <trkpt lat="43.317100" lon="5.367939">
        <ele>7.591808</ele>
        <time>2021-07-04T23:33:04.870Z</time>
      </trkpt>
      <trkpt lat="43.317086" lon="5.367959">
        <ele>7.612711</ele>
        <time>2021-07-04T23:33:05.382Z</time>
      </trkpt>
      <trkpt lat="43.316593" lon="5.368371">
        <ele>8.209976</ele>
        <time>2021-07-04T23:33:21.310Z</time>
      </trkpt>
      <trkpt lat="43.316583" lon="5.368380">
        <ele>8.222349</ele>
        <time>2021-07-04T23:33:21.870Z</time>
      </trkpt>
      <trkpt lat="43.316462" lon="5.368414">
        <ele>8.350194</ele>
        <time>2021-07-04T23:33:24.873Z</time>
      </trkpt>
      <trkpt lat="43.316378" lon="5.368438">
        <ele>8.439007</ele>
        <time>2021-07-04T23:33:27.391Z</time>
      </trkpt>
      <trkpt lat="43.315688" lon="5.368840">
        <ele>9.270589</ele>
        <time>2021-07-04T23:33:47.853Z</time>
      </trkpt>
      <trkpt lat="43.315664" lon="5.368853">
        <ele>9.319963</ele>
        <time>2021-07-04T23:33:48.879Z</time>
      </trkpt>
      <trkpt lat="43.315594" lon="5.368894">
        <ele>9.465600</ele>
        <time>2021-07-04T23:33:50.782Z</time>
      </trkpt>
      <trkpt lat="43.315530" lon="5.368930">
        <ele>9.597956</ele>
        <time>2021-07-04T23:33:53.117Z</time>
      </trkpt>
      <trkpt lat="43.315374" lon="5.369031">
        <ele>9.928005</ele>
        <time>2021-07-04T23:33:57.929Z</time>
      </trkpt>
      <trkpt lat="43.315161" lon="5.369164">
        <ele>10.375782</ele>
        <time>2021-07-04T23:34:04.775Z</time>
      </trkpt>
      <trkpt lat="43.314887" lon="5.369332">
        <ele>10.950030</ele>
        <time>2021-07-04T23:34:13.919Z</time>
      </trkpt>
      <trkpt lat="43.314787" lon="5.369393">
        <ele>11.159432</ele>
        <time>2021-07-04T23:34:17.548Z</time>
      </trkpt>
      <trkpt lat="43.314399" lon="5.369638">
        <ele>11.976681</ele>
        <time>2021-07-04T23:34:31.041Z</time>
      </trkpt>
      <trkpt lat="43.314378" lon="5.369652">
        <ele>12.021354</ele>
        <time>2021-07-04T23:34:31.746Z</time>
      </trkpt>
      <trkpt lat="43.314279" lon="5.369709">
        <ele>12.226792</ele>
        <time>2021-07-04T23:34:35.398Z</time>
      </trkpt>
      <trkpt lat="43.314317" lon="5.369833">
        <ele>12.414167</ele>
        <time>2021-07-04T23:34:39.058Z</time>
      </trkpt>
      <trkpt lat="43.314500" lon="5.370413">
        <ele>13.609836</ele>
        <time>2021-07-04T23:34:53.749Z</time>
      </trkpt>
      <trkpt lat="43.314538" lon="5.370533">
        <ele>13.873835</ele>
        <time>2021-07-04T23:34:56.853Z</time>
      </trkpt>
      <trkpt lat="43.314561" lon="5.370637">
        <ele>14.093102</ele>
        <time>2021-07-04T23:34:59.383Z</time>
      </trkpt>
      <trkpt lat="43.314574" lon="5.370697">
        <ele>14.219388</ele>
        <time>2021-07-04T23:35:01.134Z</time>
      </trkpt>
      <trkpt lat="43.314518" lon="5.370767">
        <ele>14.429253</ele>
        <time>2021-07-04T23:35:04.242Z</time>
      </trkpt>
      <trkpt lat="43.314810" lon="5.371910">
        <ele>16.872924</ele>
        <time>2021-07-04T23:35:34.984Z</time>
      </trkpt>
      <trkpt lat="43.314812" lon="5.371921">
        <ele>16.895795</ele>
        <time>2021-07-04T23:35:35.315Z</time>
      </trkpt>
      <trkpt lat="43.314846" lon="5.372299">
        <ele>17.602721</ele>
        <time>2021-07-04T23:35:44.493Z</time>
      </trkpt>
      <trkpt lat="43.314822" lon="5.372485">
        <ele>17.711365</ele>
        <time>2021-07-04T23:35:48.987Z</time>
      </trkpt>
      <trkpt lat="43.314756" lon="5.372662">
        <ele>17.825753</ele>
        <time>2021-07-04T23:35:54.060Z</time>
      </trkpt>
      <trkpt lat="43.314628" lon="5.372870">
        <ele>17.982432</ele>
        <time>2021-07-04T23:35:59.652Z</time>
      </trkpt>
      <trkpt lat="43.312735" lon="5.375721">
        <ele>18.833801</ele>
        <time>2021-07-04T23:37:02.147Z</time>
      </trkpt>
      <trkpt lat="43.312691" lon="5.375880">
        <ele>18.820277</ele>
        <time>2021-07-04T23:37:04.547Z</time>
      </trkpt>
      <trkpt lat="43.312617" lon="5.376002">
        <ele>18.807649</ele>
        <time>2021-07-04T23:37:06.956Z</time>
      </trkpt>
      <trkpt lat="43.312538" lon="5.376130">
        <ele>18.880447</ele>
        <time>2021-07-04T23:37:09.575Z</time>
      </trkpt>
      <trkpt lat="43.312482" lon="5.376206">
        <ele>18.952709</ele>
        <time>2021-07-04T23:37:11.079Z</time>
      </trkpt>
      <trkpt lat="43.312329" lon="5.376425">
        <ele>19.155542</ele>
        <time>2021-07-04T23:37:15.673Z</time>
      </trkpt>
      <trkpt lat="43.312220" lon="5.376585">
        <ele>19.301974</ele>
        <time>2021-07-04T23:37:18.759Z</time>
      </trkpt>
      <trkpt lat="43.312136" lon="5.376713">
        <ele>19.417131</ele>
        <time>2021-07-04T23:37:22.158Z</time>
      </trkpt>
      <trkpt lat="43.312021" lon="5.376826">
        <ele>19.546933</ele>
        <time>2021-07-04T23:37:26.477Z</time>
      </trkpt>
      <trkpt lat="43.312007" lon="5.376847">
        <ele>19.565961</ele>
        <time>2021-07-04T23:37:27.051Z</time>
      </trkpt>
      <trkpt lat="43.311989" lon="5.376824">
        <ele>19.588528</ele>
        <time>2021-07-04T23:37:27.444Z</time>
      </trkpt>
      <trkpt lat="43.311277" lon="5.377883">
        <ele>20.792237</ele>
        <time>2021-07-04T23:37:58.273Z</time>
      </trkpt>
      <trkpt lat="43.311255" lon="5.377917">
        <ele>20.898053</ele>
        <time>2021-07-04T23:37:58.875Z</time>
      </trkpt>
      <trkpt lat="43.311213" lon="5.377979">
        <ele>21.095062</ele>
        <time>2021-07-04T23:38:00.903Z</time>
      </trkpt>
      <trkpt lat="43.311188" lon="5.378018">
        <ele>21.215942</ele>
        <time>2021-07-04T23:38:02.703Z</time>
      </trkpt>
      <trkpt lat="43.310812" lon="5.378420">
        <ele>22.738564</ele>
        <time>2021-07-04T23:38:19.584Z</time>
      </trkpt>
      <trkpt lat="43.310609" lon="5.378634">
        <ele>23.556301</ele>
        <time>2021-07-04T23:38:28.377Z</time>
      </trkpt>
      <trkpt lat="43.310626" lon="5.378663">
        <ele>23.642911</ele>
        <time>2021-07-04T23:38:29.585Z</time>
      </trkpt>
      <trkpt lat="43.310439" lon="5.378864">
        <ele>24.401704</ele>
        <time>2021-07-04T23:38:36.883Z</time>
      </trkpt>
      <trkpt lat="43.310336" lon="5.378971">
        <ele>24.814388</ele>
        <time>2021-07-04T23:38:43.103Z</time>
      </trkpt>
      <trkpt lat="43.310321" lon="5.378945">
        <ele>24.891557</ele>
        <time>2021-07-04T23:38:44.295Z</time>
      </trkpt>
      <trkpt lat="43.309871" lon="5.379422">
        <ele>26.794020</ele>
        <time>2021-07-04T23:39:04.817Z</time>
      </trkpt>
      <trkpt lat="43.309886" lon="5.379452">
        <ele>26.893122</ele>
        <time>2021-07-04T23:39:06.194Z</time>
      </trkpt>
      <trkpt lat="43.309867" lon="5.379474">
        <ele>26.986081</ele>
        <time>2021-07-04T23:39:07.141Z</time>
      </trkpt>
      <trkpt lat="43.309804" lon="5.379596">
        <ele>27.393379</ele>
        <time>2021-07-04T23:39:13.635Z</time>
      </trkpt>
      <trkpt lat="43.309732" lon="5.379666">
        <ele>27.723371</ele>
        <time>2021-07-04T23:39:16.299Z</time>
      </trkpt>
      <trkpt lat="43.309596" lon="5.379762">
        <ele>28.295428</ele>
        <time>2021-07-04T23:39:21.753Z</time>
      </trkpt>
      <trkpt lat="43.309589" lon="5.379770">
        <ele>28.329492</ele>
        <time>2021-07-04T23:39:21.956Z</time>
      </trkpt>
      <trkpt lat="43.309571" lon="5.379754">
        <ele>28.409701</ele>
        <time>2021-07-04T23:39:23.303Z</time>
      </trkpt>
      <trkpt lat="43.309017" lon="5.380341">
        <ele>31.027110</ele>
        <time>2021-07-04T23:39:49.219Z</time>
      </trkpt>
      <trkpt lat="43.309022" lon="5.380378">
        <ele>31.129570</ele>
        <time>2021-07-04T23:39:51.096Z</time>
      </trkpt>
      <trkpt lat="43.308996" lon="5.380405">
        <ele>31.251502</ele>
        <time>2021-07-04T23:39:52.120Z</time>
      </trkpt>
      <trkpt lat="43.308981" lon="5.380422">
        <ele>31.324250</ele>
        <time>2021-07-04T23:39:52.804Z</time>
      </trkpt>
      <trkpt lat="43.308961" lon="5.380406">
        <ele>31.410837</ele>
        <time>2021-07-04T23:39:54.121Z</time>
      </trkpt>
      <trkpt lat="43.308543" lon="5.380848">
        <ele>33.316510</ele>
        <time>2021-07-04T23:40:11.823Z</time>
      </trkpt>
      <trkpt lat="43.308425" lon="5.380974">
        <ele>33.791620</ele>
        <time>2021-07-04T23:40:17.157Z</time>
      </trkpt>
      <trkpt lat="43.308435" lon="5.381006">
        <ele>33.872192</ele>
        <time>2021-07-04T23:40:18.179Z</time>
      </trkpt>
      <trkpt lat="43.308418" lon="5.381024">
        <ele>33.940424</ele>
        <time>2021-07-04T23:40:19.232Z</time>
      </trkpt>
      <trkpt lat="43.308374" lon="5.381070">
        <ele>34.116198</ele>
        <time>2021-07-04T23:40:20.907Z</time>
      </trkpt>
      <trkpt lat="43.308347" lon="5.381059">
        <ele>34.205735</ele>
        <time>2021-07-04T23:40:22.218Z</time>
      </trkpt>
      <trkpt lat="43.307926" lon="5.381508">
        <ele>35.900065</ele>
        <time>2021-07-04T23:40:39.768Z</time>
      </trkpt>
      <trkpt lat="43.307923" lon="5.381546">
        <ele>35.988497</ele>
        <time>2021-07-04T23:40:41.327Z</time>
      </trkpt>
      <trkpt lat="43.307916" lon="5.381554">
        <ele>36.017444</ele>
        <time>2021-07-04T23:40:41.570Z</time>
      </trkpt>
      <trkpt lat="43.307811" lon="5.381665">
        <ele>36.438630</ele>
        <time>2021-07-04T23:40:46.414Z</time>
      </trkpt>
      <trkpt lat="43.307656" lon="5.381826">
        <ele>37.056373</ele>
        <time>2021-07-04T23:40:52.989Z</time>
      </trkpt>
      <trkpt lat="43.307412" lon="5.382080">
        <ele>38.029596</ele>
        <time>2021-07-04T23:41:03.999Z</time>
      </trkpt>
      <trkpt lat="43.307399" lon="5.382094">
        <ele>38.082108</ele>
        <time>2021-07-04T23:41:04.588Z</time>
      </trkpt>
      <trkpt lat="43.307375" lon="5.382074">
        <ele>38.171347</ele>
        <time>2021-07-04T23:41:05.740Z</time>
      </trkpt>
      <trkpt lat="43.306557" lon="5.382904">
        <ele>41.304590</ele>
        <time>2021-07-04T23:41:41.267Z</time>
      </trkpt>
      <trkpt lat="43.306556" lon="5.382955">
        <ele>41.418355</ele>
        <time>2021-07-04T23:41:42.728Z</time>
      </trkpt>
      <trkpt lat="43.306538" lon="5.382972">
        <ele>41.485283</ele>
        <time>2021-07-04T23:41:43.619Z</time>
      </trkpt>
      <trkpt lat="43.306492" lon="5.383019">
        <ele>41.660933</ele>
        <time>2021-07-04T23:41:45.270Z</time>
      </trkpt>
      <trkpt lat="43.306441" lon="5.383067">
        <ele>41.850352</ele>
        <time>2021-07-04T23:41:47.047Z</time>
      </trkpt>
      <trkpt lat="43.306426" lon="5.383083">
        <ele>41.908538</ele>
        <time>2021-07-04T23:41:47.645Z</time>
      </trkpt>
      <trkpt lat="43.306398" lon="5.383071">
        <ele>41.998414</ele>
        <time>2021-07-04T23:41:49.312Z</time>
      </trkpt>
      <trkpt lat="43.305733" lon="5.383746">
        <ele>44.467280</ele>
        <time>2021-07-04T23:42:16.921Z</time>
      </trkpt>
      <trkpt lat="43.305737" lon="5.383788">
        <ele>44.545176</ele>
        <time>2021-07-04T23:42:18.614Z</time>
      </trkpt>
      <trkpt lat="43.305730" lon="5.383795">
        <ele>44.567054</ele>
        <time>2021-07-04T23:42:18.993Z</time>
      </trkpt>
      <trkpt lat="43.305712" lon="5.383814">
        <ele>44.624412</ele>
        <time>2021-07-04T23:42:19.807Z</time>
      </trkpt>
      <trkpt lat="43.305651" lon="5.383915">
        <ele>44.865787</ele>
        <time>2021-07-04T23:42:22.703Z</time>
      </trkpt>
      <trkpt lat="43.305547" lon="5.384020">
        <ele>45.191914</ele>
        <time>2021-07-04T23:42:27.442Z</time>
      </trkpt>
      <trkpt lat="43.305300" lon="5.384270">
        <ele>45.967149</ele>
        <time>2021-07-04T23:42:37.773Z</time>
      </trkpt>
      <trkpt lat="43.305251" lon="5.384318">
        <ele>46.119219</ele>
        <time>2021-07-04T23:42:40.169Z</time>
      </trkpt>
      <trkpt lat="43.305163" lon="5.384398">
        <ele>46.385864</ele>
        <time>2021-07-04T23:42:43.982Z</time>
      </trkpt>
      <trkpt lat="43.305126" lon="5.384375">
        <ele>46.488489</ele>
        <time>2021-07-04T23:42:45.125Z</time>
      </trkpt>
      <trkpt lat="43.303629" lon="5.385747">
        <ele>50.006883</ele>
        <time>2021-07-04T23:43:39.071Z</time>
      </trkpt>
      <trkpt lat="43.303623" lon="5.385818">
        <ele>50.080202</ele>
        <time>2021-07-04T23:43:40.649Z</time>
      </trkpt>
      <trkpt lat="43.303603" lon="5.385836">
        <ele>50.113902</ele>
        <time>2021-07-04T23:43:41.342Z</time>
      </trkpt>
      <trkpt lat="43.303576" lon="5.385858">
        <ele>50.158148</ele>
        <time>2021-07-04T23:43:42.207Z</time>
      </trkpt>
      <trkpt lat="43.303468" lon="5.385954">
        <ele>50.339453</ele>
        <time>2021-07-04T23:43:45.790Z</time>
      </trkpt>
      <trkpt lat="43.303128" lon="5.385251">
        <ele>51.205302</ele>
        <time>2021-07-04T23:44:02.627Z</time>
      </trkpt>
      <trkpt lat="43.302951" lon="5.384901">
        <ele>50.604042</ele>
        <time>2021-07-04T23:44:09.856Z</time>
      </trkpt>
      <trkpt lat="43.302944" lon="5.384886">
        <ele>50.574638</ele>
        <time>2021-07-04T23:44:10.143Z</time>
      </trkpt>
      <trkpt lat="43.302862" lon="5.384719">
        <ele>50.242199</ele>
        <time>2021-07-04T23:44:13.204Z</time>
      </trkpt>
      <trkpt lat="43.302817" lon="5.384627">
        <ele>50.059279</ele>
        <time>2021-07-04T23:44:14.767Z</time>
      </trkpt>
      <trkpt lat="43.302421" lon="5.383861">
        <ele>48.508774</ele>
        <time>2021-07-04T23:44:26.470Z</time>
      </trkpt>
      <trkpt lat="43.302399" lon="5.383759">
        <ele>48.333219</ele>
        <time>2021-07-04T23:44:27.622Z</time>
      </trkpt>
      <trkpt lat="43.302317" lon="5.383573">
        <ele>47.974359</ele>
        <time>2021-07-04T23:44:30.295Z</time>
      </trkpt>
      <trkpt lat="43.302249" lon="5.383516">
        <ele>47.793742</ele>
        <time>2021-07-04T23:44:31.577Z</time>
      </trkpt>
      <trkpt lat="43.302187" lon="5.383402">
        <ele>47.558893</ele>
        <time>2021-07-04T23:44:33.080Z</time>
      </trkpt>
      <trkpt lat="43.302113" lon="5.383397">
        <ele>47.390894</ele>
        <time>2021-07-04T23:44:34.226Z</time>
      </trkpt>
      <trkpt lat="43.302094" lon="5.383395">
        <ele>47.347685</ele>
        <time>2021-07-04T23:44:34.561Z</time>
      </trkpt>
      <trkpt lat="43.301914" lon="5.383367">
        <ele>46.703516</ele>
        <time>2021-07-04T23:44:37.410Z</time>
      </trkpt>
      <trkpt lat="43.301862" lon="5.383359">
        <ele>46.463955</ele>
        <time>2021-07-04T23:44:38.139Z</time>
      </trkpt>
      <trkpt lat="43.301601" lon="5.383326">
        <ele>45.263961</ele>
        <time>2021-07-04T23:44:42.180Z</time>
      </trkpt>
      <trkpt lat="43.301518" lon="5.383343">
        <ele>44.879760</ele>
        <time>2021-07-04T23:44:43.373Z</time>
      </trkpt>
      <trkpt lat="43.301187" lon="5.383336">
        <ele>43.364151</ele>
        <time>2021-07-04T23:44:48.292Z</time>
      </trkpt>
      <trkpt lat="43.301135" lon="5.383376">
        <ele>43.091311</ele>
        <time>2021-07-04T23:44:49.110Z</time>
      </trkpt>
      <trkpt lat="43.301088" lon="5.383462">
        <ele>42.732965</ele>
        <time>2021-07-04T23:44:50.239Z</time>
      </trkpt>
      <trkpt lat="43.301064" lon="5.383497">
        <ele>42.572736</ele>
        <time>2021-07-04T23:44:50.772Z</time>
      </trkpt>
      <trkpt lat="43.300720" lon="5.383808">
        <ele>40.687467</ele>
        <time>2021-07-04T23:44:56.963Z</time>
      </trkpt>
      <trkpt lat="43.300281" lon="5.384209">
        <ele>38.693852</ele>
        <time>2021-07-04T23:45:05.763Z</time>
      </trkpt>
      <trkpt lat="43.300110" lon="5.384354">
        <ele>38.361643</ele>
        <time>2021-07-04T23:45:09.541Z</time>
      </trkpt>
      <trkpt lat="43.299874" lon="5.384556">
        <ele>37.901960</ele>
        <time>2021-07-04T23:45:14.558Z</time>
      </trkpt>
      <trkpt lat="43.299847" lon="5.384579">
        <ele>37.849439</ele>
        <time>2021-07-04T23:45:15.101Z</time>
      </trkpt>
      <trkpt lat="43.299780" lon="5.384688">
        <ele>37.677770</ele>
        <time>2021-07-04T23:45:17.210Z</time>
      </trkpt>
      <trkpt lat="43.299548" lon="5.384900">
        <ele>37.217134</ele>
        <time>2021-07-04T23:45:22.353Z</time>
      </trkpt>
      <trkpt lat="43.299539" lon="5.384908">
        <ele>37.199413</ele>
        <time>2021-07-04T23:45:22.979Z</time>
      </trkpt>
      <trkpt lat="43.299436" lon="5.385004">
        <ele>36.993645</ele>
        <time>2021-07-04T23:45:25.136Z</time>
      </trkpt>
      <trkpt lat="43.299401" lon="5.385033">
        <ele>36.926074</ele>
        <time>2021-07-04T23:45:26.207Z</time>
      </trkpt>
      <trkpt lat="43.299293" lon="5.385134">
        <ele>36.710088</ele>
        <time>2021-07-04T23:45:28.494Z</time>
      </trkpt>
      <trkpt lat="43.299173" lon="5.385245">
        <ele>36.470927</ele>
        <time>2021-07-04T23:45:31.124Z</time>
      </trkpt>
      <trkpt lat="43.299050" lon="5.385335">
        <ele>36.240538</ele>
        <time>2021-07-04T23:45:33.988Z</time>
      </trkpt>
      <trkpt lat="43.298948" lon="5.384946">
        <ele>35.677792</ele>
        <time>2021-07-04T23:45:39.416Z</time>
      </trkpt>
      <trkpt lat="43.298633" lon="5.384016">
        <ele>34.068106</ele>
        <time>2021-07-04T23:45:54.130Z</time>
      </trkpt>
      <trkpt lat="43.298601" lon="5.383924">
        <ele>33.908097</ele>
        <time>2021-07-04T23:45:55.500Z</time>
      </trkpt>
      <trkpt lat="43.298324" lon="5.383108">
        <ele>32.495163</ele>
        <time>2021-07-04T23:46:05.954Z</time>
      </trkpt>
      <trkpt lat="43.297954" lon="5.382024">
        <ele>31.262483</ele>
        <time>2021-07-04T23:46:20.439Z</time>
      </trkpt>
      <trkpt lat="43.297917" lon="5.381915">
        <ele>31.157104</ele>
        <time>2021-07-04T23:46:22.033Z</time>
      </trkpt>
      <trkpt lat="43.297698" lon="5.381275">
        <ele>30.537467</ele>
        <time>2021-07-04T23:46:32.021Z</time>
      </trkpt>
      <trkpt lat="43.297639" lon="5.381104">
        <ele>30.371658</ele>
        <time>2021-07-04T23:46:35.196Z</time>
      </trkpt>
      <trkpt lat="43.297603" lon="5.381006">
        <ele>30.275476</ele>
        <time>2021-07-04T23:46:36.796Z</time>
      </trkpt>
      <trkpt lat="43.297572" lon="5.381009">
        <ele>30.238063</ele>
        <time>2021-07-04T23:46:37.434Z</time>
      </trkpt>
      <trkpt lat="43.297550" lon="5.381012">
        <ele>30.211448</ele>
        <time>2021-07-04T23:46:37.895Z</time>
      </trkpt>
      <trkpt lat="43.297525" lon="5.381016">
        <ele>30.181148</ele>
        <time>2021-07-04T23:46:38.430Z</time>
      </trkpt>
      <trkpt lat="43.297480" lon="5.380999">
        <ele>30.124964</ele>
        <time>2021-07-04T23:46:39.420Z</time>
      </trkpt>
      <trkpt lat="43.297316" lon="5.381025">
        <ele>29.926220</ele>
        <time>2021-07-04T23:46:43.738Z</time>
      </trkpt>
      <trkpt lat="43.296671" lon="5.381176">
        <ele>31.715746</ele>
        <time>2021-07-04T23:47:03.958Z</time>
      </trkpt>
      <trkpt lat="43.295926" lon="5.381475">
        <ele>33.886588</ele>
        <time>2021-07-04T23:47:33.484Z</time>
      </trkpt>
      <trkpt lat="43.295868" lon="5.381495">
        <ele>34.053845</ele>
        <time>2021-07-04T23:47:36.407Z</time>
      </trkpt>
      <trkpt lat="43.295835" lon="5.381510">
        <ele>34.151066</ele>
        <time>2021-07-04T23:47:37.873Z</time>
      </trkpt>
      <trkpt lat="43.295668" lon="5.381569">
        <ele>34.633359</ele>
        <time>2021-07-04T23:47:43.581Z</time>
      </trkpt>
      <trkpt lat="43.295580" lon="5.381591">
        <ele>34.883536</ele>
        <time>2021-07-04T23:47:47.049Z</time>
      </trkpt>
      <trkpt lat="43.295368" lon="5.381657">
        <ele>35.476500</ele>
        <time>2021-07-04T23:47:55.330Z</time>
      </trkpt>
      <trkpt lat="43.295119" lon="5.381735">
        <ele>36.171186</ele>
        <time>2021-07-04T23:48:05.231Z</time>
      </trkpt>
      <trkpt lat="43.295046" lon="5.381758">
        <ele>36.374907</ele>
        <time>2021-07-04T23:48:07.709Z</time>
      </trkpt>
      <trkpt lat="43.293632" lon="5.382204">
        <ele>39.877071</ele>
        <time>2021-07-04T23:48:56.355Z</time>
      </trkpt>
      <trkpt lat="43.293458" lon="5.382264">
        <ele>39.917169</ele>
        <time>2021-07-04T23:49:00.966Z</time>
      </trkpt>
      <trkpt lat="43.293273" lon="5.382338">
        <ele>39.960237</ele>
        <time>2021-07-04T23:49:05.762Z</time>
      </trkpt>
      <trkpt lat="43.292631" lon="5.382555">
        <ele>40.108015</ele>
        <time>2021-07-04T23:49:20.109Z</time>
      </trkpt>
      <trkpt lat="43.292492" lon="5.382601">
        <ele>40.139972</ele>
        <time>2021-07-04T23:49:23.245Z</time>
      </trkpt>
      <trkpt lat="43.292045" lon="5.382739">
        <ele>40.220085</ele>
        <time>2021-07-04T23:49:33.449Z</time>
      </trkpt>
      <trkpt lat="43.291838" lon="5.382811">
        <ele>39.917486</ele>
        <time>2021-07-04T23:49:37.873Z</time>
      </trkpt>
      <trkpt lat="43.291555" lon="5.382894">
        <ele>39.507404</ele>
        <time>2021-07-04T23:49:43.676Z</time>
      </trkpt>
      <trkpt lat="43.291183" lon="5.383003">
        <ele>38.968378</ele>
        <time>2021-07-04T23:49:51.069Z</time>
      </trkpt>
      <trkpt lat="43.291114" lon="5.383026">
        <ele>38.867760</ele>
        <time>2021-07-04T23:49:52.466Z</time>
      </trkpt>
      <trkpt lat="43.291083" lon="5.383041">
        <ele>38.821184</ele>
        <time>2021-07-04T23:49:53.096Z</time>
      </trkpt>
      <trkpt lat="43.291098" lon="5.383171">
        <ele>38.685415</ele>
        <time>2021-07-04T23:49:55.590Z</time>
      </trkpt>
      <trkpt lat="43.290998" lon="5.383222">
        <ele>38.534254</ele>
        <time>2021-07-04T23:49:57.415Z</time>
      </trkpt>
      <trkpt lat="43.290651" lon="5.383382">
        <ele>38.015556</ele>
        <time>2021-07-04T23:50:03.809Z</time>
      </trkpt>
      <trkpt lat="43.290513" lon="5.383455">
        <ele>37.805997</ele>
        <time>2021-07-04T23:50:06.344Z</time>
      </trkpt>
      <trkpt lat="43.289109" lon="5.384188">
        <ele>34.864752</ele>
        <time>2021-07-04T23:50:32.889Z</time>
      </trkpt>
      <trkpt lat="43.288286" lon="5.384618">
        <ele>33.057889</ele>
        <time>2021-07-04T23:50:48.289Z</time>
      </trkpt>
      <trkpt lat="43.287471" lon="5.385044">
        <ele>31.227302</ele>
        <time>2021-07-04T23:51:03.483Z</time>
      </trkpt>
      <trkpt lat="43.286571" lon="5.385513">
        <ele>29.632722</ele>
        <time>2021-07-04T23:51:20.228Z</time>
      </trkpt>
      <trkpt lat="43.286437" lon="5.385497">
        <ele>29.456855</ele>
        <time>2021-07-04T23:51:22.578Z</time>
      </trkpt>
      <trkpt lat="43.286302" lon="5.384988">
        <ele>28.941241</ele>
        <time>2021-07-04T23:51:30.212Z</time>
      </trkpt>
      <trkpt lat="43.286225" lon="5.384722">
        <ele>28.668782</ele>
        <time>2021-07-04T23:51:34.378Z</time>
      </trkpt>
      <trkpt lat="43.286195" lon="5.384623">
        <ele>28.566717</ele>
        <time>2021-07-04T23:51:35.857Z</time>
      </trkpt>
      <trkpt lat="43.286111" lon="5.384303">
        <ele>28.242946</ele>
        <time>2021-07-04T23:51:40.998Z</time>
      </trkpt>
      <trkpt lat="43.286085" lon="5.384143">
        <ele>28.086912</ele>
        <time>2021-07-04T23:51:43.268Z</time>
      </trkpt>
      <trkpt lat="43.286067" lon="5.383983">
        <ele>27.966595</ele>
        <time>2021-07-04T23:51:45.651Z</time>
      </trkpt>
      <trkpt lat="43.286118" lon="5.383897">
        <ele>27.929750</ele>
        <time>2021-07-04T23:51:47.456Z</time>
      </trkpt>
      <trkpt lat="43.286145" lon="5.383793">
        <ele>27.893075</ele>
        <time>2021-07-04T23:51:48.969Z</time>
      </trkpt>
      <trkpt lat="43.286116" lon="5.383578">
        <ele>27.820445</ele>
        <time>2021-07-04T23:51:52.042Z</time>
      </trkpt>
      <trkpt lat="43.286064" lon="5.383494">
        <ele>27.783819</ele>
        <time>2021-07-04T23:51:53.771Z</time>
      </trkpt>
      <trkpt lat="43.285989" lon="5.383436">
        <ele>27.744547</ele>
        <time>2021-07-04T23:51:55.472Z</time>
      </trkpt>
      <trkpt lat="43.285904" lon="5.383420">
        <ele>27.705400</ele>
        <time>2021-07-04T23:51:57.189Z</time>
      </trkpt>
      <trkpt lat="43.285820" lon="5.383447">
        <ele>27.666035</ele>
        <time>2021-07-04T23:51:59.079Z</time>
      </trkpt>
      <trkpt lat="43.285744" lon="5.383521">
        <ele>27.623529</ele>
        <time>2021-07-04T23:52:01.137Z</time>
      </trkpt>
      <trkpt lat="43.285695" lon="5.383630">
        <ele>27.580977</ele>
        <time>2021-07-04T23:52:03.128Z</time>
      </trkpt>
      <trkpt lat="43.285644" lon="5.383599">
        <ele>27.555529</ele>
        <time>2021-07-04T23:52:04.276Z</time>
      </trkpt>
      <trkpt lat="43.285627" lon="5.383596">
        <ele>27.547708</ele>
        <time>2021-07-04T23:52:04.709Z</time>
      </trkpt>
      <trkpt lat="43.285596" lon="5.383602">
        <ele>27.533424</ele>
        <time>2021-07-04T23:52:05.420Z</time>
      </trkpt>
      <trkpt lat="43.285434" lon="5.383683">
        <ele>27.454759</ele>
        <time>2021-07-04T23:52:09.768Z</time>
      </trkpt>
      <trkpt lat="43.285281" lon="5.383774">
        <ele>27.378683</ele>
        <time>2021-07-04T23:52:13.492Z</time>
      </trkpt>
      <trkpt lat="43.285191" lon="5.383827">
        <ele>27.334002</ele>
        <time>2021-07-04T23:52:15.776Z</time>
      </trkpt>
      <trkpt lat="43.284642" lon="5.384126">
        <ele>26.894673</ele>
        <time>2021-07-04T23:52:28.341Z</time>
      </trkpt>
      <trkpt lat="43.284053" lon="5.384464">
        <ele>26.105994</ele>
        <time>2021-07-04T23:52:40.724Z</time>
      </trkpt>
      <trkpt lat="43.284017" lon="5.384485">
        <ele>26.057670</ele>
        <time>2021-07-04T23:52:41.387Z</time>
      </trkpt>
      <trkpt lat="43.283946" lon="5.384525">
        <ele>25.962856</ele>
        <time>2021-07-04T23:52:42.839Z</time>
      </trkpt>
      <trkpt lat="43.283965" lon="5.384623">
        <ele>25.871639</ele>
        <time>2021-07-04T23:52:44.156Z</time>
      </trkpt>
      <trkpt lat="43.283975" lon="5.384678">
        <ele>25.820651</ele>
        <time>2021-07-04T23:52:44.879Z</time>
      </trkpt>
      <trkpt lat="43.283892" lon="5.384724">
        <ele>25.710070</ele>
        <time>2021-07-04T23:52:47.093Z</time>
      </trkpt>
      <trkpt lat="43.282091" lon="5.385725">
        <ele>23.575197</ele>
        <time>2021-07-04T23:53:36.715Z</time>
      </trkpt>
      <trkpt lat="43.281982" lon="5.385783">
        <ele>23.454274</ele>
        <time>2021-07-04T23:53:40.077Z</time>
      </trkpt>
      <trkpt lat="43.281937" lon="5.385809">
        <ele>23.403771</ele>
        <time>2021-07-04T23:53:41.486Z</time>
      </trkpt>
      <trkpt lat="43.281902" lon="5.385826">
        <ele>23.365367</ele>
        <time>2021-07-04T23:53:42.552Z</time>
      </trkpt>
      <trkpt lat="43.280513" lon="5.386624">
        <ele>22.194358</ele>
        <time>2021-07-04T23:54:22.995Z</time>
      </trkpt>
      <trkpt lat="43.280435" lon="5.386669">
        <ele>22.133409</ele>
        <time>2021-07-04T23:54:25.291Z</time>
      </trkpt>
      <trkpt lat="43.280311" lon="5.386581">
        <ele>22.032856</ele>
        <time>2021-07-04T23:54:29.090Z</time>
      </trkpt>
      <trkpt lat="43.280299" lon="5.386588">
        <ele>22.023463</ele>
        <time>2021-07-04T23:54:29.345Z</time>
      </trkpt>
      <trkpt lat="43.280168" lon="5.386678">
        <ele>21.917940</ele>
        <time>2021-07-04T23:54:32.427Z</time>
      </trkpt>
      <trkpt lat="43.279860" lon="5.386850">
        <ele>21.659043</ele>
        <time>2021-07-04T23:54:39.174Z</time>
      </trkpt>
      <trkpt lat="43.279697" lon="5.386931">
        <ele>21.511520</ele>
        <time>2021-07-04T23:54:42.639Z</time>
      </trkpt>
      <trkpt lat="43.279641" lon="5.387036">
        <ele>21.430874</ele>
        <time>2021-07-04T23:54:45.133Z</time>
      </trkpt>
      <trkpt lat="43.279319" lon="5.387206">
        <ele>21.137285</ele>
        <time>2021-07-04T23:54:54.212Z</time>
      </trkpt>
      <trkpt lat="43.279245" lon="5.387330">
        <ele>21.037941</ele>
        <time>2021-07-04T23:54:57.243Z</time>
      </trkpt>
      <trkpt lat="43.278812" lon="5.387582">
        <ele>20.637716</ele>
        <time>2021-07-04T23:55:09.333Z</time>
      </trkpt>
      <trkpt lat="43.278727" lon="5.387632">
        <ele>20.559021</ele>
        <time>2021-07-04T23:55:11.700Z</time>
      </trkpt>
      <trkpt lat="43.278668" lon="5.387663">
        <ele>20.505260</ele>
        <time>2021-07-04T23:55:13.265Z</time>
      </trkpt>
      <trkpt lat="43.277423" lon="5.388372">
        <ele>19.386711</ele>
        <time>2021-07-04T23:55:50.569Z</time>
      </trkpt>
      <trkpt lat="43.277214" lon="5.388491">
        <ele>19.200282</ele>
        <time>2021-07-04T23:55:56.427Z</time>
      </trkpt>
      <trkpt lat="43.276197" lon="5.389056">
        <ele>17.994816</ele>
        <time>2021-07-04T23:56:24.128Z</time>
      </trkpt>
      <trkpt lat="43.276106" lon="5.389105">
        <ele>17.863264</ele>
        <time>2021-07-04T23:56:26.688Z</time>
      </trkpt>
      <trkpt lat="43.275177" lon="5.389629">
        <ele>16.511602</ele>
        <time>2021-07-04T23:56:51.960Z</time>
      </trkpt>
      <trkpt lat="43.275033" lon="5.389629">
        <ele>16.333437</ele>
        <time>2021-07-04T23:56:55.629Z</time>
      </trkpt>
      <trkpt lat="43.274955" lon="5.389755">
        <ele>16.246480</ele>
        <time>2021-07-04T23:56:58.618Z</time>
      </trkpt>
      <trkpt lat="43.274182" lon="5.390196">
        <ele>15.642024</ele>
        <time>2021-07-04T23:57:20.199Z</time>
      </trkpt>
      <trkpt lat="43.274124" lon="5.390229">
        <ele>15.596688</ele>
        <time>2021-07-04T23:57:21.910Z</time>
      </trkpt>
      <trkpt lat="43.274020" lon="5.390288">
        <ele>15.515431</ele>
        <time>2021-07-04T23:57:25.018Z</time>
      </trkpt>
      <trkpt lat="43.273999" lon="5.390301">
        <ele>15.498796</ele>
        <time>2021-07-04T23:57:25.717Z</time>
      </trkpt>
      <trkpt lat="43.273940" lon="5.390335">
        <ele>15.452592</ele>
        <time>2021-07-04T23:57:27.515Z</time>
      </trkpt>
      <trkpt lat="43.272952" lon="5.390901">
        <ele>14.857572</ele>
        <time>2021-07-04T23:57:59.228Z</time>
      </trkpt>
      <trkpt lat="43.272915" lon="5.390916">
        <ele>14.843006</ele>
        <time>2021-07-04T23:58:00.331Z</time>
      </trkpt>
      <trkpt lat="43.272813" lon="5.390941">
        <ele>14.803884</ele>
        <time>2021-07-04T23:58:03.120Z</time>
      </trkpt>
      <trkpt lat="43.272768" lon="5.390875">
        <ele>14.779026</ele>
        <time>2021-07-04T23:58:04.525Z</time>
      </trkpt>
      <trkpt lat="43.272715" lon="5.390830">
        <ele>14.755498</ele>
        <time>2021-07-04T23:58:05.906Z</time>
      </trkpt>
      <trkpt lat="43.272666" lon="5.390790">
        <ele>14.733975</ele>
        <time>2021-07-04T23:58:07.207Z</time>
      </trkpt>
      <trkpt lat="43.272432" lon="5.390749">
        <ele>14.644905</ele>
        <time>2021-07-04T23:58:11.996Z</time>
      </trkpt>
      <trkpt lat="43.272348" lon="5.390784">
        <ele>14.611760</ele>
        <time>2021-07-04T23:58:13.934Z</time>
      </trkpt>
      <trkpt lat="43.272329" lon="5.390791">
        <ele>14.604332</ele>
        <time>2021-07-04T23:58:14.358Z</time>
      </trkpt>
      <trkpt lat="43.272318" lon="5.390795">
        <ele>14.600036</ele>
        <time>2021-07-04T23:58:14.616Z</time>
      </trkpt>
      <trkpt lat="43.272273" lon="5.390829">
        <ele>14.580643</ele>
        <time>2021-07-04T23:58:15.670Z</time>
      </trkpt>
      <trkpt lat="43.272167" lon="5.390953">
        <ele>14.528069</ele>
        <time>2021-07-04T23:58:18.371Z</time>
      </trkpt>
      <trkpt lat="43.272136" lon="5.391012">
        <ele>14.508066</ele>
        <time>2021-07-04T23:58:19.434Z</time>
      </trkpt>
      <trkpt lat="43.272131" lon="5.391025">
        <ele>14.504024</ele>
        <time>2021-07-04T23:58:19.664Z</time>
      </trkpt>
      <trkpt lat="43.272115" lon="5.391073">
        <ele>14.489511</ele>
        <time>2021-07-04T23:58:20.474Z</time>
      </trkpt>
      <trkpt lat="43.272089" lon="5.391147">
        <ele>14.466922</ele>
        <time>2021-07-04T23:58:21.707Z</time>
      </trkpt>
      <trkpt lat="43.272068" lon="5.391293">
        <ele>14.426007</ele>
        <time>2021-07-04T23:58:23.890Z</time>
      </trkpt>
      <trkpt lat="43.272072" lon="5.391373">
        <ele>14.403962</ele>
        <time>2021-07-04T23:58:24.980Z</time>
      </trkpt>
      <trkpt lat="43.271978" lon="5.391396">
        <ele>14.357427</ele>
        <time>2021-07-04T23:58:26.965Z</time>
      </trkpt>
      <trkpt lat="43.271714" lon="5.391527">
        <ele>14.053796</ele>
        <time>2021-07-04T23:58:32.522Z</time>
      </trkpt>
      <trkpt lat="43.270821" lon="5.392039">
        <ele>13.007063</ele>
        <time>2021-07-04T23:58:50.763Z</time>
      </trkpt>
      <trkpt lat="43.270724" lon="5.392094">
        <ele>12.893550</ele>
        <time>2021-07-04T23:58:52.658Z</time>
      </trkpt>
      <trkpt lat="43.270675" lon="5.392124">
        <ele>12.835519</ele>
        <time>2021-07-04T23:58:53.652Z</time>
      </trkpt>
      <trkpt lat="43.270664" lon="5.392130">
        <ele>12.822717</ele>
        <time>2021-07-04T23:58:53.882Z</time>
      </trkpt>
      <trkpt lat="43.270660" lon="5.392205">
        <ele>12.763489</ele>
        <time>2021-07-04T23:58:54.952Z</time>
      </trkpt>
      <trkpt lat="43.270471" lon="5.392316">
        <ele>12.541143</ele>
        <time>2021-07-04T23:58:58.974Z</time>
      </trkpt>
      <trkpt lat="43.270415" lon="5.392350">
        <ele>12.474913</ele>
        <time>2021-07-04T23:59:00.184Z</time>
      </trkpt>
      <trkpt lat="43.270331" lon="5.392400">
        <ele>12.391463</ele>
        <time>2021-07-04T23:59:02.054Z</time>
      </trkpt>
      <trkpt lat="43.270288" lon="5.392425">
        <ele>12.356060</ele>
        <time>2021-07-04T23:59:02.992Z</time>
      </trkpt>
      <trkpt lat="43.270236" lon="5.392453">
        <ele>12.313713</ele>
        <time>2021-07-04T23:59:04.142Z</time>
      </trkpt>
      <trkpt lat="43.270273" lon="5.392576">
        <ele>12.240243</ele>
        <time>2021-07-04T23:59:06.136Z</time>
      </trkpt>
      <trkpt lat="43.270323" lon="5.392744">
        <ele>12.140050</ele>
        <time>2021-07-04T23:59:08.833Z</time>
      </trkpt>
      <trkpt lat="43.270308" lon="5.392754">
        <ele>12.127408</ele>
        <time>2021-07-04T23:59:09.204Z</time>
      </trkpt>
      <trkpt lat="43.268528" lon="5.393734">
        <ele>11.057453</ele>
        <time>2021-07-04T23:59:49.491Z</time>
      </trkpt>
      <trkpt lat="43.268408" lon="5.393794">
        <ele>11.055764</ele>
        <time>2021-07-04T23:59:52.194Z</time>
      </trkpt>
      <trkpt lat="43.268371" lon="5.393665">
        <ele>11.054429</ele>
        <time>2021-07-04T23:59:54.545Z</time>
      </trkpt>
      <trkpt lat="43.268328" lon="5.393529">
        <ele>11.053001</ele>
        <time>2021-07-04T23:59:57.172Z</time>
      </trkpt>
      <trkpt lat="43.268253" lon="5.393569">
        <ele>11.051937</ele>
        <time>2021-07-04T23:59:58.948Z</time>
      </trkpt>
      <trkpt lat="43.268143" lon="5.393629">
        <ele>11.050371</ele>
        <time>2021-07-05T00:00:01.607Z</time>
      </trkpt>
      <trkpt lat="43.267531" lon="5.393973">
        <ele>11.041626</ele>
        <time>2021-07-05T00:00:17.811Z</time>
      </trkpt>
      <trkpt lat="43.267429" lon="5.394030">
        <ele>11.071000</ele>
        <time>2021-07-05T00:00:20.626Z</time>
      </trkpt>
      <trkpt lat="43.266532" lon="5.394533">
        <ele>12.319481</ele>
        <time>2021-07-05T00:00:47.410Z</time>
      </trkpt>
      <trkpt lat="43.266432" lon="5.394589">
        <ele>12.458638</ele>
        <time>2021-07-05T00:00:50.693Z</time>
      </trkpt>
      <trkpt lat="43.266358" lon="5.394631">
        <ele>12.561814</ele>
        <time>2021-07-05T00:00:53.238Z</time>
      </trkpt>
      <trkpt lat="43.265413" lon="5.395157">
        <ele>13.649589</ele>
        <time>2021-07-05T00:01:23.722Z</time>
      </trkpt>
      <trkpt lat="43.265258" lon="5.395243">
        <ele>13.770887</ele>
        <time>2021-07-05T00:01:28.375Z</time>
      </trkpt>
      <trkpt lat="43.265116" lon="5.395322">
        <ele>13.882053</ele>
        <time>2021-07-05T00:01:32.062Z</time>
      </trkpt>
      <trkpt lat="43.264978" lon="5.395398">
        <ele>13.989935</ele>
        <time>2021-07-05T00:01:35.921Z</time>
      </trkpt>
      <trkpt lat="43.264573" lon="5.395640">
        <ele>14.310409</ele>
        <time>2021-07-05T00:01:47.020Z</time>
      </trkpt>
      <trkpt lat="43.264464" lon="5.395701">
        <ele>14.395812</ele>
        <time>2021-07-05T00:01:49.669Z</time>
      </trkpt>
      <trkpt lat="43.263690" lon="5.396131">
        <ele>14.735887</ele>
        <time>2021-07-05T00:02:09.816Z</time>
      </trkpt>
      <trkpt lat="43.263202" lon="5.396408">
        <ele>14.818173</ele>
        <time>2021-07-05T00:02:21.624Z</time>
      </trkpt>
      <trkpt lat="43.263126" lon="5.396451">
        <ele>14.830982</ele>
        <time>2021-07-05T00:02:23.280Z</time>
      </trkpt>
      <trkpt lat="43.262577" lon="5.396763">
        <ele>14.923570</ele>
        <time>2021-07-05T00:02:36.815Z</time>
      </trkpt>
      <trkpt lat="43.261365" lon="5.397451">
        <ele>16.574954</ele>
        <time>2021-07-05T00:03:13.501Z</time>
      </trkpt>
      <trkpt lat="43.260598" lon="5.397886">
        <ele>17.930187</ele>
        <time>2021-07-05T00:03:39.280Z</time>
      </trkpt>
      <trkpt lat="43.260553" lon="5.397911">
        <ele>18.044867</ele>
        <time>2021-07-05T00:03:40.832Z</time>
      </trkpt>
      <trkpt lat="43.260137" lon="5.398148">
        <ele>19.108857</ele>
        <time>2021-07-05T00:03:55.514Z</time>
      </trkpt>
      <trkpt lat="43.260082" lon="5.398177">
        <ele>19.248039</ele>
        <time>2021-07-05T00:03:57.420Z</time>
      </trkpt>
      <trkpt lat="43.260070" lon="5.398136">
        <ele>19.324060</ele>
        <time>2021-07-05T00:03:58.572Z</time>
      </trkpt>
      <trkpt lat="43.260057" lon="5.398088">
        <ele>19.412167</ele>
        <time>2021-07-05T00:03:59.925Z</time>
      </trkpt>
      <trkpt lat="43.259950" lon="5.397737">
        <ele>20.066809</ele>
        <time>2021-07-05T00:04:09.334Z</time>
      </trkpt>
      <trkpt lat="43.259880" lon="5.397507">
        <ele>20.495673</ele>
        <time>2021-07-05T00:04:15.868Z</time>
      </trkpt>
      <trkpt lat="43.259676" lon="5.396839">
        <ele>21.707452</ele>
        <time>2021-07-05T00:04:32.913Z</time>
      </trkpt>
      <trkpt lat="43.259536" lon="5.396361">
        <ele>22.158677</ele>
        <time>2021-07-05T00:04:45.043Z</time>
      </trkpt>
      <trkpt lat="43.259472" lon="5.396140">
        <ele>22.366974</ele>
        <time>2021-07-05T00:04:50.326Z</time>
      </trkpt>
      <trkpt lat="43.259425" lon="5.395977">
        <ele>22.520514</ele>
        <time>2021-07-05T00:04:54.005Z</time>
      </trkpt>
      <trkpt lat="43.259396" lon="5.395877">
        <ele>22.614783</ele>
        <time>2021-07-05T00:04:56.364Z</time>
      </trkpt>
      <trkpt lat="43.259335" lon="5.395667">
        <ele>22.812795</ele>
        <time>2021-07-05T00:05:01.243Z</time>
      </trkpt>
      <trkpt lat="43.259273" lon="5.395461">
        <ele>23.008013</ele>
        <time>2021-07-05T00:05:05.832Z</time>
      </trkpt>
      <trkpt lat="43.259268" lon="5.395446">
        <ele>23.022461</ele>
        <time>2021-07-05T00:05:06.180Z</time>
      </trkpt>
      <trkpt lat="43.259246" lon="5.395375">
        <ele>23.090038</ele>
        <time>2021-07-05T00:05:07.577Z</time>
      </trkpt>
      <trkpt lat="43.259235" lon="5.395340">
        <ele>23.123425</ele>
        <time>2021-07-05T00:05:08.280Z</time>
      </trkpt>
      <trkpt lat="43.259218" lon="5.395285">
        <ele>23.175753</ele>
        <time>2021-07-05T00:05:09.363Z</time>
      </trkpt>
      <trkpt lat="43.259145" lon="5.395052">
        <ele>23.397902</ele>
        <time>2021-07-05T00:05:13.972Z</time>
      </trkpt>
      <trkpt lat="43.259070" lon="5.394803">
        <ele>23.633897</ele>
        <time>2021-07-05T00:05:18.513Z</time>
      </trkpt>
      <trkpt lat="43.259042" lon="5.394710">
        <ele>23.722034</ele>
        <time>2021-07-05T00:05:20.140Z</time>
      </trkpt>
      <trkpt lat="43.259013" lon="5.394613">
        <ele>23.813868</ele>
        <time>2021-07-05T00:05:22.217Z</time>
      </trkpt>
      <trkpt lat="43.258994" lon="5.394549">
        <ele>23.835097</ele>
        <time>2021-07-05T00:05:23.523Z</time>
      </trkpt>
      <trkpt lat="43.258988" lon="5.394526">
        <ele>23.835245</ele>
        <time>2021-07-05T00:05:23.929Z</time>
      </trkpt>
      <trkpt lat="43.258947" lon="5.394370">
        <ele>23.836248</ele>
        <time>2021-07-05T00:05:26.477Z</time>
      </trkpt>
      <trkpt lat="43.258940" lon="5.394313">
        <ele>23.836597</ele>
        <time>2021-07-05T00:05:27.291Z</time>
      </trkpt>
      <trkpt lat="43.258935" lon="5.394267">
        <ele>23.836879</ele>
        <time>2021-07-05T00:05:28.002Z</time>
      </trkpt>
      <trkpt lat="43.258930" lon="5.394199">
        <ele>23.837292</ele>
        <time>2021-07-05T00:05:29.115Z</time>
      </trkpt>
      <trkpt lat="43.258469" lon="5.394270">
        <ele>23.841144</ele>
        <time>2021-07-05T00:05:39.185Z</time>
      </trkpt>
      <trkpt lat="43.258277" lon="5.394302">
        <ele>23.842751</ele>
        <time>2021-07-05T00:05:43.017Z</time>
      </trkpt>
      <trkpt lat="43.258152" lon="5.394323">
        <ele>23.843796</ele>
        <time>2021-07-05T00:05:45.866Z</time>
      </trkpt>
      <trkpt lat="43.257922" lon="5.394361">
        <ele>23.845720</ele>
        <time>2021-07-05T00:05:50.921Z</time>
      </trkpt>
      <trkpt lat="43.257876" lon="5.394371">
        <ele>23.846107</ele>
        <time>2021-07-05T00:05:51.909Z</time>
      </trkpt>
      <trkpt lat="43.257846" lon="5.394377">
        <ele>23.846359</ele>
        <time>2021-07-05T00:05:52.572Z</time>
      </trkpt>
      <trkpt lat="43.257697" lon="5.394355">
        <ele>23.847603</ele>
        <time>2021-07-05T00:05:56.139Z</time>
      </trkpt>
      <trkpt lat="43.257387" lon="5.394265">
        <ele>23.924454</ele>
        <time>2021-07-05T00:06:03.381Z</time>
      </trkpt>
      <trkpt lat="43.257247" lon="5.394222">
        <ele>24.112206</ele>
        <time>2021-07-05T00:06:06.919Z</time>
      </trkpt>
      <trkpt lat="43.257203" lon="5.394208">
        <ele>24.171317</ele>
        <time>2021-07-05T00:06:08.300Z</time>
      </trkpt>
      <trkpt lat="43.256727" lon="5.394063">
        <ele>24.809424</ele>
        <time>2021-07-05T00:06:20.762Z</time>
      </trkpt>
      <trkpt lat="43.256555" lon="5.394011">
        <ele>25.039919</ele>
        <time>2021-07-05T00:06:25.527Z</time>
      </trkpt>
      <trkpt lat="43.256516" lon="5.393997">
        <ele>25.092676</ele>
        <time>2021-07-05T00:06:26.805Z</time>
      </trkpt>
      <trkpt lat="43.256391" lon="5.393955">
        <ele>25.261095</ele>
        <time>2021-07-05T00:06:30.385Z</time>
      </trkpt>
      <trkpt lat="43.256339" lon="5.393943">
        <ele>25.330104</ele>
        <time>2021-07-05T00:06:32.121Z</time>
      </trkpt>
      <trkpt lat="43.256187" lon="5.393910">
        <ele>25.531504</ele>
        <time>2021-07-05T00:06:36.644Z</time>
      </trkpt>
      <trkpt lat="43.255812" lon="5.393967">
        <ele>26.025280</ele>
        <time>2021-07-05T00:06:48.021Z</time>
      </trkpt>
      <trkpt lat="43.255388" lon="5.394055">
        <ele>26.589530</ele>
        <time>2021-07-05T00:07:00.595Z</time>
      </trkpt>
      <trkpt lat="43.255373" lon="5.394058">
        <ele>26.609526</ele>
        <time>2021-07-05T00:07:01.009Z</time>
      </trkpt>
      <trkpt lat="43.255360" lon="5.394057">
        <ele>26.626701</ele>
        <time>2021-07-05T00:07:01.359Z</time>
      </trkpt>
      <trkpt lat="43.255334" lon="5.394054">
        <ele>26.661120</ele>
        <time>2021-07-05T00:07:02.099Z</time>
      </trkpt>
      <trkpt lat="43.255291" lon="5.394052">
        <ele>26.717875</ele>
        <time>2021-07-05T00:07:03.635Z</time>
      </trkpt>
      <trkpt lat="43.255092" lon="5.394070">
        <ele>26.980952</ele>
        <time>2021-07-05T00:07:09.870Z</time>
      </trkpt>
      <trkpt lat="43.254835" lon="5.394148">
        <ele>27.328153</ele>
        <time>2021-07-05T00:07:17.514Z</time>
      </trkpt>
      <trkpt lat="43.254740" lon="5.394179">
        <ele>27.456961</ele>
        <time>2021-07-05T00:07:20.219Z</time>
      </trkpt>
      <trkpt lat="43.254635" lon="5.394214">
        <ele>27.599493</ele>
        <time>2021-07-05T00:07:23.169Z</time>
      </trkpt>
      <trkpt lat="43.254511" lon="5.394256">
        <ele>27.767969</ele>
        <time>2021-07-05T00:07:26.607Z</time>
      </trkpt>
      <trkpt lat="43.254438" lon="5.394278">
        <ele>27.866558</ele>
        <time>2021-07-05T00:07:28.498Z</time>
      </trkpt>
      <trkpt lat="43.254348" lon="5.394308">
        <ele>27.988729</ele>
        <time>2021-07-05T00:07:30.962Z</time>
      </trkpt>
      <trkpt lat="43.254238" lon="5.394338">
        <ele>28.136669</ele>
        <time>2021-07-05T00:07:34.053Z</time>
      </trkpt>
      <trkpt lat="43.254100" lon="5.394382">
        <ele>28.323553</ele>
        <time>2021-07-05T00:07:37.525Z</time>
      </trkpt>
      <trkpt lat="43.254080" lon="5.394276">
        <ele>28.428755</ele>
        <time>2021-07-05T00:07:39.563Z</time>
      </trkpt>
      <trkpt lat="43.254041" lon="5.394213">
        <ele>28.508192</ele>
        <time>2021-07-05T00:07:41.120Z</time>
      </trkpt>
      <trkpt lat="43.253888" lon="5.393965">
        <ele>28.363435</ele>
        <time>2021-07-05T00:07:46.876Z</time>
      </trkpt>
      <trkpt lat="43.253849" lon="5.393903">
        <ele>28.294770</ele>
        <time>2021-07-05T00:07:48.165Z</time>
      </trkpt>
      <trkpt lat="43.253784" lon="5.393829">
        <ele>28.197598</ele>
        <time>2021-07-05T00:07:49.976Z</time>
      </trkpt>
      <trkpt lat="43.253434" lon="5.393316">
        <ele>27.608431</ele>
        <time>2021-07-05T00:08:00.119Z</time>
      </trkpt>
      <trkpt lat="43.252957" lon="5.392512">
        <ele>26.739258</ele>
        <time>2021-07-05T00:08:13.761Z</time>
      </trkpt>
      <trkpt lat="43.252810" lon="5.392291">
        <ele>26.465731</ele>
        <time>2021-07-05T00:08:17.455Z</time>
      </trkpt>
      <trkpt lat="43.252685" lon="5.392103">
        <ele>25.984806</ele>
        <time>2021-07-05T00:08:20.599Z</time>
      </trkpt>
      <trkpt lat="43.252590" lon="5.391960">
        <ele>25.619135</ele>
        <time>2021-07-05T00:08:22.960Z</time>
      </trkpt>
      <trkpt lat="43.252591" lon="5.391878">
        <ele>25.464192</ele>
        <time>2021-07-05T00:08:23.940Z</time>
      </trkpt>
      <trkpt lat="43.252218" lon="5.391277">
        <ele>23.972411</ele>
        <time>2021-07-05T00:08:34.008Z</time>
      </trkpt>
      <trkpt lat="43.252114" lon="5.391085">
        <ele>23.520349</ele>
        <time>2021-07-05T00:08:36.987Z</time>
      </trkpt>
      <trkpt lat="43.252026" lon="5.390940">
        <ele>23.163764</ele>
        <time>2021-07-05T00:08:39.386Z</time>
      </trkpt>
      <trkpt lat="43.251992" lon="5.390889">
        <ele>23.033141</ele>
        <time>2021-07-05T00:08:40.228Z</time>
      </trkpt>
      <trkpt lat="43.251807" lon="5.390727">
        <ele>22.463963</ele>
        <time>2021-07-05T00:08:44.042Z</time>
      </trkpt>
      <trkpt lat="43.251771" lon="5.390706">
        <ele>22.362502</ele>
        <time>2021-07-05T00:08:44.724Z</time>
      </trkpt>
      <trkpt lat="43.251752" lon="5.390734">
        <ele>22.290201</ele>
        <time>2021-07-05T00:08:46.623Z</time>
      </trkpt>
      <trkpt lat="43.251282" lon="5.390163">
        <ele>21.424278</ele>
        <time>2021-07-05T00:08:57.720Z</time>
      </trkpt>
      <trkpt lat="43.251044" lon="5.389874">
        <ele>21.132958</ele>
        <time>2021-07-05T00:09:03.857Z</time>
      </trkpt>
      <trkpt lat="43.251008" lon="5.389831">
        <ele>21.089207</ele>
        <time>2021-07-05T00:09:04.938Z</time>
      </trkpt>
      <trkpt lat="43.250940" lon="5.389734">
        <ele>20.999299</ele>
        <time>2021-07-05T00:09:06.875Z</time>
      </trkpt>
      <trkpt lat="43.250877" lon="5.389644">
        <ele>20.915937</ele>
        <time>2021-07-05T00:09:08.696Z</time>
      </trkpt>
      <trkpt lat="43.250535" lon="5.389180">
        <ele>20.475089</ele>
        <time>2021-07-05T00:09:18.784Z</time>
      </trkpt>
      <trkpt lat="43.250497" lon="5.389106">
        <ele>20.414623</ele>
        <time>2021-07-05T00:09:20.310Z</time>
      </trkpt>
      <trkpt lat="43.250506" lon="5.389020">
        <ele>20.356600</ele>
        <time>2021-07-05T00:09:21.675Z</time>
      </trkpt>
      <trkpt lat="43.250494" lon="5.388934">
        <ele>20.298123</ele>
        <time>2021-07-05T00:09:22.967Z</time>
      </trkpt>
      <trkpt lat="43.250469" lon="5.388871">
        <ele>20.250211</ele>
        <time>2021-07-05T00:09:24.152Z</time>
      </trkpt>
      <trkpt lat="43.250389" lon="5.388782">
        <ele>20.227861</ele>
        <time>2021-07-05T00:09:26.318Z</time>
      </trkpt>
      <trkpt lat="43.250338" lon="5.388762">
        <ele>20.276751</ele>
        <time>2021-07-05T00:09:27.578Z</time>
      </trkpt>
      <trkpt lat="43.250276" lon="5.388661">
        <ele>20.365430</ele>
        <time>2021-07-05T00:09:29.792Z</time>
      </trkpt>
      <trkpt lat="43.250145" lon="5.388541">
        <ele>20.510590</ele>
        <time>2021-07-05T00:09:33.332Z</time>
      </trkpt>
      <trkpt lat="43.250005" lon="5.388338">
        <ele>20.698281</ele>
        <time>2021-07-05T00:09:38.545Z</time>
      </trkpt>
      <trkpt lat="43.249834" lon="5.388013">
        <ele>20.967456</ele>
        <time>2021-07-05T00:09:46.523Z</time>
      </trkpt>
      <trkpt lat="43.249815" lon="5.387977">
        <ele>20.997304</ele>
        <time>2021-07-05T00:09:47.453Z</time>
      </trkpt>
      <trkpt lat="43.249771" lon="5.387885">
        <ele>21.071197</ele>
        <time>2021-07-05T00:09:49.615Z</time>
      </trkpt>
      <trkpt lat="43.249524" lon="5.387406">
        <ele>21.465224</ele>
        <time>2021-07-05T00:10:01.935Z</time>
      </trkpt>
      <trkpt lat="43.249456" lon="5.387242">
        <ele>21.591922</ele>
        <time>2021-07-05T00:10:05.966Z</time>
      </trkpt>
      <trkpt lat="43.249426" lon="5.387166">
        <ele>21.649959</ele>
        <time>2021-07-05T00:10:07.935Z</time>
      </trkpt>
      <trkpt lat="43.249412" lon="5.387107">
        <ele>21.691620</ele>
        <time>2021-07-05T00:10:09.271Z</time>
      </trkpt>
      <trkpt lat="43.249417" lon="5.387070">
        <ele>21.716885</ele>
        <time>2021-07-05T00:10:10.054Z</time>
      </trkpt>
      <trkpt lat="43.249417" lon="5.387033">
        <ele>21.741726</ele>
        <time>2021-07-05T00:10:10.837Z</time>
      </trkpt>
      <trkpt lat="43.249409" lon="5.386987">
        <ele>21.773478</ele>
        <time>2021-07-05T00:10:11.795Z</time>
      </trkpt>
      <trkpt lat="43.249375" lon="5.386907">
        <ele>21.835664</ele>
        <time>2021-07-05T00:10:13.755Z</time>
      </trkpt>
      <trkpt lat="43.249346" lon="5.386880">
        <ele>21.886268</ele>
        <time>2021-07-05T00:10:14.741Z</time>
      </trkpt>
      <trkpt lat="43.249314" lon="5.386861">
        <ele>21.950529</ele>
        <time>2021-07-05T00:10:15.765Z</time>
      </trkpt>
      <trkpt lat="43.249280" lon="5.386853">
        <ele>22.014111</ele>
        <time>2021-07-05T00:10:16.784Z</time>
      </trkpt>
      <trkpt lat="43.249236" lon="5.386859">
        <ele>22.095609</ele>
        <time>2021-07-05T00:10:18.153Z</time>
      </trkpt>
      <trkpt lat="43.249196" lon="5.386882">
        <ele>22.175541</ele>
        <time>2021-07-05T00:10:19.380Z</time>
      </trkpt>
      <trkpt lat="43.249162" lon="5.386921">
        <ele>22.257202</ele>
        <time>2021-07-05T00:10:20.637Z</time>
      </trkpt>
      <trkpt lat="43.249140" lon="5.386965">
        <ele>22.328852</ele>
        <time>2021-07-05T00:10:21.733Z</time>
      </trkpt>
      <trkpt lat="43.249128" lon="5.387016">
        <ele>22.400805</ele>
        <time>2021-07-05T00:10:22.765Z</time>
      </trkpt>
      <trkpt lat="43.249126" lon="5.387069">
        <ele>22.472054</ele>
        <time>2021-07-05T00:10:23.899Z</time>
      </trkpt>
      <trkpt lat="43.249097" lon="5.387155">
        <ele>22.599284</ele>
        <time>2021-07-05T00:10:25.847Z</time>
      </trkpt>
      <trkpt lat="43.249065" lon="5.387237">
        <ele>22.724176</ele>
        <time>2021-07-05T00:10:27.874Z</time>
      </trkpt>
      <trkpt lat="43.248026" lon="5.389228">
        <ele>25.164846</ele>
        <time>2021-07-05T00:11:23.639Z</time>
      </trkpt>
      <trkpt lat="43.247728" lon="5.389741">
        <ele>25.164846</ele>
        <time>2021-07-05T00:11:38.326Z</time>
      </trkpt>
      <trkpt lat="43.247683" lon="5.389759">
        <ele>25.164846</ele>
        <time>2021-07-05T00:11:39.986Z</time>
      </trkpt>
      <trkpt lat="43.247639" lon="5.389752">
        <ele>25.164846</ele>
        <time>2021-07-05T00:11:41.245Z</time>
      </trkpt>
      <trkpt lat="43.247616" lon="5.389758">
        <ele>25.164846</ele>
        <time>2021-07-05T00:11:41.907Z</time>
      </trkpt>
      <trkpt lat="43.247587" lon="5.389775">
        <ele>25.164846</ele>
        <time>2021-07-05T00:11:42.874Z</time>
      </trkpt>
      <trkpt lat="43.247545" lon="5.389835">
        <ele>25.164846</ele>
        <time>2021-07-05T00:11:44.645Z</time>
      </trkpt>
      <trkpt lat="43.247530" lon="5.389900">
        <ele>25.164846</ele>
        <time>2021-07-05T00:11:46.072Z</time>
      </trkpt>
      <trkpt lat="43.247536" lon="5.389968">
        <ele>25.164846</ele>
        <time>2021-07-05T00:11:47.478Z</time>
      </trkpt>
      <trkpt lat="43.247538" lon="5.389975">
        <ele>25.164846</ele>
        <time>2021-07-05T00:11:47.646Z</time>
      </trkpt>
      <trkpt lat="43.247527" lon="5.390100">
        <ele>25.164846</ele>
        <time>2021-07-05T00:11:50.554Z</time>
      </trkpt>
      <trkpt lat="43.247448" lon="5.390411">
        <ele>25.164846</ele>
        <time>2021-07-05T00:11:57.260Z</time>
      </trkpt>
      <trkpt lat="43.247416" lon="5.390398">
        <ele>25.164846</ele>
        <time>2021-07-05T00:11:59.630Z</time>
      </trkpt>
      <trkpt lat="43.247378" lon="5.390643">
        <ele>25.164846</ele>
        <time>2021-07-05T00:12:12.357Z</time>
      </trkpt>
      <trkpt lat="43.247352" lon="5.390645">
        <ele>25.164846</ele>
        <time>2021-07-05T00:12:14.156Z</time>
      </trkpt>
      <trkpt lat="43.247209" lon="5.390656">
        <ele>25.164846</ele>
        <time>2021-07-05T00:12:24.090Z</time>
      </trkpt>
    </trkseg>
  </trk>
</gpx>